<?xml version="1.0" encoding="UTF-8" standalone="no" ?>
<gpx xmlns="http://www.topografix.com/GPX/1/1" xmlns:xsi="http://www.w3.org/2001/XMLSchema-instance" xsi:schemaLocation="http://www.topografix.com/GPX/1/1 http://www.topografix.com/GPX/1/1/gpx.xsd" version="1.1" creator="VisuGPX - https://www.visugpx.com">
  <metadata>
    <name>Tour d'Europe: étape 046</name>
    <desc><![CDATA[Étape 046]]></desc>
  </metadata>
  <trk>
    <name><![CDATA[Tour d'Europe: étape 046]]></name>
    <trkseg>
      <trkpt lat="65.21559" lon="12.04442">
        <ele>39.019304</ele>
        <time>2020-08-13T06:46:19.080Z</time>
      </trkpt>
      <trkpt lat="65.21566" lon="12.04403">
        <ele>39.019304</ele>
        <time>2020-08-13T06:48:06.830Z</time>
      </trkpt>
      <trkpt lat="65.21571" lon="12.04383">
        <ele>39.019304</ele>
        <time>2020-08-13T06:48:10.830Z</time>
      </trkpt>
      <trkpt lat="65.21578" lon="12.04368">
        <ele>39.019304</ele>
        <time>2020-08-13T06:48:14.831Z</time>
      </trkpt>
      <trkpt lat="65.21584" lon="12.04344">
        <ele>39.019304</ele>
        <time>2020-08-13T06:48:18.870Z</time>
      </trkpt>
      <trkpt lat="65.21587" lon="12.04322">
        <ele>39.019304</ele>
        <time>2020-08-13T06:48:23.823Z</time>
      </trkpt>
      <trkpt lat="65.21597" lon="12.04285">
        <ele>39.019304</ele>
        <time>2020-08-13T06:49:08.836Z</time>
      </trkpt>
      <trkpt lat="65.21604" lon="12.04271">
        <ele>39.019304</ele>
        <time>2020-08-13T06:49:12.832Z</time>
      </trkpt>
      <trkpt lat="65.21612" lon="12.04282">
        <ele>39.349632</ele>
        <time>2020-08-13T06:49:16.812Z</time>
      </trkpt>
      <trkpt lat="65.21615" lon="12.04308">
        <ele>40.007485</ele>
        <time>2020-08-13T06:49:20.808Z</time>
      </trkpt>
      <trkpt lat="65.21619" lon="12.04331">
        <ele>40.642403</ele>
        <time>2020-08-13T06:49:24.809Z</time>
      </trkpt>
      <trkpt lat="65.21625" lon="12.04353">
        <ele>41.300584</ele>
        <time>2020-08-13T06:49:28.849Z</time>
      </trkpt>
      <trkpt lat="65.2163" lon="12.04376">
        <ele>41.983996</ele>
        <time>2020-08-13T06:49:32.870Z</time>
      </trkpt>
      <trkpt lat="65.21637" lon="12.04396">
        <ele>42.619301</ele>
        <time>2020-08-13T06:49:36.805Z</time>
      </trkpt>
      <trkpt lat="65.21644" lon="12.04412">
        <ele>43.183184</ele>
        <time>2020-08-13T06:49:40.844Z</time>
      </trkpt>
      <trkpt lat="65.21653" lon="12.04423">
        <ele>43.803011</ele>
        <time>2020-08-13T06:49:44.826Z</time>
      </trkpt>
      <trkpt lat="65.21662" lon="12.04437">
        <ele>44.45522</ele>
        <time>2020-08-13T06:49:48.839Z</time>
      </trkpt>
      <trkpt lat="65.21671" lon="12.04448">
        <ele>45.061208</ele>
        <time>2020-08-13T06:49:52.802Z</time>
      </trkpt>
      <trkpt lat="65.2168" lon="12.04462">
        <ele>45.683708</ele>
        <time>2020-08-13T06:49:56.814Z</time>
      </trkpt>
      <trkpt lat="65.21689" lon="12.04474">
        <ele>46.344661</ele>
        <time>2020-08-13T06:50:00.817Z</time>
      </trkpt>
      <trkpt lat="65.217" lon="12.04487">
        <ele>47.031189</ele>
        <time>2020-08-13T06:50:04.795Z</time>
      </trkpt>
      <trkpt lat="65.21709" lon="12.045">
        <ele>47.705973</ele>
        <time>2020-08-13T06:50:08.814Z</time>
      </trkpt>
      <trkpt lat="65.2172" lon="12.04511">
        <ele>48.376618</ele>
        <time>2020-08-13T06:50:12.864Z</time>
      </trkpt>
      <trkpt lat="65.21729" lon="12.04525">
        <ele>49.048265</ele>
        <time>2020-08-13T06:50:16.863Z</time>
      </trkpt>
      <trkpt lat="65.2174" lon="12.0454">
        <ele>49.780377</ele>
        <time>2020-08-13T06:50:20.846Z</time>
      </trkpt>
      <trkpt lat="65.21749" lon="12.04553">
        <ele>49.594758</ele>
        <time>2020-08-13T06:50:23.838Z</time>
      </trkpt>
      <trkpt lat="65.21758" lon="12.04567">
        <ele>49.380692</ele>
        <time>2020-08-13T06:50:26.850Z</time>
      </trkpt>
      <trkpt lat="65.21767" lon="12.04584">
        <ele>49.145667</ele>
        <time>2020-08-13T06:50:29.814Z</time>
      </trkpt>
      <trkpt lat="65.21776" lon="12.04606">
        <ele>48.898366</ele>
        <time>2020-08-13T06:50:32.810Z</time>
      </trkpt>
      <trkpt lat="65.21783" lon="12.04621">
        <ele>48.720046</ele>
        <time>2020-08-13T06:50:34.868Z</time>
      </trkpt>
      <trkpt lat="65.21789" lon="12.04638">
        <ele>48.537305</ele>
        <time>2020-08-13T06:50:36.813Z</time>
      </trkpt>
      <trkpt lat="65.21794" lon="12.04657">
        <ele>48.351259</ele>
        <time>2020-08-13T06:50:38.815Z</time>
      </trkpt>
      <trkpt lat="65.21799" lon="12.04676">
        <ele>48.160847</ele>
        <time>2020-08-13T06:50:40.806Z</time>
      </trkpt>
      <trkpt lat="65.21804" lon="12.04697">
        <ele>47.967991</ele>
        <time>2020-08-13T06:50:42.813Z</time>
      </trkpt>
      <trkpt lat="65.21809" lon="12.04717">
        <ele>47.770556</ele>
        <time>2020-08-13T06:50:44.827Z</time>
      </trkpt>
      <trkpt lat="65.21814" lon="12.04741">
        <ele>47.56117</ele>
        <time>2020-08-13T06:50:46.842Z</time>
      </trkpt>
      <trkpt lat="65.21818" lon="12.04765">
        <ele>47.341222</ele>
        <time>2020-08-13T06:50:48.838Z</time>
      </trkpt>
      <trkpt lat="65.21824" lon="12.0479">
        <ele>47.109966</ele>
        <time>2020-08-13T06:50:50.801Z</time>
      </trkpt>
      <trkpt lat="65.21829" lon="12.04815">
        <ele>46.877399</ele>
        <time>2020-08-13T06:50:52.861Z</time>
      </trkpt>
      <trkpt lat="65.21835" lon="12.0484">
        <ele>46.645319</ele>
        <time>2020-08-13T06:50:54.831Z</time>
      </trkpt>
      <trkpt lat="65.21841" lon="12.04863">
        <ele>46.416635</ele>
        <time>2020-08-13T06:50:56.834Z</time>
      </trkpt>
      <trkpt lat="65.21847" lon="12.04885">
        <ele>46.308537</ele>
        <time>2020-08-13T06:50:58.795Z</time>
      </trkpt>
      <trkpt lat="65.21852" lon="12.04906">
        <ele>46.431572</ele>
        <time>2020-08-13T06:51:00.829Z</time>
      </trkpt>
      <trkpt lat="65.21857" lon="12.04925">
        <ele>46.549377</ele>
        <time>2020-08-13T06:51:02.817Z</time>
      </trkpt>
      <trkpt lat="65.21863" lon="12.04942">
        <ele>46.660801</ele>
        <time>2020-08-13T06:51:04.821Z</time>
      </trkpt>
      <trkpt lat="65.21872" lon="12.04966">
        <ele>46.823805</ele>
        <time>2020-08-13T06:51:07.840Z</time>
      </trkpt>
      <trkpt lat="65.21881" lon="12.04986">
        <ele>46.976967</ele>
        <time>2020-08-13T06:51:10.815Z</time>
      </trkpt>
      <trkpt lat="65.2189" lon="12.05002">
        <ele>47.116982</ele>
        <time>2020-08-13T06:51:13.864Z</time>
      </trkpt>
      <trkpt lat="65.21899" lon="12.05015">
        <ele>47.242442</ele>
        <time>2020-08-13T06:51:16.842Z</time>
      </trkpt>
      <trkpt lat="65.2191" lon="12.05028">
        <ele>47.396568</ele>
        <time>2020-08-13T06:51:19.814Z</time>
      </trkpt>
      <trkpt lat="65.21919" lon="12.05037">
        <ele>47.512125</ele>
        <time>2020-08-13T06:51:21.847Z</time>
      </trkpt>
      <trkpt lat="65.21928" lon="12.05046">
        <ele>47.635852</ele>
        <time>2020-08-13T06:51:23.818Z</time>
      </trkpt>
      <trkpt lat="65.21938" lon="12.05056">
        <ele>47.763967</ele>
        <time>2020-08-13T06:51:25.804Z</time>
      </trkpt>
      <trkpt lat="65.21947" lon="12.05064">
        <ele>47.89003</ele>
        <time>2020-08-13T06:51:27.818Z</time>
      </trkpt>
      <trkpt lat="65.21957" lon="12.05071">
        <ele>48.016964</ele>
        <time>2020-08-13T06:51:29.842Z</time>
      </trkpt>
      <trkpt lat="65.21967" lon="12.05078">
        <ele>48.140386</ele>
        <time>2020-08-13T06:51:31.804Z</time>
      </trkpt>
      <trkpt lat="65.21977" lon="12.05084">
        <ele>48.263808</ele>
        <time>2020-08-13T06:51:33.804Z</time>
      </trkpt>
      <trkpt lat="65.21986" lon="12.0509">
        <ele>48.384872</ele>
        <time>2020-08-13T06:51:35.811Z</time>
      </trkpt>
      <trkpt lat="65.21995" lon="12.05096">
        <ele>48.466376</ele>
        <time>2020-08-13T06:51:37.843Z</time>
      </trkpt>
      <trkpt lat="65.22008" lon="12.05103">
        <ele>48.431408</ele>
        <time>2020-08-13T06:51:40.832Z</time>
      </trkpt>
      <trkpt lat="65.2202" lon="12.0511">
        <ele>48.400155</ele>
        <time>2020-08-13T06:51:43.812Z</time>
      </trkpt>
      <trkpt lat="65.22031" lon="12.05118">
        <ele>48.369749</ele>
        <time>2020-08-13T06:51:46.806Z</time>
      </trkpt>
      <trkpt lat="65.22041" lon="12.05125">
        <ele>48.340838</ele>
        <time>2020-08-13T06:51:49.824Z</time>
      </trkpt>
      <trkpt lat="65.22049" lon="12.05137">
        <ele>48.315298</ele>
        <time>2020-08-13T06:51:52.792Z</time>
      </trkpt>
      <trkpt lat="65.2206" lon="12.05153">
        <ele>48.283143</ele>
        <time>2020-08-13T06:51:55.824Z</time>
      </trkpt>
      <trkpt lat="65.2207" lon="12.05168">
        <ele>48.251722</ele>
        <time>2020-08-13T06:51:58.810Z</time>
      </trkpt>
      <trkpt lat="65.22077" lon="12.05191">
        <ele>48.219731</ele>
        <time>2020-08-13T06:52:01.808Z</time>
      </trkpt>
      <trkpt lat="65.22082" lon="12.0522">
        <ele>48.185247</ele>
        <time>2020-08-13T06:52:04.796Z</time>
      </trkpt>
      <trkpt lat="65.22085" lon="12.0525">
        <ele>48.149912</ele>
        <time>2020-08-13T06:52:07.828Z</time>
      </trkpt>
      <trkpt lat="65.22087" lon="12.05273">
        <ele>48.123877</ele>
        <time>2020-08-13T06:52:09.813Z</time>
      </trkpt>
      <trkpt lat="65.22089" lon="12.05297">
        <ele>48.096746</ele>
        <time>2020-08-13T06:52:11.791Z</time>
      </trkpt>
      <trkpt lat="65.2209" lon="12.05324">
        <ele>48.067024</ele>
        <time>2020-08-13T06:52:13.816Z</time>
      </trkpt>
      <trkpt lat="65.22092" lon="12.05352">
        <ele>48.035508</ele>
        <time>2020-08-13T06:52:15.832Z</time>
      </trkpt>
      <trkpt lat="65.22092" lon="12.0538">
        <ele>48.003593</ele>
        <time>2020-08-13T06:52:17.835Z</time>
      </trkpt>
      <trkpt lat="65.22093" lon="12.05408">
        <ele>47.707861</ele>
        <time>2020-08-13T06:52:19.807Z</time>
      </trkpt>
      <trkpt lat="65.22095" lon="12.05435">
        <ele>47.321672</ele>
        <time>2020-08-13T06:52:21.806Z</time>
      </trkpt>
      <trkpt lat="65.22097" lon="12.05462">
        <ele>46.94202</ele>
        <time>2020-08-13T06:52:23.840Z</time>
      </trkpt>
      <trkpt lat="65.22098" lon="12.05489">
        <ele>46.557685</ele>
        <time>2020-08-13T06:52:25.812Z</time>
      </trkpt>
      <trkpt lat="65.221" lon="12.05516">
        <ele>46.166942</ele>
        <time>2020-08-13T06:52:27.857Z</time>
      </trkpt>
      <trkpt lat="65.22103" lon="12.05543">
        <ele>45.773409</ele>
        <time>2020-08-13T06:52:29.828Z</time>
      </trkpt>
      <trkpt lat="65.22106" lon="12.05571">
        <ele>45.374966</ele>
        <time>2020-08-13T06:52:31.804Z</time>
      </trkpt>
      <trkpt lat="65.22109" lon="12.05598">
        <ele>44.982808</ele>
        <time>2020-08-13T06:52:33.812Z</time>
      </trkpt>
      <trkpt lat="65.22111" lon="12.05625">
        <ele>44.585152</ele>
        <time>2020-08-13T06:52:35.806Z</time>
      </trkpt>
      <trkpt lat="65.22114" lon="12.05652">
        <ele>44.195479</ele>
        <time>2020-08-13T06:52:37.848Z</time>
      </trkpt>
      <trkpt lat="65.22117" lon="12.05678">
        <ele>43.81019</ele>
        <time>2020-08-13T06:52:39.820Z</time>
      </trkpt>
      <trkpt lat="65.22119" lon="12.05705">
        <ele>43.422302</ele>
        <time>2020-08-13T06:52:41.829Z</time>
      </trkpt>
      <trkpt lat="65.22122" lon="12.05731">
        <ele>43.041921</ele>
        <time>2020-08-13T06:52:43.795Z</time>
      </trkpt>
      <trkpt lat="65.22125" lon="12.05757">
        <ele>42.672238</ele>
        <time>2020-08-13T06:52:45.822Z</time>
      </trkpt>
      <trkpt lat="65.22128" lon="12.05782">
        <ele>42.294354</ele>
        <time>2020-08-13T06:52:47.802Z</time>
      </trkpt>
      <trkpt lat="65.2213" lon="12.05809">
        <ele>41.93995</ele>
        <time>2020-08-13T06:52:49.806Z</time>
      </trkpt>
      <trkpt lat="65.22132" lon="12.05835">
        <ele>42.081463</ele>
        <time>2020-08-13T06:52:51.817Z</time>
      </trkpt>
      <trkpt lat="65.22135" lon="12.0586">
        <ele>42.22068</ele>
        <time>2020-08-13T06:52:53.815Z</time>
      </trkpt>
      <trkpt lat="65.22138" lon="12.05886">
        <ele>42.359896</ele>
        <time>2020-08-13T06:52:55.805Z</time>
      </trkpt>
      <trkpt lat="65.2214" lon="12.05911">
        <ele>42.498707</ele>
        <time>2020-08-13T06:52:57.802Z</time>
      </trkpt>
      <trkpt lat="65.22143" lon="12.05937">
        <ele>42.639475</ele>
        <time>2020-08-13T06:52:59.817Z</time>
      </trkpt>
      <trkpt lat="65.22146" lon="12.05962">
        <ele>42.777358</ele>
        <time>2020-08-13T06:53:01.800Z</time>
      </trkpt>
      <trkpt lat="65.22148" lon="12.05987">
        <ele>42.914205</ele>
        <time>2020-08-13T06:53:03.835Z</time>
      </trkpt>
      <trkpt lat="65.22151" lon="12.06012">
        <ele>43.051148</ele>
        <time>2020-08-13T06:53:05.830Z</time>
      </trkpt>
      <trkpt lat="65.22153" lon="12.06036">
        <ele>43.186119</ele>
        <time>2020-08-13T06:53:07.813Z</time>
      </trkpt>
      <trkpt lat="65.22155" lon="12.06061">
        <ele>43.319007</ele>
        <time>2020-08-13T06:53:09.793Z</time>
      </trkpt>
      <trkpt lat="65.22157" lon="12.06086">
        <ele>43.453457</ele>
        <time>2020-08-13T06:53:11.811Z</time>
      </trkpt>
      <trkpt lat="65.2216" lon="12.06109">
        <ele>43.584403</ele>
        <time>2020-08-13T06:53:13.793Z</time>
      </trkpt>
      <trkpt lat="65.22163" lon="12.06133">
        <ele>43.714484</ele>
        <time>2020-08-13T06:53:15.824Z</time>
      </trkpt>
      <trkpt lat="65.22166" lon="12.06156">
        <ele>43.843122</ele>
        <time>2020-08-13T06:53:17.803Z</time>
      </trkpt>
      <trkpt lat="65.2217" lon="12.06178">
        <ele>43.971294</ele>
        <time>2020-08-13T06:53:19.833Z</time>
      </trkpt>
      <trkpt lat="65.22175" lon="12.06199">
        <ele>44.098401</ele>
        <time>2020-08-13T06:53:21.802Z</time>
      </trkpt>
      <trkpt lat="65.22179" lon="12.06221">
        <ele>44.222841</ele>
        <time>2020-08-13T06:53:23.828Z</time>
      </trkpt>
      <trkpt lat="65.22183" lon="12.06241">
        <ele>44.298486</ele>
        <time>2020-08-13T06:53:25.807Z</time>
      </trkpt>
      <trkpt lat="65.22188" lon="12.06262">
        <ele>44.375446</ele>
        <time>2020-08-13T06:53:27.806Z</time>
      </trkpt>
      <trkpt lat="65.22193" lon="12.06282">
        <ele>44.452684</ele>
        <time>2020-08-13T06:53:29.801Z</time>
      </trkpt>
      <trkpt lat="65.22198" lon="12.06301">
        <ele>44.526962</ele>
        <time>2020-08-13T06:53:31.812Z</time>
      </trkpt>
      <trkpt lat="65.22203" lon="12.06321">
        <ele>44.60364</ele>
        <time>2020-08-13T06:53:33.828Z</time>
      </trkpt>
      <trkpt lat="65.22209" lon="12.06339">
        <ele>44.682031</ele>
        <time>2020-08-13T06:53:35.828Z</time>
      </trkpt>
      <trkpt lat="65.22215" lon="12.06358">
        <ele>44.758416</ele>
        <time>2020-08-13T06:53:37.818Z</time>
      </trkpt>
      <trkpt lat="65.22221" lon="12.06376">
        <ele>44.835022</ele>
        <time>2020-08-13T06:53:39.815Z</time>
      </trkpt>
      <trkpt lat="65.22228" lon="12.06394">
        <ele>44.913353</ele>
        <time>2020-08-13T06:53:41.817Z</time>
      </trkpt>
      <trkpt lat="65.22234" lon="12.06413">
        <ele>44.991435</ele>
        <time>2020-08-13T06:53:43.836Z</time>
      </trkpt>
      <trkpt lat="65.22241" lon="12.06431">
        <ele>45.072801</ele>
        <time>2020-08-13T06:53:45.820Z</time>
      </trkpt>
      <trkpt lat="65.22248" lon="12.06449">
        <ele>45.153279</ele>
        <time>2020-08-13T06:53:47.818Z</time>
      </trkpt>
      <trkpt lat="65.22255" lon="12.06468">
        <ele>45.236815</ele>
        <time>2020-08-13T06:53:49.811Z</time>
      </trkpt>
      <trkpt lat="65.22263" lon="12.06485">
        <ele>45.319344</ele>
        <time>2020-08-13T06:53:51.807Z</time>
      </trkpt>
      <trkpt lat="65.22271" lon="12.06499">
        <ele>45.399833</ele>
        <time>2020-08-13T06:53:53.822Z</time>
      </trkpt>
      <trkpt lat="65.2228" lon="12.0651">
        <ele>45.479687</ele>
        <time>2020-08-13T06:53:55.800Z</time>
      </trkpt>
      <trkpt lat="65.2229" lon="12.06519">
        <ele>45.561563</ele>
        <time>2020-08-13T06:53:57.845Z</time>
      </trkpt>
      <trkpt lat="65.223" lon="12.06525">
        <ele>45.62494</ele>
        <time>2020-08-13T06:53:59.824Z</time>
      </trkpt>
      <trkpt lat="65.2231" lon="12.0653">
        <ele>45.579785</ele>
        <time>2020-08-13T06:54:01.826Z</time>
      </trkpt>
      <trkpt lat="65.2232" lon="12.06531">
        <ele>45.536497</ele>
        <time>2020-08-13T06:54:03.818Z</time>
      </trkpt>
      <trkpt lat="65.2233" lon="12.06533">
        <ele>45.493221</ele>
        <time>2020-08-13T06:54:05.807Z</time>
      </trkpt>
      <trkpt lat="65.22339" lon="12.06535">
        <ele>45.451212</ele>
        <time>2020-08-13T06:54:07.819Z</time>
      </trkpt>
      <trkpt lat="65.22349" lon="12.06536">
        <ele>45.410113</ele>
        <time>2020-08-13T06:54:09.814Z</time>
      </trkpt>
      <trkpt lat="65.22358" lon="12.06538">
        <ele>45.369449</ele>
        <time>2020-08-13T06:54:11.812Z</time>
      </trkpt>
      <trkpt lat="65.22371" lon="12.06539">
        <ele>45.312242</ele>
        <time>2020-08-13T06:54:14.802Z</time>
      </trkpt>
      <trkpt lat="65.22384" lon="12.06541">
        <ele>45.255374</ele>
        <time>2020-08-13T06:54:17.805Z</time>
      </trkpt>
      <trkpt lat="65.22397" lon="12.06544">
        <ele>45.198926</ele>
        <time>2020-08-13T06:54:20.809Z</time>
      </trkpt>
      <trkpt lat="65.22409" lon="12.06546">
        <ele>45.145591</ele>
        <time>2020-08-13T06:54:23.839Z</time>
      </trkpt>
      <trkpt lat="65.22421" lon="12.0655">
        <ele>45.092248</ele>
        <time>2020-08-13T06:54:26.796Z</time>
      </trkpt>
      <trkpt lat="65.22434" lon="12.06556">
        <ele>45.037329</ele>
        <time>2020-08-13T06:54:29.824Z</time>
      </trkpt>
      <trkpt lat="65.22442" lon="12.06562">
        <ele>44.997921</ele>
        <time>2020-08-13T06:54:31.801Z</time>
      </trkpt>
      <trkpt lat="65.22452" lon="12.0657">
        <ele>44.954883</ele>
        <time>2020-08-13T06:54:33.804Z</time>
      </trkpt>
      <trkpt lat="65.22461" lon="12.06581">
        <ele>44.910787</ele>
        <time>2020-08-13T06:54:35.852Z</time>
      </trkpt>
      <trkpt lat="65.2247" lon="12.06594">
        <ele>44.864986</ele>
        <time>2020-08-13T06:54:37.807Z</time>
      </trkpt>
      <trkpt lat="65.22479" lon="12.06609">
        <ele>45.038629</ele>
        <time>2020-08-13T06:54:39.811Z</time>
      </trkpt>
      <trkpt lat="65.22487" lon="12.06624">
        <ele>45.330978</ele>
        <time>2020-08-13T06:54:41.848Z</time>
      </trkpt>
      <trkpt lat="65.22495" lon="12.06641">
        <ele>45.64244</ele>
        <time>2020-08-13T06:54:43.810Z</time>
      </trkpt>
      <trkpt lat="65.22504" lon="12.06659">
        <ele>45.95103</ele>
        <time>2020-08-13T06:54:45.839Z</time>
      </trkpt>
      <trkpt lat="65.22512" lon="12.06676">
        <ele>46.264454</ele>
        <time>2020-08-13T06:54:47.825Z</time>
      </trkpt>
      <trkpt lat="65.22521" lon="12.06692">
        <ele>46.5669</ele>
        <time>2020-08-13T06:54:49.805Z</time>
      </trkpt>
      <trkpt lat="65.22529" lon="12.06708">
        <ele>46.867837</ele>
        <time>2020-08-13T06:54:51.812Z</time>
      </trkpt>
      <trkpt lat="65.22537" lon="12.06723">
        <ele>47.157843</ele>
        <time>2020-08-13T06:54:53.806Z</time>
      </trkpt>
      <trkpt lat="65.22546" lon="12.06737">
        <ele>47.441744</ele>
        <time>2020-08-13T06:54:55.797Z</time>
      </trkpt>
      <trkpt lat="65.22553" lon="12.0675">
        <ele>47.703191</ele>
        <time>2020-08-13T06:54:57.828Z</time>
      </trkpt>
      <trkpt lat="65.22564" lon="12.06768">
        <ele>48.066578</ele>
        <time>2020-08-13T06:55:00.816Z</time>
      </trkpt>
      <trkpt lat="65.22574" lon="12.06787">
        <ele>48.436777</ele>
        <time>2020-08-13T06:55:03.852Z</time>
      </trkpt>
      <trkpt lat="65.22584" lon="12.06807">
        <ele>48.791961</ele>
        <time>2020-08-13T06:55:06.797Z</time>
      </trkpt>
      <trkpt lat="65.22594" lon="12.06828">
        <ele>49.150497</ele>
        <time>2020-08-13T06:55:09.824Z</time>
      </trkpt>
      <trkpt lat="65.22603" lon="12.06848">
        <ele>49.510324</ele>
        <time>2020-08-13T06:55:12.834Z</time>
      </trkpt>
      <trkpt lat="65.22612" lon="12.06867">
        <ele>49.843093</ele>
        <time>2020-08-13T06:55:15.799Z</time>
      </trkpt>
      <trkpt lat="65.2262" lon="12.06885">
        <ele>50.234287</ele>
        <time>2020-08-13T06:55:18.820Z</time>
      </trkpt>
      <trkpt lat="65.22628" lon="12.06902">
        <ele>50.607001</ele>
        <time>2020-08-13T06:55:21.804Z</time>
      </trkpt>
      <trkpt lat="65.22636" lon="12.0692">
        <ele>50.988808</ele>
        <time>2020-08-13T06:55:24.819Z</time>
      </trkpt>
      <trkpt lat="65.22643" lon="12.06937">
        <ele>51.360889</ele>
        <time>2020-08-13T06:55:27.812Z</time>
      </trkpt>
      <trkpt lat="65.22651" lon="12.06954">
        <ele>51.719601</ele>
        <time>2020-08-13T06:55:30.826Z</time>
      </trkpt>
      <trkpt lat="65.22658" lon="12.06969">
        <ele>52.048696</ele>
        <time>2020-08-13T06:55:33.811Z</time>
      </trkpt>
      <trkpt lat="65.22664" lon="12.06983">
        <ele>52.366558</ele>
        <time>2020-08-13T06:55:36.821Z</time>
      </trkpt>
      <trkpt lat="65.22673" lon="12.07002">
        <ele>52.788511</ele>
        <time>2020-08-13T06:55:40.804Z</time>
      </trkpt>
      <trkpt lat="65.22682" lon="12.07021">
        <ele>53.203674</ele>
        <time>2020-08-13T06:55:44.840Z</time>
      </trkpt>
      <trkpt lat="65.2269" lon="12.07038">
        <ele>53.59791</ele>
        <time>2020-08-13T06:55:48.813Z</time>
      </trkpt>
      <trkpt lat="65.22698" lon="12.07054">
        <ele>53.95212</ele>
        <time>2020-08-13T06:55:52.816Z</time>
      </trkpt>
      <trkpt lat="65.22704" lon="12.07071">
        <ele>54.291179</ele>
        <time>2020-08-13T06:55:56.833Z</time>
      </trkpt>
      <trkpt lat="65.22712" lon="12.07089">
        <ele>54.679652</ele>
        <time>2020-08-13T06:56:01.849Z</time>
      </trkpt>
      <trkpt lat="65.22719" lon="12.07106">
        <ele>55.041719</ele>
        <time>2020-08-13T06:56:06.805Z</time>
      </trkpt>
      <trkpt lat="65.22726" lon="12.07122">
        <ele>55.370834</ele>
        <time>2020-08-13T06:56:11.801Z</time>
      </trkpt>
      <trkpt lat="65.22732" lon="12.07139">
        <ele>55.71342</ele>
        <time>2020-08-13T06:56:16.812Z</time>
      </trkpt>
      <trkpt lat="65.22738" lon="12.07157">
        <ele>56.041634</ele>
        <time>2020-08-13T06:56:21.813Z</time>
      </trkpt>
      <trkpt lat="65.22745" lon="12.07173">
        <ele>56.34367</ele>
        <time>2020-08-13T06:56:25.789Z</time>
      </trkpt>
      <trkpt lat="65.22752" lon="12.07187">
        <ele>56.557897</ele>
        <time>2020-08-13T06:56:28.810Z</time>
      </trkpt>
      <trkpt lat="65.22761" lon="12.07207">
        <ele>56.845208</ele>
        <time>2020-08-13T06:56:31.801Z</time>
      </trkpt>
      <trkpt lat="65.22768" lon="12.07224">
        <ele>57.073404</ele>
        <time>2020-08-13T06:56:33.846Z</time>
      </trkpt>
      <trkpt lat="65.22775" lon="12.07242">
        <ele>57.317045</ele>
        <time>2020-08-13T06:56:35.817Z</time>
      </trkpt>
      <trkpt lat="65.22782" lon="12.07259">
        <ele>57.562764</ele>
        <time>2020-08-13T06:56:37.811Z</time>
      </trkpt>
      <trkpt lat="65.22789" lon="12.07276">
        <ele>57.795402</ele>
        <time>2020-08-13T06:56:39.806Z</time>
      </trkpt>
      <trkpt lat="65.22796" lon="12.07293">
        <ele>58.01488</ele>
        <time>2020-08-13T06:56:41.806Z</time>
      </trkpt>
      <trkpt lat="65.22804" lon="12.07315">
        <ele>58.308001</ele>
        <time>2020-08-13T06:56:44.855Z</time>
      </trkpt>
      <trkpt lat="65.22812" lon="12.07335">
        <ele>58.580809</ele>
        <time>2020-08-13T06:56:47.807Z</time>
      </trkpt>
      <trkpt lat="65.2282" lon="12.07352">
        <ele>58.821369</ele>
        <time>2020-08-13T06:56:50.818Z</time>
      </trkpt>
      <trkpt lat="65.22828" lon="12.07372">
        <ele>59.091837</ele>
        <time>2020-08-13T06:56:54.848Z</time>
      </trkpt>
      <trkpt lat="65.22835" lon="12.07387">
        <ele>59.316152</ele>
        <time>2020-08-13T06:56:58.807Z</time>
      </trkpt>
      <trkpt lat="65.22841" lon="12.07404">
        <ele>59.528714</ele>
        <time>2020-08-13T06:57:02.811Z</time>
      </trkpt>
      <trkpt lat="65.22847" lon="12.07425">
        <ele>59.782861</ele>
        <time>2020-08-13T06:57:07.826Z</time>
      </trkpt>
      <trkpt lat="65.22852" lon="12.07443">
        <ele>59.993093</ele>
        <time>2020-08-13T06:57:11.814Z</time>
      </trkpt>
      <trkpt lat="65.22857" lon="12.0746">
        <ele>60.206854</ele>
        <time>2020-08-13T06:57:15.813Z</time>
      </trkpt>
      <trkpt lat="65.22862" lon="12.0748">
        <ele>60.425288</ele>
        <time>2020-08-13T06:57:19.816Z</time>
      </trkpt>
      <trkpt lat="65.22868" lon="12.07499">
        <ele>60.145824</ele>
        <time>2020-08-13T06:57:23.817Z</time>
      </trkpt>
      <trkpt lat="65.22875" lon="12.07514">
        <ele>59.816046</ele>
        <time>2020-08-13T06:57:26.818Z</time>
      </trkpt>
      <trkpt lat="65.22885" lon="12.07531">
        <ele>59.376323</ele>
        <time>2020-08-13T06:57:29.810Z</time>
      </trkpt>
      <trkpt lat="65.22894" lon="12.07543">
        <ele>58.9767</ele>
        <time>2020-08-13T06:57:31.834Z</time>
      </trkpt>
      <trkpt lat="65.22907" lon="12.07556">
        <ele>58.484151</ele>
        <time>2020-08-13T06:57:33.809Z</time>
      </trkpt>
      <trkpt lat="65.22922" lon="12.07567">
        <ele>57.914936</ele>
        <time>2020-08-13T06:57:35.830Z</time>
      </trkpt>
      <trkpt lat="65.22939" lon="12.07579">
        <ele>57.273988</ele>
        <time>2020-08-13T06:57:37.832Z</time>
      </trkpt>
      <trkpt lat="65.22948" lon="12.07585">
        <ele>56.937078</ele>
        <time>2020-08-13T06:57:38.812Z</time>
      </trkpt>
      <trkpt lat="65.22957" lon="12.07591">
        <ele>56.588529</ele>
        <time>2020-08-13T06:57:39.807Z</time>
      </trkpt>
      <trkpt lat="65.22967" lon="12.07598">
        <ele>56.227486</ele>
        <time>2020-08-13T06:57:40.822Z</time>
      </trkpt>
      <trkpt lat="65.22977" lon="12.07605">
        <ele>55.857793</ele>
        <time>2020-08-13T06:57:41.801Z</time>
      </trkpt>
      <trkpt lat="65.22987" lon="12.07612">
        <ele>55.486741</ele>
        <time>2020-08-13T06:57:42.815Z</time>
      </trkpt>
      <trkpt lat="65.22997" lon="12.07621">
        <ele>55.109413</ele>
        <time>2020-08-13T06:57:43.806Z</time>
      </trkpt>
      <trkpt lat="65.23007" lon="12.07629">
        <ele>54.720384</ele>
        <time>2020-08-13T06:57:44.833Z</time>
      </trkpt>
      <trkpt lat="65.23017" lon="12.07639">
        <ele>54.326147</ele>
        <time>2020-08-13T06:57:45.830Z</time>
      </trkpt>
      <trkpt lat="65.23027" lon="12.07651">
        <ele>53.90826</ele>
        <time>2020-08-13T06:57:46.804Z</time>
      </trkpt>
      <trkpt lat="65.23036" lon="12.07665">
        <ele>53.333833</ele>
        <time>2020-08-13T06:57:47.841Z</time>
      </trkpt>
      <trkpt lat="65.23044" lon="12.0768">
        <ele>52.768531</ele>
        <time>2020-08-13T06:57:48.810Z</time>
      </trkpt>
      <trkpt lat="65.23052" lon="12.07698">
        <ele>52.211371</ele>
        <time>2020-08-13T06:57:49.819Z</time>
      </trkpt>
      <trkpt lat="65.23058" lon="12.07717">
        <ele>51.67126</ele>
        <time>2020-08-13T06:57:50.853Z</time>
      </trkpt>
      <trkpt lat="65.23063" lon="12.07738">
        <ele>51.141654</ele>
        <time>2020-08-13T06:57:51.814Z</time>
      </trkpt>
      <trkpt lat="65.23067" lon="12.07759">
        <ele>50.619399</ele>
        <time>2020-08-13T06:57:52.806Z</time>
      </trkpt>
      <trkpt lat="65.2307" lon="12.07781">
        <ele>50.106359</ele>
        <time>2020-08-13T06:57:53.803Z</time>
      </trkpt>
      <trkpt lat="65.23072" lon="12.07803">
        <ele>49.609908</ele>
        <time>2020-08-13T06:57:54.797Z</time>
      </trkpt>
      <trkpt lat="65.23074" lon="12.07824">
        <ele>49.130546</ele>
        <time>2020-08-13T06:57:55.826Z</time>
      </trkpt>
      <trkpt lat="65.23076" lon="12.07865">
        <ele>48.220549</ele>
        <time>2020-08-13T06:57:57.821Z</time>
      </trkpt>
      <trkpt lat="65.23078" lon="12.07904">
        <ele>47.350849</ele>
        <time>2020-08-13T06:57:59.825Z</time>
      </trkpt>
      <trkpt lat="65.23081" lon="12.07942">
        <ele>46.489739</ele>
        <time>2020-08-13T06:58:01.819Z</time>
      </trkpt>
      <trkpt lat="65.23084" lon="12.07978">
        <ele>45.677286</ele>
        <time>2020-08-13T06:58:03.810Z</time>
      </trkpt>
      <trkpt lat="65.23086" lon="12.08012">
        <ele>44.918626</ele>
        <time>2020-08-13T06:58:05.821Z</time>
      </trkpt>
      <trkpt lat="65.23088" lon="12.08044">
        <ele>44.407062</ele>
        <time>2020-08-13T06:58:07.801Z</time>
      </trkpt>
      <trkpt lat="65.2309" lon="12.08074">
        <ele>44.300196</ele>
        <time>2020-08-13T06:58:09.815Z</time>
      </trkpt>
      <trkpt lat="65.23092" lon="12.08101">
        <ele>44.203949</ele>
        <time>2020-08-13T06:58:11.797Z</time>
      </trkpt>
      <trkpt lat="65.23093" lon="12.08126">
        <ele>44.11753</ele>
        <time>2020-08-13T06:58:13.824Z</time>
      </trkpt>
      <trkpt lat="65.23094" lon="12.08148">
        <ele>44.038048</ele>
        <time>2020-08-13T06:58:15.806Z</time>
      </trkpt>
      <trkpt lat="65.23096" lon="12.0817">
        <ele>43.960993</ele>
        <time>2020-08-13T06:58:17.811Z</time>
      </trkpt>
      <trkpt lat="65.23098" lon="12.08201">
        <ele>43.850196</ele>
        <time>2020-08-13T06:58:20.815Z</time>
      </trkpt>
      <trkpt lat="65.23099" lon="12.08223">
        <ele>43.774497</ele>
        <time>2020-08-13T06:58:22.808Z</time>
      </trkpt>
      <trkpt lat="65.231" lon="12.08244">
        <ele>43.698012</ele>
        <time>2020-08-13T06:58:24.796Z</time>
      </trkpt>
      <trkpt lat="65.23102" lon="12.08266">
        <ele>43.619571</ele>
        <time>2020-08-13T06:58:26.798Z</time>
      </trkpt>
      <trkpt lat="65.23103" lon="12.08289">
        <ele>43.540054</ele>
        <time>2020-08-13T06:58:28.822Z</time>
      </trkpt>
      <trkpt lat="65.23105" lon="12.0831">
        <ele>43.463327</ele>
        <time>2020-08-13T06:58:30.798Z</time>
      </trkpt>
      <trkpt lat="65.23107" lon="12.08331">
        <ele>43.388457</ele>
        <time>2020-08-13T06:58:32.793Z</time>
      </trkpt>
      <trkpt lat="65.2311" lon="12.0836">
        <ele>43.284637</ele>
        <time>2020-08-13T06:58:35.824Z</time>
      </trkpt>
      <trkpt lat="65.23111" lon="12.08389">
        <ele>43.183432</ele>
        <time>2020-08-13T06:58:38.792Z</time>
      </trkpt>
      <trkpt lat="65.23112" lon="12.08414">
        <ele>43.09555</ele>
        <time>2020-08-13T06:58:41.801Z</time>
      </trkpt>
      <trkpt lat="65.23113" lon="12.08436">
        <ele>43.017296</ele>
        <time>2020-08-13T06:58:44.848Z</time>
      </trkpt>
      <trkpt lat="65.23115" lon="12.08463">
        <ele>43.067433</ele>
        <time>2020-08-13T06:58:48.818Z</time>
      </trkpt>
      <trkpt lat="65.23116" lon="12.08486">
        <ele>43.55315</ele>
        <time>2020-08-13T06:58:52.796Z</time>
      </trkpt>
      <trkpt lat="65.23118" lon="12.08512">
        <ele>44.1088</ele>
        <time>2020-08-13T06:58:57.816Z</time>
      </trkpt>
      <trkpt lat="65.23119" lon="12.08533">
        <ele>44.561354</ele>
        <time>2020-08-13T06:59:01.806Z</time>
      </trkpt>
      <trkpt lat="65.23121" lon="12.08558">
        <ele>45.076122</ele>
        <time>2020-08-13T06:59:06.803Z</time>
      </trkpt>
      <trkpt lat="65.23123" lon="12.08583">
        <ele>45.625375</ele>
        <time>2020-08-13T06:59:11.819Z</time>
      </trkpt>
      <trkpt lat="65.23126" lon="12.08606">
        <ele>46.125523</ele>
        <time>2020-08-13T06:59:15.814Z</time>
      </trkpt>
      <trkpt lat="65.2313" lon="12.08628">
        <ele>46.614116</ele>
        <time>2020-08-13T06:59:19.822Z</time>
      </trkpt>
      <trkpt lat="65.23134" lon="12.08649">
        <ele>47.099234</ele>
        <time>2020-08-13T06:59:23.814Z</time>
      </trkpt>
      <trkpt lat="65.23139" lon="12.08668">
        <ele>47.575115</ele>
        <time>2020-08-13T06:59:27.818Z</time>
      </trkpt>
      <trkpt lat="65.23144" lon="12.08687">
        <ele>48.035862</ele>
        <time>2020-08-13T06:59:31.854Z</time>
      </trkpt>
      <trkpt lat="65.2315" lon="12.08707">
        <ele>48.553597</ele>
        <time>2020-08-13T06:59:35.810Z</time>
      </trkpt>
      <trkpt lat="65.23156" lon="12.08723">
        <ele>49.014653</ele>
        <time>2020-08-13T06:59:38.830Z</time>
      </trkpt>
      <trkpt lat="65.23164" lon="12.08747">
        <ele>49.63661</ele>
        <time>2020-08-13T06:59:41.837Z</time>
      </trkpt>
      <trkpt lat="65.2317" lon="12.08767">
        <ele>50.160285</ele>
        <time>2020-08-13T06:59:43.803Z</time>
      </trkpt>
      <trkpt lat="65.23177" lon="12.0879">
        <ele>50.765835</ele>
        <time>2020-08-13T06:59:45.821Z</time>
      </trkpt>
      <trkpt lat="65.23185" lon="12.08815">
        <ele>51.42028</ele>
        <time>2020-08-13T06:59:47.806Z</time>
      </trkpt>
      <trkpt lat="65.23192" lon="12.08843">
        <ele>51.845617</ele>
        <time>2020-08-13T06:59:49.805Z</time>
      </trkpt>
      <trkpt lat="65.232" lon="12.08873">
        <ele>51.513243</ele>
        <time>2020-08-13T06:59:51.846Z</time>
      </trkpt>
      <trkpt lat="65.23207" lon="12.08903">
        <ele>51.190863</ele>
        <time>2020-08-13T06:59:53.813Z</time>
      </trkpt>
      <trkpt lat="65.23214" lon="12.08931">
        <ele>50.885015</ele>
        <time>2020-08-13T06:59:55.814Z</time>
      </trkpt>
      <trkpt lat="65.2322" lon="12.08957">
        <ele>50.60958</ele>
        <time>2020-08-13T06:59:57.824Z</time>
      </trkpt>
      <trkpt lat="65.23226" lon="12.0898">
        <ele>50.351066</ele>
        <time>2020-08-13T06:59:59.822Z</time>
      </trkpt>
      <trkpt lat="65.23233" lon="12.09001">
        <ele>50.111074</ele>
        <time>2020-08-13T07:00:01.814Z</time>
      </trkpt>
      <trkpt lat="65.23239" lon="12.0902">
        <ele>49.88999</ele>
        <time>2020-08-13T07:00:03.826Z</time>
      </trkpt>
      <trkpt lat="65.23245" lon="12.09039">
        <ele>49.657018</ele>
        <time>2020-08-13T07:00:05.802Z</time>
      </trkpt>
      <trkpt lat="65.23253" lon="12.09056">
        <ele>49.421801</ele>
        <time>2020-08-13T07:00:07.821Z</time>
      </trkpt>
      <trkpt lat="65.23261" lon="12.09074">
        <ele>49.177819</ele>
        <time>2020-08-13T07:00:09.829Z</time>
      </trkpt>
      <trkpt lat="65.23269" lon="12.09091">
        <ele>48.945262</ele>
        <time>2020-08-13T07:00:11.813Z</time>
      </trkpt>
      <trkpt lat="65.23276" lon="12.09106">
        <ele>48.718625</ele>
        <time>2020-08-13T07:00:13.846Z</time>
      </trkpt>
      <trkpt lat="65.23284" lon="12.09121">
        <ele>48.503673</ele>
        <time>2020-08-13T07:00:15.823Z</time>
      </trkpt>
      <trkpt lat="65.23291" lon="12.09135">
        <ele>48.285241</ele>
        <time>2020-08-13T07:00:17.814Z</time>
      </trkpt>
      <trkpt lat="65.23299" lon="12.0915">
        <ele>48.057473</ele>
        <time>2020-08-13T07:00:19.801Z</time>
      </trkpt>
      <trkpt lat="65.23308" lon="12.09164">
        <ele>47.875334</ele>
        <time>2020-08-13T07:00:21.842Z</time>
      </trkpt>
      <trkpt lat="65.23316" lon="12.09177">
        <ele>47.791443</ele>
        <time>2020-08-13T07:00:23.810Z</time>
      </trkpt>
      <trkpt lat="65.23325" lon="12.09191">
        <ele>47.706879</ele>
        <time>2020-08-13T07:00:25.822Z</time>
      </trkpt>
      <trkpt lat="65.23333" lon="12.09205">
        <ele>47.621441</ele>
        <time>2020-08-13T07:00:27.806Z</time>
      </trkpt>
      <trkpt lat="65.23342" lon="12.09218">
        <ele>47.534789</ele>
        <time>2020-08-13T07:00:29.799Z</time>
      </trkpt>
      <trkpt lat="65.23351" lon="12.09231">
        <ele>47.449548</ele>
        <time>2020-08-13T07:00:31.829Z</time>
      </trkpt>
      <trkpt lat="65.2336" lon="12.09244">
        <ele>47.364308</ele>
        <time>2020-08-13T07:00:33.813Z</time>
      </trkpt>
      <trkpt lat="65.23368" lon="12.09257">
        <ele>47.279952</ele>
        <time>2020-08-13T07:00:35.883Z</time>
      </trkpt>
      <trkpt lat="65.23377" lon="12.0927">
        <ele>47.192237</ele>
        <time>2020-08-13T07:00:37.839Z</time>
      </trkpt>
      <trkpt lat="65.23387" lon="12.09282">
        <ele>47.104975</ele>
        <time>2020-08-13T07:00:39.807Z</time>
      </trkpt>
      <trkpt lat="65.23396" lon="12.09293">
        <ele>47.02109</ele>
        <time>2020-08-13T07:00:41.829Z</time>
      </trkpt>
      <trkpt lat="65.23405" lon="12.09303">
        <ele>46.938991</ele>
        <time>2020-08-13T07:00:43.811Z</time>
      </trkpt>
      <trkpt lat="65.23413" lon="12.09314">
        <ele>46.859101</ele>
        <time>2020-08-13T07:00:45.827Z</time>
      </trkpt>
      <trkpt lat="65.23422" lon="12.09325">
        <ele>46.779514</ele>
        <time>2020-08-13T07:00:47.842Z</time>
      </trkpt>
      <trkpt lat="65.2343" lon="12.09337">
        <ele>46.697463</ele>
        <time>2020-08-13T07:00:49.814Z</time>
      </trkpt>
      <trkpt lat="65.23439" lon="12.09352">
        <ele>46.608522</ele>
        <time>2020-08-13T07:00:51.801Z</time>
      </trkpt>
      <trkpt lat="65.23448" lon="12.09367">
        <ele>46.517993</ele>
        <time>2020-08-13T07:00:53.819Z</time>
      </trkpt>
      <trkpt lat="65.23456" lon="12.09384">
        <ele>46.430662</ele>
        <time>2020-08-13T07:00:55.810Z</time>
      </trkpt>
      <trkpt lat="65.23463" lon="12.09401">
        <ele>46.45735</ele>
        <time>2020-08-13T07:00:57.824Z</time>
      </trkpt>
      <trkpt lat="65.23471" lon="12.09419">
        <ele>46.506947</ele>
        <time>2020-08-13T07:00:59.805Z</time>
      </trkpt>
      <trkpt lat="65.23478" lon="12.09439">
        <ele>46.558073</ele>
        <time>2020-08-13T07:01:01.817Z</time>
      </trkpt>
      <trkpt lat="65.23484" lon="12.09459">
        <ele>46.609409</ele>
        <time>2020-08-13T07:01:03.806Z</time>
      </trkpt>
      <trkpt lat="65.23491" lon="12.09478">
        <ele>46.659311</ele>
        <time>2020-08-13T07:01:05.828Z</time>
      </trkpt>
      <trkpt lat="65.23497" lon="12.09499">
        <ele>46.709436</ele>
        <time>2020-08-13T07:01:07.852Z</time>
      </trkpt>
      <trkpt lat="65.23503" lon="12.0952">
        <ele>46.7594</ele>
        <time>2020-08-13T07:01:09.797Z</time>
      </trkpt>
      <trkpt lat="65.23508" lon="12.09541">
        <ele>46.809728</ele>
        <time>2020-08-13T07:01:11.831Z</time>
      </trkpt>
      <trkpt lat="65.23512" lon="12.09563">
        <ele>46.856896</ele>
        <time>2020-08-13T07:01:13.810Z</time>
      </trkpt>
      <trkpt lat="65.23516" lon="12.09584">
        <ele>46.902017</ele>
        <time>2020-08-13T07:01:15.836Z</time>
      </trkpt>
      <trkpt lat="65.2352" lon="12.09613">
        <ele>46.964307</ele>
        <time>2020-08-13T07:01:18.840Z</time>
      </trkpt>
      <trkpt lat="65.23524" lon="12.09639">
        <ele>47.019703</ele>
        <time>2020-08-13T07:01:21.806Z</time>
      </trkpt>
      <trkpt lat="65.23528" lon="12.09664">
        <ele>47.071237</ele>
        <time>2020-08-13T07:01:24.809Z</time>
      </trkpt>
      <trkpt lat="65.23531" lon="12.09687">
        <ele>47.120956</ele>
        <time>2020-08-13T07:01:27.822Z</time>
      </trkpt>
      <trkpt lat="65.23534" lon="12.09711">
        <ele>47.170755</ele>
        <time>2020-08-13T07:01:30.816Z</time>
      </trkpt>
      <trkpt lat="65.23538" lon="12.09735">
        <ele>47.222155</ele>
        <time>2020-08-13T07:01:33.809Z</time>
      </trkpt>
      <trkpt lat="65.23542" lon="12.09759">
        <ele>47.272041</ele>
        <time>2020-08-13T07:01:36.841Z</time>
      </trkpt>
      <trkpt lat="65.23546" lon="12.09784">
        <ele>47.112439</ele>
        <time>2020-08-13T07:01:39.823Z</time>
      </trkpt>
      <trkpt lat="65.2355" lon="12.0981">
        <ele>46.953277</ele>
        <time>2020-08-13T07:01:42.809Z</time>
      </trkpt>
      <trkpt lat="65.23554" lon="12.09836">
        <ele>46.790989</ele>
        <time>2020-08-13T07:01:45.818Z</time>
      </trkpt>
      <trkpt lat="65.23558" lon="12.09864">
        <ele>46.619854</ele>
        <time>2020-08-13T07:01:48.804Z</time>
      </trkpt>
      <trkpt lat="65.23562" lon="12.09893">
        <ele>46.436548</ele>
        <time>2020-08-13T07:01:51.837Z</time>
      </trkpt>
      <trkpt lat="65.23565" lon="12.09915">
        <ele>46.304164</ele>
        <time>2020-08-13T07:01:53.821Z</time>
      </trkpt>
      <trkpt lat="65.23567" lon="12.09939">
        <ele>46.161782</ele>
        <time>2020-08-13T07:01:55.802Z</time>
      </trkpt>
      <trkpt lat="65.2357" lon="12.09964">
        <ele>46.008417</ele>
        <time>2020-08-13T07:01:57.807Z</time>
      </trkpt>
      <trkpt lat="65.23572" lon="12.09991">
        <ele>45.847374</ele>
        <time>2020-08-13T07:01:59.798Z</time>
      </trkpt>
      <trkpt lat="65.23574" lon="12.10017">
        <ele>45.688032</ele>
        <time>2020-08-13T07:02:01.809Z</time>
      </trkpt>
      <trkpt lat="65.23576" lon="12.10044">
        <ele>45.528468</ele>
        <time>2020-08-13T07:02:03.805Z</time>
      </trkpt>
      <trkpt lat="65.23577" lon="12.10071">
        <ele>45.369879</ele>
        <time>2020-08-13T07:02:05.848Z</time>
      </trkpt>
      <trkpt lat="65.23579" lon="12.10097">
        <ele>45.215873</ele>
        <time>2020-08-13T07:02:07.836Z</time>
      </trkpt>
      <trkpt lat="65.2358" lon="12.10123">
        <ele>45.061527</ele>
        <time>2020-08-13T07:02:09.820Z</time>
      </trkpt>
      <trkpt lat="65.23582" lon="12.1015">
        <ele>44.902543</ele>
        <time>2020-08-13T07:02:11.808Z</time>
      </trkpt>
      <trkpt lat="65.23585" lon="12.10176">
        <ele>44.760464</ele>
        <time>2020-08-13T07:02:13.811Z</time>
      </trkpt>
      <trkpt lat="65.23588" lon="12.102">
        <ele>44.86376</ele>
        <time>2020-08-13T07:02:15.798Z</time>
      </trkpt>
      <trkpt lat="65.23593" lon="12.10222">
        <ele>44.961516</ele>
        <time>2020-08-13T07:02:17.809Z</time>
      </trkpt>
      <trkpt lat="65.23599" lon="12.10242">
        <ele>45.058481</ele>
        <time>2020-08-13T07:02:19.835Z</time>
      </trkpt>
      <trkpt lat="65.23605" lon="12.10258">
        <ele>45.147069</ele>
        <time>2020-08-13T07:02:21.821Z</time>
      </trkpt>
      <trkpt lat="65.23612" lon="12.10271">
        <ele>45.234167</ele>
        <time>2020-08-13T07:02:23.807Z</time>
      </trkpt>
      <trkpt lat="65.2362" lon="12.10283">
        <ele>45.3229</ele>
        <time>2020-08-13T07:02:25.833Z</time>
      </trkpt>
      <trkpt lat="65.23632" lon="12.10295">
        <ele>45.450954</ele>
        <time>2020-08-13T07:02:28.796Z</time>
      </trkpt>
      <trkpt lat="65.23641" lon="12.10303">
        <ele>45.538076</ele>
        <time>2020-08-13T07:02:30.811Z</time>
      </trkpt>
      <trkpt lat="65.23653" lon="12.10315">
        <ele>45.661938</ele>
        <time>2020-08-13T07:02:33.811Z</time>
      </trkpt>
      <trkpt lat="65.23665" lon="12.10324">
        <ele>45.785376</ele>
        <time>2020-08-13T07:02:36.819Z</time>
      </trkpt>
      <trkpt lat="65.23674" lon="12.1033">
        <ele>45.87156</ele>
        <time>2020-08-13T07:02:38.846Z</time>
      </trkpt>
      <trkpt lat="65.23683" lon="12.10336">
        <ele>45.958795</ele>
        <time>2020-08-13T07:02:40.805Z</time>
      </trkpt>
      <trkpt lat="65.23691" lon="12.10342">
        <ele>46.045546</ele>
        <time>2020-08-13T07:02:42.816Z</time>
      </trkpt>
      <trkpt lat="65.237" lon="12.10348">
        <ele>46.132888</ele>
        <time>2020-08-13T07:02:44.804Z</time>
      </trkpt>
      <trkpt lat="65.23709" lon="12.10353">
        <ele>46.218992</ele>
        <time>2020-08-13T07:02:46.808Z</time>
      </trkpt>
      <trkpt lat="65.23721" lon="12.10362">
        <ele>46.342987</ele>
        <time>2020-08-13T07:02:49.817Z</time>
      </trkpt>
      <trkpt lat="65.23733" lon="12.10373">
        <ele>46.462292</ele>
        <time>2020-08-13T07:02:52.814Z</time>
      </trkpt>
      <trkpt lat="65.23744" lon="12.10386">
        <ele>46.622692</ele>
        <time>2020-08-13T07:02:55.815Z</time>
      </trkpt>
      <trkpt lat="65.23755" lon="12.10401">
        <ele>46.789533</ele>
        <time>2020-08-13T07:02:58.826Z</time>
      </trkpt>
      <trkpt lat="65.23766" lon="12.10418">
        <ele>46.957556</ele>
        <time>2020-08-13T07:03:01.816Z</time>
      </trkpt>
      <trkpt lat="65.23775" lon="12.10437">
        <ele>47.122445</ele>
        <time>2020-08-13T07:03:04.809Z</time>
      </trkpt>
      <trkpt lat="65.23784" lon="12.10458">
        <ele>47.28253</ele>
        <time>2020-08-13T07:03:07.835Z</time>
      </trkpt>
      <trkpt lat="65.23791" lon="12.10481">
        <ele>47.441453</ele>
        <time>2020-08-13T07:03:10.829Z</time>
      </trkpt>
      <trkpt lat="65.23798" lon="12.10505">
        <ele>47.605079</ele>
        <time>2020-08-13T07:03:13.817Z</time>
      </trkpt>
      <trkpt lat="65.23805" lon="12.10531">
        <ele>47.771682</ele>
        <time>2020-08-13T07:03:16.812Z</time>
      </trkpt>
      <trkpt lat="65.2381" lon="12.10557">
        <ele>47.935049</ele>
        <time>2020-08-13T07:03:19.813Z</time>
      </trkpt>
      <trkpt lat="65.23815" lon="12.10583">
        <ele>48.093719</ele>
        <time>2020-08-13T07:03:22.806Z</time>
      </trkpt>
      <trkpt lat="65.23819" lon="12.10609">
        <ele>48.247212</ele>
        <time>2020-08-13T07:03:25.802Z</time>
      </trkpt>
      <trkpt lat="65.23824" lon="12.10634">
        <ele>48.39759</ele>
        <time>2020-08-13T07:03:28.828Z</time>
      </trkpt>
      <trkpt lat="65.23828" lon="12.10659">
        <ele>48.544462</ele>
        <time>2020-08-13T07:03:31.826Z</time>
      </trkpt>
      <trkpt lat="65.23831" lon="12.10684">
        <ele>48.687351</ele>
        <time>2020-08-13T07:03:34.810Z</time>
      </trkpt>
      <trkpt lat="65.23835" lon="12.10708">
        <ele>48.826235</ele>
        <time>2020-08-13T07:03:37.809Z</time>
      </trkpt>
      <trkpt lat="65.23838" lon="12.1073">
        <ele>49.247615</ele>
        <time>2020-08-13T07:03:40.804Z</time>
      </trkpt>
      <trkpt lat="65.23841" lon="12.10752">
        <ele>49.711801</ele>
        <time>2020-08-13T07:03:43.804Z</time>
      </trkpt>
      <trkpt lat="65.23843" lon="12.10774">
        <ele>50.18051</ele>
        <time>2020-08-13T07:03:46.822Z</time>
      </trkpt>
      <trkpt lat="65.23846" lon="12.10801">
        <ele>50.752848</ele>
        <time>2020-08-13T07:03:50.815Z</time>
      </trkpt>
      <trkpt lat="65.23848" lon="12.10828">
        <ele>51.302729</ele>
        <time>2020-08-13T07:03:54.793Z</time>
      </trkpt>
      <trkpt lat="65.23851" lon="12.10854">
        <ele>51.84392</ele>
        <time>2020-08-13T07:03:58.803Z</time>
      </trkpt>
      <trkpt lat="65.23854" lon="12.10881">
        <ele>52.42753</ele>
        <time>2020-08-13T07:04:02.846Z</time>
      </trkpt>
      <trkpt lat="65.23856" lon="12.10908">
        <ele>52.985806</ele>
        <time>2020-08-13T07:04:06.841Z</time>
      </trkpt>
      <trkpt lat="65.23858" lon="12.10936">
        <ele>53.55608</ele>
        <time>2020-08-13T07:04:10.847Z</time>
      </trkpt>
      <trkpt lat="65.23859" lon="12.10959">
        <ele>54.022207</ele>
        <time>2020-08-13T07:04:13.805Z</time>
      </trkpt>
      <trkpt lat="65.2386" lon="12.10981">
        <ele>54.47542</ele>
        <time>2020-08-13T07:04:16.822Z</time>
      </trkpt>
      <trkpt lat="65.23862" lon="12.11003">
        <ele>54.930165</ele>
        <time>2020-08-13T07:04:19.812Z</time>
      </trkpt>
      <trkpt lat="65.23865" lon="12.11025">
        <ele>55.409372</ele>
        <time>2020-08-13T07:04:22.816Z</time>
      </trkpt>
      <trkpt lat="65.23867" lon="12.11054">
        <ele>55.995463</ele>
        <time>2020-08-13T07:04:26.798Z</time>
      </trkpt>
      <trkpt lat="65.23869" lon="12.11075">
        <ele>56.446669</ele>
        <time>2020-08-13T07:04:29.844Z</time>
      </trkpt>
      <trkpt lat="65.2387" lon="12.11098">
        <ele>56.912711</ele>
        <time>2020-08-13T07:04:32.801Z</time>
      </trkpt>
      <trkpt lat="65.23872" lon="12.11123">
        <ele>57.432261</ele>
        <time>2020-08-13T07:04:35.837Z</time>
      </trkpt>
      <trkpt lat="65.23873" lon="12.11149">
        <ele>57.600655</ele>
        <time>2020-08-13T07:04:38.833Z</time>
      </trkpt>
      <trkpt lat="65.23875" lon="12.11174">
        <ele>57.626785</ele>
        <time>2020-08-13T07:04:41.807Z</time>
      </trkpt>
      <trkpt lat="65.23875" lon="12.112">
        <ele>57.653686</ele>
        <time>2020-08-13T07:04:44.818Z</time>
      </trkpt>
      <trkpt lat="65.23876" lon="12.11227">
        <ele>57.682159</ele>
        <time>2020-08-13T07:04:47.818Z</time>
      </trkpt>
      <trkpt lat="65.23878" lon="12.11253">
        <ele>57.710402</ele>
        <time>2020-08-13T07:04:50.823Z</time>
      </trkpt>
      <trkpt lat="65.23879" lon="12.11285">
        <ele>57.743722</ele>
        <time>2020-08-13T07:04:53.805Z</time>
      </trkpt>
      <trkpt lat="65.23879" lon="12.11317">
        <ele>57.777425</ele>
        <time>2020-08-13T07:04:56.811Z</time>
      </trkpt>
      <trkpt lat="65.23879" lon="12.11338">
        <ele>57.800215</ele>
        <time>2020-08-13T07:04:58.845Z</time>
      </trkpt>
      <trkpt lat="65.2388" lon="12.11361">
        <ele>57.82409</ele>
        <time>2020-08-13T07:05:00.825Z</time>
      </trkpt>
      <trkpt lat="65.23881" lon="12.11385">
        <ele>57.849629</ele>
        <time>2020-08-13T07:05:02.849Z</time>
      </trkpt>
      <trkpt lat="65.23884" lon="12.11411">
        <ele>57.877669</ele>
        <time>2020-08-13T07:05:04.806Z</time>
      </trkpt>
      <trkpt lat="65.23889" lon="12.11439">
        <ele>57.909141</ele>
        <time>2020-08-13T07:05:06.875Z</time>
      </trkpt>
      <trkpt lat="65.23895" lon="12.11467">
        <ele>57.943417</ele>
        <time>2020-08-13T07:05:08.854Z</time>
      </trkpt>
      <trkpt lat="65.23904" lon="12.11495">
        <ele>57.978996</ele>
        <time>2020-08-13T07:05:10.839Z</time>
      </trkpt>
      <trkpt lat="65.23913" lon="12.11521">
        <ele>58.014403</ele>
        <time>2020-08-13T07:05:12.851Z</time>
      </trkpt>
      <trkpt lat="65.23923" lon="12.11543">
        <ele>57.648573</ele>
        <time>2020-08-13T07:05:14.830Z</time>
      </trkpt>
      <trkpt lat="65.23933" lon="12.11562">
        <ele>56.958259</ele>
        <time>2020-08-13T07:05:16.808Z</time>
      </trkpt>
      <trkpt lat="65.23942" lon="12.1158">
        <ele>56.315932</ele>
        <time>2020-08-13T07:05:18.833Z</time>
      </trkpt>
      <trkpt lat="65.23951" lon="12.11596">
        <ele>55.717272</ele>
        <time>2020-08-13T07:05:20.831Z</time>
      </trkpt>
      <trkpt lat="65.2396" lon="12.11611">
        <ele>55.132068</ele>
        <time>2020-08-13T07:05:22.806Z</time>
      </trkpt>
      <trkpt lat="65.23969" lon="12.11625">
        <ele>54.554661</ele>
        <time>2020-08-13T07:05:24.825Z</time>
      </trkpt>
      <trkpt lat="65.23978" lon="12.1164">
        <ele>53.96448</ele>
        <time>2020-08-13T07:05:26.808Z</time>
      </trkpt>
      <trkpt lat="65.23986" lon="12.11655">
        <ele>53.395098</ele>
        <time>2020-08-13T07:05:28.803Z</time>
      </trkpt>
      <trkpt lat="65.23994" lon="12.11669">
        <ele>52.853891</ele>
        <time>2020-08-13T07:05:30.811Z</time>
      </trkpt>
      <trkpt lat="65.24002" lon="12.11682">
        <ele>52.310915</ele>
        <time>2020-08-13T07:05:32.799Z</time>
      </trkpt>
      <trkpt lat="65.24011" lon="12.11696">
        <ele>51.780138</ele>
        <time>2020-08-13T07:05:34.801Z</time>
      </trkpt>
      <trkpt lat="65.24018" lon="12.11709">
        <ele>51.25905</ele>
        <time>2020-08-13T07:05:36.837Z</time>
      </trkpt>
      <trkpt lat="65.24026" lon="12.11723">
        <ele>50.727923</ele>
        <time>2020-08-13T07:05:38.842Z</time>
      </trkpt>
      <trkpt lat="65.24034" lon="12.11737">
        <ele>50.210889</ele>
        <time>2020-08-13T07:05:40.836Z</time>
      </trkpt>
      <trkpt lat="65.24042" lon="12.1175">
        <ele>49.690316</ele>
        <time>2020-08-13T07:05:42.827Z</time>
      </trkpt>
      <trkpt lat="65.24049" lon="12.11763">
        <ele>49.171938</ele>
        <time>2020-08-13T07:05:44.800Z</time>
      </trkpt>
      <trkpt lat="65.24057" lon="12.11777">
        <ele>48.643802</ele>
        <time>2020-08-13T07:05:46.802Z</time>
      </trkpt>
      <trkpt lat="65.24066" lon="12.11791">
        <ele>48.256764</ele>
        <time>2020-08-13T07:05:48.817Z</time>
      </trkpt>
      <trkpt lat="65.24074" lon="12.11806">
        <ele>48.145581</ele>
        <time>2020-08-13T07:05:50.796Z</time>
      </trkpt>
      <trkpt lat="65.24082" lon="12.11821">
        <ele>48.034074</ele>
        <time>2020-08-13T07:05:52.816Z</time>
      </trkpt>
      <trkpt lat="65.24091" lon="12.11835">
        <ele>47.923356</ele>
        <time>2020-08-13T07:05:54.810Z</time>
      </trkpt>
      <trkpt lat="65.24099" lon="12.1185">
        <ele>47.811507</ele>
        <time>2020-08-13T07:05:56.833Z</time>
      </trkpt>
      <trkpt lat="65.24107" lon="12.11864">
        <ele>47.701921</ele>
        <time>2020-08-13T07:05:58.811Z</time>
      </trkpt>
      <trkpt lat="65.24115" lon="12.11878">
        <ele>47.59798</ele>
        <time>2020-08-13T07:06:00.838Z</time>
      </trkpt>
      <trkpt lat="65.24123" lon="12.11891">
        <ele>47.500144</ele>
        <time>2020-08-13T07:06:02.823Z</time>
      </trkpt>
      <trkpt lat="65.24133" lon="12.1191">
        <ele>47.361638</ele>
        <time>2020-08-13T07:06:05.813Z</time>
      </trkpt>
      <trkpt lat="65.24143" lon="12.1193">
        <ele>47.221436</ele>
        <time>2020-08-13T07:06:08.808Z</time>
      </trkpt>
      <trkpt lat="65.24153" lon="12.11949">
        <ele>47.084885</ele>
        <time>2020-08-13T07:06:11.826Z</time>
      </trkpt>
      <trkpt lat="65.24163" lon="12.11967">
        <ele>46.948819</ele>
        <time>2020-08-13T07:06:14.812Z</time>
      </trkpt>
      <trkpt lat="65.24173" lon="12.11985">
        <ele>46.817256</ele>
        <time>2020-08-13T07:06:17.822Z</time>
      </trkpt>
      <trkpt lat="65.24183" lon="12.12001">
        <ele>46.68572</ele>
        <time>2020-08-13T07:06:20.810Z</time>
      </trkpt>
      <trkpt lat="65.24193" lon="12.12017">
        <ele>46.557581</ele>
        <time>2020-08-13T07:06:23.854Z</time>
      </trkpt>
      <trkpt lat="65.24203" lon="12.12032">
        <ele>46.433905</ele>
        <time>2020-08-13T07:06:26.816Z</time>
      </trkpt>
      <trkpt lat="65.24212" lon="12.12046">
        <ele>46.450521</ele>
        <time>2020-08-13T07:06:29.801Z</time>
      </trkpt>
      <trkpt lat="65.24221" lon="12.12059">
        <ele>46.597787</ele>
        <time>2020-08-13T07:06:32.831Z</time>
      </trkpt>
      <trkpt lat="65.2423" lon="12.12072">
        <ele>46.744464</ele>
        <time>2020-08-13T07:06:35.818Z</time>
      </trkpt>
      <trkpt lat="65.24239" lon="12.12084">
        <ele>46.891785</ele>
        <time>2020-08-13T07:06:38.806Z</time>
      </trkpt>
      <trkpt lat="65.24248" lon="12.12097">
        <ele>47.044872</ele>
        <time>2020-08-13T07:06:41.810Z</time>
      </trkpt>
      <trkpt lat="65.24258" lon="12.1211">
        <ele>47.209833</ele>
        <time>2020-08-13T07:06:44.817Z</time>
      </trkpt>
      <trkpt lat="65.2427" lon="12.12123">
        <ele>47.388603</ele>
        <time>2020-08-13T07:06:47.803Z</time>
      </trkpt>
      <trkpt lat="65.24278" lon="12.12133">
        <ele>47.517379</ele>
        <time>2020-08-13T07:06:49.801Z</time>
      </trkpt>
      <trkpt lat="65.24286" lon="12.12143">
        <ele>47.650245</ele>
        <time>2020-08-13T07:06:51.827Z</time>
      </trkpt>
      <trkpt lat="65.24294" lon="12.12154">
        <ele>47.787852</ele>
        <time>2020-08-13T07:06:53.828Z</time>
      </trkpt>
      <trkpt lat="65.24303" lon="12.12164">
        <ele>47.921402</ele>
        <time>2020-08-13T07:06:55.803Z</time>
      </trkpt>
      <trkpt lat="65.24311" lon="12.12174">
        <ele>48.059656</ele>
        <time>2020-08-13T07:06:57.814Z</time>
      </trkpt>
      <trkpt lat="65.2432" lon="12.12183">
        <ele>48.193612</ele>
        <time>2020-08-13T07:06:59.805Z</time>
      </trkpt>
      <trkpt lat="65.24328" lon="12.12192">
        <ele>48.324857</ele>
        <time>2020-08-13T07:07:01.835Z</time>
      </trkpt>
      <trkpt lat="65.24338" lon="12.12199">
        <ele>48.462837</ele>
        <time>2020-08-13T07:07:03.827Z</time>
      </trkpt>
      <trkpt lat="65.24347" lon="12.12207">
        <ele>48.601773</ele>
        <time>2020-08-13T07:07:05.856Z</time>
      </trkpt>
      <trkpt lat="65.24357" lon="12.12214">
        <ele>48.752964</ele>
        <time>2020-08-13T07:07:07.806Z</time>
      </trkpt>
      <trkpt lat="65.24369" lon="12.12219">
        <ele>48.922469</ele>
        <time>2020-08-13T07:07:09.806Z</time>
      </trkpt>
      <trkpt lat="65.24381" lon="12.12225">
        <ele>48.769108</ele>
        <time>2020-08-13T07:07:11.845Z</time>
      </trkpt>
      <trkpt lat="65.24394" lon="12.1223">
        <ele>48.574158</ele>
        <time>2020-08-13T07:07:13.818Z</time>
      </trkpt>
      <trkpt lat="65.24407" lon="12.12233">
        <ele>48.387555</ele>
        <time>2020-08-13T07:07:15.829Z</time>
      </trkpt>
      <trkpt lat="65.24419" lon="12.12235">
        <ele>48.211615</ele>
        <time>2020-08-13T07:07:17.800Z</time>
      </trkpt>
      <trkpt lat="65.2443" lon="12.12237">
        <ele>48.041738</ele>
        <time>2020-08-13T07:07:19.813Z</time>
      </trkpt>
      <trkpt lat="65.24441" lon="12.12239">
        <ele>47.880681</ele>
        <time>2020-08-13T07:07:21.830Z</time>
      </trkpt>
      <trkpt lat="65.24451" lon="12.12241">
        <ele>47.73138</ele>
        <time>2020-08-13T07:07:23.830Z</time>
      </trkpt>
      <trkpt lat="65.24461" lon="12.12242">
        <ele>47.590989</ele>
        <time>2020-08-13T07:07:25.818Z</time>
      </trkpt>
      <trkpt lat="65.2447" lon="12.12243">
        <ele>47.456794</ele>
        <time>2020-08-13T07:07:27.815Z</time>
      </trkpt>
      <trkpt lat="65.24479" lon="12.12244">
        <ele>47.32098</ele>
        <time>2020-08-13T07:07:29.813Z</time>
      </trkpt>
      <trkpt lat="65.24489" lon="12.12246">
        <ele>47.180715</ele>
        <time>2020-08-13T07:07:31.812Z</time>
      </trkpt>
      <trkpt lat="65.24498" lon="12.12247">
        <ele>47.042079</ele>
        <time>2020-08-13T07:07:33.797Z</time>
      </trkpt>
      <trkpt lat="65.24508" lon="12.12248">
        <ele>46.897402</ele>
        <time>2020-08-13T07:07:35.815Z</time>
      </trkpt>
      <trkpt lat="65.24518" lon="12.1225">
        <ele>46.743738</ele>
        <time>2020-08-13T07:07:37.824Z</time>
      </trkpt>
      <trkpt lat="65.24529" lon="12.12251">
        <ele>46.581371</ele>
        <time>2020-08-13T07:07:39.794Z</time>
      </trkpt>
      <trkpt lat="65.24541" lon="12.12252">
        <ele>46.407439</ele>
        <time>2020-08-13T07:07:41.828Z</time>
      </trkpt>
      <trkpt lat="65.24553" lon="12.12253">
        <ele>46.310876</ele>
        <time>2020-08-13T07:07:43.845Z</time>
      </trkpt>
      <trkpt lat="65.24565" lon="12.12254">
        <ele>46.369126</ele>
        <time>2020-08-13T07:07:45.829Z</time>
      </trkpt>
      <trkpt lat="65.24577" lon="12.12256">
        <ele>46.42551</ele>
        <time>2020-08-13T07:07:47.810Z</time>
      </trkpt>
      <trkpt lat="65.24588" lon="12.12258">
        <ele>46.479957</ele>
        <time>2020-08-13T07:07:49.809Z</time>
      </trkpt>
      <trkpt lat="65.24599" lon="12.1226">
        <ele>46.533429</ele>
        <time>2020-08-13T07:07:51.809Z</time>
      </trkpt>
      <trkpt lat="65.24609" lon="12.12262">
        <ele>46.585423</ele>
        <time>2020-08-13T07:07:53.810Z</time>
      </trkpt>
      <trkpt lat="65.2462" lon="12.12263">
        <ele>46.637311</ele>
        <time>2020-08-13T07:07:55.824Z</time>
      </trkpt>
      <trkpt lat="65.2463" lon="12.12265">
        <ele>46.688329</ele>
        <time>2020-08-13T07:07:57.810Z</time>
      </trkpt>
      <trkpt lat="65.24641" lon="12.12267">
        <ele>46.739303</ele>
        <time>2020-08-13T07:07:59.834Z</time>
      </trkpt>
      <trkpt lat="65.2465" lon="12.12268">
        <ele>46.787867</ele>
        <time>2020-08-13T07:08:01.823Z</time>
      </trkpt>
      <trkpt lat="65.24661" lon="12.1227">
        <ele>46.838806</ele>
        <time>2020-08-13T07:08:03.825Z</time>
      </trkpt>
      <trkpt lat="65.24671" lon="12.12271">
        <ele>46.890722</ele>
        <time>2020-08-13T07:08:05.795Z</time>
      </trkpt>
      <trkpt lat="65.24682" lon="12.12273">
        <ele>46.940781</ele>
        <time>2020-08-13T07:08:07.832Z</time>
      </trkpt>
      <trkpt lat="65.24692" lon="12.12275">
        <ele>46.989413</ele>
        <time>2020-08-13T07:08:09.816Z</time>
      </trkpt>
      <trkpt lat="65.24701" lon="12.12277">
        <ele>47.036011</ele>
        <time>2020-08-13T07:08:11.804Z</time>
      </trkpt>
      <trkpt lat="65.2471" lon="12.12279">
        <ele>47.081301</ele>
        <time>2020-08-13T07:08:13.830Z</time>
      </trkpt>
      <trkpt lat="65.24719" lon="12.12281">
        <ele>47.125476</ele>
        <time>2020-08-13T07:08:15.821Z</time>
      </trkpt>
      <trkpt lat="65.24732" lon="12.12284">
        <ele>47.253201</ele>
        <time>2020-08-13T07:08:18.804Z</time>
      </trkpt>
      <trkpt lat="65.24743" lon="12.12286">
        <ele>47.524938</ele>
        <time>2020-08-13T07:08:21.810Z</time>
      </trkpt>
      <trkpt lat="65.24754" lon="12.12287">
        <ele>47.786734</ele>
        <time>2020-08-13T07:08:24.805Z</time>
      </trkpt>
      <trkpt lat="65.24765" lon="12.12289">
        <ele>48.053234</ele>
        <time>2020-08-13T07:08:27.797Z</time>
      </trkpt>
      <trkpt lat="65.24776" lon="12.12289">
        <ele>48.333829</ele>
        <time>2020-08-13T07:08:30.815Z</time>
      </trkpt>
      <trkpt lat="65.24788" lon="12.12288">
        <ele>48.619426</ele>
        <time>2020-08-13T07:08:33.812Z</time>
      </trkpt>
      <trkpt lat="65.248" lon="12.12286">
        <ele>48.903077</ele>
        <time>2020-08-13T07:08:36.799Z</time>
      </trkpt>
      <trkpt lat="65.24812" lon="12.12283">
        <ele>49.189527</ele>
        <time>2020-08-13T07:08:39.804Z</time>
      </trkpt>
      <trkpt lat="65.24824" lon="12.12281">
        <ele>49.475812</ele>
        <time>2020-08-13T07:08:42.813Z</time>
      </trkpt>
      <trkpt lat="65.24835" lon="12.12278">
        <ele>49.744097</ele>
        <time>2020-08-13T07:08:45.810Z</time>
      </trkpt>
      <trkpt lat="65.24845" lon="12.12274">
        <ele>50.005462</ele>
        <time>2020-08-13T07:08:48.838Z</time>
      </trkpt>
      <trkpt lat="65.24855" lon="12.12271">
        <ele>50.254711</ele>
        <time>2020-08-13T07:08:51.809Z</time>
      </trkpt>
      <trkpt lat="65.24864" lon="12.12267">
        <ele>50.472562</ele>
        <time>2020-08-13T07:08:54.806Z</time>
      </trkpt>
      <trkpt lat="65.24875" lon="12.12262">
        <ele>50.731144</ele>
        <time>2020-08-13T07:08:58.867Z</time>
      </trkpt>
      <trkpt lat="65.24886" lon="12.12258">
        <ele>50.995813</ele>
        <time>2020-08-13T07:09:02.815Z</time>
      </trkpt>
      <trkpt lat="65.24896" lon="12.12253">
        <ele>51.258622</ele>
        <time>2020-08-13T07:09:06.814Z</time>
      </trkpt>
      <trkpt lat="65.24905" lon="12.12247">
        <ele>51.482591</ele>
        <time>2020-08-13T07:09:10.825Z</time>
      </trkpt>
      <trkpt lat="65.24914" lon="12.12243">
        <ele>51.567349</ele>
        <time>2020-08-13T07:09:14.823Z</time>
      </trkpt>
      <trkpt lat="65.24924" lon="12.12239">
        <ele>51.624582</ele>
        <time>2020-08-13T07:09:18.808Z</time>
      </trkpt>
      <trkpt lat="65.24934" lon="12.12234">
        <ele>51.685251</ele>
        <time>2020-08-13T07:09:22.833Z</time>
      </trkpt>
      <trkpt lat="65.24944" lon="12.12228">
        <ele>51.749748</ele>
        <time>2020-08-13T07:09:26.807Z</time>
      </trkpt>
      <trkpt lat="65.24956" lon="12.12223">
        <ele>51.817103</ele>
        <time>2020-08-13T07:09:30.808Z</time>
      </trkpt>
      <trkpt lat="65.24967" lon="12.12215">
        <ele>51.888429</ele>
        <time>2020-08-13T07:09:34.835Z</time>
      </trkpt>
      <trkpt lat="65.24977" lon="12.1221">
        <ele>51.948066</ele>
        <time>2020-08-13T07:09:37.803Z</time>
      </trkpt>
      <trkpt lat="65.24988" lon="12.12205">
        <ele>52.015324</ele>
        <time>2020-08-13T07:09:40.829Z</time>
      </trkpt>
      <trkpt lat="65.25" lon="12.12201">
        <ele>52.086923</ele>
        <time>2020-08-13T07:09:43.794Z</time>
      </trkpt>
      <trkpt lat="65.2501" lon="12.12199">
        <ele>52.144704</ele>
        <time>2020-08-13T07:09:45.831Z</time>
      </trkpt>
      <trkpt lat="65.2502" lon="12.12198">
        <ele>52.204809</ele>
        <time>2020-08-13T07:09:47.813Z</time>
      </trkpt>
      <trkpt lat="65.25031" lon="12.12198">
        <ele>52.270215</ele>
        <time>2020-08-13T07:09:49.799Z</time>
      </trkpt>
      <trkpt lat="65.25042" lon="12.12201">
        <ele>52.337739</ele>
        <time>2020-08-13T07:09:51.814Z</time>
      </trkpt>
      <trkpt lat="65.25053" lon="12.12205">
        <ele>52.403861</ele>
        <time>2020-08-13T07:09:53.812Z</time>
      </trkpt>
      <trkpt lat="65.25063" lon="12.1221">
        <ele>52.466211</ele>
        <time>2020-08-13T07:09:55.807Z</time>
      </trkpt>
      <trkpt lat="65.25073" lon="12.12215">
        <ele>52.527398</ele>
        <time>2020-08-13T07:09:57.807Z</time>
      </trkpt>
      <trkpt lat="65.25083" lon="12.12221">
        <ele>52.587949</ele>
        <time>2020-08-13T07:09:59.836Z</time>
      </trkpt>
      <trkpt lat="65.25092" lon="12.12227">
        <ele>52.50211</ele>
        <time>2020-08-13T07:10:01.827Z</time>
      </trkpt>
      <trkpt lat="65.25105" lon="12.12238">
        <ele>52.369976</ele>
        <time>2020-08-13T07:10:04.826Z</time>
      </trkpt>
      <trkpt lat="65.25113" lon="12.12245">
        <ele>52.277662</ele>
        <time>2020-08-13T07:10:06.812Z</time>
      </trkpt>
      <trkpt lat="65.25122" lon="12.12254">
        <ele>52.179534</ele>
        <time>2020-08-13T07:10:08.822Z</time>
      </trkpt>
      <trkpt lat="65.25131" lon="12.12264">
        <ele>52.080686</ele>
        <time>2020-08-13T07:10:10.809Z</time>
      </trkpt>
      <trkpt lat="65.2514" lon="12.12275">
        <ele>51.984498</ele>
        <time>2020-08-13T07:10:12.828Z</time>
      </trkpt>
      <trkpt lat="65.25149" lon="12.12285">
        <ele>51.886534</ele>
        <time>2020-08-13T07:10:14.837Z</time>
      </trkpt>
      <trkpt lat="65.25157" lon="12.12296">
        <ele>51.787593</ele>
        <time>2020-08-13T07:10:16.834Z</time>
      </trkpt>
      <trkpt lat="65.25166" lon="12.12309">
        <ele>51.686372</ele>
        <time>2020-08-13T07:10:18.810Z</time>
      </trkpt>
      <trkpt lat="65.25175" lon="12.12322">
        <ele>51.581296</ele>
        <time>2020-08-13T07:10:20.795Z</time>
      </trkpt>
      <trkpt lat="65.25184" lon="12.12335">
        <ele>51.474713</ele>
        <time>2020-08-13T07:10:22.807Z</time>
      </trkpt>
      <trkpt lat="65.25193" lon="12.12349">
        <ele>51.367027</ele>
        <time>2020-08-13T07:10:24.800Z</time>
      </trkpt>
      <trkpt lat="65.25202" lon="12.12363">
        <ele>51.261256</ele>
        <time>2020-08-13T07:10:26.809Z</time>
      </trkpt>
      <trkpt lat="65.25211" lon="12.12375">
        <ele>51.158328</ele>
        <time>2020-08-13T07:10:28.816Z</time>
      </trkpt>
      <trkpt lat="65.25219" lon="12.12388">
        <ele>51.056255</ele>
        <time>2020-08-13T07:10:30.832Z</time>
      </trkpt>
      <trkpt lat="65.25228" lon="12.124">
        <ele>50.956327</ele>
        <time>2020-08-13T07:10:32.829Z</time>
      </trkpt>
      <trkpt lat="65.25237" lon="12.12412">
        <ele>50.856619</ele>
        <time>2020-08-13T07:10:34.822Z</time>
      </trkpt>
      <trkpt lat="65.25245" lon="12.12424">
        <ele>50.758429</ele>
        <time>2020-08-13T07:10:36.801Z</time>
      </trkpt>
      <trkpt lat="65.25254" lon="12.12436">
        <ele>50.6588</ele>
        <time>2020-08-13T07:10:38.832Z</time>
      </trkpt>
      <trkpt lat="65.25263" lon="12.12449">
        <ele>50.55857</ele>
        <time>2020-08-13T07:10:40.820Z</time>
      </trkpt>
      <trkpt lat="65.25271" lon="12.12461">
        <ele>50.457913</ele>
        <time>2020-08-13T07:10:42.819Z</time>
      </trkpt>
      <trkpt lat="65.25281" lon="12.12474">
        <ele>50.351093</ele>
        <time>2020-08-13T07:10:44.823Z</time>
      </trkpt>
      <trkpt lat="65.25291" lon="12.12487">
        <ele>50.237235</ele>
        <time>2020-08-13T07:10:46.817Z</time>
      </trkpt>
      <trkpt lat="65.25301" lon="12.125">
        <ele>50.126768</ele>
        <time>2020-08-13T07:10:48.847Z</time>
      </trkpt>
      <trkpt lat="65.25311" lon="12.12513">
        <ele>50.01583</ele>
        <time>2020-08-13T07:10:50.815Z</time>
      </trkpt>
      <trkpt lat="65.25321" lon="12.12525">
        <ele>49.896641</ele>
        <time>2020-08-13T07:10:52.813Z</time>
      </trkpt>
      <trkpt lat="65.25334" lon="12.12538">
        <ele>49.766162</ele>
        <time>2020-08-13T07:10:54.807Z</time>
      </trkpt>
      <trkpt lat="65.25346" lon="12.12549">
        <ele>49.631781</ele>
        <time>2020-08-13T07:10:56.849Z</time>
      </trkpt>
      <trkpt lat="65.25359" lon="12.12561">
        <ele>49.497841</ele>
        <time>2020-08-13T07:10:58.823Z</time>
      </trkpt>
      <trkpt lat="65.25371" lon="12.12572">
        <ele>49.367591</ele>
        <time>2020-08-13T07:11:00.858Z</time>
      </trkpt>
      <trkpt lat="65.25383" lon="12.12582">
        <ele>49.243703</ele>
        <time>2020-08-13T07:11:02.826Z</time>
      </trkpt>
      <trkpt lat="65.25394" lon="12.12592">
        <ele>49.12571</ele>
        <time>2020-08-13T07:11:04.814Z</time>
      </trkpt>
      <trkpt lat="65.25405" lon="12.12601">
        <ele>49.018661</ele>
        <time>2020-08-13T07:11:06.814Z</time>
      </trkpt>
      <trkpt lat="65.25416" lon="12.12611">
        <ele>49.139225</ele>
        <time>2020-08-13T07:11:08.796Z</time>
      </trkpt>
      <trkpt lat="65.25426" lon="12.1262">
        <ele>49.254662</ele>
        <time>2020-08-13T07:11:10.817Z</time>
      </trkpt>
      <trkpt lat="65.25437" lon="12.12628">
        <ele>49.370267</ele>
        <time>2020-08-13T07:11:12.815Z</time>
      </trkpt>
      <trkpt lat="65.25446" lon="12.12635">
        <ele>49.478268</ele>
        <time>2020-08-13T07:11:14.817Z</time>
      </trkpt>
      <trkpt lat="65.25455" lon="12.12644">
        <ele>49.582099</ele>
        <time>2020-08-13T07:11:16.811Z</time>
      </trkpt>
      <trkpt lat="65.25467" lon="12.12655">
        <ele>49.71562</ele>
        <time>2020-08-13T07:11:19.809Z</time>
      </trkpt>
      <trkpt lat="65.25477" lon="12.12666">
        <ele>49.831094</ele>
        <time>2020-08-13T07:11:22.841Z</time>
      </trkpt>
      <trkpt lat="65.25486" lon="12.12678">
        <ele>49.937732</ele>
        <time>2020-08-13T07:11:25.837Z</time>
      </trkpt>
      <trkpt lat="65.25495" lon="12.12691">
        <ele>50.048012</ele>
        <time>2020-08-13T07:11:29.811Z</time>
      </trkpt>
      <trkpt lat="65.25502" lon="12.12705">
        <ele>50.146352</ele>
        <time>2020-08-13T07:11:34.856Z</time>
      </trkpt>
      <trkpt lat="65.25509" lon="12.12725">
        <ele>50.264333</ele>
        <time>2020-08-13T07:11:39.809Z</time>
      </trkpt>
      <trkpt lat="65.25515" lon="12.12743">
        <ele>50.363708</ele>
        <time>2020-08-13T07:11:43.824Z</time>
      </trkpt>
      <trkpt lat="65.25519" lon="12.12763">
        <ele>50.464638</ele>
        <time>2020-08-13T07:11:47.830Z</time>
      </trkpt>
      <trkpt lat="65.25524" lon="12.12783">
        <ele>50.565953</ele>
        <time>2020-08-13T07:11:51.818Z</time>
      </trkpt>
      <trkpt lat="65.25528" lon="12.12805">
        <ele>50.673143</ele>
        <time>2020-08-13T07:11:55.807Z</time>
      </trkpt>
      <trkpt lat="65.25531" lon="12.12829">
        <ele>50.78507</ele>
        <time>2020-08-13T07:11:59.812Z</time>
      </trkpt>
      <trkpt lat="65.25534" lon="12.12857">
        <ele>50.911351</ele>
        <time>2020-08-13T07:12:03.801Z</time>
      </trkpt>
      <trkpt lat="65.25537" lon="12.12879">
        <ele>50.986842</ele>
        <time>2020-08-13T07:12:06.814Z</time>
      </trkpt>
      <trkpt lat="65.25539" lon="12.12903">
        <ele>51.067972</ele>
        <time>2020-08-13T07:12:09.827Z</time>
      </trkpt>
      <trkpt lat="65.25542" lon="12.12929">
        <ele>51.152364</ele>
        <time>2020-08-13T07:12:12.823Z</time>
      </trkpt>
      <trkpt lat="65.25545" lon="12.12955">
        <ele>51.239047</ele>
        <time>2020-08-13T07:12:15.820Z</time>
      </trkpt>
      <trkpt lat="65.25549" lon="12.1298">
        <ele>51.324161</ele>
        <time>2020-08-13T07:12:18.811Z</time>
      </trkpt>
      <trkpt lat="65.25552" lon="12.13004">
        <ele>51.405926</ele>
        <time>2020-08-13T07:12:21.849Z</time>
      </trkpt>
      <trkpt lat="65.25553" lon="12.13028">
        <ele>51.483566</ele>
        <time>2020-08-13T07:12:24.806Z</time>
      </trkpt>
      <trkpt lat="65.25556" lon="12.13051">
        <ele>51.561885</ele>
        <time>2020-08-13T07:12:27.814Z</time>
      </trkpt>
      <trkpt lat="65.25559" lon="12.13074">
        <ele>51.638549</ele>
        <time>2020-08-13T07:12:30.813Z</time>
      </trkpt>
      <trkpt lat="65.25561" lon="12.13097">
        <ele>51.714185</ele>
        <time>2020-08-13T07:12:33.837Z</time>
      </trkpt>
      <trkpt lat="65.25564" lon="12.1312">
        <ele>51.79021</ele>
        <time>2020-08-13T07:12:36.829Z</time>
      </trkpt>
      <trkpt lat="65.25567" lon="12.13142">
        <ele>51.866417</ele>
        <time>2020-08-13T07:12:39.810Z</time>
      </trkpt>
      <trkpt lat="65.2557" lon="12.13165">
        <ele>51.943787</ele>
        <time>2020-08-13T07:12:42.811Z</time>
      </trkpt>
      <trkpt lat="65.25573" lon="12.13189">
        <ele>52.023533</ele>
        <time>2020-08-13T07:12:45.800Z</time>
      </trkpt>
      <trkpt lat="65.25576" lon="12.13214">
        <ele>52.106374</ele>
        <time>2020-08-13T07:12:48.810Z</time>
      </trkpt>
      <trkpt lat="65.25578" lon="12.13238">
        <ele>52.187881</ele>
        <time>2020-08-13T07:12:51.817Z</time>
      </trkpt>
      <trkpt lat="65.25581" lon="12.13263">
        <ele>52.268571</ele>
        <time>2020-08-13T07:12:54.800Z</time>
      </trkpt>
      <trkpt lat="65.25583" lon="12.13287">
        <ele>52.263264</ele>
        <time>2020-08-13T07:12:57.829Z</time>
      </trkpt>
      <trkpt lat="65.25585" lon="12.1331">
        <ele>52.202282</ele>
        <time>2020-08-13T07:13:00.845Z</time>
      </trkpt>
      <trkpt lat="65.25587" lon="12.13333">
        <ele>52.138722</ele>
        <time>2020-08-13T07:13:03.798Z</time>
      </trkpt>
      <trkpt lat="65.2559" lon="12.13358">
        <ele>52.071519</ele>
        <time>2020-08-13T07:13:06.839Z</time>
      </trkpt>
      <trkpt lat="65.25593" lon="12.1338">
        <ele>52.008435</ele>
        <time>2020-08-13T07:13:09.810Z</time>
      </trkpt>
      <trkpt lat="65.25596" lon="12.13405">
        <ele>51.942899</ele>
        <time>2020-08-13T07:13:12.801Z</time>
      </trkpt>
      <trkpt lat="65.25598" lon="12.1343">
        <ele>51.873655</ele>
        <time>2020-08-13T07:13:15.812Z</time>
      </trkpt>
      <trkpt lat="65.25601" lon="12.13456">
        <ele>51.802378</ele>
        <time>2020-08-13T07:13:18.809Z</time>
      </trkpt>
      <trkpt lat="65.25604" lon="12.13484">
        <ele>51.727624</ele>
        <time>2020-08-13T07:13:21.852Z</time>
      </trkpt>
      <trkpt lat="65.25608" lon="12.13514">
        <ele>51.64406</ele>
        <time>2020-08-13T07:13:24.804Z</time>
      </trkpt>
      <trkpt lat="65.25611" lon="12.13536">
        <ele>51.581984</ele>
        <time>2020-08-13T07:13:26.842Z</time>
      </trkpt>
      <trkpt lat="65.25614" lon="12.13559">
        <ele>51.517911</ele>
        <time>2020-08-13T07:13:28.815Z</time>
      </trkpt>
      <trkpt lat="65.25618" lon="12.13583">
        <ele>51.450462</ele>
        <time>2020-08-13T07:13:30.817Z</time>
      </trkpt>
      <trkpt lat="65.25623" lon="12.13608">
        <ele>51.378636</ele>
        <time>2020-08-13T07:13:32.826Z</time>
      </trkpt>
      <trkpt lat="65.25628" lon="12.13633">
        <ele>51.305266</ele>
        <time>2020-08-13T07:13:34.811Z</time>
      </trkpt>
      <trkpt lat="65.25634" lon="12.13658">
        <ele>51.229797</ele>
        <time>2020-08-13T07:13:36.813Z</time>
      </trkpt>
      <trkpt lat="65.25641" lon="12.13681">
        <ele>51.128504</ele>
        <time>2020-08-13T07:13:38.802Z</time>
      </trkpt>
      <trkpt lat="65.25649" lon="12.13702">
        <ele>50.928409</ele>
        <time>2020-08-13T07:13:40.818Z</time>
      </trkpt>
      <trkpt lat="65.25657" lon="12.13722">
        <ele>50.734047</ele>
        <time>2020-08-13T07:13:42.824Z</time>
      </trkpt>
      <trkpt lat="65.25666" lon="12.13739">
        <ele>50.535968</ele>
        <time>2020-08-13T07:13:44.851Z</time>
      </trkpt>
      <trkpt lat="65.25676" lon="12.13755">
        <ele>50.335058</ele>
        <time>2020-08-13T07:13:46.802Z</time>
      </trkpt>
      <trkpt lat="65.25686" lon="12.13771">
        <ele>50.130955</ele>
        <time>2020-08-13T07:13:48.804Z</time>
      </trkpt>
      <trkpt lat="65.25698" lon="12.13785">
        <ele>49.912705</ele>
        <time>2020-08-13T07:13:50.803Z</time>
      </trkpt>
      <trkpt lat="65.25711" lon="12.13797">
        <ele>49.684481</ele>
        <time>2020-08-13T07:13:52.845Z</time>
      </trkpt>
      <trkpt lat="65.25724" lon="12.1381">
        <ele>49.434832</ele>
        <time>2020-08-13T07:13:54.817Z</time>
      </trkpt>
      <trkpt lat="65.25739" lon="12.13822">
        <ele>49.179218</ele>
        <time>2020-08-13T07:13:56.834Z</time>
      </trkpt>
      <trkpt lat="65.25753" lon="12.13833">
        <ele>48.930782</ele>
        <time>2020-08-13T07:13:58.814Z</time>
      </trkpt>
      <trkpt lat="65.25767" lon="12.13846">
        <ele>48.679797</ele>
        <time>2020-08-13T07:14:00.797Z</time>
      </trkpt>
      <trkpt lat="65.2578" lon="12.13858">
        <ele>48.434631</ele>
        <time>2020-08-13T07:14:02.827Z</time>
      </trkpt>
      <trkpt lat="65.25794" lon="12.1387">
        <ele>48.19386</ele>
        <time>2020-08-13T07:14:04.811Z</time>
      </trkpt>
      <trkpt lat="65.25806" lon="12.1388">
        <ele>48.074733</ele>
        <time>2020-08-13T07:14:06.833Z</time>
      </trkpt>
      <trkpt lat="65.25818" lon="12.13891">
        <ele>47.99498</ele>
        <time>2020-08-13T07:14:08.797Z</time>
      </trkpt>
      <trkpt lat="65.25828" lon="12.13901">
        <ele>47.919146</ele>
        <time>2020-08-13T07:14:10.826Z</time>
      </trkpt>
      <trkpt lat="65.25839" lon="12.13911">
        <ele>47.844211</ele>
        <time>2020-08-13T07:14:12.828Z</time>
      </trkpt>
      <trkpt lat="65.2585" lon="12.1392">
        <ele>47.771335</ele>
        <time>2020-08-13T07:14:14.803Z</time>
      </trkpt>
      <trkpt lat="65.2586" lon="12.13929">
        <ele>47.700896</ele>
        <time>2020-08-13T07:14:16.832Z</time>
      </trkpt>
      <trkpt lat="65.25869" lon="12.13939">
        <ele>47.63397</ele>
        <time>2020-08-13T07:14:18.831Z</time>
      </trkpt>
      <trkpt lat="65.25879" lon="12.13948">
        <ele>47.568568</ele>
        <time>2020-08-13T07:14:20.828Z</time>
      </trkpt>
      <trkpt lat="65.25888" lon="12.13956">
        <ele>47.506072</ele>
        <time>2020-08-13T07:14:22.820Z</time>
      </trkpt>
      <trkpt lat="65.25897" lon="12.13966">
        <ele>47.44174</ele>
        <time>2020-08-13T07:14:24.815Z</time>
      </trkpt>
      <trkpt lat="65.25906" lon="12.13977">
        <ele>47.377975</ele>
        <time>2020-08-13T07:14:26.846Z</time>
      </trkpt>
      <trkpt lat="65.25915" lon="12.13987">
        <ele>47.313794</ele>
        <time>2020-08-13T07:14:28.855Z</time>
      </trkpt>
      <trkpt lat="65.25924" lon="12.13996">
        <ele>47.248793</ele>
        <time>2020-08-13T07:14:30.814Z</time>
      </trkpt>
      <trkpt lat="65.25933" lon="12.14005">
        <ele>47.185271</ele>
        <time>2020-08-13T07:14:32.850Z</time>
      </trkpt>
      <trkpt lat="65.25942" lon="12.14016">
        <ele>47.120971</ele>
        <time>2020-08-13T07:14:34.806Z</time>
      </trkpt>
      <trkpt lat="65.2595" lon="12.14027">
        <ele>47.057458</ele>
        <time>2020-08-13T07:14:36.806Z</time>
      </trkpt>
      <trkpt lat="65.25959" lon="12.14038">
        <ele>46.993946</ele>
        <time>2020-08-13T07:14:38.832Z</time>
      </trkpt>
      <trkpt lat="65.25968" lon="12.14049">
        <ele>46.983145</ele>
        <time>2020-08-13T07:14:40.809Z</time>
      </trkpt>
      <trkpt lat="65.25977" lon="12.1406">
        <ele>46.99759</ele>
        <time>2020-08-13T07:14:42.838Z</time>
      </trkpt>
      <trkpt lat="65.25985" lon="12.14072">
        <ele>47.012192</ele>
        <time>2020-08-13T07:14:44.815Z</time>
      </trkpt>
      <trkpt lat="65.25994" lon="12.14083">
        <ele>47.026589</ele>
        <time>2020-08-13T07:14:46.815Z</time>
      </trkpt>
      <trkpt lat="65.26002" lon="12.14095">
        <ele>47.040537</ele>
        <time>2020-08-13T07:14:48.817Z</time>
      </trkpt>
      <trkpt lat="65.2601" lon="12.14108">
        <ele>47.054485</ele>
        <time>2020-08-13T07:14:50.813Z</time>
      </trkpt>
      <trkpt lat="65.26018" lon="12.14118">
        <ele>47.067993</ele>
        <time>2020-08-13T07:14:52.827Z</time>
      </trkpt>
      <trkpt lat="65.2603" lon="12.14133">
        <ele>47.087571</ele>
        <time>2020-08-13T07:14:55.838Z</time>
      </trkpt>
      <trkpt lat="65.26038" lon="12.14144">
        <ele>47.100951</ele>
        <time>2020-08-13T07:14:57.810Z</time>
      </trkpt>
      <trkpt lat="65.26046" lon="12.14154">
        <ele>47.11443</ele>
        <time>2020-08-13T07:14:59.808Z</time>
      </trkpt>
      <trkpt lat="65.26054" lon="12.14165">
        <ele>47.127555</ele>
        <time>2020-08-13T07:15:01.829Z</time>
      </trkpt>
      <trkpt lat="65.26065" lon="12.14181">
        <ele>47.146487</ele>
        <time>2020-08-13T07:15:04.840Z</time>
      </trkpt>
      <trkpt lat="65.26076" lon="12.14196">
        <ele>47.165267</ele>
        <time>2020-08-13T07:15:07.830Z</time>
      </trkpt>
      <trkpt lat="65.26087" lon="12.14212">
        <ele>47.184294</ele>
        <time>2020-08-13T07:15:10.806Z</time>
      </trkpt>
      <trkpt lat="65.26099" lon="12.14226">
        <ele>47.203241</ele>
        <time>2020-08-13T07:15:13.827Z</time>
      </trkpt>
      <trkpt lat="65.2611" lon="12.14242">
        <ele>47.221982</ele>
        <time>2020-08-13T07:15:16.811Z</time>
      </trkpt>
      <trkpt lat="65.2612" lon="12.14258">
        <ele>47.314658</ele>
        <time>2020-08-13T07:15:19.811Z</time>
      </trkpt>
      <trkpt lat="65.26131" lon="12.14274">
        <ele>47.671969</ele>
        <time>2020-08-13T07:15:22.805Z</time>
      </trkpt>
      <trkpt lat="65.26142" lon="12.14289">
        <ele>48.025561</ele>
        <time>2020-08-13T07:15:25.825Z</time>
      </trkpt>
      <trkpt lat="65.26153" lon="12.14306">
        <ele>48.396782</ele>
        <time>2020-08-13T07:15:28.842Z</time>
      </trkpt>
      <trkpt lat="65.26164" lon="12.14319">
        <ele>48.746836</ele>
        <time>2020-08-13T07:15:31.834Z</time>
      </trkpt>
      <trkpt lat="65.26174" lon="12.14333">
        <ele>49.083452</ele>
        <time>2020-08-13T07:15:34.835Z</time>
      </trkpt>
      <trkpt lat="65.26184" lon="12.14348">
        <ele>49.416383</ele>
        <time>2020-08-13T07:15:37.808Z</time>
      </trkpt>
      <trkpt lat="65.26194" lon="12.14359">
        <ele>49.726451</ele>
        <time>2020-08-13T07:15:40.807Z</time>
      </trkpt>
      <trkpt lat="65.26203" lon="12.14369">
        <ele>50.005936</ele>
        <time>2020-08-13T07:15:43.828Z</time>
      </trkpt>
      <trkpt lat="65.26212" lon="12.1438">
        <ele>50.295403</ele>
        <time>2020-08-13T07:15:46.819Z</time>
      </trkpt>
      <trkpt lat="65.26221" lon="12.14391">
        <ele>50.568476</ele>
        <time>2020-08-13T07:15:49.815Z</time>
      </trkpt>
      <trkpt lat="65.26229" lon="12.14401">
        <ele>50.841252</ele>
        <time>2020-08-13T07:15:52.828Z</time>
      </trkpt>
      <trkpt lat="65.26238" lon="12.14411">
        <ele>51.115091</ele>
        <time>2020-08-13T07:15:55.812Z</time>
      </trkpt>
      <trkpt lat="65.26247" lon="12.1442">
        <ele>51.388201</ele>
        <time>2020-08-13T07:15:58.814Z</time>
      </trkpt>
      <trkpt lat="65.26255" lon="12.14429">
        <ele>51.646706</ele>
        <time>2020-08-13T07:16:01.837Z</time>
      </trkpt>
      <trkpt lat="65.26264" lon="12.14435">
        <ele>51.9024</ele>
        <time>2020-08-13T07:16:04.814Z</time>
      </trkpt>
      <trkpt lat="65.26273" lon="12.14444">
        <ele>52.166303</ele>
        <time>2020-08-13T07:16:07.808Z</time>
      </trkpt>
      <trkpt lat="65.26281" lon="12.14453">
        <ele>52.427118</ele>
        <time>2020-08-13T07:16:10.814Z</time>
      </trkpt>
      <trkpt lat="65.26291" lon="12.14461">
        <ele>52.71068</ele>
        <time>2020-08-13T07:16:14.881Z</time>
      </trkpt>
      <trkpt lat="65.26302" lon="12.1447">
        <ele>53.00328</ele>
        <time>2020-08-13T07:16:18.823Z</time>
      </trkpt>
      <trkpt lat="65.2631" lon="12.14476">
        <ele>53.249345</ele>
        <time>2020-08-13T07:16:21.816Z</time>
      </trkpt>
      <trkpt lat="65.2632" lon="12.14483">
        <ele>53.508519</ele>
        <time>2020-08-13T07:16:24.818Z</time>
      </trkpt>
      <trkpt lat="65.26328" lon="12.14489">
        <ele>53.750737</ele>
        <time>2020-08-13T07:16:27.813Z</time>
      </trkpt>
      <trkpt lat="65.2634" lon="12.14496">
        <ele>54.063162</ele>
        <time>2020-08-13T07:16:31.813Z</time>
      </trkpt>
      <trkpt lat="65.26351" lon="12.14503">
        <ele>54.383812</ele>
        <time>2020-08-13T07:16:35.828Z</time>
      </trkpt>
      <trkpt lat="65.2636" lon="12.14507">
        <ele>54.626386</ele>
        <time>2020-08-13T07:16:38.845Z</time>
      </trkpt>
      <trkpt lat="65.26372" lon="12.14512">
        <ele>54.938069</ele>
        <time>2020-08-13T07:16:42.816Z</time>
      </trkpt>
      <trkpt lat="65.26383" lon="12.14515">
        <ele>55.244341</ele>
        <time>2020-08-13T07:16:46.835Z</time>
      </trkpt>
      <trkpt lat="65.26393" lon="12.14518">
        <ele>55.519472</ele>
        <time>2020-08-13T07:16:50.805Z</time>
      </trkpt>
      <trkpt lat="65.26404" lon="12.1452">
        <ele>55.808859</ele>
        <time>2020-08-13T07:16:54.821Z</time>
      </trkpt>
      <trkpt lat="65.26415" lon="12.14522">
        <ele>56.105935</ele>
        <time>2020-08-13T07:16:58.808Z</time>
      </trkpt>
      <trkpt lat="65.26427" lon="12.14523">
        <ele>56.408113</ele>
        <time>2020-08-13T07:17:02.807Z</time>
      </trkpt>
      <trkpt lat="65.26436" lon="12.14524">
        <ele>56.654321</ele>
        <time>2020-08-13T07:17:05.820Z</time>
      </trkpt>
      <trkpt lat="65.26445" lon="12.14525">
        <ele>56.89507</ele>
        <time>2020-08-13T07:17:08.801Z</time>
      </trkpt>
      <trkpt lat="65.26456" lon="12.14527">
        <ele>57.203907</ele>
        <time>2020-08-13T07:17:12.827Z</time>
      </trkpt>
      <trkpt lat="65.26468" lon="12.14528">
        <ele>57.525101</ele>
        <time>2020-08-13T07:17:16.809Z</time>
      </trkpt>
      <trkpt lat="65.2648" lon="12.1453">
        <ele>57.840998</ele>
        <time>2020-08-13T07:17:20.810Z</time>
      </trkpt>
      <trkpt lat="65.26491" lon="12.1453">
        <ele>58.148224</ele>
        <time>2020-08-13T07:17:24.831Z</time>
      </trkpt>
      <trkpt lat="65.26503" lon="12.14532">
        <ele>58.47233</ele>
        <time>2020-08-13T07:17:28.813Z</time>
      </trkpt>
      <trkpt lat="65.26514" lon="12.14533">
        <ele>58.763313</ele>
        <time>2020-08-13T07:17:32.806Z</time>
      </trkpt>
      <trkpt lat="65.26523" lon="12.14535">
        <ele>59.027681</ele>
        <time>2020-08-13T07:17:36.819Z</time>
      </trkpt>
      <trkpt lat="65.26533" lon="12.14536">
        <ele>59.294605</ele>
        <time>2020-08-13T07:17:40.805Z</time>
      </trkpt>
      <trkpt lat="65.26543" lon="12.14538">
        <ele>59.551445</ele>
        <time>2020-08-13T07:17:44.805Z</time>
      </trkpt>
      <trkpt lat="65.26553" lon="12.14539">
        <ele>59.823281</ele>
        <time>2020-08-13T07:17:48.813Z</time>
      </trkpt>
      <trkpt lat="65.26563" lon="12.14539">
        <ele>60.111485</ele>
        <time>2020-08-13T07:17:52.831Z</time>
      </trkpt>
      <trkpt lat="65.26574" lon="12.1454">
        <ele>60.410742</ele>
        <time>2020-08-13T07:17:56.825Z</time>
      </trkpt>
      <trkpt lat="65.26584" lon="12.14541">
        <ele>60.688226</ele>
        <time>2020-08-13T07:18:00.832Z</time>
      </trkpt>
      <trkpt lat="65.26595" lon="12.14543">
        <ele>60.979635</ele>
        <time>2020-08-13T07:18:04.827Z</time>
      </trkpt>
      <trkpt lat="65.26606" lon="12.14546">
        <ele>61.283817</ele>
        <time>2020-08-13T07:18:08.825Z</time>
      </trkpt>
      <trkpt lat="65.26617" lon="12.14548">
        <ele>61.580966</ele>
        <time>2020-08-13T07:18:12.815Z</time>
      </trkpt>
      <trkpt lat="65.26628" lon="12.1455">
        <ele>61.872183</ele>
        <time>2020-08-13T07:18:16.810Z</time>
      </trkpt>
      <trkpt lat="65.26639" lon="12.14551">
        <ele>62.108251</ele>
        <time>2020-08-13T07:18:20.819Z</time>
      </trkpt>
      <trkpt lat="65.26648" lon="12.14553">
        <ele>62.25528</ele>
        <time>2020-08-13T07:18:23.814Z</time>
      </trkpt>
      <trkpt lat="65.2666" lon="12.14554">
        <ele>62.442081</ele>
        <time>2020-08-13T07:18:27.811Z</time>
      </trkpt>
      <trkpt lat="65.26671" lon="12.14556">
        <ele>62.622802</ele>
        <time>2020-08-13T07:18:31.822Z</time>
      </trkpt>
      <trkpt lat="65.26682" lon="12.14557">
        <ele>62.801632</ele>
        <time>2020-08-13T07:18:35.822Z</time>
      </trkpt>
      <trkpt lat="65.26691" lon="12.14557">
        <ele>62.94529</ele>
        <time>2020-08-13T07:18:38.819Z</time>
      </trkpt>
      <trkpt lat="65.267" lon="12.14559">
        <ele>63.087503</ele>
        <time>2020-08-13T07:18:41.866Z</time>
      </trkpt>
      <trkpt lat="65.26712" lon="12.14559">
        <ele>63.274236</ele>
        <time>2020-08-13T07:18:45.847Z</time>
      </trkpt>
      <trkpt lat="65.26721" lon="12.1456">
        <ele>63.416299</ele>
        <time>2020-08-13T07:18:48.821Z</time>
      </trkpt>
      <trkpt lat="65.26733" lon="12.14561">
        <ele>63.607883</ele>
        <time>2020-08-13T07:18:52.821Z</time>
      </trkpt>
      <trkpt lat="65.26744" lon="12.14561">
        <ele>63.794544</ele>
        <time>2020-08-13T07:18:56.850Z</time>
      </trkpt>
      <trkpt lat="65.26755" lon="12.14563">
        <ele>63.968689</ele>
        <time>2020-08-13T07:19:00.805Z</time>
      </trkpt>
      <trkpt lat="65.26767" lon="12.14566">
        <ele>64.157866</ele>
        <time>2020-08-13T07:19:04.800Z</time>
      </trkpt>
      <trkpt lat="65.26779" lon="12.14567">
        <ele>64.347911</ele>
        <time>2020-08-13T07:19:08.854Z</time>
      </trkpt>
      <trkpt lat="65.26791" lon="12.14568">
        <ele>64.537834</ele>
        <time>2020-08-13T07:19:12.819Z</time>
      </trkpt>
      <trkpt lat="65.26802" lon="12.14569">
        <ele>64.72161</ele>
        <time>2020-08-13T07:19:16.808Z</time>
      </trkpt>
      <trkpt lat="65.26813" lon="12.1457">
        <ele>64.900292</ele>
        <time>2020-08-13T07:19:20.833Z</time>
      </trkpt>
      <trkpt lat="65.26824" lon="12.14571">
        <ele>65.074435</ele>
        <time>2020-08-13T07:19:24.813Z</time>
      </trkpt>
      <trkpt lat="65.26835" lon="12.14573">
        <ele>65.247322</ele>
        <time>2020-08-13T07:19:28.828Z</time>
      </trkpt>
      <trkpt lat="65.26846" lon="12.14575">
        <ele>65.416829</ele>
        <time>2020-08-13T07:19:32.831Z</time>
      </trkpt>
      <trkpt lat="65.26857" lon="12.14575">
        <ele>65.592383</ele>
        <time>2020-08-13T07:19:36.824Z</time>
      </trkpt>
      <trkpt lat="65.26866" lon="12.14576">
        <ele>65.736448</ele>
        <time>2020-08-13T07:19:39.826Z</time>
      </trkpt>
      <trkpt lat="65.26876" lon="12.14576">
        <ele>65.891454</ele>
        <time>2020-08-13T07:19:42.814Z</time>
      </trkpt>
      <trkpt lat="65.26886" lon="12.14577">
        <ele>66.044858</ele>
        <time>2020-08-13T07:19:45.883Z</time>
      </trkpt>
      <trkpt lat="65.26895" lon="12.14578">
        <ele>66.193727</ele>
        <time>2020-08-13T07:19:48.825Z</time>
      </trkpt>
      <trkpt lat="65.26905" lon="12.14579">
        <ele>66.347272</ele>
        <time>2020-08-13T07:19:51.850Z</time>
      </trkpt>
      <trkpt lat="65.26915" lon="12.14579">
        <ele>66.508583</ele>
        <time>2020-08-13T07:19:54.813Z</time>
      </trkpt>
      <trkpt lat="65.26925" lon="12.1458">
        <ele>66.673188</ele>
        <time>2020-08-13T07:19:57.816Z</time>
      </trkpt>
      <trkpt lat="65.26936" lon="12.14581">
        <ele>66.833027</ele>
        <time>2020-08-13T07:20:00.813Z</time>
      </trkpt>
      <trkpt lat="65.26945" lon="12.14579">
        <ele>66.977159</ele>
        <time>2020-08-13T07:20:03.816Z</time>
      </trkpt>
      <trkpt lat="65.26954" lon="12.14579">
        <ele>67.121127</ele>
        <time>2020-08-13T07:20:06.827Z</time>
      </trkpt>
      <trkpt lat="65.26966" lon="12.14578">
        <ele>67.307909</ele>
        <time>2020-08-13T07:20:10.805Z</time>
      </trkpt>
      <trkpt lat="65.26974" lon="12.14575">
        <ele>67.44948</ele>
        <time>2020-08-13T07:20:13.837Z</time>
      </trkpt>
      <trkpt lat="65.26984" lon="12.14573">
        <ele>67.605415</ele>
        <time>2020-08-13T07:20:16.817Z</time>
      </trkpt>
      <trkpt lat="65.26994" lon="12.1457">
        <ele>67.683496</ele>
        <time>2020-08-13T07:20:19.812Z</time>
      </trkpt>
      <trkpt lat="65.27005" lon="12.14566">
        <ele>67.355673</ele>
        <time>2020-08-13T07:20:22.826Z</time>
      </trkpt>
      <trkpt lat="65.27016" lon="12.14563">
        <ele>67.022294</ele>
        <time>2020-08-13T07:20:25.813Z</time>
      </trkpt>
      <trkpt lat="65.27028" lon="12.1456">
        <ele>66.64359</ele>
        <time>2020-08-13T07:20:28.826Z</time>
      </trkpt>
      <trkpt lat="65.27037" lon="12.14558">
        <ele>66.360356</ele>
        <time>2020-08-13T07:20:30.830Z</time>
      </trkpt>
      <trkpt lat="65.27048" lon="12.14554">
        <ele>66.029134</ele>
        <time>2020-08-13T07:20:32.825Z</time>
      </trkpt>
      <trkpt lat="65.2706" lon="12.1455">
        <ele>65.649547</ele>
        <time>2020-08-13T07:20:34.824Z</time>
      </trkpt>
      <trkpt lat="65.27074" lon="12.14546">
        <ele>65.218266</ele>
        <time>2020-08-13T07:20:36.826Z</time>
      </trkpt>
      <trkpt lat="65.2709" lon="12.14542">
        <ele>64.736826</ele>
        <time>2020-08-13T07:20:38.817Z</time>
      </trkpt>
      <trkpt lat="65.27107" lon="12.14535">
        <ele>64.212908</ele>
        <time>2020-08-13T07:20:40.833Z</time>
      </trkpt>
      <trkpt lat="65.27124" lon="12.1453">
        <ele>63.675326</ele>
        <time>2020-08-13T07:20:42.861Z</time>
      </trkpt>
      <trkpt lat="65.27133" lon="12.14527">
        <ele>63.400629</ele>
        <time>2020-08-13T07:20:43.812Z</time>
      </trkpt>
      <trkpt lat="65.27142" lon="12.14524">
        <ele>63.12016</ele>
        <time>2020-08-13T07:20:44.810Z</time>
      </trkpt>
      <trkpt lat="65.27151" lon="12.14522">
        <ele>62.833746</ele>
        <time>2020-08-13T07:20:45.819Z</time>
      </trkpt>
      <trkpt lat="65.27161" lon="12.1452">
        <ele>62.544549</ele>
        <time>2020-08-13T07:20:46.837Z</time>
      </trkpt>
      <trkpt lat="65.2717" lon="12.14517">
        <ele>62.249001</ele>
        <time>2020-08-13T07:20:47.825Z</time>
      </trkpt>
      <trkpt lat="65.2718" lon="12.14515">
        <ele>62.197572</ele>
        <time>2020-08-13T07:20:48.817Z</time>
      </trkpt>
      <trkpt lat="65.2719" lon="12.14513">
        <ele>62.163577</ele>
        <time>2020-08-13T07:20:49.846Z</time>
      </trkpt>
      <trkpt lat="65.272" lon="12.14512">
        <ele>62.128939</ele>
        <time>2020-08-13T07:20:50.817Z</time>
      </trkpt>
      <trkpt lat="65.2721" lon="12.14511">
        <ele>62.094687</ele>
        <time>2020-08-13T07:20:51.837Z</time>
      </trkpt>
      <trkpt lat="65.27219" lon="12.14511">
        <ele>62.061137</ele>
        <time>2020-08-13T07:20:52.819Z</time>
      </trkpt>
      <trkpt lat="65.27229" lon="12.14512">
        <ele>62.028264</ele>
        <time>2020-08-13T07:20:53.808Z</time>
      </trkpt>
      <trkpt lat="65.27238" lon="12.14513">
        <ele>61.996411</ele>
        <time>2020-08-13T07:20:54.812Z</time>
      </trkpt>
      <trkpt lat="65.27255" lon="12.14518">
        <ele>61.935814</ele>
        <time>2020-08-13T07:20:56.819Z</time>
      </trkpt>
      <trkpt lat="65.27271" lon="12.14524">
        <ele>61.880526</ele>
        <time>2020-08-13T07:20:58.832Z</time>
      </trkpt>
      <trkpt lat="65.27285" lon="12.14529">
        <ele>61.832526</ele>
        <time>2020-08-13T07:21:00.823Z</time>
      </trkpt>
      <trkpt lat="65.27296" lon="12.14534">
        <ele>61.791705</ele>
        <time>2020-08-13T07:21:02.808Z</time>
      </trkpt>
      <trkpt lat="65.27306" lon="12.14539">
        <ele>61.756511</ele>
        <time>2020-08-13T07:21:04.806Z</time>
      </trkpt>
      <trkpt lat="65.27318" lon="12.14544">
        <ele>61.716424</ele>
        <time>2020-08-13T07:21:07.868Z</time>
      </trkpt>
      <trkpt lat="65.27328" lon="12.14549">
        <ele>61.678846</ele>
        <time>2020-08-13T07:21:11.897Z</time>
      </trkpt>
      <trkpt lat="65.27339" lon="12.14555">
        <ele>61.641729</ele>
        <time>2020-08-13T07:21:16.810Z</time>
      </trkpt>
      <trkpt lat="65.27348" lon="12.14558">
        <ele>61.608756</ele>
        <time>2020-08-13T07:21:20.845Z</time>
      </trkpt>
      <trkpt lat="65.27359" lon="12.14563">
        <ele>61.289438</ele>
        <time>2020-08-13T07:21:24.830Z</time>
      </trkpt>
      <trkpt lat="65.27368" lon="12.14569">
        <ele>61.012801</ele>
        <time>2020-08-13T07:21:27.820Z</time>
      </trkpt>
      <trkpt lat="65.27378" lon="12.14575">
        <ele>60.699469</ele>
        <time>2020-08-13T07:21:30.805Z</time>
      </trkpt>
      <trkpt lat="65.2739" lon="12.14581">
        <ele>60.327168</ele>
        <time>2020-08-13T07:21:33.817Z</time>
      </trkpt>
      <trkpt lat="65.27399" lon="12.14585">
        <ele>60.037159</ele>
        <time>2020-08-13T07:21:35.802Z</time>
      </trkpt>
      <trkpt lat="65.27409" lon="12.1459">
        <ele>59.720098</ele>
        <time>2020-08-13T07:21:37.806Z</time>
      </trkpt>
      <trkpt lat="65.27421" lon="12.14596">
        <ele>59.365439</ele>
        <time>2020-08-13T07:21:39.831Z</time>
      </trkpt>
      <trkpt lat="65.27433" lon="12.14602">
        <ele>58.984676</ele>
        <time>2020-08-13T07:21:41.813Z</time>
      </trkpt>
      <trkpt lat="65.27445" lon="12.14609">
        <ele>58.588675</ele>
        <time>2020-08-13T07:21:43.819Z</time>
      </trkpt>
      <trkpt lat="65.27458" lon="12.14616">
        <ele>58.176905</ele>
        <time>2020-08-13T07:21:45.817Z</time>
      </trkpt>
      <trkpt lat="65.27472" lon="12.14624">
        <ele>57.740142</ele>
        <time>2020-08-13T07:21:47.808Z</time>
      </trkpt>
      <trkpt lat="65.27487" lon="12.14632">
        <ele>57.281941</ele>
        <time>2020-08-13T07:21:49.811Z</time>
      </trkpt>
      <trkpt lat="65.27502" lon="12.1464">
        <ele>56.812356</ele>
        <time>2020-08-13T07:21:51.807Z</time>
      </trkpt>
      <trkpt lat="65.27517" lon="12.14648">
        <ele>56.334831</ele>
        <time>2020-08-13T07:21:53.806Z</time>
      </trkpt>
      <trkpt lat="65.27532" lon="12.14658">
        <ele>55.914324</ele>
        <time>2020-08-13T07:21:55.821Z</time>
      </trkpt>
      <trkpt lat="65.27548" lon="12.14666">
        <ele>55.544545</ele>
        <time>2020-08-13T07:21:57.824Z</time>
      </trkpt>
      <trkpt lat="65.27564" lon="12.14674">
        <ele>55.18233</ele>
        <time>2020-08-13T07:21:59.817Z</time>
      </trkpt>
      <trkpt lat="65.27579" lon="12.14682">
        <ele>54.825614</ele>
        <time>2020-08-13T07:22:01.815Z</time>
      </trkpt>
      <trkpt lat="65.27593" lon="12.14689">
        <ele>54.488061</ele>
        <time>2020-08-13T07:22:03.802Z</time>
      </trkpt>
      <trkpt lat="65.27606" lon="12.14696">
        <ele>54.17481</ele>
        <time>2020-08-13T07:22:05.806Z</time>
      </trkpt>
      <trkpt lat="65.27619" lon="12.14703">
        <ele>53.870732</ele>
        <time>2020-08-13T07:22:07.826Z</time>
      </trkpt>
      <trkpt lat="65.27631" lon="12.1471">
        <ele>53.588758</ele>
        <time>2020-08-13T07:22:09.855Z</time>
      </trkpt>
      <trkpt lat="65.27643" lon="12.14717">
        <ele>53.311708</ele>
        <time>2020-08-13T07:22:11.829Z</time>
      </trkpt>
      <trkpt lat="65.27654" lon="12.14723">
        <ele>53.05131</ele>
        <time>2020-08-13T07:22:13.849Z</time>
      </trkpt>
      <trkpt lat="65.27664" lon="12.14728">
        <ele>52.816824</ele>
        <time>2020-08-13T07:22:15.840Z</time>
      </trkpt>
      <trkpt lat="65.27673" lon="12.14733">
        <ele>52.596025</ele>
        <time>2020-08-13T07:22:17.799Z</time>
      </trkpt>
      <trkpt lat="65.27682" lon="12.14737">
        <ele>52.384613</ele>
        <time>2020-08-13T07:22:19.828Z</time>
      </trkpt>
      <trkpt lat="65.27695" lon="12.14745">
        <ele>52.077642</ele>
        <time>2020-08-13T07:22:22.823Z</time>
      </trkpt>
      <trkpt lat="65.27708" lon="12.14751">
        <ele>51.943948</ele>
        <time>2020-08-13T07:22:25.815Z</time>
      </trkpt>
      <trkpt lat="65.27721" lon="12.14757">
        <ele>51.899599</ele>
        <time>2020-08-13T07:22:28.799Z</time>
      </trkpt>
      <trkpt lat="65.2773" lon="12.14761">
        <ele>51.86868</ele>
        <time>2020-08-13T07:22:30.822Z</time>
      </trkpt>
      <trkpt lat="65.2774" lon="12.14765">
        <ele>51.835911</ele>
        <time>2020-08-13T07:22:32.815Z</time>
      </trkpt>
      <trkpt lat="65.2775" lon="12.14771">
        <ele>51.802518</ele>
        <time>2020-08-13T07:22:34.814Z</time>
      </trkpt>
      <trkpt lat="65.2776" lon="12.14777">
        <ele>51.767658</ele>
        <time>2020-08-13T07:22:36.848Z</time>
      </trkpt>
      <trkpt lat="65.2777" lon="12.14783">
        <ele>51.731105</ele>
        <time>2020-08-13T07:22:38.811Z</time>
      </trkpt>
      <trkpt lat="65.27781" lon="12.14789">
        <ele>51.693249</ele>
        <time>2020-08-13T07:22:40.849Z</time>
      </trkpt>
      <trkpt lat="65.27793" lon="12.14796">
        <ele>51.653602</ele>
        <time>2020-08-13T07:22:42.835Z</time>
      </trkpt>
      <trkpt lat="65.27805" lon="12.14802">
        <ele>51.611376</ele>
        <time>2020-08-13T07:22:44.803Z</time>
      </trkpt>
      <trkpt lat="65.27818" lon="12.14809">
        <ele>51.566444</ele>
        <time>2020-08-13T07:22:46.813Z</time>
      </trkpt>
      <trkpt lat="65.27831" lon="12.14815">
        <ele>51.522342</ele>
        <time>2020-08-13T07:22:48.819Z</time>
      </trkpt>
      <trkpt lat="65.27844" lon="12.14822">
        <ele>51.478421</ele>
        <time>2020-08-13T07:22:50.807Z</time>
      </trkpt>
      <trkpt lat="65.27856" lon="12.14829">
        <ele>51.436133</ele>
        <time>2020-08-13T07:22:52.814Z</time>
      </trkpt>
      <trkpt lat="65.27868" lon="12.14836">
        <ele>51.39515</ele>
        <time>2020-08-13T07:22:54.846Z</time>
      </trkpt>
      <trkpt lat="65.2788" lon="12.14842">
        <ele>51.37551</ele>
        <time>2020-08-13T07:22:56.811Z</time>
      </trkpt>
      <trkpt lat="65.27892" lon="12.14848">
        <ele>51.38865</ele>
        <time>2020-08-13T07:22:58.880Z</time>
      </trkpt>
      <trkpt lat="65.27903" lon="12.14852">
        <ele>51.401721</ele>
        <time>2020-08-13T07:23:00.817Z</time>
      </trkpt>
      <trkpt lat="65.27915" lon="12.14857">
        <ele>51.414582</ele>
        <time>2020-08-13T07:23:02.809Z</time>
      </trkpt>
      <trkpt lat="65.27926" lon="12.14861">
        <ele>51.427156</ele>
        <time>2020-08-13T07:23:04.805Z</time>
      </trkpt>
      <trkpt lat="65.27938" lon="12.14865">
        <ele>51.440469</ele>
        <time>2020-08-13T07:23:06.815Z</time>
      </trkpt>
      <trkpt lat="65.2795" lon="12.14868">
        <ele>51.454083</ele>
        <time>2020-08-13T07:23:08.810Z</time>
      </trkpt>
      <trkpt lat="65.27962" lon="12.14871">
        <ele>51.467495</ele>
        <time>2020-08-13T07:23:10.870Z</time>
      </trkpt>
      <trkpt lat="65.27973" lon="12.14875">
        <ele>51.480076</ele>
        <time>2020-08-13T07:23:12.816Z</time>
      </trkpt>
      <trkpt lat="65.27984" lon="12.14879">
        <ele>51.492074</ele>
        <time>2020-08-13T07:23:14.816Z</time>
      </trkpt>
      <trkpt lat="65.27994" lon="12.14882">
        <ele>51.503742</ele>
        <time>2020-08-13T07:23:16.848Z</time>
      </trkpt>
      <trkpt lat="65.28004" lon="12.14886">
        <ele>51.514971</ele>
        <time>2020-08-13T07:23:18.847Z</time>
      </trkpt>
      <trkpt lat="65.28014" lon="12.1489">
        <ele>51.52616</ele>
        <time>2020-08-13T07:23:20.817Z</time>
      </trkpt>
      <trkpt lat="65.28024" lon="12.14894">
        <ele>51.536819</ele>
        <time>2020-08-13T07:23:22.835Z</time>
      </trkpt>
      <trkpt lat="65.28033" lon="12.14897">
        <ele>51.547178</ele>
        <time>2020-08-13T07:23:24.824Z</time>
      </trkpt>
      <trkpt lat="65.28045" lon="12.14902">
        <ele>51.560768</ele>
        <time>2020-08-13T07:23:27.809Z</time>
      </trkpt>
      <trkpt lat="65.28056" lon="12.14904">
        <ele>51.64809</ele>
        <time>2020-08-13T07:23:30.826Z</time>
      </trkpt>
      <trkpt lat="65.28067" lon="12.14908">
        <ele>51.983241</ele>
        <time>2020-08-13T07:23:33.826Z</time>
      </trkpt>
      <trkpt lat="65.28079" lon="12.14912">
        <ele>52.32365</ele>
        <time>2020-08-13T07:23:36.816Z</time>
      </trkpt>
      <trkpt lat="65.2809" lon="12.14917">
        <ele>52.653204</ele>
        <time>2020-08-13T07:23:39.827Z</time>
      </trkpt>
      <trkpt lat="65.28101" lon="12.14922">
        <ele>52.996676</ele>
        <time>2020-08-13T07:23:42.806Z</time>
      </trkpt>
      <trkpt lat="65.28113" lon="12.14927">
        <ele>53.339685</ele>
        <time>2020-08-13T07:23:45.862Z</time>
      </trkpt>
      <trkpt lat="65.28124" lon="12.14932">
        <ele>53.670494</ele>
        <time>2020-08-13T07:23:48.818Z</time>
      </trkpt>
      <trkpt lat="65.28135" lon="12.14937">
        <ele>53.993611</ele>
        <time>2020-08-13T07:23:51.827Z</time>
      </trkpt>
      <trkpt lat="65.28145" lon="12.14942">
        <ele>54.304508</ele>
        <time>2020-08-13T07:23:54.841Z</time>
      </trkpt>
      <trkpt lat="65.28155" lon="12.14948">
        <ele>54.608365</ele>
        <time>2020-08-13T07:23:57.872Z</time>
      </trkpt>
      <trkpt lat="65.28165" lon="12.14955">
        <ele>54.911989</ele>
        <time>2020-08-13T07:24:00.803Z</time>
      </trkpt>
      <trkpt lat="65.28175" lon="12.14961">
        <ele>55.201591</ele>
        <time>2020-08-13T07:24:03.817Z</time>
      </trkpt>
      <trkpt lat="65.28184" lon="12.14968">
        <ele>55.486062</ele>
        <time>2020-08-13T07:24:06.824Z</time>
      </trkpt>
      <trkpt lat="65.28194" lon="12.14975">
        <ele>55.779151</ele>
        <time>2020-08-13T07:24:09.834Z</time>
      </trkpt>
      <trkpt lat="65.28203" lon="12.14981">
        <ele>56.059616</ele>
        <time>2020-08-13T07:24:12.817Z</time>
      </trkpt>
      <trkpt lat="65.28212" lon="12.14987">
        <ele>56.327138</ele>
        <time>2020-08-13T07:24:15.811Z</time>
      </trkpt>
      <trkpt lat="65.2822" lon="12.14994">
        <ele>56.601719</ele>
        <time>2020-08-13T07:24:18.812Z</time>
      </trkpt>
      <trkpt lat="65.28232" lon="12.15001">
        <ele>56.882844</ele>
        <time>2020-08-13T07:24:22.821Z</time>
      </trkpt>
      <trkpt lat="65.28241" lon="12.15006">
        <ele>56.994415</ele>
        <time>2020-08-13T07:24:25.810Z</time>
      </trkpt>
      <trkpt lat="65.28251" lon="12.15013">
        <ele>57.118651</ele>
        <time>2020-08-13T07:24:28.861Z</time>
      </trkpt>
      <trkpt lat="65.28262" lon="12.1502">
        <ele>57.245267</ele>
        <time>2020-08-13T07:24:31.799Z</time>
      </trkpt>
      <trkpt lat="65.28272" lon="12.15028">
        <ele>57.370216</ele>
        <time>2020-08-13T07:24:34.816Z</time>
      </trkpt>
      <trkpt lat="65.28282" lon="12.15036">
        <ele>57.490718</ele>
        <time>2020-08-13T07:24:37.823Z</time>
      </trkpt>
      <trkpt lat="65.28291" lon="12.15044">
        <ele>57.610741</ele>
        <time>2020-08-13T07:24:40.812Z</time>
      </trkpt>
      <trkpt lat="65.28302" lon="12.15052">
        <ele>57.734726</ele>
        <time>2020-08-13T07:24:43.806Z</time>
      </trkpt>
      <trkpt lat="65.28312" lon="12.15059">
        <ele>57.861931</ele>
        <time>2020-08-13T07:24:46.814Z</time>
      </trkpt>
      <trkpt lat="65.28322" lon="12.15066">
        <ele>57.986734</ele>
        <time>2020-08-13T07:24:49.815Z</time>
      </trkpt>
      <trkpt lat="65.28332" lon="12.15074">
        <ele>58.111684</ele>
        <time>2020-08-13T07:24:52.808Z</time>
      </trkpt>
      <trkpt lat="65.28343" lon="12.15081">
        <ele>58.235372</ele>
        <time>2020-08-13T07:24:55.810Z</time>
      </trkpt>
      <trkpt lat="65.28353" lon="12.1509">
        <ele>58.359815</ele>
        <time>2020-08-13T07:24:58.809Z</time>
      </trkpt>
      <trkpt lat="65.28363" lon="12.15096">
        <ele>58.47912</ele>
        <time>2020-08-13T07:25:01.813Z</time>
      </trkpt>
      <trkpt lat="65.28373" lon="12.15102">
        <ele>58.601826</ele>
        <time>2020-08-13T07:25:04.815Z</time>
      </trkpt>
      <trkpt lat="65.28383" lon="12.15109">
        <ele>58.731923</ele>
        <time>2020-08-13T07:25:07.833Z</time>
      </trkpt>
      <trkpt lat="65.28394" lon="12.15116">
        <ele>58.863765</ele>
        <time>2020-08-13T07:25:10.825Z</time>
      </trkpt>
      <trkpt lat="65.28405" lon="12.15124">
        <ele>58.878384</ele>
        <time>2020-08-13T07:25:13.827Z</time>
      </trkpt>
      <trkpt lat="65.28415" lon="12.15132">
        <ele>58.711423</ele>
        <time>2020-08-13T07:25:16.817Z</time>
      </trkpt>
      <trkpt lat="65.28427" lon="12.15139">
        <ele>58.537946</ele>
        <time>2020-08-13T07:25:19.806Z</time>
      </trkpt>
      <trkpt lat="65.28437" lon="12.15147">
        <ele>58.372424</ele>
        <time>2020-08-13T07:25:22.828Z</time>
      </trkpt>
      <trkpt lat="65.28448" lon="12.15155">
        <ele>58.194279</ele>
        <time>2020-08-13T07:25:25.815Z</time>
      </trkpt>
      <trkpt lat="65.28461" lon="12.15164">
        <ele>58.001357</ele>
        <time>2020-08-13T07:25:28.848Z</time>
      </trkpt>
      <trkpt lat="65.28473" lon="12.15173">
        <ele>57.803903</ele>
        <time>2020-08-13T07:25:31.817Z</time>
      </trkpt>
      <trkpt lat="65.28482" lon="12.1518">
        <ele>57.665914</ele>
        <time>2020-08-13T07:25:33.833Z</time>
      </trkpt>
      <trkpt lat="65.28491" lon="12.15186">
        <ele>57.523294</ele>
        <time>2020-08-13T07:25:35.809Z</time>
      </trkpt>
      <trkpt lat="65.285" lon="12.15193">
        <ele>57.378141</ele>
        <time>2020-08-13T07:25:37.805Z</time>
      </trkpt>
      <trkpt lat="65.2851" lon="12.152">
        <ele>57.226865</ele>
        <time>2020-08-13T07:25:39.857Z</time>
      </trkpt>
      <trkpt lat="65.2852" lon="12.15208">
        <ele>57.071087</ele>
        <time>2020-08-13T07:25:41.862Z</time>
      </trkpt>
      <trkpt lat="65.2853" lon="12.15215">
        <ele>56.910803</ele>
        <time>2020-08-13T07:25:43.807Z</time>
      </trkpt>
      <trkpt lat="65.2854" lon="12.15222">
        <ele>56.748896</ele>
        <time>2020-08-13T07:25:45.823Z</time>
      </trkpt>
      <trkpt lat="65.28551" lon="12.1523">
        <ele>56.585183</ele>
        <time>2020-08-13T07:25:47.815Z</time>
      </trkpt>
      <trkpt lat="65.28561" lon="12.15238">
        <ele>56.418301</ele>
        <time>2020-08-13T07:25:49.866Z</time>
      </trkpt>
      <trkpt lat="65.28572" lon="12.15247">
        <ele>56.243219</ele>
        <time>2020-08-13T07:25:51.818Z</time>
      </trkpt>
      <trkpt lat="65.28584" lon="12.15255">
        <ele>56.156632</ele>
        <time>2020-08-13T07:25:53.824Z</time>
      </trkpt>
      <trkpt lat="65.28595" lon="12.15264">
        <ele>56.075791</ele>
        <time>2020-08-13T07:25:55.805Z</time>
      </trkpt>
      <trkpt lat="65.28607" lon="12.15272">
        <ele>55.99747</ele>
        <time>2020-08-13T07:25:57.805Z</time>
      </trkpt>
      <trkpt lat="65.28618" lon="12.1528">
        <ele>55.918508</ele>
        <time>2020-08-13T07:25:59.828Z</time>
      </trkpt>
      <trkpt lat="65.28629" lon="12.15287">
        <ele>55.842978</ele>
        <time>2020-08-13T07:26:01.823Z</time>
      </trkpt>
      <trkpt lat="65.28639" lon="12.15293">
        <ele>55.772447</ele>
        <time>2020-08-13T07:26:03.807Z</time>
      </trkpt>
      <trkpt lat="65.28649" lon="12.15301">
        <ele>55.704299</ele>
        <time>2020-08-13T07:26:05.823Z</time>
      </trkpt>
      <trkpt lat="65.28659" lon="12.15309">
        <ele>55.637042</ele>
        <time>2020-08-13T07:26:07.848Z</time>
      </trkpt>
      <trkpt lat="65.28669" lon="12.15317">
        <ele>55.566733</ele>
        <time>2020-08-13T07:26:09.817Z</time>
      </trkpt>
      <trkpt lat="65.28679" lon="12.15325">
        <ele>55.494787</ele>
        <time>2020-08-13T07:26:11.836Z</time>
      </trkpt>
      <trkpt lat="65.28689" lon="12.15334">
        <ele>55.421324</ele>
        <time>2020-08-13T07:26:13.806Z</time>
      </trkpt>
      <trkpt lat="65.28699" lon="12.15341">
        <ele>55.351616</ele>
        <time>2020-08-13T07:26:15.801Z</time>
      </trkpt>
      <trkpt lat="65.2871" lon="12.15349">
        <ele>55.279585</ele>
        <time>2020-08-13T07:26:17.825Z</time>
      </trkpt>
      <trkpt lat="65.2872" lon="12.15357">
        <ele>55.206768</ele>
        <time>2020-08-13T07:26:19.818Z</time>
      </trkpt>
      <trkpt lat="65.2873" lon="12.15364">
        <ele>55.135456</ele>
        <time>2020-08-13T07:26:21.847Z</time>
      </trkpt>
      <trkpt lat="65.2874" lon="12.15371">
        <ele>55.066224</ele>
        <time>2020-08-13T07:26:23.837Z</time>
      </trkpt>
      <trkpt lat="65.2875" lon="12.15378">
        <ele>55.021126</ele>
        <time>2020-08-13T07:26:25.845Z</time>
      </trkpt>
      <trkpt lat="65.2876" lon="12.15385">
        <ele>54.994465</ele>
        <time>2020-08-13T07:26:27.847Z</time>
      </trkpt>
      <trkpt lat="65.2877" lon="12.15391">
        <ele>54.967446</ele>
        <time>2020-08-13T07:26:29.807Z</time>
      </trkpt>
      <trkpt lat="65.2878" lon="12.15398">
        <ele>54.941255</ele>
        <time>2020-08-13T07:26:31.807Z</time>
      </trkpt>
      <trkpt lat="65.28789" lon="12.15405">
        <ele>54.916502</ele>
        <time>2020-08-13T07:26:33.838Z</time>
      </trkpt>
      <trkpt lat="65.28798" lon="12.15411">
        <ele>54.891125</ele>
        <time>2020-08-13T07:26:35.830Z</time>
      </trkpt>
      <trkpt lat="65.28807" lon="12.15418">
        <ele>54.865867</ele>
        <time>2020-08-13T07:26:37.823Z</time>
      </trkpt>
      <trkpt lat="65.28816" lon="12.15425">
        <ele>54.840957</ele>
        <time>2020-08-13T07:26:39.803Z</time>
      </trkpt>
      <trkpt lat="65.28826" lon="12.15432">
        <ele>54.815893</ele>
        <time>2020-08-13T07:26:41.838Z</time>
      </trkpt>
      <trkpt lat="65.28835" lon="12.15438">
        <ele>54.790515</ele>
        <time>2020-08-13T07:26:43.830Z</time>
      </trkpt>
      <trkpt lat="65.28844" lon="12.15445">
        <ele>54.765356</ele>
        <time>2020-08-13T07:26:45.847Z</time>
      </trkpt>
      <trkpt lat="65.28853" lon="12.15452">
        <ele>54.740808</ele>
        <time>2020-08-13T07:26:47.813Z</time>
      </trkpt>
      <trkpt lat="65.28866" lon="12.15462">
        <ele>54.705637</ele>
        <time>2020-08-13T07:26:50.818Z</time>
      </trkpt>
      <trkpt lat="65.28878" lon="12.15469">
        <ele>54.671938</ele>
        <time>2020-08-13T07:26:53.816Z</time>
      </trkpt>
      <trkpt lat="65.28891" lon="12.1548">
        <ele>54.636793</ele>
        <time>2020-08-13T07:26:56.814Z</time>
      </trkpt>
      <trkpt lat="65.289" lon="12.15487">
        <ele>54.61228</ele>
        <time>2020-08-13T07:26:58.805Z</time>
      </trkpt>
      <trkpt lat="65.28909" lon="12.15494">
        <ele>54.586839</ele>
        <time>2020-08-13T07:27:00.837Z</time>
      </trkpt>
      <trkpt lat="65.28918" lon="12.15501">
        <ele>54.575541</ele>
        <time>2020-08-13T07:27:02.799Z</time>
      </trkpt>
      <trkpt lat="65.28927" lon="12.15508">
        <ele>54.618797</ele>
        <time>2020-08-13T07:27:04.809Z</time>
      </trkpt>
      <trkpt lat="65.28936" lon="12.15514">
        <ele>54.662173</ele>
        <time>2020-08-13T07:27:06.844Z</time>
      </trkpt>
      <trkpt lat="65.28945" lon="12.1552">
        <ele>54.706558</ele>
        <time>2020-08-13T07:27:08.827Z</time>
      </trkpt>
      <trkpt lat="65.28954" lon="12.15526">
        <ele>54.749872</ele>
        <time>2020-08-13T07:27:10.815Z</time>
      </trkpt>
      <trkpt lat="65.28963" lon="12.15532">
        <ele>54.7933</ele>
        <time>2020-08-13T07:27:12.825Z</time>
      </trkpt>
      <trkpt lat="65.28972" lon="12.15539">
        <ele>54.837234</ele>
        <time>2020-08-13T07:27:14.843Z</time>
      </trkpt>
      <trkpt lat="65.28981" lon="12.15545">
        <ele>54.882125</ele>
        <time>2020-08-13T07:27:16.810Z</time>
      </trkpt>
      <trkpt lat="65.2899" lon="12.15552">
        <ele>54.926065</ele>
        <time>2020-08-13T07:27:18.843Z</time>
      </trkpt>
      <trkpt lat="65.28998" lon="12.15559">
        <ele>54.968924</ele>
        <time>2020-08-13T07:27:20.825Z</time>
      </trkpt>
      <trkpt lat="65.29011" lon="12.15569">
        <ele>55.030136</ele>
        <time>2020-08-13T07:27:23.825Z</time>
      </trkpt>
      <trkpt lat="65.29023" lon="12.15578">
        <ele>55.092242</ele>
        <time>2020-08-13T07:27:26.824Z</time>
      </trkpt>
      <trkpt lat="65.29036" lon="12.15588">
        <ele>55.154738</ele>
        <time>2020-08-13T07:27:29.809Z</time>
      </trkpt>
      <trkpt lat="65.29045" lon="12.15594">
        <ele>55.197317</ele>
        <time>2020-08-13T07:27:31.855Z</time>
      </trkpt>
      <trkpt lat="65.29057" lon="12.15602">
        <ele>55.257899</ele>
        <time>2020-08-13T07:27:34.825Z</time>
      </trkpt>
      <trkpt lat="65.29069" lon="12.15611">
        <ele>55.316575</ele>
        <time>2020-08-13T07:27:37.816Z</time>
      </trkpt>
      <trkpt lat="65.29081" lon="12.1562">
        <ele>55.375409</ele>
        <time>2020-08-13T07:27:40.832Z</time>
      </trkpt>
      <trkpt lat="65.29092" lon="12.15629">
        <ele>55.451088</ele>
        <time>2020-08-13T07:27:43.831Z</time>
      </trkpt>
      <trkpt lat="65.29103" lon="12.15637">
        <ele>55.56728</ele>
        <time>2020-08-13T07:27:46.887Z</time>
      </trkpt>
      <trkpt lat="65.29114" lon="12.15646">
        <ele>55.683848</ele>
        <time>2020-08-13T07:27:49.851Z</time>
      </trkpt>
      <trkpt lat="65.29125" lon="12.15655">
        <ele>55.800544</ele>
        <time>2020-08-13T07:27:52.819Z</time>
      </trkpt>
      <trkpt lat="65.29136" lon="12.15662">
        <ele>55.914389</ele>
        <time>2020-08-13T07:27:55.817Z</time>
      </trkpt>
      <trkpt lat="65.29147" lon="12.1567">
        <ele>56.028423</ele>
        <time>2020-08-13T07:27:58.824Z</time>
      </trkpt>
      <trkpt lat="65.29158" lon="12.15677">
        <ele>56.144251</ele>
        <time>2020-08-13T07:28:01.812Z</time>
      </trkpt>
      <trkpt lat="65.2917" lon="12.15686">
        <ele>56.262725</ele>
        <time>2020-08-13T07:28:04.830Z</time>
      </trkpt>
      <trkpt lat="65.29181" lon="12.15694">
        <ele>56.381549</ele>
        <time>2020-08-13T07:28:07.809Z</time>
      </trkpt>
      <trkpt lat="65.29192" lon="12.15702">
        <ele>56.498102</ele>
        <time>2020-08-13T07:28:10.852Z</time>
      </trkpt>
      <trkpt lat="65.29203" lon="12.1571">
        <ele>56.612014</ele>
        <time>2020-08-13T07:28:13.802Z</time>
      </trkpt>
      <trkpt lat="65.29214" lon="12.15718">
        <ele>56.727073</ele>
        <time>2020-08-13T07:28:16.822Z</time>
      </trkpt>
      <trkpt lat="65.29225" lon="12.15726">
        <ele>56.841943</ele>
        <time>2020-08-13T07:28:19.825Z</time>
      </trkpt>
      <trkpt lat="65.29236" lon="12.15735">
        <ele>56.95795</ele>
        <time>2020-08-13T07:28:22.819Z</time>
      </trkpt>
      <trkpt lat="65.29247" lon="12.15743">
        <ele>57.070073</ele>
        <time>2020-08-13T07:28:25.834Z</time>
      </trkpt>
      <trkpt lat="65.29257" lon="12.1575">
        <ele>57.179319</ele>
        <time>2020-08-13T07:28:28.828Z</time>
      </trkpt>
      <trkpt lat="65.29268" lon="12.15758">
        <ele>57.358003</ele>
        <time>2020-08-13T07:28:31.810Z</time>
      </trkpt>
      <trkpt lat="65.29278" lon="12.15767">
        <ele>57.55017</ele>
        <time>2020-08-13T07:28:34.829Z</time>
      </trkpt>
      <trkpt lat="65.29289" lon="12.15774">
        <ele>57.742964</ele>
        <time>2020-08-13T07:28:37.832Z</time>
      </trkpt>
      <trkpt lat="65.293" lon="12.15783">
        <ele>57.945771</ele>
        <time>2020-08-13T07:28:40.824Z</time>
      </trkpt>
      <trkpt lat="65.2931" lon="12.15791">
        <ele>58.143494</ele>
        <time>2020-08-13T07:28:43.805Z</time>
      </trkpt>
      <trkpt lat="65.29321" lon="12.15798">
        <ele>58.345231</ele>
        <time>2020-08-13T07:28:46.832Z</time>
      </trkpt>
      <trkpt lat="65.29332" lon="12.15806">
        <ele>58.547176</ele>
        <time>2020-08-13T07:28:49.859Z</time>
      </trkpt>
      <trkpt lat="65.29343" lon="12.15812">
        <ele>58.750231</ele>
        <time>2020-08-13T07:28:52.805Z</time>
      </trkpt>
      <trkpt lat="65.29354" lon="12.1582">
        <ele>58.948771</ele>
        <time>2020-08-13T07:28:55.828Z</time>
      </trkpt>
      <trkpt lat="65.29364" lon="12.15827">
        <ele>59.14306</ele>
        <time>2020-08-13T07:28:58.804Z</time>
      </trkpt>
      <trkpt lat="65.29375" lon="12.15835">
        <ele>59.336722</ele>
        <time>2020-08-13T07:29:01.826Z</time>
      </trkpt>
      <trkpt lat="65.29385" lon="12.15843">
        <ele>59.529373</ele>
        <time>2020-08-13T07:29:04.805Z</time>
      </trkpt>
      <trkpt lat="65.29395" lon="12.15851">
        <ele>59.721566</ele>
        <time>2020-08-13T07:29:07.840Z</time>
      </trkpt>
      <trkpt lat="65.29405" lon="12.15858">
        <ele>59.907124</ele>
        <time>2020-08-13T07:29:10.835Z</time>
      </trkpt>
      <trkpt lat="65.29415" lon="12.15865">
        <ele>60.083534</ele>
        <time>2020-08-13T07:29:13.828Z</time>
      </trkpt>
      <trkpt lat="65.29423" lon="12.15872">
        <ele>60.243132</ele>
        <time>2020-08-13T07:29:16.831Z</time>
      </trkpt>
      <trkpt lat="65.29434" lon="12.15879">
        <ele>60.473241</ele>
        <time>2020-08-13T07:29:20.821Z</time>
      </trkpt>
      <trkpt lat="65.29443" lon="12.15885">
        <ele>60.851946</ele>
        <time>2020-08-13T07:29:24.855Z</time>
      </trkpt>
      <trkpt lat="65.29452" lon="12.15891">
        <ele>61.244494</ele>
        <time>2020-08-13T07:29:28.839Z</time>
      </trkpt>
      <trkpt lat="65.29461" lon="12.15899">
        <ele>61.654658</ele>
        <time>2020-08-13T07:29:32.815Z</time>
      </trkpt>
      <trkpt lat="65.29471" lon="12.15908">
        <ele>62.100801</ele>
        <time>2020-08-13T07:29:36.808Z</time>
      </trkpt>
      <trkpt lat="65.29482" lon="12.15918">
        <ele>62.575823</ele>
        <time>2020-08-13T07:29:40.818Z</time>
      </trkpt>
      <trkpt lat="65.29491" lon="12.15925">
        <ele>62.955855</ele>
        <time>2020-08-13T07:29:43.823Z</time>
      </trkpt>
      <trkpt lat="65.29502" lon="12.15933">
        <ele>63.446295</ele>
        <time>2020-08-13T07:29:47.801Z</time>
      </trkpt>
      <trkpt lat="65.29511" lon="12.15939">
        <ele>63.839053</ele>
        <time>2020-08-13T07:29:50.845Z</time>
      </trkpt>
      <trkpt lat="65.2952" lon="12.15945">
        <ele>64.229653</ele>
        <time>2020-08-13T07:29:53.820Z</time>
      </trkpt>
      <trkpt lat="65.2953" lon="12.15951">
        <ele>64.619785</ele>
        <time>2020-08-13T07:29:56.839Z</time>
      </trkpt>
      <trkpt lat="65.29539" lon="12.15958">
        <ele>65.028162</ele>
        <time>2020-08-13T07:29:59.822Z</time>
      </trkpt>
      <trkpt lat="65.29548" lon="12.15964">
        <ele>65.412814</ele>
        <time>2020-08-13T07:30:02.825Z</time>
      </trkpt>
      <trkpt lat="65.29558" lon="12.15972">
        <ele>65.858808</ele>
        <time>2020-08-13T07:30:06.831Z</time>
      </trkpt>
      <trkpt lat="65.29567" lon="12.15979">
        <ele>66.248953</ele>
        <time>2020-08-13T07:30:09.810Z</time>
      </trkpt>
      <trkpt lat="65.29577" lon="12.15986">
        <ele>66.683042</ele>
        <time>2020-08-13T07:30:12.812Z</time>
      </trkpt>
      <trkpt lat="65.29589" lon="12.15994">
        <ele>67.182375</ele>
        <time>2020-08-13T07:30:15.826Z</time>
      </trkpt>
      <trkpt lat="65.29601" lon="12.16003">
        <ele>67.694078</ele>
        <time>2020-08-13T07:30:18.817Z</time>
      </trkpt>
      <trkpt lat="65.29613" lon="12.16011">
        <ele>67.570202</ele>
        <time>2020-08-13T07:30:21.804Z</time>
      </trkpt>
      <trkpt lat="65.29624" lon="12.16019">
        <ele>67.237696</ele>
        <time>2020-08-13T07:30:24.824Z</time>
      </trkpt>
      <trkpt lat="65.29635" lon="12.16028">
        <ele>66.893746</ele>
        <time>2020-08-13T07:30:27.814Z</time>
      </trkpt>
      <trkpt lat="65.29646" lon="12.16036">
        <ele>66.560905</ele>
        <time>2020-08-13T07:30:30.840Z</time>
      </trkpt>
      <trkpt lat="65.29656" lon="12.16044">
        <ele>66.235734</ele>
        <time>2020-08-13T07:30:33.807Z</time>
      </trkpt>
      <trkpt lat="65.29667" lon="12.16051">
        <ele>65.930719</ele>
        <time>2020-08-13T07:30:36.825Z</time>
      </trkpt>
      <trkpt lat="65.29676" lon="12.16058">
        <ele>65.633749</ele>
        <time>2020-08-13T07:30:39.861Z</time>
      </trkpt>
      <trkpt lat="65.29687" lon="12.16064">
        <ele>65.324992</ele>
        <time>2020-08-13T07:30:42.847Z</time>
      </trkpt>
      <trkpt lat="65.29698" lon="12.16071">
        <ele>64.987216</ele>
        <time>2020-08-13T07:30:45.810Z</time>
      </trkpt>
      <trkpt lat="65.29707" lon="12.16077">
        <ele>64.720876</ele>
        <time>2020-08-13T07:30:47.834Z</time>
      </trkpt>
      <trkpt lat="65.29717" lon="12.16083">
        <ele>64.424863</ele>
        <time>2020-08-13T07:30:49.811Z</time>
      </trkpt>
      <trkpt lat="65.29727" lon="12.16089">
        <ele>64.118924</ele>
        <time>2020-08-13T07:30:51.811Z</time>
      </trkpt>
      <trkpt lat="65.29737" lon="12.16096">
        <ele>63.816707</ele>
        <time>2020-08-13T07:30:53.826Z</time>
      </trkpt>
      <trkpt lat="65.29747" lon="12.16102">
        <ele>63.507042</ele>
        <time>2020-08-13T07:30:55.845Z</time>
      </trkpt>
      <trkpt lat="65.29757" lon="12.1611">
        <ele>63.200675</ele>
        <time>2020-08-13T07:30:57.821Z</time>
      </trkpt>
      <trkpt lat="65.29768" lon="12.16117">
        <ele>62.883148</ele>
        <time>2020-08-13T07:30:59.811Z</time>
      </trkpt>
      <trkpt lat="65.29778" lon="12.16124">
        <ele>62.557868</ele>
        <time>2020-08-13T07:31:01.809Z</time>
      </trkpt>
      <trkpt lat="65.2979" lon="12.16131">
        <ele>62.222124</ele>
        <time>2020-08-13T07:31:03.820Z</time>
      </trkpt>
      <trkpt lat="65.29801" lon="12.16139">
        <ele>61.876732</ele>
        <time>2020-08-13T07:31:05.840Z</time>
      </trkpt>
      <trkpt lat="65.29813" lon="12.16147">
        <ele>61.511184</ele>
        <time>2020-08-13T07:31:07.834Z</time>
      </trkpt>
      <trkpt lat="65.29826" lon="12.16155">
        <ele>61.128029</ele>
        <time>2020-08-13T07:31:09.806Z</time>
      </trkpt>
      <trkpt lat="65.2984" lon="12.16163">
        <ele>60.728144</ele>
        <time>2020-08-13T07:31:11.816Z</time>
      </trkpt>
      <trkpt lat="65.29853" lon="12.16172">
        <ele>60.317078</ele>
        <time>2020-08-13T07:31:13.810Z</time>
      </trkpt>
      <trkpt lat="65.29868" lon="12.1618">
        <ele>59.881064</ele>
        <time>2020-08-13T07:31:15.840Z</time>
      </trkpt>
      <trkpt lat="65.29883" lon="12.16189">
        <ele>59.443626</ele>
        <time>2020-08-13T07:31:17.863Z</time>
      </trkpt>
      <trkpt lat="65.29897" lon="12.16198">
        <ele>59.009281</ele>
        <time>2020-08-13T07:31:19.837Z</time>
      </trkpt>
      <trkpt lat="65.29912" lon="12.16207">
        <ele>58.579329</ele>
        <time>2020-08-13T07:31:21.807Z</time>
      </trkpt>
      <trkpt lat="65.29926" lon="12.16215">
        <ele>58.168852</ele>
        <time>2020-08-13T07:31:23.813Z</time>
      </trkpt>
      <trkpt lat="65.29938" lon="12.16222">
        <ele>57.799334</ele>
        <time>2020-08-13T07:31:25.867Z</time>
      </trkpt>
      <trkpt lat="65.2995" lon="12.16229">
        <ele>57.455406</ele>
        <time>2020-08-13T07:31:27.805Z</time>
      </trkpt>
      <trkpt lat="65.2996" lon="12.16235">
        <ele>57.584498</ele>
        <time>2020-08-13T07:31:29.857Z</time>
      </trkpt>
      <trkpt lat="65.2997" lon="12.16242">
        <ele>57.772346</ele>
        <time>2020-08-13T07:31:31.819Z</time>
      </trkpt>
      <trkpt lat="65.29979" lon="12.16247">
        <ele>57.939405</ele>
        <time>2020-08-13T07:31:33.825Z</time>
      </trkpt>
      <trkpt lat="65.29991" lon="12.16254">
        <ele>58.172707</ele>
        <time>2020-08-13T07:31:36.833Z</time>
      </trkpt>
      <trkpt lat="65.30001" lon="12.1626">
        <ele>58.357346</ele>
        <time>2020-08-13T07:31:39.814Z</time>
      </trkpt>
      <trkpt lat="65.30011" lon="12.16266">
        <ele>58.540009</ele>
        <time>2020-08-13T07:31:42.811Z</time>
      </trkpt>
      <trkpt lat="65.3002" lon="12.16273">
        <ele>58.71705</ele>
        <time>2020-08-13T07:31:45.827Z</time>
      </trkpt>
      <trkpt lat="65.30029" lon="12.16279">
        <ele>58.886664</ele>
        <time>2020-08-13T07:31:48.816Z</time>
      </trkpt>
      <trkpt lat="65.30038" lon="12.16284">
        <ele>59.059644</ele>
        <time>2020-08-13T07:31:51.828Z</time>
      </trkpt>
      <trkpt lat="65.30048" lon="12.16291">
        <ele>59.246863</ele>
        <time>2020-08-13T07:31:54.807Z</time>
      </trkpt>
      <trkpt lat="65.30057" lon="12.16297">
        <ele>59.426783</ele>
        <time>2020-08-13T07:31:57.843Z</time>
      </trkpt>
      <trkpt lat="65.30066" lon="12.16304">
        <ele>59.603165</ele>
        <time>2020-08-13T07:32:00.825Z</time>
      </trkpt>
      <trkpt lat="65.30075" lon="12.1631">
        <ele>59.769199</ele>
        <time>2020-08-13T07:32:03.817Z</time>
      </trkpt>
      <trkpt lat="65.30084" lon="12.16316">
        <ele>59.944348</ele>
        <time>2020-08-13T07:32:06.820Z</time>
      </trkpt>
      <trkpt lat="65.30093" lon="12.16322">
        <ele>60.118924</ele>
        <time>2020-08-13T07:32:09.837Z</time>
      </trkpt>
      <trkpt lat="65.30102" lon="12.16327">
        <ele>60.295473</ele>
        <time>2020-08-13T07:32:12.846Z</time>
      </trkpt>
      <trkpt lat="65.30113" lon="12.16333">
        <ele>60.487794</ele>
        <time>2020-08-13T07:32:15.810Z</time>
      </trkpt>
      <trkpt lat="65.30124" lon="12.16339">
        <ele>60.703903</ele>
        <time>2020-08-13T07:32:18.821Z</time>
      </trkpt>
      <trkpt lat="65.30137" lon="12.16347">
        <ele>60.730754</ele>
        <time>2020-08-13T07:32:21.820Z</time>
      </trkpt>
      <trkpt lat="65.30146" lon="12.16353">
        <ele>60.737566</ele>
        <time>2020-08-13T07:32:23.825Z</time>
      </trkpt>
      <trkpt lat="65.30155" lon="12.16359">
        <ele>60.744903</ele>
        <time>2020-08-13T07:32:25.813Z</time>
      </trkpt>
      <trkpt lat="65.30165" lon="12.16366">
        <ele>60.752303</ele>
        <time>2020-08-13T07:32:27.810Z</time>
      </trkpt>
      <trkpt lat="65.30175" lon="12.16372">
        <ele>60.75982</ele>
        <time>2020-08-13T07:32:29.816Z</time>
      </trkpt>
      <trkpt lat="65.30185" lon="12.16378">
        <ele>60.767212</ele>
        <time>2020-08-13T07:32:31.830Z</time>
      </trkpt>
      <trkpt lat="65.30195" lon="12.16384">
        <ele>60.774893</ele>
        <time>2020-08-13T07:32:33.835Z</time>
      </trkpt>
      <trkpt lat="65.30205" lon="12.1639">
        <ele>60.782467</ele>
        <time>2020-08-13T07:32:35.841Z</time>
      </trkpt>
      <trkpt lat="65.30215" lon="12.16395">
        <ele>60.789987</ele>
        <time>2020-08-13T07:32:37.871Z</time>
      </trkpt>
      <trkpt lat="65.30225" lon="12.164">
        <ele>60.7973</ele>
        <time>2020-08-13T07:32:39.813Z</time>
      </trkpt>
      <trkpt lat="65.30234" lon="12.16405">
        <ele>60.803981</ele>
        <time>2020-08-13T07:32:41.812Z</time>
      </trkpt>
      <trkpt lat="65.30243" lon="12.16411">
        <ele>60.810777</ele>
        <time>2020-08-13T07:32:43.825Z</time>
      </trkpt>
      <trkpt lat="65.30252" lon="12.16417">
        <ele>60.817417</ele>
        <time>2020-08-13T07:32:45.835Z</time>
      </trkpt>
      <trkpt lat="65.30265" lon="12.16425">
        <ele>60.827087</ele>
        <time>2020-08-13T07:32:48.849Z</time>
      </trkpt>
      <trkpt lat="65.30277" lon="12.16434">
        <ele>60.836658</ele>
        <time>2020-08-13T07:32:51.825Z</time>
      </trkpt>
      <trkpt lat="65.3029" lon="12.16442">
        <ele>60.846242</ele>
        <time>2020-08-13T07:32:54.848Z</time>
      </trkpt>
      <trkpt lat="65.30302" lon="12.1645">
        <ele>60.890158</ele>
        <time>2020-08-13T07:32:57.838Z</time>
      </trkpt>
      <trkpt lat="65.30314" lon="12.16458">
        <ele>61.026369</ele>
        <time>2020-08-13T07:33:00.832Z</time>
      </trkpt>
      <trkpt lat="65.30326" lon="12.16466">
        <ele>61.164565</ele>
        <time>2020-08-13T07:33:03.821Z</time>
      </trkpt>
      <trkpt lat="65.30338" lon="12.16473">
        <ele>61.301471</ele>
        <time>2020-08-13T07:33:06.852Z</time>
      </trkpt>
      <trkpt lat="65.3035" lon="12.16481">
        <ele>61.437998</ele>
        <time>2020-08-13T07:33:09.830Z</time>
      </trkpt>
      <trkpt lat="65.30362" lon="12.1649">
        <ele>61.574095</ele>
        <time>2020-08-13T07:33:12.825Z</time>
      </trkpt>
      <trkpt lat="65.30374" lon="12.16498">
        <ele>61.70744</ele>
        <time>2020-08-13T07:33:15.824Z</time>
      </trkpt>
      <trkpt lat="65.30386" lon="12.16506">
        <ele>61.839849</ele>
        <time>2020-08-13T07:33:18.834Z</time>
      </trkpt>
      <trkpt lat="65.30397" lon="12.16513">
        <ele>61.966109</ele>
        <time>2020-08-13T07:33:21.822Z</time>
      </trkpt>
      <trkpt lat="65.30407" lon="12.1652">
        <ele>62.088947</ele>
        <time>2020-08-13T07:33:24.842Z</time>
      </trkpt>
      <trkpt lat="65.30419" lon="12.16528">
        <ele>62.218443</ele>
        <time>2020-08-13T07:33:27.837Z</time>
      </trkpt>
      <trkpt lat="65.3043" lon="12.16535">
        <ele>62.347809</ele>
        <time>2020-08-13T07:33:30.803Z</time>
      </trkpt>
      <trkpt lat="65.30441" lon="12.16543">
        <ele>62.46902</ele>
        <time>2020-08-13T07:33:33.824Z</time>
      </trkpt>
      <trkpt lat="65.30451" lon="12.16551">
        <ele>62.593256</ele>
        <time>2020-08-13T07:33:36.807Z</time>
      </trkpt>
      <trkpt lat="65.30463" lon="12.16558">
        <ele>62.722364</ele>
        <time>2020-08-13T07:33:39.822Z</time>
      </trkpt>
      <trkpt lat="65.30474" lon="12.16564">
        <ele>62.787539</ele>
        <time>2020-08-13T07:33:42.813Z</time>
      </trkpt>
      <trkpt lat="65.30485" lon="12.16571">
        <ele>62.486102</ele>
        <time>2020-08-13T07:33:45.858Z</time>
      </trkpt>
      <trkpt lat="65.30497" lon="12.16578">
        <ele>62.172587</ele>
        <time>2020-08-13T07:33:48.818Z</time>
      </trkpt>
      <trkpt lat="65.3051" lon="12.16585">
        <ele>61.842182</ele>
        <time>2020-08-13T07:33:51.806Z</time>
      </trkpt>
      <trkpt lat="65.30522" lon="12.16592">
        <ele>61.520271</ele>
        <time>2020-08-13T07:33:54.811Z</time>
      </trkpt>
      <trkpt lat="65.30534" lon="12.166">
        <ele>61.205627</ele>
        <time>2020-08-13T07:33:57.858Z</time>
      </trkpt>
      <trkpt lat="65.30546" lon="12.16609">
        <ele>60.869173</ele>
        <time>2020-08-13T07:34:00.806Z</time>
      </trkpt>
      <trkpt lat="65.30559" lon="12.16619">
        <ele>60.520642</ele>
        <time>2020-08-13T07:34:03.843Z</time>
      </trkpt>
      <trkpt lat="65.30568" lon="12.16624">
        <ele>60.282638</ele>
        <time>2020-08-13T07:34:05.818Z</time>
      </trkpt>
      <trkpt lat="65.30577" lon="12.16629">
        <ele>60.040613</ele>
        <time>2020-08-13T07:34:07.827Z</time>
      </trkpt>
      <trkpt lat="65.30587" lon="12.16634">
        <ele>59.799266</ele>
        <time>2020-08-13T07:34:09.867Z</time>
      </trkpt>
      <trkpt lat="65.30596" lon="12.16638">
        <ele>59.562718</ele>
        <time>2020-08-13T07:34:11.818Z</time>
      </trkpt>
      <trkpt lat="65.30604" lon="12.16644">
        <ele>59.32641</ele>
        <time>2020-08-13T07:34:13.803Z</time>
      </trkpt>
      <trkpt lat="65.30617" lon="12.16652">
        <ele>58.988907</ele>
        <time>2020-08-13T07:34:16.817Z</time>
      </trkpt>
      <trkpt lat="65.30626" lon="12.16658">
        <ele>58.756111</ele>
        <time>2020-08-13T07:34:18.845Z</time>
      </trkpt>
      <trkpt lat="65.30635" lon="12.16664">
        <ele>58.525043</ele>
        <time>2020-08-13T07:34:20.824Z</time>
      </trkpt>
      <trkpt lat="65.30643" lon="12.16669">
        <ele>58.288181</ele>
        <time>2020-08-13T07:34:22.848Z</time>
      </trkpt>
      <trkpt lat="65.30652" lon="12.16675">
        <ele>58.200299</ele>
        <time>2020-08-13T07:34:24.816Z</time>
      </trkpt>
      <trkpt lat="65.30661" lon="12.1668">
        <ele>58.183883</ele>
        <time>2020-08-13T07:34:26.814Z</time>
      </trkpt>
      <trkpt lat="65.3067" lon="12.16686">
        <ele>58.166866</ele>
        <time>2020-08-13T07:34:28.817Z</time>
      </trkpt>
      <trkpt lat="65.3068" lon="12.16691">
        <ele>58.148705</ele>
        <time>2020-08-13T07:34:30.846Z</time>
      </trkpt>
      <trkpt lat="65.3069" lon="12.16697">
        <ele>58.130215</ele>
        <time>2020-08-13T07:34:32.821Z</time>
      </trkpt>
      <trkpt lat="65.30701" lon="12.16702">
        <ele>58.110278</ele>
        <time>2020-08-13T07:34:34.829Z</time>
      </trkpt>
      <trkpt lat="65.30713" lon="12.16707">
        <ele>58.089302</ele>
        <time>2020-08-13T07:34:36.812Z</time>
      </trkpt>
      <trkpt lat="65.30725" lon="12.1671">
        <ele>58.068283</ele>
        <time>2020-08-13T07:34:38.826Z</time>
      </trkpt>
      <trkpt lat="65.30736" lon="12.16714">
        <ele>58.047468</ele>
        <time>2020-08-13T07:34:40.824Z</time>
      </trkpt>
      <trkpt lat="65.30748" lon="12.16718">
        <ele>58.0262</ele>
        <time>2020-08-13T07:34:42.814Z</time>
      </trkpt>
      <trkpt lat="65.3076" lon="12.16721">
        <ele>58.005418</ele>
        <time>2020-08-13T07:34:44.830Z</time>
      </trkpt>
      <trkpt lat="65.30771" lon="12.16724">
        <ele>57.985488</ele>
        <time>2020-08-13T07:34:46.864Z</time>
      </trkpt>
      <trkpt lat="65.30782" lon="12.16725">
        <ele>57.964981</ele>
        <time>2020-08-13T07:34:48.849Z</time>
      </trkpt>
      <trkpt lat="65.30793" lon="12.16725">
        <ele>57.945024</ele>
        <time>2020-08-13T07:34:50.828Z</time>
      </trkpt>
      <trkpt lat="65.30805" lon="12.16725">
        <ele>57.925245</ele>
        <time>2020-08-13T07:34:52.824Z</time>
      </trkpt>
      <trkpt lat="65.30816" lon="12.16723">
        <ele>57.905594</ele>
        <time>2020-08-13T07:34:54.834Z</time>
      </trkpt>
      <trkpt lat="65.30826" lon="12.16722">
        <ele>57.898506</ele>
        <time>2020-08-13T07:34:56.851Z</time>
      </trkpt>
      <trkpt lat="65.30837" lon="12.16722">
        <ele>57.936644</ele>
        <time>2020-08-13T07:34:58.845Z</time>
      </trkpt>
      <trkpt lat="65.30848" lon="12.16722">
        <ele>57.976239</ele>
        <time>2020-08-13T07:35:00.842Z</time>
      </trkpt>
      <trkpt lat="65.30858" lon="12.16723">
        <ele>58.015524</ele>
        <time>2020-08-13T07:35:02.831Z</time>
      </trkpt>
      <trkpt lat="65.30869" lon="12.16725">
        <ele>58.052254</ele>
        <time>2020-08-13T07:35:04.834Z</time>
      </trkpt>
      <trkpt lat="65.30878" lon="12.16726">
        <ele>58.08757</ele>
        <time>2020-08-13T07:35:06.827Z</time>
      </trkpt>
      <trkpt lat="65.30888" lon="12.16728">
        <ele>58.124406</ele>
        <time>2020-08-13T07:35:08.830Z</time>
      </trkpt>
      <trkpt lat="65.30898" lon="12.16731">
        <ele>58.161354</ele>
        <time>2020-08-13T07:35:10.827Z</time>
      </trkpt>
      <trkpt lat="65.30908" lon="12.16734">
        <ele>58.195724</ele>
        <time>2020-08-13T07:35:12.802Z</time>
      </trkpt>
      <trkpt lat="65.30918" lon="12.16735">
        <ele>58.230972</ele>
        <time>2020-08-13T07:35:14.822Z</time>
      </trkpt>
      <trkpt lat="65.30927" lon="12.16736">
        <ele>58.264114</ele>
        <time>2020-08-13T07:35:16.811Z</time>
      </trkpt>
      <trkpt lat="65.30936" lon="12.16738">
        <ele>58.298322</ele>
        <time>2020-08-13T07:35:18.820Z</time>
      </trkpt>
      <trkpt lat="65.30946" lon="12.16738">
        <ele>58.333559</ele>
        <time>2020-08-13T07:35:20.823Z</time>
      </trkpt>
      <trkpt lat="65.30956" lon="12.16738">
        <ele>58.370608</ele>
        <time>2020-08-13T07:35:22.827Z</time>
      </trkpt>
      <trkpt lat="65.30967" lon="12.16739">
        <ele>58.409846</ele>
        <time>2020-08-13T07:35:24.833Z</time>
      </trkpt>
      <trkpt lat="65.30978" lon="12.1674">
        <ele>58.449883</ele>
        <time>2020-08-13T07:35:26.863Z</time>
      </trkpt>
      <trkpt lat="65.30989" lon="12.16742">
        <ele>58.489871</ele>
        <time>2020-08-13T07:35:28.823Z</time>
      </trkpt>
      <trkpt lat="65.31" lon="12.16741">
        <ele>58.530556</ele>
        <time>2020-08-13T07:35:30.811Z</time>
      </trkpt>
      <trkpt lat="65.31011" lon="12.16741">
        <ele>58.700226</ele>
        <time>2020-08-13T07:35:32.830Z</time>
      </trkpt>
      <trkpt lat="65.31022" lon="12.16744">
        <ele>58.932796</ele>
        <time>2020-08-13T07:35:34.822Z</time>
      </trkpt>
      <trkpt lat="65.31032" lon="12.1675">
        <ele>59.16185</ele>
        <time>2020-08-13T07:35:36.810Z</time>
      </trkpt>
      <trkpt lat="65.31042" lon="12.1675">
        <ele>59.385716</ele>
        <time>2020-08-13T07:35:38.811Z</time>
      </trkpt>
      <trkpt lat="65.31052" lon="12.16747">
        <ele>59.603927</ele>
        <time>2020-08-13T07:35:40.829Z</time>
      </trkpt>
      <trkpt lat="65.31062" lon="12.16747">
        <ele>59.814893</ele>
        <time>2020-08-13T07:35:42.832Z</time>
      </trkpt>
      <trkpt lat="65.31072" lon="12.16747">
        <ele>60.019373</ele>
        <time>2020-08-13T07:35:44.807Z</time>
      </trkpt>
      <trkpt lat="65.31082" lon="12.16746">
        <ele>60.239008</ele>
        <time>2020-08-13T07:35:46.836Z</time>
      </trkpt>
      <trkpt lat="65.31092" lon="12.16747">
        <ele>60.449961</ele>
        <time>2020-08-13T07:35:48.821Z</time>
      </trkpt>
      <trkpt lat="65.31101" lon="12.16747">
        <ele>60.648015</ele>
        <time>2020-08-13T07:35:50.831Z</time>
      </trkpt>
      <trkpt lat="65.31114" lon="12.16748">
        <ele>60.938678</ele>
        <time>2020-08-13T07:35:53.858Z</time>
      </trkpt>
      <trkpt lat="65.31128" lon="12.16748">
        <ele>61.227122</ele>
        <time>2020-08-13T07:35:56.826Z</time>
      </trkpt>
      <trkpt lat="65.3114" lon="12.16749">
        <ele>61.49842</ele>
        <time>2020-08-13T07:35:59.819Z</time>
      </trkpt>
      <trkpt lat="65.31153" lon="12.16747">
        <ele>61.77249</ele>
        <time>2020-08-13T07:36:02.812Z</time>
      </trkpt>
      <trkpt lat="65.31165" lon="12.16743">
        <ele>62.024495</ele>
        <time>2020-08-13T07:36:05.806Z</time>
      </trkpt>
      <trkpt lat="65.31177" lon="12.16745">
        <ele>62.294206</ele>
        <time>2020-08-13T07:36:08.856Z</time>
      </trkpt>
      <trkpt lat="65.3119" lon="12.16746">
        <ele>62.570545</ele>
        <time>2020-08-13T07:36:11.830Z</time>
      </trkpt>
      <trkpt lat="65.31202" lon="12.16747">
        <ele>62.81057</ele>
        <time>2020-08-13T07:36:14.821Z</time>
      </trkpt>
      <trkpt lat="65.31214" lon="12.16747">
        <ele>63.062602</ele>
        <time>2020-08-13T07:36:17.810Z</time>
      </trkpt>
      <trkpt lat="65.31227" lon="12.16749">
        <ele>63.319084</ele>
        <time>2020-08-13T07:36:20.818Z</time>
      </trkpt>
      <trkpt lat="65.3124" lon="12.16749">
        <ele>63.577255</ele>
        <time>2020-08-13T07:36:23.824Z</time>
      </trkpt>
      <trkpt lat="65.31252" lon="12.16748">
        <ele>63.837672</ele>
        <time>2020-08-13T07:36:26.825Z</time>
      </trkpt>
      <trkpt lat="65.31265" lon="12.16739">
        <ele>64.101252</ele>
        <time>2020-08-13T07:36:29.811Z</time>
      </trkpt>
      <trkpt lat="65.31277" lon="12.16738">
        <ele>64.359657</ele>
        <time>2020-08-13T07:36:32.815Z</time>
      </trkpt>
      <trkpt lat="65.3129" lon="12.1674">
        <ele>64.624469</ele>
        <time>2020-08-13T07:36:35.825Z</time>
      </trkpt>
      <trkpt lat="65.31299" lon="12.16742">
        <ele>64.809666</ele>
        <time>2020-08-13T07:36:37.810Z</time>
      </trkpt>
      <trkpt lat="65.31312" lon="12.16747">
        <ele>65.079307</ele>
        <time>2020-08-13T07:36:40.808Z</time>
      </trkpt>
      <trkpt lat="65.31325" lon="12.16751">
        <ele>65.340082</ele>
        <time>2020-08-13T07:36:43.854Z</time>
      </trkpt>
      <trkpt lat="65.31336" lon="12.16755">
        <ele>65.574128</ele>
        <time>2020-08-13T07:36:46.848Z</time>
      </trkpt>
      <trkpt lat="65.31348" lon="12.1676">
        <ele>65.814904</ele>
        <time>2020-08-13T07:36:49.812Z</time>
      </trkpt>
      <trkpt lat="65.31359" lon="12.16767">
        <ele>66.057598</ele>
        <time>2020-08-13T07:36:52.826Z</time>
      </trkpt>
      <trkpt lat="65.31371" lon="12.16772">
        <ele>65.824162</ele>
        <time>2020-08-13T07:36:55.820Z</time>
      </trkpt>
      <trkpt lat="65.31383" lon="12.16776">
        <ele>65.48796</ele>
        <time>2020-08-13T07:36:58.806Z</time>
      </trkpt>
      <trkpt lat="65.31395" lon="12.16781">
        <ele>65.146843</ele>
        <time>2020-08-13T07:37:01.830Z</time>
      </trkpt>
      <trkpt lat="65.31408" lon="12.16786">
        <ele>64.793302</ele>
        <time>2020-08-13T07:37:04.822Z</time>
      </trkpt>
      <trkpt lat="65.3142" lon="12.16792">
        <ele>64.447016</ele>
        <time>2020-08-13T07:37:07.819Z</time>
      </trkpt>
      <trkpt lat="65.31433" lon="12.16799">
        <ele>64.100485</ele>
        <time>2020-08-13T07:37:10.837Z</time>
      </trkpt>
      <trkpt lat="65.31441" lon="12.16803">
        <ele>63.853623</ele>
        <time>2020-08-13T07:37:12.843Z</time>
      </trkpt>
      <trkpt lat="65.31451" lon="12.16807">
        <ele>63.582836</ele>
        <time>2020-08-13T07:37:14.831Z</time>
      </trkpt>
      <trkpt lat="65.31461" lon="12.16812">
        <ele>63.315959</ele>
        <time>2020-08-13T07:37:16.819Z</time>
      </trkpt>
      <trkpt lat="65.3147" lon="12.16816">
        <ele>63.049758</ele>
        <time>2020-08-13T07:37:18.828Z</time>
      </trkpt>
      <trkpt lat="65.31479" lon="12.16821">
        <ele>62.78702</ele>
        <time>2020-08-13T07:37:20.834Z</time>
      </trkpt>
      <trkpt lat="65.31489" lon="12.16825">
        <ele>62.529358</ele>
        <time>2020-08-13T07:37:22.814Z</time>
      </trkpt>
      <trkpt lat="65.31498" lon="12.1683">
        <ele>62.276649</ele>
        <time>2020-08-13T07:37:24.847Z</time>
      </trkpt>
      <trkpt lat="65.31511" lon="12.16835">
        <ele>61.908239</ele>
        <time>2020-08-13T07:37:27.843Z</time>
      </trkpt>
      <trkpt lat="65.3152" lon="12.16839">
        <ele>61.659726</ele>
        <time>2020-08-13T07:37:29.817Z</time>
      </trkpt>
      <trkpt lat="65.31533" lon="12.16846">
        <ele>61.290212</ele>
        <time>2020-08-13T07:37:32.818Z</time>
      </trkpt>
      <trkpt lat="65.31542" lon="12.16851">
        <ele>61.085558</ele>
        <time>2020-08-13T07:37:34.858Z</time>
      </trkpt>
      <trkpt lat="65.31555" lon="12.16858">
        <ele>60.865262</ele>
        <time>2020-08-13T07:37:37.818Z</time>
      </trkpt>
      <trkpt lat="65.31567" lon="12.16866">
        <ele>60.65165</ele>
        <time>2020-08-13T07:37:40.833Z</time>
      </trkpt>
      <trkpt lat="65.3158" lon="12.16875">
        <ele>60.431923</ele>
        <time>2020-08-13T07:37:43.823Z</time>
      </trkpt>
      <trkpt lat="65.31592" lon="12.16882">
        <ele>60.217266</ele>
        <time>2020-08-13T07:37:46.845Z</time>
      </trkpt>
      <trkpt lat="65.31605" lon="12.16889">
        <ele>60.006493</ele>
        <time>2020-08-13T07:37:49.817Z</time>
      </trkpt>
      <trkpt lat="65.31616" lon="12.16896">
        <ele>59.804621</ele>
        <time>2020-08-13T07:37:52.822Z</time>
      </trkpt>
      <trkpt lat="65.31628" lon="12.16903">
        <ele>59.608856</ele>
        <time>2020-08-13T07:37:55.821Z</time>
      </trkpt>
      <trkpt lat="65.3164" lon="12.16911">
        <ele>59.402386</ele>
        <time>2020-08-13T07:37:58.863Z</time>
      </trkpt>
      <trkpt lat="65.31651" lon="12.1692">
        <ele>59.20897</ele>
        <time>2020-08-13T07:38:01.815Z</time>
      </trkpt>
      <trkpt lat="65.31662" lon="12.16927">
        <ele>59.009638</ele>
        <time>2020-08-13T07:38:04.833Z</time>
      </trkpt>
      <trkpt lat="65.31674" lon="12.16936">
        <ele>58.799872</ele>
        <time>2020-08-13T07:38:07.866Z</time>
      </trkpt>
      <trkpt lat="65.31687" lon="12.16945">
        <ele>58.586721</ele>
        <time>2020-08-13T07:38:10.834Z</time>
      </trkpt>
      <trkpt lat="65.31699" lon="12.16953">
        <ele>58.368785</ele>
        <time>2020-08-13T07:38:13.817Z</time>
      </trkpt>
      <trkpt lat="65.31712" lon="12.16961">
        <ele>58.160602</ele>
        <time>2020-08-13T07:38:16.845Z</time>
      </trkpt>
      <trkpt lat="65.31725" lon="12.1697">
        <ele>58.104692</ele>
        <time>2020-08-13T07:38:19.835Z</time>
      </trkpt>
      <trkpt lat="65.31738" lon="12.16979">
        <ele>58.04876</ele>
        <time>2020-08-13T07:38:22.865Z</time>
      </trkpt>
      <trkpt lat="65.3175" lon="12.16986">
        <ele>57.99409</ele>
        <time>2020-08-13T07:38:25.860Z</time>
      </trkpt>
      <trkpt lat="65.31763" lon="12.16994">
        <ele>57.938135</ele>
        <time>2020-08-13T07:38:28.876Z</time>
      </trkpt>
      <trkpt lat="65.31776" lon="12.17004">
        <ele>57.882747</ele>
        <time>2020-08-13T07:38:31.817Z</time>
      </trkpt>
      <trkpt lat="65.31788" lon="12.17012">
        <ele>57.827816</ele>
        <time>2020-08-13T07:38:34.824Z</time>
      </trkpt>
      <trkpt lat="65.31801" lon="12.1702">
        <ele>57.774829</ele>
        <time>2020-08-13T07:38:37.812Z</time>
      </trkpt>
      <trkpt lat="65.31813" lon="12.17028">
        <ele>57.721888</ele>
        <time>2020-08-13T07:38:40.828Z</time>
      </trkpt>
      <trkpt lat="65.31824" lon="12.17036">
        <ele>57.671867</ele>
        <time>2020-08-13T07:38:43.828Z</time>
      </trkpt>
      <trkpt lat="65.31836" lon="12.17044">
        <ele>57.622355</ele>
        <time>2020-08-13T07:38:46.841Z</time>
      </trkpt>
      <trkpt lat="65.31847" lon="12.17052">
        <ele>57.571168</ele>
        <time>2020-08-13T07:38:49.855Z</time>
      </trkpt>
      <trkpt lat="65.31859" lon="12.17058">
        <ele>57.522079</ele>
        <time>2020-08-13T07:38:52.823Z</time>
      </trkpt>
      <trkpt lat="65.31871" lon="12.17066">
        <ele>57.470938</ele>
        <time>2020-08-13T07:38:55.815Z</time>
      </trkpt>
      <trkpt lat="65.31883" lon="12.17075">
        <ele>57.417514</ele>
        <time>2020-08-13T07:38:58.817Z</time>
      </trkpt>
      <trkpt lat="65.31895" lon="12.17084">
        <ele>57.383923</ele>
        <time>2020-08-13T07:39:01.859Z</time>
      </trkpt>
      <trkpt lat="65.31908" lon="12.17093">
        <ele>57.352294</ele>
        <time>2020-08-13T07:39:04.822Z</time>
      </trkpt>
      <trkpt lat="65.31917" lon="12.17098">
        <ele>57.331247</ele>
        <time>2020-08-13T07:39:06.836Z</time>
      </trkpt>
      <trkpt lat="65.31926" lon="12.17103">
        <ele>57.309722</ele>
        <time>2020-08-13T07:39:08.822Z</time>
      </trkpt>
      <trkpt lat="65.31938" lon="12.17111">
        <ele>57.279704</ele>
        <time>2020-08-13T07:39:11.835Z</time>
      </trkpt>
      <trkpt lat="65.31951" lon="12.17119">
        <ele>57.248301</ele>
        <time>2020-08-13T07:39:14.809Z</time>
      </trkpt>
      <trkpt lat="65.31964" lon="12.17127">
        <ele>57.216821</ele>
        <time>2020-08-13T07:39:17.852Z</time>
      </trkpt>
      <trkpt lat="65.31977" lon="12.17136">
        <ele>57.185592</ele>
        <time>2020-08-13T07:39:20.824Z</time>
      </trkpt>
      <trkpt lat="65.31989" lon="12.17144">
        <ele>57.155625</ele>
        <time>2020-08-13T07:39:23.845Z</time>
      </trkpt>
      <trkpt lat="65.32001" lon="12.17152">
        <ele>57.126308</ele>
        <time>2020-08-13T07:39:26.808Z</time>
      </trkpt>
      <trkpt lat="65.32013" lon="12.1716">
        <ele>57.098107</ele>
        <time>2020-08-13T07:39:29.817Z</time>
      </trkpt>
      <trkpt lat="65.32024" lon="12.17166">
        <ele>57.069459</ele>
        <time>2020-08-13T07:39:32.812Z</time>
      </trkpt>
      <trkpt lat="65.32036" lon="12.17174">
        <ele>57.042215</ele>
        <time>2020-08-13T07:39:35.850Z</time>
      </trkpt>
      <trkpt lat="65.32047" lon="12.17181">
        <ele>57.015036</ele>
        <time>2020-08-13T07:39:38.818Z</time>
      </trkpt>
      <trkpt lat="65.32058" lon="12.17189">
        <ele>56.988335</ele>
        <time>2020-08-13T07:39:41.817Z</time>
      </trkpt>
      <trkpt lat="65.32069" lon="12.17196">
        <ele>57.130217</ele>
        <time>2020-08-13T07:39:44.812Z</time>
      </trkpt>
      <trkpt lat="65.3208" lon="12.17203">
        <ele>57.281498</ele>
        <time>2020-08-13T07:39:47.823Z</time>
      </trkpt>
      <trkpt lat="65.32091" lon="12.1721">
        <ele>57.427353</ele>
        <time>2020-08-13T07:39:50.837Z</time>
      </trkpt>
      <trkpt lat="65.32102" lon="12.17218">
        <ele>57.577286</ele>
        <time>2020-08-13T07:39:53.843Z</time>
      </trkpt>
      <trkpt lat="65.32114" lon="12.17226">
        <ele>57.733598</ele>
        <time>2020-08-13T07:39:56.814Z</time>
      </trkpt>
      <trkpt lat="65.32125" lon="12.17234">
        <ele>57.887567</ele>
        <time>2020-08-13T07:39:59.845Z</time>
      </trkpt>
      <trkpt lat="65.32137" lon="12.17241">
        <ele>58.042615</ele>
        <time>2020-08-13T07:40:02.821Z</time>
      </trkpt>
      <trkpt lat="65.32148" lon="12.17248">
        <ele>58.197024</ele>
        <time>2020-08-13T07:40:05.824Z</time>
      </trkpt>
      <trkpt lat="65.32159" lon="12.17255">
        <ele>58.348037</ele>
        <time>2020-08-13T07:40:08.818Z</time>
      </trkpt>
      <trkpt lat="65.32171" lon="12.17261">
        <ele>58.497151</ele>
        <time>2020-08-13T07:40:11.821Z</time>
      </trkpt>
      <trkpt lat="65.32182" lon="12.17268">
        <ele>58.644142</ele>
        <time>2020-08-13T07:40:14.863Z</time>
      </trkpt>
      <trkpt lat="65.32193" lon="12.17276">
        <ele>58.792679</ele>
        <time>2020-08-13T07:40:17.864Z</time>
      </trkpt>
      <trkpt lat="65.32204" lon="12.17283">
        <ele>58.942981</ele>
        <time>2020-08-13T07:40:20.817Z</time>
      </trkpt>
      <trkpt lat="65.32214" lon="12.17292">
        <ele>59.088389</ele>
        <time>2020-08-13T07:40:23.866Z</time>
      </trkpt>
      <trkpt lat="65.32226" lon="12.17301">
        <ele>59.246429</ele>
        <time>2020-08-13T07:40:26.830Z</time>
      </trkpt>
      <trkpt lat="65.32237" lon="12.1731">
        <ele>59.295668</ele>
        <time>2020-08-13T07:40:29.805Z</time>
      </trkpt>
      <trkpt lat="65.32248" lon="12.17321">
        <ele>59.251996</ele>
        <time>2020-08-13T07:40:32.833Z</time>
      </trkpt>
      <trkpt lat="65.3226" lon="12.17331">
        <ele>59.206798</ele>
        <time>2020-08-13T07:40:35.853Z</time>
      </trkpt>
      <trkpt lat="65.32272" lon="12.17342">
        <ele>59.160362</ele>
        <time>2020-08-13T07:40:38.835Z</time>
      </trkpt>
      <trkpt lat="65.32284" lon="12.17353">
        <ele>59.112324</ele>
        <time>2020-08-13T07:40:41.815Z</time>
      </trkpt>
      <trkpt lat="65.32296" lon="12.17362">
        <ele>59.067047</ele>
        <time>2020-08-13T07:40:44.812Z</time>
      </trkpt>
      <trkpt lat="65.32307" lon="12.17372">
        <ele>59.023245</ele>
        <time>2020-08-13T07:40:47.887Z</time>
      </trkpt>
      <trkpt lat="65.32318" lon="12.17382">
        <ele>58.980197</ele>
        <time>2020-08-13T07:40:50.814Z</time>
      </trkpt>
      <trkpt lat="65.32329" lon="12.17391">
        <ele>58.938417</ele>
        <time>2020-08-13T07:40:53.822Z</time>
      </trkpt>
      <trkpt lat="65.3234" lon="12.17401">
        <ele>58.894468</ele>
        <time>2020-08-13T07:40:56.814Z</time>
      </trkpt>
      <trkpt lat="65.32352" lon="12.17411">
        <ele>58.851137</ele>
        <time>2020-08-13T07:40:59.826Z</time>
      </trkpt>
      <trkpt lat="65.32363" lon="12.17422">
        <ele>58.806905</ele>
        <time>2020-08-13T07:41:02.823Z</time>
      </trkpt>
      <trkpt lat="65.32374" lon="12.17432">
        <ele>58.762838</ele>
        <time>2020-08-13T07:41:05.832Z</time>
      </trkpt>
      <trkpt lat="65.32386" lon="12.17441">
        <ele>58.719183</ele>
        <time>2020-08-13T07:41:08.810Z</time>
      </trkpt>
      <trkpt lat="65.32396" lon="12.17449">
        <ele>58.67789</ele>
        <time>2020-08-13T07:41:11.832Z</time>
      </trkpt>
      <trkpt lat="65.32408" lon="12.17461">
        <ele>58.797036</ele>
        <time>2020-08-13T07:41:14.830Z</time>
      </trkpt>
      <trkpt lat="65.32417" lon="12.17468">
        <ele>58.944839</ele>
        <time>2020-08-13T07:41:17.818Z</time>
      </trkpt>
      <trkpt lat="65.32427" lon="12.17474">
        <ele>59.101555</ele>
        <time>2020-08-13T07:41:20.813Z</time>
      </trkpt>
      <trkpt lat="65.32438" lon="12.17482">
        <ele>59.278384</ele>
        <time>2020-08-13T07:41:23.837Z</time>
      </trkpt>
      <trkpt lat="65.3245" lon="12.17493">
        <ele>59.483842</ele>
        <time>2020-08-13T07:41:26.861Z</time>
      </trkpt>
      <trkpt lat="65.32463" lon="12.17503">
        <ele>59.688028</ele>
        <time>2020-08-13T07:41:29.798Z</time>
      </trkpt>
      <trkpt lat="65.32474" lon="12.17512">
        <ele>59.879175</ele>
        <time>2020-08-13T07:41:32.816Z</time>
      </trkpt>
      <trkpt lat="65.32486" lon="12.17522">
        <ele>60.078803</ele>
        <time>2020-08-13T07:41:35.813Z</time>
      </trkpt>
      <trkpt lat="65.32497" lon="12.17531">
        <ele>60.25691</ele>
        <time>2020-08-13T07:41:38.894Z</time>
      </trkpt>
      <trkpt lat="65.32509" lon="12.17541">
        <ele>60.447127</ele>
        <time>2020-08-13T07:41:41.846Z</time>
      </trkpt>
      <trkpt lat="65.32521" lon="12.17554">
        <ele>60.654206</ele>
        <time>2020-08-13T07:41:44.833Z</time>
      </trkpt>
      <trkpt lat="65.3253" lon="12.1756">
        <ele>60.795078</ele>
        <time>2020-08-13T07:41:46.826Z</time>
      </trkpt>
      <trkpt lat="65.32542" lon="12.1757">
        <ele>61.001344</ele>
        <time>2020-08-13T07:41:49.839Z</time>
      </trkpt>
      <trkpt lat="65.32554" lon="12.17581">
        <ele>61.201974</ele>
        <time>2020-08-13T07:41:52.822Z</time>
      </trkpt>
      <trkpt lat="65.32567" lon="12.17591">
        <ele>61.406967</ele>
        <time>2020-08-13T07:41:55.829Z</time>
      </trkpt>
      <trkpt lat="65.32579" lon="12.17601">
        <ele>61.289623</ele>
        <time>2020-08-13T07:41:58.817Z</time>
      </trkpt>
      <trkpt lat="65.32591" lon="12.17612">
        <ele>61.056232</ele>
        <time>2020-08-13T07:42:01.819Z</time>
      </trkpt>
      <trkpt lat="65.32603" lon="12.17621">
        <ele>60.826065</ele>
        <time>2020-08-13T07:42:04.833Z</time>
      </trkpt>
      <trkpt lat="65.32615" lon="12.17632">
        <ele>60.597782</ele>
        <time>2020-08-13T07:42:07.841Z</time>
      </trkpt>
      <trkpt lat="65.32626" lon="12.17643">
        <ele>60.37546</ele>
        <time>2020-08-13T07:42:10.824Z</time>
      </trkpt>
      <trkpt lat="65.32638" lon="12.17654">
        <ele>60.149761</ele>
        <time>2020-08-13T07:42:13.828Z</time>
      </trkpt>
      <trkpt lat="65.32649" lon="12.17665">
        <ele>59.93359</ele>
        <time>2020-08-13T07:42:16.822Z</time>
      </trkpt>
      <trkpt lat="65.3266" lon="12.17676">
        <ele>59.714269</ele>
        <time>2020-08-13T07:42:19.845Z</time>
      </trkpt>
      <trkpt lat="65.32672" lon="12.17687">
        <ele>59.482401</ele>
        <time>2020-08-13T07:42:22.814Z</time>
      </trkpt>
      <trkpt lat="65.32684" lon="12.17698">
        <ele>59.242428</ele>
        <time>2020-08-13T07:42:25.827Z</time>
      </trkpt>
      <trkpt lat="65.32696" lon="12.17709">
        <ele>59.009686</ele>
        <time>2020-08-13T07:42:28.806Z</time>
      </trkpt>
      <trkpt lat="65.32708" lon="12.17721">
        <ele>58.773864</ele>
        <time>2020-08-13T07:42:31.867Z</time>
      </trkpt>
      <trkpt lat="65.3272" lon="12.17731">
        <ele>58.539954</ele>
        <time>2020-08-13T07:42:34.823Z</time>
      </trkpt>
      <trkpt lat="65.32733" lon="12.17741">
        <ele>58.304314</ele>
        <time>2020-08-13T07:42:37.809Z</time>
      </trkpt>
      <trkpt lat="65.32745" lon="12.17751">
        <ele>58.153088</ele>
        <time>2020-08-13T07:42:40.847Z</time>
      </trkpt>
      <trkpt lat="65.32756" lon="12.1776">
        <ele>58.072082</ele>
        <time>2020-08-13T07:42:43.835Z</time>
      </trkpt>
      <trkpt lat="65.32768" lon="12.1777">
        <ele>57.989543</ele>
        <time>2020-08-13T07:42:46.816Z</time>
      </trkpt>
      <trkpt lat="65.3278" lon="12.1778">
        <ele>57.906067</ele>
        <time>2020-08-13T07:42:49.834Z</time>
      </trkpt>
      <trkpt lat="65.32791" lon="12.17789">
        <ele>57.825871</ele>
        <time>2020-08-13T07:42:52.836Z</time>
      </trkpt>
      <trkpt lat="65.32802" lon="12.17799">
        <ele>57.74871</ele>
        <time>2020-08-13T07:42:55.829Z</time>
      </trkpt>
      <trkpt lat="65.32812" lon="12.17809">
        <ele>57.673008</ele>
        <time>2020-08-13T07:42:58.835Z</time>
      </trkpt>
      <trkpt lat="65.32823" lon="12.17818">
        <ele>57.594713</ele>
        <time>2020-08-13T07:43:01.818Z</time>
      </trkpt>
      <trkpt lat="65.32834" lon="12.17828">
        <ele>57.520459</ele>
        <time>2020-08-13T07:43:04.827Z</time>
      </trkpt>
      <trkpt lat="65.32844" lon="12.17838">
        <ele>57.445887</ele>
        <time>2020-08-13T07:43:07.817Z</time>
      </trkpt>
      <trkpt lat="65.32854" lon="12.17849">
        <ele>57.373091</ele>
        <time>2020-08-13T07:43:10.826Z</time>
      </trkpt>
      <trkpt lat="65.32864" lon="12.17863">
        <ele>57.296808</ele>
        <time>2020-08-13T07:43:13.853Z</time>
      </trkpt>
      <trkpt lat="65.32874" lon="12.17877">
        <ele>57.216418</ele>
        <time>2020-08-13T07:43:16.812Z</time>
      </trkpt>
      <trkpt lat="65.32884" lon="12.17893">
        <ele>57.13915</ele>
        <time>2020-08-13T07:43:19.811Z</time>
      </trkpt>
      <trkpt lat="65.32893" lon="12.17909">
        <ele>57.062199</ele>
        <time>2020-08-13T07:43:22.831Z</time>
      </trkpt>
      <trkpt lat="65.32903" lon="12.17926">
        <ele>56.977304</ele>
        <time>2020-08-13T07:43:25.845Z</time>
      </trkpt>
      <trkpt lat="65.32914" lon="12.17943">
        <ele>56.878031</ele>
        <time>2020-08-13T07:43:28.813Z</time>
      </trkpt>
      <trkpt lat="65.32922" lon="12.17955">
        <ele>56.810024</ele>
        <time>2020-08-13T07:43:30.821Z</time>
      </trkpt>
      <trkpt lat="65.32929" lon="12.17967">
        <ele>56.741668</ele>
        <time>2020-08-13T07:43:32.805Z</time>
      </trkpt>
      <trkpt lat="65.32937" lon="12.17981">
        <ele>56.668365</ele>
        <time>2020-08-13T07:43:34.828Z</time>
      </trkpt>
      <trkpt lat="65.32944" lon="12.17996">
        <ele>56.596695</ele>
        <time>2020-08-13T07:43:36.858Z</time>
      </trkpt>
      <trkpt lat="65.32952" lon="12.18009">
        <ele>56.526801</ele>
        <time>2020-08-13T07:43:38.816Z</time>
      </trkpt>
      <trkpt lat="65.32959" lon="12.18022">
        <ele>56.45664</ele>
        <time>2020-08-13T07:43:40.836Z</time>
      </trkpt>
      <trkpt lat="65.32967" lon="12.18035">
        <ele>56.387394</ele>
        <time>2020-08-13T07:43:42.834Z</time>
      </trkpt>
      <trkpt lat="65.32974" lon="12.18048">
        <ele>56.318679</ele>
        <time>2020-08-13T07:43:44.803Z</time>
      </trkpt>
      <trkpt lat="65.32981" lon="12.18061">
        <ele>56.246783</ele>
        <time>2020-08-13T07:43:46.810Z</time>
      </trkpt>
      <trkpt lat="65.32989" lon="12.18075">
        <ele>56.173052</ele>
        <time>2020-08-13T07:43:48.810Z</time>
      </trkpt>
      <trkpt lat="65.32998" lon="12.18088">
        <ele>56.097195</ele>
        <time>2020-08-13T07:43:50.824Z</time>
      </trkpt>
      <trkpt lat="65.33006" lon="12.18103">
        <ele>56.017853</ele>
        <time>2020-08-13T07:43:52.841Z</time>
      </trkpt>
      <trkpt lat="65.33015" lon="12.18117">
        <ele>55.938149</ele>
        <time>2020-08-13T07:43:54.826Z</time>
      </trkpt>
      <trkpt lat="65.33023" lon="12.18132">
        <ele>55.857525</ele>
        <time>2020-08-13T07:43:56.849Z</time>
      </trkpt>
      <trkpt lat="65.33032" lon="12.18147">
        <ele>55.775486</ele>
        <time>2020-08-13T07:43:58.822Z</time>
      </trkpt>
      <trkpt lat="65.33041" lon="12.18163">
        <ele>55.693347</ele>
        <time>2020-08-13T07:44:00.812Z</time>
      </trkpt>
      <trkpt lat="65.33049" lon="12.18178">
        <ele>55.658196</ele>
        <time>2020-08-13T07:44:02.820Z</time>
      </trkpt>
      <trkpt lat="65.33058" lon="12.18193">
        <ele>55.757796</ele>
        <time>2020-08-13T07:44:04.844Z</time>
      </trkpt>
      <trkpt lat="65.33066" lon="12.18207">
        <ele>55.857254</ele>
        <time>2020-08-13T07:44:06.829Z</time>
      </trkpt>
      <trkpt lat="65.33075" lon="12.18221">
        <ele>55.954474</ele>
        <time>2020-08-13T07:44:08.815Z</time>
      </trkpt>
      <trkpt lat="65.33083" lon="12.18235">
        <ele>56.056287</ele>
        <time>2020-08-13T07:44:10.812Z</time>
      </trkpt>
      <trkpt lat="65.33092" lon="12.18251">
        <ele>56.158589</ele>
        <time>2020-08-13T07:44:12.809Z</time>
      </trkpt>
      <trkpt lat="65.33101" lon="12.18266">
        <ele>56.261973</ele>
        <time>2020-08-13T07:44:14.815Z</time>
      </trkpt>
      <trkpt lat="65.3311" lon="12.1828">
        <ele>56.364904</ele>
        <time>2020-08-13T07:44:16.822Z</time>
      </trkpt>
      <trkpt lat="65.33119" lon="12.18295">
        <ele>56.465707</ele>
        <time>2020-08-13T07:44:18.814Z</time>
      </trkpt>
      <trkpt lat="65.33127" lon="12.18309">
        <ele>56.564303</ele>
        <time>2020-08-13T07:44:20.806Z</time>
      </trkpt>
      <trkpt lat="65.33136" lon="12.18324">
        <ele>56.662668</ele>
        <time>2020-08-13T07:44:22.816Z</time>
      </trkpt>
      <trkpt lat="65.33144" lon="12.18338">
        <ele>56.759336</ele>
        <time>2020-08-13T07:44:24.842Z</time>
      </trkpt>
      <trkpt lat="65.33153" lon="12.18352">
        <ele>56.859801</ele>
        <time>2020-08-13T07:44:26.813Z</time>
      </trkpt>
      <trkpt lat="65.33161" lon="12.18367">
        <ele>56.959168</ele>
        <time>2020-08-13T07:44:28.828Z</time>
      </trkpt>
      <trkpt lat="65.33169" lon="12.18381">
        <ele>57.055608</ele>
        <time>2020-08-13T07:44:30.826Z</time>
      </trkpt>
      <trkpt lat="65.33177" lon="12.18394">
        <ele>57.149354</ele>
        <time>2020-08-13T07:44:32.834Z</time>
      </trkpt>
      <trkpt lat="65.33185" lon="12.18407">
        <ele>57.238621</ele>
        <time>2020-08-13T07:44:34.832Z</time>
      </trkpt>
      <trkpt lat="65.33193" lon="12.1842">
        <ele>57.330128</ele>
        <time>2020-08-13T07:44:36.834Z</time>
      </trkpt>
      <trkpt lat="65.332" lon="12.18433">
        <ele>57.406594</ele>
        <time>2020-08-13T07:44:38.834Z</time>
      </trkpt>
      <trkpt lat="65.33211" lon="12.18452">
        <ele>57.513</ele>
        <time>2020-08-13T07:44:41.818Z</time>
      </trkpt>
      <trkpt lat="65.33222" lon="12.18468">
        <ele>57.615871</ele>
        <time>2020-08-13T07:44:44.834Z</time>
      </trkpt>
      <trkpt lat="65.33232" lon="12.18486">
        <ele>57.717012</ele>
        <time>2020-08-13T07:44:47.851Z</time>
      </trkpt>
      <trkpt lat="65.33242" lon="12.18503">
        <ele>57.818882</ele>
        <time>2020-08-13T07:44:50.848Z</time>
      </trkpt>
      <trkpt lat="65.33252" lon="12.18522">
        <ele>57.921123</ele>
        <time>2020-08-13T07:44:53.832Z</time>
      </trkpt>
      <trkpt lat="65.33262" lon="12.1854">
        <ele>58.025156</ele>
        <time>2020-08-13T07:44:56.817Z</time>
      </trkpt>
      <trkpt lat="65.33272" lon="12.18558">
        <ele>58.126172</ele>
        <time>2020-08-13T07:44:59.825Z</time>
      </trkpt>
      <trkpt lat="65.33283" lon="12.18575">
        <ele>58.228561</ele>
        <time>2020-08-13T07:45:02.844Z</time>
      </trkpt>
      <trkpt lat="65.33293" lon="12.18594">
        <ele>58.332092</ele>
        <time>2020-08-13T07:45:05.811Z</time>
      </trkpt>
      <trkpt lat="65.33303" lon="12.18613">
        <ele>58.437912</ele>
        <time>2020-08-13T07:45:08.847Z</time>
      </trkpt>
      <trkpt lat="65.33313" lon="12.18631">
        <ele>58.541037</ele>
        <time>2020-08-13T07:45:11.830Z</time>
      </trkpt>
      <trkpt lat="65.33323" lon="12.18647">
        <ele>58.635004</ele>
        <time>2020-08-13T07:45:14.812Z</time>
      </trkpt>
      <trkpt lat="65.33333" lon="12.18663">
        <ele>58.731075</ele>
        <time>2020-08-13T07:45:17.812Z</time>
      </trkpt>
      <trkpt lat="65.33342" lon="12.18679">
        <ele>58.799402</ele>
        <time>2020-08-13T07:45:20.818Z</time>
      </trkpt>
      <trkpt lat="65.33351" lon="12.18697">
        <ele>58.79126</ele>
        <time>2020-08-13T07:45:23.847Z</time>
      </trkpt>
      <trkpt lat="65.33361" lon="12.18714">
        <ele>58.78286</ele>
        <time>2020-08-13T07:45:26.824Z</time>
      </trkpt>
      <trkpt lat="65.33371" lon="12.18731">
        <ele>58.774697</ele>
        <time>2020-08-13T07:45:29.806Z</time>
      </trkpt>
      <trkpt lat="65.33382" lon="12.18748">
        <ele>58.766229</ele>
        <time>2020-08-13T07:45:32.809Z</time>
      </trkpt>
      <trkpt lat="65.33391" lon="12.18765">
        <ele>58.758153</ele>
        <time>2020-08-13T07:45:35.851Z</time>
      </trkpt>
      <trkpt lat="65.334" lon="12.18782">
        <ele>58.750133</ele>
        <time>2020-08-13T07:45:38.874Z</time>
      </trkpt>
      <trkpt lat="65.3341" lon="12.18799">
        <ele>58.74204</ele>
        <time>2020-08-13T07:45:41.814Z</time>
      </trkpt>
      <trkpt lat="65.3342" lon="12.18816">
        <ele>58.733475</ele>
        <time>2020-08-13T07:45:44.887Z</time>
      </trkpt>
      <trkpt lat="65.33431" lon="12.18834">
        <ele>58.724806</ele>
        <time>2020-08-13T07:45:47.811Z</time>
      </trkpt>
      <trkpt lat="65.33441" lon="12.18852">
        <ele>58.715865</ele>
        <time>2020-08-13T07:45:50.815Z</time>
      </trkpt>
      <trkpt lat="65.33449" lon="12.18864">
        <ele>58.709576</ele>
        <time>2020-08-13T07:45:52.822Z</time>
      </trkpt>
      <trkpt lat="65.33457" lon="12.18877">
        <ele>58.702958</ele>
        <time>2020-08-13T07:45:54.843Z</time>
      </trkpt>
      <trkpt lat="65.33466" lon="12.18889">
        <ele>58.696353</ele>
        <time>2020-08-13T07:45:56.806Z</time>
      </trkpt>
      <trkpt lat="65.33473" lon="12.18902">
        <ele>58.689928</ele>
        <time>2020-08-13T07:45:58.810Z</time>
      </trkpt>
      <trkpt lat="65.33484" lon="12.1892">
        <ele>58.681104</ele>
        <time>2020-08-13T07:46:01.809Z</time>
      </trkpt>
      <trkpt lat="65.33494" lon="12.18938">
        <ele>58.583851</ele>
        <time>2020-08-13T07:46:04.808Z</time>
      </trkpt>
      <trkpt lat="65.33504" lon="12.18956">
        <ele>58.458122</ele>
        <time>2020-08-13T07:46:07.817Z</time>
      </trkpt>
      <trkpt lat="65.33515" lon="12.18973">
        <ele>58.335001</ele>
        <time>2020-08-13T07:46:10.821Z</time>
      </trkpt>
      <trkpt lat="65.33526" lon="12.18988">
        <ele>58.209543</ele>
        <time>2020-08-13T07:46:13.874Z</time>
      </trkpt>
      <trkpt lat="65.33537" lon="12.19004">
        <ele>58.083016</ele>
        <time>2020-08-13T07:46:16.823Z</time>
      </trkpt>
      <trkpt lat="65.33547" lon="12.19019">
        <ele>57.965612</ele>
        <time>2020-08-13T07:46:19.808Z</time>
      </trkpt>
      <trkpt lat="65.33557" lon="12.19032">
        <ele>57.848824</ele>
        <time>2020-08-13T07:46:22.845Z</time>
      </trkpt>
      <trkpt lat="65.33567" lon="12.19043">
        <ele>57.737608</ele>
        <time>2020-08-13T07:46:25.817Z</time>
      </trkpt>
      <trkpt lat="65.33578" lon="12.19055">
        <ele>57.625839</ele>
        <time>2020-08-13T07:46:28.835Z</time>
      </trkpt>
      <trkpt lat="65.33588" lon="12.19066">
        <ele>57.514409</ele>
        <time>2020-08-13T07:46:31.816Z</time>
      </trkpt>
      <trkpt lat="65.33599" lon="12.19077">
        <ele>57.396555</ele>
        <time>2020-08-13T07:46:34.808Z</time>
      </trkpt>
      <trkpt lat="65.33611" lon="12.1909">
        <ele>57.271041</ele>
        <time>2020-08-13T07:46:37.815Z</time>
      </trkpt>
      <trkpt lat="65.33623" lon="12.19101">
        <ele>57.139504</ele>
        <time>2020-08-13T07:46:40.815Z</time>
      </trkpt>
      <trkpt lat="65.33632" lon="12.19109">
        <ele>57.04907</ele>
        <time>2020-08-13T07:46:42.844Z</time>
      </trkpt>
      <trkpt lat="65.33641" lon="12.19116">
        <ele>56.950231</ele>
        <time>2020-08-13T07:46:44.861Z</time>
      </trkpt>
      <trkpt lat="65.3365" lon="12.19126">
        <ele>56.724692</ele>
        <time>2020-08-13T07:46:46.811Z</time>
      </trkpt>
      <trkpt lat="65.3366" lon="12.19135">
        <ele>56.371365</ele>
        <time>2020-08-13T07:46:48.840Z</time>
      </trkpt>
      <trkpt lat="65.3367" lon="12.19143">
        <ele>56.012086</ele>
        <time>2020-08-13T07:46:50.811Z</time>
      </trkpt>
      <trkpt lat="65.3368" lon="12.19153">
        <ele>55.633776</ele>
        <time>2020-08-13T07:46:52.809Z</time>
      </trkpt>
      <trkpt lat="65.33691" lon="12.19164">
        <ele>55.227512</ele>
        <time>2020-08-13T07:46:54.809Z</time>
      </trkpt>
      <trkpt lat="65.33702" lon="12.19178">
        <ele>54.800287</ele>
        <time>2020-08-13T07:46:56.842Z</time>
      </trkpt>
      <trkpt lat="65.33713" lon="12.19192">
        <ele>54.353168</ele>
        <time>2020-08-13T07:46:58.807Z</time>
      </trkpt>
      <trkpt lat="65.33725" lon="12.19207">
        <ele>53.88784</ele>
        <time>2020-08-13T07:47:00.819Z</time>
      </trkpt>
      <trkpt lat="65.33738" lon="12.19224">
        <ele>53.382755</ele>
        <time>2020-08-13T07:47:02.823Z</time>
      </trkpt>
      <trkpt lat="65.33752" lon="12.19241">
        <ele>52.852312</ele>
        <time>2020-08-13T07:47:04.812Z</time>
      </trkpt>
      <trkpt lat="65.33765" lon="12.19257">
        <ele>52.325587</ele>
        <time>2020-08-13T07:47:06.830Z</time>
      </trkpt>
      <trkpt lat="65.33779" lon="12.19274">
        <ele>51.811983</ele>
        <time>2020-08-13T07:47:08.821Z</time>
      </trkpt>
      <trkpt lat="65.33791" lon="12.1929">
        <ele>51.316305</ele>
        <time>2020-08-13T07:47:10.819Z</time>
      </trkpt>
      <trkpt lat="65.33804" lon="12.19307">
        <ele>50.814271</ele>
        <time>2020-08-13T07:47:12.826Z</time>
      </trkpt>
      <trkpt lat="65.33817" lon="12.19323">
        <ele>50.374252</ele>
        <time>2020-08-13T07:47:14.823Z</time>
      </trkpt>
      <trkpt lat="65.3383" lon="12.19341">
        <ele>49.960824</ele>
        <time>2020-08-13T07:47:16.812Z</time>
      </trkpt>
      <trkpt lat="65.33843" lon="12.19358">
        <ele>49.542439</ele>
        <time>2020-08-13T07:47:18.815Z</time>
      </trkpt>
      <trkpt lat="65.33856" lon="12.19375">
        <ele>49.125957</ele>
        <time>2020-08-13T07:47:20.819Z</time>
      </trkpt>
      <trkpt lat="65.33869" lon="12.19392">
        <ele>48.706784</ele>
        <time>2020-08-13T07:47:22.827Z</time>
      </trkpt>
      <trkpt lat="65.33881" lon="12.19408">
        <ele>48.295086</ele>
        <time>2020-08-13T07:47:24.851Z</time>
      </trkpt>
      <trkpt lat="65.33894" lon="12.19425">
        <ele>47.891777</ele>
        <time>2020-08-13T07:47:26.845Z</time>
      </trkpt>
      <trkpt lat="65.33906" lon="12.19441">
        <ele>47.495361</ele>
        <time>2020-08-13T07:47:28.816Z</time>
      </trkpt>
      <trkpt lat="65.33918" lon="12.19457">
        <ele>47.105056</ele>
        <time>2020-08-13T07:47:30.826Z</time>
      </trkpt>
      <trkpt lat="65.3393" lon="12.19472">
        <ele>46.725414</ele>
        <time>2020-08-13T07:47:32.875Z</time>
      </trkpt>
      <trkpt lat="65.33941" lon="12.19486">
        <ele>46.360236</ele>
        <time>2020-08-13T07:47:34.817Z</time>
      </trkpt>
      <trkpt lat="65.33952" lon="12.19501">
        <ele>46.018067</ele>
        <time>2020-08-13T07:47:36.832Z</time>
      </trkpt>
      <trkpt lat="65.33962" lon="12.19515">
        <ele>45.682692</ele>
        <time>2020-08-13T07:47:38.834Z</time>
      </trkpt>
      <trkpt lat="65.33972" lon="12.19528">
        <ele>45.595648</ele>
        <time>2020-08-13T07:47:40.830Z</time>
      </trkpt>
      <trkpt lat="65.33981" lon="12.19541">
        <ele>45.58393</ele>
        <time>2020-08-13T07:47:42.819Z</time>
      </trkpt>
      <trkpt lat="65.3399" lon="12.19553">
        <ele>45.572472</ele>
        <time>2020-08-13T07:47:44.822Z</time>
      </trkpt>
      <trkpt lat="65.33998" lon="12.19567">
        <ele>45.560696</ele>
        <time>2020-08-13T07:47:46.830Z</time>
      </trkpt>
      <trkpt lat="65.34007" lon="12.19581">
        <ele>45.548738</ele>
        <time>2020-08-13T07:47:48.832Z</time>
      </trkpt>
      <trkpt lat="65.34016" lon="12.19593">
        <ele>45.537119</ele>
        <time>2020-08-13T07:47:50.829Z</time>
      </trkpt>
      <trkpt lat="65.34025" lon="12.19606">
        <ele>45.525543</ele>
        <time>2020-08-13T07:47:52.853Z</time>
      </trkpt>
      <trkpt lat="65.34034" lon="12.19619">
        <ele>45.514063</ele>
        <time>2020-08-13T07:47:54.830Z</time>
      </trkpt>
      <trkpt lat="65.34043" lon="12.19632">
        <ele>45.502656</ele>
        <time>2020-08-13T07:47:56.814Z</time>
      </trkpt>
      <trkpt lat="65.34051" lon="12.19644">
        <ele>45.491704</ele>
        <time>2020-08-13T07:47:58.822Z</time>
      </trkpt>
      <trkpt lat="65.34059" lon="12.19656">
        <ele>45.480633</ele>
        <time>2020-08-13T07:48:00.813Z</time>
      </trkpt>
      <trkpt lat="65.34069" lon="12.19661">
        <ele>45.470069</ele>
        <time>2020-08-13T07:48:02.820Z</time>
      </trkpt>
      <trkpt lat="65.34078" lon="12.19648">
        <ele>45.457268</ele>
        <time>2020-08-13T07:48:04.825Z</time>
      </trkpt>
      <trkpt lat="65.34086" lon="12.19622">
        <ele>45.44241</ele>
        <time>2020-08-13T07:48:06.853Z</time>
      </trkpt>
      <trkpt lat="65.34091" lon="12.19594">
        <ele>45.428266</ele>
        <time>2020-08-13T07:48:08.853Z</time>
      </trkpt>
      <trkpt lat="65.34095" lon="12.19567">
        <ele>45.415144</ele>
        <time>2020-08-13T07:48:10.829Z</time>
      </trkpt>
      <trkpt lat="65.34099" lon="12.19543">
        <ele>45.403401</ele>
        <time>2020-08-13T07:48:12.842Z</time>
      </trkpt>
      <trkpt lat="65.34103" lon="12.19518">
        <ele>45.400343</ele>
        <time>2020-08-13T07:48:14.823Z</time>
      </trkpt>
      <trkpt lat="65.34107" lon="12.19496">
        <ele>45.397545</ele>
        <time>2020-08-13T07:48:16.839Z</time>
      </trkpt>
      <trkpt lat="65.34111" lon="12.19475">
        <ele>45.394865</ele>
        <time>2020-08-13T07:48:18.848Z</time>
      </trkpt>
      <trkpt lat="65.34114" lon="12.19454">
        <ele>45.392271</ele>
        <time>2020-08-13T07:48:20.845Z</time>
      </trkpt>
      <trkpt lat="65.34118" lon="12.19433">
        <ele>45.389709</ele>
        <time>2020-08-13T07:48:22.843Z</time>
      </trkpt>
      <trkpt lat="65.34121" lon="12.19412">
        <ele>45.387092</ele>
        <time>2020-08-13T07:48:24.831Z</time>
      </trkpt>
      <trkpt lat="65.34125" lon="12.19391">
        <ele>45.384455</ele>
        <time>2020-08-13T07:48:26.873Z</time>
      </trkpt>
      <trkpt lat="65.34129" lon="12.1937">
        <ele>45.381743</ele>
        <time>2020-08-13T07:48:28.819Z</time>
      </trkpt>
      <trkpt lat="65.34132" lon="12.19349">
        <ele>45.379127</ele>
        <time>2020-08-13T07:48:30.809Z</time>
      </trkpt>
      <trkpt lat="65.34136" lon="12.19327">
        <ele>45.376434</ele>
        <time>2020-08-13T07:48:32.821Z</time>
      </trkpt>
      <trkpt lat="65.34139" lon="12.19305">
        <ele>45.373706</ele>
        <time>2020-08-13T07:48:34.842Z</time>
      </trkpt>
      <trkpt lat="65.34142" lon="12.19283">
        <ele>45.37101</ele>
        <time>2020-08-13T07:48:36.811Z</time>
      </trkpt>
      <trkpt lat="65.34145" lon="12.19262">
        <ele>45.368319</ele>
        <time>2020-08-13T07:48:38.841Z</time>
      </trkpt>
      <trkpt lat="65.3415" lon="12.1924">
        <ele>45.36551</ele>
        <time>2020-08-13T07:48:40.825Z</time>
      </trkpt>
      <trkpt lat="65.34155" lon="12.19219">
        <ele>45.362621</ele>
        <time>2020-08-13T07:48:42.826Z</time>
      </trkpt>
      <trkpt lat="65.34162" lon="12.19203">
        <ele>45.359854</ele>
        <time>2020-08-13T07:48:44.826Z</time>
      </trkpt>
      <trkpt lat="65.34172" lon="12.19192">
        <ele>45.357033</ele>
        <time>2020-08-13T07:48:46.851Z</time>
      </trkpt>
      <trkpt lat="65.34181" lon="12.19186">
        <ele>45.354333</ele>
        <time>2020-08-13T07:48:48.872Z</time>
      </trkpt>
      <trkpt lat="65.34191" lon="12.19185">
        <ele>45.455928</ele>
        <time>2020-08-13T07:48:50.830Z</time>
      </trkpt>
      <trkpt lat="65.34201" lon="12.19186">
        <ele>45.592576</ele>
        <time>2020-08-13T07:48:52.847Z</time>
      </trkpt>
      <trkpt lat="65.34214" lon="12.19188">
        <ele>45.765838</ele>
        <time>2020-08-13T07:48:55.852Z</time>
      </trkpt>
      <trkpt lat="65.34226" lon="12.19188">
        <ele>45.923988</ele>
        <time>2020-08-13T07:48:58.821Z</time>
      </trkpt>
      <trkpt lat="65.34236" lon="12.19185">
        <ele>46.06906</ele>
        <time>2020-08-13T07:49:01.823Z</time>
      </trkpt>
      <trkpt lat="65.34248" lon="12.19184">
        <ele>46.222022</ele>
        <time>2020-08-13T07:49:04.858Z</time>
      </trkpt>
      <trkpt lat="65.3426" lon="12.19183">
        <ele>46.389696</ele>
        <time>2020-08-13T07:49:07.848Z</time>
      </trkpt>
      <trkpt lat="65.3427" lon="12.1918">
        <ele>46.517626</ele>
        <time>2020-08-13T07:49:09.826Z</time>
      </trkpt>
      <trkpt lat="65.3428" lon="12.19176">
        <ele>46.661761</ele>
        <time>2020-08-13T07:49:11.857Z</time>
      </trkpt>
      <trkpt lat="65.34291" lon="12.19172">
        <ele>46.811707</ele>
        <time>2020-08-13T07:49:13.844Z</time>
      </trkpt>
      <trkpt lat="65.34302" lon="12.19169">
        <ele>46.96419</ele>
        <time>2020-08-13T07:49:15.825Z</time>
      </trkpt>
      <trkpt lat="65.34314" lon="12.19164">
        <ele>47.119364</ele>
        <time>2020-08-13T07:49:17.838Z</time>
      </trkpt>
      <trkpt lat="65.34324" lon="12.1916">
        <ele>47.267035</ele>
        <time>2020-08-13T07:49:19.857Z</time>
      </trkpt>
      <trkpt lat="65.34335" lon="12.19156">
        <ele>47.41304</ele>
        <time>2020-08-13T07:49:21.833Z</time>
      </trkpt>
      <trkpt lat="65.34346" lon="12.19153">
        <ele>47.557554</ele>
        <time>2020-08-13T07:49:23.825Z</time>
      </trkpt>
      <trkpt lat="65.34356" lon="12.1915">
        <ele>47.703127</ele>
        <time>2020-08-13T07:49:25.844Z</time>
      </trkpt>
      <trkpt lat="65.34367" lon="12.19146">
        <ele>47.895309</ele>
        <time>2020-08-13T07:49:27.843Z</time>
      </trkpt>
      <trkpt lat="65.34377" lon="12.19144">
        <ele>48.148238</ele>
        <time>2020-08-13T07:49:29.835Z</time>
      </trkpt>
      <trkpt lat="65.34387" lon="12.19141">
        <ele>48.393852</ele>
        <time>2020-08-13T07:49:31.830Z</time>
      </trkpt>
      <trkpt lat="65.34397" lon="12.19137">
        <ele>48.629238</ele>
        <time>2020-08-13T07:49:33.870Z</time>
      </trkpt>
      <trkpt lat="65.3441" lon="12.19132">
        <ele>48.941613</ele>
        <time>2020-08-13T07:49:36.826Z</time>
      </trkpt>
      <trkpt lat="65.34421" lon="12.19129">
        <ele>49.214731</ele>
        <time>2020-08-13T07:49:39.824Z</time>
      </trkpt>
      <trkpt lat="65.34432" lon="12.19125">
        <ele>49.473951</ele>
        <time>2020-08-13T07:49:42.813Z</time>
      </trkpt>
      <trkpt lat="65.34442" lon="12.19121">
        <ele>49.729772</ele>
        <time>2020-08-13T07:49:45.817Z</time>
      </trkpt>
      <trkpt lat="65.34452" lon="12.19119">
        <ele>49.96247</ele>
        <time>2020-08-13T07:49:48.842Z</time>
      </trkpt>
      <trkpt lat="65.34461" lon="12.19119">
        <ele>50.182487</ele>
        <time>2020-08-13T07:49:51.838Z</time>
      </trkpt>
      <trkpt lat="65.3447" lon="12.19118">
        <ele>50.407158</ele>
        <time>2020-08-13T07:49:54.831Z</time>
      </trkpt>
      <trkpt lat="65.3448" lon="12.19117">
        <ele>50.65391</ele>
        <time>2020-08-13T07:49:58.825Z</time>
      </trkpt>
      <trkpt lat="65.3449" lon="12.1912">
        <ele>50.882494</ele>
        <time>2020-08-13T07:50:02.837Z</time>
      </trkpt>
      <trkpt lat="65.34499" lon="12.19122">
        <ele>51.117772</ele>
        <time>2020-08-13T07:50:06.842Z</time>
      </trkpt>
      <trkpt lat="65.34509" lon="12.19126">
        <ele>51.344598</ele>
        <time>2020-08-13T07:50:10.822Z</time>
      </trkpt>
      <trkpt lat="65.34518" lon="12.19133">
        <ele>51.587293</ele>
        <time>2020-08-13T07:50:14.812Z</time>
      </trkpt>
      <trkpt lat="65.34529" lon="12.19139">
        <ele>51.856798</ele>
        <time>2020-08-13T07:50:18.846Z</time>
      </trkpt>
      <trkpt lat="65.3454" lon="12.19144">
        <ele>52.134582</ele>
        <time>2020-08-13T07:50:22.839Z</time>
      </trkpt>
      <trkpt lat="65.34551" lon="12.19145">
        <ele>52.323201</ele>
        <time>2020-08-13T07:50:26.835Z</time>
      </trkpt>
      <trkpt lat="65.34563" lon="12.19145">
        <ele>52.525477</ele>
        <time>2020-08-13T07:50:30.808Z</time>
      </trkpt>
      <trkpt lat="65.34572" lon="12.19142">
        <ele>52.689188</ele>
        <time>2020-08-13T07:50:33.838Z</time>
      </trkpt>
      <trkpt lat="65.34582" lon="12.19138">
        <ele>52.850298</ele>
        <time>2020-08-13T07:50:36.816Z</time>
      </trkpt>
      <trkpt lat="65.34591" lon="12.19132">
        <ele>53.019383</ele>
        <time>2020-08-13T07:50:39.916Z</time>
      </trkpt>
      <trkpt lat="65.34602" lon="12.19124">
        <ele>53.213916</ele>
        <time>2020-08-13T07:50:43.856Z</time>
      </trkpt>
      <trkpt lat="65.34613" lon="12.19115">
        <ele>53.414567</ele>
        <time>2020-08-13T07:50:47.864Z</time>
      </trkpt>
      <trkpt lat="65.34622" lon="12.19107">
        <ele>53.578272</ele>
        <time>2020-08-13T07:50:50.867Z</time>
      </trkpt>
      <trkpt lat="65.3463" lon="12.19099">
        <ele>53.739839</ele>
        <time>2020-08-13T07:50:53.813Z</time>
      </trkpt>
      <trkpt lat="65.34639" lon="12.1909">
        <ele>53.905955</ele>
        <time>2020-08-13T07:50:56.812Z</time>
      </trkpt>
      <trkpt lat="65.34649" lon="12.19082">
        <ele>54.078838</ele>
        <time>2020-08-13T07:50:59.816Z</time>
      </trkpt>
      <trkpt lat="65.34658" lon="12.19073">
        <ele>54.244415</ele>
        <time>2020-08-13T07:51:02.835Z</time>
      </trkpt>
      <trkpt lat="65.34668" lon="12.19063">
        <ele>54.446644</ele>
        <time>2020-08-13T07:51:06.843Z</time>
      </trkpt>
      <trkpt lat="65.34679" lon="12.19051">
        <ele>54.646171</ele>
        <time>2020-08-13T07:51:10.822Z</time>
      </trkpt>
      <trkpt lat="65.34689" lon="12.19038">
        <ele>54.840914</ele>
        <time>2020-08-13T07:51:14.830Z</time>
      </trkpt>
      <trkpt lat="65.34699" lon="12.19025">
        <ele>55.045491</ele>
        <time>2020-08-13T07:51:18.814Z</time>
      </trkpt>
      <trkpt lat="65.34707" lon="12.19013">
        <ele>55.210046</ele>
        <time>2020-08-13T07:51:21.823Z</time>
      </trkpt>
      <trkpt lat="65.34715" lon="12.19">
        <ele>55.776301</ele>
        <time>2020-08-13T07:51:24.852Z</time>
      </trkpt>
      <trkpt lat="65.34722" lon="12.18986">
        <ele>56.451491</ele>
        <time>2020-08-13T07:51:27.839Z</time>
      </trkpt>
      <trkpt lat="65.34731" lon="12.18973">
        <ele>57.186643</ele>
        <time>2020-08-13T07:51:30.822Z</time>
      </trkpt>
      <trkpt lat="65.34741" lon="12.18963">
        <ele>57.963952</ele>
        <time>2020-08-13T07:51:33.834Z</time>
      </trkpt>
      <trkpt lat="65.34751" lon="12.18955">
        <ele>58.671366</ele>
        <time>2020-08-13T07:51:36.851Z</time>
      </trkpt>
      <trkpt lat="65.34761" lon="12.18949">
        <ele>59.437913</ele>
        <time>2020-08-13T07:51:40.863Z</time>
      </trkpt>
      <trkpt lat="65.34771" lon="12.18939">
        <ele>60.153297</ele>
        <time>2020-08-13T07:51:46.815Z</time>
      </trkpt>
      <trkpt lat="65.3478" lon="12.1893">
        <ele>60.873503</ele>
        <time>2020-08-13T07:51:53.829Z</time>
      </trkpt>
      <trkpt lat="65.34788" lon="12.18919">
        <ele>61.54186</ele>
        <time>2020-08-13T07:52:00.815Z</time>
      </trkpt>
      <trkpt lat="65.34797" lon="12.18911">
        <ele>62.204986</ele>
        <time>2020-08-13T07:52:08.809Z</time>
      </trkpt>
      <trkpt lat="65.34806" lon="12.18902">
        <ele>62.930593</ele>
        <time>2020-08-13T07:52:16.830Z</time>
      </trkpt>
      <trkpt lat="65.34815" lon="12.18892">
        <ele>63.611347</ele>
        <time>2020-08-13T07:52:23.838Z</time>
      </trkpt>
      <trkpt lat="65.34824" lon="12.1888">
        <ele>64.305478</ele>
        <time>2020-08-13T07:52:29.846Z</time>
      </trkpt>
      <trkpt lat="65.34831" lon="12.18863">
        <ele>65.034406</ele>
        <time>2020-08-13T07:52:34.821Z</time>
      </trkpt>
      <trkpt lat="65.3484" lon="12.18849">
        <ele>65.778111</ele>
        <time>2020-08-13T07:52:39.851Z</time>
      </trkpt>
      <trkpt lat="65.34849" lon="12.18836">
        <ele>66.521193</ele>
        <time>2020-08-13T07:52:43.837Z</time>
      </trkpt>
      <trkpt lat="65.34858" lon="12.1882">
        <ele>67.313455</ele>
        <time>2020-08-13T07:52:47.813Z</time>
      </trkpt>
      <trkpt lat="65.34866" lon="12.18806">
        <ele>67.9482</ele>
        <time>2020-08-13T07:52:51.810Z</time>
      </trkpt>
      <trkpt lat="65.34874" lon="12.18792">
        <ele>67.660341</ele>
        <time>2020-08-13T07:52:55.817Z</time>
      </trkpt>
      <trkpt lat="65.34882" lon="12.18778">
        <ele>67.376807</ele>
        <time>2020-08-13T07:52:59.825Z</time>
      </trkpt>
      <trkpt lat="65.34891" lon="12.18763">
        <ele>67.072261</ele>
        <time>2020-08-13T07:53:03.816Z</time>
      </trkpt>
      <trkpt lat="65.34898" lon="12.18747">
        <ele>66.782896</ele>
        <time>2020-08-13T07:53:07.826Z</time>
      </trkpt>
      <trkpt lat="65.34905" lon="12.18731">
        <ele>66.496476</ele>
        <time>2020-08-13T07:53:11.843Z</time>
      </trkpt>
      <trkpt lat="65.34912" lon="12.18716">
        <ele>66.230324</ele>
        <time>2020-08-13T07:53:15.844Z</time>
      </trkpt>
      <trkpt lat="65.34919" lon="12.18702">
        <ele>65.958343</ele>
        <time>2020-08-13T07:53:19.826Z</time>
      </trkpt>
      <trkpt lat="65.34927" lon="12.18687">
        <ele>65.66439</ele>
        <time>2020-08-13T07:53:23.848Z</time>
      </trkpt>
      <trkpt lat="65.34935" lon="12.18671">
        <ele>65.36219</ele>
        <time>2020-08-13T07:53:27.816Z</time>
      </trkpt>
      <trkpt lat="65.34945" lon="12.18653">
        <ele>65.017741</ele>
        <time>2020-08-13T07:53:31.817Z</time>
      </trkpt>
      <trkpt lat="65.34954" lon="12.18636">
        <ele>64.672521</ele>
        <time>2020-08-13T07:53:35.824Z</time>
      </trkpt>
      <trkpt lat="65.34963" lon="12.18619">
        <ele>64.34924</ele>
        <time>2020-08-13T07:53:39.830Z</time>
      </trkpt>
      <trkpt lat="65.34971" lon="12.18602">
        <ele>64.031932</ele>
        <time>2020-08-13T07:53:43.850Z</time>
      </trkpt>
      <trkpt lat="65.34979" lon="12.18585">
        <ele>63.712116</ele>
        <time>2020-08-13T07:53:47.837Z</time>
      </trkpt>
      <trkpt lat="65.34986" lon="12.1857">
        <ele>63.449155</ele>
        <time>2020-08-13T07:53:50.852Z</time>
      </trkpt>
      <trkpt lat="65.34995" lon="12.18553">
        <ele>63.113026</ele>
        <time>2020-08-13T07:53:54.837Z</time>
      </trkpt>
      <trkpt lat="65.35004" lon="12.18537">
        <ele>62.793394</ele>
        <time>2020-08-13T07:53:58.808Z</time>
      </trkpt>
      <trkpt lat="65.35012" lon="12.18519">
        <ele>63.194734</ele>
        <time>2020-08-13T07:54:02.838Z</time>
      </trkpt>
      <trkpt lat="65.3502" lon="12.18502">
        <ele>63.669402</ele>
        <time>2020-08-13T07:54:06.815Z</time>
      </trkpt>
      <trkpt lat="65.35028" lon="12.18485">
        <ele>64.155924</ele>
        <time>2020-08-13T07:54:10.824Z</time>
      </trkpt>
      <trkpt lat="65.35037" lon="12.18468">
        <ele>64.658953</ele>
        <time>2020-08-13T07:54:14.854Z</time>
      </trkpt>
      <trkpt lat="65.35045" lon="12.18449">
        <ele>65.137722</ele>
        <time>2020-08-13T07:54:18.831Z</time>
      </trkpt>
      <trkpt lat="65.35051" lon="12.18428">
        <ele>65.615451</ele>
        <time>2020-08-13T07:54:22.812Z</time>
      </trkpt>
      <trkpt lat="65.35058" lon="12.18406">
        <ele>66.123286</ele>
        <time>2020-08-13T07:54:26.811Z</time>
      </trkpt>
      <trkpt lat="65.35064" lon="12.18389">
        <ele>66.525446</ele>
        <time>2020-08-13T07:54:29.821Z</time>
      </trkpt>
      <trkpt lat="65.35071" lon="12.18368">
        <ele>67.021468</ele>
        <time>2020-08-13T07:54:33.816Z</time>
      </trkpt>
      <trkpt lat="65.35077" lon="12.18345">
        <ele>67.527618</ele>
        <time>2020-08-13T07:54:37.826Z</time>
      </trkpt>
      <trkpt lat="65.35082" lon="12.18327">
        <ele>67.924823</ele>
        <time>2020-08-13T07:54:40.823Z</time>
      </trkpt>
      <trkpt lat="65.35089" lon="12.18305">
        <ele>68.429686</ele>
        <time>2020-08-13T07:54:44.818Z</time>
      </trkpt>
      <trkpt lat="65.35094" lon="12.18284">
        <ele>68.89628</ele>
        <time>2020-08-13T07:54:48.816Z</time>
      </trkpt>
      <trkpt lat="65.351" lon="12.18265">
        <ele>69.315909</ele>
        <time>2020-08-13T07:54:52.805Z</time>
      </trkpt>
      <trkpt lat="65.35105" lon="12.18245">
        <ele>69.750432</ele>
        <time>2020-08-13T07:54:56.845Z</time>
      </trkpt>
      <trkpt lat="65.35112" lon="12.18225">
        <ele>70.222086</ele>
        <time>2020-08-13T07:55:00.817Z</time>
      </trkpt>
      <trkpt lat="65.35117" lon="12.18207">
        <ele>70.627874</ele>
        <time>2020-08-13T07:55:04.825Z</time>
      </trkpt>
      <trkpt lat="65.35123" lon="12.18185">
        <ele>71.237612</ele>
        <time>2020-08-13T07:55:08.817Z</time>
      </trkpt>
      <trkpt lat="65.3513" lon="12.18165">
        <ele>71.881159</ele>
        <time>2020-08-13T07:55:12.823Z</time>
      </trkpt>
      <trkpt lat="65.35136" lon="12.18144">
        <ele>72.521076</ele>
        <time>2020-08-13T07:55:16.827Z</time>
      </trkpt>
      <trkpt lat="65.35142" lon="12.18126">
        <ele>73.095144</ele>
        <time>2020-08-13T07:55:20.832Z</time>
      </trkpt>
      <trkpt lat="65.35148" lon="12.18107">
        <ele>73.636325</ele>
        <time>2020-08-13T07:55:24.829Z</time>
      </trkpt>
      <trkpt lat="65.35153" lon="12.18085">
        <ele>74.262533</ele>
        <time>2020-08-13T07:55:29.876Z</time>
      </trkpt>
      <trkpt lat="65.35159" lon="12.18067">
        <ele>74.809127</ele>
        <time>2020-08-13T07:55:33.844Z</time>
      </trkpt>
      <trkpt lat="65.35164" lon="12.1805">
        <ele>75.362256</ele>
        <time>2020-08-13T07:55:37.818Z</time>
      </trkpt>
      <trkpt lat="65.35171" lon="12.18028">
        <ele>76.001901</ele>
        <time>2020-08-13T07:55:41.817Z</time>
      </trkpt>
      <trkpt lat="65.35177" lon="12.18005">
        <ele>76.6738</ele>
        <time>2020-08-13T07:55:45.822Z</time>
      </trkpt>
      <trkpt lat="65.35183" lon="12.17984">
        <ele>77.287273</ele>
        <time>2020-08-13T07:55:49.809Z</time>
      </trkpt>
      <trkpt lat="65.35189" lon="12.17966">
        <ele>77.863604</ele>
        <time>2020-08-13T07:55:53.845Z</time>
      </trkpt>
      <trkpt lat="65.35196" lon="12.17945">
        <ele>78.542832</ele>
        <time>2020-08-13T07:55:57.814Z</time>
      </trkpt>
      <trkpt lat="65.35204" lon="12.17924">
        <ele>79.208978</ele>
        <time>2020-08-13T07:56:01.831Z</time>
      </trkpt>
      <trkpt lat="65.35209" lon="12.17903">
        <ele>79.823908</ele>
        <time>2020-08-13T07:56:05.832Z</time>
      </trkpt>
      <trkpt lat="65.35216" lon="12.17882">
        <ele>80.456156</ele>
        <time>2020-08-13T07:56:09.821Z</time>
      </trkpt>
      <trkpt lat="65.35221" lon="12.1786">
        <ele>81.080255</ele>
        <time>2020-08-13T07:56:13.848Z</time>
      </trkpt>
      <trkpt lat="65.35227" lon="12.17841">
        <ele>81.479116</ele>
        <time>2020-08-13T07:56:17.823Z</time>
      </trkpt>
      <trkpt lat="65.35232" lon="12.17823">
        <ele>81.776179</ele>
        <time>2020-08-13T07:56:21.826Z</time>
      </trkpt>
      <trkpt lat="65.35238" lon="12.17807">
        <ele>82.069183</ele>
        <time>2020-08-13T07:56:25.850Z</time>
      </trkpt>
      <trkpt lat="65.35243" lon="12.17789">
        <ele>82.354224</ele>
        <time>2020-08-13T07:56:29.827Z</time>
      </trkpt>
      <trkpt lat="65.35249" lon="12.17766">
        <ele>82.705615</ele>
        <time>2020-08-13T07:56:34.825Z</time>
      </trkpt>
      <trkpt lat="65.35254" lon="12.17749">
        <ele>82.989535</ele>
        <time>2020-08-13T07:56:38.826Z</time>
      </trkpt>
      <trkpt lat="65.3526" lon="12.17731">
        <ele>83.276888</ele>
        <time>2020-08-13T07:56:42.817Z</time>
      </trkpt>
      <trkpt lat="65.35266" lon="12.17712">
        <ele>83.603307</ele>
        <time>2020-08-13T07:56:47.829Z</time>
      </trkpt>
      <trkpt lat="65.35273" lon="12.17691">
        <ele>83.95258</ele>
        <time>2020-08-13T07:56:53.853Z</time>
      </trkpt>
      <trkpt lat="65.35279" lon="12.17672">
        <ele>84.269755</ele>
        <time>2020-08-13T07:56:58.892Z</time>
      </trkpt>
      <trkpt lat="65.35288" lon="12.17657">
        <ele>84.608857</ele>
        <time>2020-08-13T07:57:03.833Z</time>
      </trkpt>
      <trkpt lat="65.35296" lon="12.17643">
        <ele>84.938146</ele>
        <time>2020-08-13T07:57:08.807Z</time>
      </trkpt>
      <trkpt lat="65.35305" lon="12.17631">
        <ele>85.268062</ele>
        <time>2020-08-13T07:57:13.836Z</time>
      </trkpt>
      <trkpt lat="65.35315" lon="12.17619">
        <ele>85.603267</ele>
        <time>2020-08-13T07:57:18.807Z</time>
      </trkpt>
      <trkpt lat="65.35325" lon="12.17609">
        <ele>85.954552</ele>
        <time>2020-08-13T07:57:23.844Z</time>
      </trkpt>
      <trkpt lat="65.35335" lon="12.17597">
        <ele>86.319736</ele>
        <time>2020-08-13T07:57:28.814Z</time>
      </trkpt>
      <trkpt lat="65.35344" lon="12.1759">
        <ele>86.627734</ele>
        <time>2020-08-13T07:57:32.816Z</time>
      </trkpt>
      <trkpt lat="65.35353" lon="12.17581">
        <ele>86.919036</ele>
        <time>2020-08-13T07:57:36.830Z</time>
      </trkpt>
      <trkpt lat="65.35361" lon="12.17573">
        <ele>86.929183</ele>
        <time>2020-08-13T07:57:40.859Z</time>
      </trkpt>
      <trkpt lat="65.35369" lon="12.17563">
        <ele>86.860398</ele>
        <time>2020-08-13T07:57:44.830Z</time>
      </trkpt>
      <trkpt lat="65.35378" lon="12.17552">
        <ele>86.787956</ele>
        <time>2020-08-13T07:57:48.856Z</time>
      </trkpt>
      <trkpt lat="65.35388" lon="12.17541">
        <ele>86.705823</ele>
        <time>2020-08-13T07:57:52.825Z</time>
      </trkpt>
      <trkpt lat="65.35397" lon="12.17531">
        <ele>86.629348</ele>
        <time>2020-08-13T07:57:56.833Z</time>
      </trkpt>
      <trkpt lat="65.35407" lon="12.17521">
        <ele>86.544564</ele>
        <time>2020-08-13T07:58:00.808Z</time>
      </trkpt>
      <trkpt lat="65.35418" lon="12.1751">
        <ele>86.45871</ele>
        <time>2020-08-13T07:58:04.842Z</time>
      </trkpt>
      <trkpt lat="65.35428" lon="12.17497">
        <ele>86.371376</ele>
        <time>2020-08-13T07:58:08.825Z</time>
      </trkpt>
      <trkpt lat="65.35438" lon="12.17486">
        <ele>86.287328</ele>
        <time>2020-08-13T07:58:12.814Z</time>
      </trkpt>
      <trkpt lat="65.35447" lon="12.17475">
        <ele>86.211188</ele>
        <time>2020-08-13T07:58:16.845Z</time>
      </trkpt>
      <trkpt lat="65.35457" lon="12.17463">
        <ele>86.125571</ele>
        <time>2020-08-13T07:58:20.825Z</time>
      </trkpt>
      <trkpt lat="65.35465" lon="12.17453">
        <ele>86.057058</ele>
        <time>2020-08-13T07:58:23.828Z</time>
      </trkpt>
      <trkpt lat="65.35474" lon="12.17444">
        <ele>85.985113</ele>
        <time>2020-08-13T07:58:26.850Z</time>
      </trkpt>
      <trkpt lat="65.35483" lon="12.17433">
        <ele>85.909099</ele>
        <time>2020-08-13T07:58:29.835Z</time>
      </trkpt>
      <trkpt lat="65.35492" lon="12.17422">
        <ele>85.832128</ele>
        <time>2020-08-13T07:58:32.809Z</time>
      </trkpt>
      <trkpt lat="65.35502" lon="12.17412">
        <ele>85.75351</ele>
        <time>2020-08-13T07:58:35.850Z</time>
      </trkpt>
      <trkpt lat="65.35512" lon="12.17399">
        <ele>85.6644</ele>
        <time>2020-08-13T07:58:38.818Z</time>
      </trkpt>
      <trkpt lat="65.35523" lon="12.17386">
        <ele>85.821745</ele>
        <time>2020-08-13T07:58:41.808Z</time>
      </trkpt>
      <trkpt lat="65.35533" lon="12.17374">
        <ele>86.14172</ele>
        <time>2020-08-13T07:58:44.847Z</time>
      </trkpt>
      <trkpt lat="65.35544" lon="12.17362">
        <ele>86.46278</ele>
        <time>2020-08-13T07:58:47.822Z</time>
      </trkpt>
      <trkpt lat="65.35554" lon="12.17349">
        <ele>86.797965</ele>
        <time>2020-08-13T07:58:50.834Z</time>
      </trkpt>
      <trkpt lat="65.35566" lon="12.17339">
        <ele>87.137964</ele>
        <time>2020-08-13T07:58:53.813Z</time>
      </trkpt>
      <trkpt lat="65.35577" lon="12.17333">
        <ele>87.465638</ele>
        <time>2020-08-13T07:58:56.822Z</time>
      </trkpt>
      <trkpt lat="65.35589" lon="12.1733">
        <ele>87.787253</ele>
        <time>2020-08-13T07:58:59.830Z</time>
      </trkpt>
      <trkpt lat="65.356" lon="12.17327">
        <ele>88.121065</ele>
        <time>2020-08-13T07:59:02.829Z</time>
      </trkpt>
      <trkpt lat="65.35612" lon="12.17324">
        <ele>88.451062</ele>
        <time>2020-08-13T07:59:05.833Z</time>
      </trkpt>
      <trkpt lat="65.35625" lon="12.17323">
        <ele>88.807712</ele>
        <time>2020-08-13T07:59:08.827Z</time>
      </trkpt>
      <trkpt lat="65.35637" lon="12.17323">
        <ele>89.158777</ele>
        <time>2020-08-13T07:59:11.874Z</time>
      </trkpt>
      <trkpt lat="65.3565" lon="12.17322">
        <ele>89.506981</ele>
        <time>2020-08-13T07:59:14.818Z</time>
      </trkpt>
      <trkpt lat="65.35662" lon="12.17322">
        <ele>89.849501</ele>
        <time>2020-08-13T07:59:17.835Z</time>
      </trkpt>
      <trkpt lat="65.35674" lon="12.17322">
        <ele>90.192026</ele>
        <time>2020-08-13T07:59:20.825Z</time>
      </trkpt>
      <trkpt lat="65.35687" lon="12.17322">
        <ele>90.557004</ele>
        <time>2020-08-13T07:59:23.833Z</time>
      </trkpt>
      <trkpt lat="65.357" lon="12.17322">
        <ele>90.436373</ele>
        <time>2020-08-13T07:59:26.831Z</time>
      </trkpt>
      <trkpt lat="65.35713" lon="12.17319">
        <ele>90.07292</ele>
        <time>2020-08-13T07:59:29.838Z</time>
      </trkpt>
      <trkpt lat="65.35725" lon="12.17317">
        <ele>89.741063</ele>
        <time>2020-08-13T07:59:32.835Z</time>
      </trkpt>
      <trkpt lat="65.35736" lon="12.1732">
        <ele>89.41621</ele>
        <time>2020-08-13T07:59:35.864Z</time>
      </trkpt>
      <trkpt lat="65.35748" lon="12.17324">
        <ele>89.073833</ele>
        <time>2020-08-13T07:59:38.850Z</time>
      </trkpt>
      <trkpt lat="65.35761" lon="12.17327">
        <ele>88.715608</ele>
        <time>2020-08-13T07:59:41.836Z</time>
      </trkpt>
      <trkpt lat="65.35773" lon="12.17331">
        <ele>88.380233</ele>
        <time>2020-08-13T07:59:44.836Z</time>
      </trkpt>
      <trkpt lat="65.35785" lon="12.17339">
        <ele>88.029433</ele>
        <time>2020-08-13T07:59:47.850Z</time>
      </trkpt>
      <trkpt lat="65.35799" lon="12.17344">
        <ele>87.653709</ele>
        <time>2020-08-13T07:59:50.821Z</time>
      </trkpt>
      <trkpt lat="65.35808" lon="12.17348">
        <ele>87.396427</ele>
        <time>2020-08-13T07:59:52.830Z</time>
      </trkpt>
      <trkpt lat="65.35818" lon="12.17352">
        <ele>87.119917</ele>
        <time>2020-08-13T07:59:54.838Z</time>
      </trkpt>
      <trkpt lat="65.35828" lon="12.17356">
        <ele>86.825563</ele>
        <time>2020-08-13T07:59:56.846Z</time>
      </trkpt>
      <trkpt lat="65.35839" lon="12.17361">
        <ele>86.50023</ele>
        <time>2020-08-13T07:59:58.835Z</time>
      </trkpt>
      <trkpt lat="65.35851" lon="12.17366">
        <ele>86.167428</ele>
        <time>2020-08-13T08:00:00.836Z</time>
      </trkpt>
      <trkpt lat="65.35863" lon="12.1737">
        <ele>85.834254</ele>
        <time>2020-08-13T08:00:02.818Z</time>
      </trkpt>
      <trkpt lat="65.35875" lon="12.17375">
        <ele>85.41047</ele>
        <time>2020-08-13T08:00:04.817Z</time>
      </trkpt>
      <trkpt lat="65.35887" lon="12.1738">
        <ele>84.865019</ele>
        <time>2020-08-13T08:00:06.842Z</time>
      </trkpt>
      <trkpt lat="65.359" lon="12.17386">
        <ele>84.265893</ele>
        <time>2020-08-13T08:00:08.824Z</time>
      </trkpt>
      <trkpt lat="65.35915" lon="12.17392">
        <ele>83.619098</ele>
        <time>2020-08-13T08:00:10.818Z</time>
      </trkpt>
      <trkpt lat="65.35929" lon="12.17401">
        <ele>82.971557</ele>
        <time>2020-08-13T08:00:12.822Z</time>
      </trkpt>
      <trkpt lat="65.35943" lon="12.17411">
        <ele>82.314596</ele>
        <time>2020-08-13T08:00:14.814Z</time>
      </trkpt>
      <trkpt lat="65.35958" lon="12.17423">
        <ele>81.643844</ele>
        <time>2020-08-13T08:00:16.814Z</time>
      </trkpt>
      <trkpt lat="65.35971" lon="12.17436">
        <ele>81.002645</ele>
        <time>2020-08-13T08:00:18.828Z</time>
      </trkpt>
      <trkpt lat="65.35985" lon="12.17446">
        <ele>80.385576</ele>
        <time>2020-08-13T08:00:20.865Z</time>
      </trkpt>
      <trkpt lat="65.35998" lon="12.17454">
        <ele>79.772295</ele>
        <time>2020-08-13T08:00:22.808Z</time>
      </trkpt>
      <trkpt lat="65.36012" lon="12.17462">
        <ele>79.151329</ele>
        <time>2020-08-13T08:00:24.838Z</time>
      </trkpt>
      <trkpt lat="65.36025" lon="12.1747">
        <ele>78.55559</ele>
        <time>2020-08-13T08:00:26.828Z</time>
      </trkpt>
      <trkpt lat="65.36038" lon="12.17476">
        <ele>77.947153</ele>
        <time>2020-08-13T08:00:28.829Z</time>
      </trkpt>
      <trkpt lat="65.36052" lon="12.17481">
        <ele>77.266257</ele>
        <time>2020-08-13T08:00:30.874Z</time>
      </trkpt>
      <trkpt lat="65.36064" lon="12.17486">
        <ele>76.575889</ele>
        <time>2020-08-13T08:00:32.829Z</time>
      </trkpt>
      <trkpt lat="65.36076" lon="12.17492">
        <ele>75.90997</ele>
        <time>2020-08-13T08:00:34.842Z</time>
      </trkpt>
      <trkpt lat="65.36089" lon="12.17498">
        <ele>75.244489</ele>
        <time>2020-08-13T08:00:36.827Z</time>
      </trkpt>
      <trkpt lat="65.36101" lon="12.17501">
        <ele>74.545662</ele>
        <time>2020-08-13T08:00:38.837Z</time>
      </trkpt>
      <trkpt lat="65.36116" lon="12.17503">
        <ele>73.777422</ele>
        <time>2020-08-13T08:00:40.857Z</time>
      </trkpt>
      <trkpt lat="65.36131" lon="12.17508">
        <ele>72.959498</ele>
        <time>2020-08-13T08:00:42.834Z</time>
      </trkpt>
      <trkpt lat="65.36146" lon="12.17515">
        <ele>72.134374</ele>
        <time>2020-08-13T08:00:44.823Z</time>
      </trkpt>
      <trkpt lat="65.36161" lon="12.17522">
        <ele>71.290113</ele>
        <time>2020-08-13T08:00:46.870Z</time>
      </trkpt>
      <trkpt lat="65.36178" lon="12.17524">
        <ele>70.382342</ele>
        <time>2020-08-13T08:00:48.844Z</time>
      </trkpt>
      <trkpt lat="65.36196" lon="12.17515">
        <ele>69.360491</ele>
        <time>2020-08-13T08:00:50.828Z</time>
      </trkpt>
      <trkpt lat="65.36206" lon="12.17505">
        <ele>68.788254</ele>
        <time>2020-08-13T08:00:51.872Z</time>
      </trkpt>
      <trkpt lat="65.36215" lon="12.1749">
        <ele>68.186335</ele>
        <time>2020-08-13T08:00:52.844Z</time>
      </trkpt>
      <trkpt lat="65.36224" lon="12.17472">
        <ele>67.267648</ele>
        <time>2020-08-13T08:00:53.810Z</time>
      </trkpt>
      <trkpt lat="65.36232" lon="12.17451">
        <ele>66.260549</ele>
        <time>2020-08-13T08:00:54.821Z</time>
      </trkpt>
      <trkpt lat="65.3624" lon="12.17431">
        <ele>65.281873</ele>
        <time>2020-08-13T08:00:55.827Z</time>
      </trkpt>
      <trkpt lat="65.36247" lon="12.1741">
        <ele>64.327854</ele>
        <time>2020-08-13T08:00:56.828Z</time>
      </trkpt>
      <trkpt lat="65.36253" lon="12.17388">
        <ele>63.372013</ele>
        <time>2020-08-13T08:00:57.818Z</time>
      </trkpt>
      <trkpt lat="65.3626" lon="12.17366">
        <ele>62.408394</ele>
        <time>2020-08-13T08:00:58.813Z</time>
      </trkpt>
      <trkpt lat="65.36266" lon="12.17341">
        <ele>61.396788</ele>
        <time>2020-08-13T08:00:59.819Z</time>
      </trkpt>
      <trkpt lat="65.36272" lon="12.17316">
        <ele>60.321506</ele>
        <time>2020-08-13T08:01:00.821Z</time>
      </trkpt>
      <trkpt lat="65.36279" lon="12.1729">
        <ele>59.241426</ele>
        <time>2020-08-13T08:01:01.828Z</time>
      </trkpt>
      <trkpt lat="65.36285" lon="12.17265">
        <ele>58.202143</ele>
        <time>2020-08-13T08:01:02.847Z</time>
      </trkpt>
      <trkpt lat="65.3629" lon="12.17241">
        <ele>57.234466</ele>
        <time>2020-08-13T08:01:03.819Z</time>
      </trkpt>
      <trkpt lat="65.36295" lon="12.17221">
        <ele>56.382963</ele>
        <time>2020-08-13T08:01:04.832Z</time>
      </trkpt>
      <trkpt lat="65.36304" lon="12.17186">
        <ele>54.950711</ele>
        <time>2020-08-13T08:01:06.826Z</time>
      </trkpt>
      <trkpt lat="65.36311" lon="12.17158">
        <ele>53.752538</ele>
        <time>2020-08-13T08:01:08.826Z</time>
      </trkpt>
      <trkpt lat="65.3632" lon="12.17135">
        <ele>52.628294</ele>
        <time>2020-08-13T08:01:10.853Z</time>
      </trkpt>
      <trkpt lat="65.36334" lon="12.17116">
        <ele>51.870886</ele>
        <time>2020-08-13T08:01:12.827Z</time>
      </trkpt>
      <trkpt lat="65.36351" lon="12.17121">
        <ele>51.050489</ele>
        <time>2020-08-13T08:01:14.843Z</time>
      </trkpt>
      <trkpt lat="65.36359" lon="12.17132">
        <ele>50.605389</ele>
        <time>2020-08-13T08:01:15.830Z</time>
      </trkpt>
      <trkpt lat="65.36366" lon="12.17144">
        <ele>50.161864</ele>
        <time>2020-08-13T08:01:16.827Z</time>
      </trkpt>
      <trkpt lat="65.36374" lon="12.17157">
        <ele>49.719479</ele>
        <time>2020-08-13T08:01:17.811Z</time>
      </trkpt>
      <trkpt lat="65.36388" lon="12.17184">
        <ele>48.865517</ele>
        <time>2020-08-13T08:01:19.866Z</time>
      </trkpt>
      <trkpt lat="65.36403" lon="12.17208">
        <ele>48.012314</ele>
        <time>2020-08-13T08:01:21.821Z</time>
      </trkpt>
      <trkpt lat="65.36417" lon="12.1723">
        <ele>47.18882</ele>
        <time>2020-08-13T08:01:23.823Z</time>
      </trkpt>
      <trkpt lat="65.36431" lon="12.17254">
        <ele>46.368734</ele>
        <time>2020-08-13T08:01:25.814Z</time>
      </trkpt>
      <trkpt lat="65.36442" lon="12.17283">
        <ele>45.582528</ele>
        <time>2020-08-13T08:01:27.857Z</time>
      </trkpt>
      <trkpt lat="65.36449" lon="12.17314">
        <ele>44.880538</ele>
        <time>2020-08-13T08:01:29.859Z</time>
      </trkpt>
      <trkpt lat="65.36453" lon="12.17343">
        <ele>44.259879</ele>
        <time>2020-08-13T08:01:31.826Z</time>
      </trkpt>
      <trkpt lat="65.36456" lon="12.17372">
        <ele>43.923346</ele>
        <time>2020-08-13T08:01:33.819Z</time>
      </trkpt>
      <trkpt lat="65.36458" lon="12.17398">
        <ele>43.817573</ele>
        <time>2020-08-13T08:01:35.854Z</time>
      </trkpt>
      <trkpt lat="65.3646" lon="12.17423">
        <ele>43.71841</ele>
        <time>2020-08-13T08:01:37.848Z</time>
      </trkpt>
      <trkpt lat="65.36463" lon="12.17446">
        <ele>43.623897</ele>
        <time>2020-08-13T08:01:39.828Z</time>
      </trkpt>
      <trkpt lat="65.36466" lon="12.17467">
        <ele>43.535983</ele>
        <time>2020-08-13T08:01:41.817Z</time>
      </trkpt>
      <trkpt lat="65.36469" lon="12.17487">
        <ele>43.451198</ele>
        <time>2020-08-13T08:01:43.818Z</time>
      </trkpt>
      <trkpt lat="65.36474" lon="12.17516">
        <ele>43.329378</ele>
        <time>2020-08-13T08:01:46.831Z</time>
      </trkpt>
      <trkpt lat="65.36477" lon="12.17537">
        <ele>43.242954</ele>
        <time>2020-08-13T08:01:48.836Z</time>
      </trkpt>
      <trkpt lat="65.36482" lon="12.17565">
        <ele>43.122408</ele>
        <time>2020-08-13T08:01:51.846Z</time>
      </trkpt>
      <trkpt lat="65.36486" lon="12.17593">
        <ele>43.002441</ele>
        <time>2020-08-13T08:01:54.832Z</time>
      </trkpt>
      <trkpt lat="65.36491" lon="12.17621">
        <ele>42.88552</ele>
        <time>2020-08-13T08:01:57.816Z</time>
      </trkpt>
      <trkpt lat="65.36497" lon="12.17648">
        <ele>42.765944</ele>
        <time>2020-08-13T08:02:00.826Z</time>
      </trkpt>
      <trkpt lat="65.36501" lon="12.17674">
        <ele>42.656291</ele>
        <time>2020-08-13T08:02:03.818Z</time>
      </trkpt>
      <trkpt lat="65.36506" lon="12.177">
        <ele>42.542973</ele>
        <time>2020-08-13T08:02:06.861Z</time>
      </trkpt>
      <trkpt lat="65.3651" lon="12.17728">
        <ele>42.427838</ele>
        <time>2020-08-13T08:02:09.814Z</time>
      </trkpt>
      <trkpt lat="65.36516" lon="12.17752">
        <ele>42.319259</ele>
        <time>2020-08-13T08:02:12.830Z</time>
      </trkpt>
      <trkpt lat="65.36521" lon="12.17778">
        <ele>42.55083</ele>
        <time>2020-08-13T08:02:15.829Z</time>
      </trkpt>
      <trkpt lat="65.36526" lon="12.17805">
        <ele>42.945585</ele>
        <time>2020-08-13T08:02:18.841Z</time>
      </trkpt>
      <trkpt lat="65.36532" lon="12.17833">
        <ele>43.348976</ele>
        <time>2020-08-13T08:02:21.862Z</time>
      </trkpt>
      <trkpt lat="65.36537" lon="12.1786">
        <ele>43.739812</ele>
        <time>2020-08-13T08:02:24.838Z</time>
      </trkpt>
      <trkpt lat="65.36544" lon="12.17885">
        <ele>44.116747</ele>
        <time>2020-08-13T08:02:27.826Z</time>
      </trkpt>
      <trkpt lat="65.3655" lon="12.1791">
        <ele>44.498643</ele>
        <time>2020-08-13T08:02:30.830Z</time>
      </trkpt>
      <trkpt lat="65.36556" lon="12.17935">
        <ele>44.890933</ele>
        <time>2020-08-13T08:02:33.818Z</time>
      </trkpt>
      <trkpt lat="65.36563" lon="12.17961">
        <ele>45.286535</ele>
        <time>2020-08-13T08:02:36.836Z</time>
      </trkpt>
      <trkpt lat="65.3657" lon="12.17985">
        <ele>45.673502</ele>
        <time>2020-08-13T08:02:39.823Z</time>
      </trkpt>
      <trkpt lat="65.36577" lon="12.18009">
        <ele>46.046151</ele>
        <time>2020-08-13T08:02:42.835Z</time>
      </trkpt>
      <trkpt lat="65.36583" lon="12.18031">
        <ele>46.380378</ele>
        <time>2020-08-13T08:02:45.808Z</time>
      </trkpt>
      <trkpt lat="65.36589" lon="12.18051">
        <ele>46.71122</ele>
        <time>2020-08-13T08:02:48.826Z</time>
      </trkpt>
      <trkpt lat="65.36594" lon="12.18072">
        <ele>47.039987</ele>
        <time>2020-08-13T08:02:51.846Z</time>
      </trkpt>
      <trkpt lat="65.366" lon="12.18095">
        <ele>47.376882</ele>
        <time>2020-08-13T08:02:54.843Z</time>
      </trkpt>
      <trkpt lat="65.36605" lon="12.18118">
        <ele>47.726758</ele>
        <time>2020-08-13T08:02:57.844Z</time>
      </trkpt>
      <trkpt lat="65.36611" lon="12.18144">
        <ele>47.88575</ele>
        <time>2020-08-13T08:03:00.825Z</time>
      </trkpt>
      <trkpt lat="65.36617" lon="12.1817">
        <ele>47.819636</ele>
        <time>2020-08-13T08:03:03.826Z</time>
      </trkpt>
      <trkpt lat="65.36624" lon="12.18196">
        <ele>47.753492</ele>
        <time>2020-08-13T08:03:06.840Z</time>
      </trkpt>
      <trkpt lat="65.3663" lon="12.1822">
        <ele>47.690352</ele>
        <time>2020-08-13T08:03:09.825Z</time>
      </trkpt>
      <trkpt lat="65.36637" lon="12.18243">
        <ele>47.629679</ele>
        <time>2020-08-13T08:03:12.833Z</time>
      </trkpt>
      <trkpt lat="65.36643" lon="12.18265">
        <ele>47.570276</ele>
        <time>2020-08-13T08:03:15.856Z</time>
      </trkpt>
      <trkpt lat="65.36648" lon="12.18287">
        <ele>47.512928</ele>
        <time>2020-08-13T08:03:18.849Z</time>
      </trkpt>
      <trkpt lat="65.36654" lon="12.18309">
        <ele>47.45558</ele>
        <time>2020-08-13T08:03:21.815Z</time>
      </trkpt>
      <trkpt lat="65.3666" lon="12.18332">
        <ele>47.396547</ele>
        <time>2020-08-13T08:03:24.844Z</time>
      </trkpt>
      <trkpt lat="65.36665" lon="12.18356">
        <ele>47.336849</ele>
        <time>2020-08-13T08:03:27.830Z</time>
      </trkpt>
      <trkpt lat="65.36671" lon="12.18381">
        <ele>47.274132</ele>
        <time>2020-08-13T08:03:30.847Z</time>
      </trkpt>
      <trkpt lat="65.36678" lon="12.18408">
        <ele>47.203147</ele>
        <time>2020-08-13T08:03:33.849Z</time>
      </trkpt>
      <trkpt lat="65.36684" lon="12.18427">
        <ele>47.152303</ele>
        <time>2020-08-13T08:03:35.852Z</time>
      </trkpt>
      <trkpt lat="65.3669" lon="12.18447">
        <ele>47.099653</ele>
        <time>2020-08-13T08:03:37.828Z</time>
      </trkpt>
      <trkpt lat="65.36695" lon="12.18466">
        <ele>47.047303</ele>
        <time>2020-08-13T08:03:39.838Z</time>
      </trkpt>
      <trkpt lat="65.36701" lon="12.18486">
        <ele>46.993907</ele>
        <time>2020-08-13T08:03:41.856Z</time>
      </trkpt>
      <trkpt lat="65.36707" lon="12.18504">
        <ele>47.015055</ele>
        <time>2020-08-13T08:03:43.829Z</time>
      </trkpt>
      <trkpt lat="65.36713" lon="12.18522">
        <ele>47.107317</ele>
        <time>2020-08-13T08:03:45.841Z</time>
      </trkpt>
      <trkpt lat="65.3672" lon="12.18547">
        <ele>47.234559</ele>
        <time>2020-08-13T08:03:48.834Z</time>
      </trkpt>
      <trkpt lat="65.36726" lon="12.18571">
        <ele>47.354577</ele>
        <time>2020-08-13T08:03:51.825Z</time>
      </trkpt>
      <trkpt lat="65.36732" lon="12.18595">
        <ele>47.473756</ele>
        <time>2020-08-13T08:03:54.822Z</time>
      </trkpt>
      <trkpt lat="65.36738" lon="12.18621">
        <ele>47.60165</ele>
        <time>2020-08-13T08:03:57.830Z</time>
      </trkpt>
      <trkpt lat="65.36744" lon="12.18646">
        <ele>47.7229</ele>
        <time>2020-08-13T08:04:00.825Z</time>
      </trkpt>
      <trkpt lat="65.36749" lon="12.18669">
        <ele>47.83316</ele>
        <time>2020-08-13T08:04:03.845Z</time>
      </trkpt>
      <trkpt lat="65.36753" lon="12.18695">
        <ele>47.951729</ele>
        <time>2020-08-13T08:04:06.873Z</time>
      </trkpt>
      <trkpt lat="65.36757" lon="12.18723">
        <ele>48.074053</ele>
        <time>2020-08-13T08:04:09.825Z</time>
      </trkpt>
      <trkpt lat="65.3676" lon="12.18752">
        <ele>48.198136</ele>
        <time>2020-08-13T08:04:12.856Z</time>
      </trkpt>
      <trkpt lat="65.36761" lon="12.1878">
        <ele>48.320081</ele>
        <time>2020-08-13T08:04:15.822Z</time>
      </trkpt>
      <trkpt lat="65.36761" lon="12.1881">
        <ele>48.444294</ele>
        <time>2020-08-13T08:04:18.855Z</time>
      </trkpt>
      <trkpt lat="65.36761" lon="12.18839">
        <ele>48.569787</ele>
        <time>2020-08-13T08:04:21.824Z</time>
      </trkpt>
      <trkpt lat="65.36761" lon="12.1887">
        <ele>48.697019</ele>
        <time>2020-08-13T08:04:24.819Z</time>
      </trkpt>
      <trkpt lat="65.36762" lon="12.18899">
        <ele>48.849654</ele>
        <time>2020-08-13T08:04:27.828Z</time>
      </trkpt>
      <trkpt lat="65.36762" lon="12.18928">
        <ele>49.082272</ele>
        <time>2020-08-13T08:04:30.834Z</time>
      </trkpt>
      <trkpt lat="65.36762" lon="12.18957">
        <ele>49.317232</ele>
        <time>2020-08-13T08:04:33.823Z</time>
      </trkpt>
      <trkpt lat="65.36762" lon="12.18983">
        <ele>49.519344</ele>
        <time>2020-08-13T08:04:36.815Z</time>
      </trkpt>
      <trkpt lat="65.36762" lon="12.19006">
        <ele>49.70643</ele>
        <time>2020-08-13T08:04:39.818Z</time>
      </trkpt>
      <trkpt lat="65.36762" lon="12.19032">
        <ele>49.91346</ele>
        <time>2020-08-13T08:04:43.844Z</time>
      </trkpt>
      <trkpt lat="65.36763" lon="12.19054">
        <ele>50.092941</ele>
        <time>2020-08-13T08:04:47.847Z</time>
      </trkpt>
      <trkpt lat="65.36763" lon="12.19078">
        <ele>50.286997</ele>
        <time>2020-08-13T08:04:51.824Z</time>
      </trkpt>
      <trkpt lat="65.36762" lon="12.19104">
        <ele>50.492381</ele>
        <time>2020-08-13T08:04:55.831Z</time>
      </trkpt>
      <trkpt lat="65.3676" lon="12.1913">
        <ele>50.703653</ele>
        <time>2020-08-13T08:04:59.826Z</time>
      </trkpt>
      <trkpt lat="65.36757" lon="12.19153">
        <ele>50.897109</ele>
        <time>2020-08-13T08:05:03.849Z</time>
      </trkpt>
      <trkpt lat="65.36755" lon="12.19175">
        <ele>51.081018</ele>
        <time>2020-08-13T08:05:07.861Z</time>
      </trkpt>
      <trkpt lat="65.36751" lon="12.19196">
        <ele>51.263351</ele>
        <time>2020-08-13T08:05:11.847Z</time>
      </trkpt>
      <trkpt lat="65.36746" lon="12.19216">
        <ele>51.45167</ele>
        <time>2020-08-13T08:05:15.831Z</time>
      </trkpt>
      <trkpt lat="65.3674" lon="12.19238">
        <ele>51.66615</ele>
        <time>2020-08-13T08:05:19.835Z</time>
      </trkpt>
      <trkpt lat="65.36735" lon="12.19263">
        <ele>51.887063</ele>
        <time>2020-08-13T08:05:23.817Z</time>
      </trkpt>
      <trkpt lat="65.3673" lon="12.19286">
        <ele>52.090083</ele>
        <time>2020-08-13T08:05:27.813Z</time>
      </trkpt>
      <trkpt lat="65.36725" lon="12.19313">
        <ele>52.095571</ele>
        <time>2020-08-13T08:05:31.831Z</time>
      </trkpt>
      <trkpt lat="65.36718" lon="12.19338">
        <ele>51.61439</ele>
        <time>2020-08-13T08:05:34.830Z</time>
      </trkpt>
      <trkpt lat="65.36712" lon="12.1936">
        <ele>51.206526</ele>
        <time>2020-08-13T08:05:36.824Z</time>
      </trkpt>
      <trkpt lat="65.36706" lon="12.19383">
        <ele>50.77646</ele>
        <time>2020-08-13T08:05:38.833Z</time>
      </trkpt>
      <trkpt lat="65.367" lon="12.19404">
        <ele>50.361869</ele>
        <time>2020-08-13T08:05:40.851Z</time>
      </trkpt>
      <trkpt lat="65.36693" lon="12.19426">
        <ele>49.918452</ele>
        <time>2020-08-13T08:05:42.841Z</time>
      </trkpt>
      <trkpt lat="65.36686" lon="12.19452">
        <ele>49.435921</ele>
        <time>2020-08-13T08:05:44.821Z</time>
      </trkpt>
      <trkpt lat="65.36683" lon="12.19486">
        <ele>48.878678</ele>
        <time>2020-08-13T08:05:46.842Z</time>
      </trkpt>
      <trkpt lat="65.36684" lon="12.19526">
        <ele>48.241796</ele>
        <time>2020-08-13T08:05:48.826Z</time>
      </trkpt>
      <trkpt lat="65.36689" lon="12.19564">
        <ele>47.606912</ele>
        <time>2020-08-13T08:05:50.817Z</time>
      </trkpt>
      <trkpt lat="65.36697" lon="12.19596">
        <ele>47.040336</ele>
        <time>2020-08-13T08:05:52.866Z</time>
      </trkpt>
      <trkpt lat="65.36705" lon="12.19622">
        <ele>46.522524</ele>
        <time>2020-08-13T08:05:54.825Z</time>
      </trkpt>
      <trkpt lat="65.36712" lon="12.19645">
        <ele>46.061096</ele>
        <time>2020-08-13T08:05:56.825Z</time>
      </trkpt>
      <trkpt lat="65.36718" lon="12.19666">
        <ele>45.656622</ele>
        <time>2020-08-13T08:05:58.835Z</time>
      </trkpt>
      <trkpt lat="65.36723" lon="12.19686">
        <ele>45.515325</ele>
        <time>2020-08-13T08:06:00.818Z</time>
      </trkpt>
      <trkpt lat="65.36728" lon="12.19706">
        <ele>45.878195</ele>
        <time>2020-08-13T08:06:02.829Z</time>
      </trkpt>
      <trkpt lat="65.36733" lon="12.19726">
        <ele>46.236508</ele>
        <time>2020-08-13T08:06:04.828Z</time>
      </trkpt>
      <trkpt lat="65.36739" lon="12.19744">
        <ele>46.585026</ele>
        <time>2020-08-13T08:06:06.890Z</time>
      </trkpt>
      <trkpt lat="65.36746" lon="12.19766">
        <ele>47.026606</ele>
        <time>2020-08-13T08:06:09.814Z</time>
      </trkpt>
      <trkpt lat="65.36754" lon="12.19775">
        <ele>47.370026</ele>
        <time>2020-08-13T08:06:12.833Z</time>
      </trkpt>
      <trkpt lat="65.36765" lon="12.1977">
        <ele>47.762629</ele>
        <time>2020-08-13T08:06:16.836Z</time>
      </trkpt>
      <trkpt lat="65.36774" lon="12.19758">
        <ele>48.162867</ele>
        <time>2020-08-13T08:06:21.822Z</time>
      </trkpt>
      <trkpt lat="65.36784" lon="12.19745">
        <ele>48.579764</ele>
        <time>2020-08-13T08:06:25.813Z</time>
      </trkpt>
      <trkpt lat="65.36792" lon="12.19734">
        <ele>48.92152</ele>
        <time>2020-08-13T08:06:28.830Z</time>
      </trkpt>
      <trkpt lat="65.36801" lon="12.1972">
        <ele>49.340895</ele>
        <time>2020-08-13T08:06:32.840Z</time>
      </trkpt>
      <trkpt lat="65.36808" lon="12.19706">
        <ele>49.683303</ele>
        <time>2020-08-13T08:06:36.823Z</time>
      </trkpt>
      <trkpt lat="65.36817" lon="12.19696">
        <ele>50.035343</ele>
        <time>2020-08-13T08:06:40.838Z</time>
      </trkpt>
      <trkpt lat="65.3683" lon="12.19699">
        <ele>50.542403</ele>
        <time>2020-08-13T08:07:45.825Z</time>
      </trkpt>
      <trkpt lat="65.3684" lon="12.19699">
        <ele>50.900786</ele>
        <time>2020-08-13T08:07:48.830Z</time>
      </trkpt>
      <trkpt lat="65.3685" lon="12.19699">
        <ele>51.296596</ele>
        <time>2020-08-13T08:07:51.853Z</time>
      </trkpt>
      <trkpt lat="65.3686" lon="12.197">
        <ele>51.655303</ele>
        <time>2020-08-13T08:07:54.908Z</time>
      </trkpt>
      <trkpt lat="65.36871" lon="12.19705">
        <ele>52.090654</ele>
        <time>2020-08-13T08:07:58.865Z</time>
      </trkpt>
      <trkpt lat="65.3688" lon="12.19711">
        <ele>52.091701</ele>
        <time>2020-08-13T08:08:01.829Z</time>
      </trkpt>
      <trkpt lat="65.36889" lon="12.19718">
        <ele>52.06557</ele>
        <time>2020-08-13T08:08:04.828Z</time>
      </trkpt>
      <trkpt lat="65.36898" lon="12.19725">
        <ele>52.039405</ele>
        <time>2020-08-13T08:08:07.845Z</time>
      </trkpt>
      <trkpt lat="65.36907" lon="12.19731">
        <ele>52.013441</ele>
        <time>2020-08-13T08:08:10.882Z</time>
      </trkpt>
      <trkpt lat="65.36915" lon="12.19743">
        <ele>51.988372</ele>
        <time>2020-08-13T08:08:13.827Z</time>
      </trkpt>
      <trkpt lat="65.36922" lon="12.19757">
        <ele>51.963282</ele>
        <time>2020-08-13T08:08:16.820Z</time>
      </trkpt>
      <trkpt lat="65.36931" lon="12.19765">
        <ele>51.937054</ele>
        <time>2020-08-13T08:08:19.829Z</time>
      </trkpt>
      <trkpt lat="65.36939" lon="12.19774">
        <ele>51.91183</ele>
        <time>2020-08-13T08:08:22.851Z</time>
      </trkpt>
      <trkpt lat="65.36948" lon="12.19784">
        <ele>51.884711</ele>
        <time>2020-08-13T08:08:25.848Z</time>
      </trkpt>
      <trkpt lat="65.36957" lon="12.19793">
        <ele>51.85651</ele>
        <time>2020-08-13T08:08:28.836Z</time>
      </trkpt>
      <trkpt lat="65.36968" lon="12.19802">
        <ele>51.825071</ele>
        <time>2020-08-13T08:08:31.827Z</time>
      </trkpt>
      <trkpt lat="65.3698" lon="12.1981">
        <ele>51.791747</ele>
        <time>2020-08-13T08:08:34.821Z</time>
      </trkpt>
      <trkpt lat="65.36992" lon="12.19819">
        <ele>51.755339</ele>
        <time>2020-08-13T08:08:37.816Z</time>
      </trkpt>
      <trkpt lat="65.37001" lon="12.19826">
        <ele>51.729012</ele>
        <time>2020-08-13T08:08:39.844Z</time>
      </trkpt>
      <trkpt lat="65.3701" lon="12.19835">
        <ele>51.702141</ele>
        <time>2020-08-13T08:08:41.832Z</time>
      </trkpt>
      <trkpt lat="65.37019" lon="12.19843">
        <ele>51.67527</ele>
        <time>2020-08-13T08:08:43.832Z</time>
      </trkpt>
      <trkpt lat="65.37029" lon="12.19852">
        <ele>51.647831</ele>
        <time>2020-08-13T08:08:45.821Z</time>
      </trkpt>
      <trkpt lat="65.37037" lon="12.1986">
        <ele>51.622417</ele>
        <time>2020-08-13T08:08:47.824Z</time>
      </trkpt>
      <trkpt lat="65.37049" lon="12.19873">
        <ele>51.440053</ele>
        <time>2020-08-13T08:08:50.833Z</time>
      </trkpt>
      <trkpt lat="65.37061" lon="12.19885">
        <ele>51.230577</ele>
        <time>2020-08-13T08:08:53.847Z</time>
      </trkpt>
      <trkpt lat="65.37073" lon="12.19897">
        <ele>51.021448</ele>
        <time>2020-08-13T08:08:56.822Z</time>
      </trkpt>
      <trkpt lat="65.37084" lon="12.19908">
        <ele>50.823216</ele>
        <time>2020-08-13T08:08:59.850Z</time>
      </trkpt>
      <trkpt lat="65.37096" lon="12.19921">
        <ele>50.621862</ele>
        <time>2020-08-13T08:09:02.849Z</time>
      </trkpt>
      <trkpt lat="65.37107" lon="12.19934">
        <ele>50.422016</ele>
        <time>2020-08-13T08:09:05.827Z</time>
      </trkpt>
      <trkpt lat="65.37118" lon="12.19946">
        <ele>50.229951</ele>
        <time>2020-08-13T08:09:08.859Z</time>
      </trkpt>
      <trkpt lat="65.37129" lon="12.19957">
        <ele>50.03988</ele>
        <time>2020-08-13T08:09:11.822Z</time>
      </trkpt>
      <trkpt lat="65.37139" lon="12.19968">
        <ele>49.861315</ele>
        <time>2020-08-13T08:09:14.817Z</time>
      </trkpt>
      <trkpt lat="65.37149" lon="12.19978">
        <ele>49.684752</ele>
        <time>2020-08-13T08:09:17.844Z</time>
      </trkpt>
      <trkpt lat="65.37161" lon="12.19991">
        <ele>49.485785</ele>
        <time>2020-08-13T08:09:20.814Z</time>
      </trkpt>
      <trkpt lat="65.37172" lon="12.20004">
        <ele>49.282772</ele>
        <time>2020-08-13T08:09:23.832Z</time>
      </trkpt>
      <trkpt lat="65.37184" lon="12.20016">
        <ele>49.076373</ele>
        <time>2020-08-13T08:09:26.854Z</time>
      </trkpt>
      <trkpt lat="65.37197" lon="12.20029">
        <ele>48.855697</ele>
        <time>2020-08-13T08:09:29.835Z</time>
      </trkpt>
      <trkpt lat="65.37206" lon="12.20039">
        <ele>48.692162</ele>
        <time>2020-08-13T08:09:31.827Z</time>
      </trkpt>
      <trkpt lat="65.37216" lon="12.20049">
        <ele>48.529949</ele>
        <time>2020-08-13T08:09:33.826Z</time>
      </trkpt>
      <trkpt lat="65.37227" lon="12.20059">
        <ele>48.359255</ele>
        <time>2020-08-13T08:09:35.848Z</time>
      </trkpt>
      <trkpt lat="65.37238" lon="12.20069">
        <ele>48.181431</ele>
        <time>2020-08-13T08:09:37.818Z</time>
      </trkpt>
      <trkpt lat="65.37249" lon="12.2008">
        <ele>48.00592</ele>
        <time>2020-08-13T08:09:39.842Z</time>
      </trkpt>
      <trkpt lat="65.3726" lon="12.2009">
        <ele>47.834997</ele>
        <time>2020-08-13T08:09:41.832Z</time>
      </trkpt>
      <trkpt lat="65.3727" lon="12.201">
        <ele>47.674383</ele>
        <time>2020-08-13T08:09:43.821Z</time>
      </trkpt>
      <trkpt lat="65.37279" lon="12.2011">
        <ele>47.523796</ele>
        <time>2020-08-13T08:09:45.850Z</time>
      </trkpt>
      <trkpt lat="65.37288" lon="12.20119">
        <ele>47.382594</ele>
        <time>2020-08-13T08:09:47.829Z</time>
      </trkpt>
      <trkpt lat="65.37297" lon="12.20128">
        <ele>47.241139</ele>
        <time>2020-08-13T08:09:49.829Z</time>
      </trkpt>
      <trkpt lat="65.37306" lon="12.20138">
        <ele>47.097048</ele>
        <time>2020-08-13T08:09:51.869Z</time>
      </trkpt>
      <trkpt lat="65.37314" lon="12.20147">
        <ele>46.954984</ele>
        <time>2020-08-13T08:09:53.824Z</time>
      </trkpt>
      <trkpt lat="65.37323" lon="12.20157">
        <ele>46.817574</ele>
        <time>2020-08-13T08:09:55.852Z</time>
      </trkpt>
      <trkpt lat="65.37331" lon="12.20166">
        <ele>46.684147</ele>
        <time>2020-08-13T08:09:57.830Z</time>
      </trkpt>
      <trkpt lat="65.37343" lon="12.20179">
        <ele>46.492742</ele>
        <time>2020-08-13T08:10:00.841Z</time>
      </trkpt>
      <trkpt lat="65.37355" lon="12.20193">
        <ele>46.296516</ele>
        <time>2020-08-13T08:10:03.818Z</time>
      </trkpt>
      <trkpt lat="65.37367" lon="12.20205">
        <ele>46.101935</ele>
        <time>2020-08-13T08:10:06.838Z</time>
      </trkpt>
      <trkpt lat="65.37378" lon="12.20218">
        <ele>46.1841</ele>
        <time>2020-08-13T08:10:09.819Z</time>
      </trkpt>
      <trkpt lat="65.37387" lon="12.20228">
        <ele>46.279795</ele>
        <time>2020-08-13T08:10:11.832Z</time>
      </trkpt>
      <trkpt lat="65.37395" lon="12.20236">
        <ele>46.375277</ele>
        <time>2020-08-13T08:10:13.876Z</time>
      </trkpt>
      <trkpt lat="65.37404" lon="12.20246">
        <ele>46.470429</ele>
        <time>2020-08-13T08:10:15.841Z</time>
      </trkpt>
      <trkpt lat="65.37413" lon="12.20255">
        <ele>46.568176</ele>
        <time>2020-08-13T08:10:17.869Z</time>
      </trkpt>
      <trkpt lat="65.37421" lon="12.20264">
        <ele>46.664148</ele>
        <time>2020-08-13T08:10:19.876Z</time>
      </trkpt>
      <trkpt lat="65.3743" lon="12.20273">
        <ele>46.756823</ele>
        <time>2020-08-13T08:10:21.848Z</time>
      </trkpt>
      <trkpt lat="65.37438" lon="12.20282">
        <ele>46.849777</ele>
        <time>2020-08-13T08:10:23.822Z</time>
      </trkpt>
      <trkpt lat="65.37446" lon="12.20291">
        <ele>46.942957</ele>
        <time>2020-08-13T08:10:25.832Z</time>
      </trkpt>
      <trkpt lat="65.37455" lon="12.203">
        <ele>47.041128</ele>
        <time>2020-08-13T08:10:27.833Z</time>
      </trkpt>
      <trkpt lat="65.37465" lon="12.20309">
        <ele>47.141319</ele>
        <time>2020-08-13T08:10:29.833Z</time>
      </trkpt>
      <trkpt lat="65.37474" lon="12.20316">
        <ele>47.24229</ele>
        <time>2020-08-13T08:10:31.852Z</time>
      </trkpt>
      <trkpt lat="65.37484" lon="12.20319">
        <ele>47.340827</ele>
        <time>2020-08-13T08:10:33.872Z</time>
      </trkpt>
      <trkpt lat="65.37493" lon="12.20321">
        <ele>47.436711</ele>
        <time>2020-08-13T08:10:35.853Z</time>
      </trkpt>
      <trkpt lat="65.37503" lon="12.20324">
        <ele>47.538654</ele>
        <time>2020-08-13T08:10:37.848Z</time>
      </trkpt>
      <trkpt lat="65.37512" lon="12.2032">
        <ele>47.632315</ele>
        <time>2020-08-13T08:10:39.838Z</time>
      </trkpt>
      <trkpt lat="65.37522" lon="12.20319">
        <ele>47.728752</ele>
        <time>2020-08-13T08:10:41.857Z</time>
      </trkpt>
      <trkpt lat="65.37534" lon="12.20326">
        <ele>47.858818</ele>
        <time>2020-08-13T08:10:44.835Z</time>
      </trkpt>
      <trkpt lat="65.37546" lon="12.20329">
        <ele>47.913168</ele>
        <time>2020-08-13T08:10:47.853Z</time>
      </trkpt>
      <trkpt lat="65.37559" lon="12.20331">
        <ele>47.93394</ele>
        <time>2020-08-13T08:10:50.851Z</time>
      </trkpt>
      <trkpt lat="65.37571" lon="12.20335">
        <ele>47.954097</ele>
        <time>2020-08-13T08:10:53.853Z</time>
      </trkpt>
      <trkpt lat="65.37583" lon="12.20336">
        <ele>47.97401</ele>
        <time>2020-08-13T08:10:56.837Z</time>
      </trkpt>
      <trkpt lat="65.37595" lon="12.20339">
        <ele>47.993485</ele>
        <time>2020-08-13T08:10:59.864Z</time>
      </trkpt>
      <trkpt lat="65.37607" lon="12.20344">
        <ele>48.013272</ele>
        <time>2020-08-13T08:11:02.864Z</time>
      </trkpt>
      <trkpt lat="65.37619" lon="12.20347">
        <ele>48.033103</ele>
        <time>2020-08-13T08:11:05.839Z</time>
      </trkpt>
      <trkpt lat="65.37632" lon="12.20349">
        <ele>48.05436</ele>
        <time>2020-08-13T08:11:08.835Z</time>
      </trkpt>
      <trkpt lat="65.37645" lon="12.20355">
        <ele>48.075395</ele>
        <time>2020-08-13T08:11:11.838Z</time>
      </trkpt>
      <trkpt lat="65.37656" lon="12.20357">
        <ele>48.094492</ele>
        <time>2020-08-13T08:11:14.847Z</time>
      </trkpt>
      <trkpt lat="65.37668" lon="12.20361">
        <ele>48.114047</ele>
        <time>2020-08-13T08:11:17.830Z</time>
      </trkpt>
      <trkpt lat="65.37679" lon="12.20364">
        <ele>48.133078</ele>
        <time>2020-08-13T08:11:20.833Z</time>
      </trkpt>
      <trkpt lat="65.37691" lon="12.20368">
        <ele>48.152135</ele>
        <time>2020-08-13T08:11:23.858Z</time>
      </trkpt>
      <trkpt lat="65.37702" lon="12.20371">
        <ele>48.170794</ele>
        <time>2020-08-13T08:11:26.846Z</time>
      </trkpt>
      <trkpt lat="65.37712" lon="12.20374">
        <ele>48.186916</ele>
        <time>2020-08-13T08:11:29.826Z</time>
      </trkpt>
      <trkpt lat="65.37722" lon="12.20377">
        <ele>48.121911</ele>
        <time>2020-08-13T08:11:32.865Z</time>
      </trkpt>
      <trkpt lat="65.37733" lon="12.20374">
        <ele>47.962824</ele>
        <time>2020-08-13T08:11:35.827Z</time>
      </trkpt>
      <trkpt lat="65.37744" lon="12.20371">
        <ele>47.800714</ele>
        <time>2020-08-13T08:11:38.844Z</time>
      </trkpt>
      <trkpt lat="65.37756" lon="12.20366">
        <ele>47.631878</ele>
        <time>2020-08-13T08:11:41.823Z</time>
      </trkpt>
      <trkpt lat="65.37769" lon="12.20357">
        <ele>47.444037</ele>
        <time>2020-08-13T08:11:44.836Z</time>
      </trkpt>
      <trkpt lat="65.37781" lon="12.20347">
        <ele>47.257321</ele>
        <time>2020-08-13T08:11:47.821Z</time>
      </trkpt>
      <trkpt lat="65.37789" lon="12.20337">
        <ele>47.127166</ele>
        <time>2020-08-13T08:11:49.827Z</time>
      </trkpt>
      <trkpt lat="65.378" lon="12.20319">
        <ele>46.933124</ele>
        <time>2020-08-13T08:11:52.836Z</time>
      </trkpt>
      <trkpt lat="65.37808" lon="12.20304">
        <ele>46.791347</ele>
        <time>2020-08-13T08:11:54.827Z</time>
      </trkpt>
      <trkpt lat="65.37815" lon="12.20288">
        <ele>46.651436</ele>
        <time>2020-08-13T08:11:56.835Z</time>
      </trkpt>
      <trkpt lat="65.37822" lon="12.20271">
        <ele>46.517074</ele>
        <time>2020-08-13T08:11:58.829Z</time>
      </trkpt>
      <trkpt lat="65.37828" lon="12.20255">
        <ele>46.387265</ele>
        <time>2020-08-13T08:12:00.834Z</time>
      </trkpt>
      <trkpt lat="65.37837" lon="12.20232">
        <ele>46.198599</ele>
        <time>2020-08-13T08:12:03.858Z</time>
      </trkpt>
      <trkpt lat="65.37845" lon="12.20208">
        <ele>46.011933</ele>
        <time>2020-08-13T08:12:06.819Z</time>
      </trkpt>
      <trkpt lat="65.37853" lon="12.20183">
        <ele>45.831199</ele>
        <time>2020-08-13T08:12:09.820Z</time>
      </trkpt>
      <trkpt lat="65.3786" lon="12.20161">
        <ele>45.66547</ele>
        <time>2020-08-13T08:12:12.851Z</time>
      </trkpt>
      <trkpt lat="65.37866" lon="12.20139">
        <ele>45.692833</ele>
        <time>2020-08-13T08:12:15.830Z</time>
      </trkpt>
      <trkpt lat="65.37873" lon="12.2012">
        <ele>45.771918</ele>
        <time>2020-08-13T08:12:18.821Z</time>
      </trkpt>
      <trkpt lat="65.37879" lon="12.20101">
        <ele>45.84537</ele>
        <time>2020-08-13T08:12:21.834Z</time>
      </trkpt>
      <trkpt lat="65.37883" lon="12.20081">
        <ele>45.915235</ele>
        <time>2020-08-13T08:12:24.840Z</time>
      </trkpt>
      <trkpt lat="65.37888" lon="12.20063">
        <ele>45.983401</ele>
        <time>2020-08-13T08:12:27.847Z</time>
      </trkpt>
      <trkpt lat="65.37895" lon="12.20044">
        <ele>46.056332</ele>
        <time>2020-08-13T08:12:30.850Z</time>
      </trkpt>
      <trkpt lat="65.379" lon="12.20028">
        <ele>46.123302</ele>
        <time>2020-08-13T08:12:33.822Z</time>
      </trkpt>
      <trkpt lat="65.37907" lon="12.20006">
        <ele>46.208477</ele>
        <time>2020-08-13T08:12:37.837Z</time>
      </trkpt>
      <trkpt lat="65.37914" lon="12.19982">
        <ele>46.296415</ele>
        <time>2020-08-13T08:12:41.847Z</time>
      </trkpt>
      <trkpt lat="65.37919" lon="12.19964">
        <ele>46.365309</ele>
        <time>2020-08-13T08:12:44.827Z</time>
      </trkpt>
      <trkpt lat="65.37925" lon="12.19946">
        <ele>46.435691</ele>
        <time>2020-08-13T08:12:47.845Z</time>
      </trkpt>
      <trkpt lat="65.3793" lon="12.19927">
        <ele>46.505693</ele>
        <time>2020-08-13T08:12:50.846Z</time>
      </trkpt>
      <trkpt lat="65.37936" lon="12.19909">
        <ele>46.573828</ele>
        <time>2020-08-13T08:12:53.842Z</time>
      </trkpt>
      <trkpt lat="65.37941" lon="12.19891">
        <ele>46.644457</ele>
        <time>2020-08-13T08:12:56.828Z</time>
      </trkpt>
      <trkpt lat="65.37947" lon="12.19873">
        <ele>46.714396</ele>
        <time>2020-08-13T08:12:59.825Z</time>
      </trkpt>
      <trkpt lat="65.37953" lon="12.19856">
        <ele>46.784702</ele>
        <time>2020-08-13T08:13:02.834Z</time>
      </trkpt>
      <trkpt lat="65.37958" lon="12.19837">
        <ele>46.853174</ele>
        <time>2020-08-13T08:13:05.845Z</time>
      </trkpt>
      <trkpt lat="65.37963" lon="12.19817">
        <ele>46.925695</ele>
        <time>2020-08-13T08:13:08.824Z</time>
      </trkpt>
      <trkpt lat="65.37969" lon="12.19797">
        <ele>46.990192</ele>
        <time>2020-08-13T08:13:11.824Z</time>
      </trkpt>
      <trkpt lat="65.37975" lon="12.19779">
        <ele>47.043029</ele>
        <time>2020-08-13T08:13:14.832Z</time>
      </trkpt>
      <trkpt lat="65.3798" lon="12.1976">
        <ele>47.094538</ele>
        <time>2020-08-13T08:13:17.859Z</time>
      </trkpt>
      <trkpt lat="65.37986" lon="12.19742">
        <ele>47.143943</ele>
        <time>2020-08-13T08:13:20.842Z</time>
      </trkpt>
      <trkpt lat="65.37991" lon="12.19723">
        <ele>47.195319</ele>
        <time>2020-08-13T08:13:23.823Z</time>
      </trkpt>
      <trkpt lat="65.37996" lon="12.19705">
        <ele>47.244658</ele>
        <time>2020-08-13T08:13:26.824Z</time>
      </trkpt>
      <trkpt lat="65.38002" lon="12.19687">
        <ele>47.29517</ele>
        <time>2020-08-13T08:13:29.853Z</time>
      </trkpt>
      <trkpt lat="65.38007" lon="12.19669">
        <ele>47.344323</ele>
        <time>2020-08-13T08:13:32.828Z</time>
      </trkpt>
      <trkpt lat="65.38012" lon="12.19651">
        <ele>47.393541</ele>
        <time>2020-08-13T08:13:35.849Z</time>
      </trkpt>
      <trkpt lat="65.38019" lon="12.1963">
        <ele>47.455845</ele>
        <time>2020-08-13T08:13:39.844Z</time>
      </trkpt>
      <trkpt lat="65.38025" lon="12.19613">
        <ele>47.506721</ele>
        <time>2020-08-13T08:13:42.835Z</time>
      </trkpt>
      <trkpt lat="65.38031" lon="12.19594">
        <ele>47.558912</ele>
        <time>2020-08-13T08:13:45.858Z</time>
      </trkpt>
      <trkpt lat="65.38037" lon="12.19574">
        <ele>47.613493</ele>
        <time>2020-08-13T08:13:48.852Z</time>
      </trkpt>
      <trkpt lat="65.38042" lon="12.19554">
        <ele>47.66684</ele>
        <time>2020-08-13T08:13:51.879Z</time>
      </trkpt>
      <trkpt lat="65.38048" lon="12.19536">
        <ele>47.718991</ele>
        <time>2020-08-13T08:13:54.850Z</time>
      </trkpt>
      <trkpt lat="65.38054" lon="12.19517">
        <ele>47.771103</ele>
        <time>2020-08-13T08:13:57.836Z</time>
      </trkpt>
      <trkpt lat="65.3806" lon="12.19497">
        <ele>47.826118</ele>
        <time>2020-08-13T08:14:00.832Z</time>
      </trkpt>
      <trkpt lat="65.38065" lon="12.19476">
        <ele>47.881143</ele>
        <time>2020-08-13T08:14:03.826Z</time>
      </trkpt>
      <trkpt lat="65.38071" lon="12.19455">
        <ele>47.936959</ele>
        <time>2020-08-13T08:14:06.845Z</time>
      </trkpt>
      <trkpt lat="65.38077" lon="12.19436">
        <ele>47.97996</ele>
        <time>2020-08-13T08:14:09.827Z</time>
      </trkpt>
      <trkpt lat="65.38082" lon="12.19417">
        <ele>48.02024</ele>
        <time>2020-08-13T08:14:12.836Z</time>
      </trkpt>
      <trkpt lat="65.38088" lon="12.19398">
        <ele>48.060503</ele>
        <time>2020-08-13T08:14:15.815Z</time>
      </trkpt>
      <trkpt lat="65.38094" lon="12.19378">
        <ele>48.103551</ele>
        <time>2020-08-13T08:14:18.833Z</time>
      </trkpt>
      <trkpt lat="65.381" lon="12.19355">
        <ele>48.150462</ele>
        <time>2020-08-13T08:14:21.837Z</time>
      </trkpt>
      <trkpt lat="65.38107" lon="12.19333">
        <ele>48.198338</ele>
        <time>2020-08-13T08:14:24.828Z</time>
      </trkpt>
      <trkpt lat="65.38113" lon="12.19313">
        <ele>48.242509</ele>
        <time>2020-08-13T08:14:27.834Z</time>
      </trkpt>
      <trkpt lat="65.38119" lon="12.19292">
        <ele>48.287182</ele>
        <time>2020-08-13T08:14:30.831Z</time>
      </trkpt>
      <trkpt lat="65.38126" lon="12.19271">
        <ele>48.333836</ele>
        <time>2020-08-13T08:14:33.846Z</time>
      </trkpt>
      <trkpt lat="65.38132" lon="12.19249">
        <ele>48.380328</ele>
        <time>2020-08-13T08:14:36.846Z</time>
      </trkpt>
      <trkpt lat="65.38139" lon="12.19227">
        <ele>48.428106</ele>
        <time>2020-08-13T08:14:39.828Z</time>
      </trkpt>
      <trkpt lat="65.38145" lon="12.19205">
        <ele>48.474602</ele>
        <time>2020-08-13T08:14:42.830Z</time>
      </trkpt>
      <trkpt lat="65.38151" lon="12.19183">
        <ele>48.521153</ele>
        <time>2020-08-13T08:14:45.865Z</time>
      </trkpt>
      <trkpt lat="65.38157" lon="12.19161">
        <ele>48.56689</ele>
        <time>2020-08-13T08:14:48.827Z</time>
      </trkpt>
      <trkpt lat="65.38163" lon="12.1914">
        <ele>48.611001</ele>
        <time>2020-08-13T08:14:51.853Z</time>
      </trkpt>
      <trkpt lat="65.3817" lon="12.19117">
        <ele>48.660116</ele>
        <time>2020-08-13T08:14:54.846Z</time>
      </trkpt>
      <trkpt lat="65.38177" lon="12.19093">
        <ele>48.719206</ele>
        <time>2020-08-13T08:14:57.846Z</time>
      </trkpt>
      <trkpt lat="65.38185" lon="12.19068">
        <ele>48.791353</ele>
        <time>2020-08-13T08:15:00.823Z</time>
      </trkpt>
      <trkpt lat="65.38192" lon="12.19043">
        <ele>48.862849</ele>
        <time>2020-08-13T08:15:03.869Z</time>
      </trkpt>
      <trkpt lat="65.38198" lon="12.19024">
        <ele>48.917114</ele>
        <time>2020-08-13T08:15:05.820Z</time>
      </trkpt>
      <trkpt lat="65.38206" lon="12.18998">
        <ele>48.991701</ele>
        <time>2020-08-13T08:15:08.834Z</time>
      </trkpt>
      <trkpt lat="65.38213" lon="12.18974">
        <ele>49.063404</ele>
        <time>2020-08-13T08:15:11.843Z</time>
      </trkpt>
      <trkpt lat="65.3822" lon="12.18948">
        <ele>49.13466</ele>
        <time>2020-08-13T08:15:14.819Z</time>
      </trkpt>
      <trkpt lat="65.38227" lon="12.18923">
        <ele>49.206422</ele>
        <time>2020-08-13T08:15:17.837Z</time>
      </trkpt>
      <trkpt lat="65.38235" lon="12.18898">
        <ele>49.277605</ele>
        <time>2020-08-13T08:15:20.830Z</time>
      </trkpt>
      <trkpt lat="65.38242" lon="12.18874">
        <ele>49.346425</ele>
        <time>2020-08-13T08:15:23.840Z</time>
      </trkpt>
      <trkpt lat="65.38249" lon="12.1885">
        <ele>49.414214</ele>
        <time>2020-08-13T08:15:26.844Z</time>
      </trkpt>
      <trkpt lat="65.38255" lon="12.18826">
        <ele>49.482249</ele>
        <time>2020-08-13T08:15:29.823Z</time>
      </trkpt>
      <trkpt lat="65.38263" lon="12.18802">
        <ele>49.551399</ele>
        <time>2020-08-13T08:15:32.838Z</time>
      </trkpt>
      <trkpt lat="65.3827" lon="12.1878">
        <ele>49.615681</ele>
        <time>2020-08-13T08:15:35.854Z</time>
      </trkpt>
      <trkpt lat="65.38277" lon="12.18759">
        <ele>49.679895</ele>
        <time>2020-08-13T08:15:38.875Z</time>
      </trkpt>
      <trkpt lat="65.38283" lon="12.18736">
        <ele>50.028034</ele>
        <time>2020-08-13T08:15:41.823Z</time>
      </trkpt>
      <trkpt lat="65.3829" lon="12.18711">
        <ele>50.541577</ele>
        <time>2020-08-13T08:15:44.872Z</time>
      </trkpt>
      <trkpt lat="65.38297" lon="12.18687">
        <ele>51.058486</ele>
        <time>2020-08-13T08:15:47.824Z</time>
      </trkpt>
      <trkpt lat="65.38304" lon="12.18664">
        <ele>51.558182</ele>
        <time>2020-08-13T08:15:50.846Z</time>
      </trkpt>
      <trkpt lat="65.38311" lon="12.1864">
        <ele>52.064553</ele>
        <time>2020-08-13T08:15:53.837Z</time>
      </trkpt>
      <trkpt lat="65.38319" lon="12.18619">
        <ele>52.564536</ele>
        <time>2020-08-13T08:15:56.826Z</time>
      </trkpt>
      <trkpt lat="65.38327" lon="12.18599">
        <ele>53.036712</ele>
        <time>2020-08-13T08:15:59.866Z</time>
      </trkpt>
      <trkpt lat="65.38335" lon="12.18579">
        <ele>53.514872</ele>
        <time>2020-08-13T08:16:02.831Z</time>
      </trkpt>
      <trkpt lat="65.38342" lon="12.18559">
        <ele>53.9722</ele>
        <time>2020-08-13T08:16:05.817Z</time>
      </trkpt>
      <trkpt lat="65.38349" lon="12.1854">
        <ele>54.417477</ele>
        <time>2020-08-13T08:16:08.827Z</time>
      </trkpt>
      <trkpt lat="65.38357" lon="12.18523">
        <ele>54.852429</ele>
        <time>2020-08-13T08:16:11.816Z</time>
      </trkpt>
      <trkpt lat="65.38364" lon="12.18506">
        <ele>55.267787</ele>
        <time>2020-08-13T08:16:14.836Z</time>
      </trkpt>
      <trkpt lat="65.38371" lon="12.1849">
        <ele>55.664261</ele>
        <time>2020-08-13T08:16:17.857Z</time>
      </trkpt>
      <trkpt lat="65.38379" lon="12.18472">
        <ele>56.134145</ele>
        <time>2020-08-13T08:16:21.828Z</time>
      </trkpt>
      <trkpt lat="65.38386" lon="12.18457">
        <ele>56.517063</ele>
        <time>2020-08-13T08:16:25.847Z</time>
      </trkpt>
      <trkpt lat="65.38393" lon="12.18444">
        <ele>56.895265</ele>
        <time>2020-08-13T08:16:30.863Z</time>
      </trkpt>
      <trkpt lat="65.38401" lon="12.18431">
        <ele>57.301009</ele>
        <time>2020-08-13T08:16:35.823Z</time>
      </trkpt>
      <trkpt lat="65.3841" lon="12.18418">
        <ele>57.685142</ele>
        <time>2020-08-13T08:16:41.830Z</time>
      </trkpt>
      <trkpt lat="65.38417" lon="12.18406">
        <ele>58.025154</ele>
        <time>2020-08-13T08:16:46.831Z</time>
      </trkpt>
      <trkpt lat="65.38425" lon="12.18392">
        <ele>58.374962</ele>
        <time>2020-08-13T08:16:51.837Z</time>
      </trkpt>
      <trkpt lat="65.38433" lon="12.1838">
        <ele>58.728386</ele>
        <time>2020-08-13T08:16:56.814Z</time>
      </trkpt>
      <trkpt lat="65.38442" lon="12.1837">
        <ele>59.115525</ele>
        <time>2020-08-13T08:17:02.846Z</time>
      </trkpt>
      <trkpt lat="65.38449" lon="12.18354">
        <ele>59.489388</ele>
        <time>2020-08-13T08:17:08.804Z</time>
      </trkpt>
      <trkpt lat="65.38457" lon="12.18339">
        <ele>59.877132</ele>
        <time>2020-08-13T08:17:13.816Z</time>
      </trkpt>
      <trkpt lat="65.38466" lon="12.18322">
        <ele>60.303335</ele>
        <time>2020-08-13T08:17:17.848Z</time>
      </trkpt>
      <trkpt lat="65.38475" lon="12.18311">
        <ele>60.67537</ele>
        <time>2020-08-13T08:17:20.848Z</time>
      </trkpt>
      <trkpt lat="65.38484" lon="12.18298">
        <ele>61.065064</ele>
        <time>2020-08-13T08:17:23.844Z</time>
      </trkpt>
      <trkpt lat="65.38494" lon="12.18282">
        <ele>61.520929</ele>
        <time>2020-08-13T08:17:26.857Z</time>
      </trkpt>
      <trkpt lat="65.38504" lon="12.18263">
        <ele>62.01797</ele>
        <time>2020-08-13T08:17:29.844Z</time>
      </trkpt>
      <trkpt lat="65.38512" lon="12.18249">
        <ele>62.381312</ele>
        <time>2020-08-13T08:17:31.822Z</time>
      </trkpt>
      <trkpt lat="65.3852" lon="12.18234">
        <ele>62.776145</ele>
        <time>2020-08-13T08:17:33.823Z</time>
      </trkpt>
      <trkpt lat="65.38529" lon="12.18219">
        <ele>63.178911</ele>
        <time>2020-08-13T08:17:35.831Z</time>
      </trkpt>
      <trkpt lat="65.38538" lon="12.18202">
        <ele>63.622056</ele>
        <time>2020-08-13T08:17:37.851Z</time>
      </trkpt>
      <trkpt lat="65.38548" lon="12.18185">
        <ele>63.93343</ele>
        <time>2020-08-13T08:17:39.838Z</time>
      </trkpt>
      <trkpt lat="65.38559" lon="12.18167">
        <ele>63.588245</ele>
        <time>2020-08-13T08:17:41.828Z</time>
      </trkpt>
      <trkpt lat="65.38569" lon="12.18151">
        <ele>63.232364</ele>
        <time>2020-08-13T08:17:43.863Z</time>
      </trkpt>
      <trkpt lat="65.3858" lon="12.18131">
        <ele>62.861138</ele>
        <time>2020-08-13T08:17:45.830Z</time>
      </trkpt>
      <trkpt lat="65.38592" lon="12.18114">
        <ele>62.492456</ele>
        <time>2020-08-13T08:17:47.841Z</time>
      </trkpt>
      <trkpt lat="65.38603" lon="12.18095">
        <ele>62.108399</ele>
        <time>2020-08-13T08:17:49.831Z</time>
      </trkpt>
      <trkpt lat="65.38615" lon="12.18076">
        <ele>61.728046</ele>
        <time>2020-08-13T08:17:51.839Z</time>
      </trkpt>
      <trkpt lat="65.38625" lon="12.18056">
        <ele>61.370414</ele>
        <time>2020-08-13T08:17:53.865Z</time>
      </trkpt>
      <trkpt lat="65.38633" lon="12.18039">
        <ele>61.056907</ele>
        <time>2020-08-13T08:17:55.851Z</time>
      </trkpt>
      <trkpt lat="65.38644" lon="12.18032">
        <ele>60.753901</ele>
        <time>2020-08-13T08:17:57.838Z</time>
      </trkpt>
      <trkpt lat="65.38654" lon="12.18035">
        <ele>60.48248</ele>
        <time>2020-08-13T08:17:59.830Z</time>
      </trkpt>
      <trkpt lat="65.38663" lon="12.18029">
        <ele>60.218649</ele>
        <time>2020-08-13T08:18:01.837Z</time>
      </trkpt>
      <trkpt lat="65.38672" lon="12.18015">
        <ele>59.924521</ele>
        <time>2020-08-13T08:18:03.839Z</time>
      </trkpt>
      <trkpt lat="65.38681" lon="12.18001">
        <ele>59.620784</ele>
        <time>2020-08-13T08:18:05.843Z</time>
      </trkpt>
      <trkpt lat="65.38691" lon="12.17987">
        <ele>59.303288</ele>
        <time>2020-08-13T08:18:07.816Z</time>
      </trkpt>
      <trkpt lat="65.38701" lon="12.17974">
        <ele>59.047703</ele>
        <time>2020-08-13T08:18:09.873Z</time>
      </trkpt>
      <trkpt lat="65.38711" lon="12.17961">
        <ele>58.983146</ele>
        <time>2020-08-13T08:18:11.851Z</time>
      </trkpt>
      <trkpt lat="65.38721" lon="12.17947">
        <ele>58.918026</ele>
        <time>2020-08-13T08:18:13.872Z</time>
      </trkpt>
      <trkpt lat="65.3873" lon="12.17934">
        <ele>58.855511</ele>
        <time>2020-08-13T08:18:15.874Z</time>
      </trkpt>
      <trkpt lat="65.3874" lon="12.17922">
        <ele>58.79294</ele>
        <time>2020-08-13T08:18:17.849Z</time>
      </trkpt>
      <trkpt lat="65.38749" lon="12.17909">
        <ele>58.730088</ele>
        <time>2020-08-13T08:18:19.834Z</time>
      </trkpt>
      <trkpt lat="65.38759" lon="12.17896">
        <ele>58.6653</ele>
        <time>2020-08-13T08:18:21.874Z</time>
      </trkpt>
      <trkpt lat="65.38769" lon="12.17884">
        <ele>58.600284</ele>
        <time>2020-08-13T08:18:23.826Z</time>
      </trkpt>
      <trkpt lat="65.38779" lon="12.17871">
        <ele>58.534481</ele>
        <time>2020-08-13T08:18:25.861Z</time>
      </trkpt>
      <trkpt lat="65.38789" lon="12.17858">
        <ele>58.468678</ele>
        <time>2020-08-13T08:18:27.848Z</time>
      </trkpt>
      <trkpt lat="65.38799" lon="12.17846">
        <ele>58.404176</ele>
        <time>2020-08-13T08:18:29.821Z</time>
      </trkpt>
      <trkpt lat="65.38809" lon="12.17833">
        <ele>58.33809</ele>
        <time>2020-08-13T08:18:31.841Z</time>
      </trkpt>
      <trkpt lat="65.3882" lon="12.1782">
        <ele>58.26954</ele>
        <time>2020-08-13T08:18:33.833Z</time>
      </trkpt>
      <trkpt lat="65.38831" lon="12.17807">
        <ele>58.198381</ele>
        <time>2020-08-13T08:18:35.828Z</time>
      </trkpt>
      <trkpt lat="65.38842" lon="12.17794">
        <ele>58.126396</ele>
        <time>2020-08-13T08:18:37.822Z</time>
      </trkpt>
      <trkpt lat="65.38854" lon="12.1778">
        <ele>58.050656</ele>
        <time>2020-08-13T08:18:39.853Z</time>
      </trkpt>
      <trkpt lat="65.38866" lon="12.17766">
        <ele>57.863442</ele>
        <time>2020-08-13T08:18:41.830Z</time>
      </trkpt>
      <trkpt lat="65.38878" lon="12.17751">
        <ele>57.59637</ele>
        <time>2020-08-13T08:18:43.844Z</time>
      </trkpt>
      <trkpt lat="65.38891" lon="12.17737">
        <ele>57.327965</ele>
        <time>2020-08-13T08:18:45.841Z</time>
      </trkpt>
      <trkpt lat="65.38903" lon="12.17723">
        <ele>57.064031</ele>
        <time>2020-08-13T08:18:47.818Z</time>
      </trkpt>
      <trkpt lat="65.38915" lon="12.17708">
        <ele>56.806183</ele>
        <time>2020-08-13T08:18:49.851Z</time>
      </trkpt>
      <trkpt lat="65.38927" lon="12.17691">
        <ele>56.542707</ele>
        <time>2020-08-13T08:18:51.832Z</time>
      </trkpt>
      <trkpt lat="65.38941" lon="12.17676">
        <ele>56.262587</ele>
        <time>2020-08-13T08:18:53.830Z</time>
      </trkpt>
      <trkpt lat="65.38954" lon="12.17662">
        <ele>55.984125</ele>
        <time>2020-08-13T08:18:55.851Z</time>
      </trkpt>
      <trkpt lat="65.38967" lon="12.17648">
        <ele>55.718554</ele>
        <time>2020-08-13T08:18:57.816Z</time>
      </trkpt>
      <trkpt lat="65.38978" lon="12.17636">
        <ele>55.476845</ele>
        <time>2020-08-13T08:18:59.866Z</time>
      </trkpt>
      <trkpt lat="65.3899" lon="12.17621">
        <ele>55.218265</ele>
        <time>2020-08-13T08:19:01.821Z</time>
      </trkpt>
      <trkpt lat="65.39002" lon="12.17606">
        <ele>54.967717</ele>
        <time>2020-08-13T08:19:03.818Z</time>
      </trkpt>
      <trkpt lat="65.39013" lon="12.17592">
        <ele>54.723688</ele>
        <time>2020-08-13T08:19:05.841Z</time>
      </trkpt>
      <trkpt lat="65.39024" lon="12.17579">
        <ele>54.573822</ele>
        <time>2020-08-13T08:19:07.839Z</time>
      </trkpt>
      <trkpt lat="65.39035" lon="12.17567">
        <ele>54.540944</ele>
        <time>2020-08-13T08:19:09.867Z</time>
      </trkpt>
      <trkpt lat="65.39045" lon="12.17555">
        <ele>54.509017</ele>
        <time>2020-08-13T08:19:11.825Z</time>
      </trkpt>
      <trkpt lat="65.39057" lon="12.17547">
        <ele>54.47518</ele>
        <time>2020-08-13T08:19:13.837Z</time>
      </trkpt>
      <trkpt lat="65.39068" lon="12.17538">
        <ele>54.441009</ele>
        <time>2020-08-13T08:19:15.828Z</time>
      </trkpt>
      <trkpt lat="65.39081" lon="12.17533">
        <ele>54.405201</ele>
        <time>2020-08-13T08:19:17.832Z</time>
      </trkpt>
      <trkpt lat="65.39093" lon="12.17529">
        <ele>54.371469</ele>
        <time>2020-08-13T08:19:19.827Z</time>
      </trkpt>
      <trkpt lat="65.39105" lon="12.17528">
        <ele>54.338486</ele>
        <time>2020-08-13T08:19:21.848Z</time>
      </trkpt>
      <trkpt lat="65.39116" lon="12.17529">
        <ele>54.30746</ele>
        <time>2020-08-13T08:19:23.827Z</time>
      </trkpt>
      <trkpt lat="65.39127" lon="12.17532">
        <ele>54.276252</ele>
        <time>2020-08-13T08:19:25.838Z</time>
      </trkpt>
      <trkpt lat="65.39138" lon="12.17538">
        <ele>54.243779</ele>
        <time>2020-08-13T08:19:27.838Z</time>
      </trkpt>
      <trkpt lat="65.39149" lon="12.17545">
        <ele>54.213077</ele>
        <time>2020-08-13T08:19:29.834Z</time>
      </trkpt>
      <trkpt lat="65.39159" lon="12.17553">
        <ele>54.183784</ele>
        <time>2020-08-13T08:19:31.873Z</time>
      </trkpt>
      <trkpt lat="65.39169" lon="12.17561">
        <ele>54.154083</ele>
        <time>2020-08-13T08:19:33.829Z</time>
      </trkpt>
      <trkpt lat="65.39179" lon="12.17569">
        <ele>54.124647</ele>
        <time>2020-08-13T08:19:35.838Z</time>
      </trkpt>
      <trkpt lat="65.39189" lon="12.17577">
        <ele>54.095508</ele>
        <time>2020-08-13T08:19:37.855Z</time>
      </trkpt>
      <trkpt lat="65.39199" lon="12.17585">
        <ele>53.911469</ele>
        <time>2020-08-13T08:19:39.828Z</time>
      </trkpt>
      <trkpt lat="65.3921" lon="12.17593">
        <ele>53.65205</ele>
        <time>2020-08-13T08:19:41.821Z</time>
      </trkpt>
      <trkpt lat="65.3922" lon="12.17601">
        <ele>53.388289</ele>
        <time>2020-08-13T08:19:43.846Z</time>
      </trkpt>
      <trkpt lat="65.39231" lon="12.17608">
        <ele>53.123431</ele>
        <time>2020-08-13T08:19:45.829Z</time>
      </trkpt>
      <trkpt lat="65.39241" lon="12.17615">
        <ele>52.858717</ele>
        <time>2020-08-13T08:19:47.844Z</time>
      </trkpt>
      <trkpt lat="65.39252" lon="12.17621">
        <ele>52.588487</ele>
        <time>2020-08-13T08:19:49.832Z</time>
      </trkpt>
      <trkpt lat="65.39264" lon="12.17628">
        <ele>52.313374</ele>
        <time>2020-08-13T08:19:51.829Z</time>
      </trkpt>
      <trkpt lat="65.39274" lon="12.17634">
        <ele>52.051478</ele>
        <time>2020-08-13T08:19:53.825Z</time>
      </trkpt>
      <trkpt lat="65.39284" lon="12.17641">
        <ele>51.804373</ele>
        <time>2020-08-13T08:19:55.848Z</time>
      </trkpt>
      <trkpt lat="65.39294" lon="12.17649">
        <ele>51.55714</ele>
        <time>2020-08-13T08:19:57.835Z</time>
      </trkpt>
      <trkpt lat="65.39304" lon="12.17657">
        <ele>51.310534</ele>
        <time>2020-08-13T08:19:59.831Z</time>
      </trkpt>
      <trkpt lat="65.39314" lon="12.17665">
        <ele>51.061033</ele>
        <time>2020-08-13T08:20:01.840Z</time>
      </trkpt>
      <trkpt lat="65.39323" lon="12.17673">
        <ele>50.8167</ele>
        <time>2020-08-13T08:20:03.825Z</time>
      </trkpt>
      <trkpt lat="65.39333" lon="12.1768">
        <ele>50.575565</ele>
        <time>2020-08-13T08:20:05.833Z</time>
      </trkpt>
      <trkpt lat="65.39342" lon="12.17687">
        <ele>50.349311</ele>
        <time>2020-08-13T08:20:07.829Z</time>
      </trkpt>
      <trkpt lat="65.39351" lon="12.17694">
        <ele>50.109073</ele>
        <time>2020-08-13T08:20:09.819Z</time>
      </trkpt>
      <trkpt lat="65.39361" lon="12.17701">
        <ele>49.86426</ele>
        <time>2020-08-13T08:20:11.868Z</time>
      </trkpt>
      <trkpt lat="65.39371" lon="12.17708">
        <ele>49.83448</ele>
        <time>2020-08-13T08:20:13.852Z</time>
      </trkpt>
      <trkpt lat="65.3938" lon="12.17716">
        <ele>49.910656</ele>
        <time>2020-08-13T08:20:15.853Z</time>
      </trkpt>
      <trkpt lat="65.39389" lon="12.17723">
        <ele>49.984933</ele>
        <time>2020-08-13T08:20:17.858Z</time>
      </trkpt>
      <trkpt lat="65.39398" lon="12.17728">
        <ele>50.057252</ele>
        <time>2020-08-13T08:20:19.829Z</time>
      </trkpt>
      <trkpt lat="65.39406" lon="12.17734">
        <ele>50.128987</ele>
        <time>2020-08-13T08:20:21.843Z</time>
      </trkpt>
      <trkpt lat="65.39415" lon="12.17741">
        <ele>50.20082</ele>
        <time>2020-08-13T08:20:23.841Z</time>
      </trkpt>
      <trkpt lat="65.39424" lon="12.17748">
        <ele>50.272964</ele>
        <time>2020-08-13T08:20:25.834Z</time>
      </trkpt>
      <trkpt lat="65.39433" lon="12.17755">
        <ele>50.345002</ele>
        <time>2020-08-13T08:20:27.842Z</time>
      </trkpt>
      <trkpt lat="65.39441" lon="12.17762">
        <ele>50.418232</ele>
        <time>2020-08-13T08:20:29.826Z</time>
      </trkpt>
      <trkpt lat="65.3945" lon="12.17768">
        <ele>50.491836</ele>
        <time>2020-08-13T08:20:31.841Z</time>
      </trkpt>
      <trkpt lat="65.3946" lon="12.17775">
        <ele>50.566565</ele>
        <time>2020-08-13T08:20:33.835Z</time>
      </trkpt>
      <trkpt lat="65.39468" lon="12.17781">
        <ele>50.638388</ele>
        <time>2020-08-13T08:20:35.829Z</time>
      </trkpt>
      <trkpt lat="65.39477" lon="12.17787">
        <ele>50.710675</ele>
        <time>2020-08-13T08:20:37.830Z</time>
      </trkpt>
      <trkpt lat="65.39486" lon="12.17794">
        <ele>50.786631</ele>
        <time>2020-08-13T08:20:39.824Z</time>
      </trkpt>
      <trkpt lat="65.39496" lon="12.17801">
        <ele>50.863054</ele>
        <time>2020-08-13T08:20:41.824Z</time>
      </trkpt>
      <trkpt lat="65.39505" lon="12.17807">
        <ele>50.940096</ele>
        <time>2020-08-13T08:20:43.830Z</time>
      </trkpt>
      <trkpt lat="65.39514" lon="12.17813">
        <ele>51.014826</ele>
        <time>2020-08-13T08:20:45.826Z</time>
      </trkpt>
      <trkpt lat="65.39523" lon="12.1782">
        <ele>51.088709</ele>
        <time>2020-08-13T08:20:47.851Z</time>
      </trkpt>
      <trkpt lat="65.39536" lon="12.17828">
        <ele>51.191205</ele>
        <time>2020-08-13T08:20:50.832Z</time>
      </trkpt>
      <trkpt lat="65.39549" lon="12.17836">
        <ele>51.192863</ele>
        <time>2020-08-13T08:20:53.844Z</time>
      </trkpt>
      <trkpt lat="65.39561" lon="12.17844">
        <ele>51.189208</ele>
        <time>2020-08-13T08:20:56.833Z</time>
      </trkpt>
      <trkpt lat="65.39574" lon="12.17853">
        <ele>51.185502</ele>
        <time>2020-08-13T08:20:59.825Z</time>
      </trkpt>
      <trkpt lat="65.39583" lon="12.1786">
        <ele>51.182914</ele>
        <time>2020-08-13T08:21:01.832Z</time>
      </trkpt>
      <trkpt lat="65.39592" lon="12.17867">
        <ele>51.180277</ele>
        <time>2020-08-13T08:21:03.835Z</time>
      </trkpt>
      <trkpt lat="65.39601" lon="12.17874">
        <ele>51.177608</ele>
        <time>2020-08-13T08:21:05.849Z</time>
      </trkpt>
      <trkpt lat="65.3961" lon="12.17881">
        <ele>51.174975</ele>
        <time>2020-08-13T08:21:07.852Z</time>
      </trkpt>
      <trkpt lat="65.39619" lon="12.17889">
        <ele>51.172395</ele>
        <time>2020-08-13T08:21:09.827Z</time>
      </trkpt>
      <trkpt lat="65.39628" lon="12.17896">
        <ele>51.169766</ele>
        <time>2020-08-13T08:21:11.835Z</time>
      </trkpt>
      <trkpt lat="65.39637" lon="12.17903">
        <ele>51.167021</ele>
        <time>2020-08-13T08:21:13.864Z</time>
      </trkpt>
      <trkpt lat="65.39647" lon="12.1791">
        <ele>51.164196</ele>
        <time>2020-08-13T08:21:15.846Z</time>
      </trkpt>
      <trkpt lat="65.39657" lon="12.17918">
        <ele>51.161421</ele>
        <time>2020-08-13T08:21:17.831Z</time>
      </trkpt>
      <trkpt lat="65.39666" lon="12.17925">
        <ele>51.158728</ele>
        <time>2020-08-13T08:21:19.869Z</time>
      </trkpt>
      <trkpt lat="65.39675" lon="12.17932">
        <ele>51.156057</ele>
        <time>2020-08-13T08:21:21.821Z</time>
      </trkpt>
      <trkpt lat="65.39684" lon="12.17939">
        <ele>51.153447</ele>
        <time>2020-08-13T08:21:23.833Z</time>
      </trkpt>
      <trkpt lat="65.39693" lon="12.17946">
        <ele>51.150822</ele>
        <time>2020-08-13T08:21:25.843Z</time>
      </trkpt>
      <trkpt lat="65.39702" lon="12.17952">
        <ele>51.148296</ele>
        <time>2020-08-13T08:21:27.832Z</time>
      </trkpt>
      <trkpt lat="65.3971" lon="12.17959">
        <ele>51.166338</ele>
        <time>2020-08-13T08:21:29.871Z</time>
      </trkpt>
      <trkpt lat="65.39719" lon="12.17965">
        <ele>51.250391</ele>
        <time>2020-08-13T08:21:31.886Z</time>
      </trkpt>
      <trkpt lat="65.39728" lon="12.17971">
        <ele>51.331919</ele>
        <time>2020-08-13T08:21:33.834Z</time>
      </trkpt>
      <trkpt lat="65.39737" lon="12.17978">
        <ele>51.415447</ele>
        <time>2020-08-13T08:21:35.829Z</time>
      </trkpt>
      <trkpt lat="65.39746" lon="12.17984">
        <ele>51.500684</ele>
        <time>2020-08-13T08:21:37.831Z</time>
      </trkpt>
      <trkpt lat="65.39754" lon="12.1799">
        <ele>51.583408</ele>
        <time>2020-08-13T08:21:39.862Z</time>
      </trkpt>
      <trkpt lat="65.39767" lon="12.17999">
        <ele>51.704615</ele>
        <time>2020-08-13T08:21:42.855Z</time>
      </trkpt>
      <trkpt lat="65.3978" lon="12.18008">
        <ele>51.825822</ele>
        <time>2020-08-13T08:21:45.828Z</time>
      </trkpt>
      <trkpt lat="65.39793" lon="12.18017">
        <ele>51.948088</ele>
        <time>2020-08-13T08:21:48.834Z</time>
      </trkpt>
      <trkpt lat="65.39801" lon="12.18022">
        <ele>52.029408</ele>
        <time>2020-08-13T08:21:50.857Z</time>
      </trkpt>
      <trkpt lat="65.39813" lon="12.18032">
        <ele>52.145656</ele>
        <time>2020-08-13T08:21:53.879Z</time>
      </trkpt>
      <trkpt lat="65.39826" lon="12.18042">
        <ele>52.26143</ele>
        <time>2020-08-13T08:21:56.841Z</time>
      </trkpt>
      <trkpt lat="65.39836" lon="12.18049">
        <ele>52.365079</ele>
        <time>2020-08-13T08:21:59.818Z</time>
      </trkpt>
      <trkpt lat="65.39848" lon="12.18058">
        <ele>52.472991</ele>
        <time>2020-08-13T08:22:02.847Z</time>
      </trkpt>
      <trkpt lat="65.39859" lon="12.18066">
        <ele>52.581007</ele>
        <time>2020-08-13T08:22:05.856Z</time>
      </trkpt>
      <trkpt lat="65.39871" lon="12.18074">
        <ele>52.696237</ele>
        <time>2020-08-13T08:22:08.836Z</time>
      </trkpt>
      <trkpt lat="65.3988" lon="12.1808">
        <ele>52.778745</ele>
        <time>2020-08-13T08:22:10.857Z</time>
      </trkpt>
      <trkpt lat="65.39892" lon="12.18091">
        <ele>52.559088</ele>
        <time>2020-08-13T08:22:13.846Z</time>
      </trkpt>
      <trkpt lat="65.39901" lon="12.18097">
        <ele>52.397245</ele>
        <time>2020-08-13T08:22:15.828Z</time>
      </trkpt>
      <trkpt lat="65.3991" lon="12.18104">
        <ele>52.232818</ele>
        <time>2020-08-13T08:22:17.882Z</time>
      </trkpt>
      <trkpt lat="65.39919" lon="12.1811">
        <ele>52.069697</ele>
        <time>2020-08-13T08:22:19.854Z</time>
      </trkpt>
      <trkpt lat="65.39928" lon="12.18117">
        <ele>51.905717</ele>
        <time>2020-08-13T08:22:21.827Z</time>
      </trkpt>
      <trkpt lat="65.39937" lon="12.18124">
        <ele>51.737677</ele>
        <time>2020-08-13T08:22:23.841Z</time>
      </trkpt>
      <trkpt lat="65.39946" lon="12.1813">
        <ele>51.568809</ele>
        <time>2020-08-13T08:22:25.829Z</time>
      </trkpt>
      <trkpt lat="65.39958" lon="12.1814">
        <ele>51.331159</ele>
        <time>2020-08-13T08:22:28.830Z</time>
      </trkpt>
      <trkpt lat="65.39971" lon="12.18149">
        <ele>51.103934</ele>
        <time>2020-08-13T08:22:31.840Z</time>
      </trkpt>
      <trkpt lat="65.39983" lon="12.18158">
        <ele>50.865419</ele>
        <time>2020-08-13T08:22:34.835Z</time>
      </trkpt>
      <trkpt lat="65.39996" lon="12.18168">
        <ele>50.63052</ele>
        <time>2020-08-13T08:22:37.831Z</time>
      </trkpt>
      <trkpt lat="65.40009" lon="12.18177">
        <ele>50.39776</ele>
        <time>2020-08-13T08:22:40.846Z</time>
      </trkpt>
      <trkpt lat="65.40021" lon="12.18185">
        <ele>50.172816</ele>
        <time>2020-08-13T08:22:43.824Z</time>
      </trkpt>
      <trkpt lat="65.40033" lon="12.18194">
        <ele>49.951687</ele>
        <time>2020-08-13T08:22:46.829Z</time>
      </trkpt>
      <trkpt lat="65.40045" lon="12.18203">
        <ele>49.721491</ele>
        <time>2020-08-13T08:22:49.865Z</time>
      </trkpt>
      <trkpt lat="65.40057" lon="12.18213">
        <ele>49.485098</ele>
        <time>2020-08-13T08:22:52.839Z</time>
      </trkpt>
      <trkpt lat="65.4007" lon="12.18222">
        <ele>49.243138</ele>
        <time>2020-08-13T08:22:55.833Z</time>
      </trkpt>
      <trkpt lat="65.40079" lon="12.18229">
        <ele>49.074217</ele>
        <time>2020-08-13T08:22:57.829Z</time>
      </trkpt>
      <trkpt lat="65.40087" lon="12.18236">
        <ele>48.906963</ele>
        <time>2020-08-13T08:22:59.837Z</time>
      </trkpt>
      <trkpt lat="65.40096" lon="12.18244">
        <ele>48.739087</ele>
        <time>2020-08-13T08:23:01.857Z</time>
      </trkpt>
      <trkpt lat="65.40105" lon="12.18251">
        <ele>48.56561</ele>
        <time>2020-08-13T08:23:03.844Z</time>
      </trkpt>
      <trkpt lat="65.40114" lon="12.18258">
        <ele>48.390392</ele>
        <time>2020-08-13T08:23:05.867Z</time>
      </trkpt>
      <trkpt lat="65.40122" lon="12.18267">
        <ele>48.219678</ele>
        <time>2020-08-13T08:23:07.864Z</time>
      </trkpt>
      <trkpt lat="65.40131" lon="12.18274">
        <ele>48.050891</ele>
        <time>2020-08-13T08:23:09.830Z</time>
      </trkpt>
      <trkpt lat="65.4014" lon="12.18282">
        <ele>47.875423</ele>
        <time>2020-08-13T08:23:11.828Z</time>
      </trkpt>
      <trkpt lat="65.40149" lon="12.1829">
        <ele>47.700719</ele>
        <time>2020-08-13T08:23:13.862Z</time>
      </trkpt>
      <trkpt lat="65.40158" lon="12.18299">
        <ele>47.526581</ele>
        <time>2020-08-13T08:23:15.857Z</time>
      </trkpt>
      <trkpt lat="65.40166" lon="12.18307">
        <ele>47.349304</ele>
        <time>2020-08-13T08:23:17.827Z</time>
      </trkpt>
      <trkpt lat="65.40176" lon="12.18316">
        <ele>47.168037</ele>
        <time>2020-08-13T08:23:19.839Z</time>
      </trkpt>
      <trkpt lat="65.40185" lon="12.18325">
        <ele>46.98677</ele>
        <time>2020-08-13T08:23:21.825Z</time>
      </trkpt>
      <trkpt lat="65.40194" lon="12.18334">
        <ele>46.805503</ele>
        <time>2020-08-13T08:23:23.833Z</time>
      </trkpt>
      <trkpt lat="65.40203" lon="12.18343">
        <ele>46.614517</ele>
        <time>2020-08-13T08:23:25.827Z</time>
      </trkpt>
      <trkpt lat="65.40213" lon="12.18353">
        <ele>46.42157</ele>
        <time>2020-08-13T08:23:27.885Z</time>
      </trkpt>
      <trkpt lat="65.40223" lon="12.18361">
        <ele>46.279804</ele>
        <time>2020-08-13T08:23:29.821Z</time>
      </trkpt>
      <trkpt lat="65.40233" lon="12.1837">
        <ele>46.317501</ele>
        <time>2020-08-13T08:23:31.849Z</time>
      </trkpt>
      <trkpt lat="65.40242" lon="12.18378">
        <ele>46.354111</ele>
        <time>2020-08-13T08:23:33.868Z</time>
      </trkpt>
      <trkpt lat="65.40252" lon="12.18387">
        <ele>46.390197</ele>
        <time>2020-08-13T08:23:35.853Z</time>
      </trkpt>
      <trkpt lat="65.40261" lon="12.18396">
        <ele>46.426161</ele>
        <time>2020-08-13T08:23:37.911Z</time>
      </trkpt>
      <trkpt lat="65.4027" lon="12.18404">
        <ele>46.462353</ele>
        <time>2020-08-13T08:23:39.866Z</time>
      </trkpt>
      <trkpt lat="65.4028" lon="12.18412">
        <ele>46.497796</ele>
        <time>2020-08-13T08:23:41.835Z</time>
      </trkpt>
      <trkpt lat="65.40289" lon="12.1842">
        <ele>46.532324</ele>
        <time>2020-08-13T08:23:43.815Z</time>
      </trkpt>
      <trkpt lat="65.40297" lon="12.18428">
        <ele>46.566006</ele>
        <time>2020-08-13T08:23:45.844Z</time>
      </trkpt>
      <trkpt lat="65.40306" lon="12.18437">
        <ele>46.599632</ele>
        <time>2020-08-13T08:23:47.867Z</time>
      </trkpt>
      <trkpt lat="65.40315" lon="12.18444">
        <ele>46.631928</ele>
        <time>2020-08-13T08:23:49.847Z</time>
      </trkpt>
      <trkpt lat="65.40327" lon="12.18455">
        <ele>46.679574</ele>
        <time>2020-08-13T08:23:52.845Z</time>
      </trkpt>
      <trkpt lat="65.40339" lon="12.18465">
        <ele>46.726643</ele>
        <time>2020-08-13T08:23:55.854Z</time>
      </trkpt>
      <trkpt lat="65.40352" lon="12.18475">
        <ele>46.773176</ele>
        <time>2020-08-13T08:23:58.842Z</time>
      </trkpt>
      <trkpt lat="65.40364" lon="12.18486">
        <ele>46.821261</ele>
        <time>2020-08-13T08:24:01.852Z</time>
      </trkpt>
      <trkpt lat="65.40373" lon="12.18493">
        <ele>46.85403</ele>
        <time>2020-08-13T08:24:03.849Z</time>
      </trkpt>
      <trkpt lat="65.40385" lon="12.18503">
        <ele>46.902016</ele>
        <time>2020-08-13T08:24:06.837Z</time>
      </trkpt>
      <trkpt lat="65.40398" lon="12.18512">
        <ele>46.907673</ele>
        <time>2020-08-13T08:24:09.841Z</time>
      </trkpt>
      <trkpt lat="65.40407" lon="12.18518">
        <ele>46.896153</ele>
        <time>2020-08-13T08:24:11.829Z</time>
      </trkpt>
      <trkpt lat="65.40416" lon="12.18524">
        <ele>46.884887</ele>
        <time>2020-08-13T08:24:13.827Z</time>
      </trkpt>
      <trkpt lat="65.40429" lon="12.18532">
        <ele>46.868351</ele>
        <time>2020-08-13T08:24:16.834Z</time>
      </trkpt>
      <trkpt lat="65.40441" lon="12.18541">
        <ele>46.852048</ele>
        <time>2020-08-13T08:24:19.846Z</time>
      </trkpt>
      <trkpt lat="65.40454" lon="12.18548">
        <ele>46.836169</ele>
        <time>2020-08-13T08:24:22.834Z</time>
      </trkpt>
      <trkpt lat="65.40466" lon="12.18557">
        <ele>46.820449</ele>
        <time>2020-08-13T08:24:25.845Z</time>
      </trkpt>
      <trkpt lat="65.40478" lon="12.18565">
        <ele>46.805011</ele>
        <time>2020-08-13T08:24:28.869Z</time>
      </trkpt>
      <trkpt lat="65.40489" lon="12.18572">
        <ele>46.789693</ele>
        <time>2020-08-13T08:24:31.850Z</time>
      </trkpt>
      <trkpt lat="65.40501" lon="12.18578">
        <ele>46.774592</ele>
        <time>2020-08-13T08:24:34.845Z</time>
      </trkpt>
      <trkpt lat="65.40513" lon="12.18585">
        <ele>46.759044</ele>
        <time>2020-08-13T08:24:37.864Z</time>
      </trkpt>
      <trkpt lat="65.40526" lon="12.18591">
        <ele>46.743487</ele>
        <time>2020-08-13T08:24:40.828Z</time>
      </trkpt>
      <trkpt lat="65.40538" lon="12.18596">
        <ele>46.728262</ele>
        <time>2020-08-13T08:24:43.829Z</time>
      </trkpt>
      <trkpt lat="65.40549" lon="12.18602">
        <ele>46.713093</ele>
        <time>2020-08-13T08:24:46.829Z</time>
      </trkpt>
      <trkpt lat="65.40561" lon="12.1861">
        <ele>46.697535</ele>
        <time>2020-08-13T08:24:49.825Z</time>
      </trkpt>
      <trkpt lat="65.40573" lon="12.18617">
        <ele>46.754048</ele>
        <time>2020-08-13T08:24:52.832Z</time>
      </trkpt>
      <trkpt lat="65.40586" lon="12.18624">
        <ele>46.83289</ele>
        <time>2020-08-13T08:24:55.832Z</time>
      </trkpt>
      <trkpt lat="65.40597" lon="12.18631">
        <ele>46.910014</ele>
        <time>2020-08-13T08:24:58.838Z</time>
      </trkpt>
      <trkpt lat="65.40608" lon="12.18639">
        <ele>46.982213</ele>
        <time>2020-08-13T08:25:01.836Z</time>
      </trkpt>
      <trkpt lat="65.40619" lon="12.18648">
        <ele>47.05654</ele>
        <time>2020-08-13T08:25:04.840Z</time>
      </trkpt>
      <trkpt lat="65.40631" lon="12.18657">
        <ele>47.134347</ele>
        <time>2020-08-13T08:25:07.861Z</time>
      </trkpt>
      <trkpt lat="65.40642" lon="12.18667">
        <ele>47.210613</ele>
        <time>2020-08-13T08:25:10.829Z</time>
      </trkpt>
      <trkpt lat="65.40653" lon="12.18678">
        <ele>47.285712</ele>
        <time>2020-08-13T08:25:13.868Z</time>
      </trkpt>
      <trkpt lat="65.40664" lon="12.1869">
        <ele>47.357884</ele>
        <time>2020-08-13T08:25:16.850Z</time>
      </trkpt>
      <trkpt lat="65.40674" lon="12.18702">
        <ele>47.432687</ele>
        <time>2020-08-13T08:25:19.875Z</time>
      </trkpt>
      <trkpt lat="65.40685" lon="12.18715">
        <ele>47.508251</ele>
        <time>2020-08-13T08:25:22.842Z</time>
      </trkpt>
      <trkpt lat="65.40695" lon="12.18729">
        <ele>47.582148</ele>
        <time>2020-08-13T08:25:25.826Z</time>
      </trkpt>
      <trkpt lat="65.40705" lon="12.18742">
        <ele>47.655607</ele>
        <time>2020-08-13T08:25:28.864Z</time>
      </trkpt>
      <trkpt lat="65.40715" lon="12.18755">
        <ele>47.723085</ele>
        <time>2020-08-13T08:25:31.866Z</time>
      </trkpt>
      <trkpt lat="65.40724" lon="12.18771">
        <ele>47.794321</ele>
        <time>2020-08-13T08:25:34.827Z</time>
      </trkpt>
      <trkpt lat="65.40732" lon="12.18786">
        <ele>47.858156</ele>
        <time>2020-08-13T08:25:37.865Z</time>
      </trkpt>
      <trkpt lat="65.40742" lon="12.18801">
        <ele>47.918218</ele>
        <time>2020-08-13T08:25:40.844Z</time>
      </trkpt>
      <trkpt lat="65.40751" lon="12.18817">
        <ele>47.979298</ele>
        <time>2020-08-13T08:25:43.843Z</time>
      </trkpt>
      <trkpt lat="65.4076" lon="12.18834">
        <ele>48.042124</ele>
        <time>2020-08-13T08:25:46.822Z</time>
      </trkpt>
      <trkpt lat="65.4077" lon="12.1885">
        <ele>48.103763</ele>
        <time>2020-08-13T08:25:49.841Z</time>
      </trkpt>
      <trkpt lat="65.40779" lon="12.18864">
        <ele>48.16225</ele>
        <time>2020-08-13T08:25:52.839Z</time>
      </trkpt>
      <trkpt lat="65.40788" lon="12.18878">
        <ele>48.218933</ele>
        <time>2020-08-13T08:25:55.864Z</time>
      </trkpt>
      <trkpt lat="65.40797" lon="12.18892">
        <ele>48.27799</ele>
        <time>2020-08-13T08:25:58.866Z</time>
      </trkpt>
      <trkpt lat="65.40806" lon="12.18907">
        <ele>48.334307</ele>
        <time>2020-08-13T08:26:01.824Z</time>
      </trkpt>
      <trkpt lat="65.40815" lon="12.18921">
        <ele>48.392419</ele>
        <time>2020-08-13T08:26:04.845Z</time>
      </trkpt>
      <trkpt lat="65.40824" lon="12.18934">
        <ele>48.447808</ele>
        <time>2020-08-13T08:26:07.856Z</time>
      </trkpt>
      <trkpt lat="65.40832" lon="12.18948">
        <ele>48.499834</ele>
        <time>2020-08-13T08:26:10.842Z</time>
      </trkpt>
      <trkpt lat="65.40839" lon="12.18962">
        <ele>48.55113</ele>
        <time>2020-08-13T08:26:13.842Z</time>
      </trkpt>
      <trkpt lat="65.40848" lon="12.18975">
        <ele>48.603518</ele>
        <time>2020-08-13T08:26:16.858Z</time>
      </trkpt>
      <trkpt lat="65.40855" lon="12.18988">
        <ele>48.653207</ele>
        <time>2020-08-13T08:26:19.845Z</time>
      </trkpt>
      <trkpt lat="65.40863" lon="12.19002">
        <ele>48.704209</ele>
        <time>2020-08-13T08:26:22.838Z</time>
      </trkpt>
      <trkpt lat="65.4087" lon="12.19015">
        <ele>48.753463</ele>
        <time>2020-08-13T08:26:25.834Z</time>
      </trkpt>
      <trkpt lat="65.40878" lon="12.19027">
        <ele>48.818649</ele>
        <time>2020-08-13T08:26:28.832Z</time>
      </trkpt>
      <trkpt lat="65.40886" lon="12.1904">
        <ele>48.977773</ele>
        <time>2020-08-13T08:26:31.831Z</time>
      </trkpt>
      <trkpt lat="65.40894" lon="12.19053">
        <ele>49.148699</ele>
        <time>2020-08-13T08:26:34.834Z</time>
      </trkpt>
      <trkpt lat="65.40903" lon="12.19068">
        <ele>49.326254</ele>
        <time>2020-08-13T08:26:37.845Z</time>
      </trkpt>
      <trkpt lat="65.40913" lon="12.19085">
        <ele>49.518313</ele>
        <time>2020-08-13T08:26:40.850Z</time>
      </trkpt>
      <trkpt lat="65.40923" lon="12.19102">
        <ele>49.72054</ele>
        <time>2020-08-13T08:26:43.833Z</time>
      </trkpt>
      <trkpt lat="65.40932" lon="12.19118">
        <ele>49.913848</ele>
        <time>2020-08-13T08:26:46.838Z</time>
      </trkpt>
      <trkpt lat="65.40941" lon="12.19133">
        <ele>50.09257</ele>
        <time>2020-08-13T08:26:49.836Z</time>
      </trkpt>
      <trkpt lat="65.4095" lon="12.19148">
        <ele>50.272343</ele>
        <time>2020-08-13T08:26:52.823Z</time>
      </trkpt>
      <trkpt lat="65.40958" lon="12.19164">
        <ele>50.447262</ele>
        <time>2020-08-13T08:26:55.833Z</time>
      </trkpt>
      <trkpt lat="65.40966" lon="12.19179">
        <ele>50.611439</ele>
        <time>2020-08-13T08:26:58.827Z</time>
      </trkpt>
      <trkpt lat="65.40975" lon="12.19195">
        <ele>50.788925</ele>
        <time>2020-08-13T08:27:01.855Z</time>
      </trkpt>
      <trkpt lat="65.40983" lon="12.19213">
        <ele>50.9721</ele>
        <time>2020-08-13T08:27:04.827Z</time>
      </trkpt>
      <trkpt lat="65.4099" lon="12.19229">
        <ele>51.137454</ele>
        <time>2020-08-13T08:27:07.830Z</time>
      </trkpt>
      <trkpt lat="65.40998" lon="12.19246">
        <ele>51.304387</ele>
        <time>2020-08-13T08:27:10.836Z</time>
      </trkpt>
      <trkpt lat="65.41005" lon="12.19264">
        <ele>51.48132</ele>
        <time>2020-08-13T08:27:13.893Z</time>
      </trkpt>
      <trkpt lat="65.41013" lon="12.19285">
        <ele>51.668545</ele>
        <time>2020-08-13T08:27:16.827Z</time>
      </trkpt>
      <trkpt lat="65.4102" lon="12.19305">
        <ele>51.52829</ele>
        <time>2020-08-13T08:27:19.826Z</time>
      </trkpt>
      <trkpt lat="65.41027" lon="12.19325">
        <ele>51.077192</ele>
        <time>2020-08-13T08:27:22.835Z</time>
      </trkpt>
      <trkpt lat="65.41034" lon="12.19346">
        <ele>50.634853</ele>
        <time>2020-08-13T08:27:25.842Z</time>
      </trkpt>
      <trkpt lat="65.41039" lon="12.19368">
        <ele>50.209192</ele>
        <time>2020-08-13T08:27:28.845Z</time>
      </trkpt>
      <trkpt lat="65.41045" lon="12.19389">
        <ele>49.787714</ele>
        <time>2020-08-13T08:27:31.852Z</time>
      </trkpt>
      <trkpt lat="65.4105" lon="12.19413">
        <ele>49.333064</ele>
        <time>2020-08-13T08:27:34.861Z</time>
      </trkpt>
      <trkpt lat="65.41055" lon="12.19436">
        <ele>48.88718</ele>
        <time>2020-08-13T08:27:37.849Z</time>
      </trkpt>
      <trkpt lat="65.41061" lon="12.1946">
        <ele>48.437434</ele>
        <time>2020-08-13T08:27:40.884Z</time>
      </trkpt>
      <trkpt lat="65.41066" lon="12.19483">
        <ele>47.994056</ele>
        <time>2020-08-13T08:27:43.828Z</time>
      </trkpt>
      <trkpt lat="65.41071" lon="12.19506">
        <ele>47.55581</ele>
        <time>2020-08-13T08:27:46.863Z</time>
      </trkpt>
      <trkpt lat="65.41076" lon="12.1953">
        <ele>47.097221</ele>
        <time>2020-08-13T08:27:49.832Z</time>
      </trkpt>
      <trkpt lat="65.41081" lon="12.19555">
        <ele>46.633762</ele>
        <time>2020-08-13T08:27:52.841Z</time>
      </trkpt>
      <trkpt lat="65.41087" lon="12.19579">
        <ele>46.172742</ele>
        <time>2020-08-13T08:27:55.833Z</time>
      </trkpt>
      <trkpt lat="65.41093" lon="12.19604">
        <ele>45.674286</ele>
        <time>2020-08-13T08:27:58.827Z</time>
      </trkpt>
      <trkpt lat="65.411" lon="12.19631">
        <ele>45.157835</ele>
        <time>2020-08-13T08:28:01.889Z</time>
      </trkpt>
      <trkpt lat="65.41106" lon="12.19658">
        <ele>44.645382</ele>
        <time>2020-08-13T08:28:04.828Z</time>
      </trkpt>
      <trkpt lat="65.41112" lon="12.19683">
        <ele>44.456911</ele>
        <time>2020-08-13T08:28:07.846Z</time>
      </trkpt>
      <trkpt lat="65.41119" lon="12.19708">
        <ele>44.40496</ele>
        <time>2020-08-13T08:28:10.870Z</time>
      </trkpt>
      <trkpt lat="65.41125" lon="12.19734">
        <ele>44.354883</ele>
        <time>2020-08-13T08:28:13.838Z</time>
      </trkpt>
      <trkpt lat="65.41131" lon="12.19757">
        <ele>44.306499</ele>
        <time>2020-08-13T08:28:16.829Z</time>
      </trkpt>
      <trkpt lat="65.41137" lon="12.19779">
        <ele>44.259897</ele>
        <time>2020-08-13T08:28:19.847Z</time>
      </trkpt>
      <trkpt lat="65.41143" lon="12.19803">
        <ele>44.211394</ele>
        <time>2020-08-13T08:28:22.816Z</time>
      </trkpt>
      <trkpt lat="65.4115" lon="12.19827">
        <ele>44.160833</ele>
        <time>2020-08-13T08:28:25.838Z</time>
      </trkpt>
      <trkpt lat="65.41157" lon="12.19851">
        <ele>44.110414</ele>
        <time>2020-08-13T08:28:28.905Z</time>
      </trkpt>
      <trkpt lat="65.41165" lon="12.19874">
        <ele>44.059707</ele>
        <time>2020-08-13T08:28:31.827Z</time>
      </trkpt>
      <trkpt lat="65.41172" lon="12.19897">
        <ele>44.010898</ele>
        <time>2020-08-13T08:28:34.836Z</time>
      </trkpt>
      <trkpt lat="65.41179" lon="12.1992">
        <ele>43.961634</ele>
        <time>2020-08-13T08:28:37.833Z</time>
      </trkpt>
      <trkpt lat="65.41185" lon="12.19943">
        <ele>43.914011</ele>
        <time>2020-08-13T08:28:40.841Z</time>
      </trkpt>
      <trkpt lat="65.41192" lon="12.19965">
        <ele>43.866769</ele>
        <time>2020-08-13T08:28:43.830Z</time>
      </trkpt>
      <trkpt lat="65.41198" lon="12.19988">
        <ele>43.819005</ele>
        <time>2020-08-13T08:28:46.855Z</time>
      </trkpt>
      <trkpt lat="65.41205" lon="12.20011">
        <ele>43.77001</ele>
        <time>2020-08-13T08:28:49.835Z</time>
      </trkpt>
      <trkpt lat="65.41212" lon="12.20034">
        <ele>43.785235</ele>
        <time>2020-08-13T08:28:52.835Z</time>
      </trkpt>
      <trkpt lat="65.41218" lon="12.20057">
        <ele>43.872892</ele>
        <time>2020-08-13T08:28:55.829Z</time>
      </trkpt>
      <trkpt lat="65.41225" lon="12.2008">
        <ele>43.961231</ele>
        <time>2020-08-13T08:28:58.847Z</time>
      </trkpt>
      <trkpt lat="65.41232" lon="12.20104">
        <ele>44.049654</ele>
        <time>2020-08-13T08:29:01.848Z</time>
      </trkpt>
      <trkpt lat="65.41239" lon="12.20126">
        <ele>44.136912</ele>
        <time>2020-08-13T08:29:04.842Z</time>
      </trkpt>
      <trkpt lat="65.41245" lon="12.20149">
        <ele>44.223123</ele>
        <time>2020-08-13T08:29:07.823Z</time>
      </trkpt>
      <trkpt lat="65.41252" lon="12.20172">
        <ele>44.308571</ele>
        <time>2020-08-13T08:29:10.830Z</time>
      </trkpt>
      <trkpt lat="65.41259" lon="12.20195">
        <ele>44.395895</ele>
        <time>2020-08-13T08:29:13.825Z</time>
      </trkpt>
      <trkpt lat="65.41266" lon="12.20217">
        <ele>44.482028</ele>
        <time>2020-08-13T08:29:16.853Z</time>
      </trkpt>
      <trkpt lat="65.41272" lon="12.20241">
        <ele>44.570031</ele>
        <time>2020-08-13T08:29:19.825Z</time>
      </trkpt>
      <trkpt lat="65.41279" lon="12.20264">
        <ele>44.658549</ele>
        <time>2020-08-13T08:29:22.862Z</time>
      </trkpt>
      <trkpt lat="65.41285" lon="12.20286">
        <ele>44.741924</ele>
        <time>2020-08-13T08:29:25.867Z</time>
      </trkpt>
      <trkpt lat="65.41291" lon="12.20307">
        <ele>44.820227</ele>
        <time>2020-08-13T08:29:28.902Z</time>
      </trkpt>
      <trkpt lat="65.41297" lon="12.20325">
        <ele>44.889609</ele>
        <time>2020-08-13T08:29:31.854Z</time>
      </trkpt>
      <trkpt lat="65.41302" lon="12.20343">
        <ele>44.95856</ele>
        <time>2020-08-13T08:29:34.871Z</time>
      </trkpt>
      <trkpt lat="65.41307" lon="12.20361">
        <ele>45.026576</ele>
        <time>2020-08-13T08:29:37.852Z</time>
      </trkpt>
      <trkpt lat="65.41314" lon="12.20383">
        <ele>45.157781</ele>
        <time>2020-08-13T08:29:41.872Z</time>
      </trkpt>
      <trkpt lat="65.41321" lon="12.20405">
        <ele>45.394323</ele>
        <time>2020-08-13T08:29:45.859Z</time>
      </trkpt>
      <trkpt lat="65.41328" lon="12.20428">
        <ele>45.634676</ele>
        <time>2020-08-13T08:29:49.868Z</time>
      </trkpt>
      <trkpt lat="65.41334" lon="12.2045">
        <ele>45.868918</ele>
        <time>2020-08-13T08:29:53.854Z</time>
      </trkpt>
      <trkpt lat="65.4134" lon="12.20472">
        <ele>46.096564</ele>
        <time>2020-08-13T08:29:57.874Z</time>
      </trkpt>
      <trkpt lat="65.41347" lon="12.20494">
        <ele>46.331323</ele>
        <time>2020-08-13T08:30:01.869Z</time>
      </trkpt>
      <trkpt lat="65.41352" lon="12.20515">
        <ele>46.539517</ele>
        <time>2020-08-13T08:30:05.845Z</time>
      </trkpt>
      <trkpt lat="65.41358" lon="12.20534">
        <ele>46.744957</ele>
        <time>2020-08-13T08:30:09.824Z</time>
      </trkpt>
      <trkpt lat="65.41365" lon="12.20557">
        <ele>46.979405</ele>
        <time>2020-08-13T08:30:13.849Z</time>
      </trkpt>
      <trkpt lat="65.4137" lon="12.20578">
        <ele>47.197593</ele>
        <time>2020-08-13T08:30:17.864Z</time>
      </trkpt>
      <trkpt lat="65.41377" lon="12.20599">
        <ele>47.424893</ele>
        <time>2020-08-13T08:30:21.829Z</time>
      </trkpt>
      <trkpt lat="65.41384" lon="12.20618">
        <ele>47.639368</ele>
        <time>2020-08-13T08:30:25.822Z</time>
      </trkpt>
      <trkpt lat="65.4139" lon="12.20639">
        <ele>47.856594</ele>
        <time>2020-08-13T08:30:29.833Z</time>
      </trkpt>
      <trkpt lat="65.41396" lon="12.20661">
        <ele>48.086329</ele>
        <time>2020-08-13T08:30:33.853Z</time>
      </trkpt>
      <trkpt lat="65.41403" lon="12.20683">
        <ele>48.328238</ele>
        <time>2020-08-13T08:30:37.845Z</time>
      </trkpt>
      <trkpt lat="65.4141" lon="12.20706">
        <ele>48.570837</ele>
        <time>2020-08-13T08:30:41.835Z</time>
      </trkpt>
      <trkpt lat="65.41415" lon="12.20723">
        <ele>48.758439</ele>
        <time>2020-08-13T08:30:44.843Z</time>
      </trkpt>
      <trkpt lat="65.41421" lon="12.2074">
        <ele>48.979642</ele>
        <time>2020-08-13T08:30:47.840Z</time>
      </trkpt>
      <trkpt lat="65.41427" lon="12.20757">
        <ele>49.216384</ele>
        <time>2020-08-13T08:30:50.820Z</time>
      </trkpt>
      <trkpt lat="65.41433" lon="12.20773">
        <ele>49.457124</ele>
        <time>2020-08-13T08:30:53.825Z</time>
      </trkpt>
      <trkpt lat="65.4144" lon="12.2079">
        <ele>49.700185</ele>
        <time>2020-08-13T08:30:56.853Z</time>
      </trkpt>
      <trkpt lat="65.41449" lon="12.20808">
        <ele>49.999791</ele>
        <time>2020-08-13T08:31:00.839Z</time>
      </trkpt>
      <trkpt lat="65.41458" lon="12.20825">
        <ele>50.301799</ele>
        <time>2020-08-13T08:31:04.844Z</time>
      </trkpt>
      <trkpt lat="65.41467" lon="12.20842">
        <ele>50.592453</ele>
        <time>2020-08-13T08:31:08.829Z</time>
      </trkpt>
      <trkpt lat="65.41476" lon="12.20857">
        <ele>50.892545</ele>
        <time>2020-08-13T08:31:12.870Z</time>
      </trkpt>
      <trkpt lat="65.41484" lon="12.2087">
        <ele>51.133748</ele>
        <time>2020-08-13T08:31:15.842Z</time>
      </trkpt>
      <trkpt lat="65.41494" lon="12.20883">
        <ele>51.423496</ele>
        <time>2020-08-13T08:31:19.852Z</time>
      </trkpt>
      <trkpt lat="65.41503" lon="12.20896">
        <ele>51.703162</ele>
        <time>2020-08-13T08:31:23.838Z</time>
      </trkpt>
      <trkpt lat="65.41513" lon="12.2091">
        <ele>51.983437</ele>
        <time>2020-08-13T08:31:27.845Z</time>
      </trkpt>
      <trkpt lat="65.41522" lon="12.20925">
        <ele>52.27806</ele>
        <time>2020-08-13T08:31:31.838Z</time>
      </trkpt>
      <trkpt lat="65.41532" lon="12.20937">
        <ele>52.557399</ele>
        <time>2020-08-13T08:31:35.836Z</time>
      </trkpt>
      <trkpt lat="65.41542" lon="12.2095">
        <ele>52.849398</ele>
        <time>2020-08-13T08:31:39.836Z</time>
      </trkpt>
      <trkpt lat="65.41552" lon="12.20964">
        <ele>53.156841</ele>
        <time>2020-08-13T08:31:43.842Z</time>
      </trkpt>
      <trkpt lat="65.41561" lon="12.20976">
        <ele>53.406342</ele>
        <time>2020-08-13T08:31:46.833Z</time>
      </trkpt>
      <trkpt lat="65.4157" lon="12.20986">
        <ele>53.606494</ele>
        <time>2020-08-13T08:31:49.857Z</time>
      </trkpt>
      <trkpt lat="65.41578" lon="12.20999">
        <ele>53.785009</ele>
        <time>2020-08-13T08:31:52.830Z</time>
      </trkpt>
      <trkpt lat="65.41586" lon="12.21009">
        <ele>53.958511</ele>
        <time>2020-08-13T08:31:55.855Z</time>
      </trkpt>
      <trkpt lat="65.41595" lon="12.2102">
        <ele>54.134818</ele>
        <time>2020-08-13T08:31:58.835Z</time>
      </trkpt>
      <trkpt lat="65.41603" lon="12.2103">
        <ele>54.309854</ele>
        <time>2020-08-13T08:32:01.841Z</time>
      </trkpt>
      <trkpt lat="65.41611" lon="12.21041">
        <ele>54.48416</ele>
        <time>2020-08-13T08:32:04.868Z</time>
      </trkpt>
      <trkpt lat="65.41619" lon="12.21053">
        <ele>54.663392</ele>
        <time>2020-08-13T08:32:07.857Z</time>
      </trkpt>
      <trkpt lat="65.41628" lon="12.21065">
        <ele>54.8466</ele>
        <time>2020-08-13T08:32:10.855Z</time>
      </trkpt>
      <trkpt lat="65.41637" lon="12.21079">
        <ele>55.042601</ele>
        <time>2020-08-13T08:32:13.842Z</time>
      </trkpt>
      <trkpt lat="65.41645" lon="12.21089">
        <ele>55.220907</ele>
        <time>2020-08-13T08:32:16.858Z</time>
      </trkpt>
      <trkpt lat="65.41654" lon="12.211">
        <ele>55.394685</ele>
        <time>2020-08-13T08:32:19.836Z</time>
      </trkpt>
      <trkpt lat="65.41662" lon="12.21112">
        <ele>55.58232</ele>
        <time>2020-08-13T08:32:22.821Z</time>
      </trkpt>
      <trkpt lat="65.41672" lon="12.21125">
        <ele>55.782226</ele>
        <time>2020-08-13T08:32:25.834Z</time>
      </trkpt>
      <trkpt lat="65.4168" lon="12.21136">
        <ele>55.958894</ele>
        <time>2020-08-13T08:32:28.835Z</time>
      </trkpt>
      <trkpt lat="65.4169" lon="12.21151">
        <ele>56.174297</ele>
        <time>2020-08-13T08:32:32.830Z</time>
      </trkpt>
      <trkpt lat="65.41698" lon="12.21162">
        <ele>56.343612</ele>
        <time>2020-08-13T08:32:35.852Z</time>
      </trkpt>
      <trkpt lat="65.41708" lon="12.21176">
        <ele>56.562677</ele>
        <time>2020-08-13T08:32:39.826Z</time>
      </trkpt>
      <trkpt lat="65.41716" lon="12.21186">
        <ele>56.730845</ele>
        <time>2020-08-13T08:32:42.835Z</time>
      </trkpt>
      <trkpt lat="65.41724" lon="12.21198">
        <ele>56.839137</ele>
        <time>2020-08-13T08:32:45.825Z</time>
      </trkpt>
      <trkpt lat="65.41734" lon="12.21211">
        <ele>56.927054</ele>
        <time>2020-08-13T08:32:48.824Z</time>
      </trkpt>
      <trkpt lat="65.41742" lon="12.21223">
        <ele>57.007662</ele>
        <time>2020-08-13T08:32:51.827Z</time>
      </trkpt>
      <trkpt lat="65.41751" lon="12.21234">
        <ele>57.089036</ele>
        <time>2020-08-13T08:32:54.837Z</time>
      </trkpt>
      <trkpt lat="65.4176" lon="12.21244">
        <ele>57.168272</ele>
        <time>2020-08-13T08:32:57.853Z</time>
      </trkpt>
      <trkpt lat="65.41768" lon="12.21255">
        <ele>57.242469</ele>
        <time>2020-08-13T08:33:00.844Z</time>
      </trkpt>
      <trkpt lat="65.41778" lon="12.21271">
        <ele>57.338423</ele>
        <time>2020-08-13T08:33:04.847Z</time>
      </trkpt>
      <trkpt lat="65.41785" lon="12.21285">
        <ele>57.41445</ele>
        <time>2020-08-13T08:33:07.849Z</time>
      </trkpt>
      <trkpt lat="65.41792" lon="12.213">
        <ele>57.489807</ele>
        <time>2020-08-13T08:33:10.839Z</time>
      </trkpt>
      <trkpt lat="65.41799" lon="12.21316">
        <ele>57.568938</ele>
        <time>2020-08-13T08:33:13.845Z</time>
      </trkpt>
      <trkpt lat="65.41806" lon="12.21332">
        <ele>57.647841</ele>
        <time>2020-08-13T08:33:16.833Z</time>
      </trkpt>
      <trkpt lat="65.41813" lon="12.21346">
        <ele>57.722286</ele>
        <time>2020-08-13T08:33:19.864Z</time>
      </trkpt>
      <trkpt lat="65.41822" lon="12.21363">
        <ele>57.815042</ele>
        <time>2020-08-13T08:33:23.833Z</time>
      </trkpt>
      <trkpt lat="65.41829" lon="12.21379">
        <ele>57.891325</ele>
        <time>2020-08-13T08:33:26.822Z</time>
      </trkpt>
      <trkpt lat="65.41835" lon="12.21394">
        <ele>57.965854</ele>
        <time>2020-08-13T08:33:29.832Z</time>
      </trkpt>
      <trkpt lat="65.41844" lon="12.21414">
        <ele>58.063023</ele>
        <time>2020-08-13T08:33:33.846Z</time>
      </trkpt>
      <trkpt lat="65.41851" lon="12.21429">
        <ele>58.13815</ele>
        <time>2020-08-13T08:33:36.856Z</time>
      </trkpt>
      <trkpt lat="65.41859" lon="12.21448">
        <ele>58.233984</ele>
        <time>2020-08-13T08:33:40.846Z</time>
      </trkpt>
      <trkpt lat="65.41868" lon="12.21465">
        <ele>58.510595</ele>
        <time>2020-08-13T08:33:44.826Z</time>
      </trkpt>
      <trkpt lat="65.41876" lon="12.21481">
        <ele>58.793417</ele>
        <time>2020-08-13T08:33:48.825Z</time>
      </trkpt>
      <trkpt lat="65.41883" lon="12.21496">
        <ele>59.054393</ele>
        <time>2020-08-13T08:33:52.845Z</time>
      </trkpt>
      <trkpt lat="65.41891" lon="12.21511">
        <ele>59.322282</ele>
        <time>2020-08-13T08:33:56.826Z</time>
      </trkpt>
      <trkpt lat="65.41898" lon="12.21524">
        <ele>59.581883</ele>
        <time>2020-08-13T08:34:00.837Z</time>
      </trkpt>
      <trkpt lat="65.41906" lon="12.21537">
        <ele>59.828961</ele>
        <time>2020-08-13T08:34:04.828Z</time>
      </trkpt>
      <trkpt lat="65.41913" lon="12.2155">
        <ele>60.078337</ele>
        <time>2020-08-13T08:34:08.826Z</time>
      </trkpt>
      <trkpt lat="65.41923" lon="12.21562">
        <ele>60.383716</ele>
        <time>2020-08-13T08:34:13.851Z</time>
      </trkpt>
      <trkpt lat="65.41931" lon="12.21575">
        <ele>60.65899</ele>
        <time>2020-08-13T08:34:18.837Z</time>
      </trkpt>
      <trkpt lat="65.41939" lon="12.21586">
        <ele>60.910745</ele>
        <time>2020-08-13T08:34:22.851Z</time>
      </trkpt>
      <trkpt lat="65.41947" lon="12.21597">
        <ele>61.165445</ele>
        <time>2020-08-13T08:34:26.871Z</time>
      </trkpt>
      <trkpt lat="65.41957" lon="12.21611">
        <ele>61.477785</ele>
        <time>2020-08-13T08:34:30.843Z</time>
      </trkpt>
      <trkpt lat="65.41965" lon="12.21623">
        <ele>61.746003</ele>
        <time>2020-08-13T08:34:33.861Z</time>
      </trkpt>
      <trkpt lat="65.41974" lon="12.21635">
        <ele>62.02962</ele>
        <time>2020-08-13T08:34:36.831Z</time>
      </trkpt>
      <trkpt lat="65.41984" lon="12.21649">
        <ele>62.324893</ele>
        <time>2020-08-13T08:34:39.829Z</time>
      </trkpt>
      <trkpt lat="65.41994" lon="12.21664">
        <ele>62.650175</ele>
        <time>2020-08-13T08:34:42.835Z</time>
      </trkpt>
      <trkpt lat="65.42005" lon="12.21681">
        <ele>63.014988</ele>
        <time>2020-08-13T08:34:45.842Z</time>
      </trkpt>
      <trkpt lat="65.42013" lon="12.21695">
        <ele>63.07493</ele>
        <time>2020-08-13T08:34:47.830Z</time>
      </trkpt>
      <trkpt lat="65.42022" lon="12.21711">
        <ele>62.756247</ele>
        <time>2020-08-13T08:34:49.826Z</time>
      </trkpt>
      <trkpt lat="65.42031" lon="12.21729">
        <ele>62.419498</ele>
        <time>2020-08-13T08:34:51.829Z</time>
      </trkpt>
      <trkpt lat="65.4204" lon="12.21747">
        <ele>62.068399</ele>
        <time>2020-08-13T08:34:53.838Z</time>
      </trkpt>
      <trkpt lat="65.4205" lon="12.21765">
        <ele>61.715046</ele>
        <time>2020-08-13T08:34:55.836Z</time>
      </trkpt>
      <trkpt lat="65.42059" lon="12.21783">
        <ele>61.360174</ele>
        <time>2020-08-13T08:34:57.854Z</time>
      </trkpt>
      <trkpt lat="65.42068" lon="12.21802">
        <ele>61.015031</ele>
        <time>2020-08-13T08:34:59.832Z</time>
      </trkpt>
      <trkpt lat="65.42077" lon="12.2182">
        <ele>60.670665</ele>
        <time>2020-08-13T08:35:01.836Z</time>
      </trkpt>
      <trkpt lat="65.42086" lon="12.21837">
        <ele>60.33619</ele>
        <time>2020-08-13T08:35:03.839Z</time>
      </trkpt>
      <trkpt lat="65.42095" lon="12.21854">
        <ele>60.017557</ele>
        <time>2020-08-13T08:35:05.847Z</time>
      </trkpt>
      <trkpt lat="65.42103" lon="12.21869">
        <ele>59.735179</ele>
        <time>2020-08-13T08:35:07.835Z</time>
      </trkpt>
      <trkpt lat="65.42109" lon="12.21883">
        <ele>59.470752</ele>
        <time>2020-08-13T08:35:09.871Z</time>
      </trkpt>
      <trkpt lat="65.4212" lon="12.21902">
        <ele>59.090141</ele>
        <time>2020-08-13T08:35:12.827Z</time>
      </trkpt>
      <trkpt lat="65.42127" lon="12.21916">
        <ele>58.813786</ele>
        <time>2020-08-13T08:35:14.833Z</time>
      </trkpt>
      <trkpt lat="65.42135" lon="12.2193">
        <ele>58.54415</ele>
        <time>2020-08-13T08:35:16.849Z</time>
      </trkpt>
      <trkpt lat="65.42142" lon="12.21945">
        <ele>58.258735</ele>
        <time>2020-08-13T08:35:18.833Z</time>
      </trkpt>
      <trkpt lat="65.4215" lon="12.2196">
        <ele>57.969562</ele>
        <time>2020-08-13T08:35:20.835Z</time>
      </trkpt>
      <trkpt lat="65.42158" lon="12.21974">
        <ele>57.752654</ele>
        <time>2020-08-13T08:35:22.826Z</time>
      </trkpt>
      <trkpt lat="65.42166" lon="12.21989">
        <ele>57.535947</ele>
        <time>2020-08-13T08:35:24.837Z</time>
      </trkpt>
      <trkpt lat="65.42173" lon="12.22003">
        <ele>57.329507</ele>
        <time>2020-08-13T08:35:26.839Z</time>
      </trkpt>
      <trkpt lat="65.42181" lon="12.22017">
        <ele>57.122499</ele>
        <time>2020-08-13T08:35:28.837Z</time>
      </trkpt>
      <trkpt lat="65.42188" lon="12.22032">
        <ele>56.912671</ele>
        <time>2020-08-13T08:35:30.847Z</time>
      </trkpt>
      <trkpt lat="65.42196" lon="12.22045">
        <ele>56.708422</ele>
        <time>2020-08-13T08:35:32.833Z</time>
      </trkpt>
      <trkpt lat="65.42203" lon="12.2206">
        <ele>56.504235</ele>
        <time>2020-08-13T08:35:34.854Z</time>
      </trkpt>
      <trkpt lat="65.42211" lon="12.22074">
        <ele>56.292701</ele>
        <time>2020-08-13T08:35:36.818Z</time>
      </trkpt>
      <trkpt lat="65.42219" lon="12.22089">
        <ele>56.082314</ele>
        <time>2020-08-13T08:35:38.828Z</time>
      </trkpt>
      <trkpt lat="65.42226" lon="12.22104">
        <ele>55.874668</ele>
        <time>2020-08-13T08:35:40.852Z</time>
      </trkpt>
      <trkpt lat="65.42233" lon="12.22118">
        <ele>55.673245</ele>
        <time>2020-08-13T08:35:42.841Z</time>
      </trkpt>
      <trkpt lat="65.4224" lon="12.22132">
        <ele>55.471823</ele>
        <time>2020-08-13T08:35:44.826Z</time>
      </trkpt>
      <trkpt lat="65.42247" lon="12.22147">
        <ele>55.268206</ele>
        <time>2020-08-13T08:35:46.831Z</time>
      </trkpt>
      <trkpt lat="65.42255" lon="12.22161">
        <ele>55.059492</ele>
        <time>2020-08-13T08:35:48.829Z</time>
      </trkpt>
      <trkpt lat="65.42263" lon="12.22175">
        <ele>54.850697</ele>
        <time>2020-08-13T08:35:50.850Z</time>
      </trkpt>
      <trkpt lat="65.4227" lon="12.22189">
        <ele>54.64144</ele>
        <time>2020-08-13T08:35:52.828Z</time>
      </trkpt>
      <trkpt lat="65.42277" lon="12.22205">
        <ele>54.431873</ele>
        <time>2020-08-13T08:35:54.851Z</time>
      </trkpt>
      <trkpt lat="65.42285" lon="12.22219">
        <ele>54.216355</ele>
        <time>2020-08-13T08:35:56.853Z</time>
      </trkpt>
      <trkpt lat="65.42293" lon="12.22234">
        <ele>53.994348</ele>
        <time>2020-08-13T08:35:58.849Z</time>
      </trkpt>
      <trkpt lat="65.423" lon="12.22248">
        <ele>53.754992</ele>
        <time>2020-08-13T08:36:00.844Z</time>
      </trkpt>
      <trkpt lat="65.42308" lon="12.22262">
        <ele>53.515637</ele>
        <time>2020-08-13T08:36:02.850Z</time>
      </trkpt>
      <trkpt lat="65.42315" lon="12.22277">
        <ele>53.269694</ele>
        <time>2020-08-13T08:36:04.833Z</time>
      </trkpt>
      <trkpt lat="65.42323" lon="12.22292">
        <ele>53.027013</ele>
        <time>2020-08-13T08:36:06.828Z</time>
      </trkpt>
      <trkpt lat="65.4233" lon="12.22307">
        <ele>52.796026</ele>
        <time>2020-08-13T08:36:08.849Z</time>
      </trkpt>
      <trkpt lat="65.42337" lon="12.22323">
        <ele>52.543237</ele>
        <time>2020-08-13T08:36:10.823Z</time>
      </trkpt>
      <trkpt lat="65.42345" lon="12.22339">
        <ele>52.295279</ele>
        <time>2020-08-13T08:36:12.826Z</time>
      </trkpt>
      <trkpt lat="65.42352" lon="12.22355">
        <ele>52.04388</ele>
        <time>2020-08-13T08:36:14.852Z</time>
      </trkpt>
      <trkpt lat="65.4236" lon="12.22372">
        <ele>51.77578</ele>
        <time>2020-08-13T08:36:16.827Z</time>
      </trkpt>
      <trkpt lat="65.42369" lon="12.22388">
        <ele>51.500563</ele>
        <time>2020-08-13T08:36:18.837Z</time>
      </trkpt>
      <trkpt lat="65.42378" lon="12.22407">
        <ele>51.195987</ele>
        <time>2020-08-13T08:36:20.848Z</time>
      </trkpt>
      <trkpt lat="65.42388" lon="12.22426">
        <ele>50.87247</ele>
        <time>2020-08-13T08:36:22.837Z</time>
      </trkpt>
      <trkpt lat="65.42399" lon="12.22445">
        <ele>50.547694</ele>
        <time>2020-08-13T08:36:24.851Z</time>
      </trkpt>
      <trkpt lat="65.42409" lon="12.22466">
        <ele>50.211776</ele>
        <time>2020-08-13T08:36:26.842Z</time>
      </trkpt>
      <trkpt lat="65.42419" lon="12.22486">
        <ele>49.88622</ele>
        <time>2020-08-13T08:36:28.828Z</time>
      </trkpt>
      <trkpt lat="65.42428" lon="12.22506">
        <ele>49.570994</ele>
        <time>2020-08-13T08:36:30.838Z</time>
      </trkpt>
      <trkpt lat="65.42438" lon="12.22526">
        <ele>49.3077</ele>
        <time>2020-08-13T08:36:32.828Z</time>
      </trkpt>
      <trkpt lat="65.42448" lon="12.22547">
        <ele>49.050941</ele>
        <time>2020-08-13T08:36:34.825Z</time>
      </trkpt>
      <trkpt lat="65.42456" lon="12.22565">
        <ele>48.823066</ele>
        <time>2020-08-13T08:36:36.820Z</time>
      </trkpt>
      <trkpt lat="65.42464" lon="12.22581">
        <ele>48.621381</ele>
        <time>2020-08-13T08:36:38.846Z</time>
      </trkpt>
      <trkpt lat="65.42471" lon="12.22596">
        <ele>48.43381</ele>
        <time>2020-08-13T08:36:40.882Z</time>
      </trkpt>
      <trkpt lat="65.42478" lon="12.22611">
        <ele>48.245619</ele>
        <time>2020-08-13T08:36:42.851Z</time>
      </trkpt>
      <trkpt lat="65.42485" lon="12.22625">
        <ele>48.065203</ele>
        <time>2020-08-13T08:36:44.845Z</time>
      </trkpt>
      <trkpt lat="65.42495" lon="12.22645">
        <ele>47.808447</ele>
        <time>2020-08-13T08:36:47.839Z</time>
      </trkpt>
      <trkpt lat="65.42504" lon="12.22666">
        <ele>47.556159</ele>
        <time>2020-08-13T08:36:50.833Z</time>
      </trkpt>
      <trkpt lat="65.42513" lon="12.22686">
        <ele>47.308276</ele>
        <time>2020-08-13T08:36:53.844Z</time>
      </trkpt>
      <trkpt lat="65.42522" lon="12.22705">
        <ele>47.065563</ele>
        <time>2020-08-13T08:36:56.904Z</time>
      </trkpt>
      <trkpt lat="65.42532" lon="12.22725">
        <ele>46.820802</ele>
        <time>2020-08-13T08:36:59.848Z</time>
      </trkpt>
      <trkpt lat="65.42541" lon="12.22745">
        <ele>46.568682</ele>
        <time>2020-08-13T08:37:02.855Z</time>
      </trkpt>
      <trkpt lat="65.42551" lon="12.22766">
        <ele>46.305484</ele>
        <time>2020-08-13T08:37:05.861Z</time>
      </trkpt>
      <trkpt lat="65.42558" lon="12.22781">
        <ele>46.122906</ele>
        <time>2020-08-13T08:37:07.879Z</time>
      </trkpt>
      <trkpt lat="65.42565" lon="12.22796">
        <ele>46.007815</ele>
        <time>2020-08-13T08:37:09.818Z</time>
      </trkpt>
      <trkpt lat="65.42572" lon="12.22811">
        <ele>46.228281</ele>
        <time>2020-08-13T08:37:11.841Z</time>
      </trkpt>
      <trkpt lat="65.42579" lon="12.22826">
        <ele>46.444006</ele>
        <time>2020-08-13T08:37:13.869Z</time>
      </trkpt>
      <trkpt lat="65.42586" lon="12.22841">
        <ele>46.658279</ele>
        <time>2020-08-13T08:37:15.849Z</time>
      </trkpt>
      <trkpt lat="65.42593" lon="12.22855">
        <ele>46.878486</ele>
        <time>2020-08-13T08:37:17.820Z</time>
      </trkpt>
      <trkpt lat="65.42601" lon="12.2287">
        <ele>47.105963</ele>
        <time>2020-08-13T08:37:19.844Z</time>
      </trkpt>
      <trkpt lat="65.42608" lon="12.22886">
        <ele>47.344886</ele>
        <time>2020-08-13T08:37:21.835Z</time>
      </trkpt>
      <trkpt lat="65.42616" lon="12.22902">
        <ele>47.583809</ele>
        <time>2020-08-13T08:37:23.842Z</time>
      </trkpt>
      <trkpt lat="65.42624" lon="12.22917">
        <ele>47.808892</ele>
        <time>2020-08-13T08:37:25.848Z</time>
      </trkpt>
      <trkpt lat="65.42631" lon="12.22932">
        <ele>48.036368</ele>
        <time>2020-08-13T08:37:27.817Z</time>
      </trkpt>
      <trkpt lat="65.42639" lon="12.22948">
        <ele>48.262862</ele>
        <time>2020-08-13T08:37:29.857Z</time>
      </trkpt>
      <trkpt lat="65.42648" lon="12.22969">
        <ele>48.564755</ele>
        <time>2020-08-13T08:37:32.834Z</time>
      </trkpt>
      <trkpt lat="65.42657" lon="12.22988">
        <ele>48.843448</ele>
        <time>2020-08-13T08:37:35.849Z</time>
      </trkpt>
      <trkpt lat="65.42665" lon="12.23004">
        <ele>49.089644</ele>
        <time>2020-08-13T08:37:38.840Z</time>
      </trkpt>
      <trkpt lat="65.42673" lon="12.23018">
        <ele>49.309209</ele>
        <time>2020-08-13T08:37:41.836Z</time>
      </trkpt>
      <trkpt lat="65.4268" lon="12.23034">
        <ele>49.537633</ele>
        <time>2020-08-13T08:37:44.824Z</time>
      </trkpt>
      <trkpt lat="65.42687" lon="12.23051">
        <ele>49.767295</ele>
        <time>2020-08-13T08:37:47.825Z</time>
      </trkpt>
      <trkpt lat="65.42695" lon="12.23068">
        <ele>50.002654</ele>
        <time>2020-08-13T08:37:50.823Z</time>
      </trkpt>
      <trkpt lat="65.42703" lon="12.23088">
        <ele>50.016574</ele>
        <time>2020-08-13T08:37:53.870Z</time>
      </trkpt>
      <trkpt lat="65.4271" lon="12.23105">
        <ele>49.817336</ele>
        <time>2020-08-13T08:37:55.863Z</time>
      </trkpt>
      <trkpt lat="65.42716" lon="12.23122">
        <ele>49.62115</ele>
        <time>2020-08-13T08:37:57.845Z</time>
      </trkpt>
      <trkpt lat="65.42722" lon="12.23139">
        <ele>49.429645</ele>
        <time>2020-08-13T08:37:59.831Z</time>
      </trkpt>
      <trkpt lat="65.42729" lon="12.23158">
        <ele>49.216427</ele>
        <time>2020-08-13T08:38:01.828Z</time>
      </trkpt>
      <trkpt lat="65.42735" lon="12.23176">
        <ele>49.017634</ele>
        <time>2020-08-13T08:38:03.886Z</time>
      </trkpt>
      <trkpt lat="65.42741" lon="12.23195">
        <ele>48.821932</ele>
        <time>2020-08-13T08:38:05.848Z</time>
      </trkpt>
      <trkpt lat="65.42746" lon="12.23213">
        <ele>48.628471</ele>
        <time>2020-08-13T08:38:07.865Z</time>
      </trkpt>
      <trkpt lat="65.42751" lon="12.23232">
        <ele>48.438181</ele>
        <time>2020-08-13T08:38:09.841Z</time>
      </trkpt>
      <trkpt lat="65.42756" lon="12.2325">
        <ele>48.24933</ele>
        <time>2020-08-13T08:38:11.840Z</time>
      </trkpt>
      <trkpt lat="65.42761" lon="12.23269">
        <ele>48.061912</ele>
        <time>2020-08-13T08:38:13.829Z</time>
      </trkpt>
      <trkpt lat="65.42766" lon="12.23287">
        <ele>47.870787</ele>
        <time>2020-08-13T08:38:15.833Z</time>
      </trkpt>
      <trkpt lat="65.42771" lon="12.23306">
        <ele>47.681234</ele>
        <time>2020-08-13T08:38:17.826Z</time>
      </trkpt>
      <trkpt lat="65.42776" lon="12.23325">
        <ele>47.488781</ele>
        <time>2020-08-13T08:38:19.840Z</time>
      </trkpt>
      <trkpt lat="65.42783" lon="12.23352">
        <ele>47.215996</ele>
        <time>2020-08-13T08:38:22.842Z</time>
      </trkpt>
      <trkpt lat="65.42792" lon="12.23377">
        <ele>46.940768</ele>
        <time>2020-08-13T08:38:25.849Z</time>
      </trkpt>
      <trkpt lat="65.42801" lon="12.23399">
        <ele>46.672737</ele>
        <time>2020-08-13T08:38:28.871Z</time>
      </trkpt>
      <trkpt lat="65.4281" lon="12.23421">
        <ele>46.43984</ele>
        <time>2020-08-13T08:38:31.845Z</time>
      </trkpt>
      <trkpt lat="65.42818" lon="12.23443">
        <ele>46.442936</ele>
        <time>2020-08-13T08:38:34.834Z</time>
      </trkpt>
      <trkpt lat="65.42827" lon="12.23465">
        <ele>46.446113</ele>
        <time>2020-08-13T08:38:37.848Z</time>
      </trkpt>
      <trkpt lat="65.42836" lon="12.2349">
        <ele>46.449509</ele>
        <time>2020-08-13T08:38:40.853Z</time>
      </trkpt>
      <trkpt lat="65.42842" lon="12.23508">
        <ele>46.451947</ele>
        <time>2020-08-13T08:38:42.844Z</time>
      </trkpt>
      <trkpt lat="65.42847" lon="12.23528">
        <ele>46.454459</ele>
        <time>2020-08-13T08:38:44.847Z</time>
      </trkpt>
      <trkpt lat="65.42854" lon="12.23548">
        <ele>46.457081</ele>
        <time>2020-08-13T08:38:46.830Z</time>
      </trkpt>
      <trkpt lat="65.42859" lon="12.23569">
        <ele>46.459591</ele>
        <time>2020-08-13T08:38:48.845Z</time>
      </trkpt>
      <trkpt lat="65.42863" lon="12.2359">
        <ele>46.462061</ele>
        <time>2020-08-13T08:38:50.828Z</time>
      </trkpt>
      <trkpt lat="65.42868" lon="12.23612">
        <ele>46.464611</ele>
        <time>2020-08-13T08:38:52.831Z</time>
      </trkpt>
      <trkpt lat="65.42872" lon="12.23634">
        <ele>46.467106</ele>
        <time>2020-08-13T08:38:54.842Z</time>
      </trkpt>
      <trkpt lat="65.42876" lon="12.23653">
        <ele>46.46934</ele>
        <time>2020-08-13T08:38:56.849Z</time>
      </trkpt>
      <trkpt lat="65.42881" lon="12.23682">
        <ele>46.472649</ele>
        <time>2020-08-13T08:38:59.833Z</time>
      </trkpt>
      <trkpt lat="65.42886" lon="12.23711">
        <ele>46.475939</ele>
        <time>2020-08-13T08:39:02.851Z</time>
      </trkpt>
      <trkpt lat="65.42891" lon="12.23738">
        <ele>46.479037</ele>
        <time>2020-08-13T08:39:05.853Z</time>
      </trkpt>
      <trkpt lat="65.42896" lon="12.23764">
        <ele>46.481981</ele>
        <time>2020-08-13T08:39:08.844Z</time>
      </trkpt>
      <trkpt lat="65.42901" lon="12.23789">
        <ele>46.585822</ele>
        <time>2020-08-13T08:39:11.826Z</time>
      </trkpt>
      <trkpt lat="65.42906" lon="12.23812">
        <ele>47.385783</ele>
        <time>2020-08-13T08:39:14.846Z</time>
      </trkpt>
      <trkpt lat="65.42911" lon="12.23833">
        <ele>48.144561</ele>
        <time>2020-08-13T08:39:17.833Z</time>
      </trkpt>
      <trkpt lat="65.42915" lon="12.23854">
        <ele>48.849515</ele>
        <time>2020-08-13T08:39:20.855Z</time>
      </trkpt>
      <trkpt lat="65.4292" lon="12.23875">
        <ele>49.551703</ele>
        <time>2020-08-13T08:39:23.848Z</time>
      </trkpt>
      <trkpt lat="65.42924" lon="12.23895">
        <ele>50.267795</ele>
        <time>2020-08-13T08:39:26.843Z</time>
      </trkpt>
      <trkpt lat="65.42929" lon="12.23918">
        <ele>51.031377</ele>
        <time>2020-08-13T08:39:29.845Z</time>
      </trkpt>
      <trkpt lat="65.42933" lon="12.2394">
        <ele>51.780777</ele>
        <time>2020-08-13T08:39:32.834Z</time>
      </trkpt>
      <trkpt lat="65.42937" lon="12.23962">
        <ele>52.52802</ele>
        <time>2020-08-13T08:39:35.871Z</time>
      </trkpt>
      <trkpt lat="65.42942" lon="12.23983">
        <ele>53.273507</ele>
        <time>2020-08-13T08:39:38.845Z</time>
      </trkpt>
      <trkpt lat="65.42947" lon="12.24003">
        <ele>53.969071</ele>
        <time>2020-08-13T08:39:41.830Z</time>
      </trkpt>
      <trkpt lat="65.42952" lon="12.24022">
        <ele>54.668829</ele>
        <time>2020-08-13T08:39:44.884Z</time>
      </trkpt>
      <trkpt lat="65.42957" lon="12.24045">
        <ele>55.470653</ele>
        <time>2020-08-13T08:39:48.839Z</time>
      </trkpt>
      <trkpt lat="65.42961" lon="12.24065">
        <ele>56.144801</ele>
        <time>2020-08-13T08:39:51.840Z</time>
      </trkpt>
      <trkpt lat="65.42966" lon="12.24088">
        <ele>56.909894</ele>
        <time>2020-08-13T08:39:55.823Z</time>
      </trkpt>
      <trkpt lat="65.4297" lon="12.24109">
        <ele>57.635014</ele>
        <time>2020-08-13T08:39:59.833Z</time>
      </trkpt>
      <trkpt lat="65.42974" lon="12.24131">
        <ele>58.384525</ele>
        <time>2020-08-13T08:40:04.845Z</time>
      </trkpt>
      <trkpt lat="65.42978" lon="12.24151">
        <ele>59.05793</ele>
        <time>2020-08-13T08:40:09.849Z</time>
      </trkpt>
      <trkpt lat="65.42982" lon="12.24172">
        <ele>59.722254</ele>
        <time>2020-08-13T08:40:14.823Z</time>
      </trkpt>
      <trkpt lat="65.42986" lon="12.24192">
        <ele>59.549122</ele>
        <time>2020-08-13T08:40:18.858Z</time>
      </trkpt>
      <trkpt lat="65.4299" lon="12.24216">
        <ele>59.348123</ele>
        <time>2020-08-13T08:40:22.855Z</time>
      </trkpt>
      <trkpt lat="65.42992" lon="12.24238">
        <ele>59.171009</ele>
        <time>2020-08-13T08:40:26.830Z</time>
      </trkpt>
      <trkpt lat="65.42997" lon="12.24257">
        <ele>58.999747</ele>
        <time>2020-08-13T08:40:30.845Z</time>
      </trkpt>
      <trkpt lat="65.43002" lon="12.24275">
        <ele>58.82953</ele>
        <time>2020-08-13T08:40:34.833Z</time>
      </trkpt>
      <trkpt lat="65.43007" lon="12.24294">
        <ele>58.656838</ele>
        <time>2020-08-13T08:40:38.824Z</time>
      </trkpt>
      <trkpt lat="65.43011" lon="12.24313">
        <ele>58.48151</ele>
        <time>2020-08-13T08:40:42.843Z</time>
      </trkpt>
      <trkpt lat="65.43017" lon="12.24335">
        <ele>58.282397</ele>
        <time>2020-08-13T08:40:46.832Z</time>
      </trkpt>
      <trkpt lat="65.43023" lon="12.24358">
        <ele>58.069639</ele>
        <time>2020-08-13T08:40:50.853Z</time>
      </trkpt>
      <trkpt lat="65.43028" lon="12.24381">
        <ele>57.861591</ele>
        <time>2020-08-13T08:40:54.842Z</time>
      </trkpt>
      <trkpt lat="65.43035" lon="12.24405">
        <ele>57.635528</ele>
        <time>2020-08-13T08:40:58.815Z</time>
      </trkpt>
      <trkpt lat="65.43042" lon="12.24427">
        <ele>57.424012</ele>
        <time>2020-08-13T08:41:02.872Z</time>
      </trkpt>
      <trkpt lat="65.43048" lon="12.2445">
        <ele>57.209533</ele>
        <time>2020-08-13T08:41:06.839Z</time>
      </trkpt>
      <trkpt lat="65.43053" lon="12.24472">
        <ele>57.007986</ele>
        <time>2020-08-13T08:41:10.845Z</time>
      </trkpt>
      <trkpt lat="65.4306" lon="12.24492">
        <ele>56.807159</ele>
        <time>2020-08-13T08:41:14.854Z</time>
      </trkpt>
      <trkpt lat="65.43066" lon="12.24515">
        <ele>56.594481</ele>
        <time>2020-08-13T08:41:18.864Z</time>
      </trkpt>
      <trkpt lat="65.43073" lon="12.24536">
        <ele>56.388338</ele>
        <time>2020-08-13T08:41:22.838Z</time>
      </trkpt>
      <trkpt lat="65.43079" lon="12.24555">
        <ele>56.230571</ele>
        <time>2020-08-13T08:41:26.841Z</time>
      </trkpt>
      <trkpt lat="65.43085" lon="12.24575">
        <ele>56.077602</ele>
        <time>2020-08-13T08:41:30.845Z</time>
      </trkpt>
      <trkpt lat="65.43091" lon="12.24594">
        <ele>55.923346</ele>
        <time>2020-08-13T08:41:34.824Z</time>
      </trkpt>
      <trkpt lat="65.43098" lon="12.24614">
        <ele>55.767206</ele>
        <time>2020-08-13T08:41:38.842Z</time>
      </trkpt>
      <trkpt lat="65.43104" lon="12.24633">
        <ele>55.620272</ele>
        <time>2020-08-13T08:41:42.835Z</time>
      </trkpt>
      <trkpt lat="65.43109" lon="12.24653">
        <ele>55.476762</ele>
        <time>2020-08-13T08:41:46.841Z</time>
      </trkpt>
      <trkpt lat="65.43114" lon="12.24676">
        <ele>55.315526</ele>
        <time>2020-08-13T08:41:50.842Z</time>
      </trkpt>
      <trkpt lat="65.43117" lon="12.24698">
        <ele>55.16911</ele>
        <time>2020-08-13T08:41:54.825Z</time>
      </trkpt>
      <trkpt lat="65.43121" lon="12.24721">
        <ele>55.019307</ele>
        <time>2020-08-13T08:41:58.867Z</time>
      </trkpt>
      <trkpt lat="65.43124" lon="12.24742">
        <ele>54.881</ele>
        <time>2020-08-13T08:42:01.858Z</time>
      </trkpt>
      <trkpt lat="65.43128" lon="12.24767">
        <ele>54.716263</ele>
        <time>2020-08-13T08:42:04.836Z</time>
      </trkpt>
      <trkpt lat="65.43132" lon="12.24795">
        <ele>54.530136</ele>
        <time>2020-08-13T08:42:07.867Z</time>
      </trkpt>
      <trkpt lat="65.43136" lon="12.24826">
        <ele>54.333314</ele>
        <time>2020-08-13T08:42:10.838Z</time>
      </trkpt>
      <trkpt lat="65.43139" lon="12.24847">
        <ele>54.194764</ele>
        <time>2020-08-13T08:42:12.825Z</time>
      </trkpt>
      <trkpt lat="65.43142" lon="12.24868">
        <ele>54.056292</ele>
        <time>2020-08-13T08:42:14.840Z</time>
      </trkpt>
      <trkpt lat="65.43147" lon="12.24897">
        <ele>53.861167</ele>
        <time>2020-08-13T08:42:17.840Z</time>
      </trkpt>
      <trkpt lat="65.43151" lon="12.24925">
        <ele>53.679623</ele>
        <time>2020-08-13T08:42:20.841Z</time>
      </trkpt>
      <trkpt lat="65.43155" lon="12.24952">
        <ele>53.386248</ele>
        <time>2020-08-13T08:42:23.840Z</time>
      </trkpt>
      <trkpt lat="65.43159" lon="12.24979">
        <ele>53.098022</ele>
        <time>2020-08-13T08:42:26.824Z</time>
      </trkpt>
      <trkpt lat="65.43162" lon="12.25003">
        <ele>52.839026</ele>
        <time>2020-08-13T08:42:29.847Z</time>
      </trkpt>
      <trkpt lat="65.43166" lon="12.25027">
        <ele>52.572042</ele>
        <time>2020-08-13T08:42:32.846Z</time>
      </trkpt>
      <trkpt lat="65.43171" lon="12.25054">
        <ele>52.271921</ele>
        <time>2020-08-13T08:42:35.833Z</time>
      </trkpt>
      <trkpt lat="65.43175" lon="12.25084">
        <ele>51.946963</ele>
        <time>2020-08-13T08:42:38.833Z</time>
      </trkpt>
      <trkpt lat="65.43179" lon="12.25105">
        <ele>51.716548</ele>
        <time>2020-08-13T08:42:40.868Z</time>
      </trkpt>
      <trkpt lat="65.43182" lon="12.25126">
        <ele>51.483651</ele>
        <time>2020-08-13T08:42:42.879Z</time>
      </trkpt>
      <trkpt lat="65.43186" lon="12.25148">
        <ele>51.245962</ele>
        <time>2020-08-13T08:42:44.825Z</time>
      </trkpt>
      <trkpt lat="65.43189" lon="12.2517">
        <ele>51.005201</ele>
        <time>2020-08-13T08:42:46.824Z</time>
      </trkpt>
      <trkpt lat="65.43192" lon="12.25192">
        <ele>50.758642</ele>
        <time>2020-08-13T08:42:48.818Z</time>
      </trkpt>
      <trkpt lat="65.43196" lon="12.25215">
        <ele>50.508694</ele>
        <time>2020-08-13T08:42:50.863Z</time>
      </trkpt>
      <trkpt lat="65.432" lon="12.25238">
        <ele>50.253033</ele>
        <time>2020-08-13T08:42:52.844Z</time>
      </trkpt>
      <trkpt lat="65.43204" lon="12.25261">
        <ele>49.999223</ele>
        <time>2020-08-13T08:42:54.825Z</time>
      </trkpt>
      <trkpt lat="65.43207" lon="12.25285">
        <ele>49.737829</ele>
        <time>2020-08-13T08:42:56.829Z</time>
      </trkpt>
      <trkpt lat="65.43211" lon="12.25308">
        <ele>49.481147</ele>
        <time>2020-08-13T08:42:58.831Z</time>
      </trkpt>
      <trkpt lat="65.43215" lon="12.25332">
        <ele>49.234994</ele>
        <time>2020-08-13T08:43:00.843Z</time>
      </trkpt>
      <trkpt lat="65.43218" lon="12.25355">
        <ele>49.232227</ele>
        <time>2020-08-13T08:43:02.838Z</time>
      </trkpt>
      <trkpt lat="65.43222" lon="12.25378">
        <ele>49.229464</ele>
        <time>2020-08-13T08:43:04.839Z</time>
      </trkpt>
      <trkpt lat="65.43225" lon="12.25402">
        <ele>49.226669</ele>
        <time>2020-08-13T08:43:06.843Z</time>
      </trkpt>
      <trkpt lat="65.43229" lon="12.25423">
        <ele>49.22404</ele>
        <time>2020-08-13T08:43:08.827Z</time>
      </trkpt>
      <trkpt lat="65.43233" lon="12.25443">
        <ele>49.221521</ele>
        <time>2020-08-13T08:43:10.827Z</time>
      </trkpt>
      <trkpt lat="65.43237" lon="12.25464">
        <ele>49.218945</ele>
        <time>2020-08-13T08:43:12.837Z</time>
      </trkpt>
      <trkpt lat="65.43241" lon="12.25485">
        <ele>49.216369</ele>
        <time>2020-08-13T08:43:14.864Z</time>
      </trkpt>
      <trkpt lat="65.43245" lon="12.25507">
        <ele>49.213761</ele>
        <time>2020-08-13T08:43:16.842Z</time>
      </trkpt>
      <trkpt lat="65.43251" lon="12.25535">
        <ele>49.210209</ele>
        <time>2020-08-13T08:43:19.842Z</time>
      </trkpt>
      <trkpt lat="65.43254" lon="12.25556">
        <ele>49.207777</ele>
        <time>2020-08-13T08:43:21.824Z</time>
      </trkpt>
      <trkpt lat="65.43258" lon="12.25583">
        <ele>49.204454</ele>
        <time>2020-08-13T08:43:24.831Z</time>
      </trkpt>
      <trkpt lat="65.43263" lon="12.25609">
        <ele>49.201329</ele>
        <time>2020-08-13T08:43:27.822Z</time>
      </trkpt>
      <trkpt lat="65.43267" lon="12.25632">
        <ele>49.198459</ele>
        <time>2020-08-13T08:43:30.858Z</time>
      </trkpt>
      <trkpt lat="65.43271" lon="12.25655">
        <ele>49.195666</ele>
        <time>2020-08-13T08:43:33.853Z</time>
      </trkpt>
      <trkpt lat="65.43275" lon="12.25676">
        <ele>49.19313</ele>
        <time>2020-08-13T08:43:36.844Z</time>
      </trkpt>
      <trkpt lat="65.43279" lon="12.25696">
        <ele>49.190622</ele>
        <time>2020-08-13T08:43:39.824Z</time>
      </trkpt>
      <trkpt lat="65.43283" lon="12.25718">
        <ele>49.18793</ele>
        <time>2020-08-13T08:43:42.856Z</time>
      </trkpt>
      <trkpt lat="65.43288" lon="12.2574">
        <ele>49.262055</ele>
        <time>2020-08-13T08:43:45.828Z</time>
      </trkpt>
      <trkpt lat="65.43292" lon="12.25762">
        <ele>49.40626</ele>
        <time>2020-08-13T08:43:48.835Z</time>
      </trkpt>
      <trkpt lat="65.43296" lon="12.25783">
        <ele>49.541656</ele>
        <time>2020-08-13T08:43:51.824Z</time>
      </trkpt>
      <trkpt lat="65.43301" lon="12.25806">
        <ele>49.689826</ele>
        <time>2020-08-13T08:43:54.827Z</time>
      </trkpt>
      <trkpt lat="65.43305" lon="12.25825">
        <ele>49.817111</ele>
        <time>2020-08-13T08:43:57.851Z</time>
      </trkpt>
      <trkpt lat="65.43308" lon="12.25851">
        <ele>49.975125</ele>
        <time>2020-08-13T08:44:01.853Z</time>
      </trkpt>
      <trkpt lat="65.43312" lon="12.25876">
        <ele>50.132688</ele>
        <time>2020-08-13T08:44:05.836Z</time>
      </trkpt>
      <trkpt lat="65.43317" lon="12.25899">
        <ele>50.283061</ele>
        <time>2020-08-13T08:44:09.839Z</time>
      </trkpt>
      <trkpt lat="65.43322" lon="12.2592">
        <ele>50.429559</ele>
        <time>2020-08-13T08:44:13.849Z</time>
      </trkpt>
      <trkpt lat="65.43327" lon="12.25945">
        <ele>50.587121</ele>
        <time>2020-08-13T08:44:17.848Z</time>
      </trkpt>
      <trkpt lat="65.43332" lon="12.2597">
        <ele>50.748121</ele>
        <time>2020-08-13T08:44:21.840Z</time>
      </trkpt>
      <trkpt lat="65.43336" lon="12.25994">
        <ele>50.904808</ele>
        <time>2020-08-13T08:44:25.828Z</time>
      </trkpt>
      <trkpt lat="65.43341" lon="12.26018">
        <ele>51.060216</ele>
        <time>2020-08-13T08:44:29.845Z</time>
      </trkpt>
      <trkpt lat="65.43345" lon="12.26044">
        <ele>51.224278</ele>
        <time>2020-08-13T08:44:33.841Z</time>
      </trkpt>
      <trkpt lat="65.43351" lon="12.26069">
        <ele>51.387661</ele>
        <time>2020-08-13T08:44:37.849Z</time>
      </trkpt>
      <trkpt lat="65.43355" lon="12.26094">
        <ele>51.547469</ele>
        <time>2020-08-13T08:44:41.856Z</time>
      </trkpt>
      <trkpt lat="65.4336" lon="12.26119">
        <ele>51.711556</ele>
        <time>2020-08-13T08:44:45.859Z</time>
      </trkpt>
      <trkpt lat="65.43365" lon="12.26143">
        <ele>52.085098</ele>
        <time>2020-08-13T08:44:49.822Z</time>
      </trkpt>
      <trkpt lat="65.43369" lon="12.26168">
        <ele>52.480816</ele>
        <time>2020-08-13T08:44:53.831Z</time>
      </trkpt>
      <trkpt lat="65.43373" lon="12.26193">
        <ele>52.861689</ele>
        <time>2020-08-13T08:44:57.831Z</time>
      </trkpt>
      <trkpt lat="65.43377" lon="12.26218">
        <ele>53.247831</ele>
        <time>2020-08-13T08:45:01.846Z</time>
      </trkpt>
      <trkpt lat="65.43381" lon="12.26244">
        <ele>53.656966</ele>
        <time>2020-08-13T08:45:05.841Z</time>
      </trkpt>
      <trkpt lat="65.43385" lon="12.26266">
        <ele>54.017686</ele>
        <time>2020-08-13T08:45:09.854Z</time>
      </trkpt>
      <trkpt lat="65.4339" lon="12.26291">
        <ele>54.412151</ele>
        <time>2020-08-13T08:45:13.849Z</time>
      </trkpt>
      <trkpt lat="65.43394" lon="12.26311">
        <ele>54.732643</ele>
        <time>2020-08-13T08:45:16.849Z</time>
      </trkpt>
      <trkpt lat="65.43397" lon="12.26332">
        <ele>55.056986</ele>
        <time>2020-08-13T08:45:19.836Z</time>
      </trkpt>
      <trkpt lat="65.43401" lon="12.26353">
        <ele>55.385552</ele>
        <time>2020-08-13T08:45:22.835Z</time>
      </trkpt>
      <trkpt lat="65.43405" lon="12.26378">
        <ele>55.783914</ele>
        <time>2020-08-13T08:45:26.835Z</time>
      </trkpt>
      <trkpt lat="65.43409" lon="12.26403">
        <ele>56.178256</ele>
        <time>2020-08-13T08:45:30.830Z</time>
      </trkpt>
      <trkpt lat="65.43414" lon="12.26429">
        <ele>56.586535</ele>
        <time>2020-08-13T08:45:34.836Z</time>
      </trkpt>
      <trkpt lat="65.43418" lon="12.26453">
        <ele>56.976843</ele>
        <time>2020-08-13T08:45:38.845Z</time>
      </trkpt>
      <trkpt lat="65.43422" lon="12.26477">
        <ele>57.346979</ele>
        <time>2020-08-13T08:45:42.839Z</time>
      </trkpt>
      <trkpt lat="65.43426" lon="12.26503">
        <ele>57.73938</ele>
        <time>2020-08-13T08:45:46.842Z</time>
      </trkpt>
      <trkpt lat="65.43429" lon="12.26528">
        <ele>58.085837</ele>
        <time>2020-08-13T08:45:50.856Z</time>
      </trkpt>
      <trkpt lat="65.43433" lon="12.26554">
        <ele>58.297125</ele>
        <time>2020-08-13T08:45:54.833Z</time>
      </trkpt>
      <trkpt lat="65.43437" lon="12.2658">
        <ele>58.503986</ele>
        <time>2020-08-13T08:45:58.850Z</time>
      </trkpt>
      <trkpt lat="65.4344" lon="12.26601">
        <ele>58.671916</ele>
        <time>2020-08-13T08:46:01.865Z</time>
      </trkpt>
      <trkpt lat="65.43444" lon="12.26623">
        <ele>58.851671</ele>
        <time>2020-08-13T08:46:04.849Z</time>
      </trkpt>
      <trkpt lat="65.43448" lon="12.26643">
        <ele>59.019689</ele>
        <time>2020-08-13T08:46:07.827Z</time>
      </trkpt>
      <trkpt lat="65.43452" lon="12.26666">
        <ele>59.210712</ele>
        <time>2020-08-13T08:46:10.831Z</time>
      </trkpt>
      <trkpt lat="65.43457" lon="12.26692">
        <ele>59.427106</ele>
        <time>2020-08-13T08:46:13.834Z</time>
      </trkpt>
      <trkpt lat="65.43462" lon="12.2672">
        <ele>59.657977</ele>
        <time>2020-08-13T08:46:16.823Z</time>
      </trkpt>
      <trkpt lat="65.43466" lon="12.26748">
        <ele>59.877233</ele>
        <time>2020-08-13T08:46:19.824Z</time>
      </trkpt>
      <trkpt lat="65.4347" lon="12.26774">
        <ele>60.087865</ele>
        <time>2020-08-13T08:46:22.842Z</time>
      </trkpt>
      <trkpt lat="65.43476" lon="12.26799">
        <ele>60.304633</ele>
        <time>2020-08-13T08:46:25.829Z</time>
      </trkpt>
      <trkpt lat="65.43483" lon="12.26826">
        <ele>60.548244</ele>
        <time>2020-08-13T08:46:28.844Z</time>
      </trkpt>
      <trkpt lat="65.43488" lon="12.26846">
        <ele>60.731916</ele>
        <time>2020-08-13T08:46:30.865Z</time>
      </trkpt>
      <trkpt lat="65.43494" lon="12.26867">
        <ele>60.917665</ele>
        <time>2020-08-13T08:46:32.828Z</time>
      </trkpt>
      <trkpt lat="65.43499" lon="12.26889">
        <ele>61.107648</ele>
        <time>2020-08-13T08:46:34.830Z</time>
      </trkpt>
      <trkpt lat="65.43504" lon="12.26911">
        <ele>61.301318</ele>
        <time>2020-08-13T08:46:36.870Z</time>
      </trkpt>
      <trkpt lat="65.4351" lon="12.26935">
        <ele>61.027412</ele>
        <time>2020-08-13T08:46:38.841Z</time>
      </trkpt>
      <trkpt lat="65.43516" lon="12.26958">
        <ele>60.738283</ele>
        <time>2020-08-13T08:46:40.834Z</time>
      </trkpt>
      <trkpt lat="65.43522" lon="12.26982">
        <ele>60.449153</ele>
        <time>2020-08-13T08:46:42.846Z</time>
      </trkpt>
      <trkpt lat="65.43528" lon="12.27006">
        <ele>60.156455</ele>
        <time>2020-08-13T08:46:44.827Z</time>
      </trkpt>
      <trkpt lat="65.43534" lon="12.27031">
        <ele>59.85805</ele>
        <time>2020-08-13T08:46:46.865Z</time>
      </trkpt>
      <trkpt lat="65.43539" lon="12.27057">
        <ele>59.566165</ele>
        <time>2020-08-13T08:46:48.829Z</time>
      </trkpt>
      <trkpt lat="65.43544" lon="12.27082">
        <ele>59.271319</ele>
        <time>2020-08-13T08:46:50.842Z</time>
      </trkpt>
      <trkpt lat="65.43549" lon="12.27106">
        <ele>58.987238</ele>
        <time>2020-08-13T08:46:52.818Z</time>
      </trkpt>
      <trkpt lat="65.43554" lon="12.27129">
        <ele>58.721131</ele>
        <time>2020-08-13T08:46:54.846Z</time>
      </trkpt>
      <trkpt lat="65.43559" lon="12.27151">
        <ele>58.448951</ele>
        <time>2020-08-13T08:46:56.850Z</time>
      </trkpt>
      <trkpt lat="65.43564" lon="12.27175">
        <ele>58.175952</ele>
        <time>2020-08-13T08:46:58.833Z</time>
      </trkpt>
      <trkpt lat="65.4357" lon="12.27197">
        <ele>57.9059</ele>
        <time>2020-08-13T08:47:00.828Z</time>
      </trkpt>
      <trkpt lat="65.43575" lon="12.27221">
        <ele>57.624908</ele>
        <time>2020-08-13T08:47:02.823Z</time>
      </trkpt>
      <trkpt lat="65.4358" lon="12.27245">
        <ele>57.339649</ele>
        <time>2020-08-13T08:47:04.854Z</time>
      </trkpt>
      <trkpt lat="65.43586" lon="12.27269">
        <ele>57.050158</ele>
        <time>2020-08-13T08:47:06.828Z</time>
      </trkpt>
      <trkpt lat="65.43592" lon="12.27295">
        <ele>56.719617</ele>
        <time>2020-08-13T08:47:08.823Z</time>
      </trkpt>
      <trkpt lat="65.43597" lon="12.27319">
        <ele>56.234841</ele>
        <time>2020-08-13T08:47:10.841Z</time>
      </trkpt>
      <trkpt lat="65.43603" lon="12.27344">
        <ele>55.731653</ele>
        <time>2020-08-13T08:47:12.824Z</time>
      </trkpt>
      <trkpt lat="65.4361" lon="12.27369">
        <ele>55.208516</ele>
        <time>2020-08-13T08:47:14.835Z</time>
      </trkpt>
      <trkpt lat="65.43615" lon="12.27394">
        <ele>54.708472</ele>
        <time>2020-08-13T08:47:16.875Z</time>
      </trkpt>
      <trkpt lat="65.43621" lon="12.27419">
        <ele>54.235668</ele>
        <time>2020-08-13T08:47:18.842Z</time>
      </trkpt>
      <trkpt lat="65.43625" lon="12.27443">
        <ele>53.762138</ele>
        <time>2020-08-13T08:47:20.846Z</time>
      </trkpt>
      <trkpt lat="65.4363" lon="12.27467">
        <ele>53.300592</ele>
        <time>2020-08-13T08:47:22.864Z</time>
      </trkpt>
      <trkpt lat="65.43634" lon="12.2749">
        <ele>52.856626</ele>
        <time>2020-08-13T08:47:24.841Z</time>
      </trkpt>
      <trkpt lat="65.43638" lon="12.27513">
        <ele>52.427609</ele>
        <time>2020-08-13T08:47:26.871Z</time>
      </trkpt>
      <trkpt lat="65.43641" lon="12.27535">
        <ele>52.021481</ele>
        <time>2020-08-13T08:47:28.831Z</time>
      </trkpt>
      <trkpt lat="65.43643" lon="12.27557">
        <ele>51.623289</ele>
        <time>2020-08-13T08:47:30.849Z</time>
      </trkpt>
      <trkpt lat="65.43646" lon="12.2758">
        <ele>51.215533</ele>
        <time>2020-08-13T08:47:32.824Z</time>
      </trkpt>
      <trkpt lat="65.43648" lon="12.27603">
        <ele>50.797552</ele>
        <time>2020-08-13T08:47:34.834Z</time>
      </trkpt>
      <trkpt lat="65.43651" lon="12.27627">
        <ele>50.365632</ele>
        <time>2020-08-13T08:47:36.824Z</time>
      </trkpt>
      <trkpt lat="65.43654" lon="12.27651">
        <ele>49.930941</ele>
        <time>2020-08-13T08:47:38.827Z</time>
      </trkpt>
      <trkpt lat="65.43657" lon="12.27674">
        <ele>49.50783</ele>
        <time>2020-08-13T08:47:40.851Z</time>
      </trkpt>
      <trkpt lat="65.4366" lon="12.27697">
        <ele>49.278451</ele>
        <time>2020-08-13T08:47:42.850Z</time>
      </trkpt>
      <trkpt lat="65.43662" lon="12.27719">
        <ele>49.409128</ele>
        <time>2020-08-13T08:47:44.828Z</time>
      </trkpt>
      <trkpt lat="65.43665" lon="12.27741">
        <ele>49.535684</ele>
        <time>2020-08-13T08:47:46.826Z</time>
      </trkpt>
      <trkpt lat="65.43667" lon="12.27762">
        <ele>49.659869</ele>
        <time>2020-08-13T08:47:48.835Z</time>
      </trkpt>
      <trkpt lat="65.43671" lon="12.27793">
        <ele>49.838332</ele>
        <time>2020-08-13T08:47:51.839Z</time>
      </trkpt>
      <trkpt lat="65.43674" lon="12.27821">
        <ele>50.001311</ele>
        <time>2020-08-13T08:47:54.854Z</time>
      </trkpt>
      <trkpt lat="65.43677" lon="12.27847">
        <ele>50.15599</ele>
        <time>2020-08-13T08:47:57.835Z</time>
      </trkpt>
      <trkpt lat="65.43681" lon="12.27871">
        <ele>50.300382</ele>
        <time>2020-08-13T08:48:00.850Z</time>
      </trkpt>
      <trkpt lat="65.43684" lon="12.27895">
        <ele>50.437648</ele>
        <time>2020-08-13T08:48:03.851Z</time>
      </trkpt>
      <trkpt lat="65.43686" lon="12.27916">
        <ele>50.563097</ele>
        <time>2020-08-13T08:48:06.834Z</time>
      </trkpt>
      <trkpt lat="65.43689" lon="12.27943">
        <ele>50.719367</ele>
        <time>2020-08-13T08:48:10.844Z</time>
      </trkpt>
      <trkpt lat="65.43692" lon="12.27968">
        <ele>50.866078</ele>
        <time>2020-08-13T08:48:14.838Z</time>
      </trkpt>
      <trkpt lat="65.43696" lon="12.27992">
        <ele>51.009237</ele>
        <time>2020-08-13T08:48:18.855Z</time>
      </trkpt>
      <trkpt lat="65.43699" lon="12.28015">
        <ele>51.143018</ele>
        <time>2020-08-13T08:48:22.858Z</time>
      </trkpt>
      <trkpt lat="65.43702" lon="12.28038">
        <ele>51.276817</ele>
        <time>2020-08-13T08:48:26.826Z</time>
      </trkpt>
      <trkpt lat="65.43706" lon="12.28059">
        <ele>51.408935</ele>
        <time>2020-08-13T08:48:30.838Z</time>
      </trkpt>
      <trkpt lat="65.43709" lon="12.28082">
        <ele>51.54353</ele>
        <time>2020-08-13T08:48:34.867Z</time>
      </trkpt>
      <trkpt lat="65.43711" lon="12.28107">
        <ele>51.718032</ele>
        <time>2020-08-13T08:48:38.846Z</time>
      </trkpt>
      <trkpt lat="65.43714" lon="12.2813">
        <ele>51.993319</ele>
        <time>2020-08-13T08:48:42.833Z</time>
      </trkpt>
      <trkpt lat="65.43717" lon="12.28152">
        <ele>52.2711</ele>
        <time>2020-08-13T08:48:46.831Z</time>
      </trkpt>
      <trkpt lat="65.43721" lon="12.28176">
        <ele>52.575972</ele>
        <time>2020-08-13T08:48:50.832Z</time>
      </trkpt>
      <trkpt lat="65.43724" lon="12.28202">
        <ele>52.894469</ele>
        <time>2020-08-13T08:48:54.843Z</time>
      </trkpt>
      <trkpt lat="65.43728" lon="12.28228">
        <ele>53.2217</ele>
        <time>2020-08-13T08:48:58.850Z</time>
      </trkpt>
      <trkpt lat="65.43732" lon="12.28254">
        <ele>53.544777</ele>
        <time>2020-08-13T08:49:02.847Z</time>
      </trkpt>
      <trkpt lat="65.43736" lon="12.28278">
        <ele>53.853268</ele>
        <time>2020-08-13T08:49:06.833Z</time>
      </trkpt>
      <trkpt lat="65.4374" lon="12.283">
        <ele>54.134888</ele>
        <time>2020-08-13T08:49:10.825Z</time>
      </trkpt>
      <trkpt lat="65.43743" lon="12.28321">
        <ele>54.398848</ele>
        <time>2020-08-13T08:49:14.827Z</time>
      </trkpt>
      <trkpt lat="65.43748" lon="12.28344">
        <ele>54.70186</ele>
        <time>2020-08-13T08:49:18.831Z</time>
      </trkpt>
      <trkpt lat="65.43753" lon="12.28369">
        <ele>55.033623</ele>
        <time>2020-08-13T08:49:22.825Z</time>
      </trkpt>
      <trkpt lat="65.43759" lon="12.28391">
        <ele>55.342615</ele>
        <time>2020-08-13T08:49:26.874Z</time>
      </trkpt>
      <trkpt lat="65.43765" lon="12.28413">
        <ele>55.64012</ele>
        <time>2020-08-13T08:49:30.853Z</time>
      </trkpt>
      <trkpt lat="65.4377" lon="12.28434">
        <ele>55.935156</ele>
        <time>2020-08-13T08:49:34.828Z</time>
      </trkpt>
      <trkpt lat="65.43776" lon="12.28456">
        <ele>56.243142</ele>
        <time>2020-08-13T08:49:38.818Z</time>
      </trkpt>
      <trkpt lat="65.43782" lon="12.28478">
        <ele>56.556862</ele>
        <time>2020-08-13T08:49:42.850Z</time>
      </trkpt>
      <trkpt lat="65.43787" lon="12.28498">
        <ele>56.93846</ele>
        <time>2020-08-13T08:49:46.842Z</time>
      </trkpt>
      <trkpt lat="65.43793" lon="12.28518">
        <ele>57.59727</ele>
        <time>2020-08-13T08:49:50.846Z</time>
      </trkpt>
      <trkpt lat="65.438" lon="12.28539">
        <ele>58.288077</ele>
        <time>2020-08-13T08:49:54.856Z</time>
      </trkpt>
      <trkpt lat="65.43806" lon="12.28559">
        <ele>58.942416</ele>
        <time>2020-08-13T08:49:58.837Z</time>
      </trkpt>
      <trkpt lat="65.43812" lon="12.28581">
        <ele>59.670419</ele>
        <time>2020-08-13T08:50:02.838Z</time>
      </trkpt>
      <trkpt lat="65.43818" lon="12.28603">
        <ele>60.366551</ele>
        <time>2020-08-13T08:50:06.821Z</time>
      </trkpt>
      <trkpt lat="65.43824" lon="12.28624">
        <ele>61.021747</ele>
        <time>2020-08-13T08:50:10.841Z</time>
      </trkpt>
      <trkpt lat="65.43829" lon="12.28644">
        <ele>61.642814</ele>
        <time>2020-08-13T08:50:14.840Z</time>
      </trkpt>
      <trkpt lat="65.43834" lon="12.28663">
        <ele>62.273016</ele>
        <time>2020-08-13T08:50:18.823Z</time>
      </trkpt>
      <trkpt lat="65.4384" lon="12.28683">
        <ele>62.918007</ele>
        <time>2020-08-13T08:50:22.851Z</time>
      </trkpt>
      <trkpt lat="65.43845" lon="12.28703">
        <ele>63.546079</ele>
        <time>2020-08-13T08:50:26.830Z</time>
      </trkpt>
      <trkpt lat="65.43851" lon="12.28723">
        <ele>64.208438</ele>
        <time>2020-08-13T08:50:30.874Z</time>
      </trkpt>
      <trkpt lat="65.43857" lon="12.28745">
        <ele>64.886131</ele>
        <time>2020-08-13T08:50:34.877Z</time>
      </trkpt>
      <trkpt lat="65.43862" lon="12.28765">
        <ele>65.526556</ele>
        <time>2020-08-13T08:50:38.841Z</time>
      </trkpt>
      <trkpt lat="65.43868" lon="12.28786">
        <ele>66.193335</ele>
        <time>2020-08-13T08:50:42.832Z</time>
      </trkpt>
      <trkpt lat="65.43874" lon="12.28808">
        <ele>66.893037</ele>
        <time>2020-08-13T08:50:46.850Z</time>
      </trkpt>
      <trkpt lat="65.4388" lon="12.28829">
        <ele>67.589158</ele>
        <time>2020-08-13T08:50:50.882Z</time>
      </trkpt>
      <trkpt lat="65.43886" lon="12.28852">
        <ele>68.302189</ele>
        <time>2020-08-13T08:50:54.828Z</time>
      </trkpt>
      <trkpt lat="65.43892" lon="12.28873">
        <ele>68.278775</ele>
        <time>2020-08-13T08:50:58.830Z</time>
      </trkpt>
      <trkpt lat="65.43898" lon="12.28895">
        <ele>68.231825</ele>
        <time>2020-08-13T08:51:02.823Z</time>
      </trkpt>
      <trkpt lat="65.43904" lon="12.28918">
        <ele>68.182123</ele>
        <time>2020-08-13T08:51:06.827Z</time>
      </trkpt>
      <trkpt lat="65.43911" lon="12.28943">
        <ele>68.128501</ele>
        <time>2020-08-13T08:51:10.827Z</time>
      </trkpt>
      <trkpt lat="65.43916" lon="12.28962">
        <ele>68.085792</ele>
        <time>2020-08-13T08:51:13.842Z</time>
      </trkpt>
      <trkpt lat="65.43922" lon="12.28983">
        <ele>68.040595</ele>
        <time>2020-08-13T08:51:16.848Z</time>
      </trkpt>
      <trkpt lat="65.43927" lon="12.29005">
        <ele>67.995009</ele>
        <time>2020-08-13T08:51:19.851Z</time>
      </trkpt>
      <trkpt lat="65.43933" lon="12.29025">
        <ele>67.949883</ele>
        <time>2020-08-13T08:51:22.838Z</time>
      </trkpt>
      <trkpt lat="65.43939" lon="12.29047">
        <ele>67.901984</ele>
        <time>2020-08-13T08:51:25.852Z</time>
      </trkpt>
      <trkpt lat="65.43946" lon="12.2907">
        <ele>67.849488</ele>
        <time>2020-08-13T08:51:28.846Z</time>
      </trkpt>
      <trkpt lat="65.43953" lon="12.29096">
        <ele>67.793784</ele>
        <time>2020-08-13T08:51:31.831Z</time>
      </trkpt>
      <trkpt lat="65.4396" lon="12.29123">
        <ele>67.73615</ele>
        <time>2020-08-13T08:51:34.844Z</time>
      </trkpt>
      <trkpt lat="65.43965" lon="12.29141">
        <ele>67.696728</ele>
        <time>2020-08-13T08:51:36.854Z</time>
      </trkpt>
      <trkpt lat="65.4397" lon="12.2916">
        <ele>67.656063</ele>
        <time>2020-08-13T08:51:38.826Z</time>
      </trkpt>
      <trkpt lat="65.43975" lon="12.29178">
        <ele>67.615729</ele>
        <time>2020-08-13T08:51:40.842Z</time>
      </trkpt>
      <trkpt lat="65.4398" lon="12.29196">
        <ele>67.575265</ele>
        <time>2020-08-13T08:51:42.851Z</time>
      </trkpt>
      <trkpt lat="65.43985" lon="12.29215">
        <ele>67.508111</ele>
        <time>2020-08-13T08:51:44.857Z</time>
      </trkpt>
      <trkpt lat="65.43991" lon="12.29234">
        <ele>67.057876</ele>
        <time>2020-08-13T08:51:46.825Z</time>
      </trkpt>
      <trkpt lat="65.43996" lon="12.29252">
        <ele>66.629018</ele>
        <time>2020-08-13T08:51:48.875Z</time>
      </trkpt>
      <trkpt lat="65.44001" lon="12.2927">
        <ele>66.200703</ele>
        <time>2020-08-13T08:51:50.849Z</time>
      </trkpt>
      <trkpt lat="65.44006" lon="12.29288">
        <ele>65.766441</ele>
        <time>2020-08-13T08:51:52.878Z</time>
      </trkpt>
      <trkpt lat="65.44011" lon="12.29307">
        <ele>65.319526</ele>
        <time>2020-08-13T08:51:54.846Z</time>
      </trkpt>
      <trkpt lat="65.44016" lon="12.29325">
        <ele>64.886367</ele>
        <time>2020-08-13T08:51:56.845Z</time>
      </trkpt>
      <trkpt lat="65.44022" lon="12.29343">
        <ele>64.451588</ele>
        <time>2020-08-13T08:51:58.834Z</time>
      </trkpt>
      <trkpt lat="65.44027" lon="12.29364">
        <ele>63.966043</ele>
        <time>2020-08-13T08:52:00.841Z</time>
      </trkpt>
      <trkpt lat="65.44033" lon="12.29384">
        <ele>63.482134</ele>
        <time>2020-08-13T08:52:02.828Z</time>
      </trkpt>
      <trkpt lat="65.44039" lon="12.29405">
        <ele>62.986937</ele>
        <time>2020-08-13T08:52:04.848Z</time>
      </trkpt>
      <trkpt lat="65.44045" lon="12.29426">
        <ele>62.473891</ele>
        <time>2020-08-13T08:52:06.849Z</time>
      </trkpt>
      <trkpt lat="65.44052" lon="12.29448">
        <ele>61.94136</ele>
        <time>2020-08-13T08:52:08.811Z</time>
      </trkpt>
      <trkpt lat="65.44058" lon="12.2947">
        <ele>61.406252</ele>
        <time>2020-08-13T08:52:10.826Z</time>
      </trkpt>
      <trkpt lat="65.44065" lon="12.29493">
        <ele>60.870549</ele>
        <time>2020-08-13T08:52:12.859Z</time>
      </trkpt>
      <trkpt lat="65.44071" lon="12.29515">
        <ele>60.343363</ele>
        <time>2020-08-13T08:52:14.833Z</time>
      </trkpt>
      <trkpt lat="65.44077" lon="12.29539">
        <ele>59.788629</ele>
        <time>2020-08-13T08:52:16.864Z</time>
      </trkpt>
      <trkpt lat="65.44084" lon="12.29564">
        <ele>59.199729</ele>
        <time>2020-08-13T08:52:18.855Z</time>
      </trkpt>
      <trkpt lat="65.4409" lon="12.29589">
        <ele>58.803732</ele>
        <time>2020-08-13T08:52:20.842Z</time>
      </trkpt>
      <trkpt lat="65.44097" lon="12.29614">
        <ele>58.488181</ele>
        <time>2020-08-13T08:52:22.836Z</time>
      </trkpt>
      <trkpt lat="65.44105" lon="12.29639">
        <ele>58.161496</ele>
        <time>2020-08-13T08:52:24.871Z</time>
      </trkpt>
      <trkpt lat="65.44112" lon="12.29665">
        <ele>57.827314</ele>
        <time>2020-08-13T08:52:26.825Z</time>
      </trkpt>
      <trkpt lat="65.4412" lon="12.29693">
        <ele>57.484934</ele>
        <time>2020-08-13T08:52:28.847Z</time>
      </trkpt>
      <trkpt lat="65.44127" lon="12.29721">
        <ele>57.131848</ele>
        <time>2020-08-13T08:52:30.849Z</time>
      </trkpt>
      <trkpt lat="65.44135" lon="12.29749">
        <ele>56.781406</ele>
        <time>2020-08-13T08:52:32.832Z</time>
      </trkpt>
      <trkpt lat="65.44142" lon="12.29775">
        <ele>56.440584</ele>
        <time>2020-08-13T08:52:34.854Z</time>
      </trkpt>
      <trkpt lat="65.4415" lon="12.29801">
        <ele>56.111877</ele>
        <time>2020-08-13T08:52:36.830Z</time>
      </trkpt>
      <trkpt lat="65.44157" lon="12.29826">
        <ele>55.792681</ele>
        <time>2020-08-13T08:52:38.838Z</time>
      </trkpt>
      <trkpt lat="65.44164" lon="12.2985">
        <ele>55.486445</ele>
        <time>2020-08-13T08:52:40.858Z</time>
      </trkpt>
      <trkpt lat="65.4417" lon="12.29873">
        <ele>55.199101</ele>
        <time>2020-08-13T08:52:42.831Z</time>
      </trkpt>
      <trkpt lat="65.44176" lon="12.29895">
        <ele>54.921976</ele>
        <time>2020-08-13T08:52:44.847Z</time>
      </trkpt>
      <trkpt lat="65.44181" lon="12.29915">
        <ele>54.666368</ele>
        <time>2020-08-13T08:52:46.835Z</time>
      </trkpt>
      <trkpt lat="65.44186" lon="12.29936">
        <ele>54.49026</ele>
        <time>2020-08-13T08:52:48.851Z</time>
      </trkpt>
      <trkpt lat="65.44192" lon="12.29957">
        <ele>54.641953</ele>
        <time>2020-08-13T08:52:50.837Z</time>
      </trkpt>
      <trkpt lat="65.44197" lon="12.29976">
        <ele>54.788787</ele>
        <time>2020-08-13T08:52:52.871Z</time>
      </trkpt>
      <trkpt lat="65.44202" lon="12.29997">
        <ele>54.937529</ele>
        <time>2020-08-13T08:52:54.829Z</time>
      </trkpt>
      <trkpt lat="65.44207" lon="12.30016">
        <ele>55.084634</ele>
        <time>2020-08-13T08:52:56.828Z</time>
      </trkpt>
      <trkpt lat="65.44212" lon="12.30038">
        <ele>55.24013</ele>
        <time>2020-08-13T08:52:58.846Z</time>
      </trkpt>
      <trkpt lat="65.44217" lon="12.30058">
        <ele>55.393651</ele>
        <time>2020-08-13T08:53:00.845Z</time>
      </trkpt>
      <trkpt lat="65.44223" lon="12.30079">
        <ele>55.551347</ele>
        <time>2020-08-13T08:53:02.816Z</time>
      </trkpt>
      <trkpt lat="65.44229" lon="12.30099">
        <ele>55.704622</ele>
        <time>2020-08-13T08:53:04.834Z</time>
      </trkpt>
      <trkpt lat="65.44234" lon="12.3012">
        <ele>55.857077</ele>
        <time>2020-08-13T08:53:06.842Z</time>
      </trkpt>
      <trkpt lat="65.44239" lon="12.3014">
        <ele>56.00578</ele>
        <time>2020-08-13T08:53:08.830Z</time>
      </trkpt>
      <trkpt lat="65.44245" lon="12.30159">
        <ele>56.152884</ele>
        <time>2020-08-13T08:53:10.850Z</time>
      </trkpt>
      <trkpt lat="65.44249" lon="12.30179">
        <ele>56.297058</ele>
        <time>2020-08-13T08:53:12.870Z</time>
      </trkpt>
      <trkpt lat="65.44254" lon="12.30198">
        <ele>56.43566</ele>
        <time>2020-08-13T08:53:14.851Z</time>
      </trkpt>
      <trkpt lat="65.4426" lon="12.30226">
        <ele>56.631056</ele>
        <time>2020-08-13T08:53:17.830Z</time>
      </trkpt>
      <trkpt lat="65.44266" lon="12.30252">
        <ele>56.820398</ele>
        <time>2020-08-13T08:53:20.857Z</time>
      </trkpt>
      <trkpt lat="65.44272" lon="12.30277">
        <ele>56.997477</ele>
        <time>2020-08-13T08:53:23.844Z</time>
      </trkpt>
      <trkpt lat="65.44277" lon="12.30298">
        <ele>57.157947</ele>
        <time>2020-08-13T08:53:26.823Z</time>
      </trkpt>
      <trkpt lat="65.44283" lon="12.30318">
        <ele>57.366489</ele>
        <time>2020-08-13T08:53:29.837Z</time>
      </trkpt>
      <trkpt lat="65.44289" lon="12.30341">
        <ele>57.624124</ele>
        <time>2020-08-13T08:53:33.838Z</time>
      </trkpt>
      <trkpt lat="65.44296" lon="12.30363">
        <ele>57.87207</ele>
        <time>2020-08-13T08:53:37.881Z</time>
      </trkpt>
      <trkpt lat="65.44302" lon="12.30386">
        <ele>58.128748</ele>
        <time>2020-08-13T08:53:41.833Z</time>
      </trkpt>
      <trkpt lat="65.44307" lon="12.30408">
        <ele>58.372328</ele>
        <time>2020-08-13T08:53:45.854Z</time>
      </trkpt>
      <trkpt lat="65.44313" lon="12.30427">
        <ele>58.585276</ele>
        <time>2020-08-13T08:53:49.833Z</time>
      </trkpt>
      <trkpt lat="65.44319" lon="12.30444">
        <ele>58.798844</ele>
        <time>2020-08-13T08:53:53.835Z</time>
      </trkpt>
      <trkpt lat="65.44327" lon="12.30463">
        <ele>59.047036</ele>
        <time>2020-08-13T08:53:57.867Z</time>
      </trkpt>
      <trkpt lat="65.44334" lon="12.30482">
        <ele>59.282364</ele>
        <time>2020-08-13T08:54:01.833Z</time>
      </trkpt>
      <trkpt lat="65.44341" lon="12.305">
        <ele>59.511914</ele>
        <time>2020-08-13T08:54:05.839Z</time>
      </trkpt>
      <trkpt lat="65.44349" lon="12.30518">
        <ele>59.757237</ele>
        <time>2020-08-13T08:54:09.843Z</time>
      </trkpt>
      <trkpt lat="65.44356" lon="12.30535">
        <ele>59.981336</ele>
        <time>2020-08-13T08:54:13.848Z</time>
      </trkpt>
      <trkpt lat="65.44363" lon="12.30553">
        <ele>60.216147</ele>
        <time>2020-08-13T08:54:17.843Z</time>
      </trkpt>
      <trkpt lat="65.4437" lon="12.30568">
        <ele>60.422632</ele>
        <time>2020-08-13T08:54:20.845Z</time>
      </trkpt>
      <trkpt lat="65.44379" lon="12.30587">
        <ele>60.687943</ele>
        <time>2020-08-13T08:54:24.865Z</time>
      </trkpt>
      <trkpt lat="65.44385" lon="12.30602">
        <ele>60.890608</ele>
        <time>2020-08-13T08:54:27.831Z</time>
      </trkpt>
      <trkpt lat="65.44394" lon="12.30622">
        <ele>61.158118</ele>
        <time>2020-08-13T08:54:31.835Z</time>
      </trkpt>
      <trkpt lat="65.44401" lon="12.30636">
        <ele>61.270376</ele>
        <time>2020-08-13T08:54:34.826Z</time>
      </trkpt>
      <trkpt lat="65.44409" lon="12.30651">
        <ele>61.337277</ele>
        <time>2020-08-13T08:54:37.851Z</time>
      </trkpt>
      <trkpt lat="65.44416" lon="12.30667">
        <ele>61.405666</ele>
        <time>2020-08-13T08:54:40.842Z</time>
      </trkpt>
      <trkpt lat="65.44422" lon="12.30682">
        <ele>61.472612</ele>
        <time>2020-08-13T08:54:43.844Z</time>
      </trkpt>
      <trkpt lat="65.44429" lon="12.30696">
        <ele>61.537116</ele>
        <time>2020-08-13T08:54:46.855Z</time>
      </trkpt>
      <trkpt lat="65.44437" lon="12.30715">
        <ele>61.61721</ele>
        <time>2020-08-13T08:54:50.869Z</time>
      </trkpt>
      <trkpt lat="65.44446" lon="12.30733">
        <ele>61.697696</ele>
        <time>2020-08-13T08:54:54.836Z</time>
      </trkpt>
      <trkpt lat="65.44454" lon="12.30752">
        <ele>61.778438</ele>
        <time>2020-08-13T08:54:58.831Z</time>
      </trkpt>
      <trkpt lat="65.44463" lon="12.30772">
        <ele>61.862135</ele>
        <time>2020-08-13T08:55:02.840Z</time>
      </trkpt>
      <trkpt lat="65.44471" lon="12.30791">
        <ele>61.944803</ele>
        <time>2020-08-13T08:55:06.869Z</time>
      </trkpt>
      <trkpt lat="65.4448" lon="12.30809">
        <ele>62.029725</ele>
        <time>2020-08-13T08:55:10.855Z</time>
      </trkpt>
      <trkpt lat="65.44487" lon="12.30825">
        <ele>62.095746</ele>
        <time>2020-08-13T08:55:13.850Z</time>
      </trkpt>
      <trkpt lat="65.44493" lon="12.3084">
        <ele>62.160744</ele>
        <time>2020-08-13T08:55:16.836Z</time>
      </trkpt>
      <trkpt lat="65.445" lon="12.30855">
        <ele>62.225289</ele>
        <time>2020-08-13T08:55:19.850Z</time>
      </trkpt>
      <trkpt lat="65.44506" lon="12.3087">
        <ele>62.288949</ele>
        <time>2020-08-13T08:55:22.853Z</time>
      </trkpt>
      <trkpt lat="65.44515" lon="12.3089">
        <ele>62.373964</ele>
        <time>2020-08-13T08:55:26.850Z</time>
      </trkpt>
      <trkpt lat="65.44521" lon="12.30905">
        <ele>62.438166</ele>
        <time>2020-08-13T08:55:29.849Z</time>
      </trkpt>
      <trkpt lat="65.4453" lon="12.30925">
        <ele>62.541142</ele>
        <time>2020-08-13T08:55:33.846Z</time>
      </trkpt>
      <trkpt lat="65.44539" lon="12.30945">
        <ele>62.711039</ele>
        <time>2020-08-13T08:55:37.831Z</time>
      </trkpt>
      <trkpt lat="65.44545" lon="12.3096">
        <ele>62.843613</ele>
        <time>2020-08-13T08:55:40.853Z</time>
      </trkpt>
      <trkpt lat="65.44553" lon="12.30981">
        <ele>63.00763</ele>
        <time>2020-08-13T08:55:44.828Z</time>
      </trkpt>
      <trkpt lat="65.44562" lon="12.31">
        <ele>63.176096</ele>
        <time>2020-08-13T08:55:48.842Z</time>
      </trkpt>
      <trkpt lat="65.44569" lon="12.31016">
        <ele>63.317573</ele>
        <time>2020-08-13T08:55:51.827Z</time>
      </trkpt>
      <trkpt lat="65.44577" lon="12.31033">
        <ele>63.46285</ele>
        <time>2020-08-13T08:55:54.835Z</time>
      </trkpt>
      <trkpt lat="65.44585" lon="12.31049">
        <ele>63.607618</ele>
        <time>2020-08-13T08:55:57.843Z</time>
      </trkpt>
      <trkpt lat="65.44593" lon="12.31066">
        <ele>63.762216</ele>
        <time>2020-08-13T08:56:00.839Z</time>
      </trkpt>
      <trkpt lat="65.44601" lon="12.31084">
        <ele>63.918799</ele>
        <time>2020-08-13T08:56:03.877Z</time>
      </trkpt>
      <trkpt lat="65.4461" lon="12.31102">
        <ele>64.078298</ele>
        <time>2020-08-13T08:56:06.842Z</time>
      </trkpt>
      <trkpt lat="65.44617" lon="12.31123">
        <ele>64.242145</ele>
        <time>2020-08-13T08:56:09.836Z</time>
      </trkpt>
      <trkpt lat="65.44625" lon="12.31144">
        <ele>64.412496</ele>
        <time>2020-08-13T08:56:12.835Z</time>
      </trkpt>
      <trkpt lat="65.44634" lon="12.31164">
        <ele>64.581585</ele>
        <time>2020-08-13T08:56:15.839Z</time>
      </trkpt>
      <trkpt lat="65.44643" lon="12.31184">
        <ele>64.755626</ele>
        <time>2020-08-13T08:56:18.836Z</time>
      </trkpt>
      <trkpt lat="65.44652" lon="12.31204">
        <ele>64.925595</ele>
        <time>2020-08-13T08:56:21.845Z</time>
      </trkpt>
      <trkpt lat="65.44661" lon="12.31224">
        <ele>65.031841</ele>
        <time>2020-08-13T08:56:24.870Z</time>
      </trkpt>
      <trkpt lat="65.4467" lon="12.31246">
        <ele>64.970781</ele>
        <time>2020-08-13T08:56:27.836Z</time>
      </trkpt>
      <trkpt lat="65.44679" lon="12.31267">
        <ele>64.909038</ele>
        <time>2020-08-13T08:56:30.825Z</time>
      </trkpt>
      <trkpt lat="65.44688" lon="12.31289">
        <ele>64.845622</ele>
        <time>2020-08-13T08:56:33.826Z</time>
      </trkpt>
      <trkpt lat="65.44697" lon="12.31312">
        <ele>64.780482</ele>
        <time>2020-08-13T08:56:36.833Z</time>
      </trkpt>
      <trkpt lat="65.44705" lon="12.31335">
        <ele>64.718351</ele>
        <time>2020-08-13T08:56:39.832Z</time>
      </trkpt>
      <trkpt lat="65.44713" lon="12.31358">
        <ele>64.659768</ele>
        <time>2020-08-13T08:56:42.845Z</time>
      </trkpt>
      <trkpt lat="65.44719" lon="12.31382">
        <ele>64.602147</ele>
        <time>2020-08-13T08:56:45.838Z</time>
      </trkpt>
      <trkpt lat="65.44725" lon="12.31407">
        <ele>64.542952</ele>
        <time>2020-08-13T08:56:48.842Z</time>
      </trkpt>
      <trkpt lat="65.44731" lon="12.31434">
        <ele>64.481519</ele>
        <time>2020-08-13T08:56:51.839Z</time>
      </trkpt>
      <trkpt lat="65.44737" lon="12.31458">
        <ele>64.424462</ele>
        <time>2020-08-13T08:56:54.908Z</time>
      </trkpt>
      <trkpt lat="65.44742" lon="12.3148">
        <ele>64.3754</ele>
        <time>2020-08-13T08:56:57.835Z</time>
      </trkpt>
      <trkpt lat="65.44746" lon="12.31499">
        <ele>64.330639</ele>
        <time>2020-08-13T08:57:00.842Z</time>
      </trkpt>
      <trkpt lat="65.44751" lon="12.31519">
        <ele>64.284883</ele>
        <time>2020-08-13T08:57:03.838Z</time>
      </trkpt>
      <trkpt lat="65.44757" lon="12.31538">
        <ele>64.235594</ele>
        <time>2020-08-13T08:57:06.844Z</time>
      </trkpt>
      <trkpt lat="65.44763" lon="12.31559">
        <ele>64.182857</ele>
        <time>2020-08-13T08:57:09.830Z</time>
      </trkpt>
      <trkpt lat="65.44769" lon="12.31581">
        <ele>64.164606</ele>
        <time>2020-08-13T08:57:12.833Z</time>
      </trkpt>
      <trkpt lat="65.44776" lon="12.31606">
        <ele>64.155843</ele>
        <time>2020-08-13T08:57:15.835Z</time>
      </trkpt>
      <trkpt lat="65.44783" lon="12.31632">
        <ele>64.146825</ele>
        <time>2020-08-13T08:57:18.864Z</time>
      </trkpt>
      <trkpt lat="65.44789" lon="12.31659">
        <ele>64.138048</ele>
        <time>2020-08-13T08:57:21.829Z</time>
      </trkpt>
      <trkpt lat="65.44794" lon="12.31684">
        <ele>64.129708</ele>
        <time>2020-08-13T08:57:24.847Z</time>
      </trkpt>
      <trkpt lat="65.44799" lon="12.31708">
        <ele>64.121769</ele>
        <time>2020-08-13T08:57:27.872Z</time>
      </trkpt>
      <trkpt lat="65.44804" lon="12.3173">
        <ele>64.114576</ele>
        <time>2020-08-13T08:57:30.833Z</time>
      </trkpt>
      <trkpt lat="65.44809" lon="12.31749">
        <ele>64.108062</ele>
        <time>2020-08-13T08:57:33.847Z</time>
      </trkpt>
      <trkpt lat="65.44814" lon="12.31773">
        <ele>64.099866</ele>
        <time>2020-08-13T08:57:37.845Z</time>
      </trkpt>
      <trkpt lat="65.4482" lon="12.31794">
        <ele>64.092367</ele>
        <time>2020-08-13T08:57:41.836Z</time>
      </trkpt>
      <trkpt lat="65.44827" lon="12.31815">
        <ele>64.08489</ele>
        <time>2020-08-13T08:57:45.886Z</time>
      </trkpt>
      <trkpt lat="65.44834" lon="12.31835">
        <ele>64.077114</ele>
        <time>2020-08-13T08:57:49.890Z</time>
      </trkpt>
      <trkpt lat="65.4484" lon="12.31857">
        <ele>64.068989</ele>
        <time>2020-08-13T08:57:53.857Z</time>
      </trkpt>
      <trkpt lat="65.44847" lon="12.31872">
        <ele>64.062568</ele>
        <time>2020-08-13T08:57:56.849Z</time>
      </trkpt>
      <trkpt lat="65.44854" lon="12.31887">
        <ele>64.05605</ele>
        <time>2020-08-13T08:57:59.830Z</time>
      </trkpt>
      <trkpt lat="65.44862" lon="12.31907">
        <ele>64.047621</ele>
        <time>2020-08-13T08:58:03.846Z</time>
      </trkpt>
      <trkpt lat="65.44869" lon="12.31923">
        <ele>64.079775</ele>
        <time>2020-08-13T08:58:06.845Z</time>
      </trkpt>
      <trkpt lat="65.44876" lon="12.31939">
        <ele>64.174549</ele>
        <time>2020-08-13T08:58:09.850Z</time>
      </trkpt>
      <trkpt lat="65.44882" lon="12.31957">
        <ele>64.271534</ele>
        <time>2020-08-13T08:58:12.846Z</time>
      </trkpt>
      <trkpt lat="65.44889" lon="12.31973">
        <ele>64.367287</ele>
        <time>2020-08-13T08:58:15.846Z</time>
      </trkpt>
      <trkpt lat="65.44896" lon="12.31994">
        <ele>64.484662</ele>
        <time>2020-08-13T08:58:19.858Z</time>
      </trkpt>
      <trkpt lat="65.44904" lon="12.32016">
        <ele>64.605603</ele>
        <time>2020-08-13T08:58:23.875Z</time>
      </trkpt>
      <trkpt lat="65.44911" lon="12.32033">
        <ele>64.69878</ele>
        <time>2020-08-13T08:58:26.834Z</time>
      </trkpt>
      <trkpt lat="65.44916" lon="12.32049">
        <ele>64.788014</ele>
        <time>2020-08-13T08:58:29.834Z</time>
      </trkpt>
      <trkpt lat="65.44925" lon="12.3207">
        <ele>64.908144</ele>
        <time>2020-08-13T08:58:33.850Z</time>
      </trkpt>
      <trkpt lat="65.44933" lon="12.3209">
        <ele>65.027534</ele>
        <time>2020-08-13T08:58:37.831Z</time>
      </trkpt>
      <trkpt lat="65.44942" lon="12.32109">
        <ele>65.144925</ele>
        <time>2020-08-13T08:58:41.846Z</time>
      </trkpt>
      <trkpt lat="65.44949" lon="12.32124">
        <ele>65.23764</ele>
        <time>2020-08-13T08:58:44.842Z</time>
      </trkpt>
      <trkpt lat="65.44955" lon="12.32141">
        <ele>65.331281</ele>
        <time>2020-08-13T08:58:47.832Z</time>
      </trkpt>
      <trkpt lat="65.44962" lon="12.32158">
        <ele>65.432888</ele>
        <time>2020-08-13T08:58:50.845Z</time>
      </trkpt>
      <trkpt lat="65.4497" lon="12.32178">
        <ele>65.546038</ele>
        <time>2020-08-13T08:58:53.831Z</time>
      </trkpt>
      <trkpt lat="65.44979" lon="12.322">
        <ele>65.674116</ele>
        <time>2020-08-13T08:58:56.825Z</time>
      </trkpt>
      <trkpt lat="65.44988" lon="12.32223">
        <ele>65.806397</ele>
        <time>2020-08-13T08:58:59.835Z</time>
      </trkpt>
      <trkpt lat="65.44997" lon="12.32246">
        <ele>65.835447</ele>
        <time>2020-08-13T08:59:02.846Z</time>
      </trkpt>
      <trkpt lat="65.45006" lon="12.32268">
        <ele>65.824334</ele>
        <time>2020-08-13T08:59:05.836Z</time>
      </trkpt>
      <trkpt lat="65.45015" lon="12.3229">
        <ele>65.813531</ele>
        <time>2020-08-13T08:59:08.845Z</time>
      </trkpt>
      <trkpt lat="65.45024" lon="12.32311">
        <ele>65.802788</ele>
        <time>2020-08-13T08:59:11.836Z</time>
      </trkpt>
      <trkpt lat="65.45032" lon="12.32332">
        <ele>65.792166</ele>
        <time>2020-08-13T08:59:14.838Z</time>
      </trkpt>
      <trkpt lat="65.4504" lon="12.32353">
        <ele>65.781982</ele>
        <time>2020-08-13T08:59:17.834Z</time>
      </trkpt>
      <trkpt lat="65.45047" lon="12.32373">
        <ele>65.772411</ele>
        <time>2020-08-13T08:59:20.855Z</time>
      </trkpt>
      <trkpt lat="65.45055" lon="12.32393">
        <ele>65.762661</ele>
        <time>2020-08-13T08:59:23.889Z</time>
      </trkpt>
      <trkpt lat="65.45063" lon="12.32412">
        <ele>65.753213</ele>
        <time>2020-08-13T08:59:26.848Z</time>
      </trkpt>
      <trkpt lat="65.4507" lon="12.32432">
        <ele>65.743542</ele>
        <time>2020-08-13T08:59:29.849Z</time>
      </trkpt>
      <trkpt lat="65.45078" lon="12.3245">
        <ele>65.734081</ele>
        <time>2020-08-13T08:59:32.844Z</time>
      </trkpt>
      <trkpt lat="65.45086" lon="12.32468">
        <ele>65.724955</ele>
        <time>2020-08-13T08:59:35.861Z</time>
      </trkpt>
      <trkpt lat="65.45094" lon="12.32486">
        <ele>65.715655</ele>
        <time>2020-08-13T08:59:38.840Z</time>
      </trkpt>
      <trkpt lat="65.45102" lon="12.32504">
        <ele>65.706214</ele>
        <time>2020-08-13T08:59:41.861Z</time>
      </trkpt>
      <trkpt lat="65.45111" lon="12.32521">
        <ele>65.696231</ele>
        <time>2020-08-13T08:59:44.832Z</time>
      </trkpt>
      <trkpt lat="65.45121" lon="12.3254">
        <ele>65.623447</ele>
        <time>2020-08-13T08:59:47.836Z</time>
      </trkpt>
      <trkpt lat="65.45128" lon="12.32553">
        <ele>65.460136</ele>
        <time>2020-08-13T08:59:49.853Z</time>
      </trkpt>
      <trkpt lat="65.45136" lon="12.32567">
        <ele>65.29516</ele>
        <time>2020-08-13T08:59:51.832Z</time>
      </trkpt>
      <trkpt lat="65.45144" lon="12.32581">
        <ele>65.121834</ele>
        <time>2020-08-13T08:59:53.830Z</time>
      </trkpt>
      <trkpt lat="65.45152" lon="12.32594">
        <ele>64.945293</ele>
        <time>2020-08-13T08:59:55.858Z</time>
      </trkpt>
      <trkpt lat="65.4516" lon="12.32608">
        <ele>64.768961</ele>
        <time>2020-08-13T08:59:57.857Z</time>
      </trkpt>
      <trkpt lat="65.45168" lon="12.32622">
        <ele>64.590934</ele>
        <time>2020-08-13T08:59:59.856Z</time>
      </trkpt>
      <trkpt lat="65.45177" lon="12.32637">
        <ele>64.406904</ele>
        <time>2020-08-13T09:00:01.846Z</time>
      </trkpt>
      <trkpt lat="65.45186" lon="12.32652">
        <ele>64.212115</ele>
        <time>2020-08-13T09:00:03.836Z</time>
      </trkpt>
      <trkpt lat="65.45195" lon="12.32669">
        <ele>64.011845</ele>
        <time>2020-08-13T09:00:05.835Z</time>
      </trkpt>
      <trkpt lat="65.45204" lon="12.32685">
        <ele>63.80953</ele>
        <time>2020-08-13T09:00:07.842Z</time>
      </trkpt>
      <trkpt lat="65.45214" lon="12.32701">
        <ele>63.603328</ele>
        <time>2020-08-13T09:00:09.840Z</time>
      </trkpt>
      <trkpt lat="65.45224" lon="12.32717">
        <ele>63.399198</ele>
        <time>2020-08-13T09:00:11.841Z</time>
      </trkpt>
      <trkpt lat="65.45233" lon="12.32732">
        <ele>63.199218</ele>
        <time>2020-08-13T09:00:13.849Z</time>
      </trkpt>
      <trkpt lat="65.45242" lon="12.32747">
        <ele>62.997775</ele>
        <time>2020-08-13T09:00:15.822Z</time>
      </trkpt>
      <trkpt lat="65.45252" lon="12.32762">
        <ele>62.79527</ele>
        <time>2020-08-13T09:00:17.836Z</time>
      </trkpt>
      <trkpt lat="65.45262" lon="12.32778">
        <ele>62.592185</ele>
        <time>2020-08-13T09:00:19.839Z</time>
      </trkpt>
      <trkpt lat="65.45271" lon="12.32794">
        <ele>62.437665</ele>
        <time>2020-08-13T09:00:21.832Z</time>
      </trkpt>
      <trkpt lat="65.4528" lon="12.32809">
        <ele>62.310884</ele>
        <time>2020-08-13T09:00:23.846Z</time>
      </trkpt>
      <trkpt lat="65.45289" lon="12.32824">
        <ele>62.186343</ele>
        <time>2020-08-13T09:00:25.852Z</time>
      </trkpt>
      <trkpt lat="65.45298" lon="12.32838">
        <ele>62.067602</ele>
        <time>2020-08-13T09:00:27.826Z</time>
      </trkpt>
      <trkpt lat="65.45307" lon="12.32851">
        <ele>61.947562</ele>
        <time>2020-08-13T09:00:29.843Z</time>
      </trkpt>
      <trkpt lat="65.45316" lon="12.32865">
        <ele>61.829337</ele>
        <time>2020-08-13T09:00:31.829Z</time>
      </trkpt>
      <trkpt lat="65.45325" lon="12.32882">
        <ele>61.707494</ele>
        <time>2020-08-13T09:00:33.836Z</time>
      </trkpt>
      <trkpt lat="65.45333" lon="12.32899">
        <ele>61.588302</ele>
        <time>2020-08-13T09:00:35.843Z</time>
      </trkpt>
      <trkpt lat="65.45341" lon="12.32915">
        <ele>61.466789</ele>
        <time>2020-08-13T09:00:37.845Z</time>
      </trkpt>
      <trkpt lat="65.4535" lon="12.32931">
        <ele>61.34761</ele>
        <time>2020-08-13T09:00:39.828Z</time>
      </trkpt>
      <trkpt lat="65.45358" lon="12.32947">
        <ele>61.222303</ele>
        <time>2020-08-13T09:00:41.851Z</time>
      </trkpt>
      <trkpt lat="65.45368" lon="12.32965">
        <ele>61.08766</ele>
        <time>2020-08-13T09:00:43.825Z</time>
      </trkpt>
      <trkpt lat="65.45377" lon="12.32984">
        <ele>60.948365</ele>
        <time>2020-08-13T09:00:45.830Z</time>
      </trkpt>
      <trkpt lat="65.45387" lon="12.33004">
        <ele>60.807881</ele>
        <time>2020-08-13T09:00:47.835Z</time>
      </trkpt>
      <trkpt lat="65.45397" lon="12.33022">
        <ele>60.668012</ele>
        <time>2020-08-13T09:00:49.875Z</time>
      </trkpt>
      <trkpt lat="65.45406" lon="12.33041">
        <ele>60.528728</ele>
        <time>2020-08-13T09:00:51.849Z</time>
      </trkpt>
      <trkpt lat="65.45416" lon="12.33061">
        <ele>60.270452</ele>
        <time>2020-08-13T09:00:53.830Z</time>
      </trkpt>
      <trkpt lat="65.45426" lon="12.33081">
        <ele>59.989257</ele>
        <time>2020-08-13T09:00:55.838Z</time>
      </trkpt>
      <trkpt lat="65.45435" lon="12.33101">
        <ele>59.708543</ele>
        <time>2020-08-13T09:00:57.851Z</time>
      </trkpt>
      <trkpt lat="65.45445" lon="12.33121">
        <ele>59.417452</ele>
        <time>2020-08-13T09:00:59.846Z</time>
      </trkpt>
      <trkpt lat="65.45456" lon="12.33142">
        <ele>59.114868</ele>
        <time>2020-08-13T09:01:01.850Z</time>
      </trkpt>
      <trkpt lat="65.45466" lon="12.33166">
        <ele>58.802058</ele>
        <time>2020-08-13T09:01:03.850Z</time>
      </trkpt>
      <trkpt lat="65.45476" lon="12.3319">
        <ele>58.482172</ele>
        <time>2020-08-13T09:01:05.858Z</time>
      </trkpt>
      <trkpt lat="65.45486" lon="12.33215">
        <ele>58.153967</ele>
        <time>2020-08-13T09:01:07.857Z</time>
      </trkpt>
      <trkpt lat="65.45497" lon="12.33239">
        <ele>57.829594</ele>
        <time>2020-08-13T09:01:09.869Z</time>
      </trkpt>
      <trkpt lat="65.45508" lon="12.33262">
        <ele>57.507748</ele>
        <time>2020-08-13T09:01:11.831Z</time>
      </trkpt>
      <trkpt lat="65.45518" lon="12.33287">
        <ele>57.18209</ele>
        <time>2020-08-13T09:01:13.903Z</time>
      </trkpt>
      <trkpt lat="65.45529" lon="12.33312">
        <ele>56.8526</ele>
        <time>2020-08-13T09:01:15.855Z</time>
      </trkpt>
      <trkpt lat="65.4554" lon="12.33337">
        <ele>56.511504</ele>
        <time>2020-08-13T09:01:17.835Z</time>
      </trkpt>
      <trkpt lat="65.45551" lon="12.33363">
        <ele>56.104311</ele>
        <time>2020-08-13T09:01:19.846Z</time>
      </trkpt>
      <trkpt lat="65.45563" lon="12.3339">
        <ele>55.692231</ele>
        <time>2020-08-13T09:01:21.889Z</time>
      </trkpt>
      <trkpt lat="65.45575" lon="12.33419">
        <ele>55.267814</ele>
        <time>2020-08-13T09:01:23.834Z</time>
      </trkpt>
      <trkpt lat="65.45587" lon="12.33447">
        <ele>54.834722</ele>
        <time>2020-08-13T09:01:25.861Z</time>
      </trkpt>
      <trkpt lat="65.45599" lon="12.33475">
        <ele>54.394186</ele>
        <time>2020-08-13T09:01:27.845Z</time>
      </trkpt>
      <trkpt lat="65.45611" lon="12.33503">
        <ele>53.968474</ele>
        <time>2020-08-13T09:01:29.846Z</time>
      </trkpt>
      <trkpt lat="65.45623" lon="12.3353">
        <ele>53.555305</ele>
        <time>2020-08-13T09:01:31.836Z</time>
      </trkpt>
      <trkpt lat="65.45634" lon="12.33555">
        <ele>53.169801</ele>
        <time>2020-08-13T09:01:33.838Z</time>
      </trkpt>
      <trkpt lat="65.45644" lon="12.33579">
        <ele>52.800165</ele>
        <time>2020-08-13T09:01:35.851Z</time>
      </trkpt>
      <trkpt lat="65.45654" lon="12.33602">
        <ele>52.448962</ele>
        <time>2020-08-13T09:01:37.883Z</time>
      </trkpt>
      <trkpt lat="65.45663" lon="12.33624">
        <ele>52.115479</ele>
        <time>2020-08-13T09:01:39.873Z</time>
      </trkpt>
      <trkpt lat="65.45672" lon="12.33645">
        <ele>51.833051</ele>
        <time>2020-08-13T09:01:41.861Z</time>
      </trkpt>
      <trkpt lat="65.4568" lon="12.33666">
        <ele>51.65792</ele>
        <time>2020-08-13T09:01:43.825Z</time>
      </trkpt>
      <trkpt lat="65.45689" lon="12.33686">
        <ele>51.48382</ele>
        <time>2020-08-13T09:01:45.846Z</time>
      </trkpt>
      <trkpt lat="65.45698" lon="12.33706">
        <ele>51.305247</ele>
        <time>2020-08-13T09:01:47.841Z</time>
      </trkpt>
      <trkpt lat="65.45707" lon="12.33727">
        <ele>51.11302</ele>
        <time>2020-08-13T09:01:49.851Z</time>
      </trkpt>
      <trkpt lat="65.45717" lon="12.33749">
        <ele>50.914785</ele>
        <time>2020-08-13T09:01:51.836Z</time>
      </trkpt>
      <trkpt lat="65.45727" lon="12.33772">
        <ele>50.710101</ele>
        <time>2020-08-13T09:01:53.835Z</time>
      </trkpt>
      <trkpt lat="65.45737" lon="12.33795">
        <ele>50.503983</ele>
        <time>2020-08-13T09:01:55.831Z</time>
      </trkpt>
      <trkpt lat="65.45747" lon="12.33819">
        <ele>50.296999</ele>
        <time>2020-08-13T09:01:57.837Z</time>
      </trkpt>
      <trkpt lat="65.45757" lon="12.33841">
        <ele>50.096582</ele>
        <time>2020-08-13T09:01:59.847Z</time>
      </trkpt>
      <trkpt lat="65.45766" lon="12.33861">
        <ele>49.90877</ele>
        <time>2020-08-13T09:02:01.897Z</time>
      </trkpt>
      <trkpt lat="65.45776" lon="12.33881">
        <ele>49.724999</ele>
        <time>2020-08-13T09:02:03.844Z</time>
      </trkpt>
      <trkpt lat="65.45784" lon="12.339">
        <ele>49.547085</ele>
        <time>2020-08-13T09:02:05.844Z</time>
      </trkpt>
      <trkpt lat="65.45792" lon="12.33918">
        <ele>49.38408</ele>
        <time>2020-08-13T09:02:07.836Z</time>
      </trkpt>
      <trkpt lat="65.45801" lon="12.33936">
        <ele>49.221722</ele>
        <time>2020-08-13T09:02:09.844Z</time>
      </trkpt>
      <trkpt lat="65.45809" lon="12.33954">
        <ele>48.87819</ele>
        <time>2020-08-13T09:02:11.834Z</time>
      </trkpt>
      <trkpt lat="65.45817" lon="12.33974">
        <ele>48.519493</ele>
        <time>2020-08-13T09:02:13.831Z</time>
      </trkpt>
      <trkpt lat="65.45826" lon="12.33994">
        <ele>48.148934</ele>
        <time>2020-08-13T09:02:15.831Z</time>
      </trkpt>
      <trkpt lat="65.45835" lon="12.34015">
        <ele>47.767392</ele>
        <time>2020-08-13T09:02:17.853Z</time>
      </trkpt>
      <trkpt lat="65.45845" lon="12.34037">
        <ele>47.366069</ele>
        <time>2020-08-13T09:02:19.911Z</time>
      </trkpt>
      <trkpt lat="65.45854" lon="12.3406">
        <ele>46.948331</ele>
        <time>2020-08-13T09:02:21.858Z</time>
      </trkpt>
      <trkpt lat="65.45864" lon="12.34085">
        <ele>46.511378</ele>
        <time>2020-08-13T09:02:23.866Z</time>
      </trkpt>
      <trkpt lat="65.45875" lon="12.3411">
        <ele>46.062953</ele>
        <time>2020-08-13T09:02:25.828Z</time>
      </trkpt>
      <trkpt lat="65.45885" lon="12.34136">
        <ele>45.597286</ele>
        <time>2020-08-13T09:02:27.828Z</time>
      </trkpt>
      <trkpt lat="65.45896" lon="12.34162">
        <ele>45.131777</ele>
        <time>2020-08-13T09:02:29.911Z</time>
      </trkpt>
      <trkpt lat="65.45907" lon="12.34188">
        <ele>44.65607</ele>
        <time>2020-08-13T09:02:31.860Z</time>
      </trkpt>
      <trkpt lat="65.45918" lon="12.34214">
        <ele>44.184833</ele>
        <time>2020-08-13T09:02:33.838Z</time>
      </trkpt>
      <trkpt lat="65.45929" lon="12.3424">
        <ele>43.724728</ele>
        <time>2020-08-13T09:02:35.846Z</time>
      </trkpt>
      <trkpt lat="65.45941" lon="12.34266">
        <ele>43.554684</ele>
        <time>2020-08-13T09:02:37.832Z</time>
      </trkpt>
      <trkpt lat="65.45952" lon="12.3429">
        <ele>43.387665</ele>
        <time>2020-08-13T09:02:39.848Z</time>
      </trkpt>
      <trkpt lat="65.45962" lon="12.34314">
        <ele>43.228359</ele>
        <time>2020-08-13T09:02:41.836Z</time>
      </trkpt>
      <trkpt lat="65.45972" lon="12.34337">
        <ele>43.072391</ele>
        <time>2020-08-13T09:02:43.880Z</time>
      </trkpt>
      <trkpt lat="65.45982" lon="12.34358">
        <ele>42.925206</ele>
        <time>2020-08-13T09:02:45.833Z</time>
      </trkpt>
      <trkpt lat="65.45992" lon="12.34379">
        <ele>42.78337</ele>
        <time>2020-08-13T09:02:47.869Z</time>
      </trkpt>
      <trkpt lat="65.46" lon="12.34398">
        <ele>42.654518</ele>
        <time>2020-08-13T09:02:49.840Z</time>
      </trkpt>
      <trkpt lat="65.46008" lon="12.34416">
        <ele>42.533518</ele>
        <time>2020-08-13T09:02:51.835Z</time>
      </trkpt>
      <trkpt lat="65.46016" lon="12.34432">
        <ele>42.419456</ele>
        <time>2020-08-13T09:02:53.846Z</time>
      </trkpt>
      <trkpt lat="65.46024" lon="12.34447">
        <ele>42.305208</ele>
        <time>2020-08-13T09:02:55.833Z</time>
      </trkpt>
      <trkpt lat="65.46032" lon="12.34461">
        <ele>42.190898</ele>
        <time>2020-08-13T09:02:57.846Z</time>
      </trkpt>
      <trkpt lat="65.46041" lon="12.34475">
        <ele>42.078544</ele>
        <time>2020-08-13T09:02:59.843Z</time>
      </trkpt>
      <trkpt lat="65.46048" lon="12.34489">
        <ele>41.972114</ele>
        <time>2020-08-13T09:03:01.834Z</time>
      </trkpt>
      <trkpt lat="65.46056" lon="12.34501">
        <ele>41.870574</ele>
        <time>2020-08-13T09:03:03.855Z</time>
      </trkpt>
      <trkpt lat="65.46067" lon="12.34516">
        <ele>41.737538</ele>
        <time>2020-08-13T09:03:06.829Z</time>
      </trkpt>
      <trkpt lat="65.4608" lon="12.34529">
        <ele>41.850502</ele>
        <time>2020-08-13T09:03:09.848Z</time>
      </trkpt>
      <trkpt lat="65.46088" lon="12.34538">
        <ele>41.929224</ele>
        <time>2020-08-13T09:03:11.831Z</time>
      </trkpt>
      <trkpt lat="65.46096" lon="12.34547">
        <ele>42.006707</ele>
        <time>2020-08-13T09:03:13.852Z</time>
      </trkpt>
      <trkpt lat="65.46108" lon="12.3456">
        <ele>42.118678</ele>
        <time>2020-08-13T09:03:16.852Z</time>
      </trkpt>
      <trkpt lat="65.46119" lon="12.34564">
        <ele>42.213624</ele>
        <time>2020-08-13T09:03:19.849Z</time>
      </trkpt>
      <trkpt lat="65.46131" lon="12.34565">
        <ele>42.311584</ele>
        <time>2020-08-13T09:03:23.870Z</time>
      </trkpt>
      <trkpt lat="65.4614" lon="12.34571">
        <ele>42.390092</ele>
        <time>2020-08-13T09:03:29.852Z</time>
      </trkpt>
      <trkpt lat="65.46178" lon="12.34639">
        <ele>42.793483</ele>
        <time>2020-08-13T09:17:42.841Z</time>
      </trkpt>
      <trkpt lat="65.46188" lon="12.34647">
        <ele>42.889421</ele>
        <time>2020-08-13T09:17:46.841Z</time>
      </trkpt>
      <trkpt lat="65.46198" lon="12.34656">
        <ele>42.975714</ele>
        <time>2020-08-13T09:17:49.836Z</time>
      </trkpt>
      <trkpt lat="65.46208" lon="12.34667">
        <ele>43.068386</ele>
        <time>2020-08-13T09:17:52.831Z</time>
      </trkpt>
      <trkpt lat="65.46217" lon="12.34677">
        <ele>43.154333</ele>
        <time>2020-08-13T09:17:55.857Z</time>
      </trkpt>
      <trkpt lat="65.46226" lon="12.34687">
        <ele>43.237515</ele>
        <time>2020-08-13T09:17:58.855Z</time>
      </trkpt>
      <trkpt lat="65.46235" lon="12.34697">
        <ele>43.289334</ele>
        <time>2020-08-13T09:18:01.884Z</time>
      </trkpt>
      <trkpt lat="65.46244" lon="12.34708">
        <ele>43.325139</ele>
        <time>2020-08-13T09:18:04.842Z</time>
      </trkpt>
      <trkpt lat="65.46252" lon="12.34719">
        <ele>43.359214</ele>
        <time>2020-08-13T09:18:07.826Z</time>
      </trkpt>
      <trkpt lat="65.46261" lon="12.34729">
        <ele>43.394035</ele>
        <time>2020-08-13T09:18:10.853Z</time>
      </trkpt>
      <trkpt lat="65.46269" lon="12.34738">
        <ele>43.427484</ele>
        <time>2020-08-13T09:18:13.836Z</time>
      </trkpt>
      <trkpt lat="65.46278" lon="12.34748">
        <ele>43.460023</ele>
        <time>2020-08-13T09:18:16.850Z</time>
      </trkpt>
      <trkpt lat="65.46287" lon="12.34764">
        <ele>43.502913</ele>
        <time>2020-08-13T09:18:20.851Z</time>
      </trkpt>
      <trkpt lat="65.46295" lon="12.34776">
        <ele>43.535753</ele>
        <time>2020-08-13T09:18:23.868Z</time>
      </trkpt>
      <trkpt lat="65.46304" lon="12.34792">
        <ele>43.574406</ele>
        <time>2020-08-13T09:18:27.837Z</time>
      </trkpt>
      <trkpt lat="65.46312" lon="12.34807">
        <ele>43.61268</ele>
        <time>2020-08-13T09:18:31.849Z</time>
      </trkpt>
      <trkpt lat="65.4632" lon="12.34819">
        <ele>43.646833</ele>
        <time>2020-08-13T09:18:34.825Z</time>
      </trkpt>
      <trkpt lat="65.46327" lon="12.34833">
        <ele>43.679063</ele>
        <time>2020-08-13T09:18:37.904Z</time>
      </trkpt>
      <trkpt lat="65.46334" lon="12.34846">
        <ele>43.712345</ele>
        <time>2020-08-13T09:18:40.871Z</time>
      </trkpt>
      <trkpt lat="65.46342" lon="12.3486">
        <ele>43.746168</ele>
        <time>2020-08-13T09:18:43.837Z</time>
      </trkpt>
      <trkpt lat="65.4635" lon="12.34874">
        <ele>43.782368</ele>
        <time>2020-08-13T09:18:46.841Z</time>
      </trkpt>
      <trkpt lat="65.46358" lon="12.34889">
        <ele>43.819326</ele>
        <time>2020-08-13T09:18:49.838Z</time>
      </trkpt>
      <trkpt lat="65.46366" lon="12.34905">
        <ele>43.855711</ele>
        <time>2020-08-13T09:18:52.853Z</time>
      </trkpt>
      <trkpt lat="65.46374" lon="12.34921">
        <ele>43.893207</ele>
        <time>2020-08-13T09:18:55.838Z</time>
      </trkpt>
      <trkpt lat="65.46382" lon="12.34939">
        <ele>43.963777</ele>
        <time>2020-08-13T09:18:58.837Z</time>
      </trkpt>
      <trkpt lat="65.46392" lon="12.34957">
        <ele>44.063613</ele>
        <time>2020-08-13T09:19:01.852Z</time>
      </trkpt>
      <trkpt lat="65.46401" lon="12.34975">
        <ele>44.164979</ele>
        <time>2020-08-13T09:19:04.845Z</time>
      </trkpt>
      <trkpt lat="65.46411" lon="12.34992">
        <ele>44.267692</ele>
        <time>2020-08-13T09:19:07.840Z</time>
      </trkpt>
      <trkpt lat="65.46421" lon="12.3501">
        <ele>44.373784</ele>
        <time>2020-08-13T09:19:10.830Z</time>
      </trkpt>
      <trkpt lat="65.46431" lon="12.35029">
        <ele>44.479093</ele>
        <time>2020-08-13T09:19:13.860Z</time>
      </trkpt>
      <trkpt lat="65.46441" lon="12.35048">
        <ele>44.584875</ele>
        <time>2020-08-13T09:19:16.844Z</time>
      </trkpt>
      <trkpt lat="65.4645" lon="12.35066">
        <ele>44.68843</ele>
        <time>2020-08-13T09:19:19.846Z</time>
      </trkpt>
      <trkpt lat="65.46461" lon="12.35084">
        <ele>44.796671</ele>
        <time>2020-08-13T09:19:22.837Z</time>
      </trkpt>
      <trkpt lat="65.46471" lon="12.35102">
        <ele>44.905223</ele>
        <time>2020-08-13T09:19:25.831Z</time>
      </trkpt>
      <trkpt lat="65.46482" lon="12.35117">
        <ele>45.014369</ele>
        <time>2020-08-13T09:19:28.830Z</time>
      </trkpt>
      <trkpt lat="65.46492" lon="12.35133">
        <ele>45.115875</ele>
        <time>2020-08-13T09:19:31.833Z</time>
      </trkpt>
      <trkpt lat="65.46503" lon="12.35147">
        <ele>45.214888</ele>
        <time>2020-08-13T09:19:34.864Z</time>
      </trkpt>
      <trkpt lat="65.46513" lon="12.35158">
        <ele>45.309434</ele>
        <time>2020-08-13T09:19:37.849Z</time>
      </trkpt>
      <trkpt lat="65.46522" lon="12.35168">
        <ele>45.396477</ele>
        <time>2020-08-13T09:19:40.846Z</time>
      </trkpt>
      <trkpt lat="65.46532" lon="12.35179">
        <ele>45.40653</ele>
        <time>2020-08-13T09:19:43.847Z</time>
      </trkpt>
      <trkpt lat="65.46541" lon="12.35191">
        <ele>45.373654</ele>
        <time>2020-08-13T09:19:46.855Z</time>
      </trkpt>
      <trkpt lat="65.46551" lon="12.35203">
        <ele>45.341126</ele>
        <time>2020-08-13T09:19:49.850Z</time>
      </trkpt>
      <trkpt lat="65.4656" lon="12.35216">
        <ele>45.310057</ele>
        <time>2020-08-13T09:19:52.825Z</time>
      </trkpt>
      <trkpt lat="65.46568" lon="12.35227">
        <ele>45.280271</ele>
        <time>2020-08-13T09:19:55.839Z</time>
      </trkpt>
      <trkpt lat="65.46578" lon="12.35239">
        <ele>45.248538</ele>
        <time>2020-08-13T09:19:58.830Z</time>
      </trkpt>
      <trkpt lat="65.46587" lon="12.35252">
        <ele>45.216172</ele>
        <time>2020-08-13T09:20:01.902Z</time>
      </trkpt>
      <trkpt lat="65.46597" lon="12.35267">
        <ele>45.181742</ele>
        <time>2020-08-13T09:20:04.840Z</time>
      </trkpt>
      <trkpt lat="65.46607" lon="12.35282">
        <ele>45.144846</ele>
        <time>2020-08-13T09:20:07.849Z</time>
      </trkpt>
      <trkpt lat="65.46617" lon="12.35299">
        <ele>45.108785</ele>
        <time>2020-08-13T09:20:10.846Z</time>
      </trkpt>
      <trkpt lat="65.46627" lon="12.35316">
        <ele>45.071943</ele>
        <time>2020-08-13T09:20:13.844Z</time>
      </trkpt>
      <trkpt lat="65.46636" lon="12.35332">
        <ele>45.03735</ele>
        <time>2020-08-13T09:20:16.833Z</time>
      </trkpt>
      <trkpt lat="65.46645" lon="12.35349">
        <ele>45.003562</ele>
        <time>2020-08-13T09:20:19.878Z</time>
      </trkpt>
      <trkpt lat="65.46653" lon="12.35367">
        <ele>44.968727</ele>
        <time>2020-08-13T09:20:22.881Z</time>
      </trkpt>
      <trkpt lat="65.46662" lon="12.35385">
        <ele>44.935067</ele>
        <time>2020-08-13T09:20:25.876Z</time>
      </trkpt>
      <trkpt lat="65.4667" lon="12.35403">
        <ele>44.901438</ele>
        <time>2020-08-13T09:20:28.843Z</time>
      </trkpt>
      <trkpt lat="65.46678" lon="12.3542">
        <ele>44.771267</ele>
        <time>2020-08-13T09:20:31.891Z</time>
      </trkpt>
      <trkpt lat="65.46686" lon="12.35437">
        <ele>44.530206</ele>
        <time>2020-08-13T09:20:34.847Z</time>
      </trkpt>
      <trkpt lat="65.46694" lon="12.35452">
        <ele>44.29416</ele>
        <time>2020-08-13T09:20:37.846Z</time>
      </trkpt>
      <trkpt lat="65.46702" lon="12.35466">
        <ele>44.059027</ele>
        <time>2020-08-13T09:20:40.864Z</time>
      </trkpt>
      <trkpt lat="65.4671" lon="12.35479">
        <ele>43.829152</ele>
        <time>2020-08-13T09:20:43.852Z</time>
      </trkpt>
      <trkpt lat="65.46719" lon="12.35489">
        <ele>43.590875</ele>
        <time>2020-08-13T09:20:46.849Z</time>
      </trkpt>
      <trkpt lat="65.46729" lon="12.355">
        <ele>43.341265</ele>
        <time>2020-08-13T09:20:49.843Z</time>
      </trkpt>
      <trkpt lat="65.46739" lon="12.35511">
        <ele>43.084139</ele>
        <time>2020-08-13T09:20:52.845Z</time>
      </trkpt>
      <trkpt lat="65.46751" lon="12.35519">
        <ele>42.794041</ele>
        <time>2020-08-13T09:20:55.846Z</time>
      </trkpt>
      <trkpt lat="65.46764" lon="12.35526">
        <ele>42.479574</ele>
        <time>2020-08-13T09:20:58.888Z</time>
      </trkpt>
      <trkpt lat="65.46774" lon="12.35528">
        <ele>42.246182</ele>
        <time>2020-08-13T09:21:00.837Z</time>
      </trkpt>
      <trkpt lat="65.46785" lon="12.35526">
        <ele>42.003499</ele>
        <time>2020-08-13T09:21:02.861Z</time>
      </trkpt>
      <trkpt lat="65.46796" lon="12.35522">
        <ele>41.741279</ele>
        <time>2020-08-13T09:21:04.852Z</time>
      </trkpt>
      <trkpt lat="65.46808" lon="12.35516">
        <ele>41.456142</ele>
        <time>2020-08-13T09:21:06.844Z</time>
      </trkpt>
      <trkpt lat="65.46821" lon="12.35509">
        <ele>41.148072</ele>
        <time>2020-08-13T09:21:08.870Z</time>
      </trkpt>
      <trkpt lat="65.46834" lon="12.35501">
        <ele>40.833197</ele>
        <time>2020-08-13T09:21:10.841Z</time>
      </trkpt>
      <trkpt lat="65.46847" lon="12.35493">
        <ele>40.541633</ele>
        <time>2020-08-13T09:21:12.852Z</time>
      </trkpt>
      <trkpt lat="65.46859" lon="12.35487">
        <ele>40.281401</ele>
        <time>2020-08-13T09:21:14.886Z</time>
      </trkpt>
      <trkpt lat="65.46871" lon="12.3548">
        <ele>40.029923</ele>
        <time>2020-08-13T09:21:16.845Z</time>
      </trkpt>
      <trkpt lat="65.46882" lon="12.35475">
        <ele>39.794447</ele>
        <time>2020-08-13T09:21:18.848Z</time>
      </trkpt>
      <trkpt lat="65.46891" lon="12.35469">
        <ele>39.591896</ele>
        <time>2020-08-13T09:21:20.902Z</time>
      </trkpt>
      <trkpt lat="65.469" lon="12.35464">
        <ele>39.400733</ele>
        <time>2020-08-13T09:21:22.839Z</time>
      </trkpt>
      <trkpt lat="65.46913" lon="12.35457">
        <ele>39.125806</ele>
        <time>2020-08-13T09:21:25.860Z</time>
      </trkpt>
      <trkpt lat="65.46922" lon="12.35452">
        <ele>38.93445</ele>
        <time>2020-08-13T09:21:27.850Z</time>
      </trkpt>
      <trkpt lat="65.46935" lon="12.35443">
        <ele>38.651176</ele>
        <time>2020-08-13T09:21:30.837Z</time>
      </trkpt>
      <trkpt lat="65.46944" lon="12.35437">
        <ele>38.448004</ele>
        <time>2020-08-13T09:21:32.885Z</time>
      </trkpt>
      <trkpt lat="65.46954" lon="12.35431">
        <ele>38.239904</ele>
        <time>2020-08-13T09:21:34.853Z</time>
      </trkpt>
      <trkpt lat="65.46964" lon="12.35424">
        <ele>38.020092</ele>
        <time>2020-08-13T09:21:36.866Z</time>
      </trkpt>
      <trkpt lat="65.46974" lon="12.35418">
        <ele>37.788166</ele>
        <time>2020-08-13T09:21:38.842Z</time>
      </trkpt>
      <trkpt lat="65.46985" lon="12.35412">
        <ele>37.550768</ele>
        <time>2020-08-13T09:21:40.834Z</time>
      </trkpt>
      <trkpt lat="65.46996" lon="12.35405">
        <ele>37.313577</ele>
        <time>2020-08-13T09:21:42.825Z</time>
      </trkpt>
      <trkpt lat="65.47007" lon="12.35399">
        <ele>37.076385</ele>
        <time>2020-08-13T09:21:44.841Z</time>
      </trkpt>
      <trkpt lat="65.47018" lon="12.35392">
        <ele>37.055954</ele>
        <time>2020-08-13T09:21:46.847Z</time>
      </trkpt>
      <trkpt lat="65.47029" lon="12.35386">
        <ele>37.393778</ele>
        <time>2020-08-13T09:21:48.821Z</time>
      </trkpt>
      <trkpt lat="65.47039" lon="12.3538">
        <ele>37.72053</ele>
        <time>2020-08-13T09:21:50.853Z</time>
      </trkpt>
      <trkpt lat="65.47049" lon="12.35376">
        <ele>38.038687</ele>
        <time>2020-08-13T09:21:52.870Z</time>
      </trkpt>
      <trkpt lat="65.47059" lon="12.35372">
        <ele>38.340907</ele>
        <time>2020-08-13T09:21:54.864Z</time>
      </trkpt>
      <trkpt lat="65.47068" lon="12.35366">
        <ele>38.62005</ele>
        <time>2020-08-13T09:21:56.863Z</time>
      </trkpt>
      <trkpt lat="65.4708" lon="12.35358">
        <ele>39.012326</ele>
        <time>2020-08-13T09:21:59.845Z</time>
      </trkpt>
      <trkpt lat="65.47091" lon="12.35349">
        <ele>39.38085</ele>
        <time>2020-08-13T09:22:02.887Z</time>
      </trkpt>
      <trkpt lat="65.47101" lon="12.35344">
        <ele>39.684019</ele>
        <time>2020-08-13T09:22:05.834Z</time>
      </trkpt>
      <trkpt lat="65.4711" lon="12.3534">
        <ele>39.964427</ele>
        <time>2020-08-13T09:22:08.842Z</time>
      </trkpt>
      <trkpt lat="65.4712" lon="12.35333">
        <ele>40.301461</ele>
        <time>2020-08-13T09:22:12.841Z</time>
      </trkpt>
      <trkpt lat="65.47129" lon="12.35328">
        <ele>40.590225</ele>
        <time>2020-08-13T09:22:16.829Z</time>
      </trkpt>
      <trkpt lat="65.4714" lon="12.35321">
        <ele>40.931268</ele>
        <time>2020-08-13T09:22:21.845Z</time>
      </trkpt>
      <trkpt lat="65.47149" lon="12.35315">
        <ele>41.228418</ele>
        <time>2020-08-13T09:22:25.865Z</time>
      </trkpt>
      <trkpt lat="65.47159" lon="12.35308">
        <ele>41.551581</ele>
        <time>2020-08-13T09:22:29.844Z</time>
      </trkpt>
      <trkpt lat="65.47169" lon="12.35301">
        <ele>41.875109</ele>
        <time>2020-08-13T09:22:33.844Z</time>
      </trkpt>
      <trkpt lat="65.4718" lon="12.35294">
        <ele>42.213516</ele>
        <time>2020-08-13T09:22:37.854Z</time>
      </trkpt>
      <trkpt lat="65.47189" lon="12.3529">
        <ele>42.495906</ele>
        <time>2020-08-13T09:22:40.841Z</time>
      </trkpt>
      <trkpt lat="65.47197" lon="12.35286">
        <ele>42.745004</ele>
        <time>2020-08-13T09:22:43.837Z</time>
      </trkpt>
      <trkpt lat="65.47209" lon="12.3528">
        <ele>43.071868</ele>
        <time>2020-08-13T09:22:47.837Z</time>
      </trkpt>
      <trkpt lat="65.47218" lon="12.35275">
        <ele>43.319317</ele>
        <time>2020-08-13T09:22:50.851Z</time>
      </trkpt>
      <trkpt lat="65.47227" lon="12.35272">
        <ele>43.579379</ele>
        <time>2020-08-13T09:22:53.843Z</time>
      </trkpt>
      <trkpt lat="65.47237" lon="12.35267">
        <ele>43.851583</ele>
        <time>2020-08-13T09:22:56.863Z</time>
      </trkpt>
      <trkpt lat="65.47248" lon="12.35261">
        <ele>44.162224</ele>
        <time>2020-08-13T09:23:00.834Z</time>
      </trkpt>
      <trkpt lat="65.4726" lon="12.35254">
        <ele>44.484072</ele>
        <time>2020-08-13T09:23:04.870Z</time>
      </trkpt>
      <trkpt lat="65.47269" lon="12.35247">
        <ele>44.753222</ele>
        <time>2020-08-13T09:23:07.842Z</time>
      </trkpt>
      <trkpt lat="65.47278" lon="12.35242">
        <ele>44.996291</ele>
        <time>2020-08-13T09:23:10.846Z</time>
      </trkpt>
      <trkpt lat="65.47289" lon="12.35234">
        <ele>45.317016</ele>
        <time>2020-08-13T09:23:14.846Z</time>
      </trkpt>
      <trkpt lat="65.473" lon="12.35228">
        <ele>45.616512</ele>
        <time>2020-08-13T09:23:18.844Z</time>
      </trkpt>
      <trkpt lat="65.47311" lon="12.35222">
        <ele>45.91842</ele>
        <time>2020-08-13T09:23:22.838Z</time>
      </trkpt>
      <trkpt lat="65.47321" lon="12.35216">
        <ele>46.218693</ele>
        <time>2020-08-13T09:23:26.852Z</time>
      </trkpt>
      <trkpt lat="65.47332" lon="12.35211">
        <ele>46.511173</ele>
        <time>2020-08-13T09:23:30.833Z</time>
      </trkpt>
      <trkpt lat="65.47342" lon="12.35204">
        <ele>46.804328</ele>
        <time>2020-08-13T09:23:34.848Z</time>
      </trkpt>
      <trkpt lat="65.47353" lon="12.35199">
        <ele>47.100419</ele>
        <time>2020-08-13T09:23:38.846Z</time>
      </trkpt>
      <trkpt lat="65.47362" lon="12.35193">
        <ele>47.371024</ele>
        <time>2020-08-13T09:23:42.858Z</time>
      </trkpt>
      <trkpt lat="65.47372" lon="12.35187">
        <ele>47.697296</ele>
        <time>2020-08-13T09:23:46.852Z</time>
      </trkpt>
      <trkpt lat="65.47382" lon="12.35182">
        <ele>48.022997</ele>
        <time>2020-08-13T09:23:50.833Z</time>
      </trkpt>
      <trkpt lat="65.47391" lon="12.35175">
        <ele>48.331172</ele>
        <time>2020-08-13T09:23:54.851Z</time>
      </trkpt>
      <trkpt lat="65.47401" lon="12.35168">
        <ele>48.655356</ele>
        <time>2020-08-13T09:23:58.844Z</time>
      </trkpt>
      <trkpt lat="65.4741" lon="12.35162">
        <ele>48.953644</ele>
        <time>2020-08-13T09:24:02.874Z</time>
      </trkpt>
      <trkpt lat="65.47418" lon="12.35156">
        <ele>49.247098</ele>
        <time>2020-08-13T09:24:06.853Z</time>
      </trkpt>
      <trkpt lat="65.47428" lon="12.35147">
        <ele>49.563595</ele>
        <time>2020-08-13T09:24:10.843Z</time>
      </trkpt>
      <trkpt lat="65.47437" lon="12.35138">
        <ele>49.893634</ele>
        <time>2020-08-13T09:24:14.862Z</time>
      </trkpt>
      <trkpt lat="65.47445" lon="12.35127">
        <ele>50.208453</ele>
        <time>2020-08-13T09:24:18.837Z</time>
      </trkpt>
      <trkpt lat="65.47453" lon="12.35113">
        <ele>50.523318</ele>
        <time>2020-08-13T09:24:22.847Z</time>
      </trkpt>
      <trkpt lat="65.47462" lon="12.35097">
        <ele>50.868059</ele>
        <time>2020-08-13T09:24:26.849Z</time>
      </trkpt>
      <trkpt lat="65.47469" lon="12.35078">
        <ele>51.21518</ele>
        <time>2020-08-13T09:24:30.845Z</time>
      </trkpt>
      <trkpt lat="65.47475" lon="12.35059">
        <ele>51.545812</ele>
        <time>2020-08-13T09:24:34.865Z</time>
      </trkpt>
      <trkpt lat="65.47481" lon="12.35039">
        <ele>51.876444</ele>
        <time>2020-08-13T09:24:38.858Z</time>
      </trkpt>
      <trkpt lat="65.47488" lon="12.35018">
        <ele>52.247433</ele>
        <time>2020-08-13T09:24:42.851Z</time>
      </trkpt>
      <trkpt lat="65.47496" lon="12.34996">
        <ele>52.625592</ele>
        <time>2020-08-13T09:24:46.838Z</time>
      </trkpt>
      <trkpt lat="65.47501" lon="12.34977">
        <ele>52.93597</ele>
        <time>2020-08-13T09:24:49.847Z</time>
      </trkpt>
      <trkpt lat="65.47507" lon="12.34958">
        <ele>53.244763</ele>
        <time>2020-08-13T09:24:52.856Z</time>
      </trkpt>
      <trkpt lat="65.47512" lon="12.3494">
        <ele>53.42296</ele>
        <time>2020-08-13T09:24:55.838Z</time>
      </trkpt>
      <trkpt lat="65.47518" lon="12.3492">
        <ele>53.604019</ele>
        <time>2020-08-13T09:24:58.847Z</time>
      </trkpt>
      <trkpt lat="65.47524" lon="12.349">
        <ele>53.790619</ele>
        <time>2020-08-13T09:25:01.848Z</time>
      </trkpt>
      <trkpt lat="65.47529" lon="12.34882">
        <ele>53.971178</ele>
        <time>2020-08-13T09:25:04.869Z</time>
      </trkpt>
      <trkpt lat="65.47535" lon="12.34863">
        <ele>54.150961</ele>
        <time>2020-08-13T09:25:07.851Z</time>
      </trkpt>
      <trkpt lat="65.47541" lon="12.34844">
        <ele>54.337929</ele>
        <time>2020-08-13T09:25:10.838Z</time>
      </trkpt>
      <trkpt lat="65.47547" lon="12.34825">
        <ele>54.515808</ele>
        <time>2020-08-13T09:25:13.867Z</time>
      </trkpt>
      <trkpt lat="65.47552" lon="12.34806">
        <ele>54.696063</ele>
        <time>2020-08-13T09:25:16.869Z</time>
      </trkpt>
      <trkpt lat="65.47557" lon="12.34787">
        <ele>54.876289</ele>
        <time>2020-08-13T09:25:19.856Z</time>
      </trkpt>
      <trkpt lat="65.47563" lon="12.34769">
        <ele>55.054298</ele>
        <time>2020-08-13T09:25:22.852Z</time>
      </trkpt>
      <trkpt lat="65.47569" lon="12.34751">
        <ele>55.232492</ele>
        <time>2020-08-13T09:25:25.854Z</time>
      </trkpt>
      <trkpt lat="65.47575" lon="12.34733">
        <ele>55.403312</ele>
        <time>2020-08-13T09:25:28.856Z</time>
      </trkpt>
      <trkpt lat="65.47582" lon="12.34711">
        <ele>55.618071</ele>
        <time>2020-08-13T09:25:32.861Z</time>
      </trkpt>
      <trkpt lat="65.47589" lon="12.3469">
        <ele>55.832474</ele>
        <time>2020-08-13T09:25:36.847Z</time>
      </trkpt>
      <trkpt lat="65.47595" lon="12.34668">
        <ele>56.038</ele>
        <time>2020-08-13T09:25:40.855Z</time>
      </trkpt>
      <trkpt lat="65.476" lon="12.34646">
        <ele>56.233699</ele>
        <time>2020-08-13T09:25:44.860Z</time>
      </trkpt>
      <trkpt lat="65.47605" lon="12.34626">
        <ele>56.415954</ele>
        <time>2020-08-13T09:25:48.833Z</time>
      </trkpt>
      <trkpt lat="65.4761" lon="12.34604">
        <ele>56.605441</ele>
        <time>2020-08-13T09:25:53.831Z</time>
      </trkpt>
      <trkpt lat="65.47614" lon="12.3458">
        <ele>56.973363</ele>
        <time>2020-08-13T09:25:58.842Z</time>
      </trkpt>
      <trkpt lat="65.47617" lon="12.34557">
        <ele>57.312033</ele>
        <time>2020-08-13T09:26:03.843Z</time>
      </trkpt>
      <trkpt lat="65.4762" lon="12.34532">
        <ele>57.682723</ele>
        <time>2020-08-13T09:26:08.842Z</time>
      </trkpt>
      <trkpt lat="65.47622" lon="12.3451">
        <ele>57.998264</ele>
        <time>2020-08-13T09:26:12.849Z</time>
      </trkpt>
      <trkpt lat="65.47625" lon="12.34488">
        <ele>58.320036</ele>
        <time>2020-08-13T09:26:16.852Z</time>
      </trkpt>
      <trkpt lat="65.47627" lon="12.34466">
        <ele>58.641255</ele>
        <time>2020-08-13T09:26:20.854Z</time>
      </trkpt>
      <trkpt lat="65.4763" lon="12.34446">
        <ele>58.946155</ele>
        <time>2020-08-13T09:26:24.861Z</time>
      </trkpt>
      <trkpt lat="65.47633" lon="12.34423">
        <ele>59.280161</ele>
        <time>2020-08-13T09:26:28.852Z</time>
      </trkpt>
      <trkpt lat="65.47636" lon="12.34398">
        <ele>59.648028</ele>
        <time>2020-08-13T09:26:32.850Z</time>
      </trkpt>
      <trkpt lat="65.47639" lon="12.34377">
        <ele>59.952218</ele>
        <time>2020-08-13T09:26:35.847Z</time>
      </trkpt>
      <trkpt lat="65.47642" lon="12.34355">
        <ele>60.267757</ele>
        <time>2020-08-13T09:26:38.855Z</time>
      </trkpt>
      <trkpt lat="65.47644" lon="12.34333">
        <ele>60.597666</ele>
        <time>2020-08-13T09:26:41.844Z</time>
      </trkpt>
      <trkpt lat="65.47646" lon="12.34309">
        <ele>60.939992</ele>
        <time>2020-08-13T09:26:44.851Z</time>
      </trkpt>
      <trkpt lat="65.47647" lon="12.34284">
        <ele>61.293084</ele>
        <time>2020-08-13T09:26:47.847Z</time>
      </trkpt>
      <trkpt lat="65.47649" lon="12.34259">
        <ele>61.647343</ele>
        <time>2020-08-13T09:26:50.845Z</time>
      </trkpt>
      <trkpt lat="65.47652" lon="12.34231">
        <ele>62.047826</ele>
        <time>2020-08-13T09:26:53.836Z</time>
      </trkpt>
      <trkpt lat="65.47655" lon="12.3421">
        <ele>62.352972</ele>
        <time>2020-08-13T09:26:55.877Z</time>
      </trkpt>
      <trkpt lat="65.47657" lon="12.34187">
        <ele>62.692246</ele>
        <time>2020-08-13T09:26:57.827Z</time>
      </trkpt>
      <trkpt lat="65.47659" lon="12.34161">
        <ele>62.384418</ele>
        <time>2020-08-13T09:26:59.841Z</time>
      </trkpt>
      <trkpt lat="65.47662" lon="12.34135">
        <ele>62.055937</ele>
        <time>2020-08-13T09:27:01.836Z</time>
      </trkpt>
      <trkpt lat="65.47665" lon="12.34107">
        <ele>61.723573</ele>
        <time>2020-08-13T09:27:03.844Z</time>
      </trkpt>
      <trkpt lat="65.47668" lon="12.34079">
        <ele>61.384978</ele>
        <time>2020-08-13T09:27:05.856Z</time>
      </trkpt>
      <trkpt lat="65.4767" lon="12.34051">
        <ele>61.037678</ele>
        <time>2020-08-13T09:27:07.899Z</time>
      </trkpt>
      <trkpt lat="65.47673" lon="12.34023">
        <ele>60.702023</ele>
        <time>2020-08-13T09:27:09.849Z</time>
      </trkpt>
      <trkpt lat="65.47676" lon="12.33998">
        <ele>60.385353</ele>
        <time>2020-08-13T09:27:11.831Z</time>
      </trkpt>
      <trkpt lat="65.4768" lon="12.33972">
        <ele>60.067919</ele>
        <time>2020-08-13T09:27:13.872Z</time>
      </trkpt>
      <trkpt lat="65.47684" lon="12.33949">
        <ele>59.775327</ele>
        <time>2020-08-13T09:27:15.845Z</time>
      </trkpt>
      <trkpt lat="65.47688" lon="12.33928">
        <ele>59.499973</ele>
        <time>2020-08-13T09:27:17.836Z</time>
      </trkpt>
      <trkpt lat="65.47693" lon="12.33908">
        <ele>59.231097</ele>
        <time>2020-08-13T09:27:19.853Z</time>
      </trkpt>
      <trkpt lat="65.47698" lon="12.3389">
        <ele>58.966048</ele>
        <time>2020-08-13T09:27:21.876Z</time>
      </trkpt>
      <trkpt lat="65.47704" lon="12.33871">
        <ele>58.691245</ele>
        <time>2020-08-13T09:27:23.832Z</time>
      </trkpt>
      <trkpt lat="65.4771" lon="12.33854">
        <ele>58.4198</ele>
        <time>2020-08-13T09:27:25.882Z</time>
      </trkpt>
      <trkpt lat="65.47718" lon="12.33838">
        <ele>58.127931</ele>
        <time>2020-08-13T09:27:27.837Z</time>
      </trkpt>
      <trkpt lat="65.47726" lon="12.33822">
        <ele>57.826719</ele>
        <time>2020-08-13T09:27:29.914Z</time>
      </trkpt>
      <trkpt lat="65.47736" lon="12.33807">
        <ele>57.503055</ele>
        <time>2020-08-13T09:27:31.856Z</time>
      </trkpt>
      <trkpt lat="65.47747" lon="12.33793">
        <ele>57.174622</ele>
        <time>2020-08-13T09:27:33.851Z</time>
      </trkpt>
      <trkpt lat="65.47759" lon="12.33781">
        <ele>56.844189</ele>
        <time>2020-08-13T09:27:35.831Z</time>
      </trkpt>
      <trkpt lat="65.47772" lon="12.33772">
        <ele>56.501931</ele>
        <time>2020-08-13T09:27:37.869Z</time>
      </trkpt>
      <trkpt lat="65.47785" lon="12.33765">
        <ele>56.153252</ele>
        <time>2020-08-13T09:27:39.837Z</time>
      </trkpt>
      <trkpt lat="65.47799" lon="12.3376">
        <ele>55.79483</ele>
        <time>2020-08-13T09:27:41.873Z</time>
      </trkpt>
      <trkpt lat="65.47812" lon="12.33755">
        <ele>55.44008</ele>
        <time>2020-08-13T09:27:43.842Z</time>
      </trkpt>
      <trkpt lat="65.47826" lon="12.33752">
        <ele>55.07939</ele>
        <time>2020-08-13T09:27:45.850Z</time>
      </trkpt>
      <trkpt lat="65.47841" lon="12.3375">
        <ele>54.706862</ele>
        <time>2020-08-13T09:27:47.847Z</time>
      </trkpt>
      <trkpt lat="65.47855" lon="12.3375">
        <ele>54.337461</ele>
        <time>2020-08-13T09:27:49.866Z</time>
      </trkpt>
      <trkpt lat="65.4787" lon="12.33753">
        <ele>53.94899</ele>
        <time>2020-08-13T09:27:51.864Z</time>
      </trkpt>
      <trkpt lat="65.47885" lon="12.33758">
        <ele>53.557531</ele>
        <time>2020-08-13T09:27:53.834Z</time>
      </trkpt>
      <trkpt lat="65.47899" lon="12.33765">
        <ele>53.183552</ele>
        <time>2020-08-13T09:27:55.849Z</time>
      </trkpt>
      <trkpt lat="65.47914" lon="12.33773">
        <ele>52.806471</ele>
        <time>2020-08-13T09:27:57.863Z</time>
      </trkpt>
      <trkpt lat="65.47929" lon="12.33781">
        <ele>52.439905</ele>
        <time>2020-08-13T09:27:59.837Z</time>
      </trkpt>
      <trkpt lat="65.47943" lon="12.3379">
        <ele>52.08681</ele>
        <time>2020-08-13T09:28:01.866Z</time>
      </trkpt>
      <trkpt lat="65.47957" lon="12.33796">
        <ele>51.751122</ele>
        <time>2020-08-13T09:28:03.845Z</time>
      </trkpt>
      <trkpt lat="65.47971" lon="12.33804">
        <ele>51.403804</ele>
        <time>2020-08-13T09:28:05.833Z</time>
      </trkpt>
      <trkpt lat="65.47986" lon="12.33812">
        <ele>51.045291</ele>
        <time>2020-08-13T09:28:07.841Z</time>
      </trkpt>
      <trkpt lat="65.48001" lon="12.33821">
        <ele>50.675511</ele>
        <time>2020-08-13T09:28:09.850Z</time>
      </trkpt>
      <trkpt lat="65.48015" lon="12.33829">
        <ele>50.332379</ele>
        <time>2020-08-13T09:28:11.844Z</time>
      </trkpt>
      <trkpt lat="65.48028" lon="12.33836">
        <ele>50.011716</ele>
        <time>2020-08-13T09:28:13.853Z</time>
      </trkpt>
      <trkpt lat="65.48041" lon="12.33844">
        <ele>49.695813</ele>
        <time>2020-08-13T09:28:15.857Z</time>
      </trkpt>
      <trkpt lat="65.48053" lon="12.33853">
        <ele>49.38963</ele>
        <time>2020-08-13T09:28:17.846Z</time>
      </trkpt>
      <trkpt lat="65.48065" lon="12.33859">
        <ele>49.107193</ele>
        <time>2020-08-13T09:28:19.836Z</time>
      </trkpt>
      <trkpt lat="65.48075" lon="12.33866">
        <ele>48.841659</ele>
        <time>2020-08-13T09:28:21.864Z</time>
      </trkpt>
      <trkpt lat="65.48086" lon="12.33873">
        <ele>48.648205</ele>
        <time>2020-08-13T09:28:23.859Z</time>
      </trkpt>
      <trkpt lat="65.48097" lon="12.3388">
        <ele>48.687946</ele>
        <time>2020-08-13T09:28:25.848Z</time>
      </trkpt>
      <trkpt lat="65.48108" lon="12.33887">
        <ele>48.72787</ele>
        <time>2020-08-13T09:28:27.856Z</time>
      </trkpt>
      <trkpt lat="65.48119" lon="12.33893">
        <ele>48.766337</ele>
        <time>2020-08-13T09:28:29.830Z</time>
      </trkpt>
      <trkpt lat="65.48129" lon="12.33899">
        <ele>48.803326</ele>
        <time>2020-08-13T09:28:31.835Z</time>
      </trkpt>
      <trkpt lat="65.48139" lon="12.33904">
        <ele>48.838872</ele>
        <time>2020-08-13T09:28:33.847Z</time>
      </trkpt>
      <trkpt lat="65.48148" lon="12.33911">
        <ele>48.874091</ele>
        <time>2020-08-13T09:28:35.851Z</time>
      </trkpt>
      <trkpt lat="65.48158" lon="12.33917">
        <ele>48.908289</ele>
        <time>2020-08-13T09:28:37.850Z</time>
      </trkpt>
      <trkpt lat="65.48167" lon="12.33922">
        <ele>48.942046</ele>
        <time>2020-08-13T09:28:39.842Z</time>
      </trkpt>
      <trkpt lat="65.48176" lon="12.33928">
        <ele>48.975562</ele>
        <time>2020-08-13T09:28:41.843Z</time>
      </trkpt>
      <trkpt lat="65.48185" lon="12.33934">
        <ele>49.008064</ele>
        <time>2020-08-13T09:28:43.839Z</time>
      </trkpt>
      <trkpt lat="65.48197" lon="12.33943">
        <ele>49.053896</ele>
        <time>2020-08-13T09:28:46.849Z</time>
      </trkpt>
      <trkpt lat="65.48209" lon="12.33953">
        <ele>49.098985</ele>
        <time>2020-08-13T09:28:49.844Z</time>
      </trkpt>
      <trkpt lat="65.48222" lon="12.33963">
        <ele>49.144931</ele>
        <time>2020-08-13T09:28:52.849Z</time>
      </trkpt>
      <trkpt lat="65.48234" lon="12.33974">
        <ele>49.192406</ele>
        <time>2020-08-13T09:28:55.846Z</time>
      </trkpt>
      <trkpt lat="65.48247" lon="12.33984">
        <ele>49.238545</ele>
        <time>2020-08-13T09:28:58.852Z</time>
      </trkpt>
      <trkpt lat="65.48258" lon="12.33995">
        <ele>49.301547</ele>
        <time>2020-08-13T09:29:01.835Z</time>
      </trkpt>
      <trkpt lat="65.48269" lon="12.34005">
        <ele>49.462621</ele>
        <time>2020-08-13T09:29:04.843Z</time>
      </trkpt>
      <trkpt lat="65.48281" lon="12.34015">
        <ele>49.624949</ele>
        <time>2020-08-13T09:29:07.874Z</time>
      </trkpt>
      <trkpt lat="65.48292" lon="12.34024">
        <ele>49.778285</ele>
        <time>2020-08-13T09:29:10.854Z</time>
      </trkpt>
      <trkpt lat="65.48303" lon="12.34033">
        <ele>49.940962</ele>
        <time>2020-08-13T09:29:13.854Z</time>
      </trkpt>
      <trkpt lat="65.48316" lon="12.34044">
        <ele>50.115163</ele>
        <time>2020-08-13T09:29:16.835Z</time>
      </trkpt>
      <trkpt lat="65.48328" lon="12.34053">
        <ele>50.281624</ele>
        <time>2020-08-13T09:29:19.862Z</time>
      </trkpt>
      <trkpt lat="65.48337" lon="12.34061">
        <ele>50.419339</ele>
        <time>2020-08-13T09:29:22.846Z</time>
      </trkpt>
      <trkpt lat="65.48346" lon="12.34068">
        <ele>50.541055</ele>
        <time>2020-08-13T09:29:25.845Z</time>
      </trkpt>
      <trkpt lat="65.48355" lon="12.34077">
        <ele>50.668017</ele>
        <time>2020-08-13T09:29:29.861Z</time>
      </trkpt>
      <trkpt lat="65.48364" lon="12.34088">
        <ele>50.797957</ele>
        <time>2020-08-13T09:29:34.847Z</time>
      </trkpt>
      <trkpt lat="65.48378" lon="12.34098">
        <ele>50.997465</ele>
        <time>2020-08-13T09:31:48.848Z</time>
      </trkpt>
      <trkpt lat="65.48388" lon="12.34105">
        <ele>51.138288</ele>
        <time>2020-08-13T09:31:52.846Z</time>
      </trkpt>
      <trkpt lat="65.48396" lon="12.34114">
        <ele>51.257949</ele>
        <time>2020-08-13T09:31:55.844Z</time>
      </trkpt>
      <trkpt lat="65.48406" lon="12.34123">
        <ele>51.388285</ele>
        <time>2020-08-13T09:31:58.833Z</time>
      </trkpt>
      <trkpt lat="65.48416" lon="12.34131">
        <ele>51.530857</ele>
        <time>2020-08-13T09:32:01.849Z</time>
      </trkpt>
      <trkpt lat="65.48426" lon="12.3414">
        <ele>51.659062</ele>
        <time>2020-08-13T09:32:04.856Z</time>
      </trkpt>
      <trkpt lat="65.48435" lon="12.34148">
        <ele>51.575633</ele>
        <time>2020-08-13T09:32:07.835Z</time>
      </trkpt>
      <trkpt lat="65.48445" lon="12.34158">
        <ele>51.488923</ele>
        <time>2020-08-13T09:32:10.870Z</time>
      </trkpt>
      <trkpt lat="65.48455" lon="12.34166">
        <ele>51.40495</ele>
        <time>2020-08-13T09:32:13.851Z</time>
      </trkpt>
      <trkpt lat="65.48465" lon="12.34174">
        <ele>51.318643</ele>
        <time>2020-08-13T09:32:16.860Z</time>
      </trkpt>
      <trkpt lat="65.48475" lon="12.34183">
        <ele>51.231407</ele>
        <time>2020-08-13T09:32:19.864Z</time>
      </trkpt>
      <trkpt lat="65.48485" lon="12.34193">
        <ele>51.138198</ele>
        <time>2020-08-13T09:32:22.845Z</time>
      </trkpt>
      <trkpt lat="65.48496" lon="12.34202">
        <ele>51.044535</ele>
        <time>2020-08-13T09:32:25.838Z</time>
      </trkpt>
      <trkpt lat="65.48507" lon="12.34212">
        <ele>50.948426</ele>
        <time>2020-08-13T09:32:28.870Z</time>
      </trkpt>
      <trkpt lat="65.48518" lon="12.34221">
        <ele>50.853432</ele>
        <time>2020-08-13T09:32:31.859Z</time>
      </trkpt>
      <trkpt lat="65.48529" lon="12.3423">
        <ele>50.757323</ele>
        <time>2020-08-13T09:32:34.854Z</time>
      </trkpt>
      <trkpt lat="65.48539" lon="12.3424">
        <ele>50.664241</ele>
        <time>2020-08-13T09:32:37.874Z</time>
      </trkpt>
      <trkpt lat="65.4855" lon="12.3425">
        <ele>50.570516</ele>
        <time>2020-08-13T09:32:40.846Z</time>
      </trkpt>
      <trkpt lat="65.4856" lon="12.34257">
        <ele>50.481706</ele>
        <time>2020-08-13T09:32:43.847Z</time>
      </trkpt>
      <trkpt lat="65.48572" lon="12.34266">
        <ele>50.378586</ele>
        <time>2020-08-13T09:32:46.861Z</time>
      </trkpt>
      <trkpt lat="65.48581" lon="12.34271">
        <ele>50.301635</ele>
        <time>2020-08-13T09:32:48.857Z</time>
      </trkpt>
      <trkpt lat="65.48591" lon="12.34275">
        <ele>50.218699</ele>
        <time>2020-08-13T09:32:50.841Z</time>
      </trkpt>
      <trkpt lat="65.48602" lon="12.34279">
        <ele>50.068732</ele>
        <time>2020-08-13T09:32:52.877Z</time>
      </trkpt>
      <trkpt lat="65.48614" lon="12.3428">
        <ele>49.87085</ele>
        <time>2020-08-13T09:32:54.846Z</time>
      </trkpt>
      <trkpt lat="65.48627" lon="12.3428">
        <ele>49.648058</ele>
        <time>2020-08-13T09:32:56.850Z</time>
      </trkpt>
      <trkpt lat="65.48641" lon="12.34276">
        <ele>49.424115</ele>
        <time>2020-08-13T09:32:58.839Z</time>
      </trkpt>
      <trkpt lat="65.48654" lon="12.34271">
        <ele>49.190377</ele>
        <time>2020-08-13T09:33:00.880Z</time>
      </trkpt>
      <trkpt lat="65.48668" lon="12.34265">
        <ele>48.962096</ele>
        <time>2020-08-13T09:33:02.869Z</time>
      </trkpt>
      <trkpt lat="65.4868" lon="12.34259">
        <ele>48.754755</ele>
        <time>2020-08-13T09:33:04.858Z</time>
      </trkpt>
      <trkpt lat="65.48691" lon="12.34254">
        <ele>48.56659</ele>
        <time>2020-08-13T09:33:06.854Z</time>
      </trkpt>
      <trkpt lat="65.48701" lon="12.34249">
        <ele>48.387963</ele>
        <time>2020-08-13T09:33:08.880Z</time>
      </trkpt>
      <trkpt lat="65.48711" lon="12.34245">
        <ele>48.224417</ele>
        <time>2020-08-13T09:33:10.845Z</time>
      </trkpt>
      <trkpt lat="65.48721" lon="12.34241">
        <ele>48.056722</ele>
        <time>2020-08-13T09:33:12.843Z</time>
      </trkpt>
      <trkpt lat="65.48732" lon="12.34241">
        <ele>47.870758</ele>
        <time>2020-08-13T09:33:14.879Z</time>
      </trkpt>
      <trkpt lat="65.48744" lon="12.34244">
        <ele>47.661727</ele>
        <time>2020-08-13T09:33:16.841Z</time>
      </trkpt>
      <trkpt lat="65.48758" lon="12.34251">
        <ele>47.429838</ele>
        <time>2020-08-13T09:33:18.839Z</time>
      </trkpt>
      <trkpt lat="65.48771" lon="12.34264">
        <ele>47.192295</ele>
        <time>2020-08-13T09:33:20.842Z</time>
      </trkpt>
      <trkpt lat="65.48784" lon="12.34281">
        <ele>46.764311</ele>
        <time>2020-08-13T09:33:22.877Z</time>
      </trkpt>
      <trkpt lat="65.48795" lon="12.343">
        <ele>46.327096</ele>
        <time>2020-08-13T09:33:24.855Z</time>
      </trkpt>
      <trkpt lat="65.48807" lon="12.3432">
        <ele>45.880687</ele>
        <time>2020-08-13T09:33:26.860Z</time>
      </trkpt>
      <trkpt lat="65.48818" lon="12.3434">
        <ele>45.456096</ele>
        <time>2020-08-13T09:33:28.854Z</time>
      </trkpt>
      <trkpt lat="65.48829" lon="12.3436">
        <ele>45.016258</ele>
        <time>2020-08-13T09:33:30.865Z</time>
      </trkpt>
      <trkpt lat="65.48841" lon="12.34379">
        <ele>44.583797</ele>
        <time>2020-08-13T09:33:32.845Z</time>
      </trkpt>
      <trkpt lat="65.48852" lon="12.34396">
        <ele>44.15652</ele>
        <time>2020-08-13T09:33:34.835Z</time>
      </trkpt>
      <trkpt lat="65.48865" lon="12.34412">
        <ele>43.726925</ele>
        <time>2020-08-13T09:33:36.845Z</time>
      </trkpt>
      <trkpt lat="65.48877" lon="12.34423">
        <ele>43.317716</ele>
        <time>2020-08-13T09:33:38.848Z</time>
      </trkpt>
      <trkpt lat="65.48889" lon="12.34431">
        <ele>42.921756</ele>
        <time>2020-08-13T09:33:40.848Z</time>
      </trkpt>
      <trkpt lat="65.48901" lon="12.34438">
        <ele>42.535368</ele>
        <time>2020-08-13T09:33:42.847Z</time>
      </trkpt>
      <trkpt lat="65.48913" lon="12.34442">
        <ele>42.152841</ele>
        <time>2020-08-13T09:33:44.901Z</time>
      </trkpt>
      <trkpt lat="65.48925" lon="12.34441">
        <ele>41.782465</ele>
        <time>2020-08-13T09:33:46.858Z</time>
      </trkpt>
      <trkpt lat="65.48937" lon="12.34439">
        <ele>41.625678</ele>
        <time>2020-08-13T09:33:48.835Z</time>
      </trkpt>
      <trkpt lat="65.48948" lon="12.34435">
        <ele>41.753218</ele>
        <time>2020-08-13T09:33:50.881Z</time>
      </trkpt>
      <trkpt lat="65.48958" lon="12.3443">
        <ele>41.877466</ele>
        <time>2020-08-13T09:33:52.848Z</time>
      </trkpt>
      <trkpt lat="65.48968" lon="12.34426">
        <ele>41.995895</ele>
        <time>2020-08-13T09:33:54.831Z</time>
      </trkpt>
      <trkpt lat="65.48978" lon="12.34424">
        <ele>42.108988</ele>
        <time>2020-08-13T09:33:56.836Z</time>
      </trkpt>
      <trkpt lat="65.48988" lon="12.34421">
        <ele>42.217982</ele>
        <time>2020-08-13T09:33:58.855Z</time>
      </trkpt>
      <trkpt lat="65.48997" lon="12.3442">
        <ele>42.321716</ele>
        <time>2020-08-13T09:34:00.864Z</time>
      </trkpt>
      <trkpt lat="65.49009" lon="12.34419">
        <ele>42.468943</ele>
        <time>2020-08-13T09:34:03.859Z</time>
      </trkpt>
      <trkpt lat="65.49021" lon="12.34418">
        <ele>42.603474</ele>
        <time>2020-08-13T09:34:06.887Z</time>
      </trkpt>
      <trkpt lat="65.49032" lon="12.34419">
        <ele>42.725394</ele>
        <time>2020-08-13T09:34:09.851Z</time>
      </trkpt>
      <trkpt lat="65.49042" lon="12.34421">
        <ele>42.846544</ele>
        <time>2020-08-13T09:34:12.876Z</time>
      </trkpt>
      <trkpt lat="65.49052" lon="12.34422">
        <ele>42.960539</ele>
        <time>2020-08-13T09:34:15.842Z</time>
      </trkpt>
      <trkpt lat="65.49063" lon="12.34425">
        <ele>43.083062</ele>
        <time>2020-08-13T09:34:18.852Z</time>
      </trkpt>
      <trkpt lat="65.49073" lon="12.34428">
        <ele>43.196444</ele>
        <time>2020-08-13T09:34:21.846Z</time>
      </trkpt>
      <trkpt lat="65.49082" lon="12.34433">
        <ele>43.305064</ele>
        <time>2020-08-13T09:34:24.837Z</time>
      </trkpt>
      <trkpt lat="65.49091" lon="12.34437">
        <ele>43.40931</ele>
        <time>2020-08-13T09:34:27.853Z</time>
      </trkpt>
      <trkpt lat="65.49102" lon="12.34442">
        <ele>43.537981</ele>
        <time>2020-08-13T09:34:31.854Z</time>
      </trkpt>
      <trkpt lat="65.49113" lon="12.34447">
        <ele>43.676882</ele>
        <time>2020-08-13T09:34:35.881Z</time>
      </trkpt>
      <trkpt lat="65.49125" lon="12.34453">
        <ele>43.813565</ele>
        <time>2020-08-13T09:34:39.865Z</time>
      </trkpt>
      <trkpt lat="65.49133" lon="12.3446">
        <ele>43.921066</ele>
        <time>2020-08-13T09:34:42.840Z</time>
      </trkpt>
      <trkpt lat="65.49142" lon="12.34469">
        <ele>44.03806</ele>
        <time>2020-08-13T09:34:45.860Z</time>
      </trkpt>
      <trkpt lat="65.49152" lon="12.34478">
        <ele>44.161121</ele>
        <time>2020-08-13T09:34:48.863Z</time>
      </trkpt>
      <trkpt lat="65.49162" lon="12.34487">
        <ele>44.282596</ele>
        <time>2020-08-13T09:34:51.830Z</time>
      </trkpt>
      <trkpt lat="65.49171" lon="12.34496">
        <ele>44.404934</ele>
        <time>2020-08-13T09:34:54.849Z</time>
      </trkpt>
      <trkpt lat="65.49181" lon="12.34504">
        <ele>44.526241</ele>
        <time>2020-08-13T09:34:57.855Z</time>
      </trkpt>
      <trkpt lat="65.4919" lon="12.34512">
        <ele>44.641968</ele>
        <time>2020-08-13T09:35:00.855Z</time>
      </trkpt>
      <trkpt lat="65.49199" lon="12.34521">
        <ele>44.758982</ele>
        <time>2020-08-13T09:35:03.859Z</time>
      </trkpt>
      <trkpt lat="65.49209" lon="12.3453">
        <ele>44.88848</ele>
        <time>2020-08-13T09:35:06.863Z</time>
      </trkpt>
      <trkpt lat="65.4922" lon="12.3454">
        <ele>45.022583</ele>
        <time>2020-08-13T09:35:09.843Z</time>
      </trkpt>
      <trkpt lat="65.49231" lon="12.34551">
        <ele>45.164774</ele>
        <time>2020-08-13T09:35:12.847Z</time>
      </trkpt>
      <trkpt lat="65.49242" lon="12.34561">
        <ele>45.31164</ele>
        <time>2020-08-13T09:35:15.847Z</time>
      </trkpt>
      <trkpt lat="65.49255" lon="12.34574">
        <ele>45.473891</ele>
        <time>2020-08-13T09:35:18.841Z</time>
      </trkpt>
      <trkpt lat="65.49264" lon="12.34582">
        <ele>45.584296</ele>
        <time>2020-08-13T09:35:20.861Z</time>
      </trkpt>
      <trkpt lat="65.49273" lon="12.34589">
        <ele>45.701611</ele>
        <time>2020-08-13T09:35:22.857Z</time>
      </trkpt>
      <trkpt lat="65.49283" lon="12.34596">
        <ele>45.696123</ele>
        <time>2020-08-13T09:35:24.849Z</time>
      </trkpt>
      <trkpt lat="65.49293" lon="12.34604">
        <ele>45.464598</ele>
        <time>2020-08-13T09:35:26.865Z</time>
      </trkpt>
      <trkpt lat="65.49304" lon="12.34612">
        <ele>45.225592</ele>
        <time>2020-08-13T09:35:28.867Z</time>
      </trkpt>
      <trkpt lat="65.49315" lon="12.3462">
        <ele>44.982578</ele>
        <time>2020-08-13T09:35:30.842Z</time>
      </trkpt>
      <trkpt lat="65.49326" lon="12.34627">
        <ele>44.732737</ele>
        <time>2020-08-13T09:35:32.868Z</time>
      </trkpt>
      <trkpt lat="65.49337" lon="12.34635">
        <ele>44.483799</ele>
        <time>2020-08-13T09:35:34.840Z</time>
      </trkpt>
      <trkpt lat="65.49348" lon="12.34642">
        <ele>44.238096</ele>
        <time>2020-08-13T09:35:36.850Z</time>
      </trkpt>
      <trkpt lat="65.49359" lon="12.34649">
        <ele>44.006346</ele>
        <time>2020-08-13T09:35:38.847Z</time>
      </trkpt>
      <trkpt lat="65.49369" lon="12.34656">
        <ele>43.783139</ele>
        <time>2020-08-13T09:35:40.851Z</time>
      </trkpt>
      <trkpt lat="65.49379" lon="12.34661">
        <ele>43.558715</ele>
        <time>2020-08-13T09:35:42.865Z</time>
      </trkpt>
      <trkpt lat="65.49389" lon="12.34667">
        <ele>43.341351</ele>
        <time>2020-08-13T09:35:44.854Z</time>
      </trkpt>
      <trkpt lat="65.49398" lon="12.34673">
        <ele>43.133754</ele>
        <time>2020-08-13T09:35:46.838Z</time>
      </trkpt>
      <trkpt lat="65.49408" lon="12.34678">
        <ele>42.930083</ele>
        <time>2020-08-13T09:35:48.885Z</time>
      </trkpt>
      <trkpt lat="65.49417" lon="12.34682">
        <ele>42.734959</ele>
        <time>2020-08-13T09:35:50.870Z</time>
      </trkpt>
      <trkpt lat="65.49429" lon="12.34689">
        <ele>42.452629</ele>
        <time>2020-08-13T09:35:53.885Z</time>
      </trkpt>
      <trkpt lat="65.49438" lon="12.34692">
        <ele>42.259973</ele>
        <time>2020-08-13T09:35:55.844Z</time>
      </trkpt>
      <trkpt lat="65.49451" lon="12.34697">
        <ele>41.995915</ele>
        <time>2020-08-13T09:35:58.845Z</time>
      </trkpt>
      <trkpt lat="65.49463" lon="12.34701">
        <ele>42.11271</ele>
        <time>2020-08-13T09:36:01.865Z</time>
      </trkpt>
      <trkpt lat="65.49473" lon="12.34706">
        <ele>42.331545</ele>
        <time>2020-08-13T09:36:04.837Z</time>
      </trkpt>
      <trkpt lat="65.49484" lon="12.3471">
        <ele>42.554903</ele>
        <time>2020-08-13T09:36:07.853Z</time>
      </trkpt>
      <trkpt lat="65.49495" lon="12.34714">
        <ele>42.771386</ele>
        <time>2020-08-13T09:36:10.844Z</time>
      </trkpt>
      <trkpt lat="65.49505" lon="12.34717">
        <ele>42.984328</ele>
        <time>2020-08-13T09:36:13.844Z</time>
      </trkpt>
      <trkpt lat="65.49515" lon="12.34722">
        <ele>43.188426</ele>
        <time>2020-08-13T09:36:16.841Z</time>
      </trkpt>
      <trkpt lat="65.49525" lon="12.34726">
        <ele>43.378401</ele>
        <time>2020-08-13T09:36:19.845Z</time>
      </trkpt>
      <trkpt lat="65.49535" lon="12.34729">
        <ele>43.578443</ele>
        <time>2020-08-13T09:36:22.853Z</time>
      </trkpt>
      <trkpt lat="65.49544" lon="12.34731">
        <ele>43.758763</ele>
        <time>2020-08-13T09:36:25.854Z</time>
      </trkpt>
      <trkpt lat="65.49554" lon="12.34735">
        <ele>43.975682</ele>
        <time>2020-08-13T09:36:29.850Z</time>
      </trkpt>
      <trkpt lat="65.49563" lon="12.34739">
        <ele>44.162954</ele>
        <time>2020-08-13T09:36:33.876Z</time>
      </trkpt>
      <trkpt lat="65.49573" lon="12.34742">
        <ele>44.355549</ele>
        <time>2020-08-13T09:36:37.861Z</time>
      </trkpt>
      <trkpt lat="65.49582" lon="12.34746">
        <ele>44.539148</ele>
        <time>2020-08-13T09:36:41.853Z</time>
      </trkpt>
      <trkpt lat="65.49593" lon="12.34751">
        <ele>44.758306</ele>
        <time>2020-08-13T09:36:45.871Z</time>
      </trkpt>
      <trkpt lat="65.49603" lon="12.34756">
        <ele>44.962555</ele>
        <time>2020-08-13T09:36:49.851Z</time>
      </trkpt>
      <trkpt lat="65.49612" lon="12.34761">
        <ele>45.153868</ele>
        <time>2020-08-13T09:36:53.863Z</time>
      </trkpt>
      <trkpt lat="65.49621" lon="12.34765">
        <ele>45.340383</ele>
        <time>2020-08-13T09:36:57.825Z</time>
      </trkpt>
      <trkpt lat="65.4963" lon="12.3477">
        <ele>45.525102</ele>
        <time>2020-08-13T09:37:01.872Z</time>
      </trkpt>
      <trkpt lat="65.4964" lon="12.34777">
        <ele>46.067307</ele>
        <time>2020-08-13T09:37:06.850Z</time>
      </trkpt>
      <trkpt lat="65.49649" lon="12.34784">
        <ele>46.542261</ele>
        <time>2020-08-13T09:37:10.878Z</time>
      </trkpt>
      <trkpt lat="65.49659" lon="12.3479">
        <ele>47.081281</ele>
        <time>2020-08-13T09:37:15.865Z</time>
      </trkpt>
      <trkpt lat="65.49669" lon="12.34797">
        <ele>47.630997</ele>
        <time>2020-08-13T09:37:20.851Z</time>
      </trkpt>
      <trkpt lat="65.49679" lon="12.34804">
        <ele>48.175076</ele>
        <time>2020-08-13T09:37:25.842Z</time>
      </trkpt>
      <trkpt lat="65.49689" lon="12.34809">
        <ele>48.718447</ele>
        <time>2020-08-13T09:37:30.844Z</time>
      </trkpt>
      <trkpt lat="65.497" lon="12.34815">
        <ele>49.284722</ele>
        <time>2020-08-13T09:37:35.848Z</time>
      </trkpt>
      <trkpt lat="65.49709" lon="12.34817">
        <ele>49.768616</ele>
        <time>2020-08-13T09:37:39.868Z</time>
      </trkpt>
      <trkpt lat="65.4972" lon="12.34814">
        <ele>50.342806</ele>
        <time>2020-08-13T09:37:44.846Z</time>
      </trkpt>
      <trkpt lat="65.49729" lon="12.34806">
        <ele>50.866648</ele>
        <time>2020-08-13T09:37:49.844Z</time>
      </trkpt>
      <trkpt lat="65.49738" lon="12.34791">
        <ele>51.436484</ele>
        <time>2020-08-13T09:37:54.857Z</time>
      </trkpt>
      <trkpt lat="65.49746" lon="12.34772">
        <ele>52.010525</ele>
        <time>2020-08-13T09:37:59.857Z</time>
      </trkpt>
      <trkpt lat="65.49751" lon="12.34751">
        <ele>52.555728</ele>
        <time>2020-08-13T09:38:04.854Z</time>
      </trkpt>
      <trkpt lat="65.49755" lon="12.34727">
        <ele>53.121426</ele>
        <time>2020-08-13T09:38:09.851Z</time>
      </trkpt>
      <trkpt lat="65.49756" lon="12.34704">
        <ele>53.611223</ele>
        <time>2020-08-13T09:38:13.847Z</time>
      </trkpt>
      <trkpt lat="65.49756" lon="12.34682">
        <ele>54.096561</ele>
        <time>2020-08-13T09:38:17.867Z</time>
      </trkpt>
      <trkpt lat="65.49755" lon="12.3466">
        <ele>54.567396</ele>
        <time>2020-08-13T09:38:21.857Z</time>
      </trkpt>
      <trkpt lat="65.49754" lon="12.34633">
        <ele>55.151786</ele>
        <time>2020-08-13T09:38:26.855Z</time>
      </trkpt>
      <trkpt lat="65.49752" lon="12.34612">
        <ele>55.618894</ele>
        <time>2020-08-13T09:38:30.860Z</time>
      </trkpt>
      <trkpt lat="65.49749" lon="12.34588">
        <ele>56.152483</ele>
        <time>2020-08-13T09:38:35.831Z</time>
      </trkpt>
      <trkpt lat="65.49745" lon="12.34563">
        <ele>56.713943</ele>
        <time>2020-08-13T09:38:40.853Z</time>
      </trkpt>
      <trkpt lat="65.49741" lon="12.34539">
        <ele>57.261609</ele>
        <time>2020-08-13T09:38:45.841Z</time>
      </trkpt>
      <trkpt lat="65.49737" lon="12.34519">
        <ele>57.732869</ele>
        <time>2020-08-13T09:38:49.880Z</time>
      </trkpt>
      <trkpt lat="65.49733" lon="12.34499">
        <ele>58.209614</ele>
        <time>2020-08-13T09:38:53.841Z</time>
      </trkpt>
      <trkpt lat="65.49729" lon="12.34475">
        <ele>58.768958</ele>
        <time>2020-08-13T09:38:58.840Z</time>
      </trkpt>
      <trkpt lat="65.49726" lon="12.34453">
        <ele>59.237234</ele>
        <time>2020-08-13T09:39:02.861Z</time>
      </trkpt>
      <trkpt lat="65.49725" lon="12.34431">
        <ele>59.723146</ele>
        <time>2020-08-13T09:39:06.846Z</time>
      </trkpt>
      <trkpt lat="65.49725" lon="12.34408">
        <ele>60.206119</ele>
        <time>2020-08-13T09:39:10.864Z</time>
      </trkpt>
      <trkpt lat="65.49727" lon="12.34386">
        <ele>60.689</ele>
        <time>2020-08-13T09:39:14.844Z</time>
      </trkpt>
      <trkpt lat="65.49732" lon="12.34366">
        <ele>61.17942</ele>
        <time>2020-08-13T09:39:18.845Z</time>
      </trkpt>
      <trkpt lat="65.49738" lon="12.34345">
        <ele>61.723641</ele>
        <time>2020-08-13T09:39:22.829Z</time>
      </trkpt>
      <trkpt lat="65.49745" lon="12.34327">
        <ele>62.249453</ele>
        <time>2020-08-13T09:39:26.837Z</time>
      </trkpt>
      <trkpt lat="65.49753" lon="12.34312">
        <ele>62.759247</ele>
        <time>2020-08-13T09:39:30.867Z</time>
      </trkpt>
      <trkpt lat="65.49762" lon="12.34294">
        <ele>63.358269</ele>
        <time>2020-08-13T09:39:34.859Z</time>
      </trkpt>
      <trkpt lat="65.49769" lon="12.34277">
        <ele>63.867873</ele>
        <time>2020-08-13T09:39:37.833Z</time>
      </trkpt>
      <trkpt lat="65.49777" lon="12.34258">
        <ele>64.021195</ele>
        <time>2020-08-13T09:39:40.850Z</time>
      </trkpt>
      <trkpt lat="65.49784" lon="12.34236">
        <ele>63.598474</ele>
        <time>2020-08-13T09:39:43.850Z</time>
      </trkpt>
      <trkpt lat="65.49793" lon="12.3421">
        <ele>63.111546</ele>
        <time>2020-08-13T09:39:46.840Z</time>
      </trkpt>
      <trkpt lat="65.49798" lon="12.3419">
        <ele>62.760281</ele>
        <time>2020-08-13T09:39:48.852Z</time>
      </trkpt>
      <trkpt lat="65.49803" lon="12.34168">
        <ele>62.387728</ele>
        <time>2020-08-13T09:39:50.858Z</time>
      </trkpt>
      <trkpt lat="65.49808" lon="12.34144">
        <ele>61.987206</ele>
        <time>2020-08-13T09:39:52.844Z</time>
      </trkpt>
      <trkpt lat="65.49812" lon="12.34119">
        <ele>61.574681</ele>
        <time>2020-08-13T09:39:54.842Z</time>
      </trkpt>
      <trkpt lat="65.49817" lon="12.34091">
        <ele>61.131838</ele>
        <time>2020-08-13T09:39:56.903Z</time>
      </trkpt>
      <trkpt lat="65.49822" lon="12.34063">
        <ele>60.675489</ele>
        <time>2020-08-13T09:39:58.846Z</time>
      </trkpt>
      <trkpt lat="65.49827" lon="12.34034">
        <ele>60.206753</ele>
        <time>2020-08-13T09:40:00.854Z</time>
      </trkpt>
      <trkpt lat="65.49832" lon="12.34004">
        <ele>59.727016</ele>
        <time>2020-08-13T09:40:02.868Z</time>
      </trkpt>
      <trkpt lat="65.49838" lon="12.33974">
        <ele>59.24173</ele>
        <time>2020-08-13T09:40:04.845Z</time>
      </trkpt>
      <trkpt lat="65.49843" lon="12.33945">
        <ele>58.768854</ele>
        <time>2020-08-13T09:40:06.864Z</time>
      </trkpt>
      <trkpt lat="65.49848" lon="12.33917">
        <ele>58.305432</ele>
        <time>2020-08-13T09:40:08.847Z</time>
      </trkpt>
      <trkpt lat="65.49853" lon="12.33889">
        <ele>57.850366</ele>
        <time>2020-08-13T09:40:10.847Z</time>
      </trkpt>
      <trkpt lat="65.49858" lon="12.33861">
        <ele>57.484227</ele>
        <time>2020-08-13T09:40:12.855Z</time>
      </trkpt>
      <trkpt lat="65.49863" lon="12.33833">
        <ele>57.149703</ele>
        <time>2020-08-13T09:40:14.857Z</time>
      </trkpt>
      <trkpt lat="65.49867" lon="12.33805">
        <ele>56.820127</ele>
        <time>2020-08-13T09:40:16.859Z</time>
      </trkpt>
      <trkpt lat="65.49872" lon="12.33778">
        <ele>56.492774</ele>
        <time>2020-08-13T09:40:18.855Z</time>
      </trkpt>
      <trkpt lat="65.49876" lon="12.33751">
        <ele>56.170593</ele>
        <time>2020-08-13T09:40:20.838Z</time>
      </trkpt>
      <trkpt lat="65.4988" lon="12.33726">
        <ele>55.870965</ele>
        <time>2020-08-13T09:40:22.850Z</time>
      </trkpt>
      <trkpt lat="65.49885" lon="12.33702">
        <ele>55.578568</ele>
        <time>2020-08-13T09:40:24.837Z</time>
      </trkpt>
      <trkpt lat="65.49889" lon="12.33679">
        <ele>55.299607</ele>
        <time>2020-08-13T09:40:26.835Z</time>
      </trkpt>
      <trkpt lat="65.49894" lon="12.33656">
        <ele>55.014182</ele>
        <time>2020-08-13T09:40:28.856Z</time>
      </trkpt>
      <trkpt lat="65.49899" lon="12.33635">
        <ele>54.730277</ele>
        <time>2020-08-13T09:40:30.844Z</time>
      </trkpt>
      <trkpt lat="65.49905" lon="12.33614">
        <ele>54.4554</ele>
        <time>2020-08-13T09:40:32.843Z</time>
      </trkpt>
      <trkpt lat="65.49911" lon="12.33594">
        <ele>54.177863</ele>
        <time>2020-08-13T09:40:34.835Z</time>
      </trkpt>
      <trkpt lat="65.49917" lon="12.33574">
        <ele>53.900662</ele>
        <time>2020-08-13T09:40:36.856Z</time>
      </trkpt>
      <trkpt lat="65.49923" lon="12.33556">
        <ele>53.634785</ele>
        <time>2020-08-13T09:40:38.861Z</time>
      </trkpt>
      <trkpt lat="65.4993" lon="12.33538">
        <ele>53.380906</ele>
        <time>2020-08-13T09:40:40.846Z</time>
      </trkpt>
      <trkpt lat="65.49936" lon="12.33521">
        <ele>53.12781</ele>
        <time>2020-08-13T09:40:42.829Z</time>
      </trkpt>
      <trkpt lat="65.49942" lon="12.33503">
        <ele>52.930636</ele>
        <time>2020-08-13T09:40:44.850Z</time>
      </trkpt>
      <trkpt lat="65.49948" lon="12.33484">
        <ele>53.072313</ele>
        <time>2020-08-13T09:40:46.853Z</time>
      </trkpt>
      <trkpt lat="65.49955" lon="12.33465">
        <ele>53.213519</ele>
        <time>2020-08-13T09:40:48.856Z</time>
      </trkpt>
      <trkpt lat="65.49961" lon="12.33447">
        <ele>53.355623</ele>
        <time>2020-08-13T09:40:50.855Z</time>
      </trkpt>
      <trkpt lat="65.49968" lon="12.33428">
        <ele>53.49638</ele>
        <time>2020-08-13T09:40:52.849Z</time>
      </trkpt>
      <trkpt lat="65.49974" lon="12.33411">
        <ele>53.630467</ele>
        <time>2020-08-13T09:40:54.836Z</time>
      </trkpt>
      <trkpt lat="65.4998" lon="12.33394">
        <ele>53.765991</ele>
        <time>2020-08-13T09:40:56.849Z</time>
      </trkpt>
      <trkpt lat="65.49987" lon="12.33376">
        <ele>53.899596</ele>
        <time>2020-08-13T09:40:58.861Z</time>
      </trkpt>
      <trkpt lat="65.49993" lon="12.33358">
        <ele>54.036359</ele>
        <time>2020-08-13T09:41:00.842Z</time>
      </trkpt>
      <trkpt lat="65.5" lon="12.33341">
        <ele>54.173614</ele>
        <time>2020-08-13T09:41:02.834Z</time>
      </trkpt>
      <trkpt lat="65.50006" lon="12.33323">
        <ele>54.308577</ele>
        <time>2020-08-13T09:41:04.878Z</time>
      </trkpt>
      <trkpt lat="65.50012" lon="12.33307">
        <ele>54.436877</ele>
        <time>2020-08-13T09:41:06.884Z</time>
      </trkpt>
      <trkpt lat="65.50018" lon="12.3329">
        <ele>54.566</ele>
        <time>2020-08-13T09:41:08.877Z</time>
      </trkpt>
      <trkpt lat="65.50024" lon="12.33272">
        <ele>54.703174</ele>
        <time>2020-08-13T09:41:10.848Z</time>
      </trkpt>
      <trkpt lat="65.50031" lon="12.33254">
        <ele>54.842176</ele>
        <time>2020-08-13T09:41:12.860Z</time>
      </trkpt>
      <trkpt lat="65.50036" lon="12.33236">
        <ele>54.975466</ele>
        <time>2020-08-13T09:41:14.832Z</time>
      </trkpt>
      <trkpt lat="65.50042" lon="12.33219">
        <ele>55.102326</ele>
        <time>2020-08-13T09:41:16.853Z</time>
      </trkpt>
      <trkpt lat="65.50048" lon="12.33202">
        <ele>55.231874</ele>
        <time>2020-08-13T09:41:18.863Z</time>
      </trkpt>
      <trkpt lat="65.50054" lon="12.33185">
        <ele>55.364595</ele>
        <time>2020-08-13T09:41:20.853Z</time>
      </trkpt>
      <trkpt lat="65.5006" lon="12.33168">
        <ele>55.546913</ele>
        <time>2020-08-13T09:41:22.873Z</time>
      </trkpt>
      <trkpt lat="65.50069" lon="12.33145">
        <ele>55.893004</ele>
        <time>2020-08-13T09:41:25.834Z</time>
      </trkpt>
      <trkpt lat="65.50077" lon="12.33122">
        <ele>56.221802</ele>
        <time>2020-08-13T09:41:28.878Z</time>
      </trkpt>
      <trkpt lat="65.50084" lon="12.33102">
        <ele>56.518755</ele>
        <time>2020-08-13T09:41:31.839Z</time>
      </trkpt>
      <trkpt lat="65.5009" lon="12.33083">
        <ele>56.791662</ele>
        <time>2020-08-13T09:41:34.837Z</time>
      </trkpt>
      <trkpt lat="65.50096" lon="12.33064">
        <ele>57.053525</ele>
        <time>2020-08-13T09:41:37.872Z</time>
      </trkpt>
      <trkpt lat="65.50102" lon="12.33045">
        <ele>57.336726</ele>
        <time>2020-08-13T09:41:40.860Z</time>
      </trkpt>
      <trkpt lat="65.50109" lon="12.33025">
        <ele>57.62508</ele>
        <time>2020-08-13T09:41:43.854Z</time>
      </trkpt>
      <trkpt lat="65.50118" lon="12.33003">
        <ele>57.956443</ele>
        <time>2020-08-13T09:41:46.887Z</time>
      </trkpt>
      <trkpt lat="65.50126" lon="12.32982">
        <ele>58.283755</ele>
        <time>2020-08-13T09:41:49.860Z</time>
      </trkpt>
      <trkpt lat="65.50133" lon="12.32961">
        <ele>58.591032</ele>
        <time>2020-08-13T09:41:52.844Z</time>
      </trkpt>
      <trkpt lat="65.5014" lon="12.3294">
        <ele>58.880655</ele>
        <time>2020-08-13T09:41:55.871Z</time>
      </trkpt>
      <trkpt lat="65.50145" lon="12.3292">
        <ele>59.150183</ele>
        <time>2020-08-13T09:41:58.842Z</time>
      </trkpt>
      <trkpt lat="65.50151" lon="12.329">
        <ele>59.419869</ele>
        <time>2020-08-13T09:42:01.866Z</time>
      </trkpt>
      <trkpt lat="65.50155" lon="12.32877">
        <ele>59.69905</ele>
        <time>2020-08-13T09:42:04.864Z</time>
      </trkpt>
      <trkpt lat="65.50159" lon="12.32852">
        <ele>60.000869</ele>
        <time>2020-08-13T09:42:07.840Z</time>
      </trkpt>
      <trkpt lat="65.50163" lon="12.32826">
        <ele>60.274346</ele>
        <time>2020-08-13T09:42:10.839Z</time>
      </trkpt>
      <trkpt lat="65.50167" lon="12.328">
        <ele>60.149076</ele>
        <time>2020-08-13T09:42:13.837Z</time>
      </trkpt>
      <trkpt lat="65.5017" lon="12.32775">
        <ele>60.026433</ele>
        <time>2020-08-13T09:42:16.855Z</time>
      </trkpt>
      <trkpt lat="65.50173" lon="12.32747">
        <ele>59.896221</ele>
        <time>2020-08-13T09:42:19.847Z</time>
      </trkpt>
      <trkpt lat="65.50175" lon="12.3272">
        <ele>59.770652</ele>
        <time>2020-08-13T09:42:22.846Z</time>
      </trkpt>
      <trkpt lat="65.50177" lon="12.32693">
        <ele>59.644359</ele>
        <time>2020-08-13T09:42:25.841Z</time>
      </trkpt>
      <trkpt lat="65.50179" lon="12.32666">
        <ele>59.517242</ele>
        <time>2020-08-13T09:42:28.829Z</time>
      </trkpt>
      <trkpt lat="65.5018" lon="12.32639">
        <ele>59.390831</ele>
        <time>2020-08-13T09:42:31.852Z</time>
      </trkpt>
      <trkpt lat="65.5018" lon="12.32609">
        <ele>59.251095</ele>
        <time>2020-08-13T09:42:34.872Z</time>
      </trkpt>
      <trkpt lat="65.50181" lon="12.32585">
        <ele>59.143801</ele>
        <time>2020-08-13T09:42:36.842Z</time>
      </trkpt>
      <trkpt lat="65.50183" lon="12.3256">
        <ele>59.024992</ele>
        <time>2020-08-13T09:42:38.880Z</time>
      </trkpt>
      <trkpt lat="65.50185" lon="12.32533">
        <ele>58.897707</ele>
        <time>2020-08-13T09:42:40.841Z</time>
      </trkpt>
      <trkpt lat="65.50187" lon="12.32504">
        <ele>58.761884</ele>
        <time>2020-08-13T09:42:42.860Z</time>
      </trkpt>
      <trkpt lat="65.5019" lon="12.32473">
        <ele>58.618726</ele>
        <time>2020-08-13T09:42:44.840Z</time>
      </trkpt>
      <trkpt lat="65.50193" lon="12.32442">
        <ele>58.470462</ele>
        <time>2020-08-13T09:42:46.846Z</time>
      </trkpt>
      <trkpt lat="65.50198" lon="12.32412">
        <ele>58.321558</ele>
        <time>2020-08-13T09:42:48.841Z</time>
      </trkpt>
      <trkpt lat="65.50206" lon="12.32384">
        <ele>57.996587</ele>
        <time>2020-08-13T09:42:50.858Z</time>
      </trkpt>
      <trkpt lat="65.50214" lon="12.32353">
        <ele>57.595403</ele>
        <time>2020-08-13T09:42:52.841Z</time>
      </trkpt>
      <trkpt lat="65.50223" lon="12.32324">
        <ele>57.195462</ele>
        <time>2020-08-13T09:42:54.855Z</time>
      </trkpt>
      <trkpt lat="65.5023" lon="12.32296">
        <ele>56.832433</ele>
        <time>2020-08-13T09:42:56.879Z</time>
      </trkpt>
      <trkpt lat="65.50238" lon="12.3227">
        <ele>56.477346</ele>
        <time>2020-08-13T09:42:58.839Z</time>
      </trkpt>
      <trkpt lat="65.50246" lon="12.32246">
        <ele>56.140935</ele>
        <time>2020-08-13T09:43:00.871Z</time>
      </trkpt>
      <trkpt lat="65.50253" lon="12.32223">
        <ele>55.827419</ele>
        <time>2020-08-13T09:43:02.843Z</time>
      </trkpt>
      <trkpt lat="65.50259" lon="12.32202">
        <ele>55.529851</ele>
        <time>2020-08-13T09:43:04.840Z</time>
      </trkpt>
      <trkpt lat="65.50265" lon="12.3218">
        <ele>55.244775</ele>
        <time>2020-08-13T09:43:06.846Z</time>
      </trkpt>
      <trkpt lat="65.50271" lon="12.3216">
        <ele>54.966675</ele>
        <time>2020-08-13T09:43:08.837Z</time>
      </trkpt>
      <trkpt lat="65.50277" lon="12.3214">
        <ele>54.699472</ele>
        <time>2020-08-13T09:43:10.840Z</time>
      </trkpt>
      <trkpt lat="65.50282" lon="12.3212">
        <ele>54.443119</ele>
        <time>2020-08-13T09:43:12.925Z</time>
      </trkpt>
      <trkpt lat="65.50287" lon="12.32101">
        <ele>54.19759</ele>
        <time>2020-08-13T09:43:14.859Z</time>
      </trkpt>
      <trkpt lat="65.50294" lon="12.32076">
        <ele>53.858883</ele>
        <time>2020-08-13T09:43:17.855Z</time>
      </trkpt>
      <trkpt lat="65.503" lon="12.32053">
        <ele>53.554092</ele>
        <time>2020-08-13T09:43:20.839Z</time>
      </trkpt>
      <trkpt lat="65.50308" lon="12.32029">
        <ele>53.462006</ele>
        <time>2020-08-13T09:43:23.851Z</time>
      </trkpt>
      <trkpt lat="65.50313" lon="12.32012">
        <ele>53.435852</ele>
        <time>2020-08-13T09:43:25.839Z</time>
      </trkpt>
      <trkpt lat="65.50319" lon="12.31995">
        <ele>53.409697</ele>
        <time>2020-08-13T09:43:27.846Z</time>
      </trkpt>
      <trkpt lat="65.50324" lon="12.31977">
        <ele>53.383078</ele>
        <time>2020-08-13T09:43:29.854Z</time>
      </trkpt>
      <trkpt lat="65.50329" lon="12.31959">
        <ele>53.356341</ele>
        <time>2020-08-13T09:43:31.836Z</time>
      </trkpt>
      <trkpt lat="65.50337" lon="12.31933">
        <ele>53.317225</ele>
        <time>2020-08-13T09:43:34.833Z</time>
      </trkpt>
      <trkpt lat="65.50342" lon="12.31914">
        <ele>53.290529</ele>
        <time>2020-08-13T09:43:36.849Z</time>
      </trkpt>
      <trkpt lat="65.50348" lon="12.31897">
        <ele>53.263963</ele>
        <time>2020-08-13T09:43:38.843Z</time>
      </trkpt>
      <trkpt lat="65.50353" lon="12.31879">
        <ele>53.237518</ele>
        <time>2020-08-13T09:43:40.860Z</time>
      </trkpt>
      <trkpt lat="65.50358" lon="12.31861">
        <ele>53.210879</ele>
        <time>2020-08-13T09:43:42.838Z</time>
      </trkpt>
      <trkpt lat="65.50364" lon="12.31843">
        <ele>53.184067</ele>
        <time>2020-08-13T09:43:44.840Z</time>
      </trkpt>
      <trkpt lat="65.50369" lon="12.31825">
        <ele>53.156401</ele>
        <time>2020-08-13T09:43:46.861Z</time>
      </trkpt>
      <trkpt lat="65.50375" lon="12.31805">
        <ele>53.127683</ele>
        <time>2020-08-13T09:43:48.861Z</time>
      </trkpt>
      <trkpt lat="65.50381" lon="12.31786">
        <ele>53.098796</ele>
        <time>2020-08-13T09:43:50.853Z</time>
      </trkpt>
      <trkpt lat="65.50386" lon="12.31767">
        <ele>53.071097</ele>
        <time>2020-08-13T09:43:52.838Z</time>
      </trkpt>
      <trkpt lat="65.50392" lon="12.31748">
        <ele>53.043603</ele>
        <time>2020-08-13T09:43:54.873Z</time>
      </trkpt>
      <trkpt lat="65.50397" lon="12.3173">
        <ele>53.016508</ele>
        <time>2020-08-13T09:43:56.839Z</time>
      </trkpt>
      <trkpt lat="65.50402" lon="12.31711">
        <ele>52.989213</ele>
        <time>2020-08-13T09:43:58.857Z</time>
      </trkpt>
      <trkpt lat="65.50409" lon="12.31685">
        <ele>53.026527</ele>
        <time>2020-08-13T09:44:01.853Z</time>
      </trkpt>
      <trkpt lat="65.50417" lon="12.3166">
        <ele>53.162049</ele>
        <time>2020-08-13T09:44:04.902Z</time>
      </trkpt>
      <trkpt lat="65.50423" lon="12.31638">
        <ele>53.282233</ele>
        <time>2020-08-13T09:44:07.852Z</time>
      </trkpt>
      <trkpt lat="65.5043" lon="12.31613">
        <ele>53.416524</ele>
        <time>2020-08-13T09:44:10.849Z</time>
      </trkpt>
      <trkpt lat="65.50437" lon="12.31587">
        <ele>53.558812</ele>
        <time>2020-08-13T09:44:13.844Z</time>
      </trkpt>
      <trkpt lat="65.50443" lon="12.31569">
        <ele>53.658516</ele>
        <time>2020-08-13T09:44:15.842Z</time>
      </trkpt>
      <trkpt lat="65.50448" lon="12.31552">
        <ele>53.757856</ele>
        <time>2020-08-13T09:44:17.904Z</time>
      </trkpt>
      <trkpt lat="65.50453" lon="12.31534">
        <ele>53.856193</ele>
        <time>2020-08-13T09:44:19.871Z</time>
      </trkpt>
      <trkpt lat="65.50461" lon="12.31508">
        <ele>53.998555</ele>
        <time>2020-08-13T09:44:22.841Z</time>
      </trkpt>
      <trkpt lat="65.50469" lon="12.31483">
        <ele>54.141926</ele>
        <time>2020-08-13T09:44:25.841Z</time>
      </trkpt>
      <trkpt lat="65.50474" lon="12.31465">
        <ele>54.241265</ele>
        <time>2020-08-13T09:44:27.830Z</time>
      </trkpt>
      <trkpt lat="65.5048" lon="12.31447">
        <ele>54.341698</ele>
        <time>2020-08-13T09:44:29.845Z</time>
      </trkpt>
      <trkpt lat="65.50485" lon="12.31429">
        <ele>54.444865</ele>
        <time>2020-08-13T09:44:31.854Z</time>
      </trkpt>
      <trkpt lat="65.50491" lon="12.31409">
        <ele>54.550225</ele>
        <time>2020-08-13T09:44:33.871Z</time>
      </trkpt>
      <trkpt lat="65.50497" lon="12.3139">
        <ele>54.657316</ele>
        <time>2020-08-13T09:44:35.847Z</time>
      </trkpt>
      <trkpt lat="65.50502" lon="12.31372">
        <ele>54.759216</ele>
        <time>2020-08-13T09:44:37.887Z</time>
      </trkpt>
      <trkpt lat="65.50507" lon="12.31354">
        <ele>54.857288</ele>
        <time>2020-08-13T09:44:39.861Z</time>
      </trkpt>
      <trkpt lat="65.50513" lon="12.31335">
        <ele>54.862688</ele>
        <time>2020-08-13T09:44:41.830Z</time>
      </trkpt>
      <trkpt lat="65.50518" lon="12.31316">
        <ele>54.700602</ele>
        <time>2020-08-13T09:44:43.848Z</time>
      </trkpt>
      <trkpt lat="65.50524" lon="12.31296">
        <ele>54.530611</ele>
        <time>2020-08-13T09:44:45.849Z</time>
      </trkpt>
      <trkpt lat="65.5053" lon="12.31273">
        <ele>54.348455</ele>
        <time>2020-08-13T09:44:47.851Z</time>
      </trkpt>
      <trkpt lat="65.50535" lon="12.31248">
        <ele>54.156794</ele>
        <time>2020-08-13T09:44:49.876Z</time>
      </trkpt>
      <trkpt lat="65.5054" lon="12.31223">
        <ele>53.963181</ele>
        <time>2020-08-13T09:44:51.854Z</time>
      </trkpt>
      <trkpt lat="65.50544" lon="12.31195">
        <ele>53.763375</ele>
        <time>2020-08-13T09:44:53.846Z</time>
      </trkpt>
      <trkpt lat="65.50548" lon="12.31167">
        <ele>53.561988</ele>
        <time>2020-08-13T09:44:55.852Z</time>
      </trkpt>
      <trkpt lat="65.5055" lon="12.31137">
        <ele>53.351284</ele>
        <time>2020-08-13T09:44:57.857Z</time>
      </trkpt>
      <trkpt lat="65.50552" lon="12.31107">
        <ele>53.140509</ele>
        <time>2020-08-13T09:44:59.844Z</time>
      </trkpt>
      <trkpt lat="65.50553" lon="12.31076">
        <ele>52.930635</ele>
        <time>2020-08-13T09:45:01.854Z</time>
      </trkpt>
      <trkpt lat="65.50554" lon="12.31045">
        <ele>52.716326</ele>
        <time>2020-08-13T09:45:03.858Z</time>
      </trkpt>
      <trkpt lat="65.50554" lon="12.31013">
        <ele>52.498644</ele>
        <time>2020-08-13T09:45:05.898Z</time>
      </trkpt>
      <trkpt lat="65.50554" lon="12.30983">
        <ele>52.287921</ele>
        <time>2020-08-13T09:45:07.854Z</time>
      </trkpt>
      <trkpt lat="65.50554" lon="12.3095">
        <ele>52.06401</ele>
        <time>2020-08-13T09:45:09.869Z</time>
      </trkpt>
      <trkpt lat="65.50553" lon="12.30916">
        <ele>51.793394</ele>
        <time>2020-08-13T09:45:11.846Z</time>
      </trkpt>
      <trkpt lat="65.50553" lon="12.30881">
        <ele>51.484329</ele>
        <time>2020-08-13T09:45:13.861Z</time>
      </trkpt>
      <trkpt lat="65.50552" lon="12.30846">
        <ele>51.17135</ele>
        <time>2020-08-13T09:45:15.867Z</time>
      </trkpt>
      <trkpt lat="65.50551" lon="12.30812">
        <ele>50.865777</ele>
        <time>2020-08-13T09:45:17.874Z</time>
      </trkpt>
      <trkpt lat="65.50551" lon="12.30778">
        <ele>50.565666</ele>
        <time>2020-08-13T09:45:19.838Z</time>
      </trkpt>
      <trkpt lat="65.50551" lon="12.30745">
        <ele>50.273439</ele>
        <time>2020-08-13T09:45:21.878Z</time>
      </trkpt>
      <trkpt lat="65.5055" lon="12.30715">
        <ele>50.003531</ele>
        <time>2020-08-13T09:45:23.886Z</time>
      </trkpt>
      <trkpt lat="65.5055" lon="12.30686">
        <ele>49.750348</ele>
        <time>2020-08-13T09:45:25.850Z</time>
      </trkpt>
      <trkpt lat="65.50549" lon="12.30659">
        <ele>49.508025</ele>
        <time>2020-08-13T09:45:27.837Z</time>
      </trkpt>
      <trkpt lat="65.50549" lon="12.30634">
        <ele>49.280009</ele>
        <time>2020-08-13T09:45:29.858Z</time>
      </trkpt>
      <trkpt lat="65.50548" lon="12.30609">
        <ele>49.05637</ele>
        <time>2020-08-13T09:45:31.874Z</time>
      </trkpt>
      <trkpt lat="65.50548" lon="12.30583">
        <ele>48.827514</ele>
        <time>2020-08-13T09:45:33.838Z</time>
      </trkpt>
      <trkpt lat="65.50548" lon="12.30558">
        <ele>48.608491</ele>
        <time>2020-08-13T09:45:35.879Z</time>
      </trkpt>
      <trkpt lat="65.50548" lon="12.30535">
        <ele>48.397209</ele>
        <time>2020-08-13T09:45:37.852Z</time>
      </trkpt>
      <trkpt lat="65.50548" lon="12.30512">
        <ele>48.199543</ele>
        <time>2020-08-13T09:45:39.883Z</time>
      </trkpt>
      <trkpt lat="65.50547" lon="12.3048">
        <ele>47.958912</ele>
        <time>2020-08-13T09:45:42.842Z</time>
      </trkpt>
      <trkpt lat="65.50546" lon="12.30452">
        <ele>47.774181</ele>
        <time>2020-08-13T09:45:45.861Z</time>
      </trkpt>
      <trkpt lat="65.50546" lon="12.30424">
        <ele>47.59883</ele>
        <time>2020-08-13T09:45:48.840Z</time>
      </trkpt>
      <trkpt lat="65.50545" lon="12.30396">
        <ele>47.412911</ele>
        <time>2020-08-13T09:45:51.878Z</time>
      </trkpt>
      <trkpt lat="65.50545" lon="12.30363">
        <ele>47.206038</ele>
        <time>2020-08-13T09:45:54.853Z</time>
      </trkpt>
      <trkpt lat="65.50545" lon="12.30339">
        <ele>47.049804</ele>
        <time>2020-08-13T09:45:56.850Z</time>
      </trkpt>
      <trkpt lat="65.50544" lon="12.30313">
        <ele>46.879454</ele>
        <time>2020-08-13T09:45:58.877Z</time>
      </trkpt>
      <trkpt lat="65.50542" lon="12.30284">
        <ele>46.689361</ele>
        <time>2020-08-13T09:46:00.853Z</time>
      </trkpt>
      <trkpt lat="65.50539" lon="12.30251">
        <ele>46.473464</ele>
        <time>2020-08-13T09:46:02.847Z</time>
      </trkpt>
      <trkpt lat="65.50534" lon="12.30217">
        <ele>46.243151</ele>
        <time>2020-08-13T09:46:04.862Z</time>
      </trkpt>
      <trkpt lat="65.50528" lon="12.30182">
        <ele>45.999054</ele>
        <time>2020-08-13T09:46:06.838Z</time>
      </trkpt>
      <trkpt lat="65.5052" lon="12.30147">
        <ele>45.744847</ele>
        <time>2020-08-13T09:46:08.873Z</time>
      </trkpt>
      <trkpt lat="65.50512" lon="12.30113">
        <ele>45.482962</ele>
        <time>2020-08-13T09:46:10.853Z</time>
      </trkpt>
      <trkpt lat="65.50502" lon="12.30077">
        <ele>45.174332</ele>
        <time>2020-08-13T09:46:12.844Z</time>
      </trkpt>
      <trkpt lat="65.50493" lon="12.30041">
        <ele>44.788258</ele>
        <time>2020-08-13T09:46:14.830Z</time>
      </trkpt>
      <trkpt lat="65.50484" lon="12.30007">
        <ele>44.415937</ele>
        <time>2020-08-13T09:46:16.857Z</time>
      </trkpt>
      <trkpt lat="65.50476" lon="12.29975">
        <ele>44.067193</ele>
        <time>2020-08-13T09:46:18.848Z</time>
      </trkpt>
      <trkpt lat="65.50468" lon="12.29947">
        <ele>43.7533</ele>
        <time>2020-08-13T09:46:20.845Z</time>
      </trkpt>
      <trkpt lat="65.50461" lon="12.29921">
        <ele>43.468646</ele>
        <time>2020-08-13T09:46:22.846Z</time>
      </trkpt>
      <trkpt lat="65.50455" lon="12.29899">
        <ele>43.22404</ele>
        <time>2020-08-13T09:46:24.850Z</time>
      </trkpt>
      <trkpt lat="65.5045" lon="12.29879">
        <ele>42.996384</ele>
        <time>2020-08-13T09:46:26.841Z</time>
      </trkpt>
      <trkpt lat="65.50444" lon="12.29857">
        <ele>42.762843</ele>
        <time>2020-08-13T09:46:28.863Z</time>
      </trkpt>
      <trkpt lat="65.50438" lon="12.29835">
        <ele>42.521435</ele>
        <time>2020-08-13T09:46:30.882Z</time>
      </trkpt>
      <trkpt lat="65.50432" lon="12.29814">
        <ele>42.28669</ele>
        <time>2020-08-13T09:46:32.841Z</time>
      </trkpt>
      <trkpt lat="65.50427" lon="12.29794">
        <ele>42.070443</ele>
        <time>2020-08-13T09:46:34.889Z</time>
      </trkpt>
      <trkpt lat="65.50422" lon="12.29775">
        <ele>41.858862</ele>
        <time>2020-08-13T09:46:36.841Z</time>
      </trkpt>
      <trkpt lat="65.50417" lon="12.29756">
        <ele>41.650804</ele>
        <time>2020-08-13T09:46:38.841Z</time>
      </trkpt>
      <trkpt lat="65.50413" lon="12.29735">
        <ele>41.436016</ele>
        <time>2020-08-13T09:46:40.838Z</time>
      </trkpt>
      <trkpt lat="65.50408" lon="12.29715">
        <ele>41.307008</ele>
        <time>2020-08-13T09:46:42.874Z</time>
      </trkpt>
      <trkpt lat="65.50403" lon="12.29696">
        <ele>41.481357</ele>
        <time>2020-08-13T09:46:44.843Z</time>
      </trkpt>
      <trkpt lat="65.50398" lon="12.29678">
        <ele>41.648121</ele>
        <time>2020-08-13T09:46:46.840Z</time>
      </trkpt>
      <trkpt lat="65.50391" lon="12.29651">
        <ele>41.887031</ele>
        <time>2020-08-13T09:46:49.844Z</time>
      </trkpt>
      <trkpt lat="65.50386" lon="12.29633">
        <ele>42.052245</ele>
        <time>2020-08-13T09:46:51.845Z</time>
      </trkpt>
      <trkpt lat="65.5038" lon="12.29616">
        <ele>42.222009</ele>
        <time>2020-08-13T09:46:53.837Z</time>
      </trkpt>
      <trkpt lat="65.50374" lon="12.29598">
        <ele>42.395218</ele>
        <time>2020-08-13T09:46:55.850Z</time>
      </trkpt>
      <trkpt lat="65.50368" lon="12.29581">
        <ele>42.569204</ele>
        <time>2020-08-13T09:46:57.878Z</time>
      </trkpt>
      <trkpt lat="65.50361" lon="12.29566">
        <ele>42.735721</ele>
        <time>2020-08-13T09:46:59.865Z</time>
      </trkpt>
      <trkpt lat="65.50354" lon="12.29551">
        <ele>42.904359</ele>
        <time>2020-08-13T09:47:01.847Z</time>
      </trkpt>
      <trkpt lat="65.50348" lon="12.29536">
        <ele>43.069581</ele>
        <time>2020-08-13T09:47:03.861Z</time>
      </trkpt>
      <trkpt lat="65.50339" lon="12.29514">
        <ele>43.304973</ele>
        <time>2020-08-13T09:47:06.850Z</time>
      </trkpt>
      <trkpt lat="65.50329" lon="12.29494">
        <ele>43.538173</ele>
        <time>2020-08-13T09:47:09.858Z</time>
      </trkpt>
      <trkpt lat="65.50319" lon="12.29473">
        <ele>43.781171</ele>
        <time>2020-08-13T09:47:12.846Z</time>
      </trkpt>
      <trkpt lat="65.5031" lon="12.29452">
        <ele>44.020536</ele>
        <time>2020-08-13T09:47:15.864Z</time>
      </trkpt>
      <trkpt lat="65.50301" lon="12.2943">
        <ele>44.250944</ele>
        <time>2020-08-13T09:47:18.840Z</time>
      </trkpt>
      <trkpt lat="65.50292" lon="12.29407">
        <ele>44.481585</ele>
        <time>2020-08-13T09:47:21.834Z</time>
      </trkpt>
      <trkpt lat="65.50285" lon="12.29383">
        <ele>44.692231</ele>
        <time>2020-08-13T09:47:24.867Z</time>
      </trkpt>
      <trkpt lat="65.50278" lon="12.29358">
        <ele>44.888397</ele>
        <time>2020-08-13T09:47:27.865Z</time>
      </trkpt>
      <trkpt lat="65.50272" lon="12.29333">
        <ele>45.076538</ele>
        <time>2020-08-13T09:47:30.863Z</time>
      </trkpt>
      <trkpt lat="65.50267" lon="12.29309">
        <ele>45.255348</ele>
        <time>2020-08-13T09:47:33.859Z</time>
      </trkpt>
      <trkpt lat="65.50261" lon="12.29288">
        <ele>45.421645</ele>
        <time>2020-08-13T09:47:36.845Z</time>
      </trkpt>
      <trkpt lat="65.50254" lon="12.29268">
        <ele>45.583436</ele>
        <time>2020-08-13T09:47:39.886Z</time>
      </trkpt>
      <trkpt lat="65.50247" lon="12.2925">
        <ele>45.751409</ele>
        <time>2020-08-13T09:47:42.842Z</time>
      </trkpt>
      <trkpt lat="65.50239" lon="12.29232">
        <ele>45.925343</ele>
        <time>2020-08-13T09:47:45.865Z</time>
      </trkpt>
      <trkpt lat="65.5023" lon="12.29216">
        <ele>46.101484</ele>
        <time>2020-08-13T09:47:48.849Z</time>
      </trkpt>
      <trkpt lat="65.50218" lon="12.29203">
        <ele>46.299854</ele>
        <time>2020-08-13T09:47:51.849Z</time>
      </trkpt>
      <trkpt lat="65.50206" lon="12.29191">
        <ele>46.503405</ele>
        <time>2020-08-13T09:47:54.893Z</time>
      </trkpt>
      <trkpt lat="65.50194" lon="12.29181">
        <ele>46.701656</ele>
        <time>2020-08-13T09:47:57.854Z</time>
      </trkpt>
      <trkpt lat="65.50182" lon="12.29171">
        <ele>46.901173</ele>
        <time>2020-08-13T09:48:00.880Z</time>
      </trkpt>
      <trkpt lat="65.5017" lon="12.29161">
        <ele>47.109118</ele>
        <time>2020-08-13T09:48:03.867Z</time>
      </trkpt>
      <trkpt lat="65.50161" lon="12.29153">
        <ele>47.25067</ele>
        <time>2020-08-13T09:48:05.852Z</time>
      </trkpt>
      <trkpt lat="65.50153" lon="12.29145">
        <ele>47.398055</ele>
        <time>2020-08-13T09:48:07.836Z</time>
      </trkpt>
      <trkpt lat="65.50144" lon="12.29135">
        <ele>47.658899</ele>
        <time>2020-08-13T09:48:09.883Z</time>
      </trkpt>
      <trkpt lat="65.50136" lon="12.29125">
        <ele>47.924747</ele>
        <time>2020-08-13T09:48:11.878Z</time>
      </trkpt>
      <trkpt lat="65.50127" lon="12.29113">
        <ele>48.189771</ele>
        <time>2020-08-13T09:48:13.854Z</time>
      </trkpt>
      <trkpt lat="65.50116" lon="12.29095">
        <ele>48.556827</ele>
        <time>2020-08-13T09:48:16.845Z</time>
      </trkpt>
      <trkpt lat="65.50107" lon="12.29079">
        <ele>48.8783</ele>
        <time>2020-08-13T09:48:19.853Z</time>
      </trkpt>
      <trkpt lat="65.50097" lon="12.29063">
        <ele>49.198799</ele>
        <time>2020-08-13T09:48:22.846Z</time>
      </trkpt>
      <trkpt lat="65.50089" lon="12.29047">
        <ele>49.496588</ele>
        <time>2020-08-13T09:48:25.889Z</time>
      </trkpt>
      <trkpt lat="65.50081" lon="12.29031">
        <ele>49.781016</ele>
        <time>2020-08-13T09:48:28.844Z</time>
      </trkpt>
      <trkpt lat="65.50074" lon="12.29014">
        <ele>50.057241</ele>
        <time>2020-08-13T09:48:31.867Z</time>
      </trkpt>
      <trkpt lat="65.50066" lon="12.28999">
        <ele>50.33921</ele>
        <time>2020-08-13T09:48:34.841Z</time>
      </trkpt>
      <trkpt lat="65.50058" lon="12.28984">
        <ele>50.624784</ele>
        <time>2020-08-13T09:48:37.859Z</time>
      </trkpt>
      <trkpt lat="65.5005" lon="12.28969">
        <ele>50.896689</ele>
        <time>2020-08-13T09:48:40.853Z</time>
      </trkpt>
      <trkpt lat="65.50043" lon="12.28951">
        <ele>51.18006</ele>
        <time>2020-08-13T09:48:43.840Z</time>
      </trkpt>
      <trkpt lat="65.50035" lon="12.28933">
        <ele>51.48658</ele>
        <time>2020-08-13T09:48:46.860Z</time>
      </trkpt>
      <trkpt lat="65.50027" lon="12.28915">
        <ele>51.779105</ele>
        <time>2020-08-13T09:48:49.843Z</time>
      </trkpt>
      <trkpt lat="65.5002" lon="12.28899">
        <ele>52.061467</ele>
        <time>2020-08-13T09:48:52.865Z</time>
      </trkpt>
      <trkpt lat="65.50011" lon="12.28883">
        <ele>52.370586</ele>
        <time>2020-08-13T09:48:55.839Z</time>
      </trkpt>
      <trkpt lat="65.50001" lon="12.28867">
        <ele>52.35792</ele>
        <time>2020-08-13T09:48:58.867Z</time>
      </trkpt>
      <trkpt lat="65.49992" lon="12.28849">
        <ele>52.341569</ele>
        <time>2020-08-13T09:49:01.837Z</time>
      </trkpt>
      <trkpt lat="65.49983" lon="12.28832">
        <ele>52.324746</ele>
        <time>2020-08-13T09:49:04.864Z</time>
      </trkpt>
      <trkpt lat="65.49972" lon="12.28814">
        <ele>52.30741</ele>
        <time>2020-08-13T09:49:07.857Z</time>
      </trkpt>
      <trkpt lat="65.49962" lon="12.28797">
        <ele>52.289123</ele>
        <time>2020-08-13T09:49:10.845Z</time>
      </trkpt>
      <trkpt lat="65.49954" lon="12.28783">
        <ele>52.275777</ele>
        <time>2020-08-13T09:49:12.841Z</time>
      </trkpt>
      <trkpt lat="65.49946" lon="12.28767">
        <ele>52.261128</ele>
        <time>2020-08-13T09:49:14.876Z</time>
      </trkpt>
      <trkpt lat="65.49937" lon="12.2875">
        <ele>52.245094</ele>
        <time>2020-08-13T09:49:16.877Z</time>
      </trkpt>
      <trkpt lat="65.49927" lon="12.28732">
        <ele>52.228447</ele>
        <time>2020-08-13T09:49:18.843Z</time>
      </trkpt>
      <trkpt lat="65.49918" lon="12.28713">
        <ele>52.211113</ele>
        <time>2020-08-13T09:49:20.841Z</time>
      </trkpt>
      <trkpt lat="65.49906" lon="12.28693">
        <ele>52.191216</ele>
        <time>2020-08-13T09:49:22.861Z</time>
      </trkpt>
      <trkpt lat="65.49893" lon="12.28673">
        <ele>52.169071</ele>
        <time>2020-08-13T09:49:24.875Z</time>
      </trkpt>
      <trkpt lat="65.49882" lon="12.28653">
        <ele>52.149666</ele>
        <time>2020-08-13T09:49:26.850Z</time>
      </trkpt>
      <trkpt lat="65.49871" lon="12.28633">
        <ele>52.130955</ele>
        <time>2020-08-13T09:49:28.833Z</time>
      </trkpt>
      <trkpt lat="65.49861" lon="12.28613">
        <ele>52.212446</ele>
        <time>2020-08-13T09:49:30.865Z</time>
      </trkpt>
      <trkpt lat="65.49851" lon="12.28594">
        <ele>52.365216</ele>
        <time>2020-08-13T09:49:32.856Z</time>
      </trkpt>
      <trkpt lat="65.49843" lon="12.28576">
        <ele>52.505465</ele>
        <time>2020-08-13T09:49:34.847Z</time>
      </trkpt>
      <trkpt lat="65.49835" lon="12.28558">
        <ele>52.637495</ele>
        <time>2020-08-13T09:49:36.846Z</time>
      </trkpt>
      <trkpt lat="65.49829" lon="12.28541">
        <ele>52.755666</ele>
        <time>2020-08-13T09:49:38.858Z</time>
      </trkpt>
      <trkpt lat="65.49822" lon="12.28526">
        <ele>52.867926</ele>
        <time>2020-08-13T09:49:40.861Z</time>
      </trkpt>
      <trkpt lat="65.49813" lon="12.28504">
        <ele>53.028302</ele>
        <time>2020-08-13T09:49:43.842Z</time>
      </trkpt>
      <trkpt lat="65.49804" lon="12.28483">
        <ele>53.181897</ele>
        <time>2020-08-13T09:49:46.882Z</time>
      </trkpt>
      <trkpt lat="65.49796" lon="12.28463">
        <ele>53.327664</ele>
        <time>2020-08-13T09:49:49.863Z</time>
      </trkpt>
      <trkpt lat="65.49788" lon="12.28445">
        <ele>53.460099</ele>
        <time>2020-08-13T09:49:52.892Z</time>
      </trkpt>
      <trkpt lat="65.4978" lon="12.28426">
        <ele>53.599446</ele>
        <time>2020-08-13T09:49:55.863Z</time>
      </trkpt>
      <trkpt lat="65.49772" lon="12.2841">
        <ele>53.729416</ele>
        <time>2020-08-13T09:49:58.838Z</time>
      </trkpt>
      <trkpt lat="65.49764" lon="12.28393">
        <ele>53.863845</ele>
        <time>2020-08-13T09:50:01.850Z</time>
      </trkpt>
      <trkpt lat="65.49755" lon="12.28376">
        <ele>54.00052</ele>
        <time>2020-08-13T09:50:04.859Z</time>
      </trkpt>
      <trkpt lat="65.49746" lon="12.28359">
        <ele>54.143986</ele>
        <time>2020-08-13T09:50:07.842Z</time>
      </trkpt>
      <trkpt lat="65.49736" lon="12.28341">
        <ele>54.296419</ele>
        <time>2020-08-13T09:50:10.873Z</time>
      </trkpt>
      <trkpt lat="65.49727" lon="12.28321">
        <ele>54.284176</ele>
        <time>2020-08-13T09:50:13.844Z</time>
      </trkpt>
      <trkpt lat="65.49717" lon="12.28302">
        <ele>54.189082</ele>
        <time>2020-08-13T09:50:16.875Z</time>
      </trkpt>
      <trkpt lat="65.49708" lon="12.28285">
        <ele>54.09526</ele>
        <time>2020-08-13T09:50:19.896Z</time>
      </trkpt>
      <trkpt lat="65.49698" lon="12.28269">
        <ele>54.002415</ele>
        <time>2020-08-13T09:50:22.865Z</time>
      </trkpt>
      <trkpt lat="65.49687" lon="12.28252">
        <ele>53.903555</ele>
        <time>2020-08-13T09:50:25.833Z</time>
      </trkpt>
      <trkpt lat="65.49677" lon="12.28234">
        <ele>53.80294</ele>
        <time>2020-08-13T09:50:28.841Z</time>
      </trkpt>
      <trkpt lat="65.49667" lon="12.28214">
        <ele>53.701046</ele>
        <time>2020-08-13T09:50:31.875Z</time>
      </trkpt>
      <trkpt lat="65.4966" lon="12.28199">
        <ele>53.630254</ele>
        <time>2020-08-13T09:50:33.869Z</time>
      </trkpt>
      <trkpt lat="65.49653" lon="12.28184">
        <ele>53.557389</ele>
        <time>2020-08-13T09:50:35.840Z</time>
      </trkpt>
      <trkpt lat="65.49645" lon="12.28169">
        <ele>53.48293</ele>
        <time>2020-08-13T09:50:37.858Z</time>
      </trkpt>
      <trkpt lat="65.49638" lon="12.28154">
        <ele>53.40783</ele>
        <time>2020-08-13T09:50:39.858Z</time>
      </trkpt>
      <trkpt lat="65.49631" lon="12.28136">
        <ele>53.328514</ele>
        <time>2020-08-13T09:50:41.848Z</time>
      </trkpt>
      <trkpt lat="65.49623" lon="12.28118">
        <ele>53.243709</ele>
        <time>2020-08-13T09:50:43.832Z</time>
      </trkpt>
      <trkpt lat="65.49616" lon="12.281">
        <ele>53.160148</ele>
        <time>2020-08-13T09:50:45.885Z</time>
      </trkpt>
      <trkpt lat="65.49607" lon="12.28081">
        <ele>53.070312</ele>
        <time>2020-08-13T09:50:47.860Z</time>
      </trkpt>
      <trkpt lat="65.49598" lon="12.2806">
        <ele>52.973634</ele>
        <time>2020-08-13T09:50:49.864Z</time>
      </trkpt>
      <trkpt lat="65.49589" lon="12.28039">
        <ele>52.85379</ele>
        <time>2020-08-13T09:50:51.870Z</time>
      </trkpt>
      <trkpt lat="65.4958" lon="12.28018">
        <ele>52.726674</ele>
        <time>2020-08-13T09:50:53.894Z</time>
      </trkpt>
      <trkpt lat="65.49571" lon="12.27995">
        <ele>52.597768</ele>
        <time>2020-08-13T09:50:55.863Z</time>
      </trkpt>
      <trkpt lat="65.49562" lon="12.27973">
        <ele>52.465051</ele>
        <time>2020-08-13T09:50:57.844Z</time>
      </trkpt>
      <trkpt lat="65.49554" lon="12.27949">
        <ele>52.339759</ele>
        <time>2020-08-13T09:50:59.890Z</time>
      </trkpt>
      <trkpt lat="65.49547" lon="12.27927">
        <ele>52.218934</ele>
        <time>2020-08-13T09:51:01.844Z</time>
      </trkpt>
      <trkpt lat="65.4954" lon="12.27904">
        <ele>52.100051</ele>
        <time>2020-08-13T09:51:03.861Z</time>
      </trkpt>
      <trkpt lat="65.49533" lon="12.2788">
        <ele>51.981403</ele>
        <time>2020-08-13T09:51:05.836Z</time>
      </trkpt>
      <trkpt lat="65.49527" lon="12.27857">
        <ele>51.865033</ele>
        <time>2020-08-13T09:51:07.841Z</time>
      </trkpt>
      <trkpt lat="65.49521" lon="12.27833">
        <ele>51.745818</ele>
        <time>2020-08-13T09:51:09.887Z</time>
      </trkpt>
      <trkpt lat="65.49514" lon="12.27808">
        <ele>51.624813</ele>
        <time>2020-08-13T09:51:11.862Z</time>
      </trkpt>
      <trkpt lat="65.49508" lon="12.27782">
        <ele>51.497072</ele>
        <time>2020-08-13T09:51:13.898Z</time>
      </trkpt>
      <trkpt lat="65.49501" lon="12.27756">
        <ele>51.365952</ele>
        <time>2020-08-13T09:51:15.848Z</time>
      </trkpt>
      <trkpt lat="65.49494" lon="12.27729">
        <ele>51.232677</ele>
        <time>2020-08-13T09:51:17.845Z</time>
      </trkpt>
      <trkpt lat="65.49487" lon="12.27701">
        <ele>51.072367</ele>
        <time>2020-08-13T09:51:19.860Z</time>
      </trkpt>
      <trkpt lat="65.49479" lon="12.27673">
        <ele>50.848921</ele>
        <time>2020-08-13T09:51:21.854Z</time>
      </trkpt>
      <trkpt lat="65.49472" lon="12.27645">
        <ele>50.622085</ele>
        <time>2020-08-13T09:51:23.846Z</time>
      </trkpt>
      <trkpt lat="65.49464" lon="12.27615">
        <ele>50.391269</ele>
        <time>2020-08-13T09:51:25.850Z</time>
      </trkpt>
      <trkpt lat="65.49456" lon="12.27587">
        <ele>50.164692</ele>
        <time>2020-08-13T09:51:27.865Z</time>
      </trkpt>
      <trkpt lat="65.49449" lon="12.27559">
        <ele>49.940591</ele>
        <time>2020-08-13T09:51:29.859Z</time>
      </trkpt>
      <trkpt lat="65.49441" lon="12.27532">
        <ele>49.723402</ele>
        <time>2020-08-13T09:51:31.879Z</time>
      </trkpt>
      <trkpt lat="65.49434" lon="12.27506">
        <ele>49.513346</ele>
        <time>2020-08-13T09:51:33.847Z</time>
      </trkpt>
      <trkpt lat="65.49428" lon="12.27479">
        <ele>49.307274</ele>
        <time>2020-08-13T09:51:35.857Z</time>
      </trkpt>
      <trkpt lat="65.49421" lon="12.27453">
        <ele>49.102609</ele>
        <time>2020-08-13T09:51:37.845Z</time>
      </trkpt>
      <trkpt lat="65.49415" lon="12.27428">
        <ele>48.904452</ele>
        <time>2020-08-13T09:51:39.867Z</time>
      </trkpt>
      <trkpt lat="65.49409" lon="12.27402">
        <ele>48.706623</ele>
        <time>2020-08-13T09:51:41.857Z</time>
      </trkpt>
      <trkpt lat="65.49403" lon="12.27378">
        <ele>48.518494</ele>
        <time>2020-08-13T09:51:43.853Z</time>
      </trkpt>
      <trkpt lat="65.49397" lon="12.27355">
        <ele>48.33291</ele>
        <time>2020-08-13T09:51:45.850Z</time>
      </trkpt>
      <trkpt lat="65.49391" lon="12.27331">
        <ele>48.321066</ele>
        <time>2020-08-13T09:51:47.849Z</time>
      </trkpt>
      <trkpt lat="65.49385" lon="12.27308">
        <ele>48.549636</ele>
        <time>2020-08-13T09:51:49.847Z</time>
      </trkpt>
      <trkpt lat="65.4938" lon="12.27283">
        <ele>48.782504</ele>
        <time>2020-08-13T09:51:51.861Z</time>
      </trkpt>
      <trkpt lat="65.49374" lon="12.27258">
        <ele>49.016308</ele>
        <time>2020-08-13T09:51:53.863Z</time>
      </trkpt>
      <trkpt lat="65.49369" lon="12.27233">
        <ele>49.244377</ele>
        <time>2020-08-13T09:51:55.838Z</time>
      </trkpt>
      <trkpt lat="65.49364" lon="12.2721">
        <ele>49.462912</ele>
        <time>2020-08-13T09:51:57.860Z</time>
      </trkpt>
      <trkpt lat="65.49359" lon="12.27187">
        <ele>49.674632</ele>
        <time>2020-08-13T09:51:59.840Z</time>
      </trkpt>
      <trkpt lat="65.49355" lon="12.27167">
        <ele>49.866973</ele>
        <time>2020-08-13T09:52:01.858Z</time>
      </trkpt>
      <trkpt lat="65.4935" lon="12.27149">
        <ele>50.046613</ele>
        <time>2020-08-13T09:52:03.855Z</time>
      </trkpt>
      <trkpt lat="65.49344" lon="12.27124">
        <ele>50.281389</ele>
        <time>2020-08-13T09:52:06.879Z</time>
      </trkpt>
      <trkpt lat="65.49339" lon="12.271">
        <ele>50.49593</ele>
        <time>2020-08-13T09:52:09.857Z</time>
      </trkpt>
      <trkpt lat="65.49335" lon="12.27078">
        <ele>50.704895</ele>
        <time>2020-08-13T09:52:12.837Z</time>
      </trkpt>
      <trkpt lat="65.49331" lon="12.27057">
        <ele>50.893855</ele>
        <time>2020-08-13T09:52:15.879Z</time>
      </trkpt>
      <trkpt lat="65.49327" lon="12.27037">
        <ele>51.075192</ele>
        <time>2020-08-13T09:52:18.859Z</time>
      </trkpt>
      <trkpt lat="65.49323" lon="12.27017">
        <ele>51.25756</ele>
        <time>2020-08-13T09:52:21.846Z</time>
      </trkpt>
      <trkpt lat="65.49318" lon="12.26993">
        <ele>51.484404</ele>
        <time>2020-08-13T09:52:25.856Z</time>
      </trkpt>
      <trkpt lat="65.49313" lon="12.26969">
        <ele>51.708559</ele>
        <time>2020-08-13T09:52:29.906Z</time>
      </trkpt>
      <trkpt lat="65.49308" lon="12.26945">
        <ele>51.940958</ele>
        <time>2020-08-13T09:52:33.843Z</time>
      </trkpt>
      <trkpt lat="65.49303" lon="12.2692">
        <ele>52.200091</ele>
        <time>2020-08-13T09:52:37.878Z</time>
      </trkpt>
      <trkpt lat="65.49298" lon="12.26899">
        <ele>52.412557</ele>
        <time>2020-08-13T09:52:40.882Z</time>
      </trkpt>
      <trkpt lat="65.49294" lon="12.26879">
        <ele>52.618813</ele>
        <time>2020-08-13T09:52:43.860Z</time>
      </trkpt>
      <trkpt lat="65.49291" lon="12.26858">
        <ele>52.828241</ele>
        <time>2020-08-13T09:52:46.849Z</time>
      </trkpt>
      <trkpt lat="65.49287" lon="12.26836">
        <ele>53.04959</ele>
        <time>2020-08-13T09:52:49.840Z</time>
      </trkpt>
      <trkpt lat="65.49282" lon="12.26814">
        <ele>53.273524</ele>
        <time>2020-08-13T09:52:52.846Z</time>
      </trkpt>
      <trkpt lat="65.49279" lon="12.2679">
        <ele>53.507573</ele>
        <time>2020-08-13T09:52:55.869Z</time>
      </trkpt>
      <trkpt lat="65.49274" lon="12.26763">
        <ele>53.772314</ele>
        <time>2020-08-13T09:52:58.847Z</time>
      </trkpt>
      <trkpt lat="65.49272" lon="12.26732">
        <ele>54.05988</ele>
        <time>2020-08-13T09:53:01.840Z</time>
      </trkpt>
      <trkpt lat="65.4927" lon="12.26702">
        <ele>54.338983</ele>
        <time>2020-08-13T09:53:04.842Z</time>
      </trkpt>
      <trkpt lat="65.49269" lon="12.26673">
        <ele>54.604224</ele>
        <time>2020-08-13T09:53:07.905Z</time>
      </trkpt>
      <trkpt lat="65.49268" lon="12.26646">
        <ele>54.856315</ele>
        <time>2020-08-13T09:53:10.838Z</time>
      </trkpt>
      <trkpt lat="65.49267" lon="12.26618">
        <ele>55.112982</ele>
        <time>2020-08-13T09:53:13.842Z</time>
      </trkpt>
      <trkpt lat="65.49267" lon="12.26589">
        <ele>55.377633</ele>
        <time>2020-08-13T09:53:16.842Z</time>
      </trkpt>
      <trkpt lat="65.49266" lon="12.26556">
        <ele>55.682845</ele>
        <time>2020-08-13T09:53:19.860Z</time>
      </trkpt>
      <trkpt lat="65.49265" lon="12.26531">
        <ele>55.855841</ele>
        <time>2020-08-13T09:53:21.857Z</time>
      </trkpt>
      <trkpt lat="65.49263" lon="12.26505">
        <ele>55.977048</ele>
        <time>2020-08-13T09:53:23.853Z</time>
      </trkpt>
      <trkpt lat="65.49262" lon="12.26478">
        <ele>56.098726</ele>
        <time>2020-08-13T09:53:25.847Z</time>
      </trkpt>
      <trkpt lat="65.49261" lon="12.26451">
        <ele>56.226605</ele>
        <time>2020-08-13T09:53:27.844Z</time>
      </trkpt>
      <trkpt lat="65.49259" lon="12.26425">
        <ele>56.347964</ele>
        <time>2020-08-13T09:53:29.888Z</time>
      </trkpt>
      <trkpt lat="65.49258" lon="12.26399">
        <ele>56.465744</ele>
        <time>2020-08-13T09:53:31.862Z</time>
      </trkpt>
      <trkpt lat="65.49257" lon="12.26375">
        <ele>56.578107</ele>
        <time>2020-08-13T09:53:33.851Z</time>
      </trkpt>
      <trkpt lat="65.49258" lon="12.26351">
        <ele>56.688845</ele>
        <time>2020-08-13T09:53:35.840Z</time>
      </trkpt>
      <trkpt lat="65.49261" lon="12.26326">
        <ele>56.806847</ele>
        <time>2020-08-13T09:53:37.851Z</time>
      </trkpt>
      <trkpt lat="65.49266" lon="12.26306">
        <ele>56.915541</ele>
        <time>2020-08-13T09:53:39.835Z</time>
      </trkpt>
      <trkpt lat="65.49272" lon="12.26286">
        <ele>57.029056</ele>
        <time>2020-08-13T09:53:41.852Z</time>
      </trkpt>
      <trkpt lat="65.4928" lon="12.26271">
        <ele>57.144494</ele>
        <time>2020-08-13T09:53:43.843Z</time>
      </trkpt>
      <trkpt lat="65.49292" lon="12.26261">
        <ele>57.281883</ele>
        <time>2020-08-13T09:53:46.869Z</time>
      </trkpt>
      <trkpt lat="65.49305" lon="12.26262">
        <ele>57.427109</ele>
        <time>2020-08-13T09:53:49.872Z</time>
      </trkpt>
      <trkpt lat="65.49314" lon="12.26266">
        <ele>57.532905</ele>
        <time>2020-08-13T09:53:51.844Z</time>
      </trkpt>
      <trkpt lat="65.49324" lon="12.26267">
        <ele>57.63497</ele>
        <time>2020-08-13T09:53:53.829Z</time>
      </trkpt>
      <trkpt lat="65.49334" lon="12.26269">
        <ele>57.752517</ele>
        <time>2020-08-13T09:53:55.873Z</time>
      </trkpt>
      <trkpt lat="65.49346" lon="12.26266">
        <ele>57.518854</ele>
        <time>2020-08-13T09:53:57.855Z</time>
      </trkpt>
      <trkpt lat="65.49358" lon="12.26262">
        <ele>57.095679</ele>
        <time>2020-08-13T09:53:59.854Z</time>
      </trkpt>
      <trkpt lat="65.49372" lon="12.26254">
        <ele>56.621095</ele>
        <time>2020-08-13T09:54:01.864Z</time>
      </trkpt>
      <trkpt lat="65.49388" lon="12.2625">
        <ele>56.085738</ele>
        <time>2020-08-13T09:54:03.870Z</time>
      </trkpt>
      <trkpt lat="65.49405" lon="12.2625">
        <ele>55.523749</ele>
        <time>2020-08-13T09:54:05.841Z</time>
      </trkpt>
      <trkpt lat="65.49422" lon="12.26248">
        <ele>54.95105</ele>
        <time>2020-08-13T09:54:07.849Z</time>
      </trkpt>
      <trkpt lat="65.4944" lon="12.26244">
        <ele>54.376158</ele>
        <time>2020-08-13T09:54:09.870Z</time>
      </trkpt>
      <trkpt lat="65.49456" lon="12.26234">
        <ele>53.813624</ele>
        <time>2020-08-13T09:54:11.866Z</time>
      </trkpt>
      <trkpt lat="65.49473" lon="12.26222">
        <ele>53.228156</ele>
        <time>2020-08-13T09:54:13.844Z</time>
      </trkpt>
      <trkpt lat="65.49481" lon="12.26215">
        <ele>52.926314</ele>
        <time>2020-08-13T09:54:14.865Z</time>
      </trkpt>
      <trkpt lat="65.4949" lon="12.26206">
        <ele>52.627276</ele>
        <time>2020-08-13T09:54:15.863Z</time>
      </trkpt>
      <trkpt lat="65.49504" lon="12.26182">
        <ele>52.039983</ele>
        <time>2020-08-13T09:54:17.856Z</time>
      </trkpt>
      <trkpt lat="65.49516" lon="12.26155">
        <ele>51.549381</ele>
        <time>2020-08-13T09:54:19.856Z</time>
      </trkpt>
      <trkpt lat="65.49522" lon="12.26121">
        <ele>51.103064</ele>
        <time>2020-08-13T09:54:21.860Z</time>
      </trkpt>
      <trkpt lat="65.49524" lon="12.26084">
        <ele>50.662798</ele>
        <time>2020-08-13T09:54:23.856Z</time>
      </trkpt>
      <trkpt lat="65.49524" lon="12.26053">
        <ele>50.280323</ele>
        <time>2020-08-13T09:54:25.862Z</time>
      </trkpt>
      <trkpt lat="65.49524" lon="12.26025">
        <ele>49.946703</ele>
        <time>2020-08-13T09:54:27.841Z</time>
      </trkpt>
      <trkpt lat="65.49525" lon="12.25998">
        <ele>49.620538</ele>
        <time>2020-08-13T09:54:29.838Z</time>
      </trkpt>
      <trkpt lat="65.49525" lon="12.2597">
        <ele>49.292027</ele>
        <time>2020-08-13T09:54:31.848Z</time>
      </trkpt>
      <trkpt lat="65.49524" lon="12.25943">
        <ele>48.971439</ele>
        <time>2020-08-13T09:54:33.857Z</time>
      </trkpt>
      <trkpt lat="65.49524" lon="12.25917">
        <ele>48.657103</ele>
        <time>2020-08-13T09:54:35.850Z</time>
      </trkpt>
      <trkpt lat="65.49523" lon="12.25893">
        <ele>48.370321</ele>
        <time>2020-08-13T09:54:37.871Z</time>
      </trkpt>
      <trkpt lat="65.49523" lon="12.2587">
        <ele>48.088035</ele>
        <time>2020-08-13T09:54:39.849Z</time>
      </trkpt>
      <trkpt lat="65.49522" lon="12.25847">
        <ele>47.80982</ele>
        <time>2020-08-13T09:54:41.915Z</time>
      </trkpt>
      <trkpt lat="65.49522" lon="12.25815">
        <ele>47.42816</ele>
        <time>2020-08-13T09:54:44.844Z</time>
      </trkpt>
      <trkpt lat="65.49521" lon="12.25793">
        <ele>47.164812</ele>
        <time>2020-08-13T09:54:46.862Z</time>
      </trkpt>
      <trkpt lat="65.4952" lon="12.25761">
        <ele>46.781257</ele>
        <time>2020-08-13T09:54:49.843Z</time>
      </trkpt>
      <trkpt lat="65.49519" lon="12.25739">
        <ele>46.584199</ele>
        <time>2020-08-13T09:54:51.890Z</time>
      </trkpt>
      <trkpt lat="65.49518" lon="12.25716">
        <ele>46.508096</ele>
        <time>2020-08-13T09:54:53.838Z</time>
      </trkpt>
      <trkpt lat="65.49517" lon="12.25692">
        <ele>46.428224</ele>
        <time>2020-08-13T09:54:55.902Z</time>
      </trkpt>
      <trkpt lat="65.49517" lon="12.25666">
        <ele>46.341707</ele>
        <time>2020-08-13T09:54:57.857Z</time>
      </trkpt>
      <trkpt lat="65.49516" lon="12.25638">
        <ele>46.246588</ele>
        <time>2020-08-13T09:54:59.867Z</time>
      </trkpt>
      <trkpt lat="65.49516" lon="12.25606">
        <ele>46.143578</ele>
        <time>2020-08-13T09:55:01.860Z</time>
      </trkpt>
      <trkpt lat="65.49516" lon="12.25573">
        <ele>46.033973</ele>
        <time>2020-08-13T09:55:03.845Z</time>
      </trkpt>
      <trkpt lat="65.49516" lon="12.25539">
        <ele>45.921388</ele>
        <time>2020-08-13T09:55:05.846Z</time>
      </trkpt>
      <trkpt lat="65.49516" lon="12.25506">
        <ele>45.810764</ele>
        <time>2020-08-13T09:55:07.879Z</time>
      </trkpt>
      <trkpt lat="65.49516" lon="12.25473">
        <ele>45.702127</ele>
        <time>2020-08-13T09:55:09.851Z</time>
      </trkpt>
      <trkpt lat="65.49517" lon="12.25442">
        <ele>45.598506</ele>
        <time>2020-08-13T09:55:11.845Z</time>
      </trkpt>
      <trkpt lat="65.49519" lon="12.25414">
        <ele>45.504222</ele>
        <time>2020-08-13T09:55:13.869Z</time>
      </trkpt>
      <trkpt lat="65.4952" lon="12.25387">
        <ele>45.415659</ele>
        <time>2020-08-13T09:55:15.866Z</time>
      </trkpt>
      <trkpt lat="65.49522" lon="12.25363">
        <ele>45.335573</ele>
        <time>2020-08-13T09:55:17.847Z</time>
      </trkpt>
      <trkpt lat="65.49524" lon="12.25342">
        <ele>45.261965</ele>
        <time>2020-08-13T09:55:19.872Z</time>
      </trkpt>
      <trkpt lat="65.49527" lon="12.25312">
        <ele>45.20168</ele>
        <time>2020-08-13T09:55:22.857Z</time>
      </trkpt>
      <trkpt lat="65.49531" lon="12.25286">
        <ele>45.412528</ele>
        <time>2020-08-13T09:55:25.884Z</time>
      </trkpt>
      <trkpt lat="65.49533" lon="12.25261">
        <ele>45.611934</ele>
        <time>2020-08-13T09:55:28.846Z</time>
      </trkpt>
      <trkpt lat="65.49537" lon="12.25237">
        <ele>45.806465</ele>
        <time>2020-08-13T09:55:31.858Z</time>
      </trkpt>
      <trkpt lat="65.4954" lon="12.25214">
        <ele>45.997305</ele>
        <time>2020-08-13T09:55:34.879Z</time>
      </trkpt>
      <trkpt lat="65.49543" lon="12.25193">
        <ele>46.168592</ele>
        <time>2020-08-13T09:55:37.862Z</time>
      </trkpt>
      <trkpt lat="65.49545" lon="12.25167">
        <ele>46.373946</ele>
        <time>2020-08-13T09:55:41.847Z</time>
      </trkpt>
      <trkpt lat="65.49547" lon="12.25144">
        <ele>46.55795</ele>
        <time>2020-08-13T09:55:44.853Z</time>
      </trkpt>
      <trkpt lat="65.4955" lon="12.25119">
        <ele>46.756918</ele>
        <time>2020-08-13T09:55:47.863Z</time>
      </trkpt>
      <trkpt lat="65.49554" lon="12.25094">
        <ele>46.96038</ele>
        <time>2020-08-13T09:55:50.858Z</time>
      </trkpt>
      <trkpt lat="65.49557" lon="12.2507">
        <ele>47.159579</ele>
        <time>2020-08-13T09:55:53.849Z</time>
      </trkpt>
      <trkpt lat="65.4956" lon="12.25046">
        <ele>47.355499</ele>
        <time>2020-08-13T09:55:56.884Z</time>
      </trkpt>
      <trkpt lat="65.49563" lon="12.25022">
        <ele>47.549482</ele>
        <time>2020-08-13T09:55:59.839Z</time>
      </trkpt>
      <trkpt lat="65.49566" lon="12.24997">
        <ele>47.745489</ele>
        <time>2020-08-13T09:56:02.850Z</time>
      </trkpt>
      <trkpt lat="65.49568" lon="12.24973">
        <ele>47.939885</ele>
        <time>2020-08-13T09:56:05.863Z</time>
      </trkpt>
      <trkpt lat="65.49571" lon="12.24949">
        <ele>48.128587</ele>
        <time>2020-08-13T09:56:08.870Z</time>
      </trkpt>
      <trkpt lat="65.49572" lon="12.24925">
        <ele>48.318091</ele>
        <time>2020-08-13T09:56:11.864Z</time>
      </trkpt>
      <trkpt lat="65.49573" lon="12.24899">
        <ele>48.522811</ele>
        <time>2020-08-13T09:56:14.860Z</time>
      </trkpt>
      <trkpt lat="65.49576" lon="12.24874">
        <ele>48.517352</ele>
        <time>2020-08-13T09:56:17.852Z</time>
      </trkpt>
      <trkpt lat="65.49581" lon="12.24855">
        <ele>48.506197</ele>
        <time>2020-08-13T09:56:20.839Z</time>
      </trkpt>
      <trkpt lat="65.49582" lon="12.24831">
        <ele>48.494372</ele>
        <time>2020-08-13T09:56:23.865Z</time>
      </trkpt>
      <trkpt lat="65.49582" lon="12.24805">
        <ele>48.481567</ele>
        <time>2020-08-13T09:56:26.855Z</time>
      </trkpt>
      <trkpt lat="65.49586" lon="12.24785">
        <ele>48.470435</ele>
        <time>2020-08-13T09:56:29.890Z</time>
      </trkpt>
      <trkpt lat="65.49595" lon="12.24792">
        <ele>48.458708</ele>
        <time>2020-08-13T09:56:32.870Z</time>
      </trkpt>
      <trkpt lat="65.49602" lon="12.24811">
        <ele>48.446713</ele>
        <time>2020-08-13T09:56:34.865Z</time>
      </trkpt>
      <trkpt lat="65.49605" lon="12.24841">
        <ele>48.430891</ele>
        <time>2020-08-13T09:56:37.870Z</time>
      </trkpt>
      <trkpt lat="65.4961" lon="12.24868">
        <ele>48.416403</ele>
        <time>2020-08-13T09:56:40.848Z</time>
      </trkpt>
      <trkpt lat="65.49618" lon="12.2488">
        <ele>48.405066</ele>
        <time>2020-08-13T09:56:42.848Z</time>
      </trkpt>
      <trkpt lat="65.4963" lon="12.24894">
        <ele>48.389688</ele>
        <time>2020-08-13T09:56:45.863Z</time>
      </trkpt>
      <trkpt lat="65.49638" lon="12.24905">
        <ele>48.378608</ele>
        <time>2020-08-13T09:56:47.898Z</time>
      </trkpt>
      <trkpt lat="65.49645" lon="12.24919">
        <ele>48.367659</ele>
        <time>2020-08-13T09:56:49.873Z</time>
      </trkpt>
      <trkpt lat="65.49652" lon="12.24932">
        <ele>48.356617</ele>
        <time>2020-08-13T09:56:51.871Z</time>
      </trkpt>
      <trkpt lat="65.49659" lon="12.24946">
        <ele>48.345762</ele>
        <time>2020-08-13T09:56:53.844Z</time>
      </trkpt>
      <trkpt lat="65.49667" lon="12.2496">
        <ele>48.3344</ele>
        <time>2020-08-13T09:56:55.887Z</time>
      </trkpt>
      <trkpt lat="65.49674" lon="12.24973">
        <ele>48.323451</ele>
        <time>2020-08-13T09:56:57.857Z</time>
      </trkpt>
      <trkpt lat="65.49684" lon="12.24994">
        <ele>48.31647</ele>
        <time>2020-08-13T09:57:00.852Z</time>
      </trkpt>
      <trkpt lat="65.49691" lon="12.25008">
        <ele>48.321472</ele>
        <time>2020-08-13T09:57:02.868Z</time>
      </trkpt>
      <trkpt lat="65.49697" lon="12.25022">
        <ele>48.326411</ele>
        <time>2020-08-13T09:57:04.860Z</time>
      </trkpt>
      <trkpt lat="65.49704" lon="12.25037">
        <ele>48.331515</ele>
        <time>2020-08-13T09:57:06.858Z</time>
      </trkpt>
      <trkpt lat="65.49714" lon="12.25058">
        <ele>48.33885</ele>
        <time>2020-08-13T09:57:09.871Z</time>
      </trkpt>
      <trkpt lat="65.49724" lon="12.25078">
        <ele>48.346065</ele>
        <time>2020-08-13T09:57:12.836Z</time>
      </trkpt>
      <trkpt lat="65.49734" lon="12.25097">
        <ele>48.352791</ele>
        <time>2020-08-13T09:57:15.882Z</time>
      </trkpt>
      <trkpt lat="65.49742" lon="12.25116">
        <ele>48.359401</ele>
        <time>2020-08-13T09:57:18.864Z</time>
      </trkpt>
      <trkpt lat="65.4975" lon="12.25136">
        <ele>48.365775</ele>
        <time>2020-08-13T09:57:21.859Z</time>
      </trkpt>
      <trkpt lat="65.49758" lon="12.25155">
        <ele>48.371914</ele>
        <time>2020-08-13T09:57:24.855Z</time>
      </trkpt>
      <trkpt lat="65.49766" lon="12.25174">
        <ele>48.378095</ele>
        <time>2020-08-13T09:57:27.844Z</time>
      </trkpt>
      <trkpt lat="65.49775" lon="12.25192">
        <ele>48.384263</ele>
        <time>2020-08-13T09:57:30.848Z</time>
      </trkpt>
      <trkpt lat="65.49784" lon="12.2521">
        <ele>48.390773</ele>
        <time>2020-08-13T09:57:33.864Z</time>
      </trkpt>
      <trkpt lat="65.49793" lon="12.25228">
        <ele>48.397498</ele>
        <time>2020-08-13T09:57:36.852Z</time>
      </trkpt>
      <trkpt lat="65.49802" lon="12.25246">
        <ele>48.403953</ele>
        <time>2020-08-13T09:57:39.858Z</time>
      </trkpt>
      <trkpt lat="65.49811" lon="12.25266">
        <ele>48.410517</ele>
        <time>2020-08-13T09:57:42.867Z</time>
      </trkpt>
      <trkpt lat="65.4982" lon="12.25285">
        <ele>48.501218</ele>
        <time>2020-08-13T09:57:45.838Z</time>
      </trkpt>
      <trkpt lat="65.4983" lon="12.25304">
        <ele>48.642911</ele>
        <time>2020-08-13T09:57:48.845Z</time>
      </trkpt>
      <trkpt lat="65.49839" lon="12.25321">
        <ele>48.777312</ele>
        <time>2020-08-13T09:57:51.876Z</time>
      </trkpt>
      <trkpt lat="65.49847" lon="12.25339">
        <ele>48.911748</ele>
        <time>2020-08-13T09:57:54.864Z</time>
      </trkpt>
      <trkpt lat="65.49856" lon="12.25357">
        <ele>49.039962</ele>
        <time>2020-08-13T09:57:57.836Z</time>
      </trkpt>
      <trkpt lat="65.49863" lon="12.25374">
        <ele>49.164938</ele>
        <time>2020-08-13T09:58:00.865Z</time>
      </trkpt>
      <trkpt lat="65.49871" lon="12.25392">
        <ele>49.291099</ele>
        <time>2020-08-13T09:58:03.848Z</time>
      </trkpt>
      <trkpt lat="65.4988" lon="12.25409">
        <ele>49.417318</ele>
        <time>2020-08-13T09:58:06.863Z</time>
      </trkpt>
      <trkpt lat="65.49888" lon="12.25425">
        <ele>49.543233</ele>
        <time>2020-08-13T09:58:09.861Z</time>
      </trkpt>
      <trkpt lat="65.49896" lon="12.25442">
        <ele>49.667964</ele>
        <time>2020-08-13T09:58:12.868Z</time>
      </trkpt>
      <trkpt lat="65.49905" lon="12.25458">
        <ele>49.797813</ele>
        <time>2020-08-13T09:58:15.876Z</time>
      </trkpt>
      <trkpt lat="65.49914" lon="12.25475">
        <ele>49.923424</ele>
        <time>2020-08-13T09:58:18.844Z</time>
      </trkpt>
      <trkpt lat="65.49922" lon="12.25489">
        <ele>50.045565</ele>
        <time>2020-08-13T09:58:21.862Z</time>
      </trkpt>
      <trkpt lat="65.4993" lon="12.25504">
        <ele>50.165633</ele>
        <time>2020-08-13T09:58:24.845Z</time>
      </trkpt>
      <trkpt lat="65.49939" lon="12.25518">
        <ele>50.285826</ele>
        <time>2020-08-13T09:58:27.847Z</time>
      </trkpt>
      <trkpt lat="65.49949" lon="12.25531">
        <ele>50.41457</ele>
        <time>2020-08-13T09:58:30.840Z</time>
      </trkpt>
      <trkpt lat="65.49958" lon="12.25543">
        <ele>50.495537</ele>
        <time>2020-08-13T09:58:33.862Z</time>
      </trkpt>
      <trkpt lat="65.49968" lon="12.25555">
        <ele>50.443769</ele>
        <time>2020-08-13T09:58:36.853Z</time>
      </trkpt>
      <trkpt lat="65.49977" lon="12.25566">
        <ele>50.390427</ele>
        <time>2020-08-13T09:58:39.841Z</time>
      </trkpt>
      <trkpt lat="65.49987" lon="12.25579">
        <ele>50.335432</ele>
        <time>2020-08-13T09:58:42.845Z</time>
      </trkpt>
      <trkpt lat="65.49997" lon="12.25591">
        <ele>50.281471</ele>
        <time>2020-08-13T09:58:45.864Z</time>
      </trkpt>
      <trkpt lat="65.50007" lon="12.25604">
        <ele>50.226709</ele>
        <time>2020-08-13T09:58:48.848Z</time>
      </trkpt>
      <trkpt lat="65.50018" lon="12.25616">
        <ele>50.16986</ele>
        <time>2020-08-13T09:58:51.865Z</time>
      </trkpt>
      <trkpt lat="65.50028" lon="12.25628">
        <ele>50.114572</ele>
        <time>2020-08-13T09:58:54.842Z</time>
      </trkpt>
      <trkpt lat="65.50038" lon="12.25641">
        <ele>50.057709</ele>
        <time>2020-08-13T09:58:57.875Z</time>
      </trkpt>
      <trkpt lat="65.50048" lon="12.25655">
        <ele>50.002236</ele>
        <time>2020-08-13T09:59:00.852Z</time>
      </trkpt>
      <trkpt lat="65.50059" lon="12.25669">
        <ele>49.941232</ele>
        <time>2020-08-13T09:59:03.866Z</time>
      </trkpt>
      <trkpt lat="65.50071" lon="12.25684">
        <ele>49.877168</ele>
        <time>2020-08-13T09:59:06.840Z</time>
      </trkpt>
      <trkpt lat="65.50082" lon="12.25697">
        <ele>49.817677</ele>
        <time>2020-08-13T09:59:09.845Z</time>
      </trkpt>
      <trkpt lat="65.50093" lon="12.25709">
        <ele>49.75951</ele>
        <time>2020-08-13T09:59:12.839Z</time>
      </trkpt>
      <trkpt lat="65.50103" lon="12.25722">
        <ele>49.701957</ele>
        <time>2020-08-13T09:59:15.870Z</time>
      </trkpt>
      <trkpt lat="65.50113" lon="12.25735">
        <ele>49.647486</ele>
        <time>2020-08-13T09:59:18.837Z</time>
      </trkpt>
      <trkpt lat="65.50123" lon="12.25748">
        <ele>49.701554</ele>
        <time>2020-08-13T09:59:21.843Z</time>
      </trkpt>
      <trkpt lat="65.50134" lon="12.2576">
        <ele>49.796831</ele>
        <time>2020-08-13T09:59:24.869Z</time>
      </trkpt>
      <trkpt lat="65.50144" lon="12.25775">
        <ele>49.895551</ele>
        <time>2020-08-13T09:59:27.858Z</time>
      </trkpt>
      <trkpt lat="65.50155" lon="12.25789">
        <ele>49.994552</ele>
        <time>2020-08-13T09:59:30.842Z</time>
      </trkpt>
      <trkpt lat="65.50165" lon="12.25802">
        <ele>50.088486</ele>
        <time>2020-08-13T09:59:33.849Z</time>
      </trkpt>
      <trkpt lat="65.50176" lon="12.25815">
        <ele>50.18449</ele>
        <time>2020-08-13T09:59:36.849Z</time>
      </trkpt>
      <trkpt lat="65.50187" lon="12.25827">
        <ele>50.280064</ele>
        <time>2020-08-13T09:59:39.862Z</time>
      </trkpt>
      <trkpt lat="65.50198" lon="12.25841">
        <ele>50.382083</ele>
        <time>2020-08-13T09:59:42.861Z</time>
      </trkpt>
      <trkpt lat="65.50209" lon="12.25856">
        <ele>50.483909</ele>
        <time>2020-08-13T09:59:45.854Z</time>
      </trkpt>
      <trkpt lat="65.5022" lon="12.25871">
        <ele>50.583331</ele>
        <time>2020-08-13T09:59:48.874Z</time>
      </trkpt>
      <trkpt lat="65.5023" lon="12.25884">
        <ele>50.679502</ele>
        <time>2020-08-13T09:59:51.869Z</time>
      </trkpt>
      <trkpt lat="65.50241" lon="12.25897">
        <ele>50.7748</ele>
        <time>2020-08-13T09:59:54.847Z</time>
      </trkpt>
      <trkpt lat="65.50251" lon="12.2591">
        <ele>50.87</ele>
        <time>2020-08-13T09:59:57.851Z</time>
      </trkpt>
      <trkpt lat="65.50261" lon="12.25923">
        <ele>50.962833</ele>
        <time>2020-08-13T10:00:00.850Z</time>
      </trkpt>
      <trkpt lat="65.50271" lon="12.25935">
        <ele>51.054794</ele>
        <time>2020-08-13T10:00:03.842Z</time>
      </trkpt>
      <trkpt lat="65.50281" lon="12.25948">
        <ele>51.056202</ele>
        <time>2020-08-13T10:00:06.867Z</time>
      </trkpt>
      <trkpt lat="65.50292" lon="12.25961">
        <ele>51.009514</ele>
        <time>2020-08-13T10:00:09.838Z</time>
      </trkpt>
      <trkpt lat="65.50302" lon="12.25973">
        <ele>50.96304</ele>
        <time>2020-08-13T10:00:12.877Z</time>
      </trkpt>
      <trkpt lat="65.50312" lon="12.25986">
        <ele>50.915013</ele>
        <time>2020-08-13T10:00:15.867Z</time>
      </trkpt>
      <trkpt lat="65.50322" lon="12.25999">
        <ele>50.867614</ele>
        <time>2020-08-13T10:00:18.841Z</time>
      </trkpt>
      <trkpt lat="65.50332" lon="12.26011">
        <ele>50.82009</ele>
        <time>2020-08-13T10:00:21.869Z</time>
      </trkpt>
      <trkpt lat="65.50343" lon="12.26024">
        <ele>50.771753</ele>
        <time>2020-08-13T10:00:24.893Z</time>
      </trkpt>
      <trkpt lat="65.50353" lon="12.26038">
        <ele>50.724554</ele>
        <time>2020-08-13T10:00:27.856Z</time>
      </trkpt>
      <trkpt lat="65.50363" lon="12.26053">
        <ele>50.675515</ele>
        <time>2020-08-13T10:00:30.861Z</time>
      </trkpt>
      <trkpt lat="65.50373" lon="12.26069">
        <ele>50.625533</ele>
        <time>2020-08-13T10:00:33.850Z</time>
      </trkpt>
      <trkpt lat="65.50382" lon="12.26086">
        <ele>50.57671</ele>
        <time>2020-08-13T10:00:36.841Z</time>
      </trkpt>
      <trkpt lat="65.50393" lon="12.26104">
        <ele>50.524238</ele>
        <time>2020-08-13T10:00:39.856Z</time>
      </trkpt>
      <trkpt lat="65.50403" lon="12.26122">
        <ele>50.472459</ele>
        <time>2020-08-13T10:00:42.881Z</time>
      </trkpt>
      <trkpt lat="65.50412" lon="12.26141">
        <ele>50.422194</ele>
        <time>2020-08-13T10:00:45.871Z</time>
      </trkpt>
      <trkpt lat="65.50421" lon="12.2616">
        <ele>50.372758</ele>
        <time>2020-08-13T10:00:48.836Z</time>
      </trkpt>
      <trkpt lat="65.5043" lon="12.26179">
        <ele>50.351622</ele>
        <time>2020-08-13T10:00:51.847Z</time>
      </trkpt>
      <trkpt lat="65.50439" lon="12.26199">
        <ele>50.37092</ele>
        <time>2020-08-13T10:00:54.869Z</time>
      </trkpt>
      <trkpt lat="65.50449" lon="12.26219">
        <ele>50.390629</ele>
        <time>2020-08-13T10:00:57.858Z</time>
      </trkpt>
      <trkpt lat="65.50458" lon="12.26239">
        <ele>50.410013</ele>
        <time>2020-08-13T10:01:00.906Z</time>
      </trkpt>
      <trkpt lat="65.50468" lon="12.26257">
        <ele>50.428991</ele>
        <time>2020-08-13T10:01:03.847Z</time>
      </trkpt>
      <trkpt lat="65.50477" lon="12.26277">
        <ele>50.448138</ele>
        <time>2020-08-13T10:01:06.903Z</time>
      </trkpt>
      <trkpt lat="65.50487" lon="12.26296">
        <ele>50.46764</ele>
        <time>2020-08-13T10:01:09.841Z</time>
      </trkpt>
      <trkpt lat="65.50497" lon="12.26315">
        <ele>50.48702</ele>
        <time>2020-08-13T10:01:12.845Z</time>
      </trkpt>
      <trkpt lat="65.50506" lon="12.26334">
        <ele>50.506161</ele>
        <time>2020-08-13T10:01:15.866Z</time>
      </trkpt>
      <trkpt lat="65.50515" lon="12.26352">
        <ele>50.524015</ele>
        <time>2020-08-13T10:01:18.865Z</time>
      </trkpt>
      <trkpt lat="65.50525" lon="12.26368">
        <ele>50.542111</ele>
        <time>2020-08-13T10:01:21.840Z</time>
      </trkpt>
      <trkpt lat="65.50535" lon="12.26385">
        <ele>50.56112</ele>
        <time>2020-08-13T10:01:24.860Z</time>
      </trkpt>
      <trkpt lat="65.50546" lon="12.26401">
        <ele>50.580473</ele>
        <time>2020-08-13T10:01:27.868Z</time>
      </trkpt>
      <trkpt lat="65.50556" lon="12.26415">
        <ele>50.599364</ele>
        <time>2020-08-13T10:01:30.843Z</time>
      </trkpt>
      <trkpt lat="65.50567" lon="12.26429">
        <ele>50.617766</ele>
        <time>2020-08-13T10:01:33.845Z</time>
      </trkpt>
      <trkpt lat="65.50577" lon="12.26442">
        <ele>50.621213</ele>
        <time>2020-08-13T10:01:36.872Z</time>
      </trkpt>
      <trkpt lat="65.50589" lon="12.26453">
        <ele>50.619925</ele>
        <time>2020-08-13T10:01:39.844Z</time>
      </trkpt>
      <trkpt lat="65.50601" lon="12.26462">
        <ele>50.618652</ele>
        <time>2020-08-13T10:01:42.838Z</time>
      </trkpt>
      <trkpt lat="65.50612" lon="12.2647">
        <ele>50.617418</ele>
        <time>2020-08-13T10:01:45.861Z</time>
      </trkpt>
      <trkpt lat="65.50624" lon="12.26475">
        <ele>50.616137</ele>
        <time>2020-08-13T10:01:48.844Z</time>
      </trkpt>
      <trkpt lat="65.50637" lon="12.26479">
        <ele>50.614846</ele>
        <time>2020-08-13T10:01:51.843Z</time>
      </trkpt>
      <trkpt lat="65.50649" lon="12.26483">
        <ele>50.613521</ele>
        <time>2020-08-13T10:01:54.870Z</time>
      </trkpt>
      <trkpt lat="65.50663" lon="12.26488">
        <ele>50.612129</ele>
        <time>2020-08-13T10:01:57.884Z</time>
      </trkpt>
      <trkpt lat="65.50672" lon="12.26491">
        <ele>50.611188</ele>
        <time>2020-08-13T10:01:59.842Z</time>
      </trkpt>
      <trkpt lat="65.50681" lon="12.26494">
        <ele>50.610242</ele>
        <time>2020-08-13T10:02:01.877Z</time>
      </trkpt>
      <trkpt lat="65.50694" lon="12.265">
        <ele>50.608886</ele>
        <time>2020-08-13T10:02:04.848Z</time>
      </trkpt>
      <trkpt lat="65.50706" lon="12.26506">
        <ele>50.607547</ele>
        <time>2020-08-13T10:02:07.853Z</time>
      </trkpt>
      <trkpt lat="65.50718" lon="12.26511">
        <ele>50.606351</ele>
        <time>2020-08-13T10:02:10.848Z</time>
      </trkpt>
      <trkpt lat="65.5073" lon="12.26518">
        <ele>50.605056</ele>
        <time>2020-08-13T10:02:13.858Z</time>
      </trkpt>
      <trkpt lat="65.50742" lon="12.26528">
        <ele>50.603675</ele>
        <time>2020-08-13T10:02:16.848Z</time>
      </trkpt>
      <trkpt lat="65.50755" lon="12.26539">
        <ele>50.670086</ele>
        <time>2020-08-13T10:02:19.866Z</time>
      </trkpt>
      <trkpt lat="65.50765" lon="12.26552">
        <ele>50.736492</ele>
        <time>2020-08-13T10:02:22.856Z</time>
      </trkpt>
      <trkpt lat="65.50775" lon="12.26563">
        <ele>50.798016</ele>
        <time>2020-08-13T10:02:25.847Z</time>
      </trkpt>
      <trkpt lat="65.50785" lon="12.26575">
        <ele>50.8607</ele>
        <time>2020-08-13T10:02:28.858Z</time>
      </trkpt>
      <trkpt lat="65.50796" lon="12.26591">
        <ele>50.930788</ele>
        <time>2020-08-13T10:02:31.857Z</time>
      </trkpt>
      <trkpt lat="65.50806" lon="12.26607">
        <ele>51.00281</ele>
        <time>2020-08-13T10:02:34.839Z</time>
      </trkpt>
      <trkpt lat="65.50817" lon="12.26624">
        <ele>51.075948</ele>
        <time>2020-08-13T10:02:37.859Z</time>
      </trkpt>
      <trkpt lat="65.50825" lon="12.26636">
        <ele>51.127917</ele>
        <time>2020-08-13T10:02:39.837Z</time>
      </trkpt>
      <trkpt lat="65.50833" lon="12.26647">
        <ele>51.179522</ele>
        <time>2020-08-13T10:02:41.845Z</time>
      </trkpt>
      <trkpt lat="65.50844" lon="12.26663">
        <ele>51.253355</ele>
        <time>2020-08-13T10:02:44.864Z</time>
      </trkpt>
      <trkpt lat="65.50852" lon="12.26674">
        <ele>51.303774</ele>
        <time>2020-08-13T10:02:46.854Z</time>
      </trkpt>
      <trkpt lat="65.50863" lon="12.26688">
        <ele>51.376738</ele>
        <time>2020-08-13T10:02:49.851Z</time>
      </trkpt>
      <trkpt lat="65.50875" lon="12.26705">
        <ele>51.452265</ele>
        <time>2020-08-13T10:02:52.842Z</time>
      </trkpt>
      <trkpt lat="65.50886" lon="12.26722">
        <ele>51.527312</ele>
        <time>2020-08-13T10:02:55.886Z</time>
      </trkpt>
      <trkpt lat="65.50898" lon="12.26738">
        <ele>51.602364</ele>
        <time>2020-08-13T10:02:58.879Z</time>
      </trkpt>
      <trkpt lat="65.50905" lon="12.26749">
        <ele>51.599804</ele>
        <time>2020-08-13T10:03:00.845Z</time>
      </trkpt>
      <trkpt lat="65.50913" lon="12.26761">
        <ele>51.571657</ele>
        <time>2020-08-13T10:03:02.885Z</time>
      </trkpt>
      <trkpt lat="65.50921" lon="12.26772">
        <ele>51.543567</ele>
        <time>2020-08-13T10:03:04.854Z</time>
      </trkpt>
      <trkpt lat="65.50932" lon="12.26789">
        <ele>51.501779</ele>
        <time>2020-08-13T10:03:07.873Z</time>
      </trkpt>
      <trkpt lat="65.50944" lon="12.26805">
        <ele>51.46112</ele>
        <time>2020-08-13T10:03:10.836Z</time>
      </trkpt>
      <trkpt lat="65.50955" lon="12.2682">
        <ele>51.420796</ele>
        <time>2020-08-13T10:03:13.846Z</time>
      </trkpt>
      <trkpt lat="65.50966" lon="12.26836">
        <ele>51.380187</ele>
        <time>2020-08-13T10:03:16.844Z</time>
      </trkpt>
      <trkpt lat="65.50978" lon="12.26851">
        <ele>51.339432</ele>
        <time>2020-08-13T10:03:19.866Z</time>
      </trkpt>
      <trkpt lat="65.50989" lon="12.26868">
        <ele>51.299701</ele>
        <time>2020-08-13T10:03:22.857Z</time>
      </trkpt>
      <trkpt lat="65.50996" lon="12.26879">
        <ele>51.27154</ele>
        <time>2020-08-13T10:03:24.862Z</time>
      </trkpt>
      <trkpt lat="65.51007" lon="12.26895">
        <ele>51.232483</ele>
        <time>2020-08-13T10:03:27.877Z</time>
      </trkpt>
      <trkpt lat="65.51019" lon="12.26909">
        <ele>51.19077</ele>
        <time>2020-08-13T10:03:30.839Z</time>
      </trkpt>
      <trkpt lat="65.51027" lon="12.26919">
        <ele>51.162385</ele>
        <time>2020-08-13T10:03:32.854Z</time>
      </trkpt>
      <trkpt lat="65.51039" lon="12.26933">
        <ele>51.121005</ele>
        <time>2020-08-13T10:03:35.851Z</time>
      </trkpt>
      <trkpt lat="65.51051" lon="12.26948">
        <ele>51.079</ele>
        <time>2020-08-13T10:03:38.865Z</time>
      </trkpt>
      <trkpt lat="65.51059" lon="12.26959">
        <ele>51.033679</ele>
        <time>2020-08-13T10:03:40.855Z</time>
      </trkpt>
      <trkpt lat="65.51068" lon="12.2697">
        <ele>50.954628</ele>
        <time>2020-08-13T10:03:42.880Z</time>
      </trkpt>
      <trkpt lat="65.51077" lon="12.26982">
        <ele>50.875103</ele>
        <time>2020-08-13T10:03:44.847Z</time>
      </trkpt>
      <trkpt lat="65.51086" lon="12.26993">
        <ele>50.794225</ele>
        <time>2020-08-13T10:03:46.840Z</time>
      </trkpt>
      <trkpt lat="65.51095" lon="12.27003">
        <ele>50.712061</ele>
        <time>2020-08-13T10:03:48.843Z</time>
      </trkpt>
      <trkpt lat="65.51104" lon="12.27014">
        <ele>50.629465</ele>
        <time>2020-08-13T10:03:50.869Z</time>
      </trkpt>
      <trkpt lat="65.51114" lon="12.27025">
        <ele>50.541433</ele>
        <time>2020-08-13T10:03:52.847Z</time>
      </trkpt>
      <trkpt lat="65.51125" lon="12.27035">
        <ele>50.449449</ele>
        <time>2020-08-13T10:03:54.853Z</time>
      </trkpt>
      <trkpt lat="65.51136" lon="12.27045">
        <ele>50.35845</ele>
        <time>2020-08-13T10:03:56.845Z</time>
      </trkpt>
      <trkpt lat="65.51147" lon="12.27053">
        <ele>50.264412</ele>
        <time>2020-08-13T10:03:58.857Z</time>
      </trkpt>
      <trkpt lat="65.51158" lon="12.2706">
        <ele>50.174039</ele>
        <time>2020-08-13T10:04:00.878Z</time>
      </trkpt>
      <trkpt lat="65.51168" lon="12.27068">
        <ele>50.087696</ele>
        <time>2020-08-13T10:04:02.888Z</time>
      </trkpt>
      <trkpt lat="65.51178" lon="12.27076">
        <ele>50.003549</ele>
        <time>2020-08-13T10:04:04.873Z</time>
      </trkpt>
      <trkpt lat="65.51188" lon="12.27082">
        <ele>49.92164</ele>
        <time>2020-08-13T10:04:06.863Z</time>
      </trkpt>
      <trkpt lat="65.51198" lon="12.27087">
        <ele>49.84141</ele>
        <time>2020-08-13T10:04:08.863Z</time>
      </trkpt>
      <trkpt lat="65.51207" lon="12.27092">
        <ele>49.761379</ele>
        <time>2020-08-13T10:04:10.838Z</time>
      </trkpt>
      <trkpt lat="65.51217" lon="12.27099">
        <ele>49.682036</ele>
        <time>2020-08-13T10:04:12.841Z</time>
      </trkpt>
      <trkpt lat="65.51226" lon="12.27105">
        <ele>49.622228</ele>
        <time>2020-08-13T10:04:14.844Z</time>
      </trkpt>
      <trkpt lat="65.51235" lon="12.27112">
        <ele>49.648112</ele>
        <time>2020-08-13T10:04:16.863Z</time>
      </trkpt>
      <trkpt lat="65.51244" lon="12.27119">
        <ele>49.673961</ele>
        <time>2020-08-13T10:04:18.844Z</time>
      </trkpt>
      <trkpt lat="65.51256" lon="12.27127">
        <ele>49.70915</ele>
        <time>2020-08-13T10:04:21.852Z</time>
      </trkpt>
      <trkpt lat="65.51268" lon="12.27134">
        <ele>49.744697</ele>
        <time>2020-08-13T10:04:24.871Z</time>
      </trkpt>
      <trkpt lat="65.51281" lon="12.2714">
        <ele>49.780418</ele>
        <time>2020-08-13T10:04:27.859Z</time>
      </trkpt>
      <trkpt lat="65.51292" lon="12.27146">
        <ele>49.813927</ele>
        <time>2020-08-13T10:04:30.876Z</time>
      </trkpt>
      <trkpt lat="65.51304" lon="12.2715">
        <ele>49.84606</ele>
        <time>2020-08-13T10:04:33.851Z</time>
      </trkpt>
      <trkpt lat="65.51315" lon="12.27153">
        <ele>49.876193</ele>
        <time>2020-08-13T10:04:36.859Z</time>
      </trkpt>
      <trkpt lat="65.51325" lon="12.27154">
        <ele>49.90476</ele>
        <time>2020-08-13T10:04:39.851Z</time>
      </trkpt>
      <trkpt lat="65.51335" lon="12.27154">
        <ele>49.933013</ele>
        <time>2020-08-13T10:04:42.891Z</time>
      </trkpt>
      <trkpt lat="65.51345" lon="12.27152">
        <ele>49.962468</ele>
        <time>2020-08-13T10:04:45.862Z</time>
      </trkpt>
      <trkpt lat="65.51356" lon="12.27149">
        <ele>49.991549</ele>
        <time>2020-08-13T10:04:48.885Z</time>
      </trkpt>
      <trkpt lat="65.51366" lon="12.27145">
        <ele>50.020714</ele>
        <time>2020-08-13T10:04:51.845Z</time>
      </trkpt>
      <trkpt lat="65.51376" lon="12.27141">
        <ele>50.050174</ele>
        <time>2020-08-13T10:04:54.880Z</time>
      </trkpt>
      <trkpt lat="65.51387" lon="12.27138">
        <ele>50.079725</ele>
        <time>2020-08-13T10:04:57.863Z</time>
      </trkpt>
      <trkpt lat="65.51398" lon="12.27135">
        <ele>50.111501</ele>
        <time>2020-08-13T10:05:00.863Z</time>
      </trkpt>
      <trkpt lat="65.5141" lon="12.27131">
        <ele>50.115358</ele>
        <time>2020-08-13T10:05:03.842Z</time>
      </trkpt>
      <trkpt lat="65.51421" lon="12.27129">
        <ele>50.108324</ele>
        <time>2020-08-13T10:05:06.845Z</time>
      </trkpt>
      <trkpt lat="65.51432" lon="12.27125">
        <ele>50.101177</ele>
        <time>2020-08-13T10:05:09.854Z</time>
      </trkpt>
      <trkpt lat="65.51443" lon="12.27121">
        <ele>50.093561</ele>
        <time>2020-08-13T10:05:12.863Z</time>
      </trkpt>
      <trkpt lat="65.51455" lon="12.27117">
        <ele>50.085661</ele>
        <time>2020-08-13T10:05:15.859Z</time>
      </trkpt>
      <trkpt lat="65.51467" lon="12.27113">
        <ele>50.077598</ele>
        <time>2020-08-13T10:05:18.879Z</time>
      </trkpt>
      <trkpt lat="65.5148" lon="12.27109">
        <ele>50.069272</ele>
        <time>2020-08-13T10:05:21.856Z</time>
      </trkpt>
      <trkpt lat="65.51489" lon="12.27107">
        <ele>50.063353</ele>
        <time>2020-08-13T10:05:23.891Z</time>
      </trkpt>
      <trkpt lat="65.51502" lon="12.27102">
        <ele>50.054618</ele>
        <time>2020-08-13T10:05:26.837Z</time>
      </trkpt>
      <trkpt lat="65.51511" lon="12.27098">
        <ele>50.048479</ele>
        <time>2020-08-13T10:05:28.841Z</time>
      </trkpt>
      <trkpt lat="65.51521" lon="12.27095">
        <ele>50.042072</ele>
        <time>2020-08-13T10:05:30.864Z</time>
      </trkpt>
      <trkpt lat="65.51531" lon="12.27093">
        <ele>50.035563</ele>
        <time>2020-08-13T10:05:32.861Z</time>
      </trkpt>
      <trkpt lat="65.51541" lon="12.2709">
        <ele>50.029169</ele>
        <time>2020-08-13T10:05:34.829Z</time>
      </trkpt>
      <trkpt lat="65.5155" lon="12.27089">
        <ele>50.022677</ele>
        <time>2020-08-13T10:05:36.859Z</time>
      </trkpt>
      <trkpt lat="65.5156" lon="12.27089">
        <ele>50.016188</ele>
        <time>2020-08-13T10:05:38.842Z</time>
      </trkpt>
      <trkpt lat="65.51571" lon="12.27089">
        <ele>50.009439</ele>
        <time>2020-08-13T10:05:40.838Z</time>
      </trkpt>
      <trkpt lat="65.51581" lon="12.27091">
        <ele>50.013896</ele>
        <time>2020-08-13T10:05:42.876Z</time>
      </trkpt>
      <trkpt lat="65.51592" lon="12.27094">
        <ele>50.122491</ele>
        <time>2020-08-13T10:05:44.835Z</time>
      </trkpt>
      <trkpt lat="65.51601" lon="12.27098">
        <ele>50.223917</ele>
        <time>2020-08-13T10:05:46.866Z</time>
      </trkpt>
      <trkpt lat="65.51611" lon="12.27103">
        <ele>50.326279</ele>
        <time>2020-08-13T10:05:48.870Z</time>
      </trkpt>
      <trkpt lat="65.51621" lon="12.27109">
        <ele>50.43047</ele>
        <time>2020-08-13T10:05:50.834Z</time>
      </trkpt>
      <trkpt lat="65.5163" lon="12.27115">
        <ele>50.532138</ele>
        <time>2020-08-13T10:05:52.854Z</time>
      </trkpt>
      <trkpt lat="65.51639" lon="12.27122">
        <ele>50.626909</ele>
        <time>2020-08-13T10:05:54.845Z</time>
      </trkpt>
      <trkpt lat="65.51648" lon="12.27129">
        <ele>50.721937</ele>
        <time>2020-08-13T10:05:56.846Z</time>
      </trkpt>
      <trkpt lat="65.51657" lon="12.27136">
        <ele>50.815013</ele>
        <time>2020-08-13T10:05:58.849Z</time>
      </trkpt>
      <trkpt lat="65.51665" lon="12.27144">
        <ele>50.908999</ele>
        <time>2020-08-13T10:06:00.845Z</time>
      </trkpt>
      <trkpt lat="65.51677" lon="12.27156">
        <ele>51.042741</ele>
        <time>2020-08-13T10:06:03.871Z</time>
      </trkpt>
      <trkpt lat="65.51689" lon="12.27167">
        <ele>51.168538</ele>
        <time>2020-08-13T10:06:06.852Z</time>
      </trkpt>
      <trkpt lat="65.51699" lon="12.27178">
        <ele>51.290043</ele>
        <time>2020-08-13T10:06:09.874Z</time>
      </trkpt>
      <trkpt lat="65.5171" lon="12.27188">
        <ele>51.409323</ele>
        <time>2020-08-13T10:06:12.834Z</time>
      </trkpt>
      <trkpt lat="65.51721" lon="12.272">
        <ele>51.534836</ele>
        <time>2020-08-13T10:06:15.857Z</time>
      </trkpt>
      <trkpt lat="65.51732" lon="12.27211">
        <ele>51.656673</ele>
        <time>2020-08-13T10:06:18.855Z</time>
      </trkpt>
      <trkpt lat="65.51742" lon="12.27222">
        <ele>51.767648</ele>
        <time>2020-08-13T10:06:21.848Z</time>
      </trkpt>
      <trkpt lat="65.51753" lon="12.27233">
        <ele>51.910659</ele>
        <time>2020-08-13T10:06:24.843Z</time>
      </trkpt>
      <trkpt lat="65.51765" lon="12.27243">
        <ele>52.103698</ele>
        <time>2020-08-13T10:06:27.878Z</time>
      </trkpt>
      <trkpt lat="65.51776" lon="12.27253">
        <ele>52.292337</ele>
        <time>2020-08-13T10:06:30.882Z</time>
      </trkpt>
      <trkpt lat="65.51787" lon="12.27263">
        <ele>52.474391</ele>
        <time>2020-08-13T10:06:33.895Z</time>
      </trkpt>
      <trkpt lat="65.51797" lon="12.27274">
        <ele>52.647384</ele>
        <time>2020-08-13T10:06:36.843Z</time>
      </trkpt>
      <trkpt lat="65.51807" lon="12.27285">
        <ele>52.824157</ele>
        <time>2020-08-13T10:06:39.839Z</time>
      </trkpt>
      <trkpt lat="65.51817" lon="12.27294">
        <ele>52.987595</ele>
        <time>2020-08-13T10:06:42.854Z</time>
      </trkpt>
      <trkpt lat="65.51826" lon="12.27302">
        <ele>53.139223</ele>
        <time>2020-08-13T10:06:45.870Z</time>
      </trkpt>
      <trkpt lat="65.51836" lon="12.27311">
        <ele>53.299036</ele>
        <time>2020-08-13T10:06:48.850Z</time>
      </trkpt>
      <trkpt lat="65.51846" lon="12.27319">
        <ele>53.461003</ele>
        <time>2020-08-13T10:06:51.864Z</time>
      </trkpt>
      <trkpt lat="65.51855" lon="12.27328">
        <ele>53.620109</ele>
        <time>2020-08-13T10:06:54.864Z</time>
      </trkpt>
      <trkpt lat="65.51864" lon="12.27338">
        <ele>53.779302</ele>
        <time>2020-08-13T10:06:57.847Z</time>
      </trkpt>
      <trkpt lat="65.51874" lon="12.27348">
        <ele>53.93646</ele>
        <time>2020-08-13T10:07:00.862Z</time>
      </trkpt>
      <trkpt lat="65.51884" lon="12.27359">
        <ele>54.106975</ele>
        <time>2020-08-13T10:07:03.867Z</time>
      </trkpt>
      <trkpt lat="65.51893" lon="12.2737">
        <ele>54.269274</ele>
        <time>2020-08-13T10:07:06.878Z</time>
      </trkpt>
      <trkpt lat="65.51902" lon="12.27382">
        <ele>54.427739</ele>
        <time>2020-08-13T10:07:09.842Z</time>
      </trkpt>
      <trkpt lat="65.51911" lon="12.27393">
        <ele>54.584898</ele>
        <time>2020-08-13T10:07:12.863Z</time>
      </trkpt>
      <trkpt lat="65.5192" lon="12.27407">
        <ele>54.600281</ele>
        <time>2020-08-13T10:07:15.845Z</time>
      </trkpt>
      <trkpt lat="65.51929" lon="12.27424">
        <ele>54.468018</ele>
        <time>2020-08-13T10:07:18.884Z</time>
      </trkpt>
      <trkpt lat="65.51938" lon="12.2744">
        <ele>54.339337</ele>
        <time>2020-08-13T10:07:21.844Z</time>
      </trkpt>
      <trkpt lat="65.51947" lon="12.27455">
        <ele>54.21319</ele>
        <time>2020-08-13T10:07:24.850Z</time>
      </trkpt>
      <trkpt lat="65.51956" lon="12.27471">
        <ele>54.086269</ele>
        <time>2020-08-13T10:07:27.863Z</time>
      </trkpt>
      <trkpt lat="65.51965" lon="12.27487">
        <ele>53.959063</ele>
        <time>2020-08-13T10:07:30.850Z</time>
      </trkpt>
      <trkpt lat="65.51973" lon="12.27502">
        <ele>53.843958</ele>
        <time>2020-08-13T10:07:33.862Z</time>
      </trkpt>
      <trkpt lat="65.51982" lon="12.27515">
        <ele>53.727703</ele>
        <time>2020-08-13T10:07:36.858Z</time>
      </trkpt>
      <trkpt lat="65.51991" lon="12.27525">
        <ele>53.609574</ele>
        <time>2020-08-13T10:07:39.848Z</time>
      </trkpt>
      <trkpt lat="65.52002" lon="12.27533">
        <ele>53.485008</ele>
        <time>2020-08-13T10:07:42.860Z</time>
      </trkpt>
      <trkpt lat="65.52013" lon="12.27538">
        <ele>53.355329</ele>
        <time>2020-08-13T10:07:45.837Z</time>
      </trkpt>
      <trkpt lat="65.52025" lon="12.27538">
        <ele>53.22323</ele>
        <time>2020-08-13T10:07:48.882Z</time>
      </trkpt>
      <trkpt lat="65.52036" lon="12.27532">
        <ele>53.088726</ele>
        <time>2020-08-13T10:07:51.852Z</time>
      </trkpt>
      <trkpt lat="65.52048" lon="12.27521">
        <ele>52.939606</ele>
        <time>2020-08-13T10:07:54.850Z</time>
      </trkpt>
      <trkpt lat="65.52061" lon="12.27509">
        <ele>52.78838</ele>
        <time>2020-08-13T10:07:57.860Z</time>
      </trkpt>
      <trkpt lat="65.52073" lon="12.27496">
        <ele>52.636063</ele>
        <time>2020-08-13T10:08:00.850Z</time>
      </trkpt>
      <trkpt lat="65.52085" lon="12.27484">
        <ele>52.451677</ele>
        <time>2020-08-13T10:08:03.889Z</time>
      </trkpt>
      <trkpt lat="65.52094" lon="12.27476">
        <ele>52.319573</ele>
        <time>2020-08-13T10:08:05.861Z</time>
      </trkpt>
      <trkpt lat="65.52102" lon="12.27467">
        <ele>52.190797</ele>
        <time>2020-08-13T10:08:07.857Z</time>
      </trkpt>
      <trkpt lat="65.52111" lon="12.2746">
        <ele>52.058812</ele>
        <time>2020-08-13T10:08:09.889Z</time>
      </trkpt>
      <trkpt lat="65.5212" lon="12.27452">
        <ele>51.924678</ele>
        <time>2020-08-13T10:08:11.860Z</time>
      </trkpt>
      <trkpt lat="65.52129" lon="12.27444">
        <ele>51.786105</ele>
        <time>2020-08-13T10:08:13.869Z</time>
      </trkpt>
      <trkpt lat="65.52138" lon="12.27436">
        <ele>51.648876</ele>
        <time>2020-08-13T10:08:15.840Z</time>
      </trkpt>
      <trkpt lat="65.52147" lon="12.27429">
        <ele>51.510855</ele>
        <time>2020-08-13T10:08:17.865Z</time>
      </trkpt>
      <trkpt lat="65.52156" lon="12.27423">
        <ele>51.374653</ele>
        <time>2020-08-13T10:08:19.882Z</time>
      </trkpt>
      <trkpt lat="65.52165" lon="12.27418">
        <ele>51.237929</ele>
        <time>2020-08-13T10:08:21.871Z</time>
      </trkpt>
      <trkpt lat="65.52175" lon="12.27413">
        <ele>51.093789</ele>
        <time>2020-08-13T10:08:23.857Z</time>
      </trkpt>
      <trkpt lat="65.52185" lon="12.27409">
        <ele>50.94802</ele>
        <time>2020-08-13T10:08:25.859Z</time>
      </trkpt>
      <trkpt lat="65.52195" lon="12.27405">
        <ele>50.80211</ele>
        <time>2020-08-13T10:08:27.871Z</time>
      </trkpt>
      <trkpt lat="65.52206" lon="12.27403">
        <ele>50.655293</ele>
        <time>2020-08-13T10:08:29.861Z</time>
      </trkpt>
      <trkpt lat="65.52216" lon="12.274">
        <ele>50.505753</ele>
        <time>2020-08-13T10:08:31.856Z</time>
      </trkpt>
      <trkpt lat="65.52227" lon="12.27397">
        <ele>50.349035</ele>
        <time>2020-08-13T10:08:33.877Z</time>
      </trkpt>
      <trkpt lat="65.52239" lon="12.27396">
        <ele>50.171362</ele>
        <time>2020-08-13T10:08:35.878Z</time>
      </trkpt>
      <trkpt lat="65.52252" lon="12.27396">
        <ele>50.012273</ele>
        <time>2020-08-13T10:08:37.861Z</time>
      </trkpt>
      <trkpt lat="65.52264" lon="12.27395">
        <ele>49.907327</ele>
        <time>2020-08-13T10:08:39.858Z</time>
      </trkpt>
      <trkpt lat="65.52275" lon="12.27391">
        <ele>49.807975</ele>
        <time>2020-08-13T10:08:41.923Z</time>
      </trkpt>
      <trkpt lat="65.52286" lon="12.27385">
        <ele>49.710995</ele>
        <time>2020-08-13T10:08:43.867Z</time>
      </trkpt>
      <trkpt lat="65.52296" lon="12.27377">
        <ele>49.617394</ele>
        <time>2020-08-13T10:08:45.849Z</time>
      </trkpt>
      <trkpt lat="65.52305" lon="12.27368">
        <ele>49.526033</ele>
        <time>2020-08-13T10:08:47.841Z</time>
      </trkpt>
      <trkpt lat="65.52314" lon="12.27358">
        <ele>49.438438</ele>
        <time>2020-08-13T10:08:49.852Z</time>
      </trkpt>
      <trkpt lat="65.52323" lon="12.27346">
        <ele>49.350204</ele>
        <time>2020-08-13T10:08:51.866Z</time>
      </trkpt>
      <trkpt lat="65.52331" lon="12.27334">
        <ele>49.265575</ele>
        <time>2020-08-13T10:08:53.857Z</time>
      </trkpt>
      <trkpt lat="65.52339" lon="12.27321">
        <ele>49.184068</ele>
        <time>2020-08-13T10:08:55.836Z</time>
      </trkpt>
      <trkpt lat="65.52346" lon="12.27308">
        <ele>49.101501</ele>
        <time>2020-08-13T10:08:57.858Z</time>
      </trkpt>
      <trkpt lat="65.52357" lon="12.27288">
        <ele>48.984639</ele>
        <time>2020-08-13T10:09:00.856Z</time>
      </trkpt>
      <trkpt lat="65.52367" lon="12.27267">
        <ele>48.867093</ele>
        <time>2020-08-13T10:09:03.845Z</time>
      </trkpt>
      <trkpt lat="65.52374" lon="12.27252">
        <ele>48.787269</ele>
        <time>2020-08-13T10:09:05.865Z</time>
      </trkpt>
      <trkpt lat="65.52381" lon="12.27237">
        <ele>48.703375</ele>
        <time>2020-08-13T10:09:07.857Z</time>
      </trkpt>
      <trkpt lat="65.52388" lon="12.27221">
        <ele>48.617844</ele>
        <time>2020-08-13T10:09:09.845Z</time>
      </trkpt>
      <trkpt lat="65.52396" lon="12.27205">
        <ele>48.529323</ele>
        <time>2020-08-13T10:09:11.868Z</time>
      </trkpt>
      <trkpt lat="65.52404" lon="12.2719">
        <ele>48.500229</ele>
        <time>2020-08-13T10:09:13.904Z</time>
      </trkpt>
      <trkpt lat="65.52413" lon="12.27174">
        <ele>48.650032</ele>
        <time>2020-08-13T10:09:15.850Z</time>
      </trkpt>
      <trkpt lat="65.52423" lon="12.27161">
        <ele>48.799044</ele>
        <time>2020-08-13T10:09:17.859Z</time>
      </trkpt>
      <trkpt lat="65.52432" lon="12.27148">
        <ele>48.945533</ele>
        <time>2020-08-13T10:09:19.877Z</time>
      </trkpt>
      <trkpt lat="65.52441" lon="12.27137">
        <ele>49.08938</ele>
        <time>2020-08-13T10:09:21.865Z</time>
      </trkpt>
      <trkpt lat="65.52451" lon="12.27126">
        <ele>49.229046</ele>
        <time>2020-08-13T10:09:23.869Z</time>
      </trkpt>
      <trkpt lat="65.5246" lon="12.27116">
        <ele>49.369954</ele>
        <time>2020-08-13T10:09:25.854Z</time>
      </trkpt>
      <trkpt lat="65.5247" lon="12.27105">
        <ele>49.514286</ele>
        <time>2020-08-13T10:09:27.849Z</time>
      </trkpt>
      <trkpt lat="65.52479" lon="12.27094">
        <ele>49.653203</ele>
        <time>2020-08-13T10:09:29.863Z</time>
      </trkpt>
      <trkpt lat="65.52488" lon="12.27083">
        <ele>49.788994</ele>
        <time>2020-08-13T10:09:31.842Z</time>
      </trkpt>
      <trkpt lat="65.52496" lon="12.27071">
        <ele>49.925855</ele>
        <time>2020-08-13T10:09:33.877Z</time>
      </trkpt>
      <trkpt lat="65.52505" lon="12.2706">
        <ele>50.059778</ele>
        <time>2020-08-13T10:09:35.851Z</time>
      </trkpt>
      <trkpt lat="65.52514" lon="12.27049">
        <ele>50.193314</ele>
        <time>2020-08-13T10:09:37.836Z</time>
      </trkpt>
      <trkpt lat="65.52522" lon="12.27038">
        <ele>50.324575</ele>
        <time>2020-08-13T10:09:39.841Z</time>
      </trkpt>
      <trkpt lat="65.5253" lon="12.27027">
        <ele>50.4529</ele>
        <time>2020-08-13T10:09:41.838Z</time>
      </trkpt>
      <trkpt lat="65.52539" lon="12.27016">
        <ele>50.582976</ele>
        <time>2020-08-13T10:09:43.862Z</time>
      </trkpt>
      <trkpt lat="65.52547" lon="12.27005">
        <ele>50.711579</ele>
        <time>2020-08-13T10:09:45.853Z</time>
      </trkpt>
      <trkpt lat="65.52555" lon="12.26995">
        <ele>50.837614</ele>
        <time>2020-08-13T10:09:47.838Z</time>
      </trkpt>
      <trkpt lat="65.52563" lon="12.26985">
        <ele>50.919828</ele>
        <time>2020-08-13T10:09:49.856Z</time>
      </trkpt>
      <trkpt lat="65.52575" lon="12.2697">
        <ele>50.938343</ele>
        <time>2020-08-13T10:09:52.870Z</time>
      </trkpt>
      <trkpt lat="65.52583" lon="12.2696">
        <ele>50.951199</ele>
        <time>2020-08-13T10:09:54.864Z</time>
      </trkpt>
      <trkpt lat="65.52592" lon="12.26949">
        <ele>50.964851</ele>
        <time>2020-08-13T10:09:56.854Z</time>
      </trkpt>
      <trkpt lat="65.526" lon="12.26938">
        <ele>50.977589</ele>
        <time>2020-08-13T10:09:58.861Z</time>
      </trkpt>
      <trkpt lat="65.52612" lon="12.26924">
        <ele>50.995884</ele>
        <time>2020-08-13T10:10:01.869Z</time>
      </trkpt>
      <trkpt lat="65.52624" lon="12.26913">
        <ele>51.013785</ele>
        <time>2020-08-13T10:10:04.845Z</time>
      </trkpt>
      <trkpt lat="65.52636" lon="12.26904">
        <ele>51.031905</ele>
        <time>2020-08-13T10:10:07.854Z</time>
      </trkpt>
      <trkpt lat="65.52647" lon="12.26896">
        <ele>51.048423</ele>
        <time>2020-08-13T10:10:10.886Z</time>
      </trkpt>
      <trkpt lat="65.5266" lon="12.26887">
        <ele>51.066596</ele>
        <time>2020-08-13T10:10:13.850Z</time>
      </trkpt>
      <trkpt lat="65.52669" lon="12.26883">
        <ele>51.079953</ele>
        <time>2020-08-13T10:10:15.851Z</time>
      </trkpt>
      <trkpt lat="65.52679" lon="12.26879">
        <ele>51.093498</ele>
        <time>2020-08-13T10:10:17.862Z</time>
      </trkpt>
      <trkpt lat="65.52688" lon="12.26876">
        <ele>51.106386</ele>
        <time>2020-08-13T10:10:19.882Z</time>
      </trkpt>
      <trkpt lat="65.52698" lon="12.26874">
        <ele>51.119394</ele>
        <time>2020-08-13T10:10:21.857Z</time>
      </trkpt>
      <trkpt lat="65.52707" lon="12.26871">
        <ele>51.132414</ele>
        <time>2020-08-13T10:10:23.861Z</time>
      </trkpt>
      <trkpt lat="65.52717" lon="12.2687">
        <ele>51.146068</ele>
        <time>2020-08-13T10:10:25.875Z</time>
      </trkpt>
      <trkpt lat="65.52727" lon="12.26869">
        <ele>51.160681</ele>
        <time>2020-08-13T10:10:27.895Z</time>
      </trkpt>
      <trkpt lat="65.52737" lon="12.26869">
        <ele>51.058473</ele>
        <time>2020-08-13T10:10:29.867Z</time>
      </trkpt>
      <trkpt lat="65.52747" lon="12.26868">
        <ele>50.897106</ele>
        <time>2020-08-13T10:10:31.855Z</time>
      </trkpt>
      <trkpt lat="65.52758" lon="12.26867">
        <ele>50.724487</ele>
        <time>2020-08-13T10:10:33.839Z</time>
      </trkpt>
      <trkpt lat="65.52769" lon="12.26866">
        <ele>50.551786</ele>
        <time>2020-08-13T10:10:35.868Z</time>
      </trkpt>
      <trkpt lat="65.52779" lon="12.26865">
        <ele>50.384023</ele>
        <time>2020-08-13T10:10:37.859Z</time>
      </trkpt>
      <trkpt lat="65.52789" lon="12.26865">
        <ele>50.217909</ele>
        <time>2020-08-13T10:10:39.862Z</time>
      </trkpt>
      <trkpt lat="65.528" lon="12.26864">
        <ele>50.050039</ele>
        <time>2020-08-13T10:10:41.868Z</time>
      </trkpt>
      <trkpt lat="65.5281" lon="12.26862">
        <ele>49.883672</ele>
        <time>2020-08-13T10:10:43.860Z</time>
      </trkpt>
      <trkpt lat="65.52821" lon="12.26861">
        <ele>49.709389</ele>
        <time>2020-08-13T10:10:45.853Z</time>
      </trkpt>
      <trkpt lat="65.52832" lon="12.2686">
        <ele>49.535134</ele>
        <time>2020-08-13T10:10:47.843Z</time>
      </trkpt>
      <trkpt lat="65.52842" lon="12.26858">
        <ele>49.362289</ele>
        <time>2020-08-13T10:10:49.896Z</time>
      </trkpt>
      <trkpt lat="65.52853" lon="12.26857">
        <ele>49.189443</ele>
        <time>2020-08-13T10:10:51.870Z</time>
      </trkpt>
      <trkpt lat="65.52864" lon="12.26855">
        <ele>49.014989</ele>
        <time>2020-08-13T10:10:53.868Z</time>
      </trkpt>
      <trkpt lat="65.52874" lon="12.26853">
        <ele>48.843616</ele>
        <time>2020-08-13T10:10:55.851Z</time>
      </trkpt>
      <trkpt lat="65.52885" lon="12.26852">
        <ele>48.670728</ele>
        <time>2020-08-13T10:10:57.846Z</time>
      </trkpt>
      <trkpt lat="65.52896" lon="12.26851">
        <ele>48.494885</ele>
        <time>2020-08-13T10:10:59.859Z</time>
      </trkpt>
      <trkpt lat="65.52907" lon="12.26849">
        <ele>48.315742</ele>
        <time>2020-08-13T10:11:01.853Z</time>
      </trkpt>
      <trkpt lat="65.52918" lon="12.26848">
        <ele>48.135351</ele>
        <time>2020-08-13T10:11:03.837Z</time>
      </trkpt>
      <trkpt lat="65.52929" lon="12.26847">
        <ele>47.960367</ele>
        <time>2020-08-13T10:11:05.845Z</time>
      </trkpt>
      <trkpt lat="65.52941" lon="12.26845">
        <ele>47.782097</ele>
        <time>2020-08-13T10:11:07.916Z</time>
      </trkpt>
      <trkpt lat="65.52952" lon="12.26843">
        <ele>47.598939</ele>
        <time>2020-08-13T10:11:09.844Z</time>
      </trkpt>
      <trkpt lat="65.52964" lon="12.26842">
        <ele>47.412937</ele>
        <time>2020-08-13T10:11:11.856Z</time>
      </trkpt>
      <trkpt lat="65.52976" lon="12.26842">
        <ele>47.227057</ele>
        <time>2020-08-13T10:11:13.849Z</time>
      </trkpt>
      <trkpt lat="65.52987" lon="12.2684">
        <ele>47.037762</ele>
        <time>2020-08-13T10:11:15.870Z</time>
      </trkpt>
      <trkpt lat="65.52999" lon="12.26839">
        <ele>46.848466</ele>
        <time>2020-08-13T10:11:17.850Z</time>
      </trkpt>
      <trkpt lat="65.53011" lon="12.26837">
        <ele>46.665439</ele>
        <time>2020-08-13T10:11:19.871Z</time>
      </trkpt>
      <trkpt lat="65.53023" lon="12.26835">
        <ele>46.475988</ele>
        <time>2020-08-13T10:11:21.840Z</time>
      </trkpt>
      <trkpt lat="65.53035" lon="12.26833">
        <ele>46.281862</ele>
        <time>2020-08-13T10:11:23.865Z</time>
      </trkpt>
      <trkpt lat="65.53047" lon="12.26832">
        <ele>46.087839</ele>
        <time>2020-08-13T10:11:25.845Z</time>
      </trkpt>
      <trkpt lat="65.53059" lon="12.2683">
        <ele>45.900015</ele>
        <time>2020-08-13T10:11:27.846Z</time>
      </trkpt>
      <trkpt lat="65.53071" lon="12.26828">
        <ele>45.712192</ele>
        <time>2020-08-13T10:11:29.898Z</time>
      </trkpt>
      <trkpt lat="65.53082" lon="12.26827">
        <ele>45.526189</ele>
        <time>2020-08-13T10:11:31.848Z</time>
      </trkpt>
      <trkpt lat="65.53095" lon="12.26826">
        <ele>45.489492</ele>
        <time>2020-08-13T10:11:33.854Z</time>
      </trkpt>
      <trkpt lat="65.53107" lon="12.26824">
        <ele>45.700608</ele>
        <time>2020-08-13T10:11:35.885Z</time>
      </trkpt>
      <trkpt lat="65.53119" lon="12.26823">
        <ele>45.911347</ele>
        <time>2020-08-13T10:11:37.859Z</time>
      </trkpt>
      <trkpt lat="65.53131" lon="12.26822">
        <ele>46.125556</ele>
        <time>2020-08-13T10:11:39.848Z</time>
      </trkpt>
      <trkpt lat="65.53144" lon="12.26821">
        <ele>46.336473</ele>
        <time>2020-08-13T10:11:41.850Z</time>
      </trkpt>
      <trkpt lat="65.53156" lon="12.26819">
        <ele>46.550992</ele>
        <time>2020-08-13T10:11:43.857Z</time>
      </trkpt>
      <trkpt lat="65.53168" lon="12.26817">
        <ele>46.758533</ele>
        <time>2020-08-13T10:11:45.858Z</time>
      </trkpt>
      <trkpt lat="65.5318" lon="12.26817">
        <ele>46.958913</ele>
        <time>2020-08-13T10:11:47.841Z</time>
      </trkpt>
      <trkpt lat="65.53191" lon="12.26815">
        <ele>47.154307</ele>
        <time>2020-08-13T10:11:49.890Z</time>
      </trkpt>
      <trkpt lat="65.53202" lon="12.26815">
        <ele>47.342558</ele>
        <time>2020-08-13T10:11:51.860Z</time>
      </trkpt>
      <trkpt lat="65.53213" lon="12.26816">
        <ele>47.529369</ele>
        <time>2020-08-13T10:11:53.882Z</time>
      </trkpt>
      <trkpt lat="65.53223" lon="12.26818">
        <ele>47.712732</ele>
        <time>2020-08-13T10:11:55.842Z</time>
      </trkpt>
      <trkpt lat="65.53233" lon="12.2682">
        <ele>47.891016</ele>
        <time>2020-08-13T10:11:57.864Z</time>
      </trkpt>
      <trkpt lat="65.53244" lon="12.26821">
        <ele>48.076103</ele>
        <time>2020-08-13T10:11:59.848Z</time>
      </trkpt>
      <trkpt lat="65.53254" lon="12.26823">
        <ele>48.252529</ele>
        <time>2020-08-13T10:12:01.863Z</time>
      </trkpt>
      <trkpt lat="65.53264" lon="12.26825">
        <ele>48.426374</ele>
        <time>2020-08-13T10:12:03.857Z</time>
      </trkpt>
      <trkpt lat="65.53275" lon="12.26829">
        <ele>48.627342</ele>
        <time>2020-08-13T10:12:05.845Z</time>
      </trkpt>
      <trkpt lat="65.53284" lon="12.26832">
        <ele>48.840317</ele>
        <time>2020-08-13T10:12:07.854Z</time>
      </trkpt>
      <trkpt lat="65.53294" lon="12.26834">
        <ele>49.050486</ele>
        <time>2020-08-13T10:12:09.842Z</time>
      </trkpt>
      <trkpt lat="65.53304" lon="12.26836">
        <ele>49.275034</ele>
        <time>2020-08-13T10:12:11.867Z</time>
      </trkpt>
      <trkpt lat="65.53314" lon="12.26837">
        <ele>49.493175</ele>
        <time>2020-08-13T10:12:13.837Z</time>
      </trkpt>
      <trkpt lat="65.53323" lon="12.26839">
        <ele>49.696053</ele>
        <time>2020-08-13T10:12:15.860Z</time>
      </trkpt>
      <trkpt lat="65.53336" lon="12.26841">
        <ele>49.979774</ele>
        <time>2020-08-13T10:12:18.843Z</time>
      </trkpt>
      <trkpt lat="65.5335" lon="12.26844">
        <ele>50.268817</ele>
        <time>2020-08-13T10:12:21.846Z</time>
      </trkpt>
      <trkpt lat="65.53362" lon="12.26848">
        <ele>50.545093</ele>
        <time>2020-08-13T10:12:24.858Z</time>
      </trkpt>
      <trkpt lat="65.53375" lon="12.26852">
        <ele>50.834136</ele>
        <time>2020-08-13T10:12:27.878Z</time>
      </trkpt>
      <trkpt lat="65.53385" lon="12.26854">
        <ele>51.033812</ele>
        <time>2020-08-13T10:12:29.855Z</time>
      </trkpt>
      <trkpt lat="65.53393" lon="12.26857">
        <ele>51.229055</ele>
        <time>2020-08-13T10:12:31.898Z</time>
      </trkpt>
      <trkpt lat="65.53403" lon="12.26859">
        <ele>51.431933</ele>
        <time>2020-08-13T10:12:33.863Z</time>
      </trkpt>
      <trkpt lat="65.53416" lon="12.26861">
        <ele>51.717825</ele>
        <time>2020-08-13T10:12:36.855Z</time>
      </trkpt>
      <trkpt lat="65.53428" lon="12.26864">
        <ele>51.982238</ele>
        <time>2020-08-13T10:12:39.885Z</time>
      </trkpt>
      <trkpt lat="65.5344" lon="12.26867">
        <ele>52.256141</ele>
        <time>2020-08-13T10:12:42.843Z</time>
      </trkpt>
      <trkpt lat="65.53453" lon="12.2687">
        <ele>52.408941</ele>
        <time>2020-08-13T10:12:45.850Z</time>
      </trkpt>
      <trkpt lat="65.53466" lon="12.26872">
        <ele>52.353805</ele>
        <time>2020-08-13T10:12:48.863Z</time>
      </trkpt>
      <trkpt lat="65.53475" lon="12.26874">
        <ele>52.315315</ele>
        <time>2020-08-13T10:12:50.870Z</time>
      </trkpt>
      <trkpt lat="65.53484" lon="12.26876">
        <ele>52.275504</ele>
        <time>2020-08-13T10:12:52.862Z</time>
      </trkpt>
      <trkpt lat="65.53493" lon="12.26878">
        <ele>52.237406</ele>
        <time>2020-08-13T10:12:54.861Z</time>
      </trkpt>
      <trkpt lat="65.53507" lon="12.26881">
        <ele>52.180479</ele>
        <time>2020-08-13T10:12:57.861Z</time>
      </trkpt>
      <trkpt lat="65.53519" lon="12.26884">
        <ele>52.125266</ele>
        <time>2020-08-13T10:13:00.887Z</time>
      </trkpt>
      <trkpt lat="65.53532" lon="12.26888">
        <ele>52.072117</ele>
        <time>2020-08-13T10:13:03.856Z</time>
      </trkpt>
      <trkpt lat="65.53545" lon="12.2689">
        <ele>52.016584</ele>
        <time>2020-08-13T10:13:06.853Z</time>
      </trkpt>
      <trkpt lat="65.53558" lon="12.26892">
        <ele>51.961913</ele>
        <time>2020-08-13T10:13:09.845Z</time>
      </trkpt>
      <trkpt lat="65.5357" lon="12.26896">
        <ele>51.908215</ele>
        <time>2020-08-13T10:13:12.847Z</time>
      </trkpt>
      <trkpt lat="65.53583" lon="12.26898">
        <ele>51.852269</ele>
        <time>2020-08-13T10:13:15.837Z</time>
      </trkpt>
      <trkpt lat="65.53597" lon="12.26902">
        <ele>51.795308</ele>
        <time>2020-08-13T10:13:18.863Z</time>
      </trkpt>
      <trkpt lat="65.53609" lon="12.26904">
        <ele>51.743962</ele>
        <time>2020-08-13T10:13:21.849Z</time>
      </trkpt>
      <trkpt lat="65.53619" lon="12.26906">
        <ele>51.701276</ele>
        <time>2020-08-13T10:13:23.858Z</time>
      </trkpt>
      <trkpt lat="65.53628" lon="12.26908">
        <ele>51.666367</ele>
        <time>2020-08-13T10:13:25.866Z</time>
      </trkpt>
      <trkpt lat="65.53642" lon="12.26911">
        <ele>51.746255</ele>
        <time>2020-08-13T10:13:28.849Z</time>
      </trkpt>
      <trkpt lat="65.53654" lon="12.26914">
        <ele>51.82031</ele>
        <time>2020-08-13T10:13:31.860Z</time>
      </trkpt>
      <trkpt lat="65.53666" lon="12.26918">
        <ele>51.89378</ele>
        <time>2020-08-13T10:13:34.837Z</time>
      </trkpt>
      <trkpt lat="65.53679" lon="12.26921">
        <ele>51.966638</ele>
        <time>2020-08-13T10:13:37.857Z</time>
      </trkpt>
      <trkpt lat="65.53691" lon="12.26925">
        <ele>52.042035</ele>
        <time>2020-08-13T10:13:40.870Z</time>
      </trkpt>
      <trkpt lat="65.53704" lon="12.26928">
        <ele>52.117772</ele>
        <time>2020-08-13T10:13:43.871Z</time>
      </trkpt>
      <trkpt lat="65.53716" lon="12.26929">
        <ele>52.189075</ele>
        <time>2020-08-13T10:13:46.870Z</time>
      </trkpt>
      <trkpt lat="65.5373" lon="12.26931">
        <ele>52.267587</ele>
        <time>2020-08-13T10:13:49.847Z</time>
      </trkpt>
      <trkpt lat="65.53739" lon="12.26933">
        <ele>52.321359</ele>
        <time>2020-08-13T10:13:51.847Z</time>
      </trkpt>
      <trkpt lat="65.53752" lon="12.26936">
        <ele>52.398422</ele>
        <time>2020-08-13T10:13:54.897Z</time>
      </trkpt>
      <trkpt lat="65.53764" lon="12.26941">
        <ele>52.472748</ele>
        <time>2020-08-13T10:13:57.845Z</time>
      </trkpt>
      <trkpt lat="65.53777" lon="12.26945">
        <ele>52.551363</ele>
        <time>2020-08-13T10:14:00.850Z</time>
      </trkpt>
      <trkpt lat="65.53791" lon="12.2695">
        <ele>52.631254</ele>
        <time>2020-08-13T10:14:03.858Z</time>
      </trkpt>
      <trkpt lat="65.538" lon="12.26954">
        <ele>52.687926</ele>
        <time>2020-08-13T10:14:05.876Z</time>
      </trkpt>
      <trkpt lat="65.5381" lon="12.26958">
        <ele>52.626684</ele>
        <time>2020-08-13T10:14:07.867Z</time>
      </trkpt>
      <trkpt lat="65.5382" lon="12.26961">
        <ele>52.37176</ele>
        <time>2020-08-13T10:14:09.852Z</time>
      </trkpt>
      <trkpt lat="65.5383" lon="12.26965">
        <ele>52.113656</ele>
        <time>2020-08-13T10:14:11.843Z</time>
      </trkpt>
      <trkpt lat="65.53841" lon="12.26968">
        <ele>51.848638</ele>
        <time>2020-08-13T10:14:13.848Z</time>
      </trkpt>
      <trkpt lat="65.53851" lon="12.26971">
        <ele>51.591766</ele>
        <time>2020-08-13T10:14:15.905Z</time>
      </trkpt>
      <trkpt lat="65.53862" lon="12.26974">
        <ele>51.337233</ele>
        <time>2020-08-13T10:14:17.859Z</time>
      </trkpt>
      <trkpt lat="65.53872" lon="12.26977">
        <ele>51.072352</ele>
        <time>2020-08-13T10:14:19.896Z</time>
      </trkpt>
      <trkpt lat="65.53883" lon="12.26982">
        <ele>50.793876</ele>
        <time>2020-08-13T10:14:21.838Z</time>
      </trkpt>
      <trkpt lat="65.53894" lon="12.26986">
        <ele>50.513114</ele>
        <time>2020-08-13T10:14:23.849Z</time>
      </trkpt>
      <trkpt lat="65.53906" lon="12.2699">
        <ele>50.219798</ele>
        <time>2020-08-13T10:14:25.871Z</time>
      </trkpt>
      <trkpt lat="65.53918" lon="12.26995">
        <ele>49.914084</ele>
        <time>2020-08-13T10:14:27.843Z</time>
      </trkpt>
      <trkpt lat="65.5393" lon="12.26999">
        <ele>49.615872</ele>
        <time>2020-08-13T10:14:29.842Z</time>
      </trkpt>
      <trkpt lat="65.53942" lon="12.27004">
        <ele>49.317342</ele>
        <time>2020-08-13T10:14:31.872Z</time>
      </trkpt>
      <trkpt lat="65.53954" lon="12.27008">
        <ele>49.028758</ele>
        <time>2020-08-13T10:14:33.857Z</time>
      </trkpt>
      <trkpt lat="65.53965" lon="12.27012">
        <ele>48.753354</ele>
        <time>2020-08-13T10:14:35.850Z</time>
      </trkpt>
      <trkpt lat="65.53974" lon="12.27018">
        <ele>48.508711</ele>
        <time>2020-08-13T10:14:37.868Z</time>
      </trkpt>
      <trkpt lat="65.53985" lon="12.27021">
        <ele>48.281163</ele>
        <time>2020-08-13T10:14:39.864Z</time>
      </trkpt>
      <trkpt lat="65.53995" lon="12.27024">
        <ele>48.393299</ele>
        <time>2020-08-13T10:14:41.839Z</time>
      </trkpt>
      <trkpt lat="65.54004" lon="12.27026">
        <ele>48.493132</ele>
        <time>2020-08-13T10:14:43.900Z</time>
      </trkpt>
      <trkpt lat="65.54017" lon="12.27031">
        <ele>48.632133</ele>
        <time>2020-08-13T10:14:46.857Z</time>
      </trkpt>
      <trkpt lat="65.54028" lon="12.27035">
        <ele>48.758581</ele>
        <time>2020-08-13T10:14:49.855Z</time>
      </trkpt>
      <trkpt lat="65.54039" lon="12.2704">
        <ele>48.8824</ele>
        <time>2020-08-13T10:14:52.858Z</time>
      </trkpt>
      <trkpt lat="65.5405" lon="12.27044">
        <ele>49.001796</ele>
        <time>2020-08-13T10:14:55.849Z</time>
      </trkpt>
      <trkpt lat="65.5406" lon="12.27048">
        <ele>49.119171</ele>
        <time>2020-08-13T10:14:58.848Z</time>
      </trkpt>
      <trkpt lat="65.54071" lon="12.27051">
        <ele>49.2324</ele>
        <time>2020-08-13T10:15:01.855Z</time>
      </trkpt>
      <trkpt lat="65.54081" lon="12.27055">
        <ele>49.345936</ele>
        <time>2020-08-13T10:15:04.851Z</time>
      </trkpt>
      <trkpt lat="65.54093" lon="12.27057">
        <ele>49.476361</ele>
        <time>2020-08-13T10:15:07.865Z</time>
      </trkpt>
      <trkpt lat="65.54104" lon="12.27059">
        <ele>49.602021</ele>
        <time>2020-08-13T10:15:10.857Z</time>
      </trkpt>
      <trkpt lat="65.54114" lon="12.27062">
        <ele>49.71787</ele>
        <time>2020-08-13T10:15:13.857Z</time>
      </trkpt>
      <trkpt lat="65.54125" lon="12.27065">
        <ele>49.832082</ele>
        <time>2020-08-13T10:15:16.838Z</time>
      </trkpt>
      <trkpt lat="65.54135" lon="12.27068">
        <ele>49.943185</ele>
        <time>2020-08-13T10:15:19.842Z</time>
      </trkpt>
      <trkpt lat="65.54145" lon="12.27072">
        <ele>50.055631</ele>
        <time>2020-08-13T10:15:22.854Z</time>
      </trkpt>
      <trkpt lat="65.54155" lon="12.27077">
        <ele>50.172424</ele>
        <time>2020-08-13T10:15:25.884Z</time>
      </trkpt>
      <trkpt lat="65.54166" lon="12.27081">
        <ele>50.26874</ele>
        <time>2020-08-13T10:15:28.894Z</time>
      </trkpt>
      <trkpt lat="65.54177" lon="12.27084">
        <ele>50.331959</ele>
        <time>2020-08-13T10:15:31.874Z</time>
      </trkpt>
      <trkpt lat="65.54188" lon="12.27088">
        <ele>50.395941</ele>
        <time>2020-08-13T10:15:34.872Z</time>
      </trkpt>
      <trkpt lat="65.542" lon="12.27092">
        <ele>50.460098</ele>
        <time>2020-08-13T10:15:37.840Z</time>
      </trkpt>
      <trkpt lat="65.54211" lon="12.27094">
        <ele>50.524136</ele>
        <time>2020-08-13T10:15:40.861Z</time>
      </trkpt>
      <trkpt lat="65.54222" lon="12.27098">
        <ele>50.584822</ele>
        <time>2020-08-13T10:15:43.858Z</time>
      </trkpt>
      <trkpt lat="65.54233" lon="12.27103">
        <ele>50.645654</ele>
        <time>2020-08-13T10:15:46.857Z</time>
      </trkpt>
      <trkpt lat="65.54244" lon="12.27106">
        <ele>50.705016</ele>
        <time>2020-08-13T10:15:49.874Z</time>
      </trkpt>
      <trkpt lat="65.54255" lon="12.27111">
        <ele>50.767491</ele>
        <time>2020-08-13T10:15:52.869Z</time>
      </trkpt>
      <trkpt lat="65.54265" lon="12.27114">
        <ele>50.827375</ele>
        <time>2020-08-13T10:15:55.867Z</time>
      </trkpt>
      <trkpt lat="65.54276" lon="12.27118">
        <ele>50.889708</ele>
        <time>2020-08-13T10:15:58.864Z</time>
      </trkpt>
      <trkpt lat="65.54287" lon="12.27123">
        <ele>50.946881</ele>
        <time>2020-08-13T10:16:01.860Z</time>
      </trkpt>
      <trkpt lat="65.54297" lon="12.27127">
        <ele>51.004898</ele>
        <time>2020-08-13T10:16:04.868Z</time>
      </trkpt>
      <trkpt lat="65.54306" lon="12.27129">
        <ele>51.057975</ele>
        <time>2020-08-13T10:16:07.860Z</time>
      </trkpt>
      <trkpt lat="65.54316" lon="12.27134">
        <ele>51.110251</ele>
        <time>2020-08-13T10:16:10.871Z</time>
      </trkpt>
      <trkpt lat="65.54325" lon="12.27138">
        <ele>51.165857</ele>
        <time>2020-08-13T10:16:13.864Z</time>
      </trkpt>
      <trkpt lat="65.54335" lon="12.2714">
        <ele>51.220567</ele>
        <time>2020-08-13T10:16:16.868Z</time>
      </trkpt>
      <trkpt lat="65.54345" lon="12.27143">
        <ele>51.37314</ele>
        <time>2020-08-13T10:16:19.847Z</time>
      </trkpt>
      <trkpt lat="65.54355" lon="12.27147">
        <ele>51.601329</ele>
        <time>2020-08-13T10:16:22.850Z</time>
      </trkpt>
      <trkpt lat="65.54364" lon="12.27151">
        <ele>51.823488</ele>
        <time>2020-08-13T10:16:25.844Z</time>
      </trkpt>
      <trkpt lat="65.54374" lon="12.27156">
        <ele>52.042051</ele>
        <time>2020-08-13T10:16:28.873Z</time>
      </trkpt>
      <trkpt lat="65.54384" lon="12.27158">
        <ele>52.289103</ele>
        <time>2020-08-13T10:16:31.845Z</time>
      </trkpt>
      <trkpt lat="65.54394" lon="12.27161">
        <ele>52.508809</ele>
        <time>2020-08-13T10:16:34.843Z</time>
      </trkpt>
      <trkpt lat="65.54403" lon="12.27166">
        <ele>52.723043</ele>
        <time>2020-08-13T10:16:37.843Z</time>
      </trkpt>
      <trkpt lat="65.54412" lon="12.27171">
        <ele>52.944285</ele>
        <time>2020-08-13T10:16:40.842Z</time>
      </trkpt>
      <trkpt lat="65.54422" lon="12.27175">
        <ele>53.177694</ele>
        <time>2020-08-13T10:16:43.844Z</time>
      </trkpt>
      <trkpt lat="65.54432" lon="12.27179">
        <ele>53.409519</ele>
        <time>2020-08-13T10:16:46.897Z</time>
      </trkpt>
      <trkpt lat="65.54441" lon="12.27184">
        <ele>53.633028</ele>
        <time>2020-08-13T10:16:49.844Z</time>
      </trkpt>
      <trkpt lat="65.54451" lon="12.27189">
        <ele>53.857831</ele>
        <time>2020-08-13T10:16:52.873Z</time>
      </trkpt>
      <trkpt lat="65.5446" lon="12.27195">
        <ele>54.082381</ele>
        <time>2020-08-13T10:16:55.868Z</time>
      </trkpt>
      <trkpt lat="65.54472" lon="12.27203">
        <ele>54.368707</ele>
        <time>2020-08-13T10:16:59.842Z</time>
      </trkpt>
      <trkpt lat="65.54482" lon="12.27209">
        <ele>54.61656</ele>
        <time>2020-08-13T10:17:02.856Z</time>
      </trkpt>
      <trkpt lat="65.54494" lon="12.27215">
        <ele>54.887493</ele>
        <time>2020-08-13T10:17:05.850Z</time>
      </trkpt>
      <trkpt lat="65.54506" lon="12.27222">
        <ele>55.178454</ele>
        <time>2020-08-13T10:17:08.857Z</time>
      </trkpt>
      <trkpt lat="65.54519" lon="12.27229">
        <ele>55.4368</ele>
        <time>2020-08-13T10:17:11.854Z</time>
      </trkpt>
      <trkpt lat="65.54528" lon="12.27234">
        <ele>55.483827</ele>
        <time>2020-08-13T10:17:13.853Z</time>
      </trkpt>
      <trkpt lat="65.54538" lon="12.27239">
        <ele>55.533345</ele>
        <time>2020-08-13T10:17:15.844Z</time>
      </trkpt>
      <trkpt lat="65.54548" lon="12.27245">
        <ele>55.58302</ele>
        <time>2020-08-13T10:17:17.871Z</time>
      </trkpt>
      <trkpt lat="65.54559" lon="12.27252">
        <ele>55.635965</ele>
        <time>2020-08-13T10:17:19.874Z</time>
      </trkpt>
      <trkpt lat="65.54569" lon="12.27258">
        <ele>55.689141</ele>
        <time>2020-08-13T10:17:21.843Z</time>
      </trkpt>
      <trkpt lat="65.5458" lon="12.27264">
        <ele>55.743641</ele>
        <time>2020-08-13T10:17:23.872Z</time>
      </trkpt>
      <trkpt lat="65.54591" lon="12.27271">
        <ele>55.798462</ele>
        <time>2020-08-13T10:17:25.846Z</time>
      </trkpt>
      <trkpt lat="65.54602" lon="12.27277">
        <ele>55.853006</ele>
        <time>2020-08-13T10:17:27.859Z</time>
      </trkpt>
      <trkpt lat="65.54613" lon="12.27283">
        <ele>55.907358</ele>
        <time>2020-08-13T10:17:29.870Z</time>
      </trkpt>
      <trkpt lat="65.54625" lon="12.2729">
        <ele>55.963496</ele>
        <time>2020-08-13T10:17:31.844Z</time>
      </trkpt>
      <trkpt lat="65.54636" lon="12.27296">
        <ele>56.017996</ele>
        <time>2020-08-13T10:17:33.851Z</time>
      </trkpt>
      <trkpt lat="65.54647" lon="12.27302">
        <ele>56.073335</ele>
        <time>2020-08-13T10:17:35.865Z</time>
      </trkpt>
      <trkpt lat="65.54658" lon="12.27309">
        <ele>56.128304</ele>
        <time>2020-08-13T10:17:37.852Z</time>
      </trkpt>
      <trkpt lat="65.54669" lon="12.27317">
        <ele>56.185399</ele>
        <time>2020-08-13T10:17:39.908Z</time>
      </trkpt>
      <trkpt lat="65.54681" lon="12.27324">
        <ele>56.243699</ele>
        <time>2020-08-13T10:17:41.852Z</time>
      </trkpt>
      <trkpt lat="65.54692" lon="12.2733">
        <ele>56.258862</ele>
        <time>2020-08-13T10:17:43.846Z</time>
      </trkpt>
      <trkpt lat="65.54704" lon="12.27337">
        <ele>55.97419</ele>
        <time>2020-08-13T10:17:45.837Z</time>
      </trkpt>
      <trkpt lat="65.54715" lon="12.27344">
        <ele>55.70065</ele>
        <time>2020-08-13T10:17:47.854Z</time>
      </trkpt>
      <trkpt lat="65.54726" lon="12.2735">
        <ele>55.420855</ele>
        <time>2020-08-13T10:17:49.857Z</time>
      </trkpt>
      <trkpt lat="65.54737" lon="12.27357">
        <ele>55.151442</ele>
        <time>2020-08-13T10:17:51.854Z</time>
      </trkpt>
      <trkpt lat="65.54748" lon="12.27364">
        <ele>54.892025</ele>
        <time>2020-08-13T10:17:53.858Z</time>
      </trkpt>
      <trkpt lat="65.54758" lon="12.27371">
        <ele>54.630791</ele>
        <time>2020-08-13T10:17:55.854Z</time>
      </trkpt>
      <trkpt lat="65.54769" lon="12.27378">
        <ele>54.369797</ele>
        <time>2020-08-13T10:17:57.861Z</time>
      </trkpt>
      <trkpt lat="65.5478" lon="12.27384">
        <ele>54.106723</ele>
        <time>2020-08-13T10:17:59.850Z</time>
      </trkpt>
      <trkpt lat="65.54789" lon="12.27391">
        <ele>53.864226</ele>
        <time>2020-08-13T10:18:01.849Z</time>
      </trkpt>
      <trkpt lat="65.54799" lon="12.27397">
        <ele>53.631469</ele>
        <time>2020-08-13T10:18:03.858Z</time>
      </trkpt>
      <trkpt lat="65.54808" lon="12.27403">
        <ele>53.390479</ele>
        <time>2020-08-13T10:18:05.852Z</time>
      </trkpt>
      <trkpt lat="65.54819" lon="12.27409">
        <ele>53.139711</ele>
        <time>2020-08-13T10:18:07.869Z</time>
      </trkpt>
      <trkpt lat="65.54829" lon="12.27416">
        <ele>52.87592</ele>
        <time>2020-08-13T10:18:09.854Z</time>
      </trkpt>
      <trkpt lat="65.5484" lon="12.27424">
        <ele>52.610052</ele>
        <time>2020-08-13T10:18:11.859Z</time>
      </trkpt>
      <trkpt lat="65.5485" lon="12.27433">
        <ele>52.351664</ele>
        <time>2020-08-13T10:18:13.854Z</time>
      </trkpt>
      <trkpt lat="65.5486" lon="12.27442">
        <ele>52.105327</ele>
        <time>2020-08-13T10:18:15.868Z</time>
      </trkpt>
      <trkpt lat="65.54869" lon="12.27453">
        <ele>51.911767</ele>
        <time>2020-08-13T10:18:17.866Z</time>
      </trkpt>
      <trkpt lat="65.54878" lon="12.27465">
        <ele>51.755991</ele>
        <time>2020-08-13T10:18:19.859Z</time>
      </trkpt>
      <trkpt lat="65.54887" lon="12.27478">
        <ele>51.591806</ele>
        <time>2020-08-13T10:18:21.864Z</time>
      </trkpt>
      <trkpt lat="65.54896" lon="12.27491">
        <ele>51.432209</ele>
        <time>2020-08-13T10:18:23.878Z</time>
      </trkpt>
      <trkpt lat="65.54904" lon="12.27505">
        <ele>51.278808</ele>
        <time>2020-08-13T10:18:25.845Z</time>
      </trkpt>
      <trkpt lat="65.54912" lon="12.27519">
        <ele>51.125177</ele>
        <time>2020-08-13T10:18:27.845Z</time>
      </trkpt>
      <trkpt lat="65.5492" lon="12.27533">
        <ele>50.973902</ele>
        <time>2020-08-13T10:18:29.862Z</time>
      </trkpt>
      <trkpt lat="65.54928" lon="12.27547">
        <ele>50.824338</ele>
        <time>2020-08-13T10:18:31.841Z</time>
      </trkpt>
      <trkpt lat="65.54936" lon="12.27562">
        <ele>50.668347</ele>
        <time>2020-08-13T10:18:33.847Z</time>
      </trkpt>
      <trkpt lat="65.54944" lon="12.27577">
        <ele>50.516074</ele>
        <time>2020-08-13T10:18:35.872Z</time>
      </trkpt>
      <trkpt lat="65.54952" lon="12.27593">
        <ele>50.360955</ele>
        <time>2020-08-13T10:18:37.855Z</time>
      </trkpt>
      <trkpt lat="65.5496" lon="12.27608">
        <ele>50.205098</ele>
        <time>2020-08-13T10:18:39.840Z</time>
      </trkpt>
      <trkpt lat="65.54968" lon="12.27623">
        <ele>50.047123</ele>
        <time>2020-08-13T10:18:41.861Z</time>
      </trkpt>
      <trkpt lat="65.54976" lon="12.27637">
        <ele>49.898204</ele>
        <time>2020-08-13T10:18:43.850Z</time>
      </trkpt>
      <trkpt lat="65.54983" lon="12.2765">
        <ele>49.754349</ele>
        <time>2020-08-13T10:18:45.899Z</time>
      </trkpt>
      <trkpt lat="65.54994" lon="12.27669">
        <ele>49.548335</ele>
        <time>2020-08-13T10:18:48.854Z</time>
      </trkpt>
      <trkpt lat="65.55001" lon="12.27684">
        <ele>49.405601</ele>
        <time>2020-08-13T10:18:50.850Z</time>
      </trkpt>
      <trkpt lat="65.55009" lon="12.27698">
        <ele>49.258104</ele>
        <time>2020-08-13T10:18:52.849Z</time>
      </trkpt>
      <trkpt lat="65.55016" lon="12.27713">
        <ele>49.418899</ele>
        <time>2020-08-13T10:18:54.866Z</time>
      </trkpt>
      <trkpt lat="65.55024" lon="12.27728">
        <ele>49.616075</ele>
        <time>2020-08-13T10:18:56.865Z</time>
      </trkpt>
      <trkpt lat="65.55031" lon="12.27741">
        <ele>49.803547</ele>
        <time>2020-08-13T10:18:58.845Z</time>
      </trkpt>
      <trkpt lat="65.55041" lon="12.27761">
        <ele>50.080773</ele>
        <time>2020-08-13T10:19:01.878Z</time>
      </trkpt>
      <trkpt lat="65.55051" lon="12.27781">
        <ele>50.340827</ele>
        <time>2020-08-13T10:19:04.857Z</time>
      </trkpt>
      <trkpt lat="65.5506" lon="12.278">
        <ele>50.591804</ele>
        <time>2020-08-13T10:19:07.850Z</time>
      </trkpt>
      <trkpt lat="65.55069" lon="12.27819">
        <ele>50.840026</ele>
        <time>2020-08-13T10:19:10.863Z</time>
      </trkpt>
      <trkpt lat="65.55077" lon="12.27839">
        <ele>51.07629</ele>
        <time>2020-08-13T10:19:13.848Z</time>
      </trkpt>
      <trkpt lat="65.55085" lon="12.27858">
        <ele>51.314045</ele>
        <time>2020-08-13T10:19:16.894Z</time>
      </trkpt>
      <trkpt lat="65.55093" lon="12.27877">
        <ele>51.542177</ele>
        <time>2020-08-13T10:19:19.866Z</time>
      </trkpt>
      <trkpt lat="65.55101" lon="12.27896">
        <ele>51.771894</ele>
        <time>2020-08-13T10:19:22.860Z</time>
      </trkpt>
      <trkpt lat="65.55108" lon="12.27914">
        <ele>51.98795</ele>
        <time>2020-08-13T10:19:25.859Z</time>
      </trkpt>
      <trkpt lat="65.55116" lon="12.27933">
        <ele>52.213841</ele>
        <time>2020-08-13T10:19:28.858Z</time>
      </trkpt>
      <trkpt lat="65.55121" lon="12.2795">
        <ele>52.403872</ele>
        <time>2020-08-13T10:19:31.843Z</time>
      </trkpt>
      <trkpt lat="65.55129" lon="12.27971">
        <ele>52.642211</ele>
        <time>2020-08-13T10:19:35.842Z</time>
      </trkpt>
      <trkpt lat="65.55136" lon="12.27993">
        <ele>52.88172</ele>
        <time>2020-08-13T10:19:39.900Z</time>
      </trkpt>
      <trkpt lat="65.55142" lon="12.28011">
        <ele>53.188688</ele>
        <time>2020-08-13T10:19:42.843Z</time>
      </trkpt>
      <trkpt lat="65.55149" lon="12.28034">
        <ele>53.693405</ele>
        <time>2020-08-13T10:19:46.871Z</time>
      </trkpt>
      <trkpt lat="65.55155" lon="12.28052">
        <ele>54.094699</ele>
        <time>2020-08-13T10:19:49.880Z</time>
      </trkpt>
      <trkpt lat="65.5516" lon="12.2807">
        <ele>54.491073</ele>
        <time>2020-08-13T10:19:52.870Z</time>
      </trkpt>
      <trkpt lat="65.55167" lon="12.28091">
        <ele>54.979245</ele>
        <time>2020-08-13T10:19:56.856Z</time>
      </trkpt>
      <trkpt lat="65.55173" lon="12.28109">
        <ele>55.363154</ele>
        <time>2020-08-13T10:19:59.857Z</time>
      </trkpt>
      <trkpt lat="65.5518" lon="12.28132">
        <ele>55.868894</ele>
        <time>2020-08-13T10:20:03.883Z</time>
      </trkpt>
      <trkpt lat="65.55187" lon="12.28155">
        <ele>56.37285</ele>
        <time>2020-08-13T10:20:07.880Z</time>
      </trkpt>
      <trkpt lat="65.55193" lon="12.28177">
        <ele>56.843843</ele>
        <time>2020-08-13T10:20:11.878Z</time>
      </trkpt>
      <trkpt lat="65.55198" lon="12.282">
        <ele>57.300565</ele>
        <time>2020-08-13T10:20:15.846Z</time>
      </trkpt>
      <trkpt lat="65.55204" lon="12.28221">
        <ele>57.756838</ele>
        <time>2020-08-13T10:20:19.876Z</time>
      </trkpt>
      <trkpt lat="65.5521" lon="12.28243">
        <ele>58.224278</ele>
        <time>2020-08-13T10:20:23.857Z</time>
      </trkpt>
      <trkpt lat="65.55217" lon="12.28264">
        <ele>58.679259</ele>
        <time>2020-08-13T10:20:27.856Z</time>
      </trkpt>
      <trkpt lat="65.55222" lon="12.28285">
        <ele>59.112105</ele>
        <time>2020-08-13T10:20:31.884Z</time>
      </trkpt>
      <trkpt lat="65.55227" lon="12.28305">
        <ele>59.536886</ele>
        <time>2020-08-13T10:20:35.847Z</time>
      </trkpt>
      <trkpt lat="65.55234" lon="12.28324">
        <ele>59.970946</ele>
        <time>2020-08-13T10:20:39.898Z</time>
      </trkpt>
      <trkpt lat="65.55239" lon="12.28346">
        <ele>60.409651</ele>
        <time>2020-08-13T10:20:43.881Z</time>
      </trkpt>
      <trkpt lat="65.55244" lon="12.28368">
        <ele>60.582376</ele>
        <time>2020-08-13T10:20:47.868Z</time>
      </trkpt>
      <trkpt lat="65.55249" lon="12.2839">
        <ele>60.477263</ele>
        <time>2020-08-13T10:20:51.871Z</time>
      </trkpt>
      <trkpt lat="65.55255" lon="12.28411">
        <ele>60.377777</ele>
        <time>2020-08-13T10:20:55.889Z</time>
      </trkpt>
      <trkpt lat="65.5526" lon="12.28432">
        <ele>60.27435</ele>
        <time>2020-08-13T10:20:59.843Z</time>
      </trkpt>
      <trkpt lat="65.55266" lon="12.28454">
        <ele>60.168517</ele>
        <time>2020-08-13T10:21:03.846Z</time>
      </trkpt>
      <trkpt lat="65.55271" lon="12.28476">
        <ele>60.064696</ele>
        <time>2020-08-13T10:21:07.878Z</time>
      </trkpt>
      <trkpt lat="65.55274" lon="12.28498">
        <ele>59.970001</ele>
        <time>2020-08-13T10:21:11.837Z</time>
      </trkpt>
      <trkpt lat="65.55278" lon="12.2852">
        <ele>59.869909</ele>
        <time>2020-08-13T10:21:15.862Z</time>
      </trkpt>
      <trkpt lat="65.55283" lon="12.28545">
        <ele>59.758481</ele>
        <time>2020-08-13T10:21:19.881Z</time>
      </trkpt>
      <trkpt lat="65.55286" lon="12.28569">
        <ele>59.652335</ele>
        <time>2020-08-13T10:21:23.874Z</time>
      </trkpt>
      <trkpt lat="65.5529" lon="12.28589">
        <ele>59.562929</ele>
        <time>2020-08-13T10:21:26.851Z</time>
      </trkpt>
      <trkpt lat="65.55294" lon="12.28608">
        <ele>59.469901</ele>
        <time>2020-08-13T10:21:29.869Z</time>
      </trkpt>
      <trkpt lat="65.55299" lon="12.2863">
        <ele>59.36888</ele>
        <time>2020-08-13T10:21:32.876Z</time>
      </trkpt>
      <trkpt lat="65.55305" lon="12.28653">
        <ele>59.261968</ele>
        <time>2020-08-13T10:21:35.865Z</time>
      </trkpt>
      <trkpt lat="65.55309" lon="12.28676">
        <ele>59.153483</ele>
        <time>2020-08-13T10:21:38.865Z</time>
      </trkpt>
      <trkpt lat="65.55314" lon="12.28702">
        <ele>59.038631</ele>
        <time>2020-08-13T10:21:41.850Z</time>
      </trkpt>
      <trkpt lat="65.55318" lon="12.28731">
        <ele>58.91328</ele>
        <time>2020-08-13T10:21:44.844Z</time>
      </trkpt>
      <trkpt lat="65.55323" lon="12.2876">
        <ele>58.681358</ele>
        <time>2020-08-13T10:21:47.857Z</time>
      </trkpt>
      <trkpt lat="65.55327" lon="12.2878">
        <ele>58.451639</ele>
        <time>2020-08-13T10:21:49.851Z</time>
      </trkpt>
      <trkpt lat="65.55332" lon="12.28811">
        <ele>58.110769</ele>
        <time>2020-08-13T10:21:52.858Z</time>
      </trkpt>
      <trkpt lat="65.55336" lon="12.28831">
        <ele>57.881297</ele>
        <time>2020-08-13T10:21:54.906Z</time>
      </trkpt>
      <trkpt lat="65.55339" lon="12.28851">
        <ele>57.655677</ele>
        <time>2020-08-13T10:21:56.872Z</time>
      </trkpt>
      <trkpt lat="65.55343" lon="12.28872">
        <ele>57.417558</ele>
        <time>2020-08-13T10:21:58.842Z</time>
      </trkpt>
      <trkpt lat="65.55347" lon="12.28894">
        <ele>57.166016</ele>
        <time>2020-08-13T10:22:00.880Z</time>
      </trkpt>
      <trkpt lat="65.55351" lon="12.28916">
        <ele>56.917342</ele>
        <time>2020-08-13T10:22:02.854Z</time>
      </trkpt>
      <trkpt lat="65.55355" lon="12.28939">
        <ele>56.664844</ele>
        <time>2020-08-13T10:22:04.850Z</time>
      </trkpt>
      <trkpt lat="65.55359" lon="12.28963">
        <ele>56.396014</ele>
        <time>2020-08-13T10:22:06.853Z</time>
      </trkpt>
      <trkpt lat="65.55363" lon="12.28987">
        <ele>56.118372</ele>
        <time>2020-08-13T10:22:08.891Z</time>
      </trkpt>
      <trkpt lat="65.55368" lon="12.29011">
        <ele>55.835646</ele>
        <time>2020-08-13T10:22:10.842Z</time>
      </trkpt>
      <trkpt lat="65.55374" lon="12.29036">
        <ele>55.549983</ele>
        <time>2020-08-13T10:22:12.860Z</time>
      </trkpt>
      <trkpt lat="65.5538" lon="12.29059">
        <ele>55.259541</ele>
        <time>2020-08-13T10:22:14.861Z</time>
      </trkpt>
      <trkpt lat="65.55387" lon="12.29082">
        <ele>54.967538</ele>
        <time>2020-08-13T10:22:16.881Z</time>
      </trkpt>
      <trkpt lat="65.55395" lon="12.29103">
        <ele>54.671248</ele>
        <time>2020-08-13T10:22:18.850Z</time>
      </trkpt>
      <trkpt lat="65.55403" lon="12.29124">
        <ele>54.373522</ele>
        <time>2020-08-13T10:22:20.852Z</time>
      </trkpt>
      <trkpt lat="65.55411" lon="12.29143">
        <ele>54.259395</ele>
        <time>2020-08-13T10:22:22.884Z</time>
      </trkpt>
      <trkpt lat="65.5542" lon="12.29163">
        <ele>54.173857</ele>
        <time>2020-08-13T10:22:24.910Z</time>
      </trkpt>
      <trkpt lat="65.55428" lon="12.29182">
        <ele>54.087372</ele>
        <time>2020-08-13T10:22:26.856Z</time>
      </trkpt>
      <trkpt lat="65.55436" lon="12.29201">
        <ele>54.004145</ele>
        <time>2020-08-13T10:22:28.870Z</time>
      </trkpt>
      <trkpt lat="65.55445" lon="12.2922">
        <ele>53.918815</ele>
        <time>2020-08-13T10:22:30.857Z</time>
      </trkpt>
      <trkpt lat="65.55453" lon="12.2924">
        <ele>53.832232</ele>
        <time>2020-08-13T10:22:32.886Z</time>
      </trkpt>
      <trkpt lat="65.55462" lon="12.2926">
        <ele>53.745649</ele>
        <time>2020-08-13T10:22:34.874Z</time>
      </trkpt>
      <trkpt lat="65.5547" lon="12.2928">
        <ele>53.661169</ele>
        <time>2020-08-13T10:22:36.852Z</time>
      </trkpt>
      <trkpt lat="65.55479" lon="12.29299">
        <ele>53.574268</ele>
        <time>2020-08-13T10:22:38.884Z</time>
      </trkpt>
      <trkpt lat="65.55488" lon="12.29319">
        <ele>53.485534</ele>
        <time>2020-08-13T10:22:40.859Z</time>
      </trkpt>
      <trkpt lat="65.55497" lon="12.29337">
        <ele>53.398922</ele>
        <time>2020-08-13T10:22:42.861Z</time>
      </trkpt>
      <trkpt lat="65.55506" lon="12.29355">
        <ele>53.313391</ele>
        <time>2020-08-13T10:22:44.873Z</time>
      </trkpt>
      <trkpt lat="65.55514" lon="12.29374">
        <ele>53.228887</ele>
        <time>2020-08-13T10:22:46.857Z</time>
      </trkpt>
      <trkpt lat="65.55524" lon="12.29393">
        <ele>53.1413</ele>
        <time>2020-08-13T10:22:48.853Z</time>
      </trkpt>
      <trkpt lat="65.55533" lon="12.29412">
        <ele>53.052983</ele>
        <time>2020-08-13T10:22:50.857Z</time>
      </trkpt>
      <trkpt lat="65.55542" lon="12.29429">
        <ele>53.031788</ele>
        <time>2020-08-13T10:22:52.853Z</time>
      </trkpt>
      <trkpt lat="65.55551" lon="12.29444">
        <ele>53.060141</ele>
        <time>2020-08-13T10:22:54.866Z</time>
      </trkpt>
      <trkpt lat="65.5556" lon="12.2946">
        <ele>53.087609</ele>
        <time>2020-08-13T10:22:56.853Z</time>
      </trkpt>
      <trkpt lat="65.55569" lon="12.29475">
        <ele>53.114894</ele>
        <time>2020-08-13T10:22:58.905Z</time>
      </trkpt>
      <trkpt lat="65.55577" lon="12.29489">
        <ele>53.140725</ele>
        <time>2020-08-13T10:23:00.842Z</time>
      </trkpt>
      <trkpt lat="65.55586" lon="12.29504">
        <ele>53.167116</ele>
        <time>2020-08-13T10:23:02.847Z</time>
      </trkpt>
      <trkpt lat="65.55595" lon="12.29517">
        <ele>53.193523</ele>
        <time>2020-08-13T10:23:04.859Z</time>
      </trkpt>
      <trkpt lat="65.55603" lon="12.29531">
        <ele>53.218399</ele>
        <time>2020-08-13T10:23:06.849Z</time>
      </trkpt>
      <trkpt lat="65.55611" lon="12.29544">
        <ele>53.24262</ele>
        <time>2020-08-13T10:23:08.852Z</time>
      </trkpt>
      <trkpt lat="65.55618" lon="12.29557">
        <ele>53.265935</ele>
        <time>2020-08-13T10:23:10.911Z</time>
      </trkpt>
      <trkpt lat="65.55626" lon="12.2957">
        <ele>53.289391</ele>
        <time>2020-08-13T10:23:12.865Z</time>
      </trkpt>
      <trkpt lat="65.55633" lon="12.29583">
        <ele>53.312786</ele>
        <time>2020-08-13T10:23:14.852Z</time>
      </trkpt>
      <trkpt lat="65.55644" lon="12.29602">
        <ele>53.345964</ele>
        <time>2020-08-13T10:23:17.867Z</time>
      </trkpt>
      <trkpt lat="65.55654" lon="12.2962">
        <ele>53.37931</ele>
        <time>2020-08-13T10:23:20.851Z</time>
      </trkpt>
      <trkpt lat="65.55665" lon="12.29637">
        <ele>53.411938</ele>
        <time>2020-08-13T10:23:23.864Z</time>
      </trkpt>
      <trkpt lat="65.55676" lon="12.29653">
        <ele>53.443589</ele>
        <time>2020-08-13T10:23:26.835Z</time>
      </trkpt>
      <trkpt lat="65.55687" lon="12.2967">
        <ele>53.474277</ele>
        <time>2020-08-13T10:23:29.849Z</time>
      </trkpt>
      <trkpt lat="65.55698" lon="12.29686">
        <ele>53.495908</ele>
        <time>2020-08-13T10:23:32.870Z</time>
      </trkpt>
      <trkpt lat="65.55709" lon="12.29701">
        <ele>53.516787</ele>
        <time>2020-08-13T10:23:35.845Z</time>
      </trkpt>
      <trkpt lat="65.55719" lon="12.29716">
        <ele>53.536413</ele>
        <time>2020-08-13T10:23:38.858Z</time>
      </trkpt>
      <trkpt lat="65.55729" lon="12.2973">
        <ele>53.555863</ele>
        <time>2020-08-13T10:23:41.849Z</time>
      </trkpt>
      <trkpt lat="65.5574" lon="12.29743">
        <ele>53.57609</ele>
        <time>2020-08-13T10:23:44.891Z</time>
      </trkpt>
      <trkpt lat="65.5575" lon="12.29754">
        <ele>53.595866</ele>
        <time>2020-08-13T10:23:47.847Z</time>
      </trkpt>
      <trkpt lat="65.55762" lon="12.29763">
        <ele>53.615588</ele>
        <time>2020-08-13T10:23:50.862Z</time>
      </trkpt>
      <trkpt lat="65.55773" lon="12.29772">
        <ele>53.635669</ele>
        <time>2020-08-13T10:23:53.889Z</time>
      </trkpt>
      <trkpt lat="65.55785" lon="12.29781">
        <ele>53.656552</ele>
        <time>2020-08-13T10:23:56.840Z</time>
      </trkpt>
      <trkpt lat="65.55797" lon="12.2979">
        <ele>53.677796</ele>
        <time>2020-08-13T10:23:59.856Z</time>
      </trkpt>
      <trkpt lat="65.55809" lon="12.29799">
        <ele>53.698702</ele>
        <time>2020-08-13T10:24:02.861Z</time>
      </trkpt>
      <trkpt lat="65.55821" lon="12.29806">
        <ele>53.719414</ele>
        <time>2020-08-13T10:24:05.874Z</time>
      </trkpt>
      <trkpt lat="65.55833" lon="12.29815">
        <ele>53.740721</ele>
        <time>2020-08-13T10:24:08.887Z</time>
      </trkpt>
      <trkpt lat="65.55846" lon="12.29827">
        <ele>53.76359</ele>
        <time>2020-08-13T10:24:11.845Z</time>
      </trkpt>
      <trkpt lat="65.55854" lon="12.29836">
        <ele>53.912782</ele>
        <time>2020-08-13T10:24:13.857Z</time>
      </trkpt>
      <trkpt lat="65.55866" lon="12.29851">
        <ele>54.300976</ele>
        <time>2020-08-13T10:24:16.854Z</time>
      </trkpt>
      <trkpt lat="65.55876" lon="12.29867">
        <ele>54.678526</ele>
        <time>2020-08-13T10:24:19.889Z</time>
      </trkpt>
      <trkpt lat="65.55888" lon="12.29883">
        <ele>55.079251</ele>
        <time>2020-08-13T10:24:22.865Z</time>
      </trkpt>
      <trkpt lat="65.55899" lon="12.29901">
        <ele>55.487871</ele>
        <time>2020-08-13T10:24:25.850Z</time>
      </trkpt>
      <trkpt lat="65.55909" lon="12.2992">
        <ele>55.869892</ele>
        <time>2020-08-13T10:24:28.850Z</time>
      </trkpt>
      <trkpt lat="65.55919" lon="12.29937">
        <ele>56.229045</ele>
        <time>2020-08-13T10:24:31.887Z</time>
      </trkpt>
      <trkpt lat="65.55928" lon="12.29951">
        <ele>56.552493</ele>
        <time>2020-08-13T10:24:34.855Z</time>
      </trkpt>
      <trkpt lat="65.55935" lon="12.29966">
        <ele>56.850781</ele>
        <time>2020-08-13T10:24:37.868Z</time>
      </trkpt>
      <trkpt lat="65.55942" lon="12.2998">
        <ele>57.127127</ele>
        <time>2020-08-13T10:24:40.849Z</time>
      </trkpt>
      <trkpt lat="65.55951" lon="12.29997">
        <ele>57.45833</ele>
        <time>2020-08-13T10:24:44.862Z</time>
      </trkpt>
      <trkpt lat="65.55958" lon="12.30009">
        <ele>57.730964</ele>
        <time>2020-08-13T10:24:47.845Z</time>
      </trkpt>
      <trkpt lat="65.55968" lon="12.30026">
        <ele>58.084055</ele>
        <time>2020-08-13T10:24:51.846Z</time>
      </trkpt>
      <trkpt lat="65.55977" lon="12.30041">
        <ele>58.428632</ele>
        <time>2020-08-13T10:24:55.849Z</time>
      </trkpt>
      <trkpt lat="65.55987" lon="12.30058">
        <ele>58.777285</ele>
        <time>2020-08-13T10:24:59.867Z</time>
      </trkpt>
      <trkpt lat="65.55996" lon="12.30075">
        <ele>59.132275</ele>
        <time>2020-08-13T10:25:03.848Z</time>
      </trkpt>
      <trkpt lat="65.56006" lon="12.3009">
        <ele>58.954244</ele>
        <time>2020-08-13T10:25:07.899Z</time>
      </trkpt>
      <trkpt lat="65.56014" lon="12.30103">
        <ele>58.7092</ele>
        <time>2020-08-13T10:25:10.849Z</time>
      </trkpt>
      <trkpt lat="65.56022" lon="12.30118">
        <ele>58.450218</ele>
        <time>2020-08-13T10:25:13.874Z</time>
      </trkpt>
      <trkpt lat="65.56031" lon="12.30133">
        <ele>58.164495</ele>
        <time>2020-08-13T10:25:16.849Z</time>
      </trkpt>
      <trkpt lat="65.56042" lon="12.30147">
        <ele>57.863546</ele>
        <time>2020-08-13T10:25:19.850Z</time>
      </trkpt>
      <trkpt lat="65.56054" lon="12.30159">
        <ele>57.526901</ele>
        <time>2020-08-13T10:25:22.869Z</time>
      </trkpt>
      <trkpt lat="65.56063" lon="12.30165">
        <ele>57.283634</ele>
        <time>2020-08-13T10:25:24.867Z</time>
      </trkpt>
      <trkpt lat="65.56074" lon="12.30172">
        <ele>57.004746</ele>
        <time>2020-08-13T10:25:26.876Z</time>
      </trkpt>
      <trkpt lat="65.56086" lon="12.3018">
        <ele>56.691194</ele>
        <time>2020-08-13T10:25:28.865Z</time>
      </trkpt>
      <trkpt lat="65.561" lon="12.3019">
        <ele>56.325246</ele>
        <time>2020-08-13T10:25:30.862Z</time>
      </trkpt>
      <trkpt lat="65.56115" lon="12.30203">
        <ele>55.904708</ele>
        <time>2020-08-13T10:25:32.903Z</time>
      </trkpt>
      <trkpt lat="65.56124" lon="12.30212">
        <ele>55.675514</ele>
        <time>2020-08-13T10:25:33.879Z</time>
      </trkpt>
      <trkpt lat="65.56132" lon="12.30222">
        <ele>55.436459</ele>
        <time>2020-08-13T10:25:34.849Z</time>
      </trkpt>
      <trkpt lat="65.5614" lon="12.30235">
        <ele>55.193543</ele>
        <time>2020-08-13T10:25:35.847Z</time>
      </trkpt>
      <trkpt lat="65.56148" lon="12.3025">
        <ele>54.939224</ele>
        <time>2020-08-13T10:25:36.863Z</time>
      </trkpt>
      <trkpt lat="65.56155" lon="12.30266">
        <ele>54.68274</ele>
        <time>2020-08-13T10:25:37.862Z</time>
      </trkpt>
      <trkpt lat="65.56163" lon="12.30282">
        <ele>54.385635</ele>
        <time>2020-08-13T10:25:38.893Z</time>
      </trkpt>
      <trkpt lat="65.5617" lon="12.30298">
        <ele>54.077577</ele>
        <time>2020-08-13T10:25:39.868Z</time>
      </trkpt>
      <trkpt lat="65.56177" lon="12.30314">
        <ele>53.776997</ele>
        <time>2020-08-13T10:25:40.868Z</time>
      </trkpt>
      <trkpt lat="65.56184" lon="12.3033">
        <ele>53.475225</ele>
        <time>2020-08-13T10:25:41.885Z</time>
      </trkpt>
      <trkpt lat="65.56191" lon="12.30346">
        <ele>53.180604</ele>
        <time>2020-08-13T10:25:42.898Z</time>
      </trkpt>
      <trkpt lat="65.56198" lon="12.30361">
        <ele>52.889487</ele>
        <time>2020-08-13T10:25:43.860Z</time>
      </trkpt>
      <trkpt lat="65.56205" lon="12.30376">
        <ele>52.608406</ele>
        <time>2020-08-13T10:25:44.856Z</time>
      </trkpt>
      <trkpt lat="65.56218" lon="12.30404">
        <ele>52.07414</ele>
        <time>2020-08-13T10:25:46.850Z</time>
      </trkpt>
      <trkpt lat="65.5623" lon="12.30431">
        <ele>51.561145</ele>
        <time>2020-08-13T10:25:48.858Z</time>
      </trkpt>
      <trkpt lat="65.56241" lon="12.30458">
        <ele>51.071289</ele>
        <time>2020-08-13T10:25:50.878Z</time>
      </trkpt>
      <trkpt lat="65.56252" lon="12.30482">
        <ele>50.605893</ele>
        <time>2020-08-13T10:25:52.846Z</time>
      </trkpt>
      <trkpt lat="65.56263" lon="12.30505">
        <ele>50.169814</ele>
        <time>2020-08-13T10:25:54.861Z</time>
      </trkpt>
      <trkpt lat="65.56272" lon="12.30526">
        <ele>49.77163</ele>
        <time>2020-08-13T10:25:56.857Z</time>
      </trkpt>
      <trkpt lat="65.56281" lon="12.30545">
        <ele>49.411507</ele>
        <time>2020-08-13T10:25:58.901Z</time>
      </trkpt>
      <trkpt lat="65.56288" lon="12.30563">
        <ele>49.088382</ele>
        <time>2020-08-13T10:26:00.862Z</time>
      </trkpt>
      <trkpt lat="65.56295" lon="12.30579">
        <ele>49.107179</ele>
        <time>2020-08-13T10:26:02.857Z</time>
      </trkpt>
      <trkpt lat="65.56303" lon="12.30595">
        <ele>49.164746</ele>
        <time>2020-08-13T10:26:04.878Z</time>
      </trkpt>
      <trkpt lat="65.56312" lon="12.30607">
        <ele>49.221335</ele>
        <time>2020-08-13T10:26:06.862Z</time>
      </trkpt>
      <trkpt lat="65.5632" lon="12.30619">
        <ele>49.278687</ele>
        <time>2020-08-13T10:26:08.894Z</time>
      </trkpt>
      <trkpt lat="65.56329" lon="12.3063">
        <ele>49.333786</ele>
        <time>2020-08-13T10:26:10.873Z</time>
      </trkpt>
      <trkpt lat="65.56337" lon="12.30639">
        <ele>49.387437</ele>
        <time>2020-08-13T10:26:12.849Z</time>
      </trkpt>
      <trkpt lat="65.5635" lon="12.3065">
        <ele>49.463862</ele>
        <time>2020-08-13T10:26:15.851Z</time>
      </trkpt>
      <trkpt lat="65.56362" lon="12.30658">
        <ele>49.539588</ele>
        <time>2020-08-13T10:26:18.878Z</time>
      </trkpt>
      <trkpt lat="65.56371" lon="12.30663">
        <ele>49.591356</ele>
        <time>2020-08-13T10:26:20.858Z</time>
      </trkpt>
      <trkpt lat="65.56384" lon="12.30668">
        <ele>49.667343</ele>
        <time>2020-08-13T10:26:23.883Z</time>
      </trkpt>
      <trkpt lat="65.56397" lon="12.30671">
        <ele>49.74028</ele>
        <time>2020-08-13T10:26:26.894Z</time>
      </trkpt>
      <trkpt lat="65.5641" lon="12.30671">
        <ele>49.815746</ele>
        <time>2020-08-13T10:26:29.860Z</time>
      </trkpt>
      <trkpt lat="65.56423" lon="12.30671">
        <ele>49.891789</ele>
        <time>2020-08-13T10:26:32.861Z</time>
      </trkpt>
      <trkpt lat="65.56436" lon="12.30667">
        <ele>49.967142</ele>
        <time>2020-08-13T10:26:35.899Z</time>
      </trkpt>
      <trkpt lat="65.56449" lon="12.30661">
        <ele>50.041005</ele>
        <time>2020-08-13T10:26:38.846Z</time>
      </trkpt>
      <trkpt lat="65.56461" lon="12.30652">
        <ele>50.374359</ele>
        <time>2020-08-13T10:26:41.870Z</time>
      </trkpt>
      <trkpt lat="65.56473" lon="12.30642">
        <ele>51.250677</ele>
        <time>2020-08-13T10:26:44.863Z</time>
      </trkpt>
      <trkpt lat="65.56484" lon="12.3063">
        <ele>52.0733</ele>
        <time>2020-08-13T10:26:47.910Z</time>
      </trkpt>
      <trkpt lat="65.56495" lon="12.3062">
        <ele>52.873111</ele>
        <time>2020-08-13T10:26:50.842Z</time>
      </trkpt>
      <trkpt lat="65.56504" lon="12.30611">
        <ele>53.55821</ele>
        <time>2020-08-13T10:26:53.849Z</time>
      </trkpt>
      <trkpt lat="65.56515" lon="12.30601">
        <ele>54.318055</ele>
        <time>2020-08-13T10:26:57.855Z</time>
      </trkpt>
      <trkpt lat="65.56524" lon="12.30593">
        <ele>54.97244</ele>
        <time>2020-08-13T10:27:01.845Z</time>
      </trkpt>
      <trkpt lat="65.56533" lon="12.30583">
        <ele>55.682704</ele>
        <time>2020-08-13T10:27:06.847Z</time>
      </trkpt>
      <trkpt lat="65.56543" lon="12.30575">
        <ele>56.397892</ele>
        <time>2020-08-13T10:27:11.859Z</time>
      </trkpt>
      <trkpt lat="65.56552" lon="12.30566">
        <ele>57.020811</ele>
        <time>2020-08-13T10:27:16.862Z</time>
      </trkpt>
      <trkpt lat="65.5656" lon="12.30555">
        <ele>57.67934</ele>
        <time>2020-08-13T10:27:22.884Z</time>
      </trkpt>
      <trkpt lat="65.56571" lon="12.30545">
        <ele>58.490297</ele>
        <time>2020-08-13T10:31:20.852Z</time>
      </trkpt>
      <trkpt lat="65.56581" lon="12.30537">
        <ele>59.204555</ele>
        <time>2020-08-13T10:31:26.870Z</time>
      </trkpt>
      <trkpt lat="65.56591" lon="12.30526">
        <ele>59.921408</ele>
        <time>2020-08-13T10:31:32.856Z</time>
      </trkpt>
      <trkpt lat="65.566" lon="12.30518">
        <ele>60.570637</ele>
        <time>2020-08-13T10:31:38.855Z</time>
      </trkpt>
      <trkpt lat="65.56608" lon="12.30508">
        <ele>61.215152</ele>
        <time>2020-08-13T10:31:44.874Z</time>
      </trkpt>
      <trkpt lat="65.56617" lon="12.30503">
        <ele>61.831344</ele>
        <time>2020-08-13T10:31:50.867Z</time>
      </trkpt>
      <trkpt lat="65.56626" lon="12.30495">
        <ele>62.395512</ele>
        <time>2020-08-13T10:31:55.883Z</time>
      </trkpt>
      <trkpt lat="65.56635" lon="12.30487">
        <ele>62.7011</ele>
        <time>2020-08-13T10:32:01.855Z</time>
      </trkpt>
      <trkpt lat="65.56644" lon="12.3048">
        <ele>62.980488</ele>
        <time>2020-08-13T10:32:06.882Z</time>
      </trkpt>
      <trkpt lat="65.56653" lon="12.3047">
        <ele>63.306465</ele>
        <time>2020-08-13T10:32:12.862Z</time>
      </trkpt>
      <trkpt lat="65.56662" lon="12.3046">
        <ele>63.588002</ele>
        <time>2020-08-13T10:32:18.849Z</time>
      </trkpt>
      <trkpt lat="65.56672" lon="12.30451">
        <ele>63.920075</ele>
        <time>2020-08-13T10:32:24.898Z</time>
      </trkpt>
      <trkpt lat="65.56681" lon="12.30444">
        <ele>64.223597</ele>
        <time>2020-08-13T10:32:29.847Z</time>
      </trkpt>
      <trkpt lat="65.56691" lon="12.30437">
        <ele>64.544403</ele>
        <time>2020-08-13T10:32:34.850Z</time>
      </trkpt>
      <trkpt lat="65.56703" lon="12.30433">
        <ele>64.891014</ele>
        <time>2020-08-13T10:32:39.866Z</time>
      </trkpt>
      <trkpt lat="65.56713" lon="12.30431">
        <ele>65.21971</ele>
        <time>2020-08-13T10:32:43.862Z</time>
      </trkpt>
      <trkpt lat="65.56724" lon="12.30429">
        <ele>65.547665</ele>
        <time>2020-08-13T10:32:47.846Z</time>
      </trkpt>
      <trkpt lat="65.56734" lon="12.3043">
        <ele>65.869073</ele>
        <time>2020-08-13T10:32:51.894Z</time>
      </trkpt>
      <trkpt lat="65.56745" lon="12.30431">
        <ele>66.187864</ele>
        <time>2020-08-13T10:32:55.877Z</time>
      </trkpt>
      <trkpt lat="65.56755" lon="12.30436">
        <ele>66.496822</ele>
        <time>2020-08-13T10:32:59.850Z</time>
      </trkpt>
      <trkpt lat="65.56765" lon="12.30441">
        <ele>66.814311</ele>
        <time>2020-08-13T10:33:03.836Z</time>
      </trkpt>
      <trkpt lat="65.56775" lon="12.30447">
        <ele>67.137077</ele>
        <time>2020-08-13T10:33:07.878Z</time>
      </trkpt>
      <trkpt lat="65.56784" lon="12.30455">
        <ele>67.417253</ele>
        <time>2020-08-13T10:33:10.862Z</time>
      </trkpt>
      <trkpt lat="65.56792" lon="12.30464">
        <ele>67.700478</ele>
        <time>2020-08-13T10:33:13.847Z</time>
      </trkpt>
      <trkpt lat="65.56802" lon="12.30477">
        <ele>67.885582</ele>
        <time>2020-08-13T10:33:17.863Z</time>
      </trkpt>
      <trkpt lat="65.56812" lon="12.30491">
        <ele>67.940144</ele>
        <time>2020-08-13T10:33:21.845Z</time>
      </trkpt>
      <trkpt lat="65.56821" lon="12.30505">
        <ele>67.995642</ele>
        <time>2020-08-13T10:33:25.862Z</time>
      </trkpt>
      <trkpt lat="65.56832" lon="12.3052">
        <ele>68.05366</ele>
        <time>2020-08-13T10:33:29.845Z</time>
      </trkpt>
      <trkpt lat="65.56842" lon="12.30535">
        <ele>68.109699</ele>
        <time>2020-08-13T10:33:33.862Z</time>
      </trkpt>
      <trkpt lat="65.56849" lon="12.30547">
        <ele>68.154177</ele>
        <time>2020-08-13T10:33:36.878Z</time>
      </trkpt>
      <trkpt lat="65.56858" lon="12.30564">
        <ele>68.211078</ele>
        <time>2020-08-13T10:33:40.858Z</time>
      </trkpt>
      <trkpt lat="65.56868" lon="12.3058">
        <ele>68.266975</ele>
        <time>2020-08-13T10:33:44.858Z</time>
      </trkpt>
      <trkpt lat="65.56876" lon="12.30592">
        <ele>68.314782</ele>
        <time>2020-08-13T10:33:47.877Z</time>
      </trkpt>
      <trkpt lat="65.56885" lon="12.30605">
        <ele>68.3628</ele>
        <time>2020-08-13T10:33:50.858Z</time>
      </trkpt>
      <trkpt lat="65.56893" lon="12.30618">
        <ele>68.409561</ele>
        <time>2020-08-13T10:33:53.844Z</time>
      </trkpt>
      <trkpt lat="65.56903" lon="12.30633">
        <ele>68.467877</ele>
        <time>2020-08-13T10:33:57.897Z</time>
      </trkpt>
      <trkpt lat="65.56911" lon="12.30644">
        <ele>68.511841</ele>
        <time>2020-08-13T10:34:00.881Z</time>
      </trkpt>
      <trkpt lat="65.56919" lon="12.30656">
        <ele>68.557483</ele>
        <time>2020-08-13T10:34:03.853Z</time>
      </trkpt>
      <trkpt lat="65.56927" lon="12.30669">
        <ele>68.604571</ele>
        <time>2020-08-13T10:34:06.854Z</time>
      </trkpt>
      <trkpt lat="65.56935" lon="12.30681">
        <ele>68.649997</ele>
        <time>2020-08-13T10:34:09.886Z</time>
      </trkpt>
      <trkpt lat="65.56943" lon="12.30692">
        <ele>68.696828</ele>
        <time>2020-08-13T10:34:12.861Z</time>
      </trkpt>
      <trkpt lat="65.56952" lon="12.30703">
        <ele>68.730958</ele>
        <time>2020-08-13T10:34:15.868Z</time>
      </trkpt>
      <trkpt lat="65.56961" lon="12.30713">
        <ele>68.736739</ele>
        <time>2020-08-13T10:34:18.875Z</time>
      </trkpt>
      <trkpt lat="65.56972" lon="12.30723">
        <ele>68.743949</ele>
        <time>2020-08-13T10:34:22.839Z</time>
      </trkpt>
      <trkpt lat="65.56981" lon="12.30728">
        <ele>68.749627</ele>
        <time>2020-08-13T10:34:25.865Z</time>
      </trkpt>
      <trkpt lat="65.5699" lon="12.30732">
        <ele>68.755237</ele>
        <time>2020-08-13T10:34:28.857Z</time>
      </trkpt>
      <trkpt lat="65.57002" lon="12.30735">
        <ele>68.762437</ele>
        <time>2020-08-13T10:34:32.848Z</time>
      </trkpt>
      <trkpt lat="65.57012" lon="12.30736">
        <ele>68.768501</ele>
        <time>2020-08-13T10:34:35.864Z</time>
      </trkpt>
      <trkpt lat="65.57022" lon="12.30737">
        <ele>68.774265</ele>
        <time>2020-08-13T10:34:38.867Z</time>
      </trkpt>
      <trkpt lat="65.57032" lon="12.30735">
        <ele>68.780102</ele>
        <time>2020-08-13T10:34:41.870Z</time>
      </trkpt>
      <trkpt lat="65.57042" lon="12.30734">
        <ele>68.786111</ele>
        <time>2020-08-13T10:34:44.858Z</time>
      </trkpt>
      <trkpt lat="65.57052" lon="12.30731">
        <ele>68.792695</ele>
        <time>2020-08-13T10:34:47.853Z</time>
      </trkpt>
      <trkpt lat="65.57064" lon="12.30725">
        <ele>68.799878</ele>
        <time>2020-08-13T10:34:50.843Z</time>
      </trkpt>
      <trkpt lat="65.57076" lon="12.30716">
        <ele>68.807468</ele>
        <time>2020-08-13T10:34:53.857Z</time>
      </trkpt>
      <trkpt lat="65.57086" lon="12.30708">
        <ele>68.813531</ele>
        <time>2020-08-13T10:34:55.880Z</time>
      </trkpt>
      <trkpt lat="65.57096" lon="12.307">
        <ele>68.819714</ele>
        <time>2020-08-13T10:34:57.837Z</time>
      </trkpt>
      <trkpt lat="65.57106" lon="12.3069">
        <ele>68.826426</ele>
        <time>2020-08-13T10:34:59.868Z</time>
      </trkpt>
      <trkpt lat="65.57117" lon="12.3068">
        <ele>68.833682</ele>
        <time>2020-08-13T10:35:01.857Z</time>
      </trkpt>
      <trkpt lat="65.5713" lon="12.30669">
        <ele>68.552742</ele>
        <time>2020-08-13T10:35:03.864Z</time>
      </trkpt>
      <trkpt lat="65.57143" lon="12.30658">
        <ele>68.022576</ele>
        <time>2020-08-13T10:35:05.849Z</time>
      </trkpt>
      <trkpt lat="65.57158" lon="12.30646">
        <ele>67.420639</ele>
        <time>2020-08-13T10:35:07.882Z</time>
      </trkpt>
      <trkpt lat="65.57175" lon="12.30633">
        <ele>66.764135</ele>
        <time>2020-08-13T10:35:09.855Z</time>
      </trkpt>
      <trkpt lat="65.57184" lon="12.30625">
        <ele>66.397352</ele>
        <time>2020-08-13T10:35:10.854Z</time>
      </trkpt>
      <trkpt lat="65.57194" lon="12.30617">
        <ele>66.008761</ele>
        <time>2020-08-13T10:35:11.864Z</time>
      </trkpt>
      <trkpt lat="65.57204" lon="12.30609">
        <ele>65.596822</ele>
        <time>2020-08-13T10:35:12.848Z</time>
      </trkpt>
      <trkpt lat="65.57215" lon="12.30601">
        <ele>65.167025</ele>
        <time>2020-08-13T10:35:13.865Z</time>
      </trkpt>
      <trkpt lat="65.57226" lon="12.30592">
        <ele>64.729125</ele>
        <time>2020-08-13T10:35:14.905Z</time>
      </trkpt>
      <trkpt lat="65.57238" lon="12.30583">
        <ele>64.277121</ele>
        <time>2020-08-13T10:35:15.866Z</time>
      </trkpt>
      <trkpt lat="65.57249" lon="12.30573">
        <ele>63.821555</ele>
        <time>2020-08-13T10:35:16.849Z</time>
      </trkpt>
      <trkpt lat="65.57261" lon="12.30564">
        <ele>63.364995</ele>
        <time>2020-08-13T10:35:17.882Z</time>
      </trkpt>
      <trkpt lat="65.57272" lon="12.30554">
        <ele>62.908935</ele>
        <time>2020-08-13T10:35:18.855Z</time>
      </trkpt>
      <trkpt lat="65.57284" lon="12.30545">
        <ele>62.461461</ele>
        <time>2020-08-13T10:35:19.847Z</time>
      </trkpt>
      <trkpt lat="65.57294" lon="12.30535">
        <ele>62.04006</ele>
        <time>2020-08-13T10:35:20.883Z</time>
      </trkpt>
      <trkpt lat="65.57305" lon="12.30526">
        <ele>61.709944</ele>
        <time>2020-08-13T10:35:21.878Z</time>
      </trkpt>
      <trkpt lat="65.57315" lon="12.30517">
        <ele>61.398923</ele>
        <time>2020-08-13T10:35:22.852Z</time>
      </trkpt>
      <trkpt lat="65.57325" lon="12.30509">
        <ele>61.094137</ele>
        <time>2020-08-13T10:35:23.870Z</time>
      </trkpt>
      <trkpt lat="65.57335" lon="12.30501">
        <ele>60.801818</ele>
        <time>2020-08-13T10:35:24.842Z</time>
      </trkpt>
      <trkpt lat="65.57344" lon="12.30494">
        <ele>60.52626</ele>
        <time>2020-08-13T10:35:25.897Z</time>
      </trkpt>
      <trkpt lat="65.57353" lon="12.30486">
        <ele>60.257335</ele>
        <time>2020-08-13T10:35:26.899Z</time>
      </trkpt>
      <trkpt lat="65.57361" lon="12.30479">
        <ele>59.995418</ele>
        <time>2020-08-13T10:35:27.849Z</time>
      </trkpt>
      <trkpt lat="65.57377" lon="12.30465">
        <ele>59.51159</ele>
        <time>2020-08-13T10:35:29.870Z</time>
      </trkpt>
      <trkpt lat="65.57391" lon="12.30451">
        <ele>59.086796</ele>
        <time>2020-08-13T10:35:31.842Z</time>
      </trkpt>
      <trkpt lat="65.57403" lon="12.30439">
        <ele>58.699485</ele>
        <time>2020-08-13T10:35:33.865Z</time>
      </trkpt>
      <trkpt lat="65.57415" lon="12.30428">
        <ele>58.318656</ele>
        <time>2020-08-13T10:35:35.866Z</time>
      </trkpt>
      <trkpt lat="65.57429" lon="12.30417">
        <ele>57.905478</ele>
        <time>2020-08-13T10:35:37.859Z</time>
      </trkpt>
      <trkpt lat="65.57444" lon="12.30407">
        <ele>57.443314</ele>
        <time>2020-08-13T10:35:39.861Z</time>
      </trkpt>
      <trkpt lat="65.57461" lon="12.30395">
        <ele>56.958412</ele>
        <time>2020-08-13T10:35:41.876Z</time>
      </trkpt>
      <trkpt lat="65.57476" lon="12.30384">
        <ele>56.639241</ele>
        <time>2020-08-13T10:35:43.869Z</time>
      </trkpt>
      <trkpt lat="65.5749" lon="12.30372">
        <ele>56.354235</ele>
        <time>2020-08-13T10:35:45.858Z</time>
      </trkpt>
      <trkpt lat="65.57504" lon="12.30361">
        <ele>56.082451</ele>
        <time>2020-08-13T10:35:47.852Z</time>
      </trkpt>
      <trkpt lat="65.57518" lon="12.3035">
        <ele>55.816875</ele>
        <time>2020-08-13T10:35:49.881Z</time>
      </trkpt>
      <trkpt lat="65.57531" lon="12.3034">
        <ele>55.572484</ele>
        <time>2020-08-13T10:35:51.883Z</time>
      </trkpt>
      <trkpt lat="65.57543" lon="12.30331">
        <ele>55.333589</ele>
        <time>2020-08-13T10:35:53.865Z</time>
      </trkpt>
      <trkpt lat="65.57554" lon="12.30321">
        <ele>55.113615</ele>
        <time>2020-08-13T10:35:55.849Z</time>
      </trkpt>
      <trkpt lat="65.57566" lon="12.30311">
        <ele>54.892166</ele>
        <time>2020-08-13T10:35:57.875Z</time>
      </trkpt>
      <trkpt lat="65.57577" lon="12.30301">
        <ele>54.670854</ele>
        <time>2020-08-13T10:35:59.848Z</time>
      </trkpt>
      <trkpt lat="65.57588" lon="12.3029">
        <ele>54.447547</ele>
        <time>2020-08-13T10:36:01.846Z</time>
      </trkpt>
      <trkpt lat="65.576" lon="12.3028">
        <ele>54.222622</ele>
        <time>2020-08-13T10:36:03.862Z</time>
      </trkpt>
      <trkpt lat="65.57611" lon="12.30271">
        <ele>53.99969</ele>
        <time>2020-08-13T10:36:05.853Z</time>
      </trkpt>
      <trkpt lat="65.57622" lon="12.3026">
        <ele>53.773204</ele>
        <time>2020-08-13T10:36:07.876Z</time>
      </trkpt>
      <trkpt lat="65.57634" lon="12.3025">
        <ele>53.573417</ele>
        <time>2020-08-13T10:36:09.869Z</time>
      </trkpt>
      <trkpt lat="65.57646" lon="12.30239">
        <ele>53.605519</ele>
        <time>2020-08-13T10:36:11.869Z</time>
      </trkpt>
      <trkpt lat="65.57657" lon="12.3023">
        <ele>53.63637</ele>
        <time>2020-08-13T10:36:13.851Z</time>
      </trkpt>
      <trkpt lat="65.57668" lon="12.30221">
        <ele>53.667007</ele>
        <time>2020-08-13T10:36:15.879Z</time>
      </trkpt>
      <trkpt lat="65.57679" lon="12.30211">
        <ele>53.697331</ele>
        <time>2020-08-13T10:36:17.846Z</time>
      </trkpt>
      <trkpt lat="65.5769" lon="12.30202">
        <ele>53.727481</ele>
        <time>2020-08-13T10:36:19.862Z</time>
      </trkpt>
      <trkpt lat="65.57702" lon="12.30193">
        <ele>53.757978</ele>
        <time>2020-08-13T10:36:21.897Z</time>
      </trkpt>
      <trkpt lat="65.57713" lon="12.30183">
        <ele>53.78893</ele>
        <time>2020-08-13T10:36:23.849Z</time>
      </trkpt>
      <trkpt lat="65.57724" lon="12.30173">
        <ele>53.819774</ele>
        <time>2020-08-13T10:36:25.862Z</time>
      </trkpt>
      <trkpt lat="65.57735" lon="12.30164">
        <ele>53.850448</ele>
        <time>2020-08-13T10:36:27.847Z</time>
      </trkpt>
      <trkpt lat="65.57747" lon="12.30154">
        <ele>53.881779</ele>
        <time>2020-08-13T10:36:29.885Z</time>
      </trkpt>
      <trkpt lat="65.57758" lon="12.30145">
        <ele>53.912832</ele>
        <time>2020-08-13T10:36:31.858Z</time>
      </trkpt>
      <trkpt lat="65.5777" lon="12.30136">
        <ele>53.94411</ele>
        <time>2020-08-13T10:36:33.877Z</time>
      </trkpt>
      <trkpt lat="65.57781" lon="12.30127">
        <ele>53.97485</ele>
        <time>2020-08-13T10:36:35.861Z</time>
      </trkpt>
      <trkpt lat="65.57793" lon="12.30117">
        <ele>54.00559</ele>
        <time>2020-08-13T10:36:37.850Z</time>
      </trkpt>
      <trkpt lat="65.57804" lon="12.30108">
        <ele>54.016398</ele>
        <time>2020-08-13T10:36:39.879Z</time>
      </trkpt>
      <trkpt lat="65.57815" lon="12.30098">
        <ele>53.842632</ele>
        <time>2020-08-13T10:36:41.855Z</time>
      </trkpt>
      <trkpt lat="65.57826" lon="12.30089">
        <ele>53.669254</ele>
        <time>2020-08-13T10:36:43.882Z</time>
      </trkpt>
      <trkpt lat="65.57838" lon="12.3008">
        <ele>53.494305</ele>
        <time>2020-08-13T10:36:45.849Z</time>
      </trkpt>
      <trkpt lat="65.57849" lon="12.30071">
        <ele>53.328</ele>
        <time>2020-08-13T10:36:47.850Z</time>
      </trkpt>
      <trkpt lat="65.57859" lon="12.30062">
        <ele>53.170321</ele>
        <time>2020-08-13T10:36:49.867Z</time>
      </trkpt>
      <trkpt lat="65.57869" lon="12.30053">
        <ele>53.010864</ele>
        <time>2020-08-13T10:36:51.851Z</time>
      </trkpt>
      <trkpt lat="65.5788" lon="12.30045">
        <ele>52.843434</ele>
        <time>2020-08-13T10:36:53.847Z</time>
      </trkpt>
      <trkpt lat="65.57892" lon="12.30039">
        <ele>52.674941</ele>
        <time>2020-08-13T10:36:55.842Z</time>
      </trkpt>
      <trkpt lat="65.57903" lon="12.30035">
        <ele>52.500234</ele>
        <time>2020-08-13T10:36:57.862Z</time>
      </trkpt>
      <trkpt lat="65.57916" lon="12.30034">
        <ele>52.318322</ele>
        <time>2020-08-13T10:36:59.855Z</time>
      </trkpt>
      <trkpt lat="65.57929" lon="12.30035">
        <ele>52.130713</ele>
        <time>2020-08-13T10:37:01.898Z</time>
      </trkpt>
      <trkpt lat="65.57942" lon="12.30036">
        <ele>51.938553</ele>
        <time>2020-08-13T10:37:03.871Z</time>
      </trkpt>
      <trkpt lat="65.57955" lon="12.30038">
        <ele>51.753359</ele>
        <time>2020-08-13T10:37:05.849Z</time>
      </trkpt>
      <trkpt lat="65.57967" lon="12.30041">
        <ele>51.575318</ele>
        <time>2020-08-13T10:37:07.853Z</time>
      </trkpt>
      <trkpt lat="65.57979" lon="12.30045">
        <ele>51.363498</ele>
        <time>2020-08-13T10:37:09.870Z</time>
      </trkpt>
      <trkpt lat="65.57991" lon="12.30047">
        <ele>50.98047</ele>
        <time>2020-08-13T10:37:11.873Z</time>
      </trkpt>
      <trkpt lat="65.58003" lon="12.3005">
        <ele>50.60333</ele>
        <time>2020-08-13T10:37:13.860Z</time>
      </trkpt>
      <trkpt lat="65.58013" lon="12.30053">
        <ele>50.255094</ele>
        <time>2020-08-13T10:37:15.865Z</time>
      </trkpt>
      <trkpt lat="65.58024" lon="12.30056">
        <ele>49.913008</ele>
        <time>2020-08-13T10:37:17.864Z</time>
      </trkpt>
      <trkpt lat="65.58034" lon="12.30059">
        <ele>49.580804</ele>
        <time>2020-08-13T10:37:19.864Z</time>
      </trkpt>
      <trkpt lat="65.58043" lon="12.30063">
        <ele>49.257159</ele>
        <time>2020-08-13T10:37:21.856Z</time>
      </trkpt>
      <trkpt lat="65.58054" lon="12.30065">
        <ele>48.916001</ele>
        <time>2020-08-13T10:37:23.877Z</time>
      </trkpt>
      <trkpt lat="65.58064" lon="12.30068">
        <ele>48.594005</ele>
        <time>2020-08-13T10:37:25.850Z</time>
      </trkpt>
      <trkpt lat="65.58073" lon="12.3007">
        <ele>48.282335</ele>
        <time>2020-08-13T10:37:27.868Z</time>
      </trkpt>
      <trkpt lat="65.58083" lon="12.30073">
        <ele>47.960645</ele>
        <time>2020-08-13T10:37:29.857Z</time>
      </trkpt>
      <trkpt lat="65.58093" lon="12.30076">
        <ele>47.622869</ele>
        <time>2020-08-13T10:37:31.845Z</time>
      </trkpt>
      <trkpt lat="65.58103" lon="12.30079">
        <ele>47.309706</ele>
        <time>2020-08-13T10:37:33.860Z</time>
      </trkpt>
      <trkpt lat="65.58112" lon="12.30082">
        <ele>46.99419</ele>
        <time>2020-08-13T10:37:35.870Z</time>
      </trkpt>
      <trkpt lat="65.58123" lon="12.30084">
        <ele>46.646539</ele>
        <time>2020-08-13T10:37:37.864Z</time>
      </trkpt>
      <trkpt lat="65.58135" lon="12.30088">
        <ele>46.255384</ele>
        <time>2020-08-13T10:37:39.850Z</time>
      </trkpt>
      <trkpt lat="65.58147" lon="12.30091">
        <ele>45.86713</ele>
        <time>2020-08-13T10:37:41.847Z</time>
      </trkpt>
      <trkpt lat="65.58157" lon="12.30094">
        <ele>45.534176</ele>
        <time>2020-08-13T10:37:43.888Z</time>
      </trkpt>
      <trkpt lat="65.58167" lon="12.30099">
        <ele>45.3794</ele>
        <time>2020-08-13T10:37:45.892Z</time>
      </trkpt>
      <trkpt lat="65.58178" lon="12.30111">
        <ele>45.182056</ele>
        <time>2020-08-13T10:37:48.873Z</time>
      </trkpt>
      <trkpt lat="65.58187" lon="12.30121">
        <ele>45.015654</ele>
        <time>2020-08-13T10:37:51.856Z</time>
      </trkpt>
      <trkpt lat="65.58196" lon="12.3013">
        <ele>44.863013</ele>
        <time>2020-08-13T10:37:55.867Z</time>
      </trkpt>
      <trkpt lat="65.58206" lon="12.30137">
        <ele>44.681859</ele>
        <time>2020-08-13T10:38:00.857Z</time>
      </trkpt>
      <trkpt lat="65.58216" lon="12.30138">
        <ele>44.5272</ele>
        <time>2020-08-13T10:38:04.843Z</time>
      </trkpt>
      <trkpt lat="65.58227" lon="12.30138">
        <ele>44.343446</ele>
        <time>2020-08-13T10:38:08.885Z</time>
      </trkpt>
      <trkpt lat="65.58237" lon="12.3014">
        <ele>44.180477</ele>
        <time>2020-08-13T10:38:12.849Z</time>
      </trkpt>
      <trkpt lat="65.58248" lon="12.30141">
        <ele>44.011226</ele>
        <time>2020-08-13T10:38:16.858Z</time>
      </trkpt>
      <trkpt lat="65.58259" lon="12.30146">
        <ele>43.817662</ele>
        <time>2020-08-13T10:38:20.861Z</time>
      </trkpt>
      <trkpt lat="65.58268" lon="12.30148">
        <ele>43.667762</ele>
        <time>2020-08-13T10:38:23.849Z</time>
      </trkpt>
      <trkpt lat="65.58278" lon="12.3015">
        <ele>43.511075</ele>
        <time>2020-08-13T10:38:26.841Z</time>
      </trkpt>
      <trkpt lat="65.58288" lon="12.30153">
        <ele>43.353669</ele>
        <time>2020-08-13T10:38:29.845Z</time>
      </trkpt>
      <trkpt lat="65.58298" lon="12.30161">
        <ele>43.171945</ele>
        <time>2020-08-13T10:38:32.837Z</time>
      </trkpt>
      <trkpt lat="65.58309" lon="12.30169">
        <ele>42.989828</ele>
        <time>2020-08-13T10:38:35.892Z</time>
      </trkpt>
      <trkpt lat="65.5832" lon="12.30168">
        <ele>42.815749</ele>
        <time>2020-08-13T10:38:39.854Z</time>
      </trkpt>
      <trkpt lat="65.58319" lon="12.30189">
        <ele>42.669249</ele>
        <time>2020-08-13T11:04:58.147Z</time>
      </trkpt>
      <trkpt lat="65.58325" lon="12.30216">
        <ele>42.803803</ele>
        <time>2020-08-13T11:06:37.135Z</time>
      </trkpt>
      <trkpt lat="65.5833" lon="12.30256">
        <ele>43.116284</ele>
        <time>2020-08-13T11:07:48.144Z</time>
      </trkpt>
      <trkpt lat="65.58133" lon="12.3548">
        <ele>81.437993</ele>
        <time>2020-08-13T11:19:04.898Z</time>
      </trkpt>
      <trkpt lat="65.57806" lon="12.39353">
        <ele>60.935097</ele>
        <time>2020-08-13T11:27:10.010Z</time>
      </trkpt>
      <trkpt lat="65.5778" lon="12.39375">
        <ele>57.10379</ele>
        <time>2020-08-13T11:27:10.928Z</time>
      </trkpt>
      <trkpt lat="65.57792" lon="12.39381">
        <ele>55.425427</ele>
        <time>2020-08-13T11:27:11.945Z</time>
      </trkpt>
      <trkpt lat="65.57791" lon="12.3936">
        <ele>54.198849</ele>
        <time>2020-08-13T11:27:26.886Z</time>
      </trkpt>
      <trkpt lat="65.57795" lon="12.39341">
        <ele>52.973874</ele>
        <time>2020-08-13T11:27:33.894Z</time>
      </trkpt>
      <trkpt lat="65.57799" lon="12.39321">
        <ele>51.755229</ele>
        <time>2020-08-13T11:27:43.895Z</time>
      </trkpt>
      <trkpt lat="65.57803" lon="12.39301">
        <ele>50.501675</ele>
        <time>2020-08-13T11:27:53.891Z</time>
      </trkpt>
      <trkpt lat="65.57808" lon="12.39267">
        <ele>48.497887</ele>
        <time>2020-08-13T11:31:18.901Z</time>
      </trkpt>
      <trkpt lat="65.57812" lon="12.39244">
        <ele>47.099968</ele>
        <time>2020-08-13T11:31:21.888Z</time>
      </trkpt>
      <trkpt lat="65.57818" lon="12.39196">
        <ele>44.291278</ele>
        <time>2020-08-13T11:31:26.910Z</time>
      </trkpt>
      <trkpt lat="65.57821" lon="12.39168">
        <ele>44.088447</ele>
        <time>2020-08-13T11:31:30.886Z</time>
      </trkpt>
      <trkpt lat="65.57829" lon="12.39114">
        <ele>45.437695</ele>
        <time>2020-08-13T11:31:52.950Z</time>
      </trkpt>
      <trkpt lat="65.57831" lon="12.39088">
        <ele>46.036973</ele>
        <time>2020-08-13T11:31:56.889Z</time>
      </trkpt>
      <trkpt lat="65.57831" lon="12.39061">
        <ele>46.680753</ele>
        <time>2020-08-13T11:32:00.887Z</time>
      </trkpt>
      <trkpt lat="65.57832" lon="12.39036">
        <ele>47.269972</ele>
        <time>2020-08-13T11:32:04.899Z</time>
      </trkpt>
      <trkpt lat="65.57834" lon="12.3901">
        <ele>47.869568</ele>
        <time>2020-08-13T11:32:08.892Z</time>
      </trkpt>
      <trkpt lat="65.57836" lon="12.38986">
        <ele>48.441814</ele>
        <time>2020-08-13T11:32:12.906Z</time>
      </trkpt>
      <trkpt lat="65.57837" lon="12.38963">
        <ele>48.983265</ele>
        <time>2020-08-13T11:32:16.887Z</time>
      </trkpt>
      <trkpt lat="65.57838" lon="12.38942">
        <ele>49.490943</ele>
        <time>2020-08-13T11:32:20.892Z</time>
      </trkpt>
      <trkpt lat="65.5784" lon="12.3892">
        <ele>50.003796</ele>
        <time>2020-08-13T11:32:24.902Z</time>
      </trkpt>
      <trkpt lat="65.57841" lon="12.38894">
        <ele>50.613038</ele>
        <time>2020-08-13T11:32:29.881Z</time>
      </trkpt>
      <trkpt lat="65.57843" lon="12.38872">
        <ele>51.149111</ele>
        <time>2020-08-13T11:32:34.910Z</time>
      </trkpt>
      <trkpt lat="65.57846" lon="12.38849">
        <ele>51.701039</ele>
        <time>2020-08-13T11:32:39.937Z</time>
      </trkpt>
      <trkpt lat="65.57848" lon="12.38823">
        <ele>52.321196</ele>
        <time>2020-08-13T11:32:44.891Z</time>
      </trkpt>
      <trkpt lat="65.57851" lon="12.38798">
        <ele>52.920085</ele>
        <time>2020-08-13T11:32:49.888Z</time>
      </trkpt>
      <trkpt lat="65.57852" lon="12.38776">
        <ele>53.447332</ele>
        <time>2020-08-13T11:32:53.897Z</time>
      </trkpt>
      <trkpt lat="65.57854" lon="12.38749">
        <ele>53.755988</ele>
        <time>2020-08-13T11:32:57.908Z</time>
      </trkpt>
      <trkpt lat="65.57857" lon="12.38726">
        <ele>53.629939</ele>
        <time>2020-08-13T11:33:00.902Z</time>
      </trkpt>
      <trkpt lat="65.5786" lon="12.38699">
        <ele>53.481414</ele>
        <time>2020-08-13T11:33:03.901Z</time>
      </trkpt>
      <trkpt lat="65.57864" lon="12.38669">
        <ele>53.312545</ele>
        <time>2020-08-13T11:33:06.916Z</time>
      </trkpt>
      <trkpt lat="65.57868" lon="12.38646">
        <ele>53.182677</ele>
        <time>2020-08-13T11:33:08.916Z</time>
      </trkpt>
      <trkpt lat="65.57871" lon="12.38622">
        <ele>53.049196</ele>
        <time>2020-08-13T11:33:10.887Z</time>
      </trkpt>
      <trkpt lat="65.57874" lon="12.38598">
        <ele>52.915818</ele>
        <time>2020-08-13T11:33:12.889Z</time>
      </trkpt>
      <trkpt lat="65.57878" lon="12.38575">
        <ele>52.783729</ele>
        <time>2020-08-13T11:33:14.895Z</time>
      </trkpt>
      <trkpt lat="65.57882" lon="12.38553">
        <ele>52.658338</ele>
        <time>2020-08-13T11:33:16.910Z</time>
      </trkpt>
      <trkpt lat="65.57886" lon="12.38532">
        <ele>52.537021</ele>
        <time>2020-08-13T11:33:18.879Z</time>
      </trkpt>
      <trkpt lat="65.5789" lon="12.38512">
        <ele>52.418754</ele>
        <time>2020-08-13T11:33:20.908Z</time>
      </trkpt>
      <trkpt lat="65.57894" lon="12.38493">
        <ele>52.304004</ele>
        <time>2020-08-13T11:33:22.898Z</time>
      </trkpt>
      <trkpt lat="65.57901" lon="12.38466">
        <ele>52.140906</ele>
        <time>2020-08-13T11:33:25.931Z</time>
      </trkpt>
      <trkpt lat="65.57906" lon="12.38442">
        <ele>51.996416</ele>
        <time>2020-08-13T11:33:28.919Z</time>
      </trkpt>
      <trkpt lat="65.57912" lon="12.38421">
        <ele>51.859825</ele>
        <time>2020-08-13T11:33:31.893Z</time>
      </trkpt>
      <trkpt lat="65.57918" lon="12.38402">
        <ele>51.732492</ele>
        <time>2020-08-13T11:33:34.936Z</time>
      </trkpt>
      <trkpt lat="65.57925" lon="12.38381">
        <ele>51.588841</ele>
        <time>2020-08-13T11:33:37.898Z</time>
      </trkpt>
      <trkpt lat="65.57935" lon="12.38362">
        <ele>51.448401</ele>
        <time>2020-08-13T11:33:40.909Z</time>
      </trkpt>
      <trkpt lat="65.57945" lon="12.38345">
        <ele>51.334963</ele>
        <time>2020-08-13T11:33:43.908Z</time>
      </trkpt>
      <trkpt lat="65.57956" lon="12.38332">
        <ele>51.228861</ele>
        <time>2020-08-13T11:33:46.881Z</time>
      </trkpt>
      <trkpt lat="65.57966" lon="12.38322">
        <ele>51.126057</ele>
        <time>2020-08-13T11:33:49.902Z</time>
      </trkpt>
      <trkpt lat="65.57976" lon="12.38313">
        <ele>51.027767</ele>
        <time>2020-08-13T11:33:52.896Z</time>
      </trkpt>
      <trkpt lat="65.57987" lon="12.38306">
        <ele>50.925282</ele>
        <time>2020-08-13T11:33:55.926Z</time>
      </trkpt>
      <trkpt lat="65.57999" lon="12.383">
        <ele>50.807104</ele>
        <time>2020-08-13T11:33:58.890Z</time>
      </trkpt>
      <trkpt lat="65.58008" lon="12.38295">
        <ele>50.721074</ele>
        <time>2020-08-13T11:34:00.895Z</time>
      </trkpt>
      <trkpt lat="65.58017" lon="12.38292">
        <ele>50.636242</ele>
        <time>2020-08-13T11:34:02.892Z</time>
      </trkpt>
      <trkpt lat="65.58027" lon="12.38289">
        <ele>50.547975</ele>
        <time>2020-08-13T11:34:04.910Z</time>
      </trkpt>
      <trkpt lat="65.58037" lon="12.38287">
        <ele>50.454271</ele>
        <time>2020-08-13T11:34:06.889Z</time>
      </trkpt>
      <trkpt lat="65.58047" lon="12.38284">
        <ele>50.362204</ele>
        <time>2020-08-13T11:34:08.913Z</time>
      </trkpt>
      <trkpt lat="65.58056" lon="12.38282">
        <ele>50.275076</ele>
        <time>2020-08-13T11:34:10.903Z</time>
      </trkpt>
      <trkpt lat="65.58066" lon="12.38281">
        <ele>50.187028</ele>
        <time>2020-08-13T11:34:12.900Z</time>
      </trkpt>
      <trkpt lat="65.58076" lon="12.38278">
        <ele>50.095922</ele>
        <time>2020-08-13T11:34:14.903Z</time>
      </trkpt>
      <trkpt lat="65.58085" lon="12.38275">
        <ele>50.007378</ele>
        <time>2020-08-13T11:34:16.899Z</time>
      </trkpt>
      <trkpt lat="65.58095" lon="12.38271">
        <ele>49.912165</ele>
        <time>2020-08-13T11:34:18.907Z</time>
      </trkpt>
      <trkpt lat="65.58104" lon="12.38267">
        <ele>49.960988</ele>
        <time>2020-08-13T11:34:20.906Z</time>
      </trkpt>
      <trkpt lat="65.58116" lon="12.38259">
        <ele>50.429452</ele>
        <time>2020-08-13T11:34:23.919Z</time>
      </trkpt>
      <trkpt lat="65.58125" lon="12.38247">
        <ele>50.841947</ele>
        <time>2020-08-13T11:34:26.890Z</time>
      </trkpt>
      <trkpt lat="65.58131" lon="12.3823">
        <ele>51.224716</ele>
        <time>2020-08-13T11:34:29.899Z</time>
      </trkpt>
      <trkpt lat="65.58138" lon="12.38206">
        <ele>51.693633</ele>
        <time>2020-08-13T11:34:33.902Z</time>
      </trkpt>
      <trkpt lat="65.58142" lon="12.38182">
        <ele>52.121174</ele>
        <time>2020-08-13T11:34:37.907Z</time>
      </trkpt>
      <trkpt lat="65.58143" lon="12.38156">
        <ele>52.549968</ele>
        <time>2020-08-13T11:34:41.889Z</time>
      </trkpt>
      <trkpt lat="65.58141" lon="12.38131">
        <ele>52.973727</ele>
        <time>2020-08-13T11:34:45.915Z</time>
      </trkpt>
      <trkpt lat="65.58137" lon="12.38108">
        <ele>53.375186</ele>
        <time>2020-08-13T11:34:49.892Z</time>
      </trkpt>
      <trkpt lat="65.58133" lon="12.38085">
        <ele>53.781716</ele>
        <time>2020-08-13T11:34:53.889Z</time>
      </trkpt>
      <trkpt lat="65.58131" lon="12.38058">
        <ele>54.237833</ele>
        <time>2020-08-13T11:34:57.902Z</time>
      </trkpt>
      <trkpt lat="65.5813" lon="12.38037">
        <ele>54.596144</ele>
        <time>2020-08-13T11:35:00.908Z</time>
      </trkpt>
      <trkpt lat="65.58129" lon="12.3801">
        <ele>55.042211</ele>
        <time>2020-08-13T11:35:04.931Z</time>
      </trkpt>
      <trkpt lat="65.58129" lon="12.37982">
        <ele>55.498327</ele>
        <time>2020-08-13T11:35:08.906Z</time>
      </trkpt>
      <trkpt lat="65.58131" lon="12.37958">
        <ele>55.900843</ele>
        <time>2020-08-13T11:35:11.897Z</time>
      </trkpt>
      <trkpt lat="65.58134" lon="12.37931">
        <ele>56.363839</ele>
        <time>2020-08-13T11:35:14.885Z</time>
      </trkpt>
      <trkpt lat="65.58137" lon="12.37908">
        <ele>56.75924</ele>
        <time>2020-08-13T11:35:16.899Z</time>
      </trkpt>
      <trkpt lat="65.5814" lon="12.37883">
        <ele>56.87554</ele>
        <time>2020-08-13T11:35:18.905Z</time>
      </trkpt>
      <trkpt lat="65.58144" lon="12.37854">
        <ele>56.37094</ele>
        <time>2020-08-13T11:35:20.885Z</time>
      </trkpt>
      <trkpt lat="65.58149" lon="12.37823">
        <ele>55.839145</ele>
        <time>2020-08-13T11:35:22.905Z</time>
      </trkpt>
      <trkpt lat="65.58154" lon="12.37791">
        <ele>55.276103</ele>
        <time>2020-08-13T11:35:24.893Z</time>
      </trkpt>
      <trkpt lat="65.5816" lon="12.37757">
        <ele>54.670584</ele>
        <time>2020-08-13T11:35:26.893Z</time>
      </trkpt>
      <trkpt lat="65.58167" lon="12.37723">
        <ele>54.05377</ele>
        <time>2020-08-13T11:35:28.886Z</time>
      </trkpt>
      <trkpt lat="65.58174" lon="12.37688">
        <ele>53.410858</ele>
        <time>2020-08-13T11:35:30.904Z</time>
      </trkpt>
      <trkpt lat="65.58181" lon="12.37653">
        <ele>52.754373</ele>
        <time>2020-08-13T11:35:32.897Z</time>
      </trkpt>
      <trkpt lat="65.58191" lon="12.37619">
        <ele>52.070116</ele>
        <time>2020-08-13T11:35:34.882Z</time>
      </trkpt>
      <trkpt lat="65.58197" lon="12.37602">
        <ele>51.705177</ele>
        <time>2020-08-13T11:35:35.887Z</time>
      </trkpt>
      <trkpt lat="65.5821" lon="12.37573">
        <ele>51.007418</ele>
        <time>2020-08-13T11:35:37.910Z</time>
      </trkpt>
      <trkpt lat="65.58224" lon="12.37548">
        <ele>50.324911</ele>
        <time>2020-08-13T11:35:39.892Z</time>
      </trkpt>
      <trkpt lat="65.58238" lon="12.37527">
        <ele>49.646134</ele>
        <time>2020-08-13T11:35:41.893Z</time>
      </trkpt>
      <trkpt lat="65.58252" lon="12.37514">
        <ele>48.974224</ele>
        <time>2020-08-13T11:35:43.895Z</time>
      </trkpt>
      <trkpt lat="65.58267" lon="12.37507">
        <ele>48.334123</ele>
        <time>2020-08-13T11:35:45.929Z</time>
      </trkpt>
      <trkpt lat="65.58281" lon="12.37504">
        <ele>47.704141</ele>
        <time>2020-08-13T11:35:47.927Z</time>
      </trkpt>
      <trkpt lat="65.58295" lon="12.37504">
        <ele>47.120006</ele>
        <time>2020-08-13T11:35:49.889Z</time>
      </trkpt>
      <trkpt lat="65.58308" lon="12.37506">
        <ele>46.560594</ele>
        <time>2020-08-13T11:35:51.907Z</time>
      </trkpt>
      <trkpt lat="65.58321" lon="12.3751">
        <ele>45.999333</ele>
        <time>2020-08-13T11:35:53.917Z</time>
      </trkpt>
      <trkpt lat="65.58333" lon="12.37514">
        <ele>45.447446</ele>
        <time>2020-08-13T11:35:55.889Z</time>
      </trkpt>
      <trkpt lat="65.58346" lon="12.37519">
        <ele>44.892594</ele>
        <time>2020-08-13T11:35:57.897Z</time>
      </trkpt>
      <trkpt lat="65.58359" lon="12.37522">
        <ele>44.344239</ele>
        <time>2020-08-13T11:35:59.896Z</time>
      </trkpt>
      <trkpt lat="65.58371" lon="12.37525">
        <ele>43.813657</ele>
        <time>2020-08-13T11:36:01.913Z</time>
      </trkpt>
      <trkpt lat="65.58383" lon="12.37527">
        <ele>43.306037</ele>
        <time>2020-08-13T11:36:03.917Z</time>
      </trkpt>
      <trkpt lat="65.58394" lon="12.37529">
        <ele>42.8207</ele>
        <time>2020-08-13T11:36:05.898Z</time>
      </trkpt>
      <trkpt lat="65.58404" lon="12.37528">
        <ele>42.366361</ele>
        <time>2020-08-13T11:36:07.905Z</time>
      </trkpt>
      <trkpt lat="65.58414" lon="12.37526">
        <ele>42.195088</ele>
        <time>2020-08-13T11:36:09.911Z</time>
      </trkpt>
      <trkpt lat="65.58423" lon="12.37522">
        <ele>42.386167</ele>
        <time>2020-08-13T11:36:11.888Z</time>
      </trkpt>
      <trkpt lat="65.58436" lon="12.37513">
        <ele>42.667129</ele>
        <time>2020-08-13T11:36:14.922Z</time>
      </trkpt>
      <trkpt lat="65.58444" lon="12.37503">
        <ele>42.854959</ele>
        <time>2020-08-13T11:36:16.902Z</time>
      </trkpt>
      <trkpt lat="65.58455" lon="12.37488">
        <ele>43.110028</ele>
        <time>2020-08-13T11:36:19.909Z</time>
      </trkpt>
      <trkpt lat="65.58465" lon="12.37473">
        <ele>43.358797</ele>
        <time>2020-08-13T11:36:22.922Z</time>
      </trkpt>
      <trkpt lat="65.58476" lon="12.37457">
        <ele>43.631688</ele>
        <time>2020-08-13T11:36:25.886Z</time>
      </trkpt>
      <trkpt lat="65.58487" lon="12.37441">
        <ele>43.897899</ele>
        <time>2020-08-13T11:36:28.904Z</time>
      </trkpt>
      <trkpt lat="65.58497" lon="12.37424">
        <ele>44.166217</ele>
        <time>2020-08-13T11:36:31.889Z</time>
      </trkpt>
      <trkpt lat="65.58507" lon="12.37407">
        <ele>44.419019</ele>
        <time>2020-08-13T11:36:34.916Z</time>
      </trkpt>
      <trkpt lat="65.58517" lon="12.37388">
        <ele>44.685895</ele>
        <time>2020-08-13T11:36:37.893Z</time>
      </trkpt>
      <trkpt lat="65.58528" lon="12.37369">
        <ele>44.967302</ele>
        <time>2020-08-13T11:36:40.912Z</time>
      </trkpt>
      <trkpt lat="65.58536" lon="12.37357">
        <ele>45.159799</ele>
        <time>2020-08-13T11:36:42.913Z</time>
      </trkpt>
      <trkpt lat="65.58546" lon="12.37338">
        <ele>45.433576</ele>
        <time>2020-08-13T11:36:45.885Z</time>
      </trkpt>
      <trkpt lat="65.58557" lon="12.37319">
        <ele>45.715183</ele>
        <time>2020-08-13T11:36:48.893Z</time>
      </trkpt>
      <trkpt lat="65.58565" lon="12.37307">
        <ele>45.916017</ele>
        <time>2020-08-13T11:36:50.914Z</time>
      </trkpt>
      <trkpt lat="65.58573" lon="12.37296">
        <ele>46.148813</ele>
        <time>2020-08-13T11:36:52.890Z</time>
      </trkpt>
      <trkpt lat="65.58581" lon="12.37285">
        <ele>46.391745</ele>
        <time>2020-08-13T11:36:54.888Z</time>
      </trkpt>
      <trkpt lat="65.5859" lon="12.37276">
        <ele>46.626311</ele>
        <time>2020-08-13T11:36:56.893Z</time>
      </trkpt>
      <trkpt lat="65.58599" lon="12.37268">
        <ele>46.864097</ele>
        <time>2020-08-13T11:36:58.896Z</time>
      </trkpt>
      <trkpt lat="65.58607" lon="12.37262">
        <ele>47.09495</ele>
        <time>2020-08-13T11:37:00.897Z</time>
      </trkpt>
      <trkpt lat="65.5862" lon="12.37255">
        <ele>47.430603</ele>
        <time>2020-08-13T11:37:03.922Z</time>
      </trkpt>
      <trkpt lat="65.58633" lon="12.37249">
        <ele>47.773102</ele>
        <time>2020-08-13T11:37:06.890Z</time>
      </trkpt>
      <trkpt lat="65.58643" lon="12.37245">
        <ele>48.02008</ele>
        <time>2020-08-13T11:37:08.892Z</time>
      </trkpt>
      <trkpt lat="65.58652" lon="12.37243">
        <ele>48.258559</ele>
        <time>2020-08-13T11:37:10.912Z</time>
      </trkpt>
      <trkpt lat="65.58665" lon="12.37239">
        <ele>48.581916</ele>
        <time>2020-08-13T11:37:13.905Z</time>
      </trkpt>
      <trkpt lat="65.58675" lon="12.37237">
        <ele>48.856208</ele>
        <time>2020-08-13T11:37:16.889Z</time>
      </trkpt>
      <trkpt lat="65.58686" lon="12.37233">
        <ele>49.133514</ele>
        <time>2020-08-13T11:37:20.887Z</time>
      </trkpt>
      <trkpt lat="65.58697" lon="12.37233">
        <ele>49.416459</ele>
        <time>2020-08-13T11:37:25.915Z</time>
      </trkpt>
      <trkpt lat="65.58706" lon="12.37233">
        <ele>49.645837</ele>
        <time>2020-08-13T11:37:29.908Z</time>
      </trkpt>
      <trkpt lat="65.58716" lon="12.37233">
        <ele>49.890506</ele>
        <time>2020-08-13T11:37:33.885Z</time>
      </trkpt>
      <trkpt lat="65.58725" lon="12.37235">
        <ele>50.12392</ele>
        <time>2020-08-13T11:37:37.889Z</time>
      </trkpt>
      <trkpt lat="65.58734" lon="12.37242">
        <ele>50.361788</ele>
        <time>2020-08-13T11:37:41.905Z</time>
      </trkpt>
      <trkpt lat="65.58744" lon="12.37253">
        <ele>50.45285</ele>
        <time>2020-08-13T11:37:45.912Z</time>
      </trkpt>
      <trkpt lat="65.58752" lon="12.3727">
        <ele>50.437253</ele>
        <time>2020-08-13T11:37:49.901Z</time>
      </trkpt>
      <trkpt lat="65.58761" lon="12.37284">
        <ele>50.422421</ele>
        <time>2020-08-13T11:37:52.924Z</time>
      </trkpt>
      <trkpt lat="65.58771" lon="12.37302">
        <ele>50.405351</ele>
        <time>2020-08-13T11:37:55.910Z</time>
      </trkpt>
      <trkpt lat="65.58779" lon="12.37316">
        <ele>50.391495</ele>
        <time>2020-08-13T11:37:57.930Z</time>
      </trkpt>
      <trkpt lat="65.58788" lon="12.37333">
        <ele>50.375495</ele>
        <time>2020-08-13T11:37:59.891Z</time>
      </trkpt>
      <trkpt lat="65.58798" lon="12.37349">
        <ele>50.358441</ele>
        <time>2020-08-13T11:38:01.915Z</time>
      </trkpt>
      <trkpt lat="65.58809" lon="12.37365">
        <ele>50.341038</ele>
        <time>2020-08-13T11:38:03.885Z</time>
      </trkpt>
      <trkpt lat="65.5882" lon="12.37378">
        <ele>50.323398</ele>
        <time>2020-08-13T11:38:05.895Z</time>
      </trkpt>
      <trkpt lat="65.58832" lon="12.37386">
        <ele>50.306734</ele>
        <time>2020-08-13T11:38:07.892Z</time>
      </trkpt>
      <trkpt lat="65.58843" lon="12.37388">
        <ele>50.290589</ele>
        <time>2020-08-13T11:38:09.880Z</time>
      </trkpt>
      <trkpt lat="65.58855" lon="12.37387">
        <ele>50.274367</ele>
        <time>2020-08-13T11:38:11.906Z</time>
      </trkpt>
      <trkpt lat="65.58866" lon="12.37382">
        <ele>50.258055</ele>
        <time>2020-08-13T11:38:13.891Z</time>
      </trkpt>
      <trkpt lat="65.58877" lon="12.37375">
        <ele>50.242531</ele>
        <time>2020-08-13T11:38:15.889Z</time>
      </trkpt>
      <trkpt lat="65.58889" lon="12.37365">
        <ele>50.225092</ele>
        <time>2020-08-13T11:38:17.897Z</time>
      </trkpt>
      <trkpt lat="65.58899" lon="12.37357">
        <ele>50.209579</ele>
        <time>2020-08-13T11:38:19.897Z</time>
      </trkpt>
      <trkpt lat="65.58908" lon="12.37347">
        <ele>50.160506</ele>
        <time>2020-08-13T11:38:21.919Z</time>
      </trkpt>
      <trkpt lat="65.58917" lon="12.37338">
        <ele>50.113333</ele>
        <time>2020-08-13T11:38:23.911Z</time>
      </trkpt>
      <trkpt lat="65.58926" lon="12.37327">
        <ele>50.066109</ele>
        <time>2020-08-13T11:38:25.915Z</time>
      </trkpt>
      <trkpt lat="65.58935" lon="12.37319">
        <ele>50.020102</ele>
        <time>2020-08-13T11:38:27.900Z</time>
      </trkpt>
      <trkpt lat="65.58944" lon="12.37311">
        <ele>49.973751</ele>
        <time>2020-08-13T11:38:29.905Z</time>
      </trkpt>
      <trkpt lat="65.58954" lon="12.37301">
        <ele>49.926297</ele>
        <time>2020-08-13T11:38:31.931Z</time>
      </trkpt>
      <trkpt lat="65.58963" lon="12.37292">
        <ele>49.879481</ele>
        <time>2020-08-13T11:38:33.926Z</time>
      </trkpt>
      <trkpt lat="65.58972" lon="12.37284">
        <ele>49.834826</ele>
        <time>2020-08-13T11:38:35.965Z</time>
      </trkpt>
      <trkpt lat="65.5898" lon="12.37277">
        <ele>49.790294</ele>
        <time>2020-08-13T11:38:37.894Z</time>
      </trkpt>
      <trkpt lat="65.58993" lon="12.37265">
        <ele>49.727275</ele>
        <time>2020-08-13T11:38:40.925Z</time>
      </trkpt>
      <trkpt lat="65.59005" lon="12.37253">
        <ele>49.665062</ele>
        <time>2020-08-13T11:38:43.887Z</time>
      </trkpt>
      <trkpt lat="65.59016" lon="12.37241">
        <ele>49.605116</ele>
        <time>2020-08-13T11:38:46.905Z</time>
      </trkpt>
      <trkpt lat="65.59029" lon="12.37229">
        <ele>49.541873</ele>
        <time>2020-08-13T11:38:49.915Z</time>
      </trkpt>
      <trkpt lat="65.59041" lon="12.37219">
        <ele>49.480538</ele>
        <time>2020-08-13T11:38:52.885Z</time>
      </trkpt>
      <trkpt lat="65.59054" lon="12.37211">
        <ele>49.417911</ele>
        <time>2020-08-13T11:38:55.907Z</time>
      </trkpt>
      <trkpt lat="65.59063" lon="12.37207">
        <ele>49.374096</ele>
        <time>2020-08-13T11:38:57.887Z</time>
      </trkpt>
      <trkpt lat="65.59073" lon="12.37204">
        <ele>49.268231</ele>
        <time>2020-08-13T11:38:59.877Z</time>
      </trkpt>
      <trkpt lat="65.59083" lon="12.37202">
        <ele>49.120456</ele>
        <time>2020-08-13T11:39:01.903Z</time>
      </trkpt>
      <trkpt lat="65.59093" lon="12.37199">
        <ele>48.969875</ele>
        <time>2020-08-13T11:39:03.906Z</time>
      </trkpt>
      <trkpt lat="65.59105" lon="12.37199">
        <ele>48.802737</ele>
        <time>2020-08-13T11:39:05.909Z</time>
      </trkpt>
      <trkpt lat="65.59117" lon="12.37201">
        <ele>48.623935</ele>
        <time>2020-08-13T11:39:07.889Z</time>
      </trkpt>
      <trkpt lat="65.59131" lon="12.37201">
        <ele>48.425072</ele>
        <time>2020-08-13T11:39:09.890Z</time>
      </trkpt>
      <trkpt lat="65.59146" lon="12.37201">
        <ele>48.214693</ele>
        <time>2020-08-13T11:39:11.907Z</time>
      </trkpt>
      <trkpt lat="65.5916" lon="12.37197">
        <ele>48.004619</ele>
        <time>2020-08-13T11:39:13.922Z</time>
      </trkpt>
      <trkpt lat="65.59175" lon="12.37189">
        <ele>47.788041</ele>
        <time>2020-08-13T11:39:15.889Z</time>
      </trkpt>
      <trkpt lat="65.59189" lon="12.37182">
        <ele>47.57863</ele>
        <time>2020-08-13T11:39:17.912Z</time>
      </trkpt>
      <trkpt lat="65.59203" lon="12.37175">
        <ele>47.375719</ele>
        <time>2020-08-13T11:39:19.910Z</time>
      </trkpt>
      <trkpt lat="65.59216" lon="12.37168">
        <ele>47.18524</ele>
        <time>2020-08-13T11:39:21.875Z</time>
      </trkpt>
      <trkpt lat="65.59228" lon="12.3716">
        <ele>47.007607</ele>
        <time>2020-08-13T11:39:23.884Z</time>
      </trkpt>
      <trkpt lat="65.59239" lon="12.37153">
        <ele>46.840486</ele>
        <time>2020-08-13T11:39:25.906Z</time>
      </trkpt>
      <trkpt lat="65.59248" lon="12.37147">
        <ele>46.793798</ele>
        <time>2020-08-13T11:39:27.908Z</time>
      </trkpt>
      <trkpt lat="65.59257" lon="12.37142">
        <ele>46.851908</ele>
        <time>2020-08-13T11:39:29.929Z</time>
      </trkpt>
      <trkpt lat="65.59267" lon="12.37136">
        <ele>46.915515</ele>
        <time>2020-08-13T11:39:31.923Z</time>
      </trkpt>
      <trkpt lat="65.59277" lon="12.37129">
        <ele>46.979939</ele>
        <time>2020-08-13T11:39:33.945Z</time>
      </trkpt>
      <trkpt lat="65.59287" lon="12.37123">
        <ele>47.044644</ele>
        <time>2020-08-13T11:39:35.932Z</time>
      </trkpt>
      <trkpt lat="65.59297" lon="12.37118">
        <ele>47.113837</ele>
        <time>2020-08-13T11:39:37.908Z</time>
      </trkpt>
      <trkpt lat="65.59308" lon="12.37112">
        <ele>47.182616</ele>
        <time>2020-08-13T11:39:39.909Z</time>
      </trkpt>
      <trkpt lat="65.59319" lon="12.37105">
        <ele>47.25289</ele>
        <time>2020-08-13T11:39:41.901Z</time>
      </trkpt>
      <trkpt lat="65.59329" lon="12.37098">
        <ele>47.321871</ele>
        <time>2020-08-13T11:39:43.893Z</time>
      </trkpt>
      <trkpt lat="65.5934" lon="12.37091">
        <ele>47.392145</ele>
        <time>2020-08-13T11:39:45.896Z</time>
      </trkpt>
      <trkpt lat="65.59351" lon="12.37084">
        <ele>47.465354</ele>
        <time>2020-08-13T11:39:47.904Z</time>
      </trkpt>
      <trkpt lat="65.59362" lon="12.37077">
        <ele>47.538437</ele>
        <time>2020-08-13T11:39:49.878Z</time>
      </trkpt>
      <trkpt lat="65.59373" lon="12.37071">
        <ele>47.608254</ele>
        <time>2020-08-13T11:39:51.883Z</time>
      </trkpt>
      <trkpt lat="65.59383" lon="12.37065">
        <ele>47.67345</ele>
        <time>2020-08-13T11:39:53.900Z</time>
      </trkpt>
      <trkpt lat="65.59392" lon="12.3706">
        <ele>47.732238</ele>
        <time>2020-08-13T11:39:55.924Z</time>
      </trkpt>
      <trkpt lat="65.59404" lon="12.37052">
        <ele>47.810686</ele>
        <time>2020-08-13T11:39:58.899Z</time>
      </trkpt>
      <trkpt lat="65.59414" lon="12.37046">
        <ele>47.875109</ele>
        <time>2020-08-13T11:40:01.909Z</time>
      </trkpt>
      <trkpt lat="65.59425" lon="12.3704">
        <ele>48.252372</ele>
        <time>2020-08-13T11:40:05.900Z</time>
      </trkpt>
      <trkpt lat="65.59434" lon="12.37032">
        <ele>48.711169</ele>
        <time>2020-08-13T11:40:09.894Z</time>
      </trkpt>
      <trkpt lat="65.59443" lon="12.37028">
        <ele>49.208351</ele>
        <time>2020-08-13T11:40:14.898Z</time>
      </trkpt>
      <trkpt lat="65.59453" lon="12.37022">
        <ele>49.706086</ele>
        <time>2020-08-13T11:40:19.923Z</time>
      </trkpt>
      <trkpt lat="65.59461" lon="12.37015">
        <ele>50.164205</ele>
        <time>2020-08-13T11:40:23.897Z</time>
      </trkpt>
      <trkpt lat="65.59473" lon="12.37011">
        <ele>50.728299</ele>
        <time>2020-08-13T11:40:28.907Z</time>
      </trkpt>
      <trkpt lat="65.59481" lon="12.37007">
        <ele>51.1822</ele>
        <time>2020-08-13T11:40:32.911Z</time>
      </trkpt>
      <trkpt lat="65.5949" lon="12.37003">
        <ele>51.638583</ele>
        <time>2020-08-13T11:40:36.889Z</time>
      </trkpt>
      <trkpt lat="65.595" lon="12.36999">
        <ele>52.114097</ele>
        <time>2020-08-13T11:40:40.900Z</time>
      </trkpt>
      <trkpt lat="65.59511" lon="12.36997">
        <ele>52.669951</ele>
        <time>2020-08-13T11:40:44.895Z</time>
      </trkpt>
      <trkpt lat="65.5952" lon="12.36996">
        <ele>53.159635</ele>
        <time>2020-08-13T11:40:47.898Z</time>
      </trkpt>
      <trkpt lat="65.59531" lon="12.36995">
        <ele>53.709749</ele>
        <time>2020-08-13T11:40:50.912Z</time>
      </trkpt>
      <trkpt lat="65.59542" lon="12.36992">
        <ele>54.266402</ele>
        <time>2020-08-13T11:40:53.929Z</time>
      </trkpt>
      <trkpt lat="65.59554" lon="12.3699">
        <ele>54.853373</ele>
        <time>2020-08-13T11:40:57.885Z</time>
      </trkpt>
      <trkpt lat="65.59564" lon="12.36991">
        <ele>55.352937</ele>
        <time>2020-08-13T11:41:00.911Z</time>
      </trkpt>
      <trkpt lat="65.59573" lon="12.36988">
        <ele>55.819925</ele>
        <time>2020-08-13T11:41:03.906Z</time>
      </trkpt>
      <trkpt lat="65.59583" lon="12.36986">
        <ele>56.31057</ele>
        <time>2020-08-13T11:41:06.905Z</time>
      </trkpt>
      <trkpt lat="65.59594" lon="12.36986">
        <ele>56.875429</ele>
        <time>2020-08-13T11:41:10.888Z</time>
      </trkpt>
      <trkpt lat="65.59603" lon="12.36985">
        <ele>56.782863</ele>
        <time>2020-08-13T11:41:13.894Z</time>
      </trkpt>
      <trkpt lat="65.59613" lon="12.36984">
        <ele>56.541576</ele>
        <time>2020-08-13T11:41:16.891Z</time>
      </trkpt>
      <trkpt lat="65.59625" lon="12.36985">
        <ele>56.247268</ele>
        <time>2020-08-13T11:41:19.919Z</time>
      </trkpt>
      <trkpt lat="65.59634" lon="12.36986">
        <ele>56.005858</ele>
        <time>2020-08-13T11:41:21.897Z</time>
      </trkpt>
      <trkpt lat="65.59644" lon="12.36987">
        <ele>55.764511</ele>
        <time>2020-08-13T11:41:23.891Z</time>
      </trkpt>
      <trkpt lat="65.59654" lon="12.36988">
        <ele>55.515338</ele>
        <time>2020-08-13T11:41:25.904Z</time>
      </trkpt>
      <trkpt lat="65.59664" lon="12.36991">
        <ele>55.259962</ele>
        <time>2020-08-13T11:41:27.912Z</time>
      </trkpt>
      <trkpt lat="65.59674" lon="12.36995">
        <ele>55.002584</ele>
        <time>2020-08-13T11:41:29.891Z</time>
      </trkpt>
      <trkpt lat="65.59685" lon="12.37001">
        <ele>54.709818</ele>
        <time>2020-08-13T11:41:31.902Z</time>
      </trkpt>
      <trkpt lat="65.59696" lon="12.3701">
        <ele>54.416642</ele>
        <time>2020-08-13T11:41:33.912Z</time>
      </trkpt>
      <trkpt lat="65.59708" lon="12.37024">
        <ele>54.097685</ele>
        <time>2020-08-13T11:41:35.887Z</time>
      </trkpt>
      <trkpt lat="65.5972" lon="12.37042">
        <ele>53.741233</ele>
        <time>2020-08-13T11:41:37.938Z</time>
      </trkpt>
      <trkpt lat="65.59732" lon="12.37064">
        <ele>53.348946</ele>
        <time>2020-08-13T11:41:39.889Z</time>
      </trkpt>
      <trkpt lat="65.59746" lon="12.3709">
        <ele>52.923175</ele>
        <time>2020-08-13T11:41:41.909Z</time>
      </trkpt>
      <trkpt lat="65.59753" lon="12.37103">
        <ele>52.696265</ele>
        <time>2020-08-13T11:41:42.889Z</time>
      </trkpt>
      <trkpt lat="65.5976" lon="12.37117">
        <ele>52.464003</ele>
        <time>2020-08-13T11:41:43.889Z</time>
      </trkpt>
      <trkpt lat="65.59768" lon="12.3713">
        <ele>52.254355</ele>
        <time>2020-08-13T11:41:44.919Z</time>
      </trkpt>
      <trkpt lat="65.59776" lon="12.37142">
        <ele>52.044068</ele>
        <time>2020-08-13T11:41:45.921Z</time>
      </trkpt>
      <trkpt lat="65.59785" lon="12.37153">
        <ele>51.832082</ele>
        <time>2020-08-13T11:41:46.936Z</time>
      </trkpt>
      <trkpt lat="65.59794" lon="12.37162">
        <ele>51.616615</ele>
        <time>2020-08-13T11:41:47.895Z</time>
      </trkpt>
      <trkpt lat="65.59804" lon="12.37168">
        <ele>51.404386</ele>
        <time>2020-08-13T11:41:48.907Z</time>
      </trkpt>
      <trkpt lat="65.59813" lon="12.3717">
        <ele>51.198904</ele>
        <time>2020-08-13T11:41:49.916Z</time>
      </trkpt>
      <trkpt lat="65.59822" lon="12.3717">
        <ele>51.005189</ele>
        <time>2020-08-13T11:41:50.898Z</time>
      </trkpt>
      <trkpt lat="65.59831" lon="12.37167">
        <ele>50.810402</ele>
        <time>2020-08-13T11:41:51.891Z</time>
      </trkpt>
      <trkpt lat="65.59848" lon="12.37156">
        <ele>50.449028</ele>
        <time>2020-08-13T11:41:53.884Z</time>
      </trkpt>
      <trkpt lat="65.59861" lon="12.37137">
        <ele>50.115387</ele>
        <time>2020-08-13T11:41:55.892Z</time>
      </trkpt>
      <trkpt lat="65.59874" lon="12.37119">
        <ele>49.800438</ele>
        <time>2020-08-13T11:41:57.918Z</time>
      </trkpt>
      <trkpt lat="65.59885" lon="12.37102">
        <ele>49.510555</ele>
        <time>2020-08-13T11:41:59.886Z</time>
      </trkpt>
      <trkpt lat="65.59896" lon="12.37087">
        <ele>49.233452</ele>
        <time>2020-08-13T11:42:01.917Z</time>
      </trkpt>
      <trkpt lat="65.59906" lon="12.37073">
        <ele>48.983135</ele>
        <time>2020-08-13T11:42:03.906Z</time>
      </trkpt>
      <trkpt lat="65.59915" lon="12.37062">
        <ele>48.781882</ele>
        <time>2020-08-13T11:42:05.912Z</time>
      </trkpt>
      <trkpt lat="65.59925" lon="12.37047">
        <ele>48.627463</ele>
        <time>2020-08-13T11:42:08.907Z</time>
      </trkpt>
      <trkpt lat="65.59932" lon="12.37032">
        <ele>48.80178</ele>
        <time>2020-08-13T11:42:11.892Z</time>
      </trkpt>
      <trkpt lat="65.5994" lon="12.37019">
        <ele>48.968878</ele>
        <time>2020-08-13T11:42:14.919Z</time>
      </trkpt>
      <trkpt lat="65.59948" lon="12.37007">
        <ele>49.128803</ele>
        <time>2020-08-13T11:42:17.898Z</time>
      </trkpt>
      <trkpt lat="65.59958" lon="12.36991">
        <ele>49.340144</ele>
        <time>2020-08-13T11:42:21.908Z</time>
      </trkpt>
      <trkpt lat="65.59965" lon="12.36979">
        <ele>49.499082</ele>
        <time>2020-08-13T11:42:24.917Z</time>
      </trkpt>
      <trkpt lat="65.59973" lon="12.36967">
        <ele>49.665044</ele>
        <time>2020-08-13T11:42:27.899Z</time>
      </trkpt>
      <trkpt lat="65.59981" lon="12.36953">
        <ele>49.834317</ele>
        <time>2020-08-13T11:42:30.920Z</time>
      </trkpt>
      <trkpt lat="65.59991" lon="12.3694">
        <ele>50.031988</ele>
        <time>2020-08-13T11:42:33.893Z</time>
      </trkpt>
      <trkpt lat="65.60002" lon="12.36925">
        <ele>50.252286</ele>
        <time>2020-08-13T11:42:36.886Z</time>
      </trkpt>
      <trkpt lat="65.6001" lon="12.36914">
        <ele>50.421231</ele>
        <time>2020-08-13T11:42:38.890Z</time>
      </trkpt>
      <trkpt lat="65.6002" lon="12.36903">
        <ele>50.614624</ele>
        <time>2020-08-13T11:42:40.907Z</time>
      </trkpt>
      <trkpt lat="65.60031" lon="12.36893">
        <ele>50.820436</ele>
        <time>2020-08-13T11:42:42.900Z</time>
      </trkpt>
      <trkpt lat="65.60043" lon="12.36885">
        <ele>51.036922</ele>
        <time>2020-08-13T11:42:44.909Z</time>
      </trkpt>
      <trkpt lat="65.60055" lon="12.36877">
        <ele>51.253947</ele>
        <time>2020-08-13T11:42:46.893Z</time>
      </trkpt>
      <trkpt lat="65.60066" lon="12.36869">
        <ele>51.470036</ele>
        <time>2020-08-13T11:42:48.896Z</time>
      </trkpt>
      <trkpt lat="65.60078" lon="12.36862">
        <ele>51.674383</ele>
        <time>2020-08-13T11:42:50.893Z</time>
      </trkpt>
      <trkpt lat="65.60088" lon="12.36855">
        <ele>51.783527</ele>
        <time>2020-08-13T11:42:52.968Z</time>
      </trkpt>
      <trkpt lat="65.60097" lon="12.36849">
        <ele>51.827211</ele>
        <time>2020-08-13T11:42:54.917Z</time>
      </trkpt>
      <trkpt lat="65.6011" lon="12.36841">
        <ele>51.887928</ele>
        <time>2020-08-13T11:42:57.898Z</time>
      </trkpt>
      <trkpt lat="65.60122" lon="12.36833">
        <ele>51.944282</ele>
        <time>2020-08-13T11:43:00.912Z</time>
      </trkpt>
      <trkpt lat="65.60133" lon="12.36827">
        <ele>51.996971</ele>
        <time>2020-08-13T11:43:03.935Z</time>
      </trkpt>
      <trkpt lat="65.60144" lon="12.36821">
        <ele>52.04749</ele>
        <time>2020-08-13T11:43:06.906Z</time>
      </trkpt>
      <trkpt lat="65.60154" lon="12.36814">
        <ele>52.096256</ele>
        <time>2020-08-13T11:43:09.905Z</time>
      </trkpt>
      <trkpt lat="65.60164" lon="12.36808">
        <ele>52.141847</ele>
        <time>2020-08-13T11:43:12.890Z</time>
      </trkpt>
      <trkpt lat="65.60174" lon="12.36801">
        <ele>52.190122</ele>
        <time>2020-08-13T11:43:15.889Z</time>
      </trkpt>
      <trkpt lat="65.60186" lon="12.36796">
        <ele>52.245027</ele>
        <time>2020-08-13T11:43:18.888Z</time>
      </trkpt>
      <trkpt lat="65.60199" lon="12.36787">
        <ele>52.306815</ele>
        <time>2020-08-13T11:43:21.907Z</time>
      </trkpt>
      <trkpt lat="65.60209" lon="12.36781">
        <ele>52.353083</ele>
        <time>2020-08-13T11:43:23.884Z</time>
      </trkpt>
      <trkpt lat="65.6022" lon="12.36774">
        <ele>52.403561</ele>
        <time>2020-08-13T11:43:25.914Z</time>
      </trkpt>
      <trkpt lat="65.60231" lon="12.36767">
        <ele>52.458554</ele>
        <time>2020-08-13T11:43:27.908Z</time>
      </trkpt>
      <trkpt lat="65.60243" lon="12.36759">
        <ele>52.513489</ele>
        <time>2020-08-13T11:43:29.882Z</time>
      </trkpt>
      <trkpt lat="65.60254" lon="12.36753">
        <ele>52.566974</ele>
        <time>2020-08-13T11:43:31.899Z</time>
      </trkpt>
      <trkpt lat="65.60266" lon="12.36747">
        <ele>52.243094</ele>
        <time>2020-08-13T11:43:33.935Z</time>
      </trkpt>
      <trkpt lat="65.60276" lon="12.3674">
        <ele>51.851014</ele>
        <time>2020-08-13T11:43:35.909Z</time>
      </trkpt>
      <trkpt lat="65.60287" lon="12.36732">
        <ele>51.445534</ele>
        <time>2020-08-13T11:43:37.883Z</time>
      </trkpt>
      <trkpt lat="65.60299" lon="12.36725">
        <ele>51.032597</ele>
        <time>2020-08-13T11:43:39.893Z</time>
      </trkpt>
      <trkpt lat="65.60311" lon="12.36717">
        <ele>50.588481</ele>
        <time>2020-08-13T11:43:41.915Z</time>
      </trkpt>
      <trkpt lat="65.60324" lon="12.3671">
        <ele>50.123752</ele>
        <time>2020-08-13T11:43:43.900Z</time>
      </trkpt>
      <trkpt lat="65.60337" lon="12.36702">
        <ele>49.649001</ele>
        <time>2020-08-13T11:43:45.912Z</time>
      </trkpt>
      <trkpt lat="65.6035" lon="12.36693">
        <ele>49.14847</ele>
        <time>2020-08-13T11:43:47.893Z</time>
      </trkpt>
      <trkpt lat="65.60365" lon="12.36684">
        <ele>48.608113</ele>
        <time>2020-08-13T11:43:49.896Z</time>
      </trkpt>
      <trkpt lat="65.60381" lon="12.36674">
        <ele>48.041608</ele>
        <time>2020-08-13T11:43:51.888Z</time>
      </trkpt>
      <trkpt lat="65.60396" lon="12.36664">
        <ele>47.475841</ele>
        <time>2020-08-13T11:43:53.887Z</time>
      </trkpt>
      <trkpt lat="65.60411" lon="12.36655">
        <ele>46.9225</ele>
        <time>2020-08-13T11:43:55.889Z</time>
      </trkpt>
      <trkpt lat="65.60426" lon="12.36645">
        <ele>46.388062</ele>
        <time>2020-08-13T11:43:57.914Z</time>
      </trkpt>
      <trkpt lat="65.6044" lon="12.36634">
        <ele>46.15297</ele>
        <time>2020-08-13T11:43:59.908Z</time>
      </trkpt>
      <trkpt lat="65.60454" lon="12.36625">
        <ele>46.056374</ele>
        <time>2020-08-13T11:44:01.897Z</time>
      </trkpt>
      <trkpt lat="65.60468" lon="12.36618">
        <ele>45.962572</ele>
        <time>2020-08-13T11:44:03.911Z</time>
      </trkpt>
      <trkpt lat="65.60481" lon="12.36611">
        <ele>45.870784</ele>
        <time>2020-08-13T11:44:05.899Z</time>
      </trkpt>
      <trkpt lat="65.60493" lon="12.36603">
        <ele>45.784508</ele>
        <time>2020-08-13T11:44:07.895Z</time>
      </trkpt>
      <trkpt lat="65.60505" lon="12.36597">
        <ele>45.705568</ele>
        <time>2020-08-13T11:44:09.927Z</time>
      </trkpt>
      <trkpt lat="65.60516" lon="12.36592">
        <ele>45.634049</ele>
        <time>2020-08-13T11:44:11.898Z</time>
      </trkpt>
      <trkpt lat="65.60526" lon="12.36587">
        <ele>45.566071</ele>
        <time>2020-08-13T11:44:13.892Z</time>
      </trkpt>
      <trkpt lat="65.60535" lon="12.36584">
        <ele>45.504493</ele>
        <time>2020-08-13T11:44:15.895Z</time>
      </trkpt>
      <trkpt lat="65.60548" lon="12.3658">
        <ele>45.415718</ele>
        <time>2020-08-13T11:44:18.909Z</time>
      </trkpt>
      <trkpt lat="65.60559" lon="12.36576">
        <ele>45.341392</ele>
        <time>2020-08-13T11:44:21.910Z</time>
      </trkpt>
      <trkpt lat="65.6057" lon="12.36575">
        <ele>45.267188</ele>
        <time>2020-08-13T11:44:24.885Z</time>
      </trkpt>
      <trkpt lat="65.60583" lon="12.36573">
        <ele>45.180212</ele>
        <time>2020-08-13T11:44:27.882Z</time>
      </trkpt>
      <trkpt lat="65.60592" lon="12.36571">
        <ele>45.117281</ele>
        <time>2020-08-13T11:44:29.902Z</time>
      </trkpt>
      <trkpt lat="65.60603" lon="12.36571">
        <ele>45.049149</ele>
        <time>2020-08-13T11:44:31.900Z</time>
      </trkpt>
      <trkpt lat="65.60613" lon="12.36569">
        <ele>44.948403</ele>
        <time>2020-08-13T11:44:33.891Z</time>
      </trkpt>
      <trkpt lat="65.60625" lon="12.36567">
        <ele>44.821703</ele>
        <time>2020-08-13T11:44:35.932Z</time>
      </trkpt>
      <trkpt lat="65.60636" lon="12.36567">
        <ele>44.690927</ele>
        <time>2020-08-13T11:44:37.908Z</time>
      </trkpt>
      <trkpt lat="65.60648" lon="12.36567">
        <ele>44.555633</ele>
        <time>2020-08-13T11:44:39.888Z</time>
      </trkpt>
      <trkpt lat="65.6066" lon="12.36568">
        <ele>44.419229</ele>
        <time>2020-08-13T11:44:41.892Z</time>
      </trkpt>
      <trkpt lat="65.60672" lon="12.36568">
        <ele>44.289599</ele>
        <time>2020-08-13T11:44:43.925Z</time>
      </trkpt>
      <trkpt lat="65.60682" lon="12.36567">
        <ele>44.170101</ele>
        <time>2020-08-13T11:44:45.934Z</time>
      </trkpt>
      <trkpt lat="65.60693" lon="12.36567">
        <ele>44.052864</ele>
        <time>2020-08-13T11:44:47.946Z</time>
      </trkpt>
      <trkpt lat="65.60703" lon="12.36567">
        <ele>43.936758</ele>
        <time>2020-08-13T11:44:49.885Z</time>
      </trkpt>
      <trkpt lat="65.60713" lon="12.36566">
        <ele>43.82741</ele>
        <time>2020-08-13T11:44:51.897Z</time>
      </trkpt>
      <trkpt lat="65.60722" lon="12.36566">
        <ele>43.721443</ele>
        <time>2020-08-13T11:44:53.905Z</time>
      </trkpt>
      <trkpt lat="65.60731" lon="12.36565">
        <ele>43.619927</ele>
        <time>2020-08-13T11:44:55.898Z</time>
      </trkpt>
      <trkpt lat="65.60744" lon="12.36565">
        <ele>43.474517</ele>
        <time>2020-08-13T11:44:58.942Z</time>
      </trkpt>
      <trkpt lat="65.60757" lon="12.36565">
        <ele>43.324592</ele>
        <time>2020-08-13T11:45:01.887Z</time>
      </trkpt>
      <trkpt lat="65.60767" lon="12.36565">
        <ele>43.217506</ele>
        <time>2020-08-13T11:45:03.928Z</time>
      </trkpt>
      <trkpt lat="65.60777" lon="12.36565">
        <ele>43.103658</ele>
        <time>2020-08-13T11:45:05.888Z</time>
      </trkpt>
      <trkpt lat="65.60787" lon="12.36565">
        <ele>42.998012</ele>
        <time>2020-08-13T11:45:07.897Z</time>
      </trkpt>
      <trkpt lat="65.60798" lon="12.36565">
        <ele>43.181022</ele>
        <time>2020-08-13T11:45:09.927Z</time>
      </trkpt>
      <trkpt lat="65.60808" lon="12.36565">
        <ele>43.360514</ele>
        <time>2020-08-13T11:45:11.897Z</time>
      </trkpt>
      <trkpt lat="65.60819" lon="12.36564">
        <ele>43.54705</ele>
        <time>2020-08-13T11:45:13.886Z</time>
      </trkpt>
      <trkpt lat="65.60829" lon="12.36563">
        <ele>43.724902</ele>
        <time>2020-08-13T11:45:15.905Z</time>
      </trkpt>
      <trkpt lat="65.60839" lon="12.36563">
        <ele>43.900897</ele>
        <time>2020-08-13T11:45:17.883Z</time>
      </trkpt>
      <trkpt lat="65.60848" lon="12.36562">
        <ele>44.073404</ele>
        <time>2020-08-13T11:45:19.892Z</time>
      </trkpt>
      <trkpt lat="65.60858" lon="12.36562">
        <ele>44.249497</ele>
        <time>2020-08-13T11:45:21.892Z</time>
      </trkpt>
      <trkpt lat="65.60869" lon="12.36561">
        <ele>44.430761</ele>
        <time>2020-08-13T11:45:23.896Z</time>
      </trkpt>
      <trkpt lat="65.60879" lon="12.3656">
        <ele>44.613889</ele>
        <time>2020-08-13T11:45:25.939Z</time>
      </trkpt>
      <trkpt lat="65.6089" lon="12.3656">
        <ele>44.803939</ele>
        <time>2020-08-13T11:45:27.887Z</time>
      </trkpt>
      <trkpt lat="65.609" lon="12.36561">
        <ele>44.985226</ele>
        <time>2020-08-13T11:45:29.912Z</time>
      </trkpt>
      <trkpt lat="65.6091" lon="12.36562">
        <ele>45.150718</ele>
        <time>2020-08-13T11:45:31.908Z</time>
      </trkpt>
      <trkpt lat="65.60919" lon="12.36563">
        <ele>45.318019</ele>
        <time>2020-08-13T11:45:33.894Z</time>
      </trkpt>
      <trkpt lat="65.60929" lon="12.36564">
        <ele>45.490815</ele>
        <time>2020-08-13T11:45:35.874Z</time>
      </trkpt>
      <trkpt lat="65.60939" lon="12.36566">
        <ele>45.660199</ele>
        <time>2020-08-13T11:45:37.893Z</time>
      </trkpt>
      <trkpt lat="65.60951" lon="12.36568">
        <ele>45.886117</ele>
        <time>2020-08-13T11:45:40.905Z</time>
      </trkpt>
      <trkpt lat="65.60965" lon="12.3657">
        <ele>46.122242</ele>
        <time>2020-08-13T11:45:43.880Z</time>
      </trkpt>
      <trkpt lat="65.60978" lon="12.36574">
        <ele>46.196376</ele>
        <time>2020-08-13T11:45:46.900Z</time>
      </trkpt>
      <trkpt lat="65.6099" lon="12.36579">
        <ele>46.243459</ele>
        <time>2020-08-13T11:45:49.922Z</time>
      </trkpt>
      <trkpt lat="65.60999" lon="12.36582">
        <ele>46.277236</ele>
        <time>2020-08-13T11:45:51.884Z</time>
      </trkpt>
      <trkpt lat="65.61008" lon="12.36586">
        <ele>46.310887</ele>
        <time>2020-08-13T11:45:53.904Z</time>
      </trkpt>
      <trkpt lat="65.61022" lon="12.36593">
        <ele>46.360719</ele>
        <time>2020-08-13T11:45:56.904Z</time>
      </trkpt>
      <trkpt lat="65.61031" lon="12.36596">
        <ele>46.394409</ele>
        <time>2020-08-13T11:45:58.900Z</time>
      </trkpt>
      <trkpt lat="65.6104" lon="12.366">
        <ele>46.428257</ele>
        <time>2020-08-13T11:46:00.893Z</time>
      </trkpt>
      <trkpt lat="65.61049" lon="12.36604">
        <ele>46.462031</ele>
        <time>2020-08-13T11:46:02.893Z</time>
      </trkpt>
      <trkpt lat="65.61062" lon="12.36609">
        <ele>46.511065</ele>
        <time>2020-08-13T11:46:05.975Z</time>
      </trkpt>
      <trkpt lat="65.61075" lon="12.36616">
        <ele>46.560179</ele>
        <time>2020-08-13T11:46:08.895Z</time>
      </trkpt>
      <trkpt lat="65.61088" lon="12.36622">
        <ele>46.606867</ele>
        <time>2020-08-13T11:46:11.897Z</time>
      </trkpt>
      <trkpt lat="65.611" lon="12.36625">
        <ele>46.651866</ele>
        <time>2020-08-13T11:46:14.911Z</time>
      </trkpt>
      <trkpt lat="65.61112" lon="12.36631">
        <ele>46.698165</ele>
        <time>2020-08-13T11:46:17.920Z</time>
      </trkpt>
      <trkpt lat="65.61124" lon="12.36637">
        <ele>46.743534</ele>
        <time>2020-08-13T11:46:20.910Z</time>
      </trkpt>
      <trkpt lat="65.61137" lon="12.36643">
        <ele>46.791609</ele>
        <time>2020-08-13T11:46:23.897Z</time>
      </trkpt>
      <trkpt lat="65.6115" lon="12.36648">
        <ele>46.829169</ele>
        <time>2020-08-13T11:46:26.900Z</time>
      </trkpt>
      <trkpt lat="65.61159" lon="12.36652">
        <ele>46.84674</ele>
        <time>2020-08-13T11:46:28.913Z</time>
      </trkpt>
      <trkpt lat="65.61168" lon="12.36656">
        <ele>46.864548</ele>
        <time>2020-08-13T11:46:30.918Z</time>
      </trkpt>
      <trkpt lat="65.61181" lon="12.36663">
        <ele>46.890845</ele>
        <time>2020-08-13T11:46:33.890Z</time>
      </trkpt>
      <trkpt lat="65.61194" lon="12.36669">
        <ele>46.915634</ele>
        <time>2020-08-13T11:46:36.919Z</time>
      </trkpt>
      <trkpt lat="65.61206" lon="12.36674">
        <ele>46.94121</ele>
        <time>2020-08-13T11:46:39.932Z</time>
      </trkpt>
      <trkpt lat="65.61219" lon="12.3668">
        <ele>46.967187</ele>
        <time>2020-08-13T11:46:42.891Z</time>
      </trkpt>
      <trkpt lat="65.61232" lon="12.36686">
        <ele>46.993164</ele>
        <time>2020-08-13T11:46:45.911Z</time>
      </trkpt>
      <trkpt lat="65.61242" lon="12.3669">
        <ele>47.011494</ele>
        <time>2020-08-13T11:46:47.884Z</time>
      </trkpt>
      <trkpt lat="65.61251" lon="12.36694">
        <ele>47.030447</ele>
        <time>2020-08-13T11:46:49.919Z</time>
      </trkpt>
      <trkpt lat="65.61261" lon="12.36699">
        <ele>47.050134</ele>
        <time>2020-08-13T11:46:51.886Z</time>
      </trkpt>
      <trkpt lat="65.61271" lon="12.36703">
        <ele>47.069473</ele>
        <time>2020-08-13T11:46:53.929Z</time>
      </trkpt>
      <trkpt lat="65.6128" lon="12.36707">
        <ele>47.087933</ele>
        <time>2020-08-13T11:46:55.899Z</time>
      </trkpt>
      <trkpt lat="65.61289" lon="12.36709">
        <ele>47.106155</ele>
        <time>2020-08-13T11:46:57.908Z</time>
      </trkpt>
      <trkpt lat="65.61299" lon="12.36713">
        <ele>47.124822</ele>
        <time>2020-08-13T11:46:59.890Z</time>
      </trkpt>
      <trkpt lat="65.61308" lon="12.36716">
        <ele>47.1431</ele>
        <time>2020-08-13T11:47:01.900Z</time>
      </trkpt>
      <trkpt lat="65.61317" lon="12.3672">
        <ele>47.161779</ele>
        <time>2020-08-13T11:47:03.896Z</time>
      </trkpt>
      <trkpt lat="65.61326" lon="12.36725">
        <ele>47.273747</ele>
        <time>2020-08-13T11:47:05.916Z</time>
      </trkpt>
      <trkpt lat="65.61335" lon="12.36731">
        <ele>47.446106</ele>
        <time>2020-08-13T11:47:07.899Z</time>
      </trkpt>
      <trkpt lat="65.61344" lon="12.36736">
        <ele>47.617798</ele>
        <time>2020-08-13T11:47:09.887Z</time>
      </trkpt>
      <trkpt lat="65.61357" lon="12.36743">
        <ele>47.866229</ele>
        <time>2020-08-13T11:47:12.913Z</time>
      </trkpt>
      <trkpt lat="65.6137" lon="12.36749">
        <ele>48.117276</ele>
        <time>2020-08-13T11:47:15.889Z</time>
      </trkpt>
      <trkpt lat="65.61383" lon="12.36755">
        <ele>48.366186</ele>
        <time>2020-08-13T11:47:18.927Z</time>
      </trkpt>
      <trkpt lat="65.61396" lon="12.3676">
        <ele>48.610203</ele>
        <time>2020-08-13T11:47:21.904Z</time>
      </trkpt>
      <trkpt lat="65.61408" lon="12.36765">
        <ele>48.846015</ele>
        <time>2020-08-13T11:47:24.936Z</time>
      </trkpt>
      <trkpt lat="65.6142" lon="12.3677">
        <ele>49.08049</ele>
        <time>2020-08-13T11:47:27.906Z</time>
      </trkpt>
      <trkpt lat="65.61432" lon="12.36774">
        <ele>49.310663</ele>
        <time>2020-08-13T11:47:30.904Z</time>
      </trkpt>
      <trkpt lat="65.61444" lon="12.36779">
        <ele>49.530142</ele>
        <time>2020-08-13T11:47:33.904Z</time>
      </trkpt>
      <trkpt lat="65.61455" lon="12.36784">
        <ele>49.753021</ele>
        <time>2020-08-13T11:47:36.888Z</time>
      </trkpt>
      <trkpt lat="65.61467" lon="12.36789">
        <ele>49.978591</ele>
        <time>2020-08-13T11:47:39.901Z</time>
      </trkpt>
      <trkpt lat="65.61479" lon="12.36796">
        <ele>50.198599</ele>
        <time>2020-08-13T11:47:42.890Z</time>
      </trkpt>
      <trkpt lat="65.6149" lon="12.36801">
        <ele>50.421325</ele>
        <time>2020-08-13T11:47:45.890Z</time>
      </trkpt>
      <trkpt lat="65.61502" lon="12.36805">
        <ele>50.701553</ele>
        <time>2020-08-13T11:47:48.909Z</time>
      </trkpt>
      <trkpt lat="65.61513" lon="12.36811">
        <ele>51.064815</ele>
        <time>2020-08-13T11:47:51.921Z</time>
      </trkpt>
      <trkpt lat="65.61523" lon="12.36817">
        <ele>51.414219</ele>
        <time>2020-08-13T11:47:54.882Z</time>
      </trkpt>
      <trkpt lat="65.61532" lon="12.3682">
        <ele>51.703609</ele>
        <time>2020-08-13T11:47:57.892Z</time>
      </trkpt>
      <trkpt lat="65.61543" lon="12.36824">
        <ele>52.077954</ele>
        <time>2020-08-13T11:48:01.885Z</time>
      </trkpt>
      <trkpt lat="65.61553" lon="12.36827">
        <ele>52.385737</ele>
        <time>2020-08-13T11:48:04.891Z</time>
      </trkpt>
      <trkpt lat="65.61562" lon="12.36831">
        <ele>52.704252</ele>
        <time>2020-08-13T11:48:07.903Z</time>
      </trkpt>
      <trkpt lat="65.61573" lon="12.36832">
        <ele>53.061983</ele>
        <time>2020-08-13T11:48:11.899Z</time>
      </trkpt>
      <trkpt lat="65.61583" lon="12.36835">
        <ele>53.390533</ele>
        <time>2020-08-13T11:48:14.909Z</time>
      </trkpt>
      <trkpt lat="65.61594" lon="12.3684">
        <ele>53.736832</ele>
        <time>2020-08-13T11:48:17.926Z</time>
      </trkpt>
      <trkpt lat="65.61605" lon="12.36844">
        <ele>54.093431</ele>
        <time>2020-08-13T11:48:20.893Z</time>
      </trkpt>
      <trkpt lat="65.61616" lon="12.36852">
        <ele>54.481535</ele>
        <time>2020-08-13T11:48:23.876Z</time>
      </trkpt>
      <trkpt lat="65.61627" lon="12.36858">
        <ele>54.84887</ele>
        <time>2020-08-13T11:48:26.909Z</time>
      </trkpt>
      <trkpt lat="65.61638" lon="12.36865">
        <ele>55.22315</ele>
        <time>2020-08-13T11:48:29.889Z</time>
      </trkpt>
      <trkpt lat="65.6165" lon="12.36871">
        <ele>55.606918</ele>
        <time>2020-08-13T11:48:32.930Z</time>
      </trkpt>
      <trkpt lat="65.61661" lon="12.36876">
        <ele>55.957869</ele>
        <time>2020-08-13T11:48:35.939Z</time>
      </trkpt>
      <trkpt lat="65.6167" lon="12.36882">
        <ele>56.271216</ele>
        <time>2020-08-13T11:48:38.885Z</time>
      </trkpt>
      <trkpt lat="65.61681" lon="12.36887">
        <ele>56.410232</ele>
        <time>2020-08-13T11:48:41.896Z</time>
      </trkpt>
      <trkpt lat="65.61692" lon="12.36892">
        <ele>56.424976</ele>
        <time>2020-08-13T11:48:44.891Z</time>
      </trkpt>
      <trkpt lat="65.61702" lon="12.36898">
        <ele>56.439224</ele>
        <time>2020-08-13T11:48:47.897Z</time>
      </trkpt>
      <trkpt lat="65.61712" lon="12.36902">
        <ele>56.452855</ele>
        <time>2020-08-13T11:48:50.914Z</time>
      </trkpt>
      <trkpt lat="65.61723" lon="12.36907">
        <ele>56.467221</ele>
        <time>2020-08-13T11:48:53.899Z</time>
      </trkpt>
      <trkpt lat="65.61733" lon="12.36912">
        <ele>56.480564</ele>
        <time>2020-08-13T11:48:56.899Z</time>
      </trkpt>
      <trkpt lat="65.61743" lon="12.36918">
        <ele>56.494036</ele>
        <time>2020-08-13T11:48:59.889Z</time>
      </trkpt>
      <trkpt lat="65.61753" lon="12.36923">
        <ele>56.508058</ele>
        <time>2020-08-13T11:49:02.901Z</time>
      </trkpt>
      <trkpt lat="65.61762" lon="12.36926">
        <ele>56.520275</ele>
        <time>2020-08-13T11:49:05.900Z</time>
      </trkpt>
      <trkpt lat="65.61773" lon="12.36929">
        <ele>56.53464</ele>
        <time>2020-08-13T11:49:09.918Z</time>
      </trkpt>
      <trkpt lat="65.61783" lon="12.36932">
        <ele>56.548019</ele>
        <time>2020-08-13T11:49:13.900Z</time>
      </trkpt>
      <trkpt lat="65.61793" lon="12.36934">
        <ele>56.560772</ele>
        <time>2020-08-13T11:49:17.909Z</time>
      </trkpt>
      <trkpt lat="65.61802" lon="12.36938">
        <ele>56.573345</ele>
        <time>2020-08-13T11:49:21.889Z</time>
      </trkpt>
      <trkpt lat="65.61813" lon="12.3694">
        <ele>56.587343</ele>
        <time>2020-08-13T11:49:25.896Z</time>
      </trkpt>
      <trkpt lat="65.61822" lon="12.36941">
        <ele>56.599743</ele>
        <time>2020-08-13T11:49:28.882Z</time>
      </trkpt>
      <trkpt lat="65.61833" lon="12.36943">
        <ele>56.613788</ele>
        <time>2020-08-13T11:49:31.906Z</time>
      </trkpt>
      <trkpt lat="65.61843" lon="12.36945">
        <ele>56.627254</ele>
        <time>2020-08-13T11:49:34.893Z</time>
      </trkpt>
      <trkpt lat="65.61854" lon="12.36945">
        <ele>56.584956</ele>
        <time>2020-08-13T11:49:37.899Z</time>
      </trkpt>
      <trkpt lat="65.61865" lon="12.36945">
        <ele>56.323702</ele>
        <time>2020-08-13T11:49:40.914Z</time>
      </trkpt>
      <trkpt lat="65.61875" lon="12.36945">
        <ele>56.072107</ele>
        <time>2020-08-13T11:49:43.889Z</time>
      </trkpt>
      <trkpt lat="65.61885" lon="12.36944">
        <ele>55.818079</ele>
        <time>2020-08-13T11:49:46.888Z</time>
      </trkpt>
      <trkpt lat="65.61896" lon="12.36944">
        <ele>55.551987</ele>
        <time>2020-08-13T11:49:49.908Z</time>
      </trkpt>
      <trkpt lat="65.61908" lon="12.36944">
        <ele>55.266515</ele>
        <time>2020-08-13T11:49:52.902Z</time>
      </trkpt>
      <trkpt lat="65.61921" lon="12.36941">
        <ele>54.953122</ele>
        <time>2020-08-13T11:49:55.889Z</time>
      </trkpt>
      <trkpt lat="65.61931" lon="12.3694">
        <ele>54.725242</ele>
        <time>2020-08-13T11:49:57.905Z</time>
      </trkpt>
      <trkpt lat="65.6194" lon="12.36938">
        <ele>54.487766</ele>
        <time>2020-08-13T11:49:59.893Z</time>
      </trkpt>
      <trkpt lat="65.61951" lon="12.36935">
        <ele>54.239215</ele>
        <time>2020-08-13T11:50:01.886Z</time>
      </trkpt>
      <trkpt lat="65.61961" lon="12.36932">
        <ele>53.987476</ele>
        <time>2020-08-13T11:50:03.910Z</time>
      </trkpt>
      <trkpt lat="65.61972" lon="12.36928">
        <ele>53.723482</ele>
        <time>2020-08-13T11:50:05.903Z</time>
      </trkpt>
      <trkpt lat="65.61983" lon="12.36923">
        <ele>53.452178</ele>
        <time>2020-08-13T11:50:07.928Z</time>
      </trkpt>
      <trkpt lat="65.61995" lon="12.36915">
        <ele>53.155714</ele>
        <time>2020-08-13T11:50:09.904Z</time>
      </trkpt>
      <trkpt lat="65.62007" lon="12.36907">
        <ele>52.838779</ele>
        <time>2020-08-13T11:50:11.899Z</time>
      </trkpt>
      <trkpt lat="65.62021" lon="12.36896">
        <ele>52.496206</ele>
        <time>2020-08-13T11:50:13.908Z</time>
      </trkpt>
      <trkpt lat="65.62034" lon="12.36881">
        <ele>52.133893</ele>
        <time>2020-08-13T11:50:15.891Z</time>
      </trkpt>
      <trkpt lat="65.62048" lon="12.36864">
        <ele>51.739439</ele>
        <time>2020-08-13T11:50:17.906Z</time>
      </trkpt>
      <trkpt lat="65.62062" lon="12.36846">
        <ele>51.334499</ele>
        <time>2020-08-13T11:50:19.897Z</time>
      </trkpt>
      <trkpt lat="65.62077" lon="12.36828">
        <ele>50.904976</ele>
        <time>2020-08-13T11:50:21.896Z</time>
      </trkpt>
      <trkpt lat="65.62092" lon="12.3681">
        <ele>50.477239</ele>
        <time>2020-08-13T11:50:23.943Z</time>
      </trkpt>
      <trkpt lat="65.62108" lon="12.36791">
        <ele>50.02755</ele>
        <time>2020-08-13T11:50:25.898Z</time>
      </trkpt>
      <trkpt lat="65.62116" lon="12.36781">
        <ele>49.796011</ele>
        <time>2020-08-13T11:50:26.908Z</time>
      </trkpt>
      <trkpt lat="65.62124" lon="12.36772">
        <ele>49.563139</ele>
        <time>2020-08-13T11:50:27.925Z</time>
      </trkpt>
      <trkpt lat="65.6214" lon="12.36754">
        <ele>49.109487</ele>
        <time>2020-08-13T11:50:29.898Z</time>
      </trkpt>
      <trkpt lat="65.62157" lon="12.36739">
        <ele>48.655135</ele>
        <time>2020-08-13T11:50:31.913Z</time>
      </trkpt>
      <trkpt lat="65.62174" lon="12.36729">
        <ele>48.222706</ele>
        <time>2020-08-13T11:50:33.900Z</time>
      </trkpt>
      <trkpt lat="65.62189" lon="12.36725">
        <ele>47.822711</ele>
        <time>2020-08-13T11:50:35.913Z</time>
      </trkpt>
      <trkpt lat="65.62204" lon="12.36723">
        <ele>47.571518</ele>
        <time>2020-08-13T11:50:37.890Z</time>
      </trkpt>
      <trkpt lat="65.62218" lon="12.36723">
        <ele>47.372341</ele>
        <time>2020-08-13T11:50:39.912Z</time>
      </trkpt>
      <trkpt lat="65.62233" lon="12.36725">
        <ele>47.179742</ele>
        <time>2020-08-13T11:50:41.889Z</time>
      </trkpt>
      <trkpt lat="65.62246" lon="12.36727">
        <ele>46.997995</ele>
        <time>2020-08-13T11:50:43.914Z</time>
      </trkpt>
      <trkpt lat="65.62258" lon="12.3673">
        <ele>46.829287</ele>
        <time>2020-08-13T11:50:45.896Z</time>
      </trkpt>
      <trkpt lat="65.6227" lon="12.36733">
        <ele>46.665414</ele>
        <time>2020-08-13T11:50:47.911Z</time>
      </trkpt>
      <trkpt lat="65.62282" lon="12.36737">
        <ele>46.508402</ele>
        <time>2020-08-13T11:50:49.907Z</time>
      </trkpt>
      <trkpt lat="65.62293" lon="12.3674">
        <ele>46.358249</ele>
        <time>2020-08-13T11:50:51.940Z</time>
      </trkpt>
      <trkpt lat="65.62304" lon="12.36743">
        <ele>46.201437</ele>
        <time>2020-08-13T11:50:53.913Z</time>
      </trkpt>
      <trkpt lat="65.62316" lon="12.36746">
        <ele>46.042112</ele>
        <time>2020-08-13T11:50:55.897Z</time>
      </trkpt>
      <trkpt lat="65.62328" lon="12.3675">
        <ele>45.882411</ele>
        <time>2020-08-13T11:50:57.900Z</time>
      </trkpt>
      <trkpt lat="65.6234" lon="12.36753">
        <ele>45.718742</ele>
        <time>2020-08-13T11:50:59.886Z</time>
      </trkpt>
      <trkpt lat="65.62352" lon="12.36756">
        <ele>45.55408</ele>
        <time>2020-08-13T11:51:01.925Z</time>
      </trkpt>
      <trkpt lat="65.62364" lon="12.36758">
        <ele>45.394917</ele>
        <time>2020-08-13T11:51:03.887Z</time>
      </trkpt>
      <trkpt lat="65.62375" lon="12.36761">
        <ele>45.306765</ele>
        <time>2020-08-13T11:51:05.912Z</time>
      </trkpt>
      <trkpt lat="65.62386" lon="12.36765">
        <ele>45.467445</ele>
        <time>2020-08-13T11:51:07.888Z</time>
      </trkpt>
      <trkpt lat="65.62396" lon="12.36769">
        <ele>45.618508</ele>
        <time>2020-08-13T11:51:09.883Z</time>
      </trkpt>
      <trkpt lat="65.62408" lon="12.36773">
        <ele>45.816018</ele>
        <time>2020-08-13T11:51:12.918Z</time>
      </trkpt>
      <trkpt lat="65.62421" lon="12.36776">
        <ele>46.009504</ele>
        <time>2020-08-13T11:51:15.904Z</time>
      </trkpt>
      <trkpt lat="65.62434" lon="12.36779">
        <ele>46.205847</ele>
        <time>2020-08-13T11:51:18.892Z</time>
      </trkpt>
      <trkpt lat="65.62443" lon="12.36781">
        <ele>46.344624</ele>
        <time>2020-08-13T11:51:20.927Z</time>
      </trkpt>
      <trkpt lat="65.62452" lon="12.36784">
        <ele>46.48693</ele>
        <time>2020-08-13T11:51:22.927Z</time>
      </trkpt>
      <trkpt lat="65.62462" lon="12.36788">
        <ele>46.62659</ele>
        <time>2020-08-13T11:51:24.907Z</time>
      </trkpt>
      <trkpt lat="65.62471" lon="12.3679">
        <ele>46.766753</ele>
        <time>2020-08-13T11:51:26.917Z</time>
      </trkpt>
      <trkpt lat="65.62484" lon="12.36794">
        <ele>46.966947</ele>
        <time>2020-08-13T11:51:29.907Z</time>
      </trkpt>
      <trkpt lat="65.62497" lon="12.36798">
        <ele>47.165876</ele>
        <time>2020-08-13T11:51:32.883Z</time>
      </trkpt>
      <trkpt lat="65.6251" lon="12.36803">
        <ele>47.362337</ele>
        <time>2020-08-13T11:51:35.926Z</time>
      </trkpt>
      <trkpt lat="65.62521" lon="12.36807">
        <ele>47.543425</ele>
        <time>2020-08-13T11:51:38.887Z</time>
      </trkpt>
      <trkpt lat="65.62533" lon="12.3681">
        <ele>47.717226</ele>
        <time>2020-08-13T11:51:41.891Z</time>
      </trkpt>
      <trkpt lat="65.62544" lon="12.36813">
        <ele>47.889864</ele>
        <time>2020-08-13T11:51:44.910Z</time>
      </trkpt>
      <trkpt lat="65.62555" lon="12.36817">
        <ele>48.079355</ele>
        <time>2020-08-13T11:51:47.904Z</time>
      </trkpt>
      <trkpt lat="65.62565" lon="12.36822">
        <ele>48.274853</ele>
        <time>2020-08-13T11:51:50.879Z</time>
      </trkpt>
      <trkpt lat="65.62576" lon="12.36825">
        <ele>48.476158</ele>
        <time>2020-08-13T11:51:53.913Z</time>
      </trkpt>
      <trkpt lat="65.62588" lon="12.36828">
        <ele>48.702899</ele>
        <time>2020-08-13T11:51:56.881Z</time>
      </trkpt>
      <trkpt lat="65.626" lon="12.36831">
        <ele>48.938582</ele>
        <time>2020-08-13T11:51:59.894Z</time>
      </trkpt>
      <trkpt lat="65.62612" lon="12.36835">
        <ele>49.166934</ele>
        <time>2020-08-13T11:52:02.888Z</time>
      </trkpt>
      <trkpt lat="65.62624" lon="12.36838">
        <ele>49.395378</ele>
        <time>2020-08-13T11:52:05.897Z</time>
      </trkpt>
      <trkpt lat="65.62636" lon="12.36841">
        <ele>49.628937</ele>
        <time>2020-08-13T11:52:08.894Z</time>
      </trkpt>
      <trkpt lat="65.62649" lon="12.36845">
        <ele>49.886636</ele>
        <time>2020-08-13T11:52:11.912Z</time>
      </trkpt>
      <trkpt lat="65.62659" lon="12.36848">
        <ele>50.07486</ele>
        <time>2020-08-13T11:52:13.878Z</time>
      </trkpt>
      <trkpt lat="65.62669" lon="12.36851">
        <ele>50.26139</ele>
        <time>2020-08-13T11:52:15.902Z</time>
      </trkpt>
      <trkpt lat="65.62679" lon="12.36854">
        <ele>50.457008</ele>
        <time>2020-08-13T11:52:17.896Z</time>
      </trkpt>
      <trkpt lat="65.6269" lon="12.36857">
        <ele>50.658313</ele>
        <time>2020-08-13T11:52:19.902Z</time>
      </trkpt>
      <trkpt lat="65.627" lon="12.36859">
        <ele>50.855375</ele>
        <time>2020-08-13T11:52:21.896Z</time>
      </trkpt>
      <trkpt lat="65.6271" lon="12.36862">
        <ele>51.048001</ele>
        <time>2020-08-13T11:52:23.954Z</time>
      </trkpt>
      <trkpt lat="65.6272" lon="12.36864">
        <ele>51.23184</ele>
        <time>2020-08-13T11:52:25.907Z</time>
      </trkpt>
      <trkpt lat="65.62732" lon="12.36868">
        <ele>51.429949</ele>
        <time>2020-08-13T11:52:28.890Z</time>
      </trkpt>
      <trkpt lat="65.62744" lon="12.36871">
        <ele>51.441776</ele>
        <time>2020-08-13T11:52:31.935Z</time>
      </trkpt>
      <trkpt lat="65.62755" lon="12.36875">
        <ele>51.453088</ele>
        <time>2020-08-13T11:52:34.918Z</time>
      </trkpt>
      <trkpt lat="65.62766" lon="12.36878">
        <ele>51.464578</ele>
        <time>2020-08-13T11:52:37.922Z</time>
      </trkpt>
      <trkpt lat="65.62777" lon="12.36881">
        <ele>51.476589</ele>
        <time>2020-08-13T11:52:40.922Z</time>
      </trkpt>
      <trkpt lat="65.62789" lon="12.36884">
        <ele>51.489008</ele>
        <time>2020-08-13T11:52:43.886Z</time>
      </trkpt>
      <trkpt lat="65.62802" lon="12.36888">
        <ele>51.501851</ele>
        <time>2020-08-13T11:52:46.898Z</time>
      </trkpt>
      <trkpt lat="65.62814" lon="12.36891">
        <ele>51.514671</ele>
        <time>2020-08-13T11:52:49.912Z</time>
      </trkpt>
      <trkpt lat="65.62826" lon="12.36895">
        <ele>51.52738</ele>
        <time>2020-08-13T11:52:52.906Z</time>
      </trkpt>
      <trkpt lat="65.62838" lon="12.36899">
        <ele>51.539293</ele>
        <time>2020-08-13T11:52:55.915Z</time>
      </trkpt>
      <trkpt lat="65.62849" lon="12.36903">
        <ele>51.551138</ele>
        <time>2020-08-13T11:52:58.891Z</time>
      </trkpt>
      <trkpt lat="65.62861" lon="12.36907">
        <ele>51.563217</ele>
        <time>2020-08-13T11:53:01.889Z</time>
      </trkpt>
      <trkpt lat="65.62872" lon="12.36913">
        <ele>51.575192</ele>
        <time>2020-08-13T11:53:04.906Z</time>
      </trkpt>
      <trkpt lat="65.62883" lon="12.36919">
        <ele>51.586801</ele>
        <time>2020-08-13T11:53:07.880Z</time>
      </trkpt>
      <trkpt lat="65.62895" lon="12.36925">
        <ele>51.598574</ele>
        <time>2020-08-13T11:53:10.908Z</time>
      </trkpt>
      <trkpt lat="65.62906" lon="12.36932">
        <ele>51.610947</ele>
        <time>2020-08-13T11:53:13.910Z</time>
      </trkpt>
      <trkpt lat="65.62918" lon="12.3694">
        <ele>51.784408</ele>
        <time>2020-08-13T11:53:16.893Z</time>
      </trkpt>
      <trkpt lat="65.62931" lon="12.36946">
        <ele>51.985796</ele>
        <time>2020-08-13T11:53:19.906Z</time>
      </trkpt>
      <trkpt lat="65.62944" lon="12.36952">
        <ele>52.190204</ele>
        <time>2020-08-13T11:53:22.903Z</time>
      </trkpt>
      <trkpt lat="65.62956" lon="12.3696">
        <ele>52.379198</ele>
        <time>2020-08-13T11:53:25.898Z</time>
      </trkpt>
      <trkpt lat="65.62968" lon="12.36965">
        <ele>52.567383</ele>
        <time>2020-08-13T11:53:28.888Z</time>
      </trkpt>
      <trkpt lat="65.62979" lon="12.36972">
        <ele>52.747102</ele>
        <time>2020-08-13T11:53:31.895Z</time>
      </trkpt>
      <trkpt lat="65.62991" lon="12.3698">
        <ele>52.934425</ele>
        <time>2020-08-13T11:53:34.926Z</time>
      </trkpt>
      <trkpt lat="65.63003" lon="12.36986">
        <ele>53.12285</ele>
        <time>2020-08-13T11:53:37.906Z</time>
      </trkpt>
      <trkpt lat="65.63014" lon="12.36993">
        <ele>53.303723</ele>
        <time>2020-08-13T11:53:40.892Z</time>
      </trkpt>
      <trkpt lat="65.63025" lon="12.37">
        <ele>53.477155</ele>
        <time>2020-08-13T11:53:43.934Z</time>
      </trkpt>
      <trkpt lat="65.63036" lon="12.37008">
        <ele>53.652893</ele>
        <time>2020-08-13T11:53:46.911Z</time>
      </trkpt>
      <trkpt lat="65.63047" lon="12.37015">
        <ele>53.834106</ele>
        <time>2020-08-13T11:53:49.901Z</time>
      </trkpt>
      <trkpt lat="65.63058" lon="12.37021">
        <ele>54.00842</ele>
        <time>2020-08-13T11:53:52.898Z</time>
      </trkpt>
      <trkpt lat="65.6307" lon="12.37027">
        <ele>54.18859</ele>
        <time>2020-08-13T11:53:55.899Z</time>
      </trkpt>
      <trkpt lat="65.63082" lon="12.37035">
        <ele>54.379233</ele>
        <time>2020-08-13T11:53:58.902Z</time>
      </trkpt>
      <trkpt lat="65.63094" lon="12.37043">
        <ele>54.402612</ele>
        <time>2020-08-13T11:54:01.891Z</time>
      </trkpt>
      <trkpt lat="65.63106" lon="12.37049">
        <ele>54.421294</ele>
        <time>2020-08-13T11:54:04.940Z</time>
      </trkpt>
      <trkpt lat="65.63118" lon="12.37056">
        <ele>54.43996</ele>
        <time>2020-08-13T11:54:07.897Z</time>
      </trkpt>
      <trkpt lat="65.63129" lon="12.37064">
        <ele>54.458168</ele>
        <time>2020-08-13T11:54:10.909Z</time>
      </trkpt>
      <trkpt lat="65.63141" lon="12.37071">
        <ele>54.476856</ele>
        <time>2020-08-13T11:54:13.904Z</time>
      </trkpt>
      <trkpt lat="65.63153" lon="12.37078">
        <ele>54.495911</ele>
        <time>2020-08-13T11:54:16.902Z</time>
      </trkpt>
      <trkpt lat="65.63164" lon="12.37086">
        <ele>54.514268</ele>
        <time>2020-08-13T11:54:19.892Z</time>
      </trkpt>
      <trkpt lat="65.63176" lon="12.37095">
        <ele>54.532691</ele>
        <time>2020-08-13T11:54:22.937Z</time>
      </trkpt>
      <trkpt lat="65.63187" lon="12.37101">
        <ele>54.550893</ele>
        <time>2020-08-13T11:54:25.899Z</time>
      </trkpt>
      <trkpt lat="65.632" lon="12.37107">
        <ele>54.570499</ele>
        <time>2020-08-13T11:54:28.919Z</time>
      </trkpt>
      <trkpt lat="65.63212" lon="12.37114">
        <ele>54.590153</ele>
        <time>2020-08-13T11:54:31.909Z</time>
      </trkpt>
      <trkpt lat="65.63224" lon="12.37121">
        <ele>54.609389</ele>
        <time>2020-08-13T11:54:34.902Z</time>
      </trkpt>
      <trkpt lat="65.63236" lon="12.37128">
        <ele>54.628099</ele>
        <time>2020-08-13T11:54:37.923Z</time>
      </trkpt>
      <trkpt lat="65.63247" lon="12.37136">
        <ele>54.646341</ele>
        <time>2020-08-13T11:54:40.913Z</time>
      </trkpt>
      <trkpt lat="65.63259" lon="12.37143">
        <ele>54.695828</ele>
        <time>2020-08-13T11:54:43.892Z</time>
      </trkpt>
      <trkpt lat="65.6327" lon="12.3715">
        <ele>54.864387</ele>
        <time>2020-08-13T11:54:46.906Z</time>
      </trkpt>
      <trkpt lat="65.63281" lon="12.37156">
        <ele>55.030679</ele>
        <time>2020-08-13T11:54:49.935Z</time>
      </trkpt>
      <trkpt lat="65.63292" lon="12.37163">
        <ele>55.196153</ele>
        <time>2020-08-13T11:54:52.916Z</time>
      </trkpt>
      <trkpt lat="65.63304" lon="12.37171">
        <ele>55.36705</ele>
        <time>2020-08-13T11:54:55.895Z</time>
      </trkpt>
      <trkpt lat="65.63315" lon="12.37179">
        <ele>55.538275</ele>
        <time>2020-08-13T11:54:58.904Z</time>
      </trkpt>
      <trkpt lat="65.63327" lon="12.37187">
        <ele>55.711951</ele>
        <time>2020-08-13T11:55:01.899Z</time>
      </trkpt>
      <trkpt lat="65.63338" lon="12.37193">
        <ele>55.880129</ele>
        <time>2020-08-13T11:55:04.900Z</time>
      </trkpt>
      <trkpt lat="65.63349" lon="12.372">
        <ele>56.046537</ele>
        <time>2020-08-13T11:55:07.889Z</time>
      </trkpt>
      <trkpt lat="65.63361" lon="12.37208">
        <ele>56.221923</ele>
        <time>2020-08-13T11:55:10.910Z</time>
      </trkpt>
      <trkpt lat="65.63373" lon="12.37216">
        <ele>56.405502</ele>
        <time>2020-08-13T11:55:13.909Z</time>
      </trkpt>
      <trkpt lat="65.63386" lon="12.37224">
        <ele>56.591575</ele>
        <time>2020-08-13T11:55:16.898Z</time>
      </trkpt>
      <trkpt lat="65.63399" lon="12.37232">
        <ele>56.784131</ele>
        <time>2020-08-13T11:55:19.889Z</time>
      </trkpt>
      <trkpt lat="65.63412" lon="12.37241">
        <ele>56.977472</ele>
        <time>2020-08-13T11:55:22.890Z</time>
      </trkpt>
      <trkpt lat="65.63421" lon="12.37248">
        <ele>57.111924</ele>
        <time>2020-08-13T11:55:24.928Z</time>
      </trkpt>
      <trkpt lat="65.6343" lon="12.37253">
        <ele>57.247089</ele>
        <time>2020-08-13T11:55:26.907Z</time>
      </trkpt>
      <trkpt lat="65.63439" lon="12.37258">
        <ele>57.186968</ele>
        <time>2020-08-13T11:55:28.907Z</time>
      </trkpt>
      <trkpt lat="65.63448" lon="12.37263">
        <ele>57.117073</ele>
        <time>2020-08-13T11:55:30.915Z</time>
      </trkpt>
      <trkpt lat="65.63457" lon="12.37269">
        <ele>57.046558</ele>
        <time>2020-08-13T11:55:32.912Z</time>
      </trkpt>
      <trkpt lat="65.6347" lon="12.37277">
        <ele>56.946413</ele>
        <time>2020-08-13T11:55:35.909Z</time>
      </trkpt>
      <trkpt lat="65.63483" lon="12.37285">
        <ele>56.845259</ele>
        <time>2020-08-13T11:55:38.898Z</time>
      </trkpt>
      <trkpt lat="65.63496" lon="12.37294">
        <ele>56.745162</ele>
        <time>2020-08-13T11:55:41.900Z</time>
      </trkpt>
      <trkpt lat="65.63509" lon="12.37302">
        <ele>56.645379</ele>
        <time>2020-08-13T11:55:44.932Z</time>
      </trkpt>
      <trkpt lat="65.63521" lon="12.3731">
        <ele>56.545119</ele>
        <time>2020-08-13T11:55:47.906Z</time>
      </trkpt>
      <trkpt lat="65.63531" lon="12.37315">
        <ele>56.472548</ele>
        <time>2020-08-13T11:55:49.890Z</time>
      </trkpt>
      <trkpt lat="65.6354" lon="12.37321">
        <ele>56.398689</ele>
        <time>2020-08-13T11:55:51.897Z</time>
      </trkpt>
      <trkpt lat="65.6355" lon="12.37326">
        <ele>56.325413</ele>
        <time>2020-08-13T11:55:53.891Z</time>
      </trkpt>
      <trkpt lat="65.63559" lon="12.37332">
        <ele>56.25117</ele>
        <time>2020-08-13T11:55:55.901Z</time>
      </trkpt>
      <trkpt lat="65.63569" lon="12.37338">
        <ele>56.177527</ele>
        <time>2020-08-13T11:55:57.904Z</time>
      </trkpt>
      <trkpt lat="65.63578" lon="12.37344">
        <ele>56.105713</ele>
        <time>2020-08-13T11:55:59.937Z</time>
      </trkpt>
      <trkpt lat="65.63587" lon="12.37349">
        <ele>56.031263</ele>
        <time>2020-08-13T11:56:01.908Z</time>
      </trkpt>
      <trkpt lat="65.63597" lon="12.37355">
        <ele>55.9552</ele>
        <time>2020-08-13T11:56:03.897Z</time>
      </trkpt>
      <trkpt lat="65.63607" lon="12.3736">
        <ele>55.897751</ele>
        <time>2020-08-13T11:56:05.935Z</time>
      </trkpt>
      <trkpt lat="65.63617" lon="12.37366">
        <ele>55.900435</ele>
        <time>2020-08-13T11:56:07.908Z</time>
      </trkpt>
      <trkpt lat="65.63627" lon="12.37372">
        <ele>55.903165</ele>
        <time>2020-08-13T11:56:09.891Z</time>
      </trkpt>
      <trkpt lat="65.63637" lon="12.37378">
        <ele>55.905883</ele>
        <time>2020-08-13T11:56:11.889Z</time>
      </trkpt>
      <trkpt lat="65.63648" lon="12.37384">
        <ele>55.90863</ele>
        <time>2020-08-13T11:56:13.895Z</time>
      </trkpt>
      <trkpt lat="65.63657" lon="12.3739">
        <ele>55.911321</ele>
        <time>2020-08-13T11:56:15.908Z</time>
      </trkpt>
      <trkpt lat="65.63667" lon="12.37397">
        <ele>55.914051</ele>
        <time>2020-08-13T11:56:17.904Z</time>
      </trkpt>
      <trkpt lat="65.63678" lon="12.37404">
        <ele>55.916795</ele>
        <time>2020-08-13T11:56:19.886Z</time>
      </trkpt>
      <trkpt lat="65.63688" lon="12.37411">
        <ele>55.91969</ele>
        <time>2020-08-13T11:56:21.895Z</time>
      </trkpt>
      <trkpt lat="65.63699" lon="12.37418">
        <ele>55.922564</ele>
        <time>2020-08-13T11:56:23.905Z</time>
      </trkpt>
      <trkpt lat="65.63709" lon="12.37424">
        <ele>55.925437</ele>
        <time>2020-08-13T11:56:25.894Z</time>
      </trkpt>
      <trkpt lat="65.6372" lon="12.37431">
        <ele>55.928296</ele>
        <time>2020-08-13T11:56:27.890Z</time>
      </trkpt>
      <trkpt lat="65.6373" lon="12.37438">
        <ele>55.931077</ele>
        <time>2020-08-13T11:56:29.890Z</time>
      </trkpt>
      <trkpt lat="65.63741" lon="12.37445">
        <ele>55.93397</ele>
        <time>2020-08-13T11:56:31.894Z</time>
      </trkpt>
      <trkpt lat="65.63751" lon="12.37453">
        <ele>55.936738</ele>
        <time>2020-08-13T11:56:33.910Z</time>
      </trkpt>
      <trkpt lat="65.63761" lon="12.37461">
        <ele>55.939572</ele>
        <time>2020-08-13T11:56:35.888Z</time>
      </trkpt>
      <trkpt lat="65.63773" lon="12.37468">
        <ele>55.94267</ele>
        <time>2020-08-13T11:56:37.896Z</time>
      </trkpt>
      <trkpt lat="65.63784" lon="12.37476">
        <ele>55.922527</ele>
        <time>2020-08-13T11:56:39.936Z</time>
      </trkpt>
      <trkpt lat="65.63796" lon="12.37486">
        <ele>55.881412</ele>
        <time>2020-08-13T11:56:41.892Z</time>
      </trkpt>
      <trkpt lat="65.63807" lon="12.37495">
        <ele>55.839837</ele>
        <time>2020-08-13T11:56:43.882Z</time>
      </trkpt>
      <trkpt lat="65.63819" lon="12.37503">
        <ele>55.799634</ele>
        <time>2020-08-13T11:56:45.895Z</time>
      </trkpt>
      <trkpt lat="65.6383" lon="12.37512">
        <ele>55.759539</ele>
        <time>2020-08-13T11:56:47.934Z</time>
      </trkpt>
      <trkpt lat="65.6384" lon="12.37521">
        <ele>55.720727</ele>
        <time>2020-08-13T11:56:49.888Z</time>
      </trkpt>
      <trkpt lat="65.63851" lon="12.37529">
        <ele>55.682481</ele>
        <time>2020-08-13T11:56:51.920Z</time>
      </trkpt>
      <trkpt lat="65.63861" lon="12.37537">
        <ele>55.645473</ele>
        <time>2020-08-13T11:56:53.920Z</time>
      </trkpt>
      <trkpt lat="65.63871" lon="12.37544">
        <ele>55.610553</ele>
        <time>2020-08-13T11:56:55.930Z</time>
      </trkpt>
      <trkpt lat="65.6388" lon="12.37552">
        <ele>55.577212</ele>
        <time>2020-08-13T11:56:57.908Z</time>
      </trkpt>
      <trkpt lat="65.6389" lon="12.37558">
        <ele>55.544385</ele>
        <time>2020-08-13T11:56:59.892Z</time>
      </trkpt>
      <trkpt lat="65.63898" lon="12.37565">
        <ele>55.512502</ele>
        <time>2020-08-13T11:57:01.908Z</time>
      </trkpt>
      <trkpt lat="65.63911" lon="12.37576">
        <ele>55.465704</ele>
        <time>2020-08-13T11:57:04.896Z</time>
      </trkpt>
      <trkpt lat="65.6392" lon="12.37583">
        <ele>55.434766</ele>
        <time>2020-08-13T11:57:06.903Z</time>
      </trkpt>
      <trkpt lat="65.63933" lon="12.37592">
        <ele>55.389188</ele>
        <time>2020-08-13T11:57:09.910Z</time>
      </trkpt>
      <trkpt lat="65.63945" lon="12.37602">
        <ele>55.343771</ele>
        <time>2020-08-13T11:57:12.894Z</time>
      </trkpt>
      <trkpt lat="65.63958" lon="12.37611">
        <ele>55.224469</ele>
        <time>2020-08-13T11:57:15.901Z</time>
      </trkpt>
      <trkpt lat="65.6397" lon="12.37621">
        <ele>55.07403</ele>
        <time>2020-08-13T11:57:18.948Z</time>
      </trkpt>
      <trkpt lat="65.63982" lon="12.37632">
        <ele>54.923715</ele>
        <time>2020-08-13T11:57:21.882Z</time>
      </trkpt>
      <trkpt lat="65.63994" lon="12.37641">
        <ele>54.770768</ele>
        <time>2020-08-13T11:57:24.918Z</time>
      </trkpt>
      <trkpt lat="65.64003" lon="12.37647">
        <ele>54.664469</ele>
        <time>2020-08-13T11:57:26.901Z</time>
      </trkpt>
      <trkpt lat="65.64012" lon="12.37654">
        <ele>54.553603</ele>
        <time>2020-08-13T11:57:28.909Z</time>
      </trkpt>
      <trkpt lat="65.64021" lon="12.37661">
        <ele>54.439811</ele>
        <time>2020-08-13T11:57:30.891Z</time>
      </trkpt>
      <trkpt lat="65.64031" lon="12.3767">
        <ele>54.319641</ele>
        <time>2020-08-13T11:57:32.897Z</time>
      </trkpt>
      <trkpt lat="65.6404" lon="12.37678">
        <ele>54.204636</ele>
        <time>2020-08-13T11:57:34.888Z</time>
      </trkpt>
      <trkpt lat="65.64049" lon="12.37684">
        <ele>54.089714</ele>
        <time>2020-08-13T11:57:36.901Z</time>
      </trkpt>
      <trkpt lat="65.64058" lon="12.37691">
        <ele>53.979596</ele>
        <time>2020-08-13T11:57:38.885Z</time>
      </trkpt>
      <trkpt lat="65.64067" lon="12.37697">
        <ele>53.865334</ele>
        <time>2020-08-13T11:57:40.902Z</time>
      </trkpt>
      <trkpt lat="65.64077" lon="12.37703">
        <ele>53.74829</ele>
        <time>2020-08-13T11:57:42.910Z</time>
      </trkpt>
      <trkpt lat="65.64086" lon="12.3771">
        <ele>53.635588</ele>
        <time>2020-08-13T11:57:44.917Z</time>
      </trkpt>
      <trkpt lat="65.64095" lon="12.37716">
        <ele>53.52349</ele>
        <time>2020-08-13T11:57:46.936Z</time>
      </trkpt>
      <trkpt lat="65.64104" lon="12.37722">
        <ele>53.412057</ele>
        <time>2020-08-13T11:57:48.897Z</time>
      </trkpt>
      <trkpt lat="65.64114" lon="12.37728">
        <ele>53.298341</ele>
        <time>2020-08-13T11:57:50.890Z</time>
      </trkpt>
      <trkpt lat="65.64122" lon="12.37734">
        <ele>53.207066</ele>
        <time>2020-08-13T11:57:52.900Z</time>
      </trkpt>
      <trkpt lat="65.64134" lon="12.37743">
        <ele>53.264552</ele>
        <time>2020-08-13T11:57:55.911Z</time>
      </trkpt>
      <trkpt lat="65.64146" lon="12.37749">
        <ele>53.317267</ele>
        <time>2020-08-13T11:57:58.911Z</time>
      </trkpt>
      <trkpt lat="65.64157" lon="12.37753">
        <ele>53.367194</ele>
        <time>2020-08-13T11:58:01.917Z</time>
      </trkpt>
      <trkpt lat="65.64167" lon="12.37757">
        <ele>53.4134</ele>
        <time>2020-08-13T11:58:04.955Z</time>
      </trkpt>
      <trkpt lat="65.64177" lon="12.3776">
        <ele>53.458158</ele>
        <time>2020-08-13T11:58:07.901Z</time>
      </trkpt>
      <trkpt lat="65.64186" lon="12.37762">
        <ele>53.502766</ele>
        <time>2020-08-13T11:58:10.892Z</time>
      </trkpt>
      <trkpt lat="65.64197" lon="12.37764">
        <ele>53.549177</ele>
        <time>2020-08-13T11:58:13.896Z</time>
      </trkpt>
      <trkpt lat="65.64209" lon="12.37767">
        <ele>53.604712</ele>
        <time>2020-08-13T11:58:16.913Z</time>
      </trkpt>
      <trkpt lat="65.64218" lon="12.3777">
        <ele>53.645698</ele>
        <time>2020-08-13T11:58:18.887Z</time>
      </trkpt>
      <trkpt lat="65.64231" lon="12.37772">
        <ele>53.704703</ele>
        <time>2020-08-13T11:58:21.907Z</time>
      </trkpt>
      <trkpt lat="65.64242" lon="12.37773">
        <ele>53.757293</ele>
        <time>2020-08-13T11:58:24.911Z</time>
      </trkpt>
      <trkpt lat="65.64254" lon="12.37774">
        <ele>53.811225</ele>
        <time>2020-08-13T11:58:27.913Z</time>
      </trkpt>
      <trkpt lat="65.64266" lon="12.37776">
        <ele>53.864307</ele>
        <time>2020-08-13T11:58:30.889Z</time>
      </trkpt>
      <trkpt lat="65.64276" lon="12.37775">
        <ele>53.910964</ele>
        <time>2020-08-13T11:58:33.897Z</time>
      </trkpt>
      <trkpt lat="65.64286" lon="12.37778">
        <ele>53.954776</ele>
        <time>2020-08-13T11:58:36.932Z</time>
      </trkpt>
      <trkpt lat="65.64296" lon="12.37783">
        <ele>54.002277</ele>
        <time>2020-08-13T11:58:39.895Z</time>
      </trkpt>
      <trkpt lat="65.64307" lon="12.37787">
        <ele>54.194258</ele>
        <time>2020-08-13T11:58:42.899Z</time>
      </trkpt>
      <trkpt lat="65.64317" lon="12.37794">
        <ele>54.441245</ele>
        <time>2020-08-13T11:58:45.892Z</time>
      </trkpt>
      <trkpt lat="65.64328" lon="12.37797">
        <ele>54.685139</ele>
        <time>2020-08-13T11:58:48.891Z</time>
      </trkpt>
      <trkpt lat="65.64339" lon="12.37802">
        <ele>54.945466</ele>
        <time>2020-08-13T11:58:51.886Z</time>
      </trkpt>
      <trkpt lat="65.64349" lon="12.37808">
        <ele>55.197673</ele>
        <time>2020-08-13T11:58:54.889Z</time>
      </trkpt>
      <trkpt lat="65.64361" lon="12.37813">
        <ele>55.473311</ele>
        <time>2020-08-13T11:58:57.889Z</time>
      </trkpt>
      <trkpt lat="65.64373" lon="12.3782">
        <ele>55.762948</ele>
        <time>2020-08-13T11:59:00.909Z</time>
      </trkpt>
      <trkpt lat="65.64385" lon="12.37825">
        <ele>56.032053</ele>
        <time>2020-08-13T11:59:03.937Z</time>
      </trkpt>
      <trkpt lat="65.64395" lon="12.3783">
        <ele>56.287102</ele>
        <time>2020-08-13T11:59:06.908Z</time>
      </trkpt>
      <trkpt lat="65.64406" lon="12.37838">
        <ele>56.549139</ele>
        <time>2020-08-13T11:59:09.895Z</time>
      </trkpt>
      <trkpt lat="65.64418" lon="12.37844">
        <ele>56.823002</ele>
        <time>2020-08-13T11:59:12.916Z</time>
      </trkpt>
      <trkpt lat="65.64429" lon="12.37848">
        <ele>57.088552</ele>
        <time>2020-08-13T11:59:15.916Z</time>
      </trkpt>
      <trkpt lat="65.64439" lon="12.37855">
        <ele>57.335778</ele>
        <time>2020-08-13T11:59:18.893Z</time>
      </trkpt>
      <trkpt lat="65.6445" lon="12.37861">
        <ele>57.594031</ele>
        <time>2020-08-13T11:59:21.889Z</time>
      </trkpt>
      <trkpt lat="65.64461" lon="12.37868">
        <ele>57.855709</ele>
        <time>2020-08-13T11:59:24.892Z</time>
      </trkpt>
      <trkpt lat="65.64472" lon="12.37875">
        <ele>58.126388</ele>
        <time>2020-08-13T11:59:27.912Z</time>
      </trkpt>
      <trkpt lat="65.64484" lon="12.37882">
        <ele>58.220661</ele>
        <time>2020-08-13T11:59:30.900Z</time>
      </trkpt>
      <trkpt lat="65.64496" lon="12.37888">
        <ele>58.254826</ele>
        <time>2020-08-13T11:59:33.897Z</time>
      </trkpt>
      <trkpt lat="65.64508" lon="12.37895">
        <ele>58.288918</ele>
        <time>2020-08-13T11:59:36.890Z</time>
      </trkpt>
      <trkpt lat="65.64519" lon="12.37902">
        <ele>58.322196</ele>
        <time>2020-08-13T11:59:39.892Z</time>
      </trkpt>
      <trkpt lat="65.64532" lon="12.37909">
        <ele>58.359457</ele>
        <time>2020-08-13T11:59:42.883Z</time>
      </trkpt>
      <trkpt lat="65.64542" lon="12.37916">
        <ele>58.385846</ele>
        <time>2020-08-13T11:59:44.896Z</time>
      </trkpt>
      <trkpt lat="65.64551" lon="12.37921">
        <ele>58.412652</ele>
        <time>2020-08-13T11:59:46.899Z</time>
      </trkpt>
      <trkpt lat="65.6456" lon="12.37927">
        <ele>58.439019</ele>
        <time>2020-08-13T11:59:48.891Z</time>
      </trkpt>
      <trkpt lat="65.64569" lon="12.37933">
        <ele>58.465884</ele>
        <time>2020-08-13T11:59:50.937Z</time>
      </trkpt>
      <trkpt lat="65.64579" lon="12.37938">
        <ele>58.493536</ele>
        <time>2020-08-13T11:59:52.916Z</time>
      </trkpt>
      <trkpt lat="65.64589" lon="12.37942">
        <ele>58.520779</ele>
        <time>2020-08-13T11:59:54.899Z</time>
      </trkpt>
      <trkpt lat="65.64598" lon="12.37947">
        <ele>58.548135</ele>
        <time>2020-08-13T11:59:56.918Z</time>
      </trkpt>
      <trkpt lat="65.64608" lon="12.37953">
        <ele>58.575099</ele>
        <time>2020-08-13T11:59:58.908Z</time>
      </trkpt>
      <trkpt lat="65.64617" lon="12.37957">
        <ele>58.602659</ele>
        <time>2020-08-13T12:00:00.895Z</time>
      </trkpt>
      <trkpt lat="65.64627" lon="12.37962">
        <ele>58.629766</ele>
        <time>2020-08-13T12:00:02.918Z</time>
      </trkpt>
      <trkpt lat="65.64636" lon="12.37967">
        <ele>58.657031</ele>
        <time>2020-08-13T12:00:04.890Z</time>
      </trkpt>
      <trkpt lat="65.64646" lon="12.37971">
        <ele>58.683771</ele>
        <time>2020-08-13T12:00:06.937Z</time>
      </trkpt>
      <trkpt lat="65.64655" lon="12.37977">
        <ele>58.649879</ele>
        <time>2020-08-13T12:00:08.915Z</time>
      </trkpt>
      <trkpt lat="65.64667" lon="12.37983">
        <ele>58.515207</ele>
        <time>2020-08-13T12:00:11.891Z</time>
      </trkpt>
      <trkpt lat="65.64679" lon="12.37989">
        <ele>58.387122</ele>
        <time>2020-08-13T12:00:14.892Z</time>
      </trkpt>
      <trkpt lat="65.64692" lon="12.37994">
        <ele>58.256256</ele>
        <time>2020-08-13T12:00:17.912Z</time>
      </trkpt>
      <trkpt lat="65.64704" lon="12.37999">
        <ele>58.120364</ele>
        <time>2020-08-13T12:00:20.879Z</time>
      </trkpt>
      <trkpt lat="65.64717" lon="12.38006">
        <ele>57.98794</ele>
        <time>2020-08-13T12:00:23.896Z</time>
      </trkpt>
      <trkpt lat="65.64729" lon="12.38013">
        <ele>57.852056</ele>
        <time>2020-08-13T12:00:26.893Z</time>
      </trkpt>
      <trkpt lat="65.64738" lon="12.38019">
        <ele>57.755573</ele>
        <time>2020-08-13T12:00:28.920Z</time>
      </trkpt>
      <trkpt lat="65.64751" lon="12.38028">
        <ele>57.617012</ele>
        <time>2020-08-13T12:00:31.908Z</time>
      </trkpt>
      <trkpt lat="65.64764" lon="12.38035">
        <ele>57.481128</ele>
        <time>2020-08-13T12:00:34.887Z</time>
      </trkpt>
      <trkpt lat="65.64776" lon="12.38042">
        <ele>57.347585</ele>
        <time>2020-08-13T12:00:37.931Z</time>
      </trkpt>
      <trkpt lat="65.64789" lon="12.3805">
        <ele>57.206404</ele>
        <time>2020-08-13T12:00:40.919Z</time>
      </trkpt>
      <trkpt lat="65.64798" lon="12.38055">
        <ele>57.1087</ele>
        <time>2020-08-13T12:00:42.957Z</time>
      </trkpt>
      <trkpt lat="65.64807" lon="12.3806">
        <ele>57.011923</ele>
        <time>2020-08-13T12:00:44.896Z</time>
      </trkpt>
      <trkpt lat="65.64816" lon="12.38065">
        <ele>56.917382</ele>
        <time>2020-08-13T12:00:46.919Z</time>
      </trkpt>
      <trkpt lat="65.64828" lon="12.38072">
        <ele>56.802188</ele>
        <time>2020-08-13T12:00:49.928Z</time>
      </trkpt>
      <trkpt lat="65.64841" lon="12.38079">
        <ele>56.757748</ele>
        <time>2020-08-13T12:00:52.916Z</time>
      </trkpt>
      <trkpt lat="65.64853" lon="12.38087">
        <ele>56.715372</ele>
        <time>2020-08-13T12:00:55.891Z</time>
      </trkpt>
      <trkpt lat="65.64865" lon="12.38095">
        <ele>56.671563</ele>
        <time>2020-08-13T12:00:58.900Z</time>
      </trkpt>
      <trkpt lat="65.64878" lon="12.38101">
        <ele>56.628807</ele>
        <time>2020-08-13T12:01:01.891Z</time>
      </trkpt>
      <trkpt lat="65.6489" lon="12.38108">
        <ele>56.585928</ele>
        <time>2020-08-13T12:01:04.918Z</time>
      </trkpt>
      <trkpt lat="65.64902" lon="12.38114">
        <ele>56.542924</ele>
        <time>2020-08-13T12:01:07.911Z</time>
      </trkpt>
      <trkpt lat="65.64914" lon="12.38121">
        <ele>56.499648</ele>
        <time>2020-08-13T12:01:10.922Z</time>
      </trkpt>
      <trkpt lat="65.64926" lon="12.38128">
        <ele>56.458802</ele>
        <time>2020-08-13T12:01:13.887Z</time>
      </trkpt>
      <trkpt lat="65.64938" lon="12.38134">
        <ele>56.416381</ele>
        <time>2020-08-13T12:01:16.918Z</time>
      </trkpt>
      <trkpt lat="65.6495" lon="12.3814">
        <ele>56.375083</ele>
        <time>2020-08-13T12:01:19.913Z</time>
      </trkpt>
      <trkpt lat="65.64962" lon="12.38147">
        <ele>56.333756</ele>
        <time>2020-08-13T12:01:22.933Z</time>
      </trkpt>
      <trkpt lat="65.6497" lon="12.38152">
        <ele>56.302812</ele>
        <time>2020-08-13T12:01:24.917Z</time>
      </trkpt>
      <trkpt lat="65.64981" lon="12.38159">
        <ele>56.265512</ele>
        <time>2020-08-13T12:01:27.932Z</time>
      </trkpt>
      <trkpt lat="65.64992" lon="12.38165">
        <ele>56.228017</ele>
        <time>2020-08-13T12:01:30.940Z</time>
      </trkpt>
      <trkpt lat="65.65004" lon="12.38171">
        <ele>56.156958</ele>
        <time>2020-08-13T12:01:33.910Z</time>
      </trkpt>
      <trkpt lat="65.65016" lon="12.38177">
        <ele>55.995327</ele>
        <time>2020-08-13T12:01:36.886Z</time>
      </trkpt>
      <trkpt lat="65.65028" lon="12.38184">
        <ele>55.824123</ele>
        <time>2020-08-13T12:01:39.897Z</time>
      </trkpt>
      <trkpt lat="65.65041" lon="12.38191">
        <ele>55.656885</ele>
        <time>2020-08-13T12:01:42.941Z</time>
      </trkpt>
      <trkpt lat="65.65052" lon="12.38198">
        <ele>55.501284</ele>
        <time>2020-08-13T12:01:45.926Z</time>
      </trkpt>
      <trkpt lat="65.65064" lon="12.38203">
        <ele>55.343531</ele>
        <time>2020-08-13T12:01:48.912Z</time>
      </trkpt>
      <trkpt lat="65.65076" lon="12.38209">
        <ele>55.183094</ele>
        <time>2020-08-13T12:01:51.904Z</time>
      </trkpt>
      <trkpt lat="65.65088" lon="12.38213">
        <ele>55.023556</ele>
        <time>2020-08-13T12:01:54.939Z</time>
      </trkpt>
      <trkpt lat="65.651" lon="12.38218">
        <ele>54.863407</ele>
        <time>2020-08-13T12:01:57.910Z</time>
      </trkpt>
      <trkpt lat="65.65112" lon="12.38223">
        <ele>54.704553</ele>
        <time>2020-08-13T12:02:00.915Z</time>
      </trkpt>
      <trkpt lat="65.65124" lon="12.38226">
        <ele>54.542154</ele>
        <time>2020-08-13T12:02:03.889Z</time>
      </trkpt>
      <trkpt lat="65.65137" lon="12.38229">
        <ele>54.377086</ele>
        <time>2020-08-13T12:02:06.928Z</time>
      </trkpt>
      <trkpt lat="65.6515" lon="12.38231">
        <ele>54.20439</ele>
        <time>2020-08-13T12:02:09.897Z</time>
      </trkpt>
      <trkpt lat="65.65163" lon="12.38234">
        <ele>54.032727</ele>
        <time>2020-08-13T12:02:12.922Z</time>
      </trkpt>
      <trkpt lat="65.65172" lon="12.38236">
        <ele>53.913872</ele>
        <time>2020-08-13T12:02:14.896Z</time>
      </trkpt>
      <trkpt lat="65.65185" lon="12.38239">
        <ele>53.850091</ele>
        <time>2020-08-13T12:02:17.893Z</time>
      </trkpt>
      <trkpt lat="65.65198" lon="12.38243">
        <ele>53.884408</ele>
        <time>2020-08-13T12:02:20.904Z</time>
      </trkpt>
      <trkpt lat="65.65207" lon="12.38244">
        <ele>53.90888</ele>
        <time>2020-08-13T12:02:22.921Z</time>
      </trkpt>
      <trkpt lat="65.65216" lon="12.38245">
        <ele>53.933875</ele>
        <time>2020-08-13T12:02:24.908Z</time>
      </trkpt>
      <trkpt lat="65.65225" lon="12.38247">
        <ele>53.958354</ele>
        <time>2020-08-13T12:02:26.903Z</time>
      </trkpt>
      <trkpt lat="65.65235" lon="12.38249">
        <ele>53.983144</ele>
        <time>2020-08-13T12:02:28.894Z</time>
      </trkpt>
      <trkpt lat="65.65244" lon="12.38251">
        <ele>54.007677</ele>
        <time>2020-08-13T12:02:30.897Z</time>
      </trkpt>
      <trkpt lat="65.65253" lon="12.38253">
        <ele>54.031646</ele>
        <time>2020-08-13T12:02:32.891Z</time>
      </trkpt>
      <trkpt lat="65.65262" lon="12.38256">
        <ele>54.057077</ele>
        <time>2020-08-13T12:02:34.899Z</time>
      </trkpt>
      <trkpt lat="65.65272" lon="12.38258">
        <ele>54.083234</ele>
        <time>2020-08-13T12:02:36.890Z</time>
      </trkpt>
      <trkpt lat="65.65281" lon="12.3826">
        <ele>54.10859</ele>
        <time>2020-08-13T12:02:38.918Z</time>
      </trkpt>
      <trkpt lat="65.6529" lon="12.38265">
        <ele>54.13402</ele>
        <time>2020-08-13T12:02:40.935Z</time>
      </trkpt>
      <trkpt lat="65.653" lon="12.3827">
        <ele>54.160494</ele>
        <time>2020-08-13T12:02:42.899Z</time>
      </trkpt>
      <trkpt lat="65.6531" lon="12.38276">
        <ele>54.188537</ele>
        <time>2020-08-13T12:02:44.890Z</time>
      </trkpt>
      <trkpt lat="65.65321" lon="12.38282">
        <ele>54.218896</ele>
        <time>2020-08-13T12:02:46.888Z</time>
      </trkpt>
      <trkpt lat="65.65332" lon="12.3829">
        <ele>54.250038</ele>
        <time>2020-08-13T12:02:48.908Z</time>
      </trkpt>
      <trkpt lat="65.65344" lon="12.38299">
        <ele>54.281703</ele>
        <time>2020-08-13T12:02:50.916Z</time>
      </trkpt>
      <trkpt lat="65.65355" lon="12.3831">
        <ele>54.304013</ele>
        <time>2020-08-13T12:02:52.892Z</time>
      </trkpt>
      <trkpt lat="65.65366" lon="12.38323">
        <ele>53.966747</ele>
        <time>2020-08-13T12:02:54.905Z</time>
      </trkpt>
      <trkpt lat="65.65378" lon="12.38335">
        <ele>53.632882</ele>
        <time>2020-08-13T12:02:56.905Z</time>
      </trkpt>
      <trkpt lat="65.65389" lon="12.38347">
        <ele>53.293331</ele>
        <time>2020-08-13T12:02:58.917Z</time>
      </trkpt>
      <trkpt lat="65.65401" lon="12.38359">
        <ele>52.947019</ele>
        <time>2020-08-13T12:03:00.892Z</time>
      </trkpt>
      <trkpt lat="65.65412" lon="12.38372">
        <ele>52.607881</ele>
        <time>2020-08-13T12:03:02.925Z</time>
      </trkpt>
      <trkpt lat="65.65423" lon="12.38384">
        <ele>52.273664</ele>
        <time>2020-08-13T12:03:04.891Z</time>
      </trkpt>
      <trkpt lat="65.65434" lon="12.38397">
        <ele>51.944351</ele>
        <time>2020-08-13T12:03:06.900Z</time>
      </trkpt>
      <trkpt lat="65.65445" lon="12.3841">
        <ele>51.612035</ele>
        <time>2020-08-13T12:03:08.915Z</time>
      </trkpt>
      <trkpt lat="65.65456" lon="12.38422">
        <ele>51.275837</ele>
        <time>2020-08-13T12:03:10.930Z</time>
      </trkpt>
      <trkpt lat="65.65467" lon="12.38434">
        <ele>50.950794</ele>
        <time>2020-08-13T12:03:12.916Z</time>
      </trkpt>
      <trkpt lat="65.65478" lon="12.38446">
        <ele>50.623269</ele>
        <time>2020-08-13T12:03:14.926Z</time>
      </trkpt>
      <trkpt lat="65.65489" lon="12.3846">
        <ele>50.298227</ele>
        <time>2020-08-13T12:03:16.904Z</time>
      </trkpt>
      <trkpt lat="65.655" lon="12.38471">
        <ele>49.978136</ele>
        <time>2020-08-13T12:03:18.908Z</time>
      </trkpt>
      <trkpt lat="65.6551" lon="12.38483">
        <ele>49.658511</ele>
        <time>2020-08-13T12:03:20.936Z</time>
      </trkpt>
      <trkpt lat="65.65521" lon="12.38495">
        <ele>49.45695</ele>
        <time>2020-08-13T12:03:22.919Z</time>
      </trkpt>
      <trkpt lat="65.65531" lon="12.38506">
        <ele>49.593299</ele>
        <time>2020-08-13T12:03:24.907Z</time>
      </trkpt>
      <trkpt lat="65.65541" lon="12.38517">
        <ele>49.724226</ele>
        <time>2020-08-13T12:03:26.896Z</time>
      </trkpt>
      <trkpt lat="65.65551" lon="12.38527">
        <ele>49.860781</ele>
        <time>2020-08-13T12:03:28.896Z</time>
      </trkpt>
      <trkpt lat="65.65561" lon="12.3854">
        <ele>49.996302</ele>
        <time>2020-08-13T12:03:30.899Z</time>
      </trkpt>
      <trkpt lat="65.65571" lon="12.38552">
        <ele>50.131761</ele>
        <time>2020-08-13T12:03:32.933Z</time>
      </trkpt>
      <trkpt lat="65.6558" lon="12.38563">
        <ele>50.264143</ele>
        <time>2020-08-13T12:03:34.929Z</time>
      </trkpt>
      <trkpt lat="65.6559" lon="12.38572">
        <ele>50.386925</ele>
        <time>2020-08-13T12:03:36.888Z</time>
      </trkpt>
      <trkpt lat="65.65599" lon="12.38582">
        <ele>50.510803</ele>
        <time>2020-08-13T12:03:38.894Z</time>
      </trkpt>
      <trkpt lat="65.65609" lon="12.38592">
        <ele>50.640539</ele>
        <time>2020-08-13T12:03:40.917Z</time>
      </trkpt>
      <trkpt lat="65.65618" lon="12.38604">
        <ele>50.765437</ele>
        <time>2020-08-13T12:03:42.929Z</time>
      </trkpt>
      <trkpt lat="65.65627" lon="12.38615">
        <ele>50.892522</ele>
        <time>2020-08-13T12:03:44.906Z</time>
      </trkpt>
      <trkpt lat="65.65636" lon="12.38625">
        <ele>51.018978</ele>
        <time>2020-08-13T12:03:46.905Z</time>
      </trkpt>
      <trkpt lat="65.65645" lon="12.38636">
        <ele>51.142754</ele>
        <time>2020-08-13T12:03:48.889Z</time>
      </trkpt>
      <trkpt lat="65.65655" lon="12.38647">
        <ele>51.269173</ele>
        <time>2020-08-13T12:03:50.917Z</time>
      </trkpt>
      <trkpt lat="65.65664" lon="12.38657">
        <ele>51.39187</ele>
        <time>2020-08-13T12:03:52.924Z</time>
      </trkpt>
      <trkpt lat="65.65673" lon="12.38667">
        <ele>51.512411</ele>
        <time>2020-08-13T12:03:54.897Z</time>
      </trkpt>
      <trkpt lat="65.65682" lon="12.38677">
        <ele>51.632255</ele>
        <time>2020-08-13T12:03:56.911Z</time>
      </trkpt>
      <trkpt lat="65.65691" lon="12.38688">
        <ele>51.720375</ele>
        <time>2020-08-13T12:03:58.903Z</time>
      </trkpt>
      <trkpt lat="65.65699" lon="12.38697">
        <ele>51.805754</ele>
        <time>2020-08-13T12:04:00.913Z</time>
      </trkpt>
      <trkpt lat="65.65708" lon="12.38707">
        <ele>51.892422</ele>
        <time>2020-08-13T12:04:02.903Z</time>
      </trkpt>
      <trkpt lat="65.65717" lon="12.38717">
        <ele>51.979089</ele>
        <time>2020-08-13T12:04:04.896Z</time>
      </trkpt>
      <trkpt lat="65.65725" lon="12.38727">
        <ele>52.067209</ele>
        <time>2020-08-13T12:04:06.917Z</time>
      </trkpt>
      <trkpt lat="65.65734" lon="12.38737">
        <ele>52.154034</ele>
        <time>2020-08-13T12:04:08.908Z</time>
      </trkpt>
      <trkpt lat="65.65743" lon="12.38747">
        <ele>52.239065</ele>
        <time>2020-08-13T12:04:10.932Z</time>
      </trkpt>
      <trkpt lat="65.65751" lon="12.38756">
        <ele>52.322185</ele>
        <time>2020-08-13T12:04:12.896Z</time>
      </trkpt>
      <trkpt lat="65.6576" lon="12.38765">
        <ele>52.407719</ele>
        <time>2020-08-13T12:04:14.905Z</time>
      </trkpt>
      <trkpt lat="65.65768" lon="12.38775">
        <ele>52.494596</ele>
        <time>2020-08-13T12:04:16.910Z</time>
      </trkpt>
      <trkpt lat="65.65777" lon="12.38785">
        <ele>52.582905</ele>
        <time>2020-08-13T12:04:18.888Z</time>
      </trkpt>
      <trkpt lat="65.65786" lon="12.38794">
        <ele>52.670315</ele>
        <time>2020-08-13T12:04:20.948Z</time>
      </trkpt>
      <trkpt lat="65.65795" lon="12.38804">
        <ele>52.756981</ele>
        <time>2020-08-13T12:04:22.919Z</time>
      </trkpt>
      <trkpt lat="65.65804" lon="12.38813">
        <ele>52.841754</ele>
        <time>2020-08-13T12:04:24.946Z</time>
      </trkpt>
      <trkpt lat="65.65812" lon="12.38822">
        <ele>52.926468</ele>
        <time>2020-08-13T12:04:26.897Z</time>
      </trkpt>
      <trkpt lat="65.65821" lon="12.38832">
        <ele>53.011541</ele>
        <time>2020-08-13T12:04:28.905Z</time>
      </trkpt>
      <trkpt lat="65.65829" lon="12.38841">
        <ele>53.097897</ele>
        <time>2020-08-13T12:04:30.889Z</time>
      </trkpt>
      <trkpt lat="65.65838" lon="12.38851">
        <ele>53.185364</ele>
        <time>2020-08-13T12:04:32.899Z</time>
      </trkpt>
      <trkpt lat="65.65846" lon="12.38861">
        <ele>53.268657</ele>
        <time>2020-08-13T12:04:34.888Z</time>
      </trkpt>
      <trkpt lat="65.65855" lon="12.38871">
        <ele>53.349953</ele>
        <time>2020-08-13T12:04:36.920Z</time>
      </trkpt>
      <trkpt lat="65.65863" lon="12.38881">
        <ele>53.431716</ele>
        <time>2020-08-13T12:04:38.887Z</time>
      </trkpt>
      <trkpt lat="65.65872" lon="12.38891">
        <ele>53.511326</ele>
        <time>2020-08-13T12:04:40.899Z</time>
      </trkpt>
      <trkpt lat="65.65884" lon="12.38904">
        <ele>53.623851</ele>
        <time>2020-08-13T12:04:43.895Z</time>
      </trkpt>
      <trkpt lat="65.65895" lon="12.38916">
        <ele>53.733513</ele>
        <time>2020-08-13T12:04:46.917Z</time>
      </trkpt>
      <trkpt lat="65.65907" lon="12.38928">
        <ele>53.839367</ele>
        <time>2020-08-13T12:04:49.908Z</time>
      </trkpt>
      <trkpt lat="65.65918" lon="12.38941">
        <ele>53.947196</ele>
        <time>2020-08-13T12:04:52.898Z</time>
      </trkpt>
      <trkpt lat="65.65929" lon="12.38956">
        <ele>54.053868</ele>
        <time>2020-08-13T12:04:55.897Z</time>
      </trkpt>
      <trkpt lat="65.6594" lon="12.3897">
        <ele>54.162662</ele>
        <time>2020-08-13T12:04:58.910Z</time>
      </trkpt>
      <trkpt lat="65.65952" lon="12.38984">
        <ele>54.275618</ele>
        <time>2020-08-13T12:05:01.898Z</time>
      </trkpt>
      <trkpt lat="65.65963" lon="12.38999">
        <ele>54.384995</ele>
        <time>2020-08-13T12:05:04.916Z</time>
      </trkpt>
      <trkpt lat="65.65974" lon="12.39013">
        <ele>54.495931</ele>
        <time>2020-08-13T12:05:07.903Z</time>
      </trkpt>
      <trkpt lat="65.65985" lon="12.39027">
        <ele>54.60254</ele>
        <time>2020-08-13T12:05:10.904Z</time>
      </trkpt>
      <trkpt lat="65.65996" lon="12.39041">
        <ele>54.711663</ele>
        <time>2020-08-13T12:05:13.892Z</time>
      </trkpt>
      <trkpt lat="65.66007" lon="12.39056">
        <ele>54.786458</ele>
        <time>2020-08-13T12:05:16.914Z</time>
      </trkpt>
      <trkpt lat="65.66019" lon="12.39071">
        <ele>54.709669</ele>
        <time>2020-08-13T12:05:19.896Z</time>
      </trkpt>
      <trkpt lat="65.6603" lon="12.39087">
        <ele>54.636347</ele>
        <time>2020-08-13T12:05:22.940Z</time>
      </trkpt>
      <trkpt lat="65.6604" lon="12.39102">
        <ele>54.56404</ele>
        <time>2020-08-13T12:05:25.897Z</time>
      </trkpt>
      <trkpt lat="65.66051" lon="12.39117">
        <ele>54.490089</ele>
        <time>2020-08-13T12:05:28.892Z</time>
      </trkpt>
      <trkpt lat="65.66062" lon="12.39134">
        <ele>54.414143</ele>
        <time>2020-08-13T12:05:31.886Z</time>
      </trkpt>
      <trkpt lat="65.66074" lon="12.39151">
        <ele>54.334309</ele>
        <time>2020-08-13T12:05:34.895Z</time>
      </trkpt>
      <trkpt lat="65.66082" lon="12.39162">
        <ele>54.280082</ele>
        <time>2020-08-13T12:05:36.910Z</time>
      </trkpt>
      <trkpt lat="65.66092" lon="12.39179">
        <ele>54.205953</ele>
        <time>2020-08-13T12:05:39.912Z</time>
      </trkpt>
      <trkpt lat="65.66103" lon="12.39197">
        <ele>54.130444</ele>
        <time>2020-08-13T12:05:42.908Z</time>
      </trkpt>
      <trkpt lat="65.66114" lon="12.39214">
        <ele>54.054844</ele>
        <time>2020-08-13T12:05:45.915Z</time>
      </trkpt>
      <trkpt lat="65.66124" lon="12.3923">
        <ele>53.982287</ele>
        <time>2020-08-13T12:05:48.937Z</time>
      </trkpt>
      <trkpt lat="65.66135" lon="12.39247">
        <ele>53.908238</ele>
        <time>2020-08-13T12:05:51.913Z</time>
      </trkpt>
      <trkpt lat="65.66146" lon="12.39263">
        <ele>53.832293</ele>
        <time>2020-08-13T12:05:54.929Z</time>
      </trkpt>
      <trkpt lat="65.66156" lon="12.3928">
        <ele>53.758466</ele>
        <time>2020-08-13T12:05:57.919Z</time>
      </trkpt>
      <trkpt lat="65.66167" lon="12.39297">
        <ele>53.644164</ele>
        <time>2020-08-13T12:06:00.905Z</time>
      </trkpt>
      <trkpt lat="65.66178" lon="12.39314">
        <ele>53.521557</ele>
        <time>2020-08-13T12:06:03.913Z</time>
      </trkpt>
      <trkpt lat="65.66189" lon="12.39331">
        <ele>53.394513</ele>
        <time>2020-08-13T12:06:06.894Z</time>
      </trkpt>
      <trkpt lat="65.66197" lon="12.39342">
        <ele>53.308027</ele>
        <time>2020-08-13T12:06:08.899Z</time>
      </trkpt>
      <trkpt lat="65.66204" lon="12.39354">
        <ele>53.221468</ele>
        <time>2020-08-13T12:06:10.913Z</time>
      </trkpt>
      <trkpt lat="65.66211" lon="12.39367">
        <ele>53.135588</ele>
        <time>2020-08-13T12:06:12.922Z</time>
      </trkpt>
      <trkpt lat="65.66219" lon="12.39379">
        <ele>53.045818</ele>
        <time>2020-08-13T12:06:14.891Z</time>
      </trkpt>
      <trkpt lat="65.66227" lon="12.39391">
        <ele>52.956641</ele>
        <time>2020-08-13T12:06:16.906Z</time>
      </trkpt>
      <trkpt lat="65.66235" lon="12.39404">
        <ele>52.869417</ele>
        <time>2020-08-13T12:06:18.897Z</time>
      </trkpt>
      <trkpt lat="65.66243" lon="12.39416">
        <ele>52.778789</ele>
        <time>2020-08-13T12:06:20.916Z</time>
      </trkpt>
      <trkpt lat="65.66251" lon="12.3943">
        <ele>52.682898</ele>
        <time>2020-08-13T12:06:22.894Z</time>
      </trkpt>
      <trkpt lat="65.66259" lon="12.39444">
        <ele>52.583474</ele>
        <time>2020-08-13T12:06:24.928Z</time>
      </trkpt>
      <trkpt lat="65.66268" lon="12.39458">
        <ele>52.47991</ele>
        <time>2020-08-13T12:06:26.914Z</time>
      </trkpt>
      <trkpt lat="65.66278" lon="12.39473">
        <ele>52.372335</ele>
        <time>2020-08-13T12:06:28.950Z</time>
      </trkpt>
      <trkpt lat="65.66287" lon="12.39488">
        <ele>52.263953</ele>
        <time>2020-08-13T12:06:30.947Z</time>
      </trkpt>
      <trkpt lat="65.66297" lon="12.39504">
        <ele>52.155225</ele>
        <time>2020-08-13T12:06:32.883Z</time>
      </trkpt>
      <trkpt lat="65.66306" lon="12.39518">
        <ele>52.047806</ele>
        <time>2020-08-13T12:06:34.935Z</time>
      </trkpt>
      <trkpt lat="65.66316" lon="12.39534">
        <ele>51.826556</ele>
        <time>2020-08-13T12:06:36.898Z</time>
      </trkpt>
      <trkpt lat="65.66326" lon="12.39549">
        <ele>51.565815</ele>
        <time>2020-08-13T12:06:38.905Z</time>
      </trkpt>
      <trkpt lat="65.66335" lon="12.39565">
        <ele>51.303717</ele>
        <time>2020-08-13T12:06:40.895Z</time>
      </trkpt>
      <trkpt lat="65.66345" lon="12.3958">
        <ele>51.043204</ele>
        <time>2020-08-13T12:06:42.931Z</time>
      </trkpt>
      <trkpt lat="65.66355" lon="12.39594">
        <ele>50.784105</ele>
        <time>2020-08-13T12:06:44.908Z</time>
      </trkpt>
      <trkpt lat="65.66365" lon="12.39609">
        <ele>50.530257</ele>
        <time>2020-08-13T12:06:46.953Z</time>
      </trkpt>
      <trkpt lat="65.66374" lon="12.39623">
        <ele>50.279317</ele>
        <time>2020-08-13T12:06:48.952Z</time>
      </trkpt>
      <trkpt lat="65.66384" lon="12.39637">
        <ele>50.025939</ele>
        <time>2020-08-13T12:06:50.908Z</time>
      </trkpt>
      <trkpt lat="65.66394" lon="12.3965">
        <ele>49.776419</ele>
        <time>2020-08-13T12:06:52.901Z</time>
      </trkpt>
      <trkpt lat="65.66404" lon="12.39663">
        <ele>49.527101</ele>
        <time>2020-08-13T12:06:54.892Z</time>
      </trkpt>
      <trkpt lat="65.66413" lon="12.39677">
        <ele>49.286168</ele>
        <time>2020-08-13T12:06:56.911Z</time>
      </trkpt>
      <trkpt lat="65.66422" lon="12.39689">
        <ele>49.045378</ele>
        <time>2020-08-13T12:06:58.897Z</time>
      </trkpt>
      <trkpt lat="65.66432" lon="12.39701">
        <ele>48.81154</ele>
        <time>2020-08-13T12:07:00.928Z</time>
      </trkpt>
      <trkpt lat="65.6644" lon="12.39715">
        <ele>48.582992</ele>
        <time>2020-08-13T12:07:02.916Z</time>
      </trkpt>
      <trkpt lat="65.66449" lon="12.39728">
        <ele>48.355435</ele>
        <time>2020-08-13T12:07:04.920Z</time>
      </trkpt>
      <trkpt lat="65.66458" lon="12.39741">
        <ele>48.119792</ele>
        <time>2020-08-13T12:07:06.903Z</time>
      </trkpt>
      <trkpt lat="65.66467" lon="12.39755">
        <ele>47.996942</ele>
        <time>2020-08-13T12:07:08.906Z</time>
      </trkpt>
      <trkpt lat="65.66476" lon="12.39768">
        <ele>47.995839</ele>
        <time>2020-08-13T12:07:10.886Z</time>
      </trkpt>
      <trkpt lat="65.66486" lon="12.39781">
        <ele>47.994744</ele>
        <time>2020-08-13T12:07:12.909Z</time>
      </trkpt>
      <trkpt lat="65.66495" lon="12.39794">
        <ele>47.993676</ele>
        <time>2020-08-13T12:07:14.918Z</time>
      </trkpt>
      <trkpt lat="65.66504" lon="12.39807">
        <ele>47.992606</ele>
        <time>2020-08-13T12:07:16.927Z</time>
      </trkpt>
      <trkpt lat="65.66512" lon="12.3982">
        <ele>47.991559</ele>
        <time>2020-08-13T12:07:18.905Z</time>
      </trkpt>
      <trkpt lat="65.66521" lon="12.39834">
        <ele>47.990495</ele>
        <time>2020-08-13T12:07:20.899Z</time>
      </trkpt>
      <trkpt lat="65.66531" lon="12.39846">
        <ele>47.989397</ele>
        <time>2020-08-13T12:07:22.907Z</time>
      </trkpt>
      <trkpt lat="65.6654" lon="12.3986">
        <ele>47.988301</ele>
        <time>2020-08-13T12:07:24.896Z</time>
      </trkpt>
      <trkpt lat="65.6655" lon="12.39873">
        <ele>47.987184</ele>
        <time>2020-08-13T12:07:26.918Z</time>
      </trkpt>
      <trkpt lat="65.66559" lon="12.39886">
        <ele>47.986076</ele>
        <time>2020-08-13T12:07:28.913Z</time>
      </trkpt>
      <trkpt lat="65.66569" lon="12.39899">
        <ele>47.98494</ele>
        <time>2020-08-13T12:07:30.899Z</time>
      </trkpt>
      <trkpt lat="65.66578" lon="12.39912">
        <ele>47.983817</ele>
        <time>2020-08-13T12:07:32.908Z</time>
      </trkpt>
      <trkpt lat="65.66588" lon="12.39925">
        <ele>47.982673</ele>
        <time>2020-08-13T12:07:34.901Z</time>
      </trkpt>
      <trkpt lat="65.66598" lon="12.39939">
        <ele>47.981518</ele>
        <time>2020-08-13T12:07:36.932Z</time>
      </trkpt>
      <trkpt lat="65.66607" lon="12.39954">
        <ele>47.980382</ele>
        <time>2020-08-13T12:07:38.903Z</time>
      </trkpt>
      <trkpt lat="65.66617" lon="12.39967">
        <ele>47.979257</ele>
        <time>2020-08-13T12:07:40.907Z</time>
      </trkpt>
      <trkpt lat="65.66626" lon="12.3998">
        <ele>47.942919</ele>
        <time>2020-08-13T12:07:42.947Z</time>
      </trkpt>
      <trkpt lat="65.66636" lon="12.39993">
        <ele>47.902985</ele>
        <time>2020-08-13T12:07:44.926Z</time>
      </trkpt>
      <trkpt lat="65.66646" lon="12.40007">
        <ele>47.863381</ele>
        <time>2020-08-13T12:07:46.889Z</time>
      </trkpt>
      <trkpt lat="65.66655" lon="12.4002">
        <ele>47.824075</ele>
        <time>2020-08-13T12:07:48.905Z</time>
      </trkpt>
      <trkpt lat="65.66665" lon="12.40034">
        <ele>47.784245</ele>
        <time>2020-08-13T12:07:50.893Z</time>
      </trkpt>
      <trkpt lat="65.66674" lon="12.40047">
        <ele>47.744331</ele>
        <time>2020-08-13T12:07:52.899Z</time>
      </trkpt>
      <trkpt lat="65.66684" lon="12.4006">
        <ele>47.704998</ele>
        <time>2020-08-13T12:07:54.888Z</time>
      </trkpt>
      <trkpt lat="65.66693" lon="12.40073">
        <ele>47.666004</ele>
        <time>2020-08-13T12:07:56.887Z</time>
      </trkpt>
      <trkpt lat="65.66703" lon="12.40086">
        <ele>47.62655</ele>
        <time>2020-08-13T12:07:58.906Z</time>
      </trkpt>
      <trkpt lat="65.66712" lon="12.40099">
        <ele>47.587146</ele>
        <time>2020-08-13T12:08:00.902Z</time>
      </trkpt>
      <trkpt lat="65.66722" lon="12.40112">
        <ele>47.547356</ele>
        <time>2020-08-13T12:08:02.892Z</time>
      </trkpt>
      <trkpt lat="65.66731" lon="12.40126">
        <ele>47.508063</ele>
        <time>2020-08-13T12:08:04.908Z</time>
      </trkpt>
      <trkpt lat="65.66741" lon="12.40139">
        <ele>47.467689</ele>
        <time>2020-08-13T12:08:06.893Z</time>
      </trkpt>
      <trkpt lat="65.66751" lon="12.40154">
        <ele>47.426707</ele>
        <time>2020-08-13T12:08:08.913Z</time>
      </trkpt>
      <trkpt lat="65.66761" lon="12.40167">
        <ele>47.386143</ele>
        <time>2020-08-13T12:08:10.897Z</time>
      </trkpt>
      <trkpt lat="65.66771" lon="12.4018">
        <ele>47.345292</ele>
        <time>2020-08-13T12:08:12.908Z</time>
      </trkpt>
      <trkpt lat="65.6678" lon="12.40194">
        <ele>47.250779</ele>
        <time>2020-08-13T12:08:14.893Z</time>
      </trkpt>
      <trkpt lat="65.6679" lon="12.40208">
        <ele>47.125946</ele>
        <time>2020-08-13T12:08:16.912Z</time>
      </trkpt>
      <trkpt lat="65.668" lon="12.40223">
        <ele>47.003388</ele>
        <time>2020-08-13T12:08:18.891Z</time>
      </trkpt>
      <trkpt lat="65.6681" lon="12.40237">
        <ele>46.880317</ele>
        <time>2020-08-13T12:08:20.917Z</time>
      </trkpt>
      <trkpt lat="65.6682" lon="12.4025">
        <ele>46.759986</ele>
        <time>2020-08-13T12:08:22.899Z</time>
      </trkpt>
      <trkpt lat="65.66829" lon="12.40263">
        <ele>46.643844</ele>
        <time>2020-08-13T12:08:24.893Z</time>
      </trkpt>
      <trkpt lat="65.66839" lon="12.40276">
        <ele>46.52792</ele>
        <time>2020-08-13T12:08:26.905Z</time>
      </trkpt>
      <trkpt lat="65.66848" lon="12.40289">
        <ele>46.413424</ele>
        <time>2020-08-13T12:08:28.910Z</time>
      </trkpt>
      <trkpt lat="65.66857" lon="12.40303">
        <ele>46.293889</ele>
        <time>2020-08-13T12:08:30.906Z</time>
      </trkpt>
      <trkpt lat="65.66867" lon="12.40316">
        <ele>46.173888</ele>
        <time>2020-08-13T12:08:32.892Z</time>
      </trkpt>
      <trkpt lat="65.66877" lon="12.4033">
        <ele>46.053406</ele>
        <time>2020-08-13T12:08:34.895Z</time>
      </trkpt>
      <trkpt lat="65.66886" lon="12.40344">
        <ele>45.931274</ele>
        <time>2020-08-13T12:08:36.911Z</time>
      </trkpt>
      <trkpt lat="65.66896" lon="12.40357">
        <ele>45.807333</ele>
        <time>2020-08-13T12:08:38.896Z</time>
      </trkpt>
      <trkpt lat="65.66906" lon="12.40372">
        <ele>45.684804</ele>
        <time>2020-08-13T12:08:40.901Z</time>
      </trkpt>
      <trkpt lat="65.66916" lon="12.40386">
        <ele>45.5625</ele>
        <time>2020-08-13T12:08:42.900Z</time>
      </trkpt>
      <trkpt lat="65.66926" lon="12.40399">
        <ele>45.440421</ele>
        <time>2020-08-13T12:08:44.895Z</time>
      </trkpt>
      <trkpt lat="65.66936" lon="12.40414">
        <ele>45.374995</ele>
        <time>2020-08-13T12:08:46.913Z</time>
      </trkpt>
      <trkpt lat="65.66946" lon="12.40428">
        <ele>45.341029</ele>
        <time>2020-08-13T12:08:48.901Z</time>
      </trkpt>
      <trkpt lat="65.66956" lon="12.40443">
        <ele>45.306496</ele>
        <time>2020-08-13T12:08:50.895Z</time>
      </trkpt>
      <trkpt lat="65.66967" lon="12.40458">
        <ele>45.27014</ele>
        <time>2020-08-13T12:08:52.884Z</time>
      </trkpt>
      <trkpt lat="65.66978" lon="12.40473">
        <ele>45.23295</ele>
        <time>2020-08-13T12:08:54.923Z</time>
      </trkpt>
      <trkpt lat="65.66988" lon="12.40488">
        <ele>45.196657</ele>
        <time>2020-08-13T12:08:56.904Z</time>
      </trkpt>
      <trkpt lat="65.66998" lon="12.40504">
        <ele>45.160992</ele>
        <time>2020-08-13T12:08:58.891Z</time>
      </trkpt>
      <trkpt lat="65.67009" lon="12.40519">
        <ele>45.125895</ele>
        <time>2020-08-13T12:09:00.925Z</time>
      </trkpt>
      <trkpt lat="65.67019" lon="12.40533">
        <ele>45.09117</ele>
        <time>2020-08-13T12:09:02.912Z</time>
      </trkpt>
      <trkpt lat="65.67029" lon="12.40547">
        <ele>45.057896</ele>
        <time>2020-08-13T12:09:04.922Z</time>
      </trkpt>
      <trkpt lat="65.67038" lon="12.40561">
        <ele>45.025682</ele>
        <time>2020-08-13T12:09:06.899Z</time>
      </trkpt>
      <trkpt lat="65.67048" lon="12.40574">
        <ele>44.992837</ele>
        <time>2020-08-13T12:09:08.896Z</time>
      </trkpt>
      <trkpt lat="65.67057" lon="12.40587">
        <ele>44.960999</ele>
        <time>2020-08-13T12:09:10.900Z</time>
      </trkpt>
      <trkpt lat="65.67067" lon="12.40601">
        <ele>44.928229</ele>
        <time>2020-08-13T12:09:12.943Z</time>
      </trkpt>
      <trkpt lat="65.67076" lon="12.40615">
        <ele>44.896466</ele>
        <time>2020-08-13T12:09:14.896Z</time>
      </trkpt>
      <trkpt lat="65.67085" lon="12.40627">
        <ele>44.884389</ele>
        <time>2020-08-13T12:09:16.920Z</time>
      </trkpt>
      <trkpt lat="65.67094" lon="12.40641">
        <ele>45.039303</ele>
        <time>2020-08-13T12:09:18.932Z</time>
      </trkpt>
      <trkpt lat="65.67103" lon="12.40654">
        <ele>45.1942</ele>
        <time>2020-08-13T12:09:20.892Z</time>
      </trkpt>
      <trkpt lat="65.67113" lon="12.40668">
        <ele>45.351274</ele>
        <time>2020-08-13T12:09:22.899Z</time>
      </trkpt>
      <trkpt lat="65.67122" lon="12.40681">
        <ele>45.505585</ele>
        <time>2020-08-13T12:09:24.913Z</time>
      </trkpt>
      <trkpt lat="65.67131" lon="12.40693">
        <ele>45.658422</ele>
        <time>2020-08-13T12:09:26.927Z</time>
      </trkpt>
      <trkpt lat="65.6714" lon="12.40705">
        <ele>45.806703</ele>
        <time>2020-08-13T12:09:28.916Z</time>
      </trkpt>
      <trkpt lat="65.67149" lon="12.40717">
        <ele>45.953991</ele>
        <time>2020-08-13T12:09:30.930Z</time>
      </trkpt>
      <trkpt lat="65.67158" lon="12.40729">
        <ele>46.106537</ele>
        <time>2020-08-13T12:09:32.898Z</time>
      </trkpt>
      <trkpt lat="65.67167" lon="12.40741">
        <ele>46.256253</ele>
        <time>2020-08-13T12:09:34.908Z</time>
      </trkpt>
      <trkpt lat="65.67176" lon="12.40754">
        <ele>46.406501</ele>
        <time>2020-08-13T12:09:36.925Z</time>
      </trkpt>
      <trkpt lat="65.67185" lon="12.40767">
        <ele>46.553639</ele>
        <time>2020-08-13T12:09:38.922Z</time>
      </trkpt>
      <trkpt lat="65.67194" lon="12.40778">
        <ele>46.699079</ele>
        <time>2020-08-13T12:09:40.919Z</time>
      </trkpt>
      <trkpt lat="65.67202" lon="12.4079">
        <ele>46.841682</ele>
        <time>2020-08-13T12:09:42.890Z</time>
      </trkpt>
      <trkpt lat="65.6721" lon="12.40801">
        <ele>46.976485</ele>
        <time>2020-08-13T12:09:44.940Z</time>
      </trkpt>
      <trkpt lat="65.67222" lon="12.40816">
        <ele>47.16626</ele>
        <time>2020-08-13T12:09:47.893Z</time>
      </trkpt>
      <trkpt lat="65.67234" lon="12.40829">
        <ele>47.357116</ele>
        <time>2020-08-13T12:09:50.929Z</time>
      </trkpt>
      <trkpt lat="65.67245" lon="12.40843">
        <ele>47.482606</ele>
        <time>2020-08-13T12:09:53.889Z</time>
      </trkpt>
      <trkpt lat="65.67256" lon="12.40853">
        <ele>47.487985</ele>
        <time>2020-08-13T12:09:56.912Z</time>
      </trkpt>
      <trkpt lat="65.67268" lon="12.40863">
        <ele>47.493376</ele>
        <time>2020-08-13T12:09:59.915Z</time>
      </trkpt>
      <trkpt lat="65.67279" lon="12.40872">
        <ele>47.49873</ele>
        <time>2020-08-13T12:10:02.903Z</time>
      </trkpt>
      <trkpt lat="65.6729" lon="12.40879">
        <ele>47.503848</ele>
        <time>2020-08-13T12:10:05.918Z</time>
      </trkpt>
      <trkpt lat="65.67302" lon="12.40884">
        <ele>47.509163</ele>
        <time>2020-08-13T12:10:08.909Z</time>
      </trkpt>
      <trkpt lat="65.67314" lon="12.40889">
        <ele>47.514819</ele>
        <time>2020-08-13T12:10:11.903Z</time>
      </trkpt>
      <trkpt lat="65.67327" lon="12.40893">
        <ele>47.520472</ele>
        <time>2020-08-13T12:10:14.910Z</time>
      </trkpt>
      <trkpt lat="65.67339" lon="12.40895">
        <ele>47.52629</ele>
        <time>2020-08-13T12:10:17.889Z</time>
      </trkpt>
      <trkpt lat="65.67353" lon="12.40896">
        <ele>47.532188</ele>
        <time>2020-08-13T12:10:20.911Z</time>
      </trkpt>
      <trkpt lat="65.67362" lon="12.40898">
        <ele>47.536519</ele>
        <time>2020-08-13T12:10:22.939Z</time>
      </trkpt>
      <trkpt lat="65.67372" lon="12.409">
        <ele>47.541116</ele>
        <time>2020-08-13T12:10:24.909Z</time>
      </trkpt>
      <trkpt lat="65.67384" lon="12.40902">
        <ele>47.546209</ele>
        <time>2020-08-13T12:10:26.924Z</time>
      </trkpt>
      <trkpt lat="65.67395" lon="12.40903">
        <ele>47.551384</ele>
        <time>2020-08-13T12:10:28.928Z</time>
      </trkpt>
      <trkpt lat="65.67407" lon="12.40903">
        <ele>47.556647</ele>
        <time>2020-08-13T12:10:30.928Z</time>
      </trkpt>
      <trkpt lat="65.6742" lon="12.40905">
        <ele>47.534712</ele>
        <time>2020-08-13T12:10:32.890Z</time>
      </trkpt>
      <trkpt lat="65.67433" lon="12.40906">
        <ele>47.343258</ele>
        <time>2020-08-13T12:10:34.904Z</time>
      </trkpt>
      <trkpt lat="65.67446" lon="12.40907">
        <ele>47.145988</ele>
        <time>2020-08-13T12:10:36.928Z</time>
      </trkpt>
      <trkpt lat="65.6746" lon="12.40908">
        <ele>46.945779</ele>
        <time>2020-08-13T12:10:38.912Z</time>
      </trkpt>
      <trkpt lat="65.67473" lon="12.4091">
        <ele>46.752731</ele>
        <time>2020-08-13T12:10:40.899Z</time>
      </trkpt>
      <trkpt lat="65.67486" lon="12.40911">
        <ele>46.564223</ele>
        <time>2020-08-13T12:10:42.918Z</time>
      </trkpt>
      <trkpt lat="65.67499" lon="12.4091">
        <ele>46.384397</ele>
        <time>2020-08-13T12:10:44.907Z</time>
      </trkpt>
      <trkpt lat="65.67511" lon="12.40909">
        <ele>46.213315</ele>
        <time>2020-08-13T12:10:46.892Z</time>
      </trkpt>
      <trkpt lat="65.67522" lon="12.40908">
        <ele>46.046512</ele>
        <time>2020-08-13T12:10:48.895Z</time>
      </trkpt>
      <trkpt lat="65.67533" lon="12.40908">
        <ele>45.888422</ele>
        <time>2020-08-13T12:10:50.919Z</time>
      </trkpt>
      <trkpt lat="65.67544" lon="12.40906">
        <ele>45.73169</ele>
        <time>2020-08-13T12:10:52.912Z</time>
      </trkpt>
      <trkpt lat="65.67555" lon="12.40905">
        <ele>45.576347</ele>
        <time>2020-08-13T12:10:54.898Z</time>
      </trkpt>
      <trkpt lat="65.67566" lon="12.40903">
        <ele>45.41503</ele>
        <time>2020-08-13T12:10:56.932Z</time>
      </trkpt>
      <trkpt lat="65.67577" lon="12.40901">
        <ele>45.253476</ele>
        <time>2020-08-13T12:10:58.893Z</time>
      </trkpt>
      <trkpt lat="65.67589" lon="12.40896">
        <ele>45.077538</ele>
        <time>2020-08-13T12:11:00.900Z</time>
      </trkpt>
      <trkpt lat="65.67601" lon="12.40893">
        <ele>45.002971</ele>
        <time>2020-08-13T12:11:02.928Z</time>
      </trkpt>
      <trkpt lat="65.67614" lon="12.40891">
        <ele>45.166194</ele>
        <time>2020-08-13T12:11:04.961Z</time>
      </trkpt>
      <trkpt lat="65.67627" lon="12.4089">
        <ele>45.330419</ele>
        <time>2020-08-13T12:11:06.917Z</time>
      </trkpt>
      <trkpt lat="65.6764" lon="12.4089">
        <ele>45.499633</ele>
        <time>2020-08-13T12:11:08.908Z</time>
      </trkpt>
      <trkpt lat="65.67654" lon="12.40892">
        <ele>45.673013</ele>
        <time>2020-08-13T12:11:10.925Z</time>
      </trkpt>
      <trkpt lat="65.67668" lon="12.40896">
        <ele>45.850863</ele>
        <time>2020-08-13T12:11:12.907Z</time>
      </trkpt>
      <trkpt lat="65.67681" lon="12.40901">
        <ele>46.026025</ele>
        <time>2020-08-13T12:11:14.909Z</time>
      </trkpt>
      <trkpt lat="65.67694" lon="12.40907">
        <ele>46.187938</ele>
        <time>2020-08-13T12:11:16.909Z</time>
      </trkpt>
      <trkpt lat="65.67705" lon="12.40914">
        <ele>46.337545</ele>
        <time>2020-08-13T12:11:18.897Z</time>
      </trkpt>
      <trkpt lat="65.67715" lon="12.40922">
        <ele>46.474816</ele>
        <time>2020-08-13T12:11:20.906Z</time>
      </trkpt>
      <trkpt lat="65.67724" lon="12.40928">
        <ele>46.594431</ele>
        <time>2020-08-13T12:11:22.895Z</time>
      </trkpt>
      <trkpt lat="65.67736" lon="12.40938">
        <ele>46.748469</ele>
        <time>2020-08-13T12:11:25.909Z</time>
      </trkpt>
      <trkpt lat="65.67745" lon="12.40947">
        <ele>46.878402</ele>
        <time>2020-08-13T12:11:28.909Z</time>
      </trkpt>
      <trkpt lat="65.67754" lon="12.40957">
        <ele>46.999947</ele>
        <time>2020-08-13T12:11:31.907Z</time>
      </trkpt>
      <trkpt lat="65.67762" lon="12.40968">
        <ele>47.119138</ele>
        <time>2020-08-13T12:11:34.912Z</time>
      </trkpt>
      <trkpt lat="65.6777" lon="12.40979">
        <ele>47.237578</ele>
        <time>2020-08-13T12:11:37.888Z</time>
      </trkpt>
      <trkpt lat="65.67779" lon="12.40992">
        <ele>47.662288</ele>
        <time>2020-08-13T12:11:40.933Z</time>
      </trkpt>
      <trkpt lat="65.67788" lon="12.41006">
        <ele>48.155153</ele>
        <time>2020-08-13T12:11:44.896Z</time>
      </trkpt>
      <trkpt lat="65.67797" lon="12.41022">
        <ele>48.648468</ele>
        <time>2020-08-13T12:11:48.909Z</time>
      </trkpt>
      <trkpt lat="65.67807" lon="12.41036">
        <ele>49.133697</ele>
        <time>2020-08-13T12:11:52.913Z</time>
      </trkpt>
      <trkpt lat="65.67816" lon="12.41049">
        <ele>49.617366</ele>
        <time>2020-08-13T12:11:56.905Z</time>
      </trkpt>
      <trkpt lat="65.67826" lon="12.41063">
        <ele>50.128946</ele>
        <time>2020-08-13T12:12:00.903Z</time>
      </trkpt>
      <trkpt lat="65.67836" lon="12.41078">
        <ele>50.637914</ele>
        <time>2020-08-13T12:12:04.896Z</time>
      </trkpt>
      <trkpt lat="65.67845" lon="12.41093">
        <ele>51.126199</ele>
        <time>2020-08-13T12:12:08.902Z</time>
      </trkpt>
      <trkpt lat="65.67854" lon="12.41107">
        <ele>51.568327</ele>
        <time>2020-08-13T12:12:12.928Z</time>
      </trkpt>
      <trkpt lat="65.67862" lon="12.41121">
        <ele>52.016242</ele>
        <time>2020-08-13T12:12:16.904Z</time>
      </trkpt>
      <trkpt lat="65.67871" lon="12.41134">
        <ele>52.462912</ele>
        <time>2020-08-13T12:12:20.948Z</time>
      </trkpt>
      <trkpt lat="65.67879" lon="12.41146">
        <ele>52.890876</ele>
        <time>2020-08-13T12:12:24.925Z</time>
      </trkpt>
      <trkpt lat="65.67887" lon="12.41159">
        <ele>53.312442</ele>
        <time>2020-08-13T12:12:28.924Z</time>
      </trkpt>
      <trkpt lat="65.67896" lon="12.41174">
        <ele>53.783469</ele>
        <time>2020-08-13T12:12:32.904Z</time>
      </trkpt>
      <trkpt lat="65.67904" lon="12.41186">
        <ele>54.213227</ele>
        <time>2020-08-13T12:12:36.914Z</time>
      </trkpt>
      <trkpt lat="65.67913" lon="12.412">
        <ele>54.682461</ele>
        <time>2020-08-13T12:12:40.913Z</time>
      </trkpt>
      <trkpt lat="65.67922" lon="12.41214">
        <ele>55.148089</ele>
        <time>2020-08-13T12:12:44.918Z</time>
      </trkpt>
      <trkpt lat="65.67931" lon="12.41231">
        <ele>55.232747</ele>
        <time>2020-08-13T12:12:48.892Z</time>
      </trkpt>
      <trkpt lat="65.6794" lon="12.41243">
        <ele>55.306022</ele>
        <time>2020-08-13T12:12:52.910Z</time>
      </trkpt>
      <trkpt lat="65.6795" lon="12.41252">
        <ele>55.377639</ele>
        <time>2020-08-13T12:12:56.910Z</time>
      </trkpt>
      <trkpt lat="65.67958" lon="12.41266">
        <ele>55.449593</ele>
        <time>2020-08-13T12:13:00.909Z</time>
      </trkpt>
      <trkpt lat="65.67966" lon="12.4128">
        <ele>55.519987</ele>
        <time>2020-08-13T12:13:04.932Z</time>
      </trkpt>
      <trkpt lat="65.67975" lon="12.41295">
        <ele>55.592676</ele>
        <time>2020-08-13T12:13:08.919Z</time>
      </trkpt>
      <trkpt lat="65.67985" lon="12.41309">
        <ele>55.673764</ele>
        <time>2020-08-13T12:13:12.893Z</time>
      </trkpt>
      <trkpt lat="65.67993" lon="12.41322">
        <ele>55.74287</ele>
        <time>2020-08-13T12:13:15.935Z</time>
      </trkpt>
      <trkpt lat="65.68003" lon="12.41336">
        <ele>55.823086</ele>
        <time>2020-08-13T12:13:18.894Z</time>
      </trkpt>
      <trkpt lat="65.68014" lon="12.41351">
        <ele>55.906403</ele>
        <time>2020-08-13T12:13:21.935Z</time>
      </trkpt>
      <trkpt lat="65.68025" lon="12.41368">
        <ele>55.995806</ele>
        <time>2020-08-13T12:13:24.905Z</time>
      </trkpt>
      <trkpt lat="65.68033" lon="12.41379">
        <ele>56.060122</ele>
        <time>2020-08-13T12:13:26.930Z</time>
      </trkpt>
      <trkpt lat="65.68041" lon="12.41391">
        <ele>56.128289</ele>
        <time>2020-08-13T12:13:28.906Z</time>
      </trkpt>
      <trkpt lat="65.6805" lon="12.41404">
        <ele>56.200318</ele>
        <time>2020-08-13T12:13:30.912Z</time>
      </trkpt>
      <trkpt lat="65.68059" lon="12.41418">
        <ele>56.272653</ele>
        <time>2020-08-13T12:13:32.909Z</time>
      </trkpt>
      <trkpt lat="65.68068" lon="12.41431">
        <ele>56.345868</ele>
        <time>2020-08-13T12:13:34.896Z</time>
      </trkpt>
      <trkpt lat="65.68077" lon="12.41444">
        <ele>56.406152</ele>
        <time>2020-08-13T12:13:36.890Z</time>
      </trkpt>
      <trkpt lat="65.68087" lon="12.4146">
        <ele>56.40375</ele>
        <time>2020-08-13T12:13:38.898Z</time>
      </trkpt>
      <trkpt lat="65.68097" lon="12.41475">
        <ele>56.401281</ele>
        <time>2020-08-13T12:13:40.903Z</time>
      </trkpt>
      <trkpt lat="65.68107" lon="12.4149">
        <ele>56.398758</ele>
        <time>2020-08-13T12:13:42.941Z</time>
      </trkpt>
      <trkpt lat="65.68118" lon="12.41506">
        <ele>56.396231</ele>
        <time>2020-08-13T12:13:44.916Z</time>
      </trkpt>
      <trkpt lat="65.68128" lon="12.4152">
        <ele>56.393753</ele>
        <time>2020-08-13T12:13:46.907Z</time>
      </trkpt>
      <trkpt lat="65.68138" lon="12.41535">
        <ele>56.391346</ele>
        <time>2020-08-13T12:13:48.924Z</time>
      </trkpt>
      <trkpt lat="65.68148" lon="12.41548">
        <ele>56.389023</ele>
        <time>2020-08-13T12:13:50.947Z</time>
      </trkpt>
      <trkpt lat="65.68157" lon="12.41562">
        <ele>56.386798</ele>
        <time>2020-08-13T12:13:52.924Z</time>
      </trkpt>
      <trkpt lat="65.68165" lon="12.41576">
        <ele>56.384621</ele>
        <time>2020-08-13T12:13:54.894Z</time>
      </trkpt>
      <trkpt lat="65.68174" lon="12.41589">
        <ele>56.382501</ele>
        <time>2020-08-13T12:13:56.919Z</time>
      </trkpt>
      <trkpt lat="65.68182" lon="12.41602">
        <ele>56.380476</ele>
        <time>2020-08-13T12:13:58.905Z</time>
      </trkpt>
      <trkpt lat="65.6819" lon="12.41615">
        <ele>56.37848</ele>
        <time>2020-08-13T12:14:00.917Z</time>
      </trkpt>
      <trkpt lat="65.68198" lon="12.41628">
        <ele>56.376536</ele>
        <time>2020-08-13T12:14:02.910Z</time>
      </trkpt>
      <trkpt lat="65.68206" lon="12.4164">
        <ele>56.374595</ele>
        <time>2020-08-13T12:14:04.922Z</time>
      </trkpt>
      <trkpt lat="65.68214" lon="12.41651">
        <ele>56.372681</ele>
        <time>2020-08-13T12:14:06.899Z</time>
      </trkpt>
      <trkpt lat="65.68222" lon="12.41662">
        <ele>56.370752</ele>
        <time>2020-08-13T12:14:08.896Z</time>
      </trkpt>
      <trkpt lat="65.6823" lon="12.41673">
        <ele>56.375699</ele>
        <time>2020-08-13T12:14:10.899Z</time>
      </trkpt>
      <trkpt lat="65.68238" lon="12.41684">
        <ele>56.407437</ele>
        <time>2020-08-13T12:14:12.910Z</time>
      </trkpt>
      <trkpt lat="65.68247" lon="12.41694">
        <ele>56.439046</ele>
        <time>2020-08-13T12:14:14.929Z</time>
      </trkpt>
      <trkpt lat="65.68255" lon="12.41706">
        <ele>56.470665</ele>
        <time>2020-08-13T12:14:16.915Z</time>
      </trkpt>
      <trkpt lat="65.68263" lon="12.41716">
        <ele>56.500949</ele>
        <time>2020-08-13T12:14:18.936Z</time>
      </trkpt>
      <trkpt lat="65.68271" lon="12.41726">
        <ele>56.531634</ele>
        <time>2020-08-13T12:14:20.910Z</time>
      </trkpt>
      <trkpt lat="65.68279" lon="12.41736">
        <ele>56.564082</ele>
        <time>2020-08-13T12:14:22.892Z</time>
      </trkpt>
      <trkpt lat="65.68288" lon="12.41745">
        <ele>56.595878</ele>
        <time>2020-08-13T12:14:24.920Z</time>
      </trkpt>
      <trkpt lat="65.68297" lon="12.41753">
        <ele>56.628027</ele>
        <time>2020-08-13T12:14:26.908Z</time>
      </trkpt>
      <trkpt lat="65.68306" lon="12.41762">
        <ele>56.6597</ele>
        <time>2020-08-13T12:14:28.903Z</time>
      </trkpt>
      <trkpt lat="65.68314" lon="12.41771">
        <ele>56.690854</ele>
        <time>2020-08-13T12:14:30.942Z</time>
      </trkpt>
      <trkpt lat="65.68322" lon="12.4178">
        <ele>56.721806</ele>
        <time>2020-08-13T12:14:32.914Z</time>
      </trkpt>
      <trkpt lat="65.68331" lon="12.41787">
        <ele>56.752304</ele>
        <time>2020-08-13T12:14:34.919Z</time>
      </trkpt>
      <trkpt lat="65.6834" lon="12.41794">
        <ele>56.78285</ele>
        <time>2020-08-13T12:14:36.917Z</time>
      </trkpt>
      <trkpt lat="65.68351" lon="12.41804">
        <ele>56.82529</ele>
        <time>2020-08-13T12:14:39.896Z</time>
      </trkpt>
      <trkpt lat="65.68364" lon="12.41813">
        <ele>56.869054</ele>
        <time>2020-08-13T12:14:42.893Z</time>
      </trkpt>
      <trkpt lat="65.68376" lon="12.41824">
        <ele>56.912951</ele>
        <time>2020-08-13T12:14:45.928Z</time>
      </trkpt>
      <trkpt lat="65.68388" lon="12.41835">
        <ele>56.957051</ele>
        <time>2020-08-13T12:14:48.938Z</time>
      </trkpt>
      <trkpt lat="65.68397" lon="12.41844">
        <ele>56.959288</ele>
        <time>2020-08-13T12:14:50.912Z</time>
      </trkpt>
      <trkpt lat="65.68409" lon="12.41856">
        <ele>56.893069</ele>
        <time>2020-08-13T12:14:53.913Z</time>
      </trkpt>
      <trkpt lat="65.68421" lon="12.41869">
        <ele>56.826415</ele>
        <time>2020-08-13T12:14:56.893Z</time>
      </trkpt>
      <trkpt lat="65.6843" lon="12.41877">
        <ele>56.780825</ele>
        <time>2020-08-13T12:14:58.930Z</time>
      </trkpt>
      <trkpt lat="65.68438" lon="12.41885">
        <ele>56.734608</ele>
        <time>2020-08-13T12:15:00.912Z</time>
      </trkpt>
      <trkpt lat="65.68446" lon="12.41895">
        <ele>56.68919</ele>
        <time>2020-08-13T12:15:02.893Z</time>
      </trkpt>
      <trkpt lat="65.68455" lon="12.41904">
        <ele>56.643316</ele>
        <time>2020-08-13T12:15:04.909Z</time>
      </trkpt>
      <trkpt lat="65.68463" lon="12.41913">
        <ele>56.597269</ele>
        <time>2020-08-13T12:15:06.908Z</time>
      </trkpt>
      <trkpt lat="65.68471" lon="12.41924">
        <ele>56.551974</ele>
        <time>2020-08-13T12:15:08.896Z</time>
      </trkpt>
      <trkpt lat="65.68482" lon="12.41939">
        <ele>56.485629</ele>
        <time>2020-08-13T12:15:11.892Z</time>
      </trkpt>
      <trkpt lat="65.68495" lon="12.41955">
        <ele>56.416463</ele>
        <time>2020-08-13T12:15:14.905Z</time>
      </trkpt>
      <trkpt lat="65.68503" lon="12.41967">
        <ele>56.367881</ele>
        <time>2020-08-13T12:15:16.925Z</time>
      </trkpt>
      <trkpt lat="65.68511" lon="12.41979">
        <ele>56.321966</ele>
        <time>2020-08-13T12:15:18.928Z</time>
      </trkpt>
      <trkpt lat="65.68522" lon="12.41997">
        <ele>56.254869</ele>
        <time>2020-08-13T12:15:21.933Z</time>
      </trkpt>
      <trkpt lat="65.68533" lon="12.42014">
        <ele>56.188456</ele>
        <time>2020-08-13T12:15:24.902Z</time>
      </trkpt>
      <trkpt lat="65.68544" lon="12.42031">
        <ele>56.123572</ele>
        <time>2020-08-13T12:15:27.906Z</time>
      </trkpt>
      <trkpt lat="65.68552" lon="12.42043">
        <ele>56.07788</ele>
        <time>2020-08-13T12:15:29.918Z</time>
      </trkpt>
      <trkpt lat="65.68559" lon="12.42055">
        <ele>55.969744</ele>
        <time>2020-08-13T12:15:31.929Z</time>
      </trkpt>
      <trkpt lat="65.68567" lon="12.42066">
        <ele>55.856204</ele>
        <time>2020-08-13T12:15:33.895Z</time>
      </trkpt>
      <trkpt lat="65.68578" lon="12.42082">
        <ele>55.690964</ele>
        <time>2020-08-13T12:15:36.932Z</time>
      </trkpt>
      <trkpt lat="65.6859" lon="12.42099">
        <ele>55.521731</ele>
        <time>2020-08-13T12:15:39.904Z</time>
      </trkpt>
      <trkpt lat="65.68598" lon="12.4211">
        <ele>55.410073</ele>
        <time>2020-08-13T12:15:41.896Z</time>
      </trkpt>
      <trkpt lat="65.68609" lon="12.42128">
        <ele>55.242921</ele>
        <time>2020-08-13T12:15:44.912Z</time>
      </trkpt>
      <trkpt lat="65.6862" lon="12.42145">
        <ele>55.080883</ele>
        <time>2020-08-13T12:15:47.931Z</time>
      </trkpt>
      <trkpt lat="65.68628" lon="12.42155">
        <ele>54.968124</ele>
        <time>2020-08-13T12:15:49.904Z</time>
      </trkpt>
      <trkpt lat="65.68635" lon="12.42167">
        <ele>54.854859</ele>
        <time>2020-08-13T12:15:51.892Z</time>
      </trkpt>
      <trkpt lat="65.68643" lon="12.42179">
        <ele>54.739848</ele>
        <time>2020-08-13T12:15:53.909Z</time>
      </trkpt>
      <trkpt lat="65.68654" lon="12.42197">
        <ele>54.572748</ele>
        <time>2020-08-13T12:15:56.917Z</time>
      </trkpt>
      <trkpt lat="65.68665" lon="12.42214">
        <ele>54.408593</ele>
        <time>2020-08-13T12:15:59.913Z</time>
      </trkpt>
      <trkpt lat="65.68676" lon="12.42231">
        <ele>54.241641</ele>
        <time>2020-08-13T12:16:02.901Z</time>
      </trkpt>
      <trkpt lat="65.68684" lon="12.42244">
        <ele>54.126631</ele>
        <time>2020-08-13T12:16:04.896Z</time>
      </trkpt>
      <trkpt lat="65.68691" lon="12.42258">
        <ele>54.01135</ele>
        <time>2020-08-13T12:16:06.899Z</time>
      </trkpt>
      <trkpt lat="65.68702" lon="12.42275">
        <ele>53.847056</ele>
        <time>2020-08-13T12:16:09.899Z</time>
      </trkpt>
      <trkpt lat="65.68712" lon="12.42293">
        <ele>54.205049</ele>
        <time>2020-08-13T12:16:12.927Z</time>
      </trkpt>
      <trkpt lat="65.68721" lon="12.42312">
        <ele>54.649621</ele>
        <time>2020-08-13T12:16:15.884Z</time>
      </trkpt>
      <trkpt lat="65.68731" lon="12.42328">
        <ele>55.087394</ele>
        <time>2020-08-13T12:16:18.937Z</time>
      </trkpt>
      <trkpt lat="65.68741" lon="12.42346">
        <ele>55.536041</ele>
        <time>2020-08-13T12:16:21.907Z</time>
      </trkpt>
      <trkpt lat="65.6875" lon="12.42362">
        <ele>55.952427</ele>
        <time>2020-08-13T12:16:24.885Z</time>
      </trkpt>
      <trkpt lat="65.68758" lon="12.42378">
        <ele>56.335317</ele>
        <time>2020-08-13T12:16:27.915Z</time>
      </trkpt>
      <trkpt lat="65.68765" lon="12.42393">
        <ele>56.692238</ele>
        <time>2020-08-13T12:16:30.917Z</time>
      </trkpt>
      <trkpt lat="65.68774" lon="12.4241">
        <ele>57.118483</ele>
        <time>2020-08-13T12:16:34.905Z</time>
      </trkpt>
      <trkpt lat="65.68781" lon="12.42425">
        <ele>57.479155</ele>
        <time>2020-08-13T12:16:37.900Z</time>
      </trkpt>
      <trkpt lat="65.6879" lon="12.42443">
        <ele>57.912156</ele>
        <time>2020-08-13T12:16:41.894Z</time>
      </trkpt>
      <trkpt lat="65.688" lon="12.4246">
        <ele>58.340604</ele>
        <time>2020-08-13T12:16:45.920Z</time>
      </trkpt>
      <trkpt lat="65.68808" lon="12.42477">
        <ele>58.763969</ele>
        <time>2020-08-13T12:16:49.898Z</time>
      </trkpt>
      <trkpt lat="65.68818" lon="12.42495">
        <ele>59.204714</ele>
        <time>2020-08-13T12:16:53.914Z</time>
      </trkpt>
      <trkpt lat="65.68827" lon="12.42512">
        <ele>59.629108</ele>
        <time>2020-08-13T12:16:57.917Z</time>
      </trkpt>
      <trkpt lat="65.68837" lon="12.42525">
        <ele>60.059722</ele>
        <time>2020-08-13T12:17:01.954Z</time>
      </trkpt>
      <trkpt lat="65.68847" lon="12.42539">
        <ele>60.481388</ele>
        <time>2020-08-13T12:17:05.896Z</time>
      </trkpt>
      <trkpt lat="65.68858" lon="12.4255">
        <ele>60.657191</ele>
        <time>2020-08-13T12:17:09.906Z</time>
      </trkpt>
      <trkpt lat="65.68867" lon="12.4256">
        <ele>60.777902</ele>
        <time>2020-08-13T12:17:12.937Z</time>
      </trkpt>
      <trkpt lat="65.68875" lon="12.4257">
        <ele>60.893387</ele>
        <time>2020-08-13T12:17:15.916Z</time>
      </trkpt>
      <trkpt lat="65.68883" lon="12.42579">
        <ele>61.007025</ele>
        <time>2020-08-13T12:17:18.913Z</time>
      </trkpt>
      <trkpt lat="65.68893" lon="12.42591">
        <ele>61.155646</ele>
        <time>2020-08-13T12:17:22.920Z</time>
      </trkpt>
      <trkpt lat="65.68904" lon="12.42603">
        <ele>61.305101</ele>
        <time>2020-08-13T12:17:26.889Z</time>
      </trkpt>
      <trkpt lat="65.68914" lon="12.42616">
        <ele>61.452812</ele>
        <time>2020-08-13T12:17:30.912Z</time>
      </trkpt>
      <trkpt lat="65.68923" lon="12.4263">
        <ele>61.587517</ele>
        <time>2020-08-13T12:17:34.918Z</time>
      </trkpt>
      <trkpt lat="65.68932" lon="12.42642">
        <ele>61.717616</ele>
        <time>2020-08-13T12:17:38.916Z</time>
      </trkpt>
      <trkpt lat="65.68942" lon="12.42654">
        <ele>61.859321</ele>
        <time>2020-08-13T12:17:42.894Z</time>
      </trkpt>
      <trkpt lat="65.6895" lon="12.42664">
        <ele>61.973867</ele>
        <time>2020-08-13T12:17:45.905Z</time>
      </trkpt>
      <trkpt lat="65.68959" lon="12.42675">
        <ele>62.095406</ele>
        <time>2020-08-13T12:17:48.905Z</time>
      </trkpt>
      <trkpt lat="65.68967" lon="12.42687">
        <ele>62.219325</ele>
        <time>2020-08-13T12:17:51.900Z</time>
      </trkpt>
      <trkpt lat="65.68976" lon="12.42699">
        <ele>62.345122</ele>
        <time>2020-08-13T12:17:54.907Z</time>
      </trkpt>
      <trkpt lat="65.68984" lon="12.42711">
        <ele>62.468725</ele>
        <time>2020-08-13T12:17:57.902Z</time>
      </trkpt>
      <trkpt lat="65.68992" lon="12.42724">
        <ele>62.592278</ele>
        <time>2020-08-13T12:18:00.938Z</time>
      </trkpt>
      <trkpt lat="65.69001" lon="12.42739">
        <ele>62.726996</ele>
        <time>2020-08-13T12:18:03.910Z</time>
      </trkpt>
      <trkpt lat="65.6901" lon="12.42754">
        <ele>62.840887</ele>
        <time>2020-08-13T12:18:06.896Z</time>
      </trkpt>
      <trkpt lat="65.69018" lon="12.42768">
        <ele>62.928543</ele>
        <time>2020-08-13T12:18:09.911Z</time>
      </trkpt>
      <trkpt lat="65.69025" lon="12.42783">
        <ele>63.017447</ele>
        <time>2020-08-13T12:18:12.897Z</time>
      </trkpt>
      <trkpt lat="65.69032" lon="12.42799">
        <ele>63.102149</ele>
        <time>2020-08-13T12:18:15.927Z</time>
      </trkpt>
      <trkpt lat="65.6904" lon="12.42815">
        <ele>63.190407</ele>
        <time>2020-08-13T12:18:18.919Z</time>
      </trkpt>
      <trkpt lat="65.69047" lon="12.4283">
        <ele>63.276178</ele>
        <time>2020-08-13T12:18:21.915Z</time>
      </trkpt>
      <trkpt lat="65.69054" lon="12.42846">
        <ele>63.363285</ele>
        <time>2020-08-13T12:18:24.909Z</time>
      </trkpt>
      <trkpt lat="65.69062" lon="12.42862">
        <ele>63.451783</ele>
        <time>2020-08-13T12:18:27.907Z</time>
      </trkpt>
      <trkpt lat="65.6907" lon="12.42878">
        <ele>63.542103</ele>
        <time>2020-08-13T12:18:30.938Z</time>
      </trkpt>
      <trkpt lat="65.69078" lon="12.42894">
        <ele>63.636999</ele>
        <time>2020-08-13T12:18:33.904Z</time>
      </trkpt>
      <trkpt lat="65.69086" lon="12.4291">
        <ele>63.733569</ele>
        <time>2020-08-13T12:18:36.916Z</time>
      </trkpt>
      <trkpt lat="65.69095" lon="12.42927">
        <ele>63.830769</ele>
        <time>2020-08-13T12:18:39.912Z</time>
      </trkpt>
      <trkpt lat="65.69104" lon="12.42943">
        <ele>63.932002</ele>
        <time>2020-08-13T12:18:42.922Z</time>
      </trkpt>
      <trkpt lat="65.69114" lon="12.42958">
        <ele>64.031652</ele>
        <time>2020-08-13T12:18:45.908Z</time>
      </trkpt>
      <trkpt lat="65.69124" lon="12.42972">
        <ele>64.135093</ele>
        <time>2020-08-13T12:18:48.907Z</time>
      </trkpt>
      <trkpt lat="65.69135" lon="12.42984">
        <ele>64.242252</ele>
        <time>2020-08-13T12:18:51.913Z</time>
      </trkpt>
      <trkpt lat="65.69147" lon="12.42996">
        <ele>64.357897</ele>
        <time>2020-08-13T12:18:54.914Z</time>
      </trkpt>
      <trkpt lat="65.69155" lon="12.43005">
        <ele>64.350274</ele>
        <time>2020-08-13T12:18:56.911Z</time>
      </trkpt>
      <trkpt lat="65.69164" lon="12.43014">
        <ele>64.260839</ele>
        <time>2020-08-13T12:18:58.932Z</time>
      </trkpt>
      <trkpt lat="65.69174" lon="12.43023">
        <ele>64.163681</ele>
        <time>2020-08-13T12:19:00.898Z</time>
      </trkpt>
      <trkpt lat="65.69185" lon="12.43032">
        <ele>64.059959</ele>
        <time>2020-08-13T12:19:02.912Z</time>
      </trkpt>
      <trkpt lat="65.69196" lon="12.43042">
        <ele>63.952318</ele>
        <time>2020-08-13T12:19:04.908Z</time>
      </trkpt>
      <trkpt lat="65.69208" lon="12.43052">
        <ele>63.844636</ele>
        <time>2020-08-13T12:19:06.899Z</time>
      </trkpt>
      <trkpt lat="65.69219" lon="12.43063">
        <ele>63.733614</ele>
        <time>2020-08-13T12:19:08.931Z</time>
      </trkpt>
      <trkpt lat="65.6923" lon="12.43074">
        <ele>63.623433</ele>
        <time>2020-08-13T12:19:10.910Z</time>
      </trkpt>
      <trkpt lat="65.69241" lon="12.43084">
        <ele>63.520255</ele>
        <time>2020-08-13T12:19:12.898Z</time>
      </trkpt>
      <trkpt lat="65.69251" lon="12.43095">
        <ele>63.416648</ele>
        <time>2020-08-13T12:19:14.894Z</time>
      </trkpt>
      <trkpt lat="65.69262" lon="12.43106">
        <ele>63.31206</ele>
        <time>2020-08-13T12:19:16.920Z</time>
      </trkpt>
      <trkpt lat="65.69272" lon="12.43116">
        <ele>63.210434</ele>
        <time>2020-08-13T12:19:18.931Z</time>
      </trkpt>
      <trkpt lat="65.69283" lon="12.43126">
        <ele>63.109486</ele>
        <time>2020-08-13T12:19:20.926Z</time>
      </trkpt>
      <trkpt lat="65.69293" lon="12.43136">
        <ele>63.008979</ele>
        <time>2020-08-13T12:19:22.895Z</time>
      </trkpt>
      <trkpt lat="65.69303" lon="12.43145">
        <ele>62.913067</ele>
        <time>2020-08-13T12:19:24.903Z</time>
      </trkpt>
      <trkpt lat="65.69313" lon="12.43154">
        <ele>62.811852</ele>
        <time>2020-08-13T12:19:26.909Z</time>
      </trkpt>
      <trkpt lat="65.69323" lon="12.43164">
        <ele>62.708772</ele>
        <time>2020-08-13T12:19:28.896Z</time>
      </trkpt>
      <trkpt lat="65.69333" lon="12.43174">
        <ele>62.595589</ele>
        <time>2020-08-13T12:19:30.951Z</time>
      </trkpt>
      <trkpt lat="65.69343" lon="12.43183">
        <ele>62.486601</ele>
        <time>2020-08-13T12:19:32.918Z</time>
      </trkpt>
      <trkpt lat="65.69353" lon="12.43192">
        <ele>62.376631</ele>
        <time>2020-08-13T12:19:34.900Z</time>
      </trkpt>
      <trkpt lat="65.69363" lon="12.43201">
        <ele>62.264545</ele>
        <time>2020-08-13T12:19:36.911Z</time>
      </trkpt>
      <trkpt lat="65.69372" lon="12.4321">
        <ele>62.154421</ele>
        <time>2020-08-13T12:19:38.904Z</time>
      </trkpt>
      <trkpt lat="65.69382" lon="12.43219">
        <ele>62.048369</ele>
        <time>2020-08-13T12:19:40.962Z</time>
      </trkpt>
      <trkpt lat="65.69391" lon="12.43227">
        <ele>61.946341</ele>
        <time>2020-08-13T12:19:42.943Z</time>
      </trkpt>
      <trkpt lat="65.694" lon="12.43236">
        <ele>61.845153</ele>
        <time>2020-08-13T12:19:44.913Z</time>
      </trkpt>
      <trkpt lat="65.69409" lon="12.43246">
        <ele>61.737268</ele>
        <time>2020-08-13T12:19:46.927Z</time>
      </trkpt>
      <trkpt lat="65.69419" lon="12.43256">
        <ele>61.62522</ele>
        <time>2020-08-13T12:19:48.912Z</time>
      </trkpt>
      <trkpt lat="65.6943" lon="12.43265">
        <ele>61.506778</ele>
        <time>2020-08-13T12:19:50.921Z</time>
      </trkpt>
      <trkpt lat="65.69441" lon="12.43275">
        <ele>61.384632</ele>
        <time>2020-08-13T12:19:52.917Z</time>
      </trkpt>
      <trkpt lat="65.69451" lon="12.43286">
        <ele>61.260743</ele>
        <time>2020-08-13T12:19:54.969Z</time>
      </trkpt>
      <trkpt lat="65.69463" lon="12.43297">
        <ele>61.134749</ele>
        <time>2020-08-13T12:19:56.928Z</time>
      </trkpt>
      <trkpt lat="65.69474" lon="12.43309">
        <ele>61.002108</ele>
        <time>2020-08-13T12:19:58.926Z</time>
      </trkpt>
      <trkpt lat="65.69486" lon="12.4332">
        <ele>60.827158</ele>
        <time>2020-08-13T12:20:00.906Z</time>
      </trkpt>
      <trkpt lat="65.69498" lon="12.43332">
        <ele>60.103131</ele>
        <time>2020-08-13T12:20:02.897Z</time>
      </trkpt>
      <trkpt lat="65.6951" lon="12.43344">
        <ele>59.363434</ele>
        <time>2020-08-13T12:20:04.935Z</time>
      </trkpt>
      <trkpt lat="65.69523" lon="12.43355">
        <ele>58.609612</ele>
        <time>2020-08-13T12:20:06.915Z</time>
      </trkpt>
      <trkpt lat="65.69536" lon="12.43367">
        <ele>57.808863</ele>
        <time>2020-08-13T12:20:08.900Z</time>
      </trkpt>
      <trkpt lat="65.6955" lon="12.43379">
        <ele>56.990714</ele>
        <time>2020-08-13T12:20:10.928Z</time>
      </trkpt>
      <trkpt lat="65.69564" lon="12.43392">
        <ele>56.149097</ele>
        <time>2020-08-13T12:20:12.903Z</time>
      </trkpt>
      <trkpt lat="65.69579" lon="12.43408">
        <ele>55.257481</ele>
        <time>2020-08-13T12:20:14.917Z</time>
      </trkpt>
      <trkpt lat="65.69592" lon="12.43424">
        <ele>54.402242</ele>
        <time>2020-08-13T12:20:16.906Z</time>
      </trkpt>
      <trkpt lat="65.69607" lon="12.43441">
        <ele>53.506498</ele>
        <time>2020-08-13T12:20:18.923Z</time>
      </trkpt>
      <trkpt lat="65.69621" lon="12.43461">
        <ele>52.563759</ele>
        <time>2020-08-13T12:20:20.908Z</time>
      </trkpt>
      <trkpt lat="65.69637" lon="12.43482">
        <ele>51.570602</ele>
        <time>2020-08-13T12:20:22.900Z</time>
      </trkpt>
      <trkpt lat="65.69652" lon="12.43506">
        <ele>50.604076</ele>
        <time>2020-08-13T12:20:24.900Z</time>
      </trkpt>
      <trkpt lat="65.6966" lon="12.43518">
        <ele>50.191287</ele>
        <time>2020-08-13T12:20:25.919Z</time>
      </trkpt>
      <trkpt lat="65.69667" lon="12.43531">
        <ele>49.778163</ele>
        <time>2020-08-13T12:20:26.915Z</time>
      </trkpt>
      <trkpt lat="65.69675" lon="12.43543">
        <ele>49.36233</ele>
        <time>2020-08-13T12:20:27.915Z</time>
      </trkpt>
      <trkpt lat="65.69682" lon="12.43555">
        <ele>48.955011</ele>
        <time>2020-08-13T12:20:28.904Z</time>
      </trkpt>
      <trkpt lat="65.6969" lon="12.43568">
        <ele>48.545608</ele>
        <time>2020-08-13T12:20:29.911Z</time>
      </trkpt>
      <trkpt lat="65.69697" lon="12.4358">
        <ele>48.137606</ele>
        <time>2020-08-13T12:20:30.925Z</time>
      </trkpt>
      <trkpt lat="65.69705" lon="12.43592">
        <ele>47.729604</ele>
        <time>2020-08-13T12:20:31.909Z</time>
      </trkpt>
      <trkpt lat="65.69713" lon="12.43604">
        <ele>47.321603</ele>
        <time>2020-08-13T12:20:32.905Z</time>
      </trkpt>
      <trkpt lat="65.6972" lon="12.43616">
        <ele>46.915609</ele>
        <time>2020-08-13T12:20:33.912Z</time>
      </trkpt>
      <trkpt lat="65.69735" lon="12.4364">
        <ele>46.112583</ele>
        <time>2020-08-13T12:20:35.918Z</time>
      </trkpt>
      <trkpt lat="65.6975" lon="12.43664">
        <ele>45.320131</ele>
        <time>2020-08-13T12:20:37.908Z</time>
      </trkpt>
      <trkpt lat="65.69764" lon="12.43686">
        <ele>44.540096</ele>
        <time>2020-08-13T12:20:39.956Z</time>
      </trkpt>
      <trkpt lat="65.69779" lon="12.43708">
        <ele>43.766634</ele>
        <time>2020-08-13T12:20:41.929Z</time>
      </trkpt>
      <trkpt lat="65.69793" lon="12.43728">
        <ele>43.011473</ele>
        <time>2020-08-13T12:20:43.911Z</time>
      </trkpt>
      <trkpt lat="65.69808" lon="12.43749">
        <ele>42.546881</ele>
        <time>2020-08-13T12:20:45.893Z</time>
      </trkpt>
      <trkpt lat="65.69822" lon="12.43768">
        <ele>42.30023</ele>
        <time>2020-08-13T12:20:47.895Z</time>
      </trkpt>
      <trkpt lat="65.69837" lon="12.43787">
        <ele>42.052556</ele>
        <time>2020-08-13T12:20:49.899Z</time>
      </trkpt>
      <trkpt lat="65.69852" lon="12.43807">
        <ele>41.803987</ele>
        <time>2020-08-13T12:20:51.898Z</time>
      </trkpt>
      <trkpt lat="65.69866" lon="12.43827">
        <ele>41.553528</ele>
        <time>2020-08-13T12:20:53.912Z</time>
      </trkpt>
      <trkpt lat="65.69881" lon="12.43847">
        <ele>41.307842</ele>
        <time>2020-08-13T12:20:55.893Z</time>
      </trkpt>
      <trkpt lat="65.69895" lon="12.43867">
        <ele>41.070781</ele>
        <time>2020-08-13T12:20:57.889Z</time>
      </trkpt>
      <trkpt lat="65.69908" lon="12.43886">
        <ele>40.844833</ele>
        <time>2020-08-13T12:20:59.918Z</time>
      </trkpt>
      <trkpt lat="65.6992" lon="12.43905">
        <ele>40.627356</ele>
        <time>2020-08-13T12:21:01.903Z</time>
      </trkpt>
      <trkpt lat="65.69931" lon="12.43923">
        <ele>40.425059</ele>
        <time>2020-08-13T12:21:03.893Z</time>
      </trkpt>
      <trkpt lat="65.69942" lon="12.43941">
        <ele>40.238141</ele>
        <time>2020-08-13T12:21:05.918Z</time>
      </trkpt>
      <trkpt lat="65.69951" lon="12.43957">
        <ele>40.066715</ele>
        <time>2020-08-13T12:21:07.911Z</time>
      </trkpt>
      <trkpt lat="65.6996" lon="12.43973">
        <ele>40.223074</ele>
        <time>2020-08-13T12:21:09.930Z</time>
      </trkpt>
      <trkpt lat="65.69968" lon="12.43988">
        <ele>40.496258</ele>
        <time>2020-08-13T12:21:11.900Z</time>
      </trkpt>
      <trkpt lat="65.69976" lon="12.44001">
        <ele>40.745756</ele>
        <time>2020-08-13T12:21:13.905Z</time>
      </trkpt>
      <trkpt lat="65.69986" lon="12.44022">
        <ele>41.102811</ele>
        <time>2020-08-13T12:21:16.918Z</time>
      </trkpt>
      <trkpt lat="65.69994" lon="12.44034">
        <ele>41.343718</ele>
        <time>2020-08-13T12:21:18.919Z</time>
      </trkpt>
      <trkpt lat="65.70003" lon="12.44052">
        <ele>41.667129</ele>
        <time>2020-08-13T12:21:21.913Z</time>
      </trkpt>
      <trkpt lat="65.70013" lon="12.44071">
        <ele>42.005565</ele>
        <time>2020-08-13T12:21:24.919Z</time>
      </trkpt>
      <trkpt lat="65.70023" lon="12.4409">
        <ele>42.345356</ele>
        <time>2020-08-13T12:21:27.900Z</time>
      </trkpt>
      <trkpt lat="65.70033" lon="12.4411">
        <ele>42.689395</ele>
        <time>2020-08-13T12:21:30.935Z</time>
      </trkpt>
      <trkpt lat="65.70043" lon="12.44131">
        <ele>43.045112</ele>
        <time>2020-08-13T12:21:33.910Z</time>
      </trkpt>
      <trkpt lat="65.70054" lon="12.44149">
        <ele>43.387705</ele>
        <time>2020-08-13T12:21:36.898Z</time>
      </trkpt>
      <trkpt lat="65.70064" lon="12.44167">
        <ele>43.71498</ele>
        <time>2020-08-13T12:21:39.898Z</time>
      </trkpt>
      <trkpt lat="65.70075" lon="12.44183">
        <ele>44.052385</ele>
        <time>2020-08-13T12:21:42.906Z</time>
      </trkpt>
      <trkpt lat="65.70085" lon="12.44201">
        <ele>44.396054</ele>
        <time>2020-08-13T12:21:45.925Z</time>
      </trkpt>
      <trkpt lat="65.70096" lon="12.44214">
        <ele>44.71328</ele>
        <time>2020-08-13T12:21:48.948Z</time>
      </trkpt>
      <trkpt lat="65.70106" lon="12.44225">
        <ele>44.942367</ele>
        <time>2020-08-13T12:21:51.899Z</time>
      </trkpt>
      <trkpt lat="65.70116" lon="12.44232">
        <ele>45.141609</ele>
        <time>2020-08-13T12:21:54.935Z</time>
      </trkpt>
      <trkpt lat="65.70128" lon="12.44235">
        <ele>45.349284</ele>
        <time>2020-08-13T12:21:57.903Z</time>
      </trkpt>
      <trkpt lat="65.70137" lon="12.44238">
        <ele>45.529765</ele>
        <time>2020-08-13T12:22:00.931Z</time>
      </trkpt>
      <trkpt lat="65.70147" lon="12.44246">
        <ele>45.714622</ele>
        <time>2020-08-13T12:22:04.917Z</time>
      </trkpt>
      <trkpt lat="65.70157" lon="12.44251">
        <ele>45.895866</ele>
        <time>2020-08-13T12:22:08.907Z</time>
      </trkpt>
      <trkpt lat="65.70167" lon="12.4425">
        <ele>46.087767</ele>
        <time>2020-08-13T12:22:13.895Z</time>
      </trkpt>
      <trkpt lat="65.70157" lon="12.4425">
        <ele>46.26859</ele>
        <time>2020-08-13T12:22:31.894Z</time>
      </trkpt>
      <trkpt lat="65.70158" lon="12.44224">
        <ele>46.466018</ele>
        <time>2020-08-13T12:26:01.912Z</time>
      </trkpt>
      <trkpt lat="65.70152" lon="12.44205">
        <ele>46.647684</ele>
        <time>2020-08-13T12:35:00.924Z</time>
      </trkpt>
      <trkpt lat="65.70157" lon="12.44223">
        <ele>46.812663</ele>
        <time>2020-08-13T12:47:11.445Z</time>
      </trkpt>
      <trkpt lat="65.70167" lon="12.44243">
        <ele>47.054867</ele>
        <time>2020-08-13T12:57:12.456Z</time>
      </trkpt>
      <trkpt lat="65.70174" lon="12.44259">
        <ele>47.224104</ele>
        <time>2020-08-13T12:57:17.453Z</time>
      </trkpt>
      <trkpt lat="65.70174" lon="12.44282">
        <ele>47.397029</ele>
        <time>2020-08-13T12:57:25.482Z</time>
      </trkpt>
      <trkpt lat="65.70171" lon="12.44311">
        <ele>47.621204</ele>
        <time>2020-08-13T12:57:29.478Z</time>
      </trkpt>
      <trkpt lat="65.70177" lon="12.44328">
        <ele>47.79827</ele>
        <time>2020-08-13T12:57:33.484Z</time>
      </trkpt>
      <trkpt lat="65.70185" lon="12.44341">
        <ele>47.97196</ele>
        <time>2020-08-13T12:57:37.450Z</time>
      </trkpt>
      <trkpt lat="65.70194" lon="12.44353">
        <ele>48.198064</ele>
        <time>2020-08-13T12:57:42.461Z</time>
      </trkpt>
      <trkpt lat="65.70204" lon="12.44368">
        <ele>48.515511</ele>
        <time>2020-08-13T12:57:47.474Z</time>
      </trkpt>
      <trkpt lat="65.70213" lon="12.44381">
        <ele>48.832376</ele>
        <time>2020-08-13T12:57:52.469Z</time>
      </trkpt>
      <trkpt lat="65.70222" lon="12.44395">
        <ele>49.126009</ele>
        <time>2020-08-13T12:57:56.448Z</time>
      </trkpt>
      <trkpt lat="65.70232" lon="12.44405">
        <ele>49.425639</ele>
        <time>2020-08-13T12:58:00.461Z</time>
      </trkpt>
      <trkpt lat="65.70241" lon="12.44414">
        <ele>49.722264</ele>
        <time>2020-08-13T12:58:04.457Z</time>
      </trkpt>
      <trkpt lat="65.70252" lon="12.44429">
        <ele>50.065387</ele>
        <time>2020-08-13T12:58:08.460Z</time>
      </trkpt>
      <trkpt lat="65.7026" lon="12.44442">
        <ele>50.357237</ele>
        <time>2020-08-13T12:58:11.458Z</time>
      </trkpt>
      <trkpt lat="65.70269" lon="12.44457">
        <ele>50.667465</ele>
        <time>2020-08-13T12:58:14.453Z</time>
      </trkpt>
      <trkpt lat="65.7028" lon="12.44471">
        <ele>51.012123</ele>
        <time>2020-08-13T12:58:17.468Z</time>
      </trkpt>
      <trkpt lat="65.70291" lon="12.44489">
        <ele>51.39664</ele>
        <time>2020-08-13T12:58:20.469Z</time>
      </trkpt>
      <trkpt lat="65.70299" lon="12.44503">
        <ele>51.67759</ele>
        <time>2020-08-13T12:58:22.451Z</time>
      </trkpt>
      <trkpt lat="65.70308" lon="12.44517">
        <ele>51.972479</ele>
        <time>2020-08-13T12:58:24.482Z</time>
      </trkpt>
      <trkpt lat="65.70316" lon="12.44531">
        <ele>52.273529</ele>
        <time>2020-08-13T12:58:26.466Z</time>
      </trkpt>
      <trkpt lat="65.70324" lon="12.44551">
        <ele>52.583632</ele>
        <time>2020-08-13T12:58:28.468Z</time>
      </trkpt>
      <trkpt lat="65.70331" lon="12.44571">
        <ele>52.896147</ele>
        <time>2020-08-13T12:58:30.445Z</time>
      </trkpt>
      <trkpt lat="65.7034" lon="12.44588">
        <ele>53.217287</ele>
        <time>2020-08-13T12:58:32.456Z</time>
      </trkpt>
      <trkpt lat="65.70349" lon="12.44604">
        <ele>52.889241</ele>
        <time>2020-08-13T12:58:34.454Z</time>
      </trkpt>
      <trkpt lat="65.70358" lon="12.44621">
        <ele>52.516707</ele>
        <time>2020-08-13T12:58:36.445Z</time>
      </trkpt>
      <trkpt lat="65.70367" lon="12.4464">
        <ele>52.138794</ele>
        <time>2020-08-13T12:58:38.450Z</time>
      </trkpt>
      <trkpt lat="65.70376" lon="12.44661">
        <ele>51.748734</ele>
        <time>2020-08-13T12:58:40.459Z</time>
      </trkpt>
      <trkpt lat="65.70385" lon="12.4468">
        <ele>51.3566</ele>
        <time>2020-08-13T12:58:42.474Z</time>
      </trkpt>
      <trkpt lat="65.70394" lon="12.44699">
        <ele>50.974006</ele>
        <time>2020-08-13T12:58:44.442Z</time>
      </trkpt>
      <trkpt lat="65.70403" lon="12.44719">
        <ele>50.584506</ele>
        <time>2020-08-13T12:58:46.455Z</time>
      </trkpt>
      <trkpt lat="65.70412" lon="12.44739">
        <ele>50.191323</ele>
        <time>2020-08-13T12:58:48.467Z</time>
      </trkpt>
      <trkpt lat="65.70421" lon="12.4476">
        <ele>49.797116</ele>
        <time>2020-08-13T12:58:50.457Z</time>
      </trkpt>
      <trkpt lat="65.70431" lon="12.44778">
        <ele>49.403776</ele>
        <time>2020-08-13T12:58:52.463Z</time>
      </trkpt>
      <trkpt lat="65.70441" lon="12.44797">
        <ele>48.992918</ele>
        <time>2020-08-13T12:58:54.458Z</time>
      </trkpt>
      <trkpt lat="65.7045" lon="12.44819">
        <ele>48.577061</ele>
        <time>2020-08-13T12:58:56.461Z</time>
      </trkpt>
      <trkpt lat="65.70459" lon="12.4484">
        <ele>48.172832</ele>
        <time>2020-08-13T12:58:58.463Z</time>
      </trkpt>
      <trkpt lat="65.70468" lon="12.4486">
        <ele>47.782399</ele>
        <time>2020-08-13T12:59:00.450Z</time>
      </trkpt>
      <trkpt lat="65.70477" lon="12.4488">
        <ele>47.431069</ele>
        <time>2020-08-13T12:59:02.450Z</time>
      </trkpt>
      <trkpt lat="65.70486" lon="12.44899">
        <ele>47.264993</ele>
        <time>2020-08-13T12:59:04.462Z</time>
      </trkpt>
      <trkpt lat="65.70495" lon="12.44917">
        <ele>47.102927</ele>
        <time>2020-08-13T12:59:06.460Z</time>
      </trkpt>
      <trkpt lat="65.70504" lon="12.44935">
        <ele>46.944446</ele>
        <time>2020-08-13T12:59:08.450Z</time>
      </trkpt>
      <trkpt lat="65.70513" lon="12.44952">
        <ele>46.788126</ele>
        <time>2020-08-13T12:59:10.456Z</time>
      </trkpt>
      <trkpt lat="65.70521" lon="12.44968">
        <ele>46.637907</ele>
        <time>2020-08-13T12:59:12.444Z</time>
      </trkpt>
      <trkpt lat="65.70529" lon="12.44985">
        <ele>46.490847</ele>
        <time>2020-08-13T12:59:14.452Z</time>
      </trkpt>
      <trkpt lat="65.70537" lon="12.45002">
        <ele>46.344161</ele>
        <time>2020-08-13T12:59:16.446Z</time>
      </trkpt>
      <trkpt lat="65.70545" lon="12.45018">
        <ele>46.202181</ele>
        <time>2020-08-13T12:59:18.450Z</time>
      </trkpt>
      <trkpt lat="65.70553" lon="12.45034">
        <ele>46.059508</ele>
        <time>2020-08-13T12:59:20.442Z</time>
      </trkpt>
      <trkpt lat="65.70561" lon="12.4505">
        <ele>45.916469</ele>
        <time>2020-08-13T12:59:22.458Z</time>
      </trkpt>
      <trkpt lat="65.70569" lon="12.45066">
        <ele>45.77309</ele>
        <time>2020-08-13T12:59:24.448Z</time>
      </trkpt>
      <trkpt lat="65.70577" lon="12.45082">
        <ele>45.628275</ele>
        <time>2020-08-13T12:59:26.473Z</time>
      </trkpt>
      <trkpt lat="65.70585" lon="12.45097">
        <ele>45.491005</ele>
        <time>2020-08-13T12:59:28.455Z</time>
      </trkpt>
      <trkpt lat="65.70592" lon="12.45112">
        <ele>45.354814</ele>
        <time>2020-08-13T12:59:30.450Z</time>
      </trkpt>
      <trkpt lat="65.706" lon="12.45128">
        <ele>45.215748</ele>
        <time>2020-08-13T12:59:32.456Z</time>
      </trkpt>
      <trkpt lat="65.70608" lon="12.45144">
        <ele>45.07237</ele>
        <time>2020-08-13T12:59:34.447Z</time>
      </trkpt>
      <trkpt lat="65.70616" lon="12.45158">
        <ele>45.010808</ele>
        <time>2020-08-13T12:59:36.454Z</time>
      </trkpt>
      <trkpt lat="65.70624" lon="12.45172">
        <ele>45.210498</ele>
        <time>2020-08-13T12:59:38.446Z</time>
      </trkpt>
      <trkpt lat="65.70633" lon="12.45186">
        <ele>45.4109</ele>
        <time>2020-08-13T12:59:40.451Z</time>
      </trkpt>
      <trkpt lat="65.70641" lon="12.452">
        <ele>45.612943</ele>
        <time>2020-08-13T12:59:42.451Z</time>
      </trkpt>
      <trkpt lat="65.70649" lon="12.45215">
        <ele>45.807039</ele>
        <time>2020-08-13T12:59:44.437Z</time>
      </trkpt>
      <trkpt lat="65.70657" lon="12.45229">
        <ele>46.002627</ele>
        <time>2020-08-13T12:59:46.455Z</time>
      </trkpt>
      <trkpt lat="65.70665" lon="12.45243">
        <ele>46.19304</ele>
        <time>2020-08-13T12:59:48.469Z</time>
      </trkpt>
      <trkpt lat="65.70673" lon="12.45256">
        <ele>46.388091</ele>
        <time>2020-08-13T12:59:50.444Z</time>
      </trkpt>
      <trkpt lat="65.70681" lon="12.45272">
        <ele>46.591924</ele>
        <time>2020-08-13T12:59:52.447Z</time>
      </trkpt>
      <trkpt lat="65.70689" lon="12.45286">
        <ele>46.787908</ele>
        <time>2020-08-13T12:59:54.434Z</time>
      </trkpt>
      <trkpt lat="65.70697" lon="12.45298">
        <ele>46.972043</ele>
        <time>2020-08-13T12:59:56.454Z</time>
      </trkpt>
      <trkpt lat="65.70707" lon="12.45314">
        <ele>47.218864</ele>
        <time>2020-08-13T12:59:59.463Z</time>
      </trkpt>
      <trkpt lat="65.70716" lon="12.45329">
        <ele>47.429002</ele>
        <time>2020-08-13T13:00:02.449Z</time>
      </trkpt>
      <trkpt lat="65.70725" lon="12.45345">
        <ele>47.64415</ele>
        <time>2020-08-13T13:00:05.450Z</time>
      </trkpt>
      <trkpt lat="65.70733" lon="12.45362">
        <ele>47.850142</ele>
        <time>2020-08-13T13:00:08.462Z</time>
      </trkpt>
      <trkpt lat="65.70741" lon="12.45376">
        <ele>48.048497</ele>
        <time>2020-08-13T13:00:11.463Z</time>
      </trkpt>
      <trkpt lat="65.70749" lon="12.45389">
        <ele>48.243801</ele>
        <time>2020-08-13T13:00:14.441Z</time>
      </trkpt>
      <trkpt lat="65.70756" lon="12.45403">
        <ele>48.428266</ele>
        <time>2020-08-13T13:00:17.451Z</time>
      </trkpt>
      <trkpt lat="65.70764" lon="12.45414">
        <ele>48.631194</ele>
        <time>2020-08-13T13:00:20.458Z</time>
      </trkpt>
      <trkpt lat="65.70772" lon="12.45426">
        <ele>48.849956</ele>
        <time>2020-08-13T13:00:23.459Z</time>
      </trkpt>
      <trkpt lat="65.70781" lon="12.45441">
        <ele>49.127437</ele>
        <time>2020-08-13T13:00:27.444Z</time>
      </trkpt>
      <trkpt lat="65.70791" lon="12.45456">
        <ele>49.394365</ele>
        <time>2020-08-13T13:00:31.477Z</time>
      </trkpt>
      <trkpt lat="65.70798" lon="12.45469">
        <ele>49.616047</ele>
        <time>2020-08-13T13:00:34.445Z</time>
      </trkpt>
      <trkpt lat="65.70806" lon="12.45483">
        <ele>49.864132</ele>
        <time>2020-08-13T13:00:37.455Z</time>
      </trkpt>
      <trkpt lat="65.70814" lon="12.45497">
        <ele>50.099761</ele>
        <time>2020-08-13T13:00:40.431Z</time>
      </trkpt>
      <trkpt lat="65.70821" lon="12.45512">
        <ele>50.326481</ele>
        <time>2020-08-13T13:00:43.461Z</time>
      </trkpt>
      <trkpt lat="65.70828" lon="12.45526">
        <ele>50.553787</ele>
        <time>2020-08-13T13:00:46.458Z</time>
      </trkpt>
      <trkpt lat="65.70836" lon="12.45539">
        <ele>50.788946</ele>
        <time>2020-08-13T13:00:49.452Z</time>
      </trkpt>
      <trkpt lat="65.70845" lon="12.45554">
        <ele>51.041088</ele>
        <time>2020-08-13T13:00:52.449Z</time>
      </trkpt>
      <trkpt lat="65.70854" lon="12.45568">
        <ele>51.313501</ele>
        <time>2020-08-13T13:00:55.461Z</time>
      </trkpt>
      <trkpt lat="65.70865" lon="12.45581">
        <ele>51.608684</ele>
        <time>2020-08-13T13:00:58.448Z</time>
      </trkpt>
      <trkpt lat="65.70877" lon="12.45595">
        <ele>51.922689</ele>
        <time>2020-08-13T13:01:01.447Z</time>
      </trkpt>
      <trkpt lat="65.70888" lon="12.45608">
        <ele>52.228356</ele>
        <time>2020-08-13T13:01:04.489Z</time>
      </trkpt>
      <trkpt lat="65.70899" lon="12.45621">
        <ele>52.534494</ele>
        <time>2020-08-13T13:01:07.456Z</time>
      </trkpt>
      <trkpt lat="65.70911" lon="12.45634">
        <ele>52.847286</ele>
        <time>2020-08-13T13:01:10.447Z</time>
      </trkpt>
      <trkpt lat="65.70922" lon="12.45646">
        <ele>52.736453</ele>
        <time>2020-08-13T13:01:13.459Z</time>
      </trkpt>
      <trkpt lat="65.70934" lon="12.45658">
        <ele>52.521335</ele>
        <time>2020-08-13T13:01:16.448Z</time>
      </trkpt>
      <trkpt lat="65.70947" lon="12.45667">
        <ele>52.299548</ele>
        <time>2020-08-13T13:01:19.455Z</time>
      </trkpt>
      <trkpt lat="65.70955" lon="12.45673">
        <ele>52.144352</ele>
        <time>2020-08-13T13:01:21.454Z</time>
      </trkpt>
      <trkpt lat="65.70964" lon="12.45678">
        <ele>51.99294</ele>
        <time>2020-08-13T13:01:23.467Z</time>
      </trkpt>
      <trkpt lat="65.70977" lon="12.45686">
        <ele>51.770975</ele>
        <time>2020-08-13T13:01:26.489Z</time>
      </trkpt>
      <trkpt lat="65.7099" lon="12.45694">
        <ele>51.548658</ele>
        <time>2020-08-13T13:01:29.456Z</time>
      </trkpt>
      <trkpt lat="65.70998" lon="12.457">
        <ele>51.395656</ele>
        <time>2020-08-13T13:01:31.449Z</time>
      </trkpt>
      <trkpt lat="65.71011" lon="12.45709">
        <ele>51.173857</ele>
        <time>2020-08-13T13:01:34.445Z</time>
      </trkpt>
      <trkpt lat="65.71023" lon="12.45716">
        <ele>50.959311</ele>
        <time>2020-08-13T13:01:37.501Z</time>
      </trkpt>
      <trkpt lat="65.71032" lon="12.45722">
        <ele>50.807899</ele>
        <time>2020-08-13T13:01:39.452Z</time>
      </trkpt>
      <trkpt lat="65.71044" lon="12.45728">
        <ele>50.591484</ele>
        <time>2020-08-13T13:01:42.476Z</time>
      </trkpt>
      <trkpt lat="65.71055" lon="12.45735">
        <ele>50.402557</ele>
        <time>2020-08-13T13:01:45.464Z</time>
      </trkpt>
      <trkpt lat="65.71065" lon="12.45748">
        <ele>50.212519</ele>
        <time>2020-08-13T13:01:49.457Z</time>
      </trkpt>
      <trkpt lat="65.71075" lon="12.45755">
        <ele>50.030607</ele>
        <time>2020-08-13T13:01:53.471Z</time>
      </trkpt>
      <trkpt lat="65.71085" lon="12.45763">
        <ele>49.859211</ele>
        <time>2020-08-13T13:01:56.447Z</time>
      </trkpt>
      <trkpt lat="65.71095" lon="12.45775">
        <ele>49.693202</ele>
        <time>2020-08-13T13:01:59.446Z</time>
      </trkpt>
      <trkpt lat="65.71104" lon="12.45787">
        <ele>49.524952</ele>
        <time>2020-08-13T13:02:02.454Z</time>
      </trkpt>
      <trkpt lat="65.71115" lon="12.45799">
        <ele>49.341285</ele>
        <time>2020-08-13T13:02:05.462Z</time>
      </trkpt>
      <trkpt lat="65.71127" lon="12.45812">
        <ele>49.136082</ele>
        <time>2020-08-13T13:02:08.463Z</time>
      </trkpt>
      <trkpt lat="65.71136" lon="12.45821">
        <ele>48.986726</ele>
        <time>2020-08-13T13:02:10.441Z</time>
      </trkpt>
      <trkpt lat="65.71145" lon="12.45831">
        <ele>48.829613</ele>
        <time>2020-08-13T13:02:12.445Z</time>
      </trkpt>
      <trkpt lat="65.71155" lon="12.45842">
        <ele>48.666665</ele>
        <time>2020-08-13T13:02:14.457Z</time>
      </trkpt>
      <trkpt lat="65.71165" lon="12.45853">
        <ele>48.496671</ele>
        <time>2020-08-13T13:02:16.455Z</time>
      </trkpt>
      <trkpt lat="65.71175" lon="12.45864">
        <ele>48.319971</ele>
        <time>2020-08-13T13:02:18.451Z</time>
      </trkpt>
      <trkpt lat="65.71185" lon="12.45876">
        <ele>48.143621</ele>
        <time>2020-08-13T13:02:20.450Z</time>
      </trkpt>
      <trkpt lat="65.71195" lon="12.45887">
        <ele>47.975648</ele>
        <time>2020-08-13T13:02:22.455Z</time>
      </trkpt>
      <trkpt lat="65.71205" lon="12.459">
        <ele>47.803837</ele>
        <time>2020-08-13T13:02:24.463Z</time>
      </trkpt>
      <trkpt lat="65.71214" lon="12.45914">
        <ele>47.632759</ele>
        <time>2020-08-13T13:02:26.474Z</time>
      </trkpt>
      <trkpt lat="65.71224" lon="12.45928">
        <ele>47.455104</ele>
        <time>2020-08-13T13:02:28.465Z</time>
      </trkpt>
      <trkpt lat="65.71234" lon="12.45942">
        <ele>47.276484</ele>
        <time>2020-08-13T13:02:30.456Z</time>
      </trkpt>
      <trkpt lat="65.71243" lon="12.45956">
        <ele>47.110454</ele>
        <time>2020-08-13T13:02:32.459Z</time>
      </trkpt>
      <trkpt lat="65.71252" lon="12.45967">
        <ele>46.787934</ele>
        <time>2020-08-13T13:02:34.460Z</time>
      </trkpt>
      <trkpt lat="65.71261" lon="12.45981">
        <ele>46.39613</ele>
        <time>2020-08-13T13:02:36.434Z</time>
      </trkpt>
      <trkpt lat="65.71271" lon="12.45993">
        <ele>45.997105</ele>
        <time>2020-08-13T13:02:38.450Z</time>
      </trkpt>
      <trkpt lat="65.71279" lon="12.46006">
        <ele>45.627353</ele>
        <time>2020-08-13T13:02:40.444Z</time>
      </trkpt>
      <trkpt lat="65.71288" lon="12.46019">
        <ele>45.270037</ele>
        <time>2020-08-13T13:02:42.446Z</time>
      </trkpt>
      <trkpt lat="65.71295" lon="12.4603">
        <ele>44.931837</ele>
        <time>2020-08-13T13:02:44.453Z</time>
      </trkpt>
      <trkpt lat="65.71306" lon="12.46047">
        <ele>44.456247</ele>
        <time>2020-08-13T13:02:47.455Z</time>
      </trkpt>
      <trkpt lat="65.71316" lon="12.46063">
        <ele>44.023168</ele>
        <time>2020-08-13T13:02:50.456Z</time>
      </trkpt>
      <trkpt lat="65.71325" lon="12.46079">
        <ele>43.620391</ele>
        <time>2020-08-13T13:02:53.453Z</time>
      </trkpt>
      <trkpt lat="65.71332" lon="12.46093">
        <ele>43.266497</ele>
        <time>2020-08-13T13:02:56.456Z</time>
      </trkpt>
      <trkpt lat="65.71342" lon="12.46109">
        <ele>42.841323</ele>
        <time>2020-08-13T13:03:00.469Z</time>
      </trkpt>
      <trkpt lat="65.71353" lon="12.46122">
        <ele>42.389334</ele>
        <time>2020-08-13T13:03:04.472Z</time>
      </trkpt>
      <trkpt lat="65.71363" lon="12.46131">
        <ele>42.001905</ele>
        <time>2020-08-13T13:03:07.454Z</time>
      </trkpt>
      <trkpt lat="65.71372" lon="12.46137">
        <ele>41.647514</ele>
        <time>2020-08-13T13:03:10.448Z</time>
      </trkpt>
      <trkpt lat="65.71382" lon="12.46142">
        <ele>41.282536</ele>
        <time>2020-08-13T13:03:13.473Z</time>
      </trkpt>
      <trkpt lat="65.71391" lon="12.46145">
        <ele>40.92941</ele>
        <time>2020-08-13T13:03:16.442Z</time>
      </trkpt>
      <trkpt lat="65.71401" lon="12.46143">
        <ele>40.570055</ele>
        <time>2020-08-13T13:03:19.450Z</time>
      </trkpt>
      <trkpt lat="65.71411" lon="12.46137">
        <ele>40.380769</ele>
        <time>2020-08-13T13:03:22.486Z</time>
      </trkpt>
      <trkpt lat="65.7142" lon="12.46134">
        <ele>40.304939</ele>
        <time>2020-08-13T13:03:25.465Z</time>
      </trkpt>
      <trkpt lat="65.71429" lon="12.46133">
        <ele>40.22723</ele>
        <time>2020-08-13T13:03:29.468Z</time>
      </trkpt>
      <trkpt lat="65.71438" lon="12.46125">
        <ele>40.14864</ele>
        <time>2020-08-13T13:03:35.448Z</time>
      </trkpt>
      <trkpt lat="65.71439" lon="12.46124">
        <ele>40.145206</ele>
        <time>2020-08-13T13:04:31.881Z</time>
      </trkpt>
      <trkpt lat="65.71441" lon="12.46102">
        <ele>40.066709</ele>
        <time>2020-08-13T14:10:36.778Z</time>
      </trkpt>
      <trkpt lat="65.71429" lon="12.46124">
        <ele>39.941786</ele>
        <time>2020-08-13T14:15:44.777Z</time>
      </trkpt>
      <trkpt lat="65.71419" lon="12.46131">
        <ele>39.857726</ele>
        <time>2020-08-13T14:15:49.788Z</time>
      </trkpt>
      <trkpt lat="65.7141" lon="12.46137">
        <ele>39.7802</ele>
        <time>2020-08-13T14:15:53.773Z</time>
      </trkpt>
      <trkpt lat="65.714" lon="12.46141">
        <ele>39.690859</ele>
        <time>2020-08-13T14:15:57.783Z</time>
      </trkpt>
      <trkpt lat="65.71389" lon="12.4614">
        <ele>39.604831</ele>
        <time>2020-08-13T14:16:00.783Z</time>
      </trkpt>
      <trkpt lat="65.71375" lon="12.46132">
        <ele>39.48572</ele>
        <time>2020-08-13T14:16:03.793Z</time>
      </trkpt>
      <trkpt lat="65.71366" lon="12.46128">
        <ele>39.406675</ele>
        <time>2020-08-13T14:16:07.801Z</time>
      </trkpt>
      <trkpt lat="65.71355" lon="12.46125">
        <ele>39.320975</ele>
        <time>2020-08-13T14:16:11.776Z</time>
      </trkpt>
      <trkpt lat="65.71345" lon="12.46113">
        <ele>39.223065</ele>
        <time>2020-08-13T14:16:15.786Z</time>
      </trkpt>
      <trkpt lat="65.71337" lon="12.461">
        <ele>39.14342</ele>
        <time>2020-08-13T14:16:18.791Z</time>
      </trkpt>
      <trkpt lat="65.71329" lon="12.46087">
        <ele>39.063394</ele>
        <time>2020-08-13T14:16:21.787Z</time>
      </trkpt>
      <trkpt lat="65.7132" lon="12.4607">
        <ele>38.971214</ele>
        <time>2020-08-13T14:16:25.772Z</time>
      </trkpt>
      <trkpt lat="65.71311" lon="12.46055">
        <ele>38.91575</ele>
        <time>2020-08-13T14:16:29.784Z</time>
      </trkpt>
      <trkpt lat="65.71302" lon="12.46041">
        <ele>38.873777</ele>
        <time>2020-08-13T14:16:33.785Z</time>
      </trkpt>
      <trkpt lat="65.71293" lon="12.46026">
        <ele>38.827787</ele>
        <time>2020-08-13T14:16:38.786Z</time>
      </trkpt>
      <trkpt lat="65.71284" lon="12.46017">
        <ele>38.789264</ele>
        <time>2020-08-13T14:16:42.782Z</time>
      </trkpt>
      <trkpt lat="65.71276" lon="12.46004">
        <ele>38.749233</ele>
        <time>2020-08-13T14:16:46.789Z</time>
      </trkpt>
      <trkpt lat="65.71268" lon="12.45993">
        <ele>38.712006</ele>
        <time>2020-08-13T14:16:50.826Z</time>
      </trkpt>
      <trkpt lat="65.71264" lon="12.45973">
        <ele>38.673803</ele>
        <time>2020-08-13T14:16:56.773Z</time>
      </trkpt>
      <trkpt lat="65.71264" lon="12.45951">
        <ele>38.636788</ele>
        <time>2020-08-13T14:17:04.790Z</time>
      </trkpt>
      <trkpt lat="65.71268" lon="12.45927">
        <ele>38.591401</ele>
        <time>2020-08-13T14:25:25.788Z</time>
      </trkpt>
      <trkpt lat="65.71278" lon="12.45921">
        <ele>38.552303</ele>
        <time>2020-08-13T14:25:34.810Z</time>
      </trkpt>
      <trkpt lat="65.71295" lon="12.4593">
        <ele>38.480167</ele>
        <time>2020-08-13T14:27:43.804Z</time>
      </trkpt>
      <trkpt lat="65.71303" lon="12.4594">
        <ele>38.442553</ele>
        <time>2020-08-13T14:27:52.792Z</time>
      </trkpt>
      <trkpt lat="65.71312" lon="12.45935">
        <ele>38.40377</ele>
        <time>2020-08-13T14:27:59.788Z</time>
      </trkpt>
      <trkpt lat="65.71321" lon="12.45931">
        <ele>38.366164</ele>
        <time>2020-08-13T14:28:04.789Z</time>
      </trkpt>
      <trkpt lat="65.7133" lon="12.45925">
        <ele>38.328599</ele>
        <time>2020-08-13T14:28:10.786Z</time>
      </trkpt>
      <trkpt lat="65.71339" lon="12.45916">
        <ele>38.287559</ele>
        <time>2020-08-13T14:28:15.782Z</time>
      </trkpt>
      <trkpt lat="65.71357" lon="12.45899">
        <ele>38.267356</ele>
        <time>2020-08-13T14:28:24.797Z</time>
      </trkpt>
      <trkpt lat="65.71366" lon="12.45886">
        <ele>38.786919</ele>
        <time>2020-08-13T14:28:29.794Z</time>
      </trkpt>
      <trkpt lat="65.71374" lon="12.45875">
        <ele>39.272043</ele>
        <time>2020-08-13T14:28:33.806Z</time>
      </trkpt>
      <trkpt lat="65.71381" lon="12.45858">
        <ele>39.79961</ele>
        <time>2020-08-13T14:28:37.784Z</time>
      </trkpt>
      <trkpt lat="65.71389" lon="12.45835">
        <ele>40.418832</ele>
        <time>2020-08-13T14:28:41.795Z</time>
      </trkpt>
      <trkpt lat="65.71394" lon="12.45817">
        <ele>40.890701</ele>
        <time>2020-08-13T14:28:44.821Z</time>
      </trkpt>
      <trkpt lat="65.71396" lon="12.45795">
        <ele>41.361812</ele>
        <time>2020-08-13T14:28:53.785Z</time>
      </trkpt>
      <trkpt lat="65.71434" lon="12.45831">
        <ele>43.470801</ele>
        <time>2020-08-13T14:29:34.805Z</time>
      </trkpt>
      <trkpt lat="65.71444" lon="12.45841">
        <ele>44.048909</ele>
        <time>2020-08-13T14:29:38.790Z</time>
      </trkpt>
      <trkpt lat="65.71453" lon="12.45851">
        <ele>44.561854</ele>
        <time>2020-08-13T14:29:42.805Z</time>
      </trkpt>
      <trkpt lat="65.71461" lon="12.45862">
        <ele>45.040318</ele>
        <time>2020-08-13T14:29:45.789Z</time>
      </trkpt>
      <trkpt lat="65.71469" lon="12.45871">
        <ele>45.504885</ele>
        <time>2020-08-13T14:29:47.797Z</time>
      </trkpt>
      <trkpt lat="65.71481" lon="12.45883">
        <ele>46.153503</ele>
        <time>2020-08-13T14:29:50.794Z</time>
      </trkpt>
      <trkpt lat="65.71492" lon="12.45895">
        <ele>46.790055</ele>
        <time>2020-08-13T14:29:53.792Z</time>
      </trkpt>
      <trkpt lat="65.71501" lon="12.45899">
        <ele>47.276476</ele>
        <time>2020-08-13T14:29:55.818Z</time>
      </trkpt>
      <trkpt lat="65.71514" lon="12.45904">
        <ele>47.356936</ele>
        <time>2020-08-13T14:29:58.794Z</time>
      </trkpt>
      <trkpt lat="65.71523" lon="12.45909">
        <ele>47.128926</ele>
        <time>2020-08-13T14:30:00.782Z</time>
      </trkpt>
      <trkpt lat="65.71532" lon="12.45915">
        <ele>46.901241</ele>
        <time>2020-08-13T14:30:02.796Z</time>
      </trkpt>
      <trkpt lat="65.71545" lon="12.45926">
        <ele>46.563826</ele>
        <time>2020-08-13T14:30:05.797Z</time>
      </trkpt>
      <trkpt lat="65.71557" lon="12.45936">
        <ele>46.223861</ele>
        <time>2020-08-13T14:30:08.801Z</time>
      </trkpt>
      <trkpt lat="65.7157" lon="12.45944">
        <ele>45.898686</ele>
        <time>2020-08-13T14:30:11.811Z</time>
      </trkpt>
      <trkpt lat="65.71584" lon="12.45942">
        <ele>45.55035</ele>
        <time>2020-08-13T14:30:15.801Z</time>
      </trkpt>
      <trkpt lat="65.71594" lon="12.45942">
        <ele>45.280824</ele>
        <time>2020-08-13T14:30:18.805Z</time>
      </trkpt>
      <trkpt lat="65.71606" lon="12.45944">
        <ele>44.985783</ele>
        <time>2020-08-13T14:30:21.815Z</time>
      </trkpt>
      <trkpt lat="65.71618" lon="12.45941">
        <ele>44.67945</ele>
        <time>2020-08-13T14:30:23.808Z</time>
      </trkpt>
      <trkpt lat="65.71629" lon="12.45942">
        <ele>44.399656</ele>
        <time>2020-08-13T14:30:26.800Z</time>
      </trkpt>
      <trkpt lat="65.71642" lon="12.45941">
        <ele>44.09235</ele>
        <time>2020-08-13T14:30:28.793Z</time>
      </trkpt>
      <trkpt lat="65.71653" lon="12.45941">
        <ele>43.80526</ele>
        <time>2020-08-13T14:30:30.795Z</time>
      </trkpt>
      <trkpt lat="65.71665" lon="12.45944">
        <ele>43.509261</ele>
        <time>2020-08-13T14:30:32.822Z</time>
      </trkpt>
      <trkpt lat="65.71676" lon="12.45947">
        <ele>43.214701</ele>
        <time>2020-08-13T14:30:34.794Z</time>
      </trkpt>
      <trkpt lat="65.71689" lon="12.4595">
        <ele>42.850535</ele>
        <time>2020-08-13T14:30:36.791Z</time>
      </trkpt>
      <trkpt lat="65.71701" lon="12.45947">
        <ele>42.494334</ele>
        <time>2020-08-13T14:30:38.789Z</time>
      </trkpt>
      <trkpt lat="65.71712" lon="12.45945">
        <ele>42.150292</ele>
        <time>2020-08-13T14:30:40.796Z</time>
      </trkpt>
      <trkpt lat="65.71724" lon="12.45942">
        <ele>41.79102</ele>
        <time>2020-08-13T14:30:42.784Z</time>
      </trkpt>
      <trkpt lat="65.71736" lon="12.4594">
        <ele>41.4165</ele>
        <time>2020-08-13T14:30:44.774Z</time>
      </trkpt>
      <trkpt lat="65.71748" lon="12.45937">
        <ele>41.048434</ele>
        <time>2020-08-13T14:30:46.787Z</time>
      </trkpt>
      <trkpt lat="65.71759" lon="12.45935">
        <ele>40.688921</ele>
        <time>2020-08-13T14:30:48.793Z</time>
      </trkpt>
      <trkpt lat="65.71771" lon="12.45933">
        <ele>40.321205</ele>
        <time>2020-08-13T14:30:50.803Z</time>
      </trkpt>
      <trkpt lat="65.71783" lon="12.45932">
        <ele>39.963268</ele>
        <time>2020-08-13T14:30:52.802Z</time>
      </trkpt>
      <trkpt lat="65.71794" lon="12.45931">
        <ele>39.605403</ele>
        <time>2020-08-13T14:30:54.800Z</time>
      </trkpt>
      <trkpt lat="65.71806" lon="12.4593">
        <ele>39.240983</ele>
        <time>2020-08-13T14:30:56.799Z</time>
      </trkpt>
      <trkpt lat="65.71817" lon="12.45927">
        <ele>38.888082</ele>
        <time>2020-08-13T14:30:58.827Z</time>
      </trkpt>
      <trkpt lat="65.71829" lon="12.45924">
        <ele>38.531509</ele>
        <time>2020-08-13T14:31:00.817Z</time>
      </trkpt>
      <trkpt lat="65.71841" lon="12.45922">
        <ele>38.168927</ele>
        <time>2020-08-13T14:31:02.814Z</time>
      </trkpt>
      <trkpt lat="65.71852" lon="12.45919">
        <ele>37.815288</ele>
        <time>2020-08-13T14:31:04.824Z</time>
      </trkpt>
      <trkpt lat="65.71864" lon="12.45916">
        <ele>37.47988</ele>
        <time>2020-08-13T14:31:06.837Z</time>
      </trkpt>
      <trkpt lat="65.71875" lon="12.45914">
        <ele>37.429176</ele>
        <time>2020-08-13T14:31:08.804Z</time>
      </trkpt>
      <trkpt lat="65.71886" lon="12.45911">
        <ele>37.379234</ele>
        <time>2020-08-13T14:31:10.798Z</time>
      </trkpt>
      <trkpt lat="65.71897" lon="12.45909">
        <ele>37.330716</ele>
        <time>2020-08-13T14:31:12.810Z</time>
      </trkpt>
      <trkpt lat="65.71908" lon="12.45907">
        <ele>37.280897</ele>
        <time>2020-08-13T14:31:14.807Z</time>
      </trkpt>
      <trkpt lat="65.7192" lon="12.45905">
        <ele>37.229696</ele>
        <time>2020-08-13T14:31:16.824Z</time>
      </trkpt>
      <trkpt lat="65.71931" lon="12.45902">
        <ele>37.179347</ele>
        <time>2020-08-13T14:31:18.780Z</time>
      </trkpt>
      <trkpt lat="65.71943" lon="12.459">
        <ele>37.127758</ele>
        <time>2020-08-13T14:31:20.797Z</time>
      </trkpt>
      <trkpt lat="65.71955" lon="12.459">
        <ele>37.074495</ele>
        <time>2020-08-13T14:31:22.804Z</time>
      </trkpt>
      <trkpt lat="65.71966" lon="12.45897">
        <ele>37.023294</ele>
        <time>2020-08-13T14:31:24.809Z</time>
      </trkpt>
      <trkpt lat="65.71978" lon="12.45895">
        <ele>36.972519</ele>
        <time>2020-08-13T14:31:26.810Z</time>
      </trkpt>
      <trkpt lat="65.71989" lon="12.45894">
        <ele>36.922794</ele>
        <time>2020-08-13T14:31:28.785Z</time>
      </trkpt>
      <trkpt lat="65.72" lon="12.45894">
        <ele>36.87087</ele>
        <time>2020-08-13T14:31:30.822Z</time>
      </trkpt>
      <trkpt lat="65.72013" lon="12.45893">
        <ele>36.817173</ele>
        <time>2020-08-13T14:31:32.800Z</time>
      </trkpt>
      <trkpt lat="65.72024" lon="12.45893">
        <ele>36.764808</ele>
        <time>2020-08-13T14:31:34.804Z</time>
      </trkpt>
      <trkpt lat="65.72037" lon="12.45892">
        <ele>36.710658</ele>
        <time>2020-08-13T14:31:36.826Z</time>
      </trkpt>
      <trkpt lat="65.72048" lon="12.45893">
        <ele>36.863415</ele>
        <time>2020-08-13T14:31:38.815Z</time>
      </trkpt>
      <trkpt lat="65.7206" lon="12.45896">
        <ele>37.206985</ele>
        <time>2020-08-13T14:31:40.806Z</time>
      </trkpt>
      <trkpt lat="65.72071" lon="12.45899">
        <ele>37.541955</ele>
        <time>2020-08-13T14:31:42.819Z</time>
      </trkpt>
      <trkpt lat="65.72083" lon="12.45901">
        <ele>37.882077</ele>
        <time>2020-08-13T14:31:44.817Z</time>
      </trkpt>
      <trkpt lat="65.72095" lon="12.45903">
        <ele>38.230938</ele>
        <time>2020-08-13T14:31:46.794Z</time>
      </trkpt>
      <trkpt lat="65.72107" lon="12.45905">
        <ele>38.576616</ele>
        <time>2020-08-13T14:31:48.828Z</time>
      </trkpt>
      <trkpt lat="65.72118" lon="12.45908">
        <ele>38.920559</ele>
        <time>2020-08-13T14:31:50.806Z</time>
      </trkpt>
      <trkpt lat="65.72131" lon="12.45911">
        <ele>39.276125</ele>
        <time>2020-08-13T14:31:52.805Z</time>
      </trkpt>
      <trkpt lat="65.72142" lon="12.45913">
        <ele>39.618458</ele>
        <time>2020-08-13T14:31:54.823Z</time>
      </trkpt>
      <trkpt lat="65.72154" lon="12.45916">
        <ele>39.971516</ele>
        <time>2020-08-13T14:31:56.873Z</time>
      </trkpt>
      <trkpt lat="65.72167" lon="12.45921">
        <ele>40.340795</ele>
        <time>2020-08-13T14:31:58.795Z</time>
      </trkpt>
      <trkpt lat="65.72178" lon="12.45926">
        <ele>40.684867</ele>
        <time>2020-08-13T14:32:00.842Z</time>
      </trkpt>
      <trkpt lat="65.7219" lon="12.45931">
        <ele>41.03576</ele>
        <time>2020-08-13T14:32:02.788Z</time>
      </trkpt>
      <trkpt lat="65.72201" lon="12.45936">
        <ele>41.371628</ele>
        <time>2020-08-13T14:32:04.810Z</time>
      </trkpt>
      <trkpt lat="65.72212" lon="12.45943">
        <ele>41.697057</ele>
        <time>2020-08-13T14:32:06.825Z</time>
      </trkpt>
      <trkpt lat="65.72223" lon="12.45949">
        <ele>42.028134</ele>
        <time>2020-08-13T14:32:08.809Z</time>
      </trkpt>
      <trkpt lat="65.72234" lon="12.45956">
        <ele>42.382344</ele>
        <time>2020-08-13T14:32:10.804Z</time>
      </trkpt>
      <trkpt lat="65.72245" lon="12.45964">
        <ele>42.727714</ele>
        <time>2020-08-13T14:32:12.810Z</time>
      </trkpt>
      <trkpt lat="65.72255" lon="12.45972">
        <ele>43.075694</ele>
        <time>2020-08-13T14:32:14.804Z</time>
      </trkpt>
      <trkpt lat="65.72266" lon="12.4598">
        <ele>43.428581</ele>
        <time>2020-08-13T14:32:16.840Z</time>
      </trkpt>
      <trkpt lat="65.72277" lon="12.45989">
        <ele>43.788428</ele>
        <time>2020-08-13T14:32:18.800Z</time>
      </trkpt>
      <trkpt lat="65.72288" lon="12.45998">
        <ele>44.15543</ele>
        <time>2020-08-13T14:32:20.802Z</time>
      </trkpt>
      <trkpt lat="65.723" lon="12.46007">
        <ele>44.533967</ele>
        <time>2020-08-13T14:32:22.803Z</time>
      </trkpt>
      <trkpt lat="65.72311" lon="12.46016">
        <ele>44.913274</ele>
        <time>2020-08-13T14:32:24.789Z</time>
      </trkpt>
      <trkpt lat="65.72323" lon="12.46025">
        <ele>45.288077</ele>
        <time>2020-08-13T14:32:26.806Z</time>
      </trkpt>
      <trkpt lat="65.72334" lon="12.46033">
        <ele>45.661048</ele>
        <time>2020-08-13T14:32:28.804Z</time>
      </trkpt>
      <trkpt lat="65.72346" lon="12.46042">
        <ele>46.027707</ele>
        <time>2020-08-13T14:32:30.854Z</time>
      </trkpt>
      <trkpt lat="65.72357" lon="12.4605">
        <ele>46.401398</ele>
        <time>2020-08-13T14:32:32.755Z</time>
      </trkpt>
      <trkpt lat="65.72369" lon="12.46058">
        <ele>46.772473</ele>
        <time>2020-08-13T14:32:34.835Z</time>
      </trkpt>
      <trkpt lat="65.7238" lon="12.46067">
        <ele>47.14653</ele>
        <time>2020-08-13T14:32:36.829Z</time>
      </trkpt>
      <trkpt lat="65.72391" lon="12.46075">
        <ele>47.509053</ele>
        <time>2020-08-13T14:32:38.827Z</time>
      </trkpt>
      <trkpt lat="65.72403" lon="12.46085">
        <ele>47.634899</ele>
        <time>2020-08-13T14:32:40.807Z</time>
      </trkpt>
      <trkpt lat="65.72414" lon="12.46095">
        <ele>47.735597</ele>
        <time>2020-08-13T14:32:42.807Z</time>
      </trkpt>
      <trkpt lat="65.72425" lon="12.46105">
        <ele>47.835826</ele>
        <time>2020-08-13T14:32:44.787Z</time>
      </trkpt>
      <trkpt lat="65.72437" lon="12.46116">
        <ele>47.93766</ele>
        <time>2020-08-13T14:32:46.792Z</time>
      </trkpt>
      <trkpt lat="65.72448" lon="12.46126">
        <ele>48.039372</ele>
        <time>2020-08-13T14:32:48.790Z</time>
      </trkpt>
      <trkpt lat="65.72459" lon="12.46137">
        <ele>48.136334</ele>
        <time>2020-08-13T14:32:50.811Z</time>
      </trkpt>
      <trkpt lat="65.7247" lon="12.46147">
        <ele>48.228701</ele>
        <time>2020-08-13T14:32:52.841Z</time>
      </trkpt>
      <trkpt lat="65.7248" lon="12.46155">
        <ele>48.319121</ele>
        <time>2020-08-13T14:32:54.799Z</time>
      </trkpt>
      <trkpt lat="65.72491" lon="12.46164">
        <ele>48.413003</ele>
        <time>2020-08-13T14:32:56.799Z</time>
      </trkpt>
      <trkpt lat="65.72502" lon="12.46173">
        <ele>48.508765</ele>
        <time>2020-08-13T14:32:58.826Z</time>
      </trkpt>
      <trkpt lat="65.72513" lon="12.46183">
        <ele>48.603983</ele>
        <time>2020-08-13T14:33:00.820Z</time>
      </trkpt>
      <trkpt lat="65.72524" lon="12.46193">
        <ele>48.702361</ele>
        <time>2020-08-13T14:33:02.789Z</time>
      </trkpt>
      <trkpt lat="65.72535" lon="12.46203">
        <ele>48.800463</ele>
        <time>2020-08-13T14:33:04.832Z</time>
      </trkpt>
      <trkpt lat="65.72546" lon="12.46212">
        <ele>48.897232</ele>
        <time>2020-08-13T14:33:06.848Z</time>
      </trkpt>
      <trkpt lat="65.72558" lon="12.4622">
        <ele>48.997529</ele>
        <time>2020-08-13T14:33:08.843Z</time>
      </trkpt>
      <trkpt lat="65.72569" lon="12.46229">
        <ele>48.966592</ele>
        <time>2020-08-13T14:33:10.827Z</time>
      </trkpt>
      <trkpt lat="65.72581" lon="12.46236">
        <ele>48.868996</ele>
        <time>2020-08-13T14:33:12.805Z</time>
      </trkpt>
      <trkpt lat="65.72592" lon="12.46242">
        <ele>48.77465</ele>
        <time>2020-08-13T14:33:14.829Z</time>
      </trkpt>
      <trkpt lat="65.72603" lon="12.46251">
        <ele>48.6808</ele>
        <time>2020-08-13T14:33:16.812Z</time>
      </trkpt>
      <trkpt lat="65.72614" lon="12.46259">
        <ele>48.586242</ele>
        <time>2020-08-13T14:33:18.806Z</time>
      </trkpt>
      <trkpt lat="65.72625" lon="12.46268">
        <ele>48.493234</ele>
        <time>2020-08-13T14:33:20.804Z</time>
      </trkpt>
      <trkpt lat="65.72635" lon="12.46276">
        <ele>48.405044</ele>
        <time>2020-08-13T14:33:22.798Z</time>
      </trkpt>
      <trkpt lat="65.72647" lon="12.46285">
        <ele>48.308258</ele>
        <time>2020-08-13T14:33:24.804Z</time>
      </trkpt>
      <trkpt lat="65.72658" lon="12.46294">
        <ele>48.213162</ele>
        <time>2020-08-13T14:33:26.824Z</time>
      </trkpt>
      <trkpt lat="65.72669" lon="12.46303">
        <ele>48.117724</ele>
        <time>2020-08-13T14:33:28.831Z</time>
      </trkpt>
      <trkpt lat="65.7268" lon="12.46311">
        <ele>48.01977</ele>
        <time>2020-08-13T14:33:30.816Z</time>
      </trkpt>
      <trkpt lat="65.72691" lon="12.46321">
        <ele>47.923793</ele>
        <time>2020-08-13T14:33:32.824Z</time>
      </trkpt>
      <trkpt lat="65.72701" lon="12.46329">
        <ele>47.836521</ele>
        <time>2020-08-13T14:33:34.809Z</time>
      </trkpt>
      <trkpt lat="65.72711" lon="12.46338">
        <ele>47.749139</ele>
        <time>2020-08-13T14:33:36.812Z</time>
      </trkpt>
      <trkpt lat="65.72722" lon="12.46346">
        <ele>47.659548</ele>
        <time>2020-08-13T14:33:38.810Z</time>
      </trkpt>
      <trkpt lat="65.72732" lon="12.46356">
        <ele>47.570503</ele>
        <time>2020-08-13T14:33:40.820Z</time>
      </trkpt>
      <trkpt lat="65.72743" lon="12.46366">
        <ele>47.485962</ele>
        <time>2020-08-13T14:33:42.798Z</time>
      </trkpt>
      <trkpt lat="65.72755" lon="12.46376">
        <ele>47.402441</ele>
        <time>2020-08-13T14:33:44.845Z</time>
      </trkpt>
      <trkpt lat="65.72766" lon="12.46385">
        <ele>47.322982</ele>
        <time>2020-08-13T14:33:46.855Z</time>
      </trkpt>
      <trkpt lat="65.72777" lon="12.46394">
        <ele>47.241281</ele>
        <time>2020-08-13T14:33:48.828Z</time>
      </trkpt>
      <trkpt lat="65.72789" lon="12.46403">
        <ele>47.154989</ele>
        <time>2020-08-13T14:33:50.852Z</time>
      </trkpt>
      <trkpt lat="65.72802" lon="12.46412">
        <ele>47.064469</ele>
        <time>2020-08-13T14:33:52.822Z</time>
      </trkpt>
      <trkpt lat="65.72815" lon="12.46421">
        <ele>46.974711</ele>
        <time>2020-08-13T14:33:54.831Z</time>
      </trkpt>
      <trkpt lat="65.72826" lon="12.46429">
        <ele>46.892688</ele>
        <time>2020-08-13T14:33:56.808Z</time>
      </trkpt>
      <trkpt lat="65.72837" lon="12.46438">
        <ele>46.814411</ele>
        <time>2020-08-13T14:33:58.790Z</time>
      </trkpt>
      <trkpt lat="65.72848" lon="12.46445">
        <ele>46.739001</ele>
        <time>2020-08-13T14:34:00.818Z</time>
      </trkpt>
      <trkpt lat="65.72859" lon="12.46452">
        <ele>46.661674</ele>
        <time>2020-08-13T14:34:02.832Z</time>
      </trkpt>
      <trkpt lat="65.7287" lon="12.4646">
        <ele>46.582015</ele>
        <time>2020-08-13T14:34:04.809Z</time>
      </trkpt>
      <trkpt lat="65.72881" lon="12.46467">
        <ele>46.504322</ele>
        <time>2020-08-13T14:34:06.838Z</time>
      </trkpt>
      <trkpt lat="65.72892" lon="12.46475">
        <ele>46.428485</ele>
        <time>2020-08-13T14:34:08.833Z</time>
      </trkpt>
      <trkpt lat="65.72903" lon="12.46481">
        <ele>46.349293</ele>
        <time>2020-08-13T14:34:10.821Z</time>
      </trkpt>
      <trkpt lat="65.72915" lon="12.46488">
        <ele>46.280222</ele>
        <time>2020-08-13T14:34:12.795Z</time>
      </trkpt>
      <trkpt lat="65.72925" lon="12.46498">
        <ele>46.216896</ele>
        <time>2020-08-13T14:34:14.817Z</time>
      </trkpt>
      <trkpt lat="65.72936" lon="12.46507">
        <ele>46.153719</ele>
        <time>2020-08-13T14:34:16.781Z</time>
      </trkpt>
      <trkpt lat="65.72947" lon="12.46516">
        <ele>46.090543</ele>
        <time>2020-08-13T14:34:18.810Z</time>
      </trkpt>
      <trkpt lat="65.72958" lon="12.46526">
        <ele>46.025272</ele>
        <time>2020-08-13T14:34:20.822Z</time>
      </trkpt>
      <trkpt lat="65.72969" lon="12.46535">
        <ele>45.960155</ele>
        <time>2020-08-13T14:34:22.814Z</time>
      </trkpt>
      <trkpt lat="65.72981" lon="12.46544">
        <ele>45.893976</ele>
        <time>2020-08-13T14:34:24.820Z</time>
      </trkpt>
      <trkpt lat="65.72992" lon="12.46552">
        <ele>45.827735</ele>
        <time>2020-08-13T14:34:26.816Z</time>
      </trkpt>
      <trkpt lat="65.73003" lon="12.46561">
        <ele>45.761829</ele>
        <time>2020-08-13T14:34:28.825Z</time>
      </trkpt>
      <trkpt lat="65.73015" lon="12.4657">
        <ele>45.696414</ele>
        <time>2020-08-13T14:34:30.851Z</time>
      </trkpt>
      <trkpt lat="65.73026" lon="12.4658">
        <ele>45.631505</ele>
        <time>2020-08-13T14:34:32.832Z</time>
      </trkpt>
      <trkpt lat="65.73037" lon="12.46591">
        <ele>45.566535</ele>
        <time>2020-08-13T14:34:34.797Z</time>
      </trkpt>
      <trkpt lat="65.73048" lon="12.46602">
        <ele>45.500622</ele>
        <time>2020-08-13T14:34:36.810Z</time>
      </trkpt>
      <trkpt lat="65.73059" lon="12.46613">
        <ele>45.435307</ele>
        <time>2020-08-13T14:34:38.805Z</time>
      </trkpt>
      <trkpt lat="65.73069" lon="12.46625">
        <ele>45.37128</ele>
        <time>2020-08-13T14:34:40.798Z</time>
      </trkpt>
      <trkpt lat="65.7308" lon="12.46636">
        <ele>45.395084</ele>
        <time>2020-08-13T14:34:42.828Z</time>
      </trkpt>
      <trkpt lat="65.73091" lon="12.46644">
        <ele>45.499371</ele>
        <time>2020-08-13T14:34:44.832Z</time>
      </trkpt>
      <trkpt lat="65.73102" lon="12.46651">
        <ele>45.6034</ele>
        <time>2020-08-13T14:34:46.820Z</time>
      </trkpt>
      <trkpt lat="65.73114" lon="12.46657">
        <ele>45.70823</ele>
        <time>2020-08-13T14:34:48.817Z</time>
      </trkpt>
      <trkpt lat="65.73125" lon="12.46663">
        <ele>45.811926</ele>
        <time>2020-08-13T14:34:50.841Z</time>
      </trkpt>
      <trkpt lat="65.73137" lon="12.46669">
        <ele>45.914757</ele>
        <time>2020-08-13T14:34:52.821Z</time>
      </trkpt>
      <trkpt lat="65.73148" lon="12.46675">
        <ele>46.017918</ele>
        <time>2020-08-13T14:34:54.801Z</time>
      </trkpt>
      <trkpt lat="65.73159" lon="12.4668">
        <ele>46.115</ele>
        <time>2020-08-13T14:34:56.816Z</time>
      </trkpt>
      <trkpt lat="65.73169" lon="12.46688">
        <ele>46.212171</ele>
        <time>2020-08-13T14:34:58.801Z</time>
      </trkpt>
      <trkpt lat="65.7318" lon="12.46697">
        <ele>46.309722</ele>
        <time>2020-08-13T14:35:00.820Z</time>
      </trkpt>
      <trkpt lat="65.7319" lon="12.46706">
        <ele>46.410983</ele>
        <time>2020-08-13T14:35:02.815Z</time>
      </trkpt>
      <trkpt lat="65.73201" lon="12.46715">
        <ele>46.512727</ele>
        <time>2020-08-13T14:35:04.817Z</time>
      </trkpt>
      <trkpt lat="65.73212" lon="12.46724">
        <ele>46.615306</ele>
        <time>2020-08-13T14:35:06.799Z</time>
      </trkpt>
      <trkpt lat="65.73223" lon="12.46733">
        <ele>46.715728</ele>
        <time>2020-08-13T14:35:08.822Z</time>
      </trkpt>
      <trkpt lat="65.73234" lon="12.46741">
        <ele>46.815019</ele>
        <time>2020-08-13T14:35:10.817Z</time>
      </trkpt>
      <trkpt lat="65.73244" lon="12.4675">
        <ele>46.916329</ele>
        <time>2020-08-13T14:35:12.818Z</time>
      </trkpt>
      <trkpt lat="65.73255" lon="12.46758">
        <ele>46.809893</ele>
        <time>2020-08-13T14:35:14.814Z</time>
      </trkpt>
      <trkpt lat="65.73265" lon="12.46767">
        <ele>46.652609</ele>
        <time>2020-08-13T14:35:16.813Z</time>
      </trkpt>
      <trkpt lat="65.73276" lon="12.46776">
        <ele>46.497058</ele>
        <time>2020-08-13T14:35:18.824Z</time>
      </trkpt>
      <trkpt lat="65.73286" lon="12.46783">
        <ele>46.341414</ele>
        <time>2020-08-13T14:35:20.830Z</time>
      </trkpt>
      <trkpt lat="65.73297" lon="12.46792">
        <ele>46.182158</ele>
        <time>2020-08-13T14:35:22.826Z</time>
      </trkpt>
      <trkpt lat="65.73307" lon="12.46799">
        <ele>46.02719</ele>
        <time>2020-08-13T14:35:24.818Z</time>
      </trkpt>
      <trkpt lat="65.73318" lon="12.46807">
        <ele>45.862275</ele>
        <time>2020-08-13T14:35:26.815Z</time>
      </trkpt>
      <trkpt lat="65.7333" lon="12.46813">
        <ele>45.694683</ele>
        <time>2020-08-13T14:35:28.816Z</time>
      </trkpt>
      <trkpt lat="65.73341" lon="12.46821">
        <ele>45.521185</ele>
        <time>2020-08-13T14:35:30.810Z</time>
      </trkpt>
      <trkpt lat="65.73352" lon="12.46831">
        <ele>45.351161</ele>
        <time>2020-08-13T14:35:32.847Z</time>
      </trkpt>
      <trkpt lat="65.73363" lon="12.46841">
        <ele>45.183714</ele>
        <time>2020-08-13T14:35:34.792Z</time>
      </trkpt>
      <trkpt lat="65.73375" lon="12.46853">
        <ele>45.00667</ele>
        <time>2020-08-13T14:35:36.825Z</time>
      </trkpt>
      <trkpt lat="65.73386" lon="12.46866">
        <ele>44.824264</ele>
        <time>2020-08-13T14:35:38.850Z</time>
      </trkpt>
      <trkpt lat="65.73398" lon="12.4688">
        <ele>44.639573</ele>
        <time>2020-08-13T14:35:40.816Z</time>
      </trkpt>
      <trkpt lat="65.7341" lon="12.46891">
        <ele>44.455969</ele>
        <time>2020-08-13T14:35:42.818Z</time>
      </trkpt>
      <trkpt lat="65.73422" lon="12.469">
        <ele>44.137906</ele>
        <time>2020-08-13T14:35:44.817Z</time>
      </trkpt>
      <trkpt lat="65.73433" lon="12.4691">
        <ele>43.666274</ele>
        <time>2020-08-13T14:35:46.806Z</time>
      </trkpt>
      <trkpt lat="65.73444" lon="12.46918">
        <ele>43.201795</ele>
        <time>2020-08-13T14:35:48.820Z</time>
      </trkpt>
      <trkpt lat="65.73456" lon="12.46927">
        <ele>42.721044</ele>
        <time>2020-08-13T14:35:50.810Z</time>
      </trkpt>
      <trkpt lat="65.73468" lon="12.46936">
        <ele>42.237521</ele>
        <time>2020-08-13T14:35:52.846Z</time>
      </trkpt>
      <trkpt lat="65.7348" lon="12.46945">
        <ele>41.764184</ele>
        <time>2020-08-13T14:35:54.832Z</time>
      </trkpt>
      <trkpt lat="65.73491" lon="12.46953">
        <ele>41.302929</ele>
        <time>2020-08-13T14:35:56.845Z</time>
      </trkpt>
      <trkpt lat="65.73502" lon="12.46962">
        <ele>40.855199</ele>
        <time>2020-08-13T14:35:58.821Z</time>
      </trkpt>
      <trkpt lat="65.73513" lon="12.4697">
        <ele>40.395383</ele>
        <time>2020-08-13T14:36:00.847Z</time>
      </trkpt>
      <trkpt lat="65.73525" lon="12.46979">
        <ele>39.93364</ele>
        <time>2020-08-13T14:36:02.831Z</time>
      </trkpt>
      <trkpt lat="65.73536" lon="12.46988">
        <ele>39.459816</ele>
        <time>2020-08-13T14:36:04.811Z</time>
      </trkpt>
      <trkpt lat="65.73548" lon="12.46996">
        <ele>38.989756</ele>
        <time>2020-08-13T14:36:06.828Z</time>
      </trkpt>
      <trkpt lat="65.73559" lon="12.47004">
        <ele>38.53268</ele>
        <time>2020-08-13T14:36:08.826Z</time>
      </trkpt>
      <trkpt lat="65.7357" lon="12.47012">
        <ele>38.078892</ele>
        <time>2020-08-13T14:36:10.818Z</time>
      </trkpt>
      <trkpt lat="65.73582" lon="12.47021">
        <ele>37.612105</ele>
        <time>2020-08-13T14:36:12.848Z</time>
      </trkpt>
      <trkpt lat="65.73593" lon="12.47028">
        <ele>37.362005</ele>
        <time>2020-08-13T14:36:14.830Z</time>
      </trkpt>
      <trkpt lat="65.73604" lon="12.47035">
        <ele>37.341385</ele>
        <time>2020-08-13T14:36:16.835Z</time>
      </trkpt>
      <trkpt lat="65.73615" lon="12.47043">
        <ele>37.321323</ele>
        <time>2020-08-13T14:36:18.812Z</time>
      </trkpt>
      <trkpt lat="65.73626" lon="12.47054">
        <ele>37.301673</ele>
        <time>2020-08-13T14:36:20.827Z</time>
      </trkpt>
      <trkpt lat="65.73635" lon="12.47063">
        <ele>37.282867</ele>
        <time>2020-08-13T14:36:22.805Z</time>
      </trkpt>
      <trkpt lat="65.73646" lon="12.47074">
        <ele>37.262918</ele>
        <time>2020-08-13T14:36:24.832Z</time>
      </trkpt>
      <trkpt lat="65.73656" lon="12.47084">
        <ele>37.243754</ele>
        <time>2020-08-13T14:36:26.813Z</time>
      </trkpt>
      <trkpt lat="65.73666" lon="12.47095">
        <ele>37.224417</ele>
        <time>2020-08-13T14:36:28.812Z</time>
      </trkpt>
      <trkpt lat="65.73676" lon="12.47106">
        <ele>37.204766</ele>
        <time>2020-08-13T14:36:30.839Z</time>
      </trkpt>
      <trkpt lat="65.73688" lon="12.47113">
        <ele>37.182816</ele>
        <time>2020-08-13T14:36:32.805Z</time>
      </trkpt>
      <trkpt lat="65.73701" lon="12.47119">
        <ele>37.16002</ele>
        <time>2020-08-13T14:36:34.817Z</time>
      </trkpt>
      <trkpt lat="65.73713" lon="12.47123">
        <ele>37.138265</ele>
        <time>2020-08-13T14:36:36.815Z</time>
      </trkpt>
      <trkpt lat="65.73724" lon="12.47126">
        <ele>37.118768</ele>
        <time>2020-08-13T14:36:38.833Z</time>
      </trkpt>
      <trkpt lat="65.73735" lon="12.47132">
        <ele>37.099419</ele>
        <time>2020-08-13T14:36:40.816Z</time>
      </trkpt>
      <trkpt lat="65.73745" lon="12.4714">
        <ele>37.080495</ele>
        <time>2020-08-13T14:36:42.818Z</time>
      </trkpt>
      <trkpt lat="65.73756" lon="12.47148">
        <ele>37.06114</ele>
        <time>2020-08-13T14:36:44.814Z</time>
      </trkpt>
      <trkpt lat="65.73766" lon="12.47159">
        <ele>37.080065</ele>
        <time>2020-08-13T14:36:46.830Z</time>
      </trkpt>
      <trkpt lat="65.73777" lon="12.47171">
        <ele>37.118441</ele>
        <time>2020-08-13T14:36:48.818Z</time>
      </trkpt>
      <trkpt lat="65.73787" lon="12.47182">
        <ele>37.155972</ele>
        <time>2020-08-13T14:36:50.844Z</time>
      </trkpt>
      <trkpt lat="65.73798" lon="12.47191">
        <ele>37.193962</ele>
        <time>2020-08-13T14:36:52.805Z</time>
      </trkpt>
      <trkpt lat="65.73809" lon="12.47198">
        <ele>37.230506</ele>
        <time>2020-08-13T14:36:54.838Z</time>
      </trkpt>
      <trkpt lat="65.7382" lon="12.47205">
        <ele>37.269231</ele>
        <time>2020-08-13T14:36:56.835Z</time>
      </trkpt>
      <trkpt lat="65.73831" lon="12.47212">
        <ele>37.306634</ele>
        <time>2020-08-13T14:36:58.804Z</time>
      </trkpt>
      <trkpt lat="65.73841" lon="12.47221">
        <ele>37.343199</ele>
        <time>2020-08-13T14:37:00.834Z</time>
      </trkpt>
      <trkpt lat="65.73852" lon="12.47231">
        <ele>37.382474</ele>
        <time>2020-08-13T14:37:02.816Z</time>
      </trkpt>
      <trkpt lat="65.73864" lon="12.47241">
        <ele>37.424377</ele>
        <time>2020-08-13T14:37:04.812Z</time>
      </trkpt>
      <trkpt lat="65.73875" lon="12.47251">
        <ele>37.464206</ele>
        <time>2020-08-13T14:37:06.820Z</time>
      </trkpt>
      <trkpt lat="65.73886" lon="12.47261">
        <ele>37.502813</ele>
        <time>2020-08-13T14:37:08.806Z</time>
      </trkpt>
      <trkpt lat="65.73897" lon="12.47268">
        <ele>37.540997</ele>
        <time>2020-08-13T14:37:10.802Z</time>
      </trkpt>
      <trkpt lat="65.73908" lon="12.47275">
        <ele>37.578623</ele>
        <time>2020-08-13T14:37:12.821Z</time>
      </trkpt>
      <trkpt lat="65.7392" lon="12.47281">
        <ele>37.617218</ele>
        <time>2020-08-13T14:37:14.829Z</time>
      </trkpt>
      <trkpt lat="65.73931" lon="12.47288">
        <ele>37.688304</ele>
        <time>2020-08-13T14:37:16.830Z</time>
      </trkpt>
      <trkpt lat="65.73943" lon="12.47294">
        <ele>37.980058</ele>
        <time>2020-08-13T14:37:18.806Z</time>
      </trkpt>
      <trkpt lat="65.73954" lon="12.473">
        <ele>38.266041</ele>
        <time>2020-08-13T14:37:20.817Z</time>
      </trkpt>
      <trkpt lat="65.73965" lon="12.47307">
        <ele>38.554432</ele>
        <time>2020-08-13T14:37:22.801Z</time>
      </trkpt>
      <trkpt lat="65.73976" lon="12.47315">
        <ele>38.848691</ele>
        <time>2020-08-13T14:37:24.830Z</time>
      </trkpt>
      <trkpt lat="65.73987" lon="12.47322">
        <ele>39.130121</ele>
        <time>2020-08-13T14:37:26.856Z</time>
      </trkpt>
      <trkpt lat="65.73998" lon="12.4733">
        <ele>39.418007</ele>
        <time>2020-08-13T14:37:28.837Z</time>
      </trkpt>
      <trkpt lat="65.74009" lon="12.47338">
        <ele>39.700217</ele>
        <time>2020-08-13T14:37:30.818Z</time>
      </trkpt>
      <trkpt lat="65.7402" lon="12.47346">
        <ele>39.985424</ele>
        <time>2020-08-13T14:37:32.824Z</time>
      </trkpt>
      <trkpt lat="65.74031" lon="12.47353">
        <ele>40.264998</ele>
        <time>2020-08-13T14:37:34.818Z</time>
      </trkpt>
      <trkpt lat="65.74042" lon="12.4736">
        <ele>40.551666</ele>
        <time>2020-08-13T14:37:36.821Z</time>
      </trkpt>
      <trkpt lat="65.74053" lon="12.47366">
        <ele>40.828641</ele>
        <time>2020-08-13T14:37:38.813Z</time>
      </trkpt>
      <trkpt lat="65.74064" lon="12.47374">
        <ele>41.101896</ele>
        <time>2020-08-13T14:37:40.794Z</time>
      </trkpt>
      <trkpt lat="65.74074" lon="12.47381">
        <ele>41.384146</ele>
        <time>2020-08-13T14:37:42.843Z</time>
      </trkpt>
      <trkpt lat="65.74085" lon="12.47388">
        <ele>41.663171</ele>
        <time>2020-08-13T14:37:44.804Z</time>
      </trkpt>
      <trkpt lat="65.74096" lon="12.47398">
        <ele>41.9423</ele>
        <time>2020-08-13T14:37:46.802Z</time>
      </trkpt>
      <trkpt lat="65.74106" lon="12.47406">
        <ele>42.241087</ele>
        <time>2020-08-13T14:37:48.836Z</time>
      </trkpt>
      <trkpt lat="65.74117" lon="12.47412">
        <ele>42.594798</ele>
        <time>2020-08-13T14:37:50.805Z</time>
      </trkpt>
      <trkpt lat="65.74128" lon="12.47419">
        <ele>42.961158</ele>
        <time>2020-08-13T14:37:52.800Z</time>
      </trkpt>
      <trkpt lat="65.74139" lon="12.47426">
        <ele>43.331597</ele>
        <time>2020-08-13T14:37:54.838Z</time>
      </trkpt>
      <trkpt lat="65.7415" lon="12.47436">
        <ele>43.702864</ele>
        <time>2020-08-13T14:37:56.810Z</time>
      </trkpt>
      <trkpt lat="65.74161" lon="12.47443">
        <ele>44.066777</ele>
        <time>2020-08-13T14:37:58.803Z</time>
      </trkpt>
      <trkpt lat="65.74172" lon="12.47449">
        <ele>44.431888</ele>
        <time>2020-08-13T14:38:00.813Z</time>
      </trkpt>
      <trkpt lat="65.74183" lon="12.47456">
        <ele>44.792705</ele>
        <time>2020-08-13T14:38:02.820Z</time>
      </trkpt>
      <trkpt lat="65.74194" lon="12.47465">
        <ele>45.149105</ele>
        <time>2020-08-13T14:38:04.815Z</time>
      </trkpt>
      <trkpt lat="65.74204" lon="12.47474">
        <ele>45.510197</ele>
        <time>2020-08-13T14:38:06.811Z</time>
      </trkpt>
      <trkpt lat="65.74215" lon="12.47482">
        <ele>45.863551</ele>
        <time>2020-08-13T14:38:08.817Z</time>
      </trkpt>
      <trkpt lat="65.74225" lon="12.47491">
        <ele>46.219549</ele>
        <time>2020-08-13T14:38:10.825Z</time>
      </trkpt>
      <trkpt lat="65.74236" lon="12.47498">
        <ele>46.577055</ele>
        <time>2020-08-13T14:38:12.830Z</time>
      </trkpt>
      <trkpt lat="65.74247" lon="12.47507">
        <ele>46.94076</ele>
        <time>2020-08-13T14:38:14.855Z</time>
      </trkpt>
      <trkpt lat="65.74258" lon="12.47515">
        <ele>47.299029</ele>
        <time>2020-08-13T14:38:16.816Z</time>
      </trkpt>
      <trkpt lat="65.74268" lon="12.47523">
        <ele>47.654631</ele>
        <time>2020-08-13T14:38:18.822Z</time>
      </trkpt>
      <trkpt lat="65.74279" lon="12.47531">
        <ele>47.885232</ele>
        <time>2020-08-13T14:38:20.835Z</time>
      </trkpt>
      <trkpt lat="65.7429" lon="12.47537">
        <ele>47.868315</ele>
        <time>2020-08-13T14:38:22.826Z</time>
      </trkpt>
      <trkpt lat="65.74301" lon="12.47544">
        <ele>47.851796</ele>
        <time>2020-08-13T14:38:24.786Z</time>
      </trkpt>
      <trkpt lat="65.74312" lon="12.47552">
        <ele>47.835376</ele>
        <time>2020-08-13T14:38:26.817Z</time>
      </trkpt>
      <trkpt lat="65.74322" lon="12.47561">
        <ele>47.819021</ele>
        <time>2020-08-13T14:38:28.820Z</time>
      </trkpt>
      <trkpt lat="65.74332" lon="12.4757">
        <ele>47.802826</ele>
        <time>2020-08-13T14:38:30.822Z</time>
      </trkpt>
      <trkpt lat="65.74343" lon="12.47576">
        <ele>47.786699</ele>
        <time>2020-08-13T14:38:32.811Z</time>
      </trkpt>
      <trkpt lat="65.74355" lon="12.47583">
        <ele>47.768988</ele>
        <time>2020-08-13T14:38:34.842Z</time>
      </trkpt>
      <trkpt lat="65.74367" lon="12.47589">
        <ele>47.751172</ele>
        <time>2020-08-13T14:38:36.821Z</time>
      </trkpt>
      <trkpt lat="65.74378" lon="12.47595">
        <ele>47.73392</ele>
        <time>2020-08-13T14:38:38.814Z</time>
      </trkpt>
      <trkpt lat="65.7439" lon="12.47602">
        <ele>47.715998</ele>
        <time>2020-08-13T14:38:40.833Z</time>
      </trkpt>
      <trkpt lat="65.74401" lon="12.4761">
        <ele>47.698322</ele>
        <time>2020-08-13T14:38:42.846Z</time>
      </trkpt>
      <trkpt lat="65.74412" lon="12.47619">
        <ele>47.680982</ele>
        <time>2020-08-13T14:38:44.829Z</time>
      </trkpt>
      <trkpt lat="65.74424" lon="12.47626">
        <ele>47.663447</ele>
        <time>2020-08-13T14:38:46.816Z</time>
      </trkpt>
      <trkpt lat="65.74435" lon="12.47632">
        <ele>47.646917</ele>
        <time>2020-08-13T14:38:48.837Z</time>
      </trkpt>
      <trkpt lat="65.74445" lon="12.47637">
        <ele>47.632066</ele>
        <time>2020-08-13T14:38:50.812Z</time>
      </trkpt>
      <trkpt lat="65.74454" lon="12.47643">
        <ele>47.38052</ele>
        <time>2020-08-13T14:38:52.813Z</time>
      </trkpt>
      <trkpt lat="65.74465" lon="12.4765">
        <ele>46.866214</ele>
        <time>2020-08-13T14:38:54.869Z</time>
      </trkpt>
      <trkpt lat="65.74476" lon="12.47659">
        <ele>46.339561</ele>
        <time>2020-08-13T14:38:56.813Z</time>
      </trkpt>
      <trkpt lat="65.74487" lon="12.47667">
        <ele>45.803772</ele>
        <time>2020-08-13T14:38:58.809Z</time>
      </trkpt>
      <trkpt lat="65.74498" lon="12.47676">
        <ele>45.255775</ele>
        <time>2020-08-13T14:39:00.845Z</time>
      </trkpt>
      <trkpt lat="65.74509" lon="12.47685">
        <ele>44.715979</ele>
        <time>2020-08-13T14:39:02.817Z</time>
      </trkpt>
      <trkpt lat="65.7452" lon="12.47693">
        <ele>44.174663</ele>
        <time>2020-08-13T14:39:04.816Z</time>
      </trkpt>
      <trkpt lat="65.74532" lon="12.47702">
        <ele>43.626135</ele>
        <time>2020-08-13T14:39:06.827Z</time>
      </trkpt>
      <trkpt lat="65.74543" lon="12.4771">
        <ele>43.095317</ele>
        <time>2020-08-13T14:39:08.815Z</time>
      </trkpt>
      <trkpt lat="65.74554" lon="12.47717">
        <ele>42.575518</ele>
        <time>2020-08-13T14:39:10.811Z</time>
      </trkpt>
      <trkpt lat="65.74564" lon="12.47726">
        <ele>42.077548</ele>
        <time>2020-08-13T14:39:12.814Z</time>
      </trkpt>
      <trkpt lat="65.74574" lon="12.47734">
        <ele>41.590155</ele>
        <time>2020-08-13T14:39:14.829Z</time>
      </trkpt>
      <trkpt lat="65.74584" lon="12.47743">
        <ele>41.081596</ele>
        <time>2020-08-13T14:39:16.796Z</time>
      </trkpt>
      <trkpt lat="65.74595" lon="12.4775">
        <ele>40.562852</ele>
        <time>2020-08-13T14:39:18.845Z</time>
      </trkpt>
      <trkpt lat="65.74606" lon="12.4776">
        <ele>40.034349</ele>
        <time>2020-08-13T14:39:20.863Z</time>
      </trkpt>
      <trkpt lat="65.74617" lon="12.47768">
        <ele>39.489716</ele>
        <time>2020-08-13T14:39:22.800Z</time>
      </trkpt>
      <trkpt lat="65.74628" lon="12.47775">
        <ele>39.294997</ele>
        <time>2020-08-13T14:39:24.790Z</time>
      </trkpt>
      <trkpt lat="65.74639" lon="12.47783">
        <ele>39.262749</ele>
        <time>2020-08-13T14:39:26.825Z</time>
      </trkpt>
      <trkpt lat="65.7465" lon="12.47787">
        <ele>39.229525</ele>
        <time>2020-08-13T14:39:28.792Z</time>
      </trkpt>
      <trkpt lat="65.74661" lon="12.47791">
        <ele>39.197572</ele>
        <time>2020-08-13T14:39:30.833Z</time>
      </trkpt>
      <trkpt lat="65.74671" lon="12.47797">
        <ele>39.166633</ele>
        <time>2020-08-13T14:39:32.827Z</time>
      </trkpt>
      <trkpt lat="65.74683" lon="12.47807">
        <ele>39.131119</ele>
        <time>2020-08-13T14:39:34.827Z</time>
      </trkpt>
      <trkpt lat="65.74695" lon="12.47817">
        <ele>39.094157</ele>
        <time>2020-08-13T14:39:36.799Z</time>
      </trkpt>
      <trkpt lat="65.74707" lon="12.4783">
        <ele>39.056051</ele>
        <time>2020-08-13T14:39:38.813Z</time>
      </trkpt>
      <trkpt lat="65.74718" lon="12.4784">
        <ele>39.021955</ele>
        <time>2020-08-13T14:39:40.804Z</time>
      </trkpt>
      <trkpt lat="65.74729" lon="12.47848">
        <ele>38.98846</ele>
        <time>2020-08-13T14:39:42.817Z</time>
      </trkpt>
      <trkpt lat="65.7474" lon="12.47854">
        <ele>38.954166</ele>
        <time>2020-08-13T14:39:44.815Z</time>
      </trkpt>
      <trkpt lat="65.74752" lon="12.47861">
        <ele>38.920917</ele>
        <time>2020-08-13T14:39:46.830Z</time>
      </trkpt>
      <trkpt lat="65.74763" lon="12.47868">
        <ele>38.887608</ele>
        <time>2020-08-13T14:39:48.810Z</time>
      </trkpt>
      <trkpt lat="65.74774" lon="12.47875">
        <ele>38.852384</ele>
        <time>2020-08-13T14:39:50.829Z</time>
      </trkpt>
      <trkpt lat="65.74786" lon="12.47882">
        <ele>38.816593</ele>
        <time>2020-08-13T14:39:52.821Z</time>
      </trkpt>
      <trkpt lat="65.74798" lon="12.47889">
        <ele>38.810029</ele>
        <time>2020-08-13T14:39:54.835Z</time>
      </trkpt>
      <trkpt lat="65.74809" lon="12.47896">
        <ele>38.84875</ele>
        <time>2020-08-13T14:39:56.831Z</time>
      </trkpt>
      <trkpt lat="65.7482" lon="12.47902">
        <ele>38.887867</ele>
        <time>2020-08-13T14:39:58.807Z</time>
      </trkpt>
      <trkpt lat="65.74832" lon="12.47908">
        <ele>38.926325</ele>
        <time>2020-08-13T14:40:00.826Z</time>
      </trkpt>
      <trkpt lat="65.74843" lon="12.47915">
        <ele>38.966424</ele>
        <time>2020-08-13T14:40:02.822Z</time>
      </trkpt>
      <trkpt lat="65.74854" lon="12.47922">
        <ele>39.005732</ele>
        <time>2020-08-13T14:40:04.797Z</time>
      </trkpt>
      <trkpt lat="65.74865" lon="12.4793">
        <ele>39.043936</ele>
        <time>2020-08-13T14:40:06.840Z</time>
      </trkpt>
      <trkpt lat="65.74876" lon="12.47938">
        <ele>39.081735</ele>
        <time>2020-08-13T14:40:08.834Z</time>
      </trkpt>
      <trkpt lat="65.74886" lon="12.47946">
        <ele>39.116789</ele>
        <time>2020-08-13T14:40:10.829Z</time>
      </trkpt>
      <trkpt lat="65.74895" lon="12.47953">
        <ele>39.14983</ele>
        <time>2020-08-13T14:40:12.835Z</time>
      </trkpt>
      <trkpt lat="65.74904" lon="12.47963">
        <ele>39.182143</ele>
        <time>2020-08-13T14:40:14.796Z</time>
      </trkpt>
      <trkpt lat="65.74913" lon="12.47973">
        <ele>39.21735</ele>
        <time>2020-08-13T14:40:16.827Z</time>
      </trkpt>
      <trkpt lat="65.74923" lon="12.47983">
        <ele>39.252977</ele>
        <time>2020-08-13T14:40:18.776Z</time>
      </trkpt>
      <trkpt lat="65.74933" lon="12.47992">
        <ele>39.289474</ele>
        <time>2020-08-13T14:40:20.813Z</time>
      </trkpt>
      <trkpt lat="65.74944" lon="12.48">
        <ele>39.327233</ele>
        <time>2020-08-13T14:40:22.804Z</time>
      </trkpt>
      <trkpt lat="65.74955" lon="12.48008">
        <ele>39.366688</ele>
        <time>2020-08-13T14:40:24.796Z</time>
      </trkpt>
      <trkpt lat="65.74966" lon="12.48015">
        <ele>39.407352</ele>
        <time>2020-08-13T14:40:26.800Z</time>
      </trkpt>
      <trkpt lat="65.74977" lon="12.48022">
        <ele>39.471494</ele>
        <time>2020-08-13T14:40:28.794Z</time>
      </trkpt>
      <trkpt lat="65.74988" lon="12.48031">
        <ele>39.535233</ele>
        <time>2020-08-13T14:40:30.795Z</time>
      </trkpt>
      <trkpt lat="65.74999" lon="12.48039">
        <ele>39.598098</ele>
        <time>2020-08-13T14:40:32.788Z</time>
      </trkpt>
      <trkpt lat="65.7501" lon="12.48048">
        <ele>39.662578</ele>
        <time>2020-08-13T14:40:34.845Z</time>
      </trkpt>
      <trkpt lat="65.75021" lon="12.48057">
        <ele>39.72817</ele>
        <time>2020-08-13T14:40:36.820Z</time>
      </trkpt>
      <trkpt lat="65.75033" lon="12.48066">
        <ele>39.796399</ele>
        <time>2020-08-13T14:40:38.821Z</time>
      </trkpt>
      <trkpt lat="65.75044" lon="12.48075">
        <ele>39.862057</ele>
        <time>2020-08-13T14:40:40.793Z</time>
      </trkpt>
      <trkpt lat="65.75055" lon="12.48081">
        <ele>39.925951</ele>
        <time>2020-08-13T14:40:42.822Z</time>
      </trkpt>
      <trkpt lat="65.75067" lon="12.48089">
        <ele>39.991762</ele>
        <time>2020-08-13T14:40:44.784Z</time>
      </trkpt>
      <trkpt lat="65.75078" lon="12.48096">
        <ele>40.057697</ele>
        <time>2020-08-13T14:40:46.796Z</time>
      </trkpt>
      <trkpt lat="65.75089" lon="12.48105">
        <ele>40.122158</ele>
        <time>2020-08-13T14:40:48.795Z</time>
      </trkpt>
      <trkpt lat="65.751" lon="12.48111">
        <ele>40.18345</ele>
        <time>2020-08-13T14:40:50.802Z</time>
      </trkpt>
      <trkpt lat="65.75111" lon="12.48119">
        <ele>40.246913</ele>
        <time>2020-08-13T14:40:52.801Z</time>
      </trkpt>
      <trkpt lat="65.75122" lon="12.48127">
        <ele>40.311653</ele>
        <time>2020-08-13T14:40:54.798Z</time>
      </trkpt>
      <trkpt lat="65.75133" lon="12.48137">
        <ele>40.37883</ele>
        <time>2020-08-13T14:40:56.813Z</time>
      </trkpt>
      <trkpt lat="65.75145" lon="12.48148">
        <ele>40.392001</ele>
        <time>2020-08-13T14:40:58.817Z</time>
      </trkpt>
      <trkpt lat="65.75156" lon="12.48158">
        <ele>40.375387</ele>
        <time>2020-08-13T14:41:00.811Z</time>
      </trkpt>
      <trkpt lat="65.75168" lon="12.48166">
        <ele>40.358661</ele>
        <time>2020-08-13T14:41:02.825Z</time>
      </trkpt>
      <trkpt lat="65.75179" lon="12.48174">
        <ele>40.342185</ele>
        <time>2020-08-13T14:41:04.763Z</time>
      </trkpt>
      <trkpt lat="65.7519" lon="12.48181">
        <ele>40.326844</ele>
        <time>2020-08-13T14:41:06.791Z</time>
      </trkpt>
      <trkpt lat="65.752" lon="12.48188">
        <ele>40.311693</ele>
        <time>2020-08-13T14:41:08.802Z</time>
      </trkpt>
      <trkpt lat="65.75211" lon="12.48194">
        <ele>40.295909</ele>
        <time>2020-08-13T14:41:10.836Z</time>
      </trkpt>
      <trkpt lat="65.75222" lon="12.48202">
        <ele>40.280312</ele>
        <time>2020-08-13T14:41:12.801Z</time>
      </trkpt>
      <trkpt lat="65.75233" lon="12.4821">
        <ele>40.264862</ele>
        <time>2020-08-13T14:41:14.818Z</time>
      </trkpt>
      <trkpt lat="65.75244" lon="12.48218">
        <ele>40.248619</ele>
        <time>2020-08-13T14:41:16.812Z</time>
      </trkpt>
      <trkpt lat="65.75255" lon="12.48227">
        <ele>40.232226</ele>
        <time>2020-08-13T14:41:18.838Z</time>
      </trkpt>
      <trkpt lat="65.75266" lon="12.48236">
        <ele>40.216047</ele>
        <time>2020-08-13T14:41:20.819Z</time>
      </trkpt>
      <trkpt lat="65.75277" lon="12.48243">
        <ele>40.2003</ele>
        <time>2020-08-13T14:41:22.812Z</time>
      </trkpt>
      <trkpt lat="65.75288" lon="12.4825">
        <ele>40.185298</ele>
        <time>2020-08-13T14:41:24.807Z</time>
      </trkpt>
      <trkpt lat="65.75298" lon="12.48258">
        <ele>40.170199</ele>
        <time>2020-08-13T14:41:26.819Z</time>
      </trkpt>
      <trkpt lat="65.75309" lon="12.48269">
        <ele>40.153845</ele>
        <time>2020-08-13T14:41:28.796Z</time>
      </trkpt>
      <trkpt lat="65.75319" lon="12.48275">
        <ele>39.771946</ele>
        <time>2020-08-13T14:41:30.845Z</time>
      </trkpt>
      <trkpt lat="65.75329" lon="12.48281">
        <ele>39.392222</ele>
        <time>2020-08-13T14:41:32.811Z</time>
      </trkpt>
      <trkpt lat="65.7534" lon="12.48287">
        <ele>39.002927</ele>
        <time>2020-08-13T14:41:34.804Z</time>
      </trkpt>
      <trkpt lat="65.7535" lon="12.48294">
        <ele>38.597558</ele>
        <time>2020-08-13T14:41:36.804Z</time>
      </trkpt>
      <trkpt lat="65.75362" lon="12.48301">
        <ele>38.171758</ele>
        <time>2020-08-13T14:41:38.810Z</time>
      </trkpt>
      <trkpt lat="65.75373" lon="12.4831">
        <ele>37.730699</ele>
        <time>2020-08-13T14:41:40.811Z</time>
      </trkpt>
      <trkpt lat="65.75384" lon="12.48317">
        <ele>37.319868</ele>
        <time>2020-08-13T14:41:42.819Z</time>
      </trkpt>
      <trkpt lat="65.75395" lon="12.48325">
        <ele>36.896819</ele>
        <time>2020-08-13T14:41:44.785Z</time>
      </trkpt>
      <trkpt lat="65.75406" lon="12.48334">
        <ele>36.465077</ele>
        <time>2020-08-13T14:41:46.797Z</time>
      </trkpt>
      <trkpt lat="65.75417" lon="12.48342">
        <ele>36.038198</ele>
        <time>2020-08-13T14:41:48.796Z</time>
      </trkpt>
      <trkpt lat="65.75429" lon="12.48352">
        <ele>35.583709</ele>
        <time>2020-08-13T14:41:50.801Z</time>
      </trkpt>
      <trkpt lat="65.7544" lon="12.48362">
        <ele>35.135757</ele>
        <time>2020-08-13T14:41:52.814Z</time>
      </trkpt>
      <trkpt lat="65.75451" lon="12.48371">
        <ele>34.70309</ele>
        <time>2020-08-13T14:41:54.818Z</time>
      </trkpt>
      <trkpt lat="65.75462" lon="12.4838">
        <ele>34.280884</ele>
        <time>2020-08-13T14:41:56.818Z</time>
      </trkpt>
      <trkpt lat="65.75474" lon="12.48388">
        <ele>33.852234</ele>
        <time>2020-08-13T14:41:58.810Z</time>
      </trkpt>
      <trkpt lat="65.75485" lon="12.48396">
        <ele>33.492302</ele>
        <time>2020-08-13T14:42:00.821Z</time>
      </trkpt>
      <trkpt lat="65.75496" lon="12.48403">
        <ele>33.306052</ele>
        <time>2020-08-13T14:42:02.835Z</time>
      </trkpt>
      <trkpt lat="65.75512" lon="12.48414">
        <ele>33.034569</ele>
        <time>2020-08-13T14:42:05.783Z</time>
      </trkpt>
      <trkpt lat="65.75523" lon="12.48422">
        <ele>32.854344</ele>
        <time>2020-08-13T14:42:07.782Z</time>
      </trkpt>
      <trkpt lat="65.75534" lon="12.4843">
        <ele>32.667731</ele>
        <time>2020-08-13T14:42:09.803Z</time>
      </trkpt>
      <trkpt lat="65.75545" lon="12.48438">
        <ele>32.482856</ele>
        <time>2020-08-13T14:42:11.840Z</time>
      </trkpt>
      <trkpt lat="65.75556" lon="12.48448">
        <ele>32.294109</ele>
        <time>2020-08-13T14:42:13.802Z</time>
      </trkpt>
      <trkpt lat="65.75567" lon="12.48458">
        <ele>32.097468</ele>
        <time>2020-08-13T14:42:15.844Z</time>
      </trkpt>
      <trkpt lat="65.75579" lon="12.48468">
        <ele>31.903261</ele>
        <time>2020-08-13T14:42:17.797Z</time>
      </trkpt>
      <trkpt lat="65.7559" lon="12.48478">
        <ele>31.711025</ele>
        <time>2020-08-13T14:42:19.804Z</time>
      </trkpt>
      <trkpt lat="65.75601" lon="12.48489">
        <ele>31.519446</ele>
        <time>2020-08-13T14:42:21.829Z</time>
      </trkpt>
      <trkpt lat="65.75612" lon="12.48499">
        <ele>31.333508</ele>
        <time>2020-08-13T14:42:23.812Z</time>
      </trkpt>
      <trkpt lat="65.75623" lon="12.48508">
        <ele>31.145639</ele>
        <time>2020-08-13T14:42:25.823Z</time>
      </trkpt>
      <trkpt lat="65.75634" lon="12.48517">
        <ele>30.957284</ele>
        <time>2020-08-13T14:42:27.815Z</time>
      </trkpt>
      <trkpt lat="65.75645" lon="12.48525">
        <ele>30.769529</ele>
        <time>2020-08-13T14:42:29.830Z</time>
      </trkpt>
      <trkpt lat="65.75656" lon="12.48533">
        <ele>30.554964</ele>
        <time>2020-08-13T14:42:31.805Z</time>
      </trkpt>
      <trkpt lat="65.75667" lon="12.48541">
        <ele>30.291273</ele>
        <time>2020-08-13T14:42:33.828Z</time>
      </trkpt>
      <trkpt lat="65.75678" lon="12.48549">
        <ele>30.029752</ele>
        <time>2020-08-13T14:42:35.843Z</time>
      </trkpt>
      <trkpt lat="65.75689" lon="12.48557">
        <ele>29.771677</ele>
        <time>2020-08-13T14:42:37.830Z</time>
      </trkpt>
      <trkpt lat="65.757" lon="12.48564">
        <ele>29.508994</ele>
        <time>2020-08-13T14:42:39.823Z</time>
      </trkpt>
      <trkpt lat="65.75711" lon="12.48572">
        <ele>29.250418</ele>
        <time>2020-08-13T14:42:41.812Z</time>
      </trkpt>
      <trkpt lat="65.75722" lon="12.48581">
        <ele>28.989231</ele>
        <time>2020-08-13T14:42:43.830Z</time>
      </trkpt>
      <trkpt lat="65.75733" lon="12.48591">
        <ele>28.732162</ele>
        <time>2020-08-13T14:42:45.820Z</time>
      </trkpt>
      <trkpt lat="65.75743" lon="12.48601">
        <ele>28.478616</ele>
        <time>2020-08-13T14:42:47.825Z</time>
      </trkpt>
      <trkpt lat="65.75754" lon="12.48612">
        <ele>28.220856</ele>
        <time>2020-08-13T14:42:49.822Z</time>
      </trkpt>
      <trkpt lat="65.75764" lon="12.48624">
        <ele>27.955723</ele>
        <time>2020-08-13T14:42:51.834Z</time>
      </trkpt>
      <trkpt lat="65.75775" lon="12.48635">
        <ele>27.702852</ele>
        <time>2020-08-13T14:42:53.834Z</time>
      </trkpt>
      <trkpt lat="65.75785" lon="12.48643">
        <ele>27.45965</ele>
        <time>2020-08-13T14:42:55.833Z</time>
      </trkpt>
      <trkpt lat="65.75796" lon="12.48652">
        <ele>27.203953</ele>
        <time>2020-08-13T14:42:57.832Z</time>
      </trkpt>
      <trkpt lat="65.75807" lon="12.48662">
        <ele>26.937774</ele>
        <time>2020-08-13T14:42:59.840Z</time>
      </trkpt>
      <trkpt lat="65.75818" lon="12.48672">
        <ele>26.676588</ele>
        <time>2020-08-13T14:43:01.814Z</time>
      </trkpt>
      <trkpt lat="65.75829" lon="12.4868">
        <ele>26.730475</ele>
        <time>2020-08-13T14:43:03.827Z</time>
      </trkpt>
      <trkpt lat="65.7584" lon="12.48688">
        <ele>26.985284</ele>
        <time>2020-08-13T14:43:05.843Z</time>
      </trkpt>
      <trkpt lat="65.75851" lon="12.48696">
        <ele>27.243573</ele>
        <time>2020-08-13T14:43:07.838Z</time>
      </trkpt>
      <trkpt lat="65.75862" lon="12.48704">
        <ele>27.499164</ele>
        <time>2020-08-13T14:43:09.822Z</time>
      </trkpt>
      <trkpt lat="65.75873" lon="12.48712">
        <ele>27.75297</ele>
        <time>2020-08-13T14:43:11.807Z</time>
      </trkpt>
      <trkpt lat="65.75884" lon="12.48721">
        <ele>28.010489</ele>
        <time>2020-08-13T14:43:13.841Z</time>
      </trkpt>
      <trkpt lat="65.75895" lon="12.48729">
        <ele>28.268987</ele>
        <time>2020-08-13T14:43:15.817Z</time>
      </trkpt>
      <trkpt lat="65.75906" lon="12.48738">
        <ele>28.523567</ele>
        <time>2020-08-13T14:43:17.819Z</time>
      </trkpt>
      <trkpt lat="65.75917" lon="12.48745">
        <ele>28.77289</ele>
        <time>2020-08-13T14:43:19.820Z</time>
      </trkpt>
      <trkpt lat="65.75928" lon="12.48754">
        <ele>29.023742</ele>
        <time>2020-08-13T14:43:21.832Z</time>
      </trkpt>
      <trkpt lat="65.75939" lon="12.48762">
        <ele>29.275127</ele>
        <time>2020-08-13T14:43:23.813Z</time>
      </trkpt>
      <trkpt lat="65.7595" lon="12.48771">
        <ele>29.529058</ele>
        <time>2020-08-13T14:43:25.830Z</time>
      </trkpt>
      <trkpt lat="65.75961" lon="12.48779">
        <ele>29.781244</ele>
        <time>2020-08-13T14:43:27.854Z</time>
      </trkpt>
      <trkpt lat="65.75972" lon="12.48787">
        <ele>30.032361</ele>
        <time>2020-08-13T14:43:29.843Z</time>
      </trkpt>
      <trkpt lat="65.75983" lon="12.48795">
        <ele>30.286116</ele>
        <time>2020-08-13T14:43:31.839Z</time>
      </trkpt>
      <trkpt lat="65.75994" lon="12.48802">
        <ele>30.533135</ele>
        <time>2020-08-13T14:43:33.836Z</time>
      </trkpt>
      <trkpt lat="65.76005" lon="12.48811">
        <ele>30.714609</ele>
        <time>2020-08-13T14:43:35.808Z</time>
      </trkpt>
      <trkpt lat="65.76016" lon="12.48819">
        <ele>30.892155</ele>
        <time>2020-08-13T14:43:37.846Z</time>
      </trkpt>
      <trkpt lat="65.76027" lon="12.48827">
        <ele>31.073618</ele>
        <time>2020-08-13T14:43:39.851Z</time>
      </trkpt>
      <trkpt lat="65.76037" lon="12.48836">
        <ele>31.251317</ele>
        <time>2020-08-13T14:43:41.825Z</time>
      </trkpt>
      <trkpt lat="65.76048" lon="12.48844">
        <ele>31.428871</ele>
        <time>2020-08-13T14:43:43.822Z</time>
      </trkpt>
      <trkpt lat="65.76059" lon="12.48852">
        <ele>31.606416</ele>
        <time>2020-08-13T14:43:45.827Z</time>
      </trkpt>
      <trkpt lat="65.7607" lon="12.48862">
        <ele>31.790878</ele>
        <time>2020-08-13T14:43:47.831Z</time>
      </trkpt>
      <trkpt lat="65.76081" lon="12.48871">
        <ele>31.974703</ele>
        <time>2020-08-13T14:43:49.826Z</time>
      </trkpt>
      <trkpt lat="65.76092" lon="12.4888">
        <ele>32.158115</ele>
        <time>2020-08-13T14:43:51.831Z</time>
      </trkpt>
      <trkpt lat="65.76103" lon="12.4889">
        <ele>32.341761</ele>
        <time>2020-08-13T14:43:53.796Z</time>
      </trkpt>
      <trkpt lat="65.76115" lon="12.489">
        <ele>32.5277</ele>
        <time>2020-08-13T14:43:55.809Z</time>
      </trkpt>
      <trkpt lat="65.76126" lon="12.48908">
        <ele>32.710663</ele>
        <time>2020-08-13T14:43:57.825Z</time>
      </trkpt>
      <trkpt lat="65.76137" lon="12.48916">
        <ele>32.892911</ele>
        <time>2020-08-13T14:43:59.822Z</time>
      </trkpt>
      <trkpt lat="65.76148" lon="12.48923">
        <ele>33.076495</ele>
        <time>2020-08-13T14:44:01.838Z</time>
      </trkpt>
      <trkpt lat="65.7616" lon="12.48932">
        <ele>33.264328</ele>
        <time>2020-08-13T14:44:03.819Z</time>
      </trkpt>
      <trkpt lat="65.76171" lon="12.4894">
        <ele>33.411121</ele>
        <time>2020-08-13T14:44:05.823Z</time>
      </trkpt>
      <trkpt lat="65.76183" lon="12.4895">
        <ele>33.521589</ele>
        <time>2020-08-13T14:44:07.834Z</time>
      </trkpt>
      <trkpt lat="65.76194" lon="12.48959">
        <ele>33.628608</ele>
        <time>2020-08-13T14:44:09.822Z</time>
      </trkpt>
      <trkpt lat="65.76205" lon="12.48969">
        <ele>33.73516</ele>
        <time>2020-08-13T14:44:11.812Z</time>
      </trkpt>
      <trkpt lat="65.76216" lon="12.48981">
        <ele>33.84254</ele>
        <time>2020-08-13T14:44:13.860Z</time>
      </trkpt>
      <trkpt lat="65.76226" lon="12.48991">
        <ele>33.947363</ele>
        <time>2020-08-13T14:44:15.813Z</time>
      </trkpt>
      <trkpt lat="65.76237" lon="12.49001">
        <ele>34.051938</ele>
        <time>2020-08-13T14:44:17.826Z</time>
      </trkpt>
      <trkpt lat="65.76248" lon="12.4901">
        <ele>34.155617</ele>
        <time>2020-08-13T14:44:19.819Z</time>
      </trkpt>
      <trkpt lat="65.76258" lon="12.4902">
        <ele>34.261313</ele>
        <time>2020-08-13T14:44:21.806Z</time>
      </trkpt>
      <trkpt lat="65.76269" lon="12.49029">
        <ele>34.367983</ele>
        <time>2020-08-13T14:44:23.805Z</time>
      </trkpt>
      <trkpt lat="65.7628" lon="12.49037">
        <ele>34.469725</ele>
        <time>2020-08-13T14:44:25.839Z</time>
      </trkpt>
      <trkpt lat="65.76291" lon="12.49046">
        <ele>34.571932</ele>
        <time>2020-08-13T14:44:27.834Z</time>
      </trkpt>
      <trkpt lat="65.76301" lon="12.49054">
        <ele>34.672404</ele>
        <time>2020-08-13T14:44:29.820Z</time>
      </trkpt>
      <trkpt lat="65.76312" lon="12.49062">
        <ele>34.773701</ele>
        <time>2020-08-13T14:44:31.804Z</time>
      </trkpt>
      <trkpt lat="65.76322" lon="12.4907">
        <ele>34.875443</ele>
        <time>2020-08-13T14:44:33.831Z</time>
      </trkpt>
      <trkpt lat="65.76333" lon="12.49079">
        <ele>34.978518</ele>
        <time>2020-08-13T14:44:35.812Z</time>
      </trkpt>
      <trkpt lat="65.76344" lon="12.49088">
        <ele>34.918282</ele>
        <time>2020-08-13T14:44:37.849Z</time>
      </trkpt>
      <trkpt lat="65.76355" lon="12.49097">
        <ele>34.81975</ele>
        <time>2020-08-13T14:44:39.812Z</time>
      </trkpt>
      <trkpt lat="65.76366" lon="12.49106">
        <ele>34.723238</ele>
        <time>2020-08-13T14:44:41.825Z</time>
      </trkpt>
      <trkpt lat="65.76377" lon="12.49115">
        <ele>34.627166</ele>
        <time>2020-08-13T14:44:43.821Z</time>
      </trkpt>
      <trkpt lat="65.76388" lon="12.49125">
        <ele>34.530654</ele>
        <time>2020-08-13T14:44:45.839Z</time>
      </trkpt>
      <trkpt lat="65.764" lon="12.49134">
        <ele>34.433255</ele>
        <time>2020-08-13T14:44:47.818Z</time>
      </trkpt>
      <trkpt lat="65.76411" lon="12.49143">
        <ele>34.337586</ele>
        <time>2020-08-13T14:44:49.809Z</time>
      </trkpt>
      <trkpt lat="65.76422" lon="12.49151">
        <ele>34.243382</ele>
        <time>2020-08-13T14:44:51.829Z</time>
      </trkpt>
      <trkpt lat="65.76433" lon="12.49159">
        <ele>34.149586</ele>
        <time>2020-08-13T14:44:53.833Z</time>
      </trkpt>
      <trkpt lat="65.76443" lon="12.49168">
        <ele>34.056622</ele>
        <time>2020-08-13T14:44:55.819Z</time>
      </trkpt>
      <trkpt lat="65.76454" lon="12.49177">
        <ele>33.963305</ele>
        <time>2020-08-13T14:44:57.822Z</time>
      </trkpt>
      <trkpt lat="65.76465" lon="12.49184">
        <ele>33.871061</ele>
        <time>2020-08-13T14:44:59.823Z</time>
      </trkpt>
      <trkpt lat="65.76476" lon="12.49192">
        <ele>33.779699</ele>
        <time>2020-08-13T14:45:01.856Z</time>
      </trkpt>
      <trkpt lat="65.76486" lon="12.49199">
        <ele>33.686984</ele>
        <time>2020-08-13T14:45:03.832Z</time>
      </trkpt>
      <trkpt lat="65.76497" lon="12.49208">
        <ele>33.59377</ele>
        <time>2020-08-13T14:45:05.869Z</time>
      </trkpt>
      <trkpt lat="65.76508" lon="12.49216">
        <ele>33.473983</ele>
        <time>2020-08-13T14:45:07.809Z</time>
      </trkpt>
      <trkpt lat="65.76519" lon="12.49225">
        <ele>33.22714</ele>
        <time>2020-08-13T14:45:09.804Z</time>
      </trkpt>
      <trkpt lat="65.7653" lon="12.49234">
        <ele>32.986646</ele>
        <time>2020-08-13T14:45:11.814Z</time>
      </trkpt>
      <trkpt lat="65.76541" lon="12.49243">
        <ele>32.745873</ele>
        <time>2020-08-13T14:45:13.835Z</time>
      </trkpt>
      <trkpt lat="65.76552" lon="12.49252">
        <ele>32.502233</ele>
        <time>2020-08-13T14:45:15.804Z</time>
      </trkpt>
      <trkpt lat="65.76563" lon="12.4926">
        <ele>32.255643</ele>
        <time>2020-08-13T14:45:17.851Z</time>
      </trkpt>
      <trkpt lat="65.76574" lon="12.49269">
        <ele>32.015542</ele>
        <time>2020-08-13T14:45:19.841Z</time>
      </trkpt>
      <trkpt lat="65.76585" lon="12.49277">
        <ele>31.777687</ele>
        <time>2020-08-13T14:45:21.853Z</time>
      </trkpt>
      <trkpt lat="65.76596" lon="12.49285">
        <ele>31.543308</ele>
        <time>2020-08-13T14:45:23.830Z</time>
      </trkpt>
      <trkpt lat="65.76607" lon="12.49293">
        <ele>31.305454</ele>
        <time>2020-08-13T14:45:25.874Z</time>
      </trkpt>
      <trkpt lat="65.76618" lon="12.49302">
        <ele>31.06035</ele>
        <time>2020-08-13T14:45:27.820Z</time>
      </trkpt>
      <trkpt lat="65.76629" lon="12.4931">
        <ele>30.820745</ele>
        <time>2020-08-13T14:45:29.830Z</time>
      </trkpt>
      <trkpt lat="65.7664" lon="12.49318">
        <ele>30.583139</ele>
        <time>2020-08-13T14:45:31.825Z</time>
      </trkpt>
      <trkpt lat="65.76651" lon="12.49324">
        <ele>30.356371</ele>
        <time>2020-08-13T14:45:33.836Z</time>
      </trkpt>
      <trkpt lat="65.76661" lon="12.49332">
        <ele>30.126918</ele>
        <time>2020-08-13T14:45:35.835Z</time>
      </trkpt>
      <trkpt lat="65.76672" lon="12.49339">
        <ele>29.890278</ele>
        <time>2020-08-13T14:45:37.826Z</time>
      </trkpt>
      <trkpt lat="65.76683" lon="12.49347">
        <ele>29.701262</ele>
        <time>2020-08-13T14:45:39.833Z</time>
      </trkpt>
      <trkpt lat="65.76694" lon="12.49356">
        <ele>29.56423</ele>
        <time>2020-08-13T14:45:41.821Z</time>
      </trkpt>
      <trkpt lat="65.76705" lon="12.49366">
        <ele>29.430778</ele>
        <time>2020-08-13T14:45:43.817Z</time>
      </trkpt>
      <trkpt lat="65.76716" lon="12.49374">
        <ele>29.297227</ele>
        <time>2020-08-13T14:45:45.808Z</time>
      </trkpt>
      <trkpt lat="65.76728" lon="12.49383">
        <ele>29.161138</ele>
        <time>2020-08-13T14:45:47.817Z</time>
      </trkpt>
      <trkpt lat="65.76739" lon="12.49393">
        <ele>29.025986</ele>
        <time>2020-08-13T14:45:49.824Z</time>
      </trkpt>
      <trkpt lat="65.7675" lon="12.49402">
        <ele>28.892077</ele>
        <time>2020-08-13T14:45:51.818Z</time>
      </trkpt>
      <trkpt lat="65.76761" lon="12.49411">
        <ele>28.759257</ele>
        <time>2020-08-13T14:45:53.835Z</time>
      </trkpt>
      <trkpt lat="65.76771" lon="12.4942">
        <ele>28.627985</ele>
        <time>2020-08-13T14:45:55.812Z</time>
      </trkpt>
      <trkpt lat="65.76782" lon="12.49428">
        <ele>28.497594</ele>
        <time>2020-08-13T14:45:57.847Z</time>
      </trkpt>
      <trkpt lat="65.76793" lon="12.49436">
        <ele>28.367759</ele>
        <time>2020-08-13T14:45:59.848Z</time>
      </trkpt>
      <trkpt lat="65.76804" lon="12.49444">
        <ele>28.23765</ele>
        <time>2020-08-13T14:46:01.830Z</time>
      </trkpt>
      <trkpt lat="65.76815" lon="12.49452">
        <ele>28.108216</ele>
        <time>2020-08-13T14:46:03.806Z</time>
      </trkpt>
      <trkpt lat="65.76825" lon="12.49459">
        <ele>27.981125</ele>
        <time>2020-08-13T14:46:05.851Z</time>
      </trkpt>
      <trkpt lat="65.76836" lon="12.49466">
        <ele>27.856767</ele>
        <time>2020-08-13T14:46:07.830Z</time>
      </trkpt>
      <trkpt lat="65.76846" lon="12.49474">
        <ele>27.72941</ele>
        <time>2020-08-13T14:46:09.794Z</time>
      </trkpt>
      <trkpt lat="65.76857" lon="12.49483">
        <ele>27.584191</ele>
        <time>2020-08-13T14:46:11.828Z</time>
      </trkpt>
      <trkpt lat="65.76867" lon="12.49492">
        <ele>27.435674</ele>
        <time>2020-08-13T14:46:13.833Z</time>
      </trkpt>
      <trkpt lat="65.76878" lon="12.495">
        <ele>27.286743</ele>
        <time>2020-08-13T14:46:15.828Z</time>
      </trkpt>
      <trkpt lat="65.76889" lon="12.49508">
        <ele>27.137813</ele>
        <time>2020-08-13T14:46:17.832Z</time>
      </trkpt>
      <trkpt lat="65.76899" lon="12.49517">
        <ele>26.983694</ele>
        <time>2020-08-13T14:46:19.821Z</time>
      </trkpt>
      <trkpt lat="65.76911" lon="12.49526">
        <ele>26.820999</ele>
        <time>2020-08-13T14:46:21.840Z</time>
      </trkpt>
      <trkpt lat="65.76923" lon="12.49535">
        <ele>26.656195</ele>
        <time>2020-08-13T14:46:23.831Z</time>
      </trkpt>
      <trkpt lat="65.76934" lon="12.49545">
        <ele>26.491783</ele>
        <time>2020-08-13T14:46:25.827Z</time>
      </trkpt>
      <trkpt lat="65.76946" lon="12.49555">
        <ele>26.328084</ele>
        <time>2020-08-13T14:46:27.832Z</time>
      </trkpt>
      <trkpt lat="65.76957" lon="12.49565">
        <ele>26.164937</ele>
        <time>2020-08-13T14:46:29.824Z</time>
      </trkpt>
      <trkpt lat="65.76969" lon="12.49575">
        <ele>26.00179</ele>
        <time>2020-08-13T14:46:31.775Z</time>
      </trkpt>
      <trkpt lat="65.7698" lon="12.49584">
        <ele>25.843876</ele>
        <time>2020-08-13T14:46:33.810Z</time>
      </trkpt>
      <trkpt lat="65.76991" lon="12.49594">
        <ele>25.684329</ele>
        <time>2020-08-13T14:46:35.806Z</time>
      </trkpt>
      <trkpt lat="65.77002" lon="12.49605">
        <ele>25.523824</ele>
        <time>2020-08-13T14:46:37.800Z</time>
      </trkpt>
      <trkpt lat="65.77014" lon="12.49614">
        <ele>25.362123</ele>
        <time>2020-08-13T14:46:39.830Z</time>
      </trkpt>
      <trkpt lat="65.77025" lon="12.49623">
        <ele>25.444497</ele>
        <time>2020-08-13T14:46:41.819Z</time>
      </trkpt>
      <trkpt lat="65.77036" lon="12.49631">
        <ele>25.785463</ele>
        <time>2020-08-13T14:46:43.801Z</time>
      </trkpt>
      <trkpt lat="65.77046" lon="12.49639">
        <ele>26.092041</ele>
        <time>2020-08-13T14:46:45.830Z</time>
      </trkpt>
      <trkpt lat="65.77057" lon="12.49647">
        <ele>26.415639</ele>
        <time>2020-08-13T14:46:47.796Z</time>
      </trkpt>
      <trkpt lat="65.77068" lon="12.49654">
        <ele>26.732788</ele>
        <time>2020-08-13T14:46:49.810Z</time>
      </trkpt>
      <trkpt lat="65.77079" lon="12.49662">
        <ele>27.047874</ele>
        <time>2020-08-13T14:46:51.827Z</time>
      </trkpt>
      <trkpt lat="65.77089" lon="12.4967">
        <ele>27.350443</ele>
        <time>2020-08-13T14:46:53.808Z</time>
      </trkpt>
      <trkpt lat="65.771" lon="12.49679">
        <ele>27.675241</ele>
        <time>2020-08-13T14:46:55.846Z</time>
      </trkpt>
      <trkpt lat="65.7711" lon="12.49688">
        <ele>27.991587</ele>
        <time>2020-08-13T14:46:57.812Z</time>
      </trkpt>
      <trkpt lat="65.7712" lon="12.49696">
        <ele>28.297488</ele>
        <time>2020-08-13T14:46:59.815Z</time>
      </trkpt>
      <trkpt lat="65.77131" lon="12.49703">
        <ele>28.602085</ele>
        <time>2020-08-13T14:47:01.807Z</time>
      </trkpt>
      <trkpt lat="65.77141" lon="12.4971">
        <ele>28.911047</ele>
        <time>2020-08-13T14:47:03.809Z</time>
      </trkpt>
      <trkpt lat="65.77152" lon="12.4972">
        <ele>29.232837</ele>
        <time>2020-08-13T14:47:05.799Z</time>
      </trkpt>
      <trkpt lat="65.77162" lon="12.49728">
        <ele>29.537751</ele>
        <time>2020-08-13T14:47:07.834Z</time>
      </trkpt>
      <trkpt lat="65.77172" lon="12.49737">
        <ele>29.843768</ele>
        <time>2020-08-13T14:47:09.827Z</time>
      </trkpt>
      <trkpt lat="65.77182" lon="12.49746">
        <ele>30.144856</ele>
        <time>2020-08-13T14:47:11.795Z</time>
      </trkpt>
      <trkpt lat="65.77192" lon="12.49756">
        <ele>30.453306</ele>
        <time>2020-08-13T14:47:13.822Z</time>
      </trkpt>
      <trkpt lat="65.77203" lon="12.49765">
        <ele>30.72512</ele>
        <time>2020-08-13T14:47:15.815Z</time>
      </trkpt>
      <trkpt lat="65.77213" lon="12.49773">
        <ele>30.992979</ele>
        <time>2020-08-13T14:47:17.842Z</time>
      </trkpt>
      <trkpt lat="65.77223" lon="12.49781">
        <ele>31.26382</ele>
        <time>2020-08-13T14:47:19.809Z</time>
      </trkpt>
      <trkpt lat="65.77234" lon="12.49789">
        <ele>31.539073</ele>
        <time>2020-08-13T14:47:21.851Z</time>
      </trkpt>
      <trkpt lat="65.77245" lon="12.49797">
        <ele>31.82237</ele>
        <time>2020-08-13T14:47:23.820Z</time>
      </trkpt>
      <trkpt lat="65.77256" lon="12.49805">
        <ele>32.109179</ele>
        <time>2020-08-13T14:47:25.816Z</time>
      </trkpt>
      <trkpt lat="65.77267" lon="12.49812">
        <ele>32.399907</ele>
        <time>2020-08-13T14:47:27.804Z</time>
      </trkpt>
      <trkpt lat="65.77279" lon="12.4982">
        <ele>32.696232</ele>
        <time>2020-08-13T14:47:29.812Z</time>
      </trkpt>
      <trkpt lat="65.7729" lon="12.49829">
        <ele>32.988081</ele>
        <time>2020-08-13T14:47:31.840Z</time>
      </trkpt>
      <trkpt lat="65.77301" lon="12.49837">
        <ele>33.273102</ele>
        <time>2020-08-13T14:47:33.856Z</time>
      </trkpt>
      <trkpt lat="65.77312" lon="12.49845">
        <ele>33.55696</ele>
        <time>2020-08-13T14:47:35.820Z</time>
      </trkpt>
      <trkpt lat="65.77323" lon="12.49853">
        <ele>33.847315</ele>
        <time>2020-08-13T14:47:37.815Z</time>
      </trkpt>
      <trkpt lat="65.77335" lon="12.49862">
        <ele>34.143005</ele>
        <time>2020-08-13T14:47:39.807Z</time>
      </trkpt>
      <trkpt lat="65.77346" lon="12.4987">
        <ele>34.430993</ele>
        <time>2020-08-13T14:47:41.841Z</time>
      </trkpt>
      <trkpt lat="65.77357" lon="12.49879">
        <ele>34.724929</ele>
        <time>2020-08-13T14:47:43.856Z</time>
      </trkpt>
      <trkpt lat="65.77368" lon="12.49887">
        <ele>34.599503</ele>
        <time>2020-08-13T14:47:45.821Z</time>
      </trkpt>
      <trkpt lat="65.77379" lon="12.49895">
        <ele>34.118396</ele>
        <time>2020-08-13T14:47:47.822Z</time>
      </trkpt>
      <trkpt lat="65.7739" lon="12.49903">
        <ele>33.63978</ele>
        <time>2020-08-13T14:47:49.814Z</time>
      </trkpt>
      <trkpt lat="65.77401" lon="12.49912">
        <ele>33.163168</ele>
        <time>2020-08-13T14:47:51.816Z</time>
      </trkpt>
      <trkpt lat="65.77412" lon="12.4992">
        <ele>32.696351</ele>
        <time>2020-08-13T14:47:53.824Z</time>
      </trkpt>
      <trkpt lat="65.77422" lon="12.4993">
        <ele>32.216556</ele>
        <time>2020-08-13T14:47:55.832Z</time>
      </trkpt>
      <trkpt lat="65.77434" lon="12.49939">
        <ele>31.727228</ele>
        <time>2020-08-13T14:47:57.827Z</time>
      </trkpt>
      <trkpt lat="65.77445" lon="12.49948">
        <ele>31.2379</ele>
        <time>2020-08-13T14:47:59.854Z</time>
      </trkpt>
      <trkpt lat="65.77456" lon="12.49958">
        <ele>30.755904</ele>
        <time>2020-08-13T14:48:01.816Z</time>
      </trkpt>
      <trkpt lat="65.77466" lon="12.49967">
        <ele>30.273908</ele>
        <time>2020-08-13T14:48:03.842Z</time>
      </trkpt>
      <trkpt lat="65.77477" lon="12.49976">
        <ele>29.802591</ele>
        <time>2020-08-13T14:48:05.850Z</time>
      </trkpt>
      <trkpt lat="65.77488" lon="12.49984">
        <ele>29.319488</ele>
        <time>2020-08-13T14:48:07.837Z</time>
      </trkpt>
      <trkpt lat="65.77499" lon="12.49992">
        <ele>28.837346</ele>
        <time>2020-08-13T14:48:09.831Z</time>
      </trkpt>
      <trkpt lat="65.7751" lon="12.5">
        <ele>28.358649</ele>
        <time>2020-08-13T14:48:11.818Z</time>
      </trkpt>
      <trkpt lat="65.77521" lon="12.50009">
        <ele>27.886226</ele>
        <time>2020-08-13T14:48:13.806Z</time>
      </trkpt>
      <trkpt lat="65.77532" lon="12.50018">
        <ele>27.41718</ele>
        <time>2020-08-13T14:48:15.821Z</time>
      </trkpt>
      <trkpt lat="65.77542" lon="12.50028">
        <ele>27.264677</ele>
        <time>2020-08-13T14:48:17.786Z</time>
      </trkpt>
      <trkpt lat="65.77553" lon="12.50038">
        <ele>27.164422</ele>
        <time>2020-08-13T14:48:19.819Z</time>
      </trkpt>
      <trkpt lat="65.77564" lon="12.50047">
        <ele>27.062679</ele>
        <time>2020-08-13T14:48:21.824Z</time>
      </trkpt>
      <trkpt lat="65.77575" lon="12.50056">
        <ele>26.961401</ele>
        <time>2020-08-13T14:48:23.817Z</time>
      </trkpt>
      <trkpt lat="65.77586" lon="12.50065">
        <ele>26.857154</ele>
        <time>2020-08-13T14:48:25.814Z</time>
      </trkpt>
      <trkpt lat="65.77597" lon="12.50073">
        <ele>26.756321</ele>
        <time>2020-08-13T14:48:27.813Z</time>
      </trkpt>
      <trkpt lat="65.77608" lon="12.50081">
        <ele>26.65567</ele>
        <time>2020-08-13T14:48:29.814Z</time>
      </trkpt>
      <trkpt lat="65.77619" lon="12.50088">
        <ele>26.555486</ele>
        <time>2020-08-13T14:48:31.815Z</time>
      </trkpt>
      <trkpt lat="65.7763" lon="12.50094">
        <ele>26.453592</ele>
        <time>2020-08-13T14:48:33.818Z</time>
      </trkpt>
      <trkpt lat="65.77641" lon="12.50101">
        <ele>26.353758</ele>
        <time>2020-08-13T14:48:35.821Z</time>
      </trkpt>
      <trkpt lat="65.77652" lon="12.50108">
        <ele>26.254336</ele>
        <time>2020-08-13T14:48:37.816Z</time>
      </trkpt>
      <trkpt lat="65.77663" lon="12.50115">
        <ele>26.153685</ele>
        <time>2020-08-13T14:48:39.807Z</time>
      </trkpt>
      <trkpt lat="65.77674" lon="12.50124">
        <ele>26.052119</ele>
        <time>2020-08-13T14:48:41.829Z</time>
      </trkpt>
      <trkpt lat="65.77685" lon="12.50132">
        <ele>25.949277</ele>
        <time>2020-08-13T14:48:43.817Z</time>
      </trkpt>
      <trkpt lat="65.77696" lon="12.50142">
        <ele>25.845269</ele>
        <time>2020-08-13T14:48:45.808Z</time>
      </trkpt>
      <trkpt lat="65.77707" lon="12.50151">
        <ele>25.777348</ele>
        <time>2020-08-13T14:48:47.813Z</time>
      </trkpt>
      <trkpt lat="65.77718" lon="12.5016">
        <ele>25.825293</ele>
        <time>2020-08-13T14:48:49.809Z</time>
      </trkpt>
      <trkpt lat="65.77729" lon="12.50169">
        <ele>25.872083</ele>
        <time>2020-08-13T14:48:51.804Z</time>
      </trkpt>
      <trkpt lat="65.7774" lon="12.50177">
        <ele>25.920055</ele>
        <time>2020-08-13T14:48:53.815Z</time>
      </trkpt>
      <trkpt lat="65.77752" lon="12.50185">
        <ele>25.968322</ele>
        <time>2020-08-13T14:48:55.804Z</time>
      </trkpt>
      <trkpt lat="65.77763" lon="12.50193">
        <ele>26.015774</ele>
        <time>2020-08-13T14:48:57.803Z</time>
      </trkpt>
      <trkpt lat="65.77774" lon="12.502">
        <ele>26.062873</ele>
        <time>2020-08-13T14:48:59.834Z</time>
      </trkpt>
      <trkpt lat="65.77784" lon="12.50208">
        <ele>26.108969</ele>
        <time>2020-08-13T14:49:01.808Z</time>
      </trkpt>
      <trkpt lat="65.77795" lon="12.50216">
        <ele>26.155759</ele>
        <time>2020-08-13T14:49:03.817Z</time>
      </trkpt>
      <trkpt lat="65.77806" lon="12.50225">
        <ele>26.202423</ele>
        <time>2020-08-13T14:49:05.809Z</time>
      </trkpt>
      <trkpt lat="65.77817" lon="12.50235">
        <ele>26.24931</ele>
        <time>2020-08-13T14:49:07.803Z</time>
      </trkpt>
      <trkpt lat="65.77827" lon="12.50243">
        <ele>26.296364</ele>
        <time>2020-08-13T14:49:09.797Z</time>
      </trkpt>
      <trkpt lat="65.77838" lon="12.50251">
        <ele>26.341621</ele>
        <time>2020-08-13T14:49:11.814Z</time>
      </trkpt>
      <trkpt lat="65.77849" lon="12.50259">
        <ele>26.387915</ele>
        <time>2020-08-13T14:49:13.820Z</time>
      </trkpt>
      <trkpt lat="65.77859" lon="12.50269">
        <ele>26.434917</ele>
        <time>2020-08-13T14:49:15.809Z</time>
      </trkpt>
      <trkpt lat="65.7787" lon="12.5028">
        <ele>26.48412</ele>
        <time>2020-08-13T14:49:17.783Z</time>
      </trkpt>
      <trkpt lat="65.77881" lon="12.50291">
        <ele>26.486817</ele>
        <time>2020-08-13T14:49:19.796Z</time>
      </trkpt>
      <trkpt lat="65.77893" lon="12.50299">
        <ele>26.447955</ele>
        <time>2020-08-13T14:49:21.841Z</time>
      </trkpt>
      <trkpt lat="65.77904" lon="12.50308">
        <ele>26.409175</ele>
        <time>2020-08-13T14:49:23.797Z</time>
      </trkpt>
      <trkpt lat="65.77915" lon="12.50316">
        <ele>26.369914</ele>
        <time>2020-08-13T14:49:25.811Z</time>
      </trkpt>
      <trkpt lat="65.77926" lon="12.50324">
        <ele>26.331613</ele>
        <time>2020-08-13T14:49:27.829Z</time>
      </trkpt>
      <trkpt lat="65.77937" lon="12.50332">
        <ele>26.293152</ele>
        <time>2020-08-13T14:49:29.849Z</time>
      </trkpt>
      <trkpt lat="65.77948" lon="12.50339">
        <ele>26.256099</ele>
        <time>2020-08-13T14:49:31.841Z</time>
      </trkpt>
      <trkpt lat="65.77959" lon="12.50346">
        <ele>26.218132</ele>
        <time>2020-08-13T14:49:33.855Z</time>
      </trkpt>
      <trkpt lat="65.77969" lon="12.50354">
        <ele>26.180829</ele>
        <time>2020-08-13T14:49:35.813Z</time>
      </trkpt>
      <trkpt lat="65.7798" lon="12.50362">
        <ele>26.14387</ele>
        <time>2020-08-13T14:49:37.829Z</time>
      </trkpt>
      <trkpt lat="65.77991" lon="12.50372">
        <ele>26.104618</ele>
        <time>2020-08-13T14:49:39.821Z</time>
      </trkpt>
      <trkpt lat="65.78002" lon="12.50382">
        <ele>26.064791</ele>
        <time>2020-08-13T14:49:41.829Z</time>
      </trkpt>
      <trkpt lat="65.78013" lon="12.50392">
        <ele>26.024818</ele>
        <time>2020-08-13T14:49:43.799Z</time>
      </trkpt>
      <trkpt lat="65.78025" lon="12.50402">
        <ele>25.984829</ele>
        <time>2020-08-13T14:49:45.820Z</time>
      </trkpt>
      <trkpt lat="65.78036" lon="12.50412">
        <ele>25.944404</ele>
        <time>2020-08-13T14:49:47.836Z</time>
      </trkpt>
      <trkpt lat="65.78047" lon="12.50422">
        <ele>25.887694</ele>
        <time>2020-08-13T14:49:49.835Z</time>
      </trkpt>
      <trkpt lat="65.78059" lon="12.50432">
        <ele>25.651347</ele>
        <time>2020-08-13T14:49:51.818Z</time>
      </trkpt>
      <trkpt lat="65.7807" lon="12.50441">
        <ele>25.419748</ele>
        <time>2020-08-13T14:49:53.849Z</time>
      </trkpt>
      <trkpt lat="65.78081" lon="12.5045">
        <ele>25.187092</ele>
        <time>2020-08-13T14:49:55.876Z</time>
      </trkpt>
      <trkpt lat="65.78093" lon="12.50457">
        <ele>24.959527</ele>
        <time>2020-08-13T14:49:57.832Z</time>
      </trkpt>
      <trkpt lat="65.78104" lon="12.50465">
        <ele>24.734063</ele>
        <time>2020-08-13T14:49:59.809Z</time>
      </trkpt>
      <trkpt lat="65.78115" lon="12.50472">
        <ele>24.512587</ele>
        <time>2020-08-13T14:50:01.803Z</time>
      </trkpt>
      <trkpt lat="65.78126" lon="12.5048">
        <ele>24.288348</ele>
        <time>2020-08-13T14:50:03.820Z</time>
      </trkpt>
      <trkpt lat="65.78136" lon="12.50488">
        <ele>24.064584</ele>
        <time>2020-08-13T14:50:05.817Z</time>
      </trkpt>
      <trkpt lat="65.78148" lon="12.50498">
        <ele>23.833243</ele>
        <time>2020-08-13T14:50:07.810Z</time>
      </trkpt>
      <trkpt lat="65.78159" lon="12.50508">
        <ele>23.599005</ele>
        <time>2020-08-13T14:50:09.789Z</time>
      </trkpt>
      <trkpt lat="65.78169" lon="12.50519">
        <ele>23.378973</ele>
        <time>2020-08-13T14:50:11.820Z</time>
      </trkpt>
      <trkpt lat="65.7818" lon="12.5053">
        <ele>23.157386</ele>
        <time>2020-08-13T14:50:13.779Z</time>
      </trkpt>
      <trkpt lat="65.7819" lon="12.5054">
        <ele>22.936141</ele>
        <time>2020-08-13T14:50:15.797Z</time>
      </trkpt>
      <trkpt lat="65.78201" lon="12.50549">
        <ele>22.718807</ele>
        <time>2020-08-13T14:50:17.809Z</time>
      </trkpt>
      <trkpt lat="65.78211" lon="12.50558">
        <ele>22.501415</ele>
        <time>2020-08-13T14:50:19.831Z</time>
      </trkpt>
      <trkpt lat="65.78222" lon="12.50567">
        <ele>22.38971</ele>
        <time>2020-08-13T14:50:21.785Z</time>
      </trkpt>
      <trkpt lat="65.78232" lon="12.50575">
        <ele>22.395035</ele>
        <time>2020-08-13T14:50:23.804Z</time>
      </trkpt>
      <trkpt lat="65.78243" lon="12.50584">
        <ele>22.400619</ele>
        <time>2020-08-13T14:50:25.788Z</time>
      </trkpt>
      <trkpt lat="65.78253" lon="12.50593">
        <ele>22.406243</ele>
        <time>2020-08-13T14:50:27.799Z</time>
      </trkpt>
      <trkpt lat="65.78264" lon="12.50602">
        <ele>22.411935</ele>
        <time>2020-08-13T14:50:29.804Z</time>
      </trkpt>
      <trkpt lat="65.78276" lon="12.50609">
        <ele>22.417644</ele>
        <time>2020-08-13T14:50:31.791Z</time>
      </trkpt>
      <trkpt lat="65.78287" lon="12.50617">
        <ele>22.42336</ele>
        <time>2020-08-13T14:50:33.784Z</time>
      </trkpt>
      <trkpt lat="65.78297" lon="12.50627">
        <ele>22.428985</ele>
        <time>2020-08-13T14:50:35.794Z</time>
      </trkpt>
      <trkpt lat="65.78308" lon="12.50636">
        <ele>22.434622</ele>
        <time>2020-08-13T14:50:37.806Z</time>
      </trkpt>
      <trkpt lat="65.78319" lon="12.50645">
        <ele>22.440393</ele>
        <time>2020-08-13T14:50:39.805Z</time>
      </trkpt>
      <trkpt lat="65.7833" lon="12.50653">
        <ele>22.446008</ele>
        <time>2020-08-13T14:50:41.798Z</time>
      </trkpt>
      <trkpt lat="65.78341" lon="12.50663">
        <ele>22.451832</ele>
        <time>2020-08-13T14:50:43.793Z</time>
      </trkpt>
      <trkpt lat="65.78353" lon="12.50672">
        <ele>22.457838</ele>
        <time>2020-08-13T14:50:45.805Z</time>
      </trkpt>
      <trkpt lat="65.78364" lon="12.5068">
        <ele>22.463719</ele>
        <time>2020-08-13T14:50:47.796Z</time>
      </trkpt>
      <trkpt lat="65.78376" lon="12.50689">
        <ele>22.469565</ele>
        <time>2020-08-13T14:50:49.817Z</time>
      </trkpt>
      <trkpt lat="65.78386" lon="12.50697">
        <ele>22.475163</ele>
        <time>2020-08-13T14:50:51.806Z</time>
      </trkpt>
      <trkpt lat="65.78397" lon="12.50707">
        <ele>22.884598</ele>
        <time>2020-08-13T14:50:53.802Z</time>
      </trkpt>
      <trkpt lat="65.78408" lon="12.50716">
        <ele>23.348028</ele>
        <time>2020-08-13T14:50:55.805Z</time>
      </trkpt>
      <trkpt lat="65.78419" lon="12.50723">
        <ele>23.818038</ele>
        <time>2020-08-13T14:50:57.796Z</time>
      </trkpt>
      <trkpt lat="65.78431" lon="12.5073">
        <ele>24.303816</ele>
        <time>2020-08-13T14:50:59.772Z</time>
      </trkpt>
      <trkpt lat="65.78442" lon="12.50736">
        <ele>24.786562</ele>
        <time>2020-08-13T14:51:01.836Z</time>
      </trkpt>
      <trkpt lat="65.78454" lon="12.50743">
        <ele>25.275892</ele>
        <time>2020-08-13T14:51:03.801Z</time>
      </trkpt>
      <trkpt lat="65.78465" lon="12.50749">
        <ele>25.760492</ele>
        <time>2020-08-13T14:51:05.832Z</time>
      </trkpt>
      <trkpt lat="65.78477" lon="12.50756">
        <ele>26.240752</ele>
        <time>2020-08-13T14:51:07.849Z</time>
      </trkpt>
      <trkpt lat="65.78488" lon="12.50762">
        <ele>26.698603</ele>
        <time>2020-08-13T14:51:09.789Z</time>
      </trkpt>
      <trkpt lat="65.78499" lon="12.50768">
        <ele>27.165112</ele>
        <time>2020-08-13T14:51:11.801Z</time>
      </trkpt>
      <trkpt lat="65.78511" lon="12.50774">
        <ele>27.643179</ele>
        <time>2020-08-13T14:51:13.811Z</time>
      </trkpt>
      <trkpt lat="65.78522" lon="12.50779">
        <ele>28.119571</ele>
        <time>2020-08-13T14:51:15.776Z</time>
      </trkpt>
      <trkpt lat="65.78534" lon="12.50786">
        <ele>28.59799</ele>
        <time>2020-08-13T14:51:17.806Z</time>
      </trkpt>
      <trkpt lat="65.78545" lon="12.50792">
        <ele>29.085064</ele>
        <time>2020-08-13T14:51:19.825Z</time>
      </trkpt>
      <trkpt lat="65.78558" lon="12.50798">
        <ele>29.590991</ele>
        <time>2020-08-13T14:51:21.786Z</time>
      </trkpt>
      <trkpt lat="65.7857" lon="12.50803">
        <ele>30.305986</ele>
        <time>2020-08-13T14:51:23.813Z</time>
      </trkpt>
      <trkpt lat="65.78582" lon="12.50807">
        <ele>31.183994</ele>
        <time>2020-08-13T14:51:25.871Z</time>
      </trkpt>
      <trkpt lat="65.78594" lon="12.50811">
        <ele>32.018816</ele>
        <time>2020-08-13T14:51:27.802Z</time>
      </trkpt>
      <trkpt lat="65.78605" lon="12.50815">
        <ele>32.852834</ele>
        <time>2020-08-13T14:51:29.823Z</time>
      </trkpt>
      <trkpt lat="65.78617" lon="12.50819">
        <ele>33.693092</ele>
        <time>2020-08-13T14:51:31.801Z</time>
      </trkpt>
      <trkpt lat="65.78629" lon="12.50822">
        <ele>34.53263</ele>
        <time>2020-08-13T14:51:33.810Z</time>
      </trkpt>
      <trkpt lat="65.78641" lon="12.50826">
        <ele>35.372887</ele>
        <time>2020-08-13T14:51:35.794Z</time>
      </trkpt>
      <trkpt lat="65.78652" lon="12.5083">
        <ele>36.214701</ele>
        <time>2020-08-13T14:51:37.798Z</time>
      </trkpt>
      <trkpt lat="65.78664" lon="12.50835">
        <ele>37.051706</ele>
        <time>2020-08-13T14:51:39.841Z</time>
      </trkpt>
      <trkpt lat="65.78676" lon="12.5084">
        <ele>37.910091</ele>
        <time>2020-08-13T14:51:41.807Z</time>
      </trkpt>
      <trkpt lat="65.78688" lon="12.50844">
        <ele>38.740124</ele>
        <time>2020-08-13T14:51:43.820Z</time>
      </trkpt>
      <trkpt lat="65.78699" lon="12.50848">
        <ele>39.552756</ele>
        <time>2020-08-13T14:51:45.862Z</time>
      </trkpt>
      <trkpt lat="65.7871" lon="12.50852">
        <ele>40.359625</ele>
        <time>2020-08-13T14:51:47.782Z</time>
      </trkpt>
      <trkpt lat="65.78722" lon="12.50857">
        <ele>41.155313</ele>
        <time>2020-08-13T14:51:49.818Z</time>
      </trkpt>
      <trkpt lat="65.78733" lon="12.50862">
        <ele>41.987285</ele>
        <time>2020-08-13T14:51:51.814Z</time>
      </trkpt>
      <trkpt lat="65.78745" lon="12.50866">
        <ele>42.506943</ele>
        <time>2020-08-13T14:51:53.794Z</time>
      </trkpt>
      <trkpt lat="65.78757" lon="12.50871">
        <ele>42.547691</ele>
        <time>2020-08-13T14:51:55.817Z</time>
      </trkpt>
      <trkpt lat="65.78769" lon="12.50875">
        <ele>42.586986</ele>
        <time>2020-08-13T14:51:57.783Z</time>
      </trkpt>
      <trkpt lat="65.78781" lon="12.50878">
        <ele>42.62628</ele>
        <time>2020-08-13T14:51:59.802Z</time>
      </trkpt>
      <trkpt lat="65.78792" lon="12.50882">
        <ele>42.665209</ele>
        <time>2020-08-13T14:52:01.810Z</time>
      </trkpt>
      <trkpt lat="65.78804" lon="12.50885">
        <ele>42.704105</ele>
        <time>2020-08-13T14:52:03.800Z</time>
      </trkpt>
      <trkpt lat="65.78815" lon="12.50888">
        <ele>42.742248</ele>
        <time>2020-08-13T14:52:05.784Z</time>
      </trkpt>
      <trkpt lat="65.78827" lon="12.50891">
        <ele>42.781428</ele>
        <time>2020-08-13T14:52:07.839Z</time>
      </trkpt>
      <trkpt lat="65.78838" lon="12.50894">
        <ele>42.820262</ele>
        <time>2020-08-13T14:52:09.800Z</time>
      </trkpt>
      <trkpt lat="65.78849" lon="12.50898">
        <ele>42.856978</ele>
        <time>2020-08-13T14:52:11.821Z</time>
      </trkpt>
      <trkpt lat="65.7886" lon="12.50902">
        <ele>42.894257</ele>
        <time>2020-08-13T14:52:13.813Z</time>
      </trkpt>
      <trkpt lat="65.78871" lon="12.50906">
        <ele>42.930359</ele>
        <time>2020-08-13T14:52:15.828Z</time>
      </trkpt>
      <trkpt lat="65.78882" lon="12.50911">
        <ele>42.96646</ele>
        <time>2020-08-13T14:52:17.798Z</time>
      </trkpt>
      <trkpt lat="65.78893" lon="12.50915">
        <ele>43.005213</ele>
        <time>2020-08-13T14:52:19.830Z</time>
      </trkpt>
      <trkpt lat="65.78905" lon="12.50919">
        <ele>43.045516</ele>
        <time>2020-08-13T14:52:21.778Z</time>
      </trkpt>
      <trkpt lat="65.78917" lon="12.50923">
        <ele>43.083898</ele>
        <time>2020-08-13T14:52:23.775Z</time>
      </trkpt>
      <trkpt lat="65.78928" lon="12.50927">
        <ele>42.923383</ele>
        <time>2020-08-13T14:52:25.804Z</time>
      </trkpt>
      <trkpt lat="65.7894" lon="12.50931">
        <ele>42.711058</ele>
        <time>2020-08-13T14:52:27.822Z</time>
      </trkpt>
      <trkpt lat="65.78952" lon="12.50935">
        <ele>42.503179</ele>
        <time>2020-08-13T14:52:29.803Z</time>
      </trkpt>
      <trkpt lat="65.78964" lon="12.5094">
        <ele>42.30333</ele>
        <time>2020-08-13T14:52:31.824Z</time>
      </trkpt>
      <trkpt lat="65.78975" lon="12.50945">
        <ele>42.101674</ele>
        <time>2020-08-13T14:52:33.814Z</time>
      </trkpt>
      <trkpt lat="65.78987" lon="12.50949">
        <ele>41.902578</ele>
        <time>2020-08-13T14:52:35.792Z</time>
      </trkpt>
      <trkpt lat="65.78998" lon="12.50953">
        <ele>41.708255</ele>
        <time>2020-08-13T14:52:37.812Z</time>
      </trkpt>
      <trkpt lat="65.79009" lon="12.50957">
        <ele>41.512845</ele>
        <time>2020-08-13T14:52:39.802Z</time>
      </trkpt>
      <trkpt lat="65.79021" lon="12.50961">
        <ele>41.314802</ele>
        <time>2020-08-13T14:52:41.793Z</time>
      </trkpt>
      <trkpt lat="65.79032" lon="12.50966">
        <ele>41.123519</ele>
        <time>2020-08-13T14:52:43.808Z</time>
      </trkpt>
      <trkpt lat="65.79043" lon="12.50971">
        <ele>40.933554</ele>
        <time>2020-08-13T14:52:45.850Z</time>
      </trkpt>
      <trkpt lat="65.79054" lon="12.50976">
        <ele>40.74333</ele>
        <time>2020-08-13T14:52:47.788Z</time>
      </trkpt>
      <trkpt lat="65.79065" lon="12.5098">
        <ele>40.55261</ele>
        <time>2020-08-13T14:52:49.786Z</time>
      </trkpt>
      <trkpt lat="65.79076" lon="12.50984">
        <ele>40.355211</ele>
        <time>2020-08-13T14:52:51.820Z</time>
      </trkpt>
      <trkpt lat="65.79088" lon="12.50987">
        <ele>40.155282</ele>
        <time>2020-08-13T14:52:53.792Z</time>
      </trkpt>
      <trkpt lat="65.79099" lon="12.5099">
        <ele>40.0156</ele>
        <time>2020-08-13T14:52:55.799Z</time>
      </trkpt>
      <trkpt lat="65.79111" lon="12.50993">
        <ele>40.050789</ele>
        <time>2020-08-13T14:52:57.798Z</time>
      </trkpt>
      <trkpt lat="65.79123" lon="12.50997">
        <ele>40.085721</ele>
        <time>2020-08-13T14:52:59.794Z</time>
      </trkpt>
      <trkpt lat="65.79135" lon="12.51001">
        <ele>40.120076</ele>
        <time>2020-08-13T14:53:01.798Z</time>
      </trkpt>
      <trkpt lat="65.79146" lon="12.51004">
        <ele>40.154067</ele>
        <time>2020-08-13T14:53:03.820Z</time>
      </trkpt>
      <trkpt lat="65.79158" lon="12.51008">
        <ele>40.189227</ele>
        <time>2020-08-13T14:53:05.807Z</time>
      </trkpt>
      <trkpt lat="65.79171" lon="12.51011">
        <ele>40.224662</ele>
        <time>2020-08-13T14:53:07.820Z</time>
      </trkpt>
      <trkpt lat="65.79183" lon="12.51015">
        <ele>40.259882</ele>
        <time>2020-08-13T14:53:09.830Z</time>
      </trkpt>
      <trkpt lat="65.79194" lon="12.51019">
        <ele>40.294559</ele>
        <time>2020-08-13T14:53:11.800Z</time>
      </trkpt>
      <trkpt lat="65.79207" lon="12.51024">
        <ele>40.331302</ele>
        <time>2020-08-13T14:53:13.790Z</time>
      </trkpt>
      <trkpt lat="65.79219" lon="12.51027">
        <ele>40.367242</ele>
        <time>2020-08-13T14:53:15.789Z</time>
      </trkpt>
      <trkpt lat="65.79231" lon="12.51029">
        <ele>40.402602</ele>
        <time>2020-08-13T14:53:17.817Z</time>
      </trkpt>
      <trkpt lat="65.79244" lon="12.51034">
        <ele>40.439024</ele>
        <time>2020-08-13T14:53:19.829Z</time>
      </trkpt>
      <trkpt lat="65.79256" lon="12.51038">
        <ele>40.475208</ele>
        <time>2020-08-13T14:53:21.845Z</time>
      </trkpt>
      <trkpt lat="65.79268" lon="12.51043">
        <ele>40.510818</ele>
        <time>2020-08-13T14:53:23.812Z</time>
      </trkpt>
      <trkpt lat="65.7928" lon="12.51046">
        <ele>40.545687</ele>
        <time>2020-08-13T14:53:25.805Z</time>
      </trkpt>
      <trkpt lat="65.79291" lon="12.51049">
        <ele>40.579547</ele>
        <time>2020-08-13T14:53:27.807Z</time>
      </trkpt>
      <trkpt lat="65.79302" lon="12.51049">
        <ele>40.612363</ele>
        <time>2020-08-13T14:53:29.810Z</time>
      </trkpt>
      <trkpt lat="65.79313" lon="12.5105">
        <ele>40.646154</ele>
        <time>2020-08-13T14:53:31.788Z</time>
      </trkpt>
      <trkpt lat="65.79324" lon="12.51054">
        <ele>40.680687</ele>
        <time>2020-08-13T14:53:33.832Z</time>
      </trkpt>
      <trkpt lat="65.79336" lon="12.51057">
        <ele>40.715562</ele>
        <time>2020-08-13T14:53:35.827Z</time>
      </trkpt>
      <trkpt lat="65.79348" lon="12.51061">
        <ele>40.75108</ele>
        <time>2020-08-13T14:53:37.793Z</time>
      </trkpt>
      <trkpt lat="65.79359" lon="12.51064">
        <ele>40.786599</ele>
        <time>2020-08-13T14:53:39.816Z</time>
      </trkpt>
      <trkpt lat="65.79372" lon="12.51069">
        <ele>40.82399</ele>
        <time>2020-08-13T14:53:41.790Z</time>
      </trkpt>
      <trkpt lat="65.79383" lon="12.51072">
        <ele>40.858836</ele>
        <time>2020-08-13T14:53:43.786Z</time>
      </trkpt>
      <trkpt lat="65.79395" lon="12.51076">
        <ele>40.89509</ele>
        <time>2020-08-13T14:53:45.815Z</time>
      </trkpt>
      <trkpt lat="65.79407" lon="12.5108">
        <ele>40.93031</ele>
        <time>2020-08-13T14:53:47.820Z</time>
      </trkpt>
      <trkpt lat="65.79418" lon="12.51084">
        <ele>40.966211</ele>
        <time>2020-08-13T14:53:49.821Z</time>
      </trkpt>
      <trkpt lat="65.7943" lon="12.51087">
        <ele>41.002553</ele>
        <time>2020-08-13T14:53:51.816Z</time>
      </trkpt>
      <trkpt lat="65.79443" lon="12.51089">
        <ele>41.039073</ele>
        <time>2020-08-13T14:53:53.793Z</time>
      </trkpt>
      <trkpt lat="65.79454" lon="12.51092">
        <ele>41.035209</ele>
        <time>2020-08-13T14:53:55.807Z</time>
      </trkpt>
      <trkpt lat="65.79466" lon="12.51094">
        <ele>40.576742</ele>
        <time>2020-08-13T14:53:57.813Z</time>
      </trkpt>
      <trkpt lat="65.79477" lon="12.51097">
        <ele>40.110573</ele>
        <time>2020-08-13T14:53:59.822Z</time>
      </trkpt>
      <trkpt lat="65.79489" lon="12.511">
        <ele>39.651638</ele>
        <time>2020-08-13T14:54:01.832Z</time>
      </trkpt>
      <trkpt lat="65.795" lon="12.51103">
        <ele>39.203739</ele>
        <time>2020-08-13T14:54:03.800Z</time>
      </trkpt>
      <trkpt lat="65.79511" lon="12.51106">
        <ele>38.747484</ele>
        <time>2020-08-13T14:54:05.800Z</time>
      </trkpt>
      <trkpt lat="65.79523" lon="12.5111">
        <ele>38.275128</ele>
        <time>2020-08-13T14:54:07.821Z</time>
      </trkpt>
      <trkpt lat="65.79534" lon="12.51112">
        <ele>37.82065</ele>
        <time>2020-08-13T14:54:09.786Z</time>
      </trkpt>
      <trkpt lat="65.79545" lon="12.51115">
        <ele>37.362033</ele>
        <time>2020-08-13T14:54:11.791Z</time>
      </trkpt>
      <trkpt lat="65.79557" lon="12.51117">
        <ele>36.888129</ele>
        <time>2020-08-13T14:54:13.806Z</time>
      </trkpt>
      <trkpt lat="65.79569" lon="12.5112">
        <ele>36.424694</ele>
        <time>2020-08-13T14:54:15.818Z</time>
      </trkpt>
      <trkpt lat="65.7958" lon="12.51125">
        <ele>35.973435</ele>
        <time>2020-08-13T14:54:17.816Z</time>
      </trkpt>
      <trkpt lat="65.79591" lon="12.5113">
        <ele>35.508894</ele>
        <time>2020-08-13T14:54:19.822Z</time>
      </trkpt>
      <trkpt lat="65.79602" lon="12.51136">
        <ele>35.047669</ele>
        <time>2020-08-13T14:54:21.833Z</time>
      </trkpt>
      <trkpt lat="65.79614" lon="12.51141">
        <ele>34.574951</ele>
        <time>2020-08-13T14:54:23.788Z</time>
      </trkpt>
      <trkpt lat="65.79625" lon="12.51146">
        <ele>34.118586</ele>
        <time>2020-08-13T14:54:25.796Z</time>
      </trkpt>
      <trkpt lat="65.79637" lon="12.51151">
        <ele>33.790976</ele>
        <time>2020-08-13T14:54:27.797Z</time>
      </trkpt>
      <trkpt lat="65.79648" lon="12.51156">
        <ele>33.627307</ele>
        <time>2020-08-13T14:54:29.794Z</time>
      </trkpt>
      <trkpt lat="65.79659" lon="12.5116">
        <ele>33.46593</ele>
        <time>2020-08-13T14:54:31.798Z</time>
      </trkpt>
      <trkpt lat="65.7967" lon="12.51164">
        <ele>33.300201</ele>
        <time>2020-08-13T14:54:33.821Z</time>
      </trkpt>
      <trkpt lat="65.79682" lon="12.51169">
        <ele>33.137036</ele>
        <time>2020-08-13T14:54:35.793Z</time>
      </trkpt>
      <trkpt lat="65.79693" lon="12.51172">
        <ele>32.973146</ele>
        <time>2020-08-13T14:54:37.809Z</time>
      </trkpt>
      <trkpt lat="65.79704" lon="12.51175">
        <ele>32.811367</ele>
        <time>2020-08-13T14:54:39.807Z</time>
      </trkpt>
      <trkpt lat="65.79715" lon="12.51179">
        <ele>32.655937</ele>
        <time>2020-08-13T14:54:41.795Z</time>
      </trkpt>
      <trkpt lat="65.79726" lon="12.51182">
        <ele>32.486347</ele>
        <time>2020-08-13T14:54:43.801Z</time>
      </trkpt>
      <trkpt lat="65.79738" lon="12.51186">
        <ele>32.316757</ele>
        <time>2020-08-13T14:54:45.827Z</time>
      </trkpt>
      <trkpt lat="65.7975" lon="12.5119">
        <ele>32.147314</ele>
        <time>2020-08-13T14:54:47.805Z</time>
      </trkpt>
      <trkpt lat="65.79761" lon="12.51194">
        <ele>31.980164</ele>
        <time>2020-08-13T14:54:49.805Z</time>
      </trkpt>
      <trkpt lat="65.79773" lon="12.51198">
        <ele>31.808391</ele>
        <time>2020-08-13T14:54:51.818Z</time>
      </trkpt>
      <trkpt lat="65.79785" lon="12.51203">
        <ele>31.6312</ele>
        <time>2020-08-13T14:54:53.792Z</time>
      </trkpt>
      <trkpt lat="65.79798" lon="12.51208">
        <ele>31.452145</ele>
        <time>2020-08-13T14:54:55.816Z</time>
      </trkpt>
      <trkpt lat="65.7981" lon="12.51212">
        <ele>31.285797</ele>
        <time>2020-08-13T14:54:57.830Z</time>
      </trkpt>
      <trkpt lat="65.79822" lon="12.51216">
        <ele>31.441597</ele>
        <time>2020-08-13T14:54:59.830Z</time>
      </trkpt>
      <trkpt lat="65.79835" lon="12.5122">
        <ele>31.598747</ele>
        <time>2020-08-13T14:55:01.829Z</time>
      </trkpt>
      <trkpt lat="65.79847" lon="12.51223">
        <ele>31.740501</ele>
        <time>2020-08-13T14:55:03.792Z</time>
      </trkpt>
      <trkpt lat="65.79858" lon="12.51226">
        <ele>31.883583</ele>
        <time>2020-08-13T14:55:05.811Z</time>
      </trkpt>
      <trkpt lat="65.79869" lon="12.51228">
        <ele>32.021153</ele>
        <time>2020-08-13T14:55:07.815Z</time>
      </trkpt>
      <trkpt lat="65.7988" lon="12.51229">
        <ele>32.157234</ele>
        <time>2020-08-13T14:55:09.835Z</time>
      </trkpt>
      <trkpt lat="65.79892" lon="12.5123">
        <ele>32.299466</ele>
        <time>2020-08-13T14:55:11.822Z</time>
      </trkpt>
      <trkpt lat="65.79904" lon="12.5123">
        <ele>32.444136</ele>
        <time>2020-08-13T14:55:13.797Z</time>
      </trkpt>
      <trkpt lat="65.79916" lon="12.51232">
        <ele>32.587855</ele>
        <time>2020-08-13T14:55:15.811Z</time>
      </trkpt>
      <trkpt lat="65.79928" lon="12.51235">
        <ele>32.737954</ele>
        <time>2020-08-13T14:55:17.781Z</time>
      </trkpt>
      <trkpt lat="65.7994" lon="12.51238">
        <ele>32.888144</ele>
        <time>2020-08-13T14:55:19.766Z</time>
      </trkpt>
      <trkpt lat="65.79952" lon="12.5124">
        <ele>33.035637</ele>
        <time>2020-08-13T14:55:21.788Z</time>
      </trkpt>
      <trkpt lat="65.79964" lon="12.51242">
        <ele>33.188135</ele>
        <time>2020-08-13T14:55:23.800Z</time>
      </trkpt>
      <trkpt lat="65.79977" lon="12.51245">
        <ele>33.339746</ele>
        <time>2020-08-13T14:55:25.807Z</time>
      </trkpt>
      <trkpt lat="65.79989" lon="12.51248">
        <ele>33.488821</ele>
        <time>2020-08-13T14:55:27.800Z</time>
      </trkpt>
      <trkpt lat="65.8" lon="12.51251">
        <ele>33.634576</ele>
        <time>2020-08-13T14:55:29.767Z</time>
      </trkpt>
      <trkpt lat="65.80011" lon="12.51254">
        <ele>33.776779</ele>
        <time>2020-08-13T14:55:31.799Z</time>
      </trkpt>
      <trkpt lat="65.80023" lon="12.51257">
        <ele>33.925483</ele>
        <time>2020-08-13T14:55:33.793Z</time>
      </trkpt>
      <trkpt lat="65.80034" lon="12.51257">
        <ele>34.069428</ele>
        <time>2020-08-13T14:55:35.792Z</time>
      </trkpt>
      <trkpt lat="65.80046" lon="12.51257">
        <ele>34.214644</ele>
        <time>2020-08-13T14:55:37.834Z</time>
      </trkpt>
      <trkpt lat="65.80057" lon="12.51257">
        <ele>34.357313</ele>
        <time>2020-08-13T14:55:39.800Z</time>
      </trkpt>
      <trkpt lat="65.80068" lon="12.51258">
        <ele>34.496238</ele>
        <time>2020-08-13T14:55:41.771Z</time>
      </trkpt>
      <trkpt lat="65.80079" lon="12.51259">
        <ele>34.638983</ele>
        <time>2020-08-13T14:55:43.789Z</time>
      </trkpt>
      <trkpt lat="65.8009" lon="12.51258">
        <ele>34.780392</ele>
        <time>2020-08-13T14:55:45.794Z</time>
      </trkpt>
      <trkpt lat="65.80101" lon="12.51255">
        <ele>34.916263</ele>
        <time>2020-08-13T14:55:47.784Z</time>
      </trkpt>
      <trkpt lat="65.80112" lon="12.51252">
        <ele>35.058971</ele>
        <time>2020-08-13T14:55:49.789Z</time>
      </trkpt>
      <trkpt lat="65.80123" lon="12.51247">
        <ele>35.20285</ele>
        <time>2020-08-13T14:55:51.804Z</time>
      </trkpt>
      <trkpt lat="65.80134" lon="12.5124">
        <ele>35.350256</ele>
        <time>2020-08-13T14:55:53.788Z</time>
      </trkpt>
      <trkpt lat="65.80145" lon="12.51233">
        <ele>35.495545</ele>
        <time>2020-08-13T14:55:55.804Z</time>
      </trkpt>
      <trkpt lat="65.80156" lon="12.51226">
        <ele>35.644314</ele>
        <time>2020-08-13T14:55:57.824Z</time>
      </trkpt>
      <trkpt lat="65.80167" lon="12.51217">
        <ele>35.847168</ele>
        <time>2020-08-13T14:55:59.809Z</time>
      </trkpt>
      <trkpt lat="65.80179" lon="12.51209">
        <ele>36.484742</ele>
        <time>2020-08-13T14:56:01.818Z</time>
      </trkpt>
      <trkpt lat="65.8019" lon="12.51202">
        <ele>37.108172</ele>
        <time>2020-08-13T14:56:03.811Z</time>
      </trkpt>
      <trkpt lat="65.80201" lon="12.51194">
        <ele>37.712788</ele>
        <time>2020-08-13T14:56:05.817Z</time>
      </trkpt>
      <trkpt lat="65.80212" lon="12.51186">
        <ele>38.296307</ele>
        <time>2020-08-13T14:56:07.818Z</time>
      </trkpt>
      <trkpt lat="65.80222" lon="12.51177">
        <ele>38.860801</ele>
        <time>2020-08-13T14:56:09.832Z</time>
      </trkpt>
      <trkpt lat="65.80232" lon="12.51166">
        <ele>39.449118</ele>
        <time>2020-08-13T14:56:11.802Z</time>
      </trkpt>
      <trkpt lat="65.80243" lon="12.51154">
        <ele>40.069225</ele>
        <time>2020-08-13T14:56:13.809Z</time>
      </trkpt>
      <trkpt lat="65.80253" lon="12.5114">
        <ele>40.683073</ele>
        <time>2020-08-13T14:56:15.797Z</time>
      </trkpt>
      <trkpt lat="65.80263" lon="12.51127">
        <ele>41.314665</ele>
        <time>2020-08-13T14:56:17.805Z</time>
      </trkpt>
      <trkpt lat="65.80274" lon="12.51113">
        <ele>41.972505</ele>
        <time>2020-08-13T14:56:19.816Z</time>
      </trkpt>
      <trkpt lat="65.80285" lon="12.51098">
        <ele>42.611816</ele>
        <time>2020-08-13T14:56:21.842Z</time>
      </trkpt>
      <trkpt lat="65.80295" lon="12.51082">
        <ele>43.254199</ele>
        <time>2020-08-13T14:56:23.806Z</time>
      </trkpt>
      <trkpt lat="65.80305" lon="12.51066">
        <ele>43.901917</ele>
        <time>2020-08-13T14:56:25.801Z</time>
      </trkpt>
      <trkpt lat="65.80315" lon="12.51048">
        <ele>44.545423</ele>
        <time>2020-08-13T14:56:27.805Z</time>
      </trkpt>
      <trkpt lat="65.80325" lon="12.5103">
        <ele>45.193641</ele>
        <time>2020-08-13T14:56:29.802Z</time>
      </trkpt>
      <trkpt lat="65.80334" lon="12.51011">
        <ele>45.285568</ele>
        <time>2020-08-13T14:56:31.786Z</time>
      </trkpt>
      <trkpt lat="65.80343" lon="12.50992">
        <ele>45.259679</ele>
        <time>2020-08-13T14:56:33.797Z</time>
      </trkpt>
      <trkpt lat="65.80352" lon="12.50974">
        <ele>45.235304</ele>
        <time>2020-08-13T14:56:35.828Z</time>
      </trkpt>
      <trkpt lat="65.8036" lon="12.50956">
        <ele>45.210081</ele>
        <time>2020-08-13T14:56:37.814Z</time>
      </trkpt>
      <trkpt lat="65.80368" lon="12.50937">
        <ele>45.18599</ele>
        <time>2020-08-13T14:56:39.806Z</time>
      </trkpt>
      <trkpt lat="65.80377" lon="12.50918">
        <ele>45.161016</ele>
        <time>2020-08-13T14:56:41.800Z</time>
      </trkpt>
      <trkpt lat="65.80385" lon="12.509">
        <ele>45.137392</ele>
        <time>2020-08-13T14:56:43.823Z</time>
      </trkpt>
      <trkpt lat="65.80393" lon="12.50881">
        <ele>45.112928</ele>
        <time>2020-08-13T14:56:45.804Z</time>
      </trkpt>
      <trkpt lat="65.80401" lon="12.50862">
        <ele>45.08815</ele>
        <time>2020-08-13T14:56:47.818Z</time>
      </trkpt>
      <trkpt lat="65.80409" lon="12.50842">
        <ele>45.061804</ele>
        <time>2020-08-13T14:56:49.812Z</time>
      </trkpt>
      <trkpt lat="65.80418" lon="12.50819">
        <ele>45.035112</ele>
        <time>2020-08-13T14:56:51.823Z</time>
      </trkpt>
      <trkpt lat="65.80426" lon="12.50796">
        <ele>45.007805</ele>
        <time>2020-08-13T14:56:53.807Z</time>
      </trkpt>
      <trkpt lat="65.80434" lon="12.50773">
        <ele>44.980421</ele>
        <time>2020-08-13T14:56:55.812Z</time>
      </trkpt>
      <trkpt lat="65.80442" lon="12.50752">
        <ele>44.953982</ele>
        <time>2020-08-13T14:56:57.794Z</time>
      </trkpt>
      <trkpt lat="65.8045" lon="12.50731">
        <ele>44.928539</ele>
        <time>2020-08-13T14:56:59.810Z</time>
      </trkpt>
      <trkpt lat="65.80458" lon="12.50711">
        <ele>44.851581</ele>
        <time>2020-08-13T14:57:01.812Z</time>
      </trkpt>
      <trkpt lat="65.80466" lon="12.50691">
        <ele>44.708723</ele>
        <time>2020-08-13T14:57:03.833Z</time>
      </trkpt>
      <trkpt lat="65.80474" lon="12.5067">
        <ele>44.563168</ele>
        <time>2020-08-13T14:57:05.837Z</time>
      </trkpt>
      <trkpt lat="65.80482" lon="12.5065">
        <ele>44.418713</ele>
        <time>2020-08-13T14:57:07.841Z</time>
      </trkpt>
      <trkpt lat="65.80491" lon="12.5063">
        <ele>44.271963</ele>
        <time>2020-08-13T14:57:09.809Z</time>
      </trkpt>
      <trkpt lat="65.805" lon="12.5061">
        <ele>44.12506</ele>
        <time>2020-08-13T14:57:11.811Z</time>
      </trkpt>
      <trkpt lat="65.80507" lon="12.50591">
        <ele>43.986261</ele>
        <time>2020-08-13T14:57:13.814Z</time>
      </trkpt>
      <trkpt lat="65.80514" lon="12.50571">
        <ele>43.850917</ele>
        <time>2020-08-13T14:57:15.817Z</time>
      </trkpt>
      <trkpt lat="65.80521" lon="12.50552">
        <ele>43.727062</ele>
        <time>2020-08-13T14:57:17.793Z</time>
      </trkpt>
      <trkpt lat="65.80527" lon="12.50533">
        <ele>43.601175</ele>
        <time>2020-08-13T14:57:19.805Z</time>
      </trkpt>
      <trkpt lat="65.80533" lon="12.50513">
        <ele>43.4761</ele>
        <time>2020-08-13T14:57:21.786Z</time>
      </trkpt>
      <trkpt lat="65.8054" lon="12.50492">
        <ele>43.341924</ele>
        <time>2020-08-13T14:57:23.808Z</time>
      </trkpt>
      <trkpt lat="65.80546" lon="12.50472">
        <ele>43.210126</ele>
        <time>2020-08-13T14:57:25.792Z</time>
      </trkpt>
      <trkpt lat="65.80552" lon="12.50449">
        <ele>43.073429</ele>
        <time>2020-08-13T14:57:27.805Z</time>
      </trkpt>
      <trkpt lat="65.80559" lon="12.50427">
        <ele>42.933596</ele>
        <time>2020-08-13T14:57:29.786Z</time>
      </trkpt>
      <trkpt lat="65.80565" lon="12.50408">
        <ele>42.807017</ele>
        <time>2020-08-13T14:57:31.794Z</time>
      </trkpt>
      <trkpt lat="65.80571" lon="12.5039">
        <ele>42.689069</ele>
        <time>2020-08-13T14:57:33.792Z</time>
      </trkpt>
      <trkpt lat="65.80577" lon="12.50372">
        <ele>42.786213</ele>
        <time>2020-08-13T14:57:35.789Z</time>
      </trkpt>
      <trkpt lat="65.80583" lon="12.50355">
        <ele>42.905653</ele>
        <time>2020-08-13T14:57:37.802Z</time>
      </trkpt>
      <trkpt lat="65.80591" lon="12.5033">
        <ele>43.073602</ele>
        <time>2020-08-13T14:57:40.806Z</time>
      </trkpt>
      <trkpt lat="65.80599" lon="12.50307">
        <ele>43.234127</ele>
        <time>2020-08-13T14:57:43.814Z</time>
      </trkpt>
      <trkpt lat="65.80607" lon="12.50284">
        <ele>43.394353</ele>
        <time>2020-08-13T14:57:46.817Z</time>
      </trkpt>
      <trkpt lat="65.80614" lon="12.50267">
        <ele>43.524638</ele>
        <time>2020-08-13T14:57:49.781Z</time>
      </trkpt>
      <trkpt lat="65.80621" lon="12.50247">
        <ele>43.659637</ele>
        <time>2020-08-13T14:57:52.794Z</time>
      </trkpt>
      <trkpt lat="65.80627" lon="12.50226">
        <ele>43.802584</ele>
        <time>2020-08-13T14:57:55.795Z</time>
      </trkpt>
      <trkpt lat="65.80634" lon="12.50205">
        <ele>43.940645</ele>
        <time>2020-08-13T14:57:58.786Z</time>
      </trkpt>
      <trkpt lat="65.80639" lon="12.50183">
        <ele>44.078952</ele>
        <time>2020-08-13T14:58:01.789Z</time>
      </trkpt>
      <trkpt lat="65.80645" lon="12.50161">
        <ele>44.217671</ele>
        <time>2020-08-13T14:58:04.791Z</time>
      </trkpt>
      <trkpt lat="65.8065" lon="12.50139">
        <ele>44.347954</ele>
        <time>2020-08-13T14:58:07.803Z</time>
      </trkpt>
      <trkpt lat="65.80656" lon="12.5012">
        <ele>44.478029</ele>
        <time>2020-08-13T14:58:10.805Z</time>
      </trkpt>
      <trkpt lat="65.80662" lon="12.50099">
        <ele>44.614112</ele>
        <time>2020-08-13T14:58:13.790Z</time>
      </trkpt>
      <trkpt lat="65.80667" lon="12.50079">
        <ele>44.737208</ele>
        <time>2020-08-13T14:58:16.795Z</time>
      </trkpt>
      <trkpt lat="65.80672" lon="12.50059">
        <ele>44.865276</ele>
        <time>2020-08-13T14:58:19.801Z</time>
      </trkpt>
      <trkpt lat="65.80676" lon="12.50038">
        <ele>44.987347</ele>
        <time>2020-08-13T14:58:22.794Z</time>
      </trkpt>
      <trkpt lat="65.80681" lon="12.5002">
        <ele>44.906296</ele>
        <time>2020-08-13T14:58:25.800Z</time>
      </trkpt>
      <trkpt lat="65.80687" lon="12.49996">
        <ele>44.734593</ele>
        <time>2020-08-13T14:58:29.793Z</time>
      </trkpt>
      <trkpt lat="65.80694" lon="12.49972">
        <ele>44.558525</ele>
        <time>2020-08-13T14:58:33.798Z</time>
      </trkpt>
      <trkpt lat="65.807" lon="12.49949">
        <ele>44.393158</ele>
        <time>2020-08-13T14:58:37.831Z</time>
      </trkpt>
      <trkpt lat="65.80705" lon="12.49929">
        <ele>44.245449</ele>
        <time>2020-08-13T14:58:41.807Z</time>
      </trkpt>
      <trkpt lat="65.8071" lon="12.4991">
        <ele>44.110337</ele>
        <time>2020-08-13T14:58:45.799Z</time>
      </trkpt>
      <trkpt lat="65.80714" lon="12.4989">
        <ele>43.967963</ele>
        <time>2020-08-13T14:58:49.816Z</time>
      </trkpt>
      <trkpt lat="65.8072" lon="12.49871">
        <ele>43.82717</ele>
        <time>2020-08-13T14:58:53.795Z</time>
      </trkpt>
      <trkpt lat="65.80724" lon="12.49849">
        <ele>43.678331</ele>
        <time>2020-08-13T14:58:58.789Z</time>
      </trkpt>
      <trkpt lat="65.80728" lon="12.49828">
        <ele>43.529305</ele>
        <time>2020-08-13T14:59:03.804Z</time>
      </trkpt>
      <trkpt lat="65.80733" lon="12.49806">
        <ele>43.379729</ele>
        <time>2020-08-13T14:59:09.806Z</time>
      </trkpt>
      <trkpt lat="65.80736" lon="12.49784">
        <ele>43.240211</ele>
        <time>2020-08-13T14:59:15.827Z</time>
      </trkpt>
      <trkpt lat="65.8074" lon="12.49761">
        <ele>43.084706</ele>
        <time>2020-08-13T14:59:21.807Z</time>
      </trkpt>
      <trkpt lat="65.80744" lon="12.49737">
        <ele>42.925547</ele>
        <time>2020-08-13T14:59:27.807Z</time>
      </trkpt>
      <trkpt lat="65.80748" lon="12.49715">
        <ele>42.776849</ele>
        <time>2020-08-13T14:59:33.820Z</time>
      </trkpt>
      <trkpt lat="65.80752" lon="12.49695">
        <ele>42.64172</ele>
        <time>2020-08-13T14:59:41.783Z</time>
      </trkpt>
      <trkpt lat="65.80754" lon="12.49672">
        <ele>42.495167</ele>
        <time>2020-08-13T14:59:50.825Z</time>
      </trkpt>
      <trkpt lat="65.80756" lon="12.4965">
        <ele>42.35967</ele>
        <time>2020-08-13T15:00:00.824Z</time>
      </trkpt>
      <trkpt lat="65.80756" lon="12.49627">
        <ele>42.074762</ele>
        <time>2020-08-13T15:00:11.857Z</time>
      </trkpt>
      <trkpt lat="65.80767" lon="12.49615">
        <ele>41.621149</ele>
        <time>2020-08-13T15:02:46.790Z</time>
      </trkpt>
      <trkpt lat="65.80776" lon="12.49609">
        <ele>41.263281</ele>
        <time>2020-08-13T15:02:53.809Z</time>
      </trkpt>
      <trkpt lat="65.80785" lon="12.49594">
        <ele>40.865806</ele>
        <time>2020-08-13T15:02:59.804Z</time>
      </trkpt>
      <trkpt lat="65.80791" lon="12.49577">
        <ele>40.526588</ele>
        <time>2020-08-13T15:03:03.799Z</time>
      </trkpt>
      <trkpt lat="65.80798" lon="12.4956">
        <ele>40.167308</ele>
        <time>2020-08-13T15:03:07.791Z</time>
      </trkpt>
      <trkpt lat="65.80804" lon="12.49538">
        <ele>39.762964</ele>
        <time>2020-08-13T15:03:12.813Z</time>
      </trkpt>
      <trkpt lat="65.80809" lon="12.49516">
        <ele>39.394008</ele>
        <time>2020-08-13T15:03:16.828Z</time>
      </trkpt>
      <trkpt lat="65.80814" lon="12.49491">
        <ele>38.97193</ele>
        <time>2020-08-13T15:03:20.798Z</time>
      </trkpt>
      <trkpt lat="65.80818" lon="12.4947">
        <ele>38.624749</ele>
        <time>2020-08-13T15:03:23.796Z</time>
      </trkpt>
      <trkpt lat="65.80821" lon="12.49447">
        <ele>38.246417</ele>
        <time>2020-08-13T15:03:26.818Z</time>
      </trkpt>
      <trkpt lat="65.80826" lon="12.49423">
        <ele>37.849816</ele>
        <time>2020-08-13T15:03:29.800Z</time>
      </trkpt>
      <trkpt lat="65.8083" lon="12.49399">
        <ele>37.456464</ele>
        <time>2020-08-13T15:03:32.805Z</time>
      </trkpt>
      <trkpt lat="65.80834" lon="12.49374">
        <ele>37.053319</ele>
        <time>2020-08-13T15:03:35.842Z</time>
      </trkpt>
      <trkpt lat="65.80838" lon="12.49347">
        <ele>36.624802</ele>
        <time>2020-08-13T15:03:38.800Z</time>
      </trkpt>
      <trkpt lat="65.80842" lon="12.49319">
        <ele>36.174922</ele>
        <time>2020-08-13T15:03:41.799Z</time>
      </trkpt>
      <trkpt lat="65.80845" lon="12.4929">
        <ele>35.715372</ele>
        <time>2020-08-13T15:03:44.799Z</time>
      </trkpt>
      <trkpt lat="65.80849" lon="12.4926">
        <ele>36.110477</ele>
        <time>2020-08-13T15:03:47.833Z</time>
      </trkpt>
      <trkpt lat="65.80852" lon="12.49237">
        <ele>36.454526</ele>
        <time>2020-08-13T15:03:49.796Z</time>
      </trkpt>
      <trkpt lat="65.80855" lon="12.49216">
        <ele>36.777326</ele>
        <time>2020-08-13T15:03:51.803Z</time>
      </trkpt>
      <trkpt lat="65.80859" lon="12.49184">
        <ele>37.24886</ele>
        <time>2020-08-13T15:03:54.802Z</time>
      </trkpt>
      <trkpt lat="65.80862" lon="12.49152">
        <ele>37.717102</ele>
        <time>2020-08-13T15:03:57.813Z</time>
      </trkpt>
      <trkpt lat="65.80864" lon="12.4913">
        <ele>38.041116</ele>
        <time>2020-08-13T15:03:59.787Z</time>
      </trkpt>
      <trkpt lat="65.80867" lon="12.49109">
        <ele>38.358193</ele>
        <time>2020-08-13T15:04:01.820Z</time>
      </trkpt>
      <trkpt lat="65.80869" lon="12.49088">
        <ele>38.672601</ele>
        <time>2020-08-13T15:04:03.803Z</time>
      </trkpt>
      <trkpt lat="65.80872" lon="12.49065">
        <ele>39.013635</ele>
        <time>2020-08-13T15:04:05.804Z</time>
      </trkpt>
      <trkpt lat="65.80875" lon="12.4904">
        <ele>39.380806</ele>
        <time>2020-08-13T15:04:07.827Z</time>
      </trkpt>
      <trkpt lat="65.80878" lon="12.49017">
        <ele>39.734307</ele>
        <time>2020-08-13T15:04:09.799Z</time>
      </trkpt>
      <trkpt lat="65.8088" lon="12.48993">
        <ele>40.087823</ele>
        <time>2020-08-13T15:04:11.797Z</time>
      </trkpt>
      <trkpt lat="65.80883" lon="12.48968">
        <ele>40.447763</ele>
        <time>2020-08-13T15:04:13.830Z</time>
      </trkpt>
      <trkpt lat="65.80885" lon="12.48944">
        <ele>40.81358</ele>
        <time>2020-08-13T15:04:15.793Z</time>
      </trkpt>
      <trkpt lat="65.80887" lon="12.48917">
        <ele>41.206204</ele>
        <time>2020-08-13T15:04:17.815Z</time>
      </trkpt>
      <trkpt lat="65.80889" lon="12.4889">
        <ele>41.588944</ele>
        <time>2020-08-13T15:04:19.819Z</time>
      </trkpt>
      <trkpt lat="65.80891" lon="12.48863">
        <ele>41.973849</ele>
        <time>2020-08-13T15:04:21.805Z</time>
      </trkpt>
      <trkpt lat="65.80893" lon="12.48835">
        <ele>41.991604</ele>
        <time>2020-08-13T15:04:23.806Z</time>
      </trkpt>
      <trkpt lat="65.80895" lon="12.48807">
        <ele>42.008996</ele>
        <time>2020-08-13T15:04:25.799Z</time>
      </trkpt>
      <trkpt lat="65.80897" lon="12.48779">
        <ele>42.026414</ele>
        <time>2020-08-13T15:04:27.798Z</time>
      </trkpt>
      <trkpt lat="65.80899" lon="12.48752">
        <ele>42.043529</ele>
        <time>2020-08-13T15:04:29.797Z</time>
      </trkpt>
      <trkpt lat="65.80901" lon="12.48725">
        <ele>42.060713</ele>
        <time>2020-08-13T15:04:31.808Z</time>
      </trkpt>
      <trkpt lat="65.81036" lon="12.46104">
        <ele>45.314165</ele>
        <time>2020-08-13T15:07:27.197Z</time>
      </trkpt>
      <trkpt lat="65.81028" lon="12.46084">
        <ele>46.007082</ele>
        <time>2020-08-13T15:07:28.378Z</time>
      </trkpt>
      <trkpt lat="65.81025" lon="12.46124">
        <ele>47.002876</ele>
        <time>2020-08-13T15:07:29.398Z</time>
      </trkpt>
      <trkpt lat="65.81036" lon="12.46086">
        <ele>48.135821</ele>
        <time>2020-08-13T15:07:31.999Z</time>
      </trkpt>
      <trkpt lat="65.81036" lon="12.46054">
        <ele>48.907622</ele>
        <time>2020-08-13T15:07:33.961Z</time>
      </trkpt>
      <trkpt lat="65.81038" lon="12.46023">
        <ele>49.681267</ele>
        <time>2020-08-13T15:07:35.966Z</time>
      </trkpt>
      <trkpt lat="65.8104" lon="12.45992">
        <ele>50.445378</ele>
        <time>2020-08-13T15:07:37.981Z</time>
      </trkpt>
      <trkpt lat="65.81042" lon="12.45962">
        <ele>51.18807</ele>
        <time>2020-08-13T15:07:39.953Z</time>
      </trkpt>
      <trkpt lat="65.81044" lon="12.45931">
        <ele>51.949728</ele>
        <time>2020-08-13T15:07:41.982Z</time>
      </trkpt>
      <trkpt lat="65.81045" lon="12.45901">
        <ele>51.913852</ele>
        <time>2020-08-13T15:07:43.954Z</time>
      </trkpt>
      <trkpt lat="65.81046" lon="12.4587">
        <ele>50.652826</ele>
        <time>2020-08-13T15:07:45.998Z</time>
      </trkpt>
      <trkpt lat="65.81047" lon="12.45839">
        <ele>49.418372</ele>
        <time>2020-08-13T15:07:47.962Z</time>
      </trkpt>
      <trkpt lat="65.81047" lon="12.45809">
        <ele>48.172853</ele>
        <time>2020-08-13T15:07:49.942Z</time>
      </trkpt>
      <trkpt lat="65.81049" lon="12.45779">
        <ele>46.94635</ele>
        <time>2020-08-13T15:07:51.966Z</time>
      </trkpt>
      <trkpt lat="65.81049" lon="12.45748">
        <ele>45.678777</ele>
        <time>2020-08-13T15:07:53.951Z</time>
      </trkpt>
      <trkpt lat="65.81051" lon="12.45717">
        <ele>44.429904</ele>
        <time>2020-08-13T15:07:55.980Z</time>
      </trkpt>
      <trkpt lat="65.81051" lon="12.45687">
        <ele>43.212287</ele>
        <time>2020-08-13T15:07:57.953Z</time>
      </trkpt>
      <trkpt lat="65.81051" lon="12.45658">
        <ele>42.012875</ele>
        <time>2020-08-13T15:07:59.991Z</time>
      </trkpt>
      <trkpt lat="65.81051" lon="12.45629">
        <ele>40.825659</ele>
        <time>2020-08-13T15:08:01.974Z</time>
      </trkpt>
      <trkpt lat="65.81051" lon="12.45599">
        <ele>39.64255</ele>
        <time>2020-08-13T15:08:04.013Z</time>
      </trkpt>
      <trkpt lat="65.81052" lon="12.4557">
        <ele>38.442523</ele>
        <time>2020-08-13T15:08:05.981Z</time>
      </trkpt>
      <trkpt lat="65.81053" lon="12.45541">
        <ele>37.261528</ele>
        <time>2020-08-13T15:08:07.956Z</time>
      </trkpt>
      <trkpt lat="65.81054" lon="12.45512">
        <ele>36.067647</ele>
        <time>2020-08-13T15:08:09.959Z</time>
      </trkpt>
      <trkpt lat="65.81054" lon="12.45482">
        <ele>34.870327</ele>
        <time>2020-08-13T15:08:11.966Z</time>
      </trkpt>
      <trkpt lat="65.81055" lon="12.45453">
        <ele>34.291454</ele>
        <time>2020-08-13T15:08:13.953Z</time>
      </trkpt>
      <trkpt lat="65.81055" lon="12.45426">
        <ele>33.940492</ele>
        <time>2020-08-13T15:08:15.986Z</time>
      </trkpt>
      <trkpt lat="65.81057" lon="12.45397">
        <ele>33.579989</ele>
        <time>2020-08-13T15:08:17.968Z</time>
      </trkpt>
      <trkpt lat="65.81058" lon="12.45367">
        <ele>33.205355</ele>
        <time>2020-08-13T15:08:19.971Z</time>
      </trkpt>
      <trkpt lat="65.81059" lon="12.45337">
        <ele>32.81819</ele>
        <time>2020-08-13T15:08:21.956Z</time>
      </trkpt>
      <trkpt lat="65.8106" lon="12.45305">
        <ele>32.422982</ele>
        <time>2020-08-13T15:08:23.951Z</time>
      </trkpt>
      <trkpt lat="65.81061" lon="12.45274">
        <ele>32.030904</ele>
        <time>2020-08-13T15:08:25.959Z</time>
      </trkpt>
      <trkpt lat="65.81063" lon="12.45244">
        <ele>31.65096</ele>
        <time>2020-08-13T15:08:27.975Z</time>
      </trkpt>
      <trkpt lat="65.81065" lon="12.45215">
        <ele>31.275205</ele>
        <time>2020-08-13T15:08:29.955Z</time>
      </trkpt>
      <trkpt lat="65.81066" lon="12.45185">
        <ele>30.902356</ele>
        <time>2020-08-13T15:08:32.003Z</time>
      </trkpt>
      <trkpt lat="65.81068" lon="12.45155">
        <ele>30.515287</ele>
        <time>2020-08-13T15:08:33.974Z</time>
      </trkpt>
      <trkpt lat="65.8107" lon="12.45125">
        <ele>30.127199</ele>
        <time>2020-08-13T15:08:36.006Z</time>
      </trkpt>
      <trkpt lat="65.81073" lon="12.45094">
        <ele>29.734157</ele>
        <time>2020-08-13T15:08:37.986Z</time>
      </trkpt>
      <trkpt lat="65.81074" lon="12.45064">
        <ele>29.358404</ele>
        <time>2020-08-13T15:08:39.958Z</time>
      </trkpt>
      <trkpt lat="65.81076" lon="12.45034">
        <ele>29.037939</ele>
        <time>2020-08-13T15:08:41.971Z</time>
      </trkpt>
      <trkpt lat="65.81077" lon="12.45004">
        <ele>29.019824</ele>
        <time>2020-08-13T15:08:43.945Z</time>
      </trkpt>
      <trkpt lat="65.81078" lon="12.44975">
        <ele>29.002068</ele>
        <time>2020-08-13T15:08:45.962Z</time>
      </trkpt>
      <trkpt lat="65.8108" lon="12.44944">
        <ele>28.983688</ele>
        <time>2020-08-13T15:08:47.944Z</time>
      </trkpt>
      <trkpt lat="65.81081" lon="12.44914">
        <ele>28.965138</ele>
        <time>2020-08-13T15:08:49.958Z</time>
      </trkpt>
      <trkpt lat="65.81083" lon="12.44884">
        <ele>28.947064</ele>
        <time>2020-08-13T15:08:51.960Z</time>
      </trkpt>
      <trkpt lat="65.81085" lon="12.44854">
        <ele>28.92895</ele>
        <time>2020-08-13T15:08:53.974Z</time>
      </trkpt>
      <trkpt lat="65.81086" lon="12.44824">
        <ele>28.910797</ele>
        <time>2020-08-13T15:08:56.005Z</time>
      </trkpt>
      <trkpt lat="65.81088" lon="12.44794">
        <ele>28.892782</ele>
        <time>2020-08-13T15:08:58.003Z</time>
      </trkpt>
      <trkpt lat="65.8109" lon="12.44764">
        <ele>28.874564</ele>
        <time>2020-08-13T15:08:59.979Z</time>
      </trkpt>
      <trkpt lat="65.81092" lon="12.44734">
        <ele>28.856591</ele>
        <time>2020-08-13T15:09:01.967Z</time>
      </trkpt>
      <trkpt lat="65.81094" lon="12.44705">
        <ele>28.838854</ele>
        <time>2020-08-13T15:09:03.954Z</time>
      </trkpt>
      <trkpt lat="65.81095" lon="12.44675">
        <ele>28.820679</ele>
        <time>2020-08-13T15:09:05.971Z</time>
      </trkpt>
      <trkpt lat="65.81096" lon="12.44644">
        <ele>28.802254</ele>
        <time>2020-08-13T15:09:07.978Z</time>
      </trkpt>
      <trkpt lat="65.81098" lon="12.44614">
        <ele>28.784021</ele>
        <time>2020-08-13T15:09:09.948Z</time>
      </trkpt>
      <trkpt lat="65.81099" lon="12.44584">
        <ele>28.8353</ele>
        <time>2020-08-13T15:09:11.963Z</time>
      </trkpt>
      <trkpt lat="65.81101" lon="12.44554">
        <ele>28.925052</ele>
        <time>2020-08-13T15:09:13.954Z</time>
      </trkpt>
      <trkpt lat="65.81102" lon="12.44524">
        <ele>29.014332</ele>
        <time>2020-08-13T15:09:15.958Z</time>
      </trkpt>
      <trkpt lat="65.81104" lon="12.44495">
        <ele>29.099929</ele>
        <time>2020-08-13T15:09:17.933Z</time>
      </trkpt>
      <trkpt lat="65.81105" lon="12.44466">
        <ele>29.183523</ele>
        <time>2020-08-13T15:09:19.954Z</time>
      </trkpt>
      <trkpt lat="65.81107" lon="12.44438">
        <ele>29.266222</ele>
        <time>2020-08-13T15:09:21.979Z</time>
      </trkpt>
      <trkpt lat="65.81109" lon="12.44409">
        <ele>29.352628</ele>
        <time>2020-08-13T15:09:23.975Z</time>
      </trkpt>
      <trkpt lat="65.81111" lon="12.4438">
        <ele>29.439585</ele>
        <time>2020-08-13T15:09:25.992Z</time>
      </trkpt>
      <trkpt lat="65.81114" lon="12.44351">
        <ele>29.525202</ele>
        <time>2020-08-13T15:09:27.930Z</time>
      </trkpt>
      <trkpt lat="65.81117" lon="12.44323">
        <ele>29.610893</ele>
        <time>2020-08-13T15:09:29.963Z</time>
      </trkpt>
      <trkpt lat="65.8112" lon="12.44294">
        <ele>29.698954</ele>
        <time>2020-08-13T15:09:32.003Z</time>
      </trkpt>
      <trkpt lat="65.81124" lon="12.44265">
        <ele>29.785915</ele>
        <time>2020-08-13T15:09:33.967Z</time>
      </trkpt>
      <trkpt lat="65.81126" lon="12.44234">
        <ele>29.880913</ele>
        <time>2020-08-13T15:09:35.982Z</time>
      </trkpt>
      <trkpt lat="65.81129" lon="12.44204">
        <ele>29.969371</ele>
        <time>2020-08-13T15:09:37.963Z</time>
      </trkpt>
      <trkpt lat="65.81133" lon="12.44175">
        <ele>30.060449</ele>
        <time>2020-08-13T15:09:39.969Z</time>
      </trkpt>
      <trkpt lat="65.81138" lon="12.44147">
        <ele>30.850551</ele>
        <time>2020-08-13T15:09:41.981Z</time>
      </trkpt>
      <trkpt lat="65.81142" lon="12.44122">
        <ele>31.587033</ele>
        <time>2020-08-13T15:09:43.971Z</time>
      </trkpt>
      <trkpt lat="65.81147" lon="12.44094">
        <ele>32.405835</ele>
        <time>2020-08-13T15:09:45.979Z</time>
      </trkpt>
      <trkpt lat="65.81153" lon="12.44068">
        <ele>33.191486</ele>
        <time>2020-08-13T15:09:47.976Z</time>
      </trkpt>
      <trkpt lat="65.81158" lon="12.44042">
        <ele>33.985115</ele>
        <time>2020-08-13T15:09:49.970Z</time>
      </trkpt>
      <trkpt lat="65.81164" lon="12.44017">
        <ele>34.752034</ele>
        <time>2020-08-13T15:09:51.978Z</time>
      </trkpt>
      <trkpt lat="65.8117" lon="12.43991">
        <ele>35.529256</ele>
        <time>2020-08-13T15:09:53.991Z</time>
      </trkpt>
      <trkpt lat="65.81175" lon="12.43965">
        <ele>36.335465</ele>
        <time>2020-08-13T15:09:55.985Z</time>
      </trkpt>
      <trkpt lat="65.81183" lon="12.43938">
        <ele>37.231924</ele>
        <time>2020-08-13T15:09:57.986Z</time>
      </trkpt>
      <trkpt lat="65.81191" lon="12.43911">
        <ele>38.109004</ele>
        <time>2020-08-13T15:09:59.987Z</time>
      </trkpt>
      <trkpt lat="65.81198" lon="12.43885">
        <ele>38.959476</ele>
        <time>2020-08-13T15:10:02.017Z</time>
      </trkpt>
      <trkpt lat="65.81205" lon="12.43858">
        <ele>39.819835</ele>
        <time>2020-08-13T15:10:03.986Z</time>
      </trkpt>
      <trkpt lat="65.81212" lon="12.43832">
        <ele>40.65472</ele>
        <time>2020-08-13T15:10:05.986Z</time>
      </trkpt>
      <trkpt lat="65.81219" lon="12.43808">
        <ele>41.442448</ele>
        <time>2020-08-13T15:10:08.021Z</time>
      </trkpt>
      <trkpt lat="65.81227" lon="12.43783">
        <ele>41.913581</ele>
        <time>2020-08-13T15:10:10.025Z</time>
      </trkpt>
      <trkpt lat="65.81235" lon="12.4376">
        <ele>42.008174</ele>
        <time>2020-08-13T15:10:11.958Z</time>
      </trkpt>
      <trkpt lat="65.81243" lon="12.43737">
        <ele>42.099517</ele>
        <time>2020-08-13T15:10:14.014Z</time>
      </trkpt>
      <trkpt lat="65.81252" lon="12.43717">
        <ele>42.187089</ele>
        <time>2020-08-13T15:10:15.976Z</time>
      </trkpt>
      <trkpt lat="65.81261" lon="12.43699">
        <ele>42.274741</ele>
        <time>2020-08-13T15:10:17.961Z</time>
      </trkpt>
      <trkpt lat="65.8127" lon="12.43679">
        <ele>42.366296</ele>
        <time>2020-08-13T15:10:19.962Z</time>
      </trkpt>
      <trkpt lat="65.8128" lon="12.43661">
        <ele>42.458525</ele>
        <time>2020-08-13T15:10:21.978Z</time>
      </trkpt>
      <trkpt lat="65.81291" lon="12.43646">
        <ele>42.552588</ele>
        <time>2020-08-13T15:10:24.030Z</time>
      </trkpt>
      <trkpt lat="65.81301" lon="12.43631">
        <ele>42.644227</ele>
        <time>2020-08-13T15:10:25.980Z</time>
      </trkpt>
      <trkpt lat="65.81311" lon="12.43616">
        <ele>42.728046</ele>
        <time>2020-08-13T15:10:27.982Z</time>
      </trkpt>
      <trkpt lat="65.81321" lon="12.43601">
        <ele>42.814777</ele>
        <time>2020-08-13T15:10:29.984Z</time>
      </trkpt>
      <trkpt lat="65.81331" lon="12.43585">
        <ele>42.907053</ele>
        <time>2020-08-13T15:10:31.982Z</time>
      </trkpt>
      <trkpt lat="65.81342" lon="12.4357">
        <ele>42.999513</ele>
        <time>2020-08-13T15:10:33.980Z</time>
      </trkpt>
      <trkpt lat="65.81353" lon="12.43555">
        <ele>43.092318</ele>
        <time>2020-08-13T15:10:36.001Z</time>
      </trkpt>
      <trkpt lat="65.81363" lon="12.43541">
        <ele>43.183655</ele>
        <time>2020-08-13T15:10:38.009Z</time>
      </trkpt>
      <trkpt lat="65.81374" lon="12.43528">
        <ele>43.076617</ele>
        <time>2020-08-13T15:10:39.978Z</time>
      </trkpt>
      <trkpt lat="65.81384" lon="12.43514">
        <ele>42.89586</ele>
        <time>2020-08-13T15:10:41.960Z</time>
      </trkpt>
      <trkpt lat="65.81394" lon="12.43501">
        <ele>42.716488</ele>
        <time>2020-08-13T15:10:43.956Z</time>
      </trkpt>
      <trkpt lat="65.81404" lon="12.43489">
        <ele>42.538792</ele>
        <time>2020-08-13T15:10:45.975Z</time>
      </trkpt>
      <trkpt lat="65.81415" lon="12.43478">
        <ele>42.347929</ele>
        <time>2020-08-13T15:10:47.995Z</time>
      </trkpt>
      <trkpt lat="65.81426" lon="12.43466">
        <ele>42.151852</ele>
        <time>2020-08-13T15:10:49.945Z</time>
      </trkpt>
      <trkpt lat="65.81437" lon="12.43451">
        <ele>41.959643</ele>
        <time>2020-08-13T15:10:52.029Z</time>
      </trkpt>
      <trkpt lat="65.81446" lon="12.4344">
        <ele>41.79709</ele>
        <time>2020-08-13T15:10:53.953Z</time>
      </trkpt>
      <trkpt lat="65.81456" lon="12.43429">
        <ele>41.615797</ele>
        <time>2020-08-13T15:10:55.993Z</time>
      </trkpt>
      <trkpt lat="65.81467" lon="12.43418">
        <ele>41.431492</ele>
        <time>2020-08-13T15:10:57.976Z</time>
      </trkpt>
      <trkpt lat="65.81477" lon="12.43407">
        <ele>41.260136</ele>
        <time>2020-08-13T15:11:00.006Z</time>
      </trkpt>
      <trkpt lat="65.81487" lon="12.43391">
        <ele>41.066919</ele>
        <time>2020-08-13T15:11:01.995Z</time>
      </trkpt>
      <trkpt lat="65.81497" lon="12.43379">
        <ele>40.881595</ele>
        <time>2020-08-13T15:11:03.995Z</time>
      </trkpt>
      <trkpt lat="65.81509" lon="12.43368">
        <ele>40.691224</ele>
        <time>2020-08-13T15:11:05.981Z</time>
      </trkpt>
      <trkpt lat="65.8152" lon="12.43359">
        <ele>40.496991</ele>
        <time>2020-08-13T15:11:08.023Z</time>
      </trkpt>
      <trkpt lat="65.81532" lon="12.43353">
        <ele>40.397857</ele>
        <time>2020-08-13T15:11:09.964Z</time>
      </trkpt>
      <trkpt lat="65.81543" lon="12.43349">
        <ele>40.660175</ele>
        <time>2020-08-13T15:11:12.016Z</time>
      </trkpt>
      <trkpt lat="65.81555" lon="12.43345">
        <ele>40.919348</ele>
        <time>2020-08-13T15:11:13.951Z</time>
      </trkpt>
      <trkpt lat="65.81567" lon="12.43339">
        <ele>41.182771</ele>
        <time>2020-08-13T15:11:15.987Z</time>
      </trkpt>
      <trkpt lat="65.81578" lon="12.43334">
        <ele>41.438695</ele>
        <time>2020-08-13T15:11:18.017Z</time>
      </trkpt>
      <trkpt lat="65.8159" lon="12.43331">
        <ele>41.70365</ele>
        <time>2020-08-13T15:11:19.966Z</time>
      </trkpt>
      <trkpt lat="65.81602" lon="12.43331">
        <ele>41.962488</ele>
        <time>2020-08-13T15:11:21.975Z</time>
      </trkpt>
      <trkpt lat="65.81612" lon="12.43332">
        <ele>42.201586</ele>
        <time>2020-08-13T15:11:23.993Z</time>
      </trkpt>
      <trkpt lat="65.81622" lon="12.43334">
        <ele>42.409984</ele>
        <time>2020-08-13T15:11:25.970Z</time>
      </trkpt>
      <trkpt lat="65.81633" lon="12.43333">
        <ele>42.655574</ele>
        <time>2020-08-13T15:11:27.958Z</time>
      </trkpt>
      <trkpt lat="65.81646" lon="12.43332">
        <ele>42.950259</ele>
        <time>2020-08-13T15:11:29.991Z</time>
      </trkpt>
      <trkpt lat="65.81658" lon="12.43328">
        <ele>43.217841</ele>
        <time>2020-08-13T15:11:31.954Z</time>
      </trkpt>
      <trkpt lat="65.81669" lon="12.43324">
        <ele>43.469833</ele>
        <time>2020-08-13T15:11:33.974Z</time>
      </trkpt>
      <trkpt lat="65.8168" lon="12.4332">
        <ele>43.701319</ele>
        <time>2020-08-13T15:11:35.958Z</time>
      </trkpt>
      <trkpt lat="65.81691" lon="12.43317">
        <ele>43.950682</ele>
        <time>2020-08-13T15:11:37.953Z</time>
      </trkpt>
      <trkpt lat="65.81702" lon="12.43313">
        <ele>44.206953</ele>
        <time>2020-08-13T15:11:39.967Z</time>
      </trkpt>
      <trkpt lat="65.81715" lon="12.43312">
        <ele>44.378183</ele>
        <time>2020-08-13T15:11:41.981Z</time>
      </trkpt>
      <trkpt lat="65.81727" lon="12.43311">
        <ele>44.458819</ele>
        <time>2020-08-13T15:11:43.976Z</time>
      </trkpt>
      <trkpt lat="65.81738" lon="12.43311">
        <ele>44.538048</ele>
        <time>2020-08-13T15:11:45.953Z</time>
      </trkpt>
      <trkpt lat="65.81749" lon="12.43313">
        <ele>44.6148</ele>
        <time>2020-08-13T15:11:47.985Z</time>
      </trkpt>
      <trkpt lat="65.81759" lon="12.43313">
        <ele>44.684993</ele>
        <time>2020-08-13T15:11:49.952Z</time>
      </trkpt>
      <trkpt lat="65.8177" lon="12.43309">
        <ele>44.761284</ele>
        <time>2020-08-13T15:11:51.979Z</time>
      </trkpt>
      <trkpt lat="65.81783" lon="12.43307">
        <ele>44.851013</ele>
        <time>2020-08-13T15:11:55.004Z</time>
      </trkpt>
      <trkpt lat="65.81795" lon="12.43306">
        <ele>44.936533</ele>
        <time>2020-08-13T15:11:57.979Z</time>
      </trkpt>
      <trkpt lat="65.81807" lon="12.43312">
        <ele>45.0224</ele>
        <time>2020-08-13T15:12:00.991Z</time>
      </trkpt>
      <trkpt lat="65.8182" lon="12.4331">
        <ele>45.11174</ele>
        <time>2020-08-13T15:12:04.007Z</time>
      </trkpt>
      <trkpt lat="65.81829" lon="12.43308">
        <ele>45.174366</ele>
        <time>2020-08-13T15:12:06.026Z</time>
      </trkpt>
      <trkpt lat="65.81842" lon="12.43303">
        <ele>45.267628</ele>
        <time>2020-08-13T15:12:09.040Z</time>
      </trkpt>
      <trkpt lat="65.81855" lon="12.43296">
        <ele>45.356449</ele>
        <time>2020-08-13T15:12:11.977Z</time>
      </trkpt>
      <trkpt lat="65.81868" lon="12.4329">
        <ele>45.448344</ele>
        <time>2020-08-13T15:12:15.014Z</time>
      </trkpt>
      <trkpt lat="65.81879" lon="12.43289">
        <ele>45.527633</ele>
        <time>2020-08-13T15:12:17.987Z</time>
      </trkpt>
      <trkpt lat="65.81889" lon="12.43288">
        <ele>45.461629</ele>
        <time>2020-08-13T15:12:20.024Z</time>
      </trkpt>
      <trkpt lat="65.81899" lon="12.43288">
        <ele>45.092469</ele>
        <time>2020-08-13T15:12:21.979Z</time>
      </trkpt>
      <trkpt lat="65.81911" lon="12.43291">
        <ele>44.60445</ele>
        <time>2020-08-13T15:12:25.022Z</time>
      </trkpt>
      <trkpt lat="65.81922" lon="12.43291">
        <ele>44.130921</ele>
        <time>2020-08-13T15:12:27.987Z</time>
      </trkpt>
      <trkpt lat="65.81933" lon="12.43289">
        <ele>43.716986</ele>
        <time>2020-08-13T15:12:31.043Z</time>
      </trkpt>
      <trkpt lat="65.81944" lon="12.43294">
        <ele>43.270237</ele>
        <time>2020-08-13T15:12:34.997Z</time>
      </trkpt>
      <trkpt lat="65.81954" lon="12.43288">
        <ele>42.837901</ele>
        <time>2020-08-13T15:12:38.994Z</time>
      </trkpt>
      <trkpt lat="65.81965" lon="12.43285">
        <ele>42.398116</ele>
        <time>2020-08-13T15:12:42.011Z</time>
      </trkpt>
      <trkpt lat="65.81975" lon="12.43286">
        <ele>42.000107</ele>
        <time>2020-08-13T15:12:45.000Z</time>
      </trkpt>
      <trkpt lat="65.81986" lon="12.43283">
        <ele>41.555979</ele>
        <time>2020-08-13T15:12:48.974Z</time>
      </trkpt>
      <trkpt lat="65.81996" lon="12.43279">
        <ele>41.148827</ele>
        <time>2020-08-13T15:12:52.971Z</time>
      </trkpt>
      <trkpt lat="65.82006" lon="12.43275">
        <ele>40.737156</ele>
        <time>2020-08-13T15:12:57.994Z</time>
      </trkpt>
      <trkpt lat="65.82017" lon="12.43273">
        <ele>40.282661</ele>
        <time>2020-08-13T15:13:02.023Z</time>
      </trkpt>
      <trkpt lat="65.82027" lon="12.43271">
        <ele>39.912569</ele>
        <time>2020-08-13T15:13:06.020Z</time>
      </trkpt>
      <trkpt lat="65.82036" lon="12.43263">
        <ele>39.50659</ele>
        <time>2020-08-13T15:13:09.994Z</time>
      </trkpt>
      <trkpt lat="65.82045" lon="12.43253">
        <ele>39.10775</ele>
        <time>2020-08-13T15:13:13.998Z</time>
      </trkpt>
      <trkpt lat="65.82056" lon="12.43242">
        <ele>38.64623</ele>
        <time>2020-08-13T15:13:17.985Z</time>
      </trkpt>
      <trkpt lat="65.82065" lon="12.43232">
        <ele>38.382427</ele>
        <time>2020-08-13T15:13:21.982Z</time>
      </trkpt>
      <trkpt lat="65.82073" lon="12.4322">
        <ele>38.452472</ele>
        <time>2020-08-13T15:13:26.017Z</time>
      </trkpt>
      <trkpt lat="65.82082" lon="12.43209">
        <ele>38.526857</ele>
        <time>2020-08-13T15:13:29.978Z</time>
      </trkpt>
      <trkpt lat="65.8209" lon="12.43196">
        <ele>38.594719</ele>
        <time>2020-08-13T15:13:33.978Z</time>
      </trkpt>
      <trkpt lat="65.82099" lon="12.43184">
        <ele>38.66854</ele>
        <time>2020-08-13T15:13:39.980Z</time>
      </trkpt>
      <trkpt lat="65.82107" lon="12.43172">
        <ele>38.738112</ele>
        <time>2020-08-13T15:13:45.987Z</time>
      </trkpt>
      <trkpt lat="65.82115" lon="12.43159">
        <ele>38.812866</ele>
        <time>2020-08-13T15:13:52.985Z</time>
      </trkpt>
      <trkpt lat="65.82124" lon="12.43151">
        <ele>38.882763</ele>
        <time>2020-08-13T15:13:58.998Z</time>
      </trkpt>
      <trkpt lat="65.82133" lon="12.43148">
        <ele>38.951683</ele>
        <time>2020-08-13T15:14:04.979Z</time>
      </trkpt>
      <trkpt lat="65.82142" lon="12.43139">
        <ele>39.021098</ele>
        <time>2020-08-13T15:14:11.966Z</time>
      </trkpt>
      <trkpt lat="65.82146" lon="12.43115">
        <ele>39.098641</ele>
        <time>2020-08-13T15:14:19.997Z</time>
      </trkpt>
      <trkpt lat="65.82147" lon="12.43093">
        <ele>39.166532</ele>
        <time>2020-08-13T15:14:26.965Z</time>
      </trkpt>
      <trkpt lat="65.8214" lon="12.43077">
        <ele>39.23642</ele>
        <time>2020-08-13T15:14:37.961Z</time>
      </trkpt>
      <trkpt lat="65.82159" lon="12.43026">
        <ele>39.443568</ele>
        <time>2020-08-13T15:18:33.001Z</time>
      </trkpt>
      <trkpt lat="65.82171" lon="12.43011">
        <ele>39.547256</ele>
        <time>2020-08-13T15:18:35.004Z</time>
      </trkpt>
      <trkpt lat="65.82185" lon="12.42999">
        <ele>39.656646</ele>
        <time>2020-08-13T15:18:36.971Z</time>
      </trkpt>
      <trkpt lat="65.82198" lon="12.42988">
        <ele>40.182938</ele>
        <time>2020-08-13T15:18:38.986Z</time>
      </trkpt>
      <trkpt lat="65.82208" lon="12.42979">
        <ele>40.739914</ele>
        <time>2020-08-13T15:18:40.996Z</time>
      </trkpt>
      <trkpt lat="65.82217" lon="12.4297">
        <ele>41.213239</ele>
        <time>2020-08-13T15:18:43.029Z</time>
      </trkpt>
      <trkpt lat="65.82224" lon="12.42958">
        <ele>41.678985</ele>
        <time>2020-08-13T15:18:45.001Z</time>
      </trkpt>
      <trkpt lat="65.82232" lon="12.42945">
        <ele>42.149381</ele>
        <time>2020-08-13T15:18:46.963Z</time>
      </trkpt>
      <trkpt lat="65.82242" lon="12.42926">
        <ele>42.813773</ele>
        <time>2020-08-13T15:18:49.961Z</time>
      </trkpt>
      <trkpt lat="65.82251" lon="12.42904">
        <ele>43.473069</ele>
        <time>2020-08-13T15:18:52.962Z</time>
      </trkpt>
      <trkpt lat="65.82257" lon="12.42876">
        <ele>44.138963</ele>
        <time>2020-08-13T15:18:55.969Z</time>
      </trkpt>
      <trkpt lat="65.82261" lon="12.42847">
        <ele>44.788461</ele>
        <time>2020-08-13T15:18:58.962Z</time>
      </trkpt>
      <trkpt lat="65.82265" lon="12.4282">
        <ele>45.382499</ele>
        <time>2020-08-13T15:19:01.976Z</time>
      </trkpt>
      <trkpt lat="65.82269" lon="12.428">
        <ele>45.860413</ele>
        <time>2020-08-13T15:19:04.975Z</time>
      </trkpt>
      <trkpt lat="65.82276" lon="12.4278">
        <ele>46.409726</ele>
        <time>2020-08-13T15:19:09.962Z</time>
      </trkpt>
      <trkpt lat="65.82282" lon="12.4276">
        <ele>46.935764</ele>
        <time>2020-08-13T15:19:15.986Z</time>
      </trkpt>
      <trkpt lat="65.82287" lon="12.4274">
        <ele>47.44253</ele>
        <time>2020-08-13T15:19:21.967Z</time>
      </trkpt>
      <trkpt lat="65.82292" lon="12.42718">
        <ele>47.978598</ele>
        <time>2020-08-13T15:19:27.972Z</time>
      </trkpt>
      <trkpt lat="65.82298" lon="12.427">
        <ele>48.462777</ele>
        <time>2020-08-13T15:19:32.974Z</time>
      </trkpt>
      <trkpt lat="65.82302" lon="12.42678">
        <ele>48.964765</ele>
        <time>2020-08-13T15:19:38.977Z</time>
      </trkpt>
      <trkpt lat="65.82309" lon="12.42658">
        <ele>48.932679</ele>
        <time>2020-08-13T15:19:45.966Z</time>
      </trkpt>
      <trkpt lat="65.82315" lon="12.42638">
        <ele>48.902412</ele>
        <time>2020-08-13T15:19:50.958Z</time>
      </trkpt>
      <trkpt lat="65.82321" lon="12.4262">
        <ele>48.874034</ele>
        <time>2020-08-13T15:19:54.972Z</time>
      </trkpt>
      <trkpt lat="65.82326" lon="12.42599">
        <ele>48.843939</ele>
        <time>2020-08-13T15:19:58.961Z</time>
      </trkpt>
      <trkpt lat="65.82332" lon="12.42577">
        <ele>48.81077</ele>
        <time>2020-08-13T15:20:02.970Z</time>
      </trkpt>
      <trkpt lat="65.82338" lon="12.42558">
        <ele>48.781902</ele>
        <time>2020-08-13T15:20:05.971Z</time>
      </trkpt>
      <trkpt lat="65.82343" lon="12.42535">
        <ele>48.750579</ele>
        <time>2020-08-13T15:20:08.967Z</time>
      </trkpt>
      <trkpt lat="65.82348" lon="12.42514">
        <ele>48.719747</ele>
        <time>2020-08-13T15:20:11.969Z</time>
      </trkpt>
      <trkpt lat="65.82354" lon="12.42491">
        <ele>48.687063</ele>
        <time>2020-08-13T15:20:14.968Z</time>
      </trkpt>
      <trkpt lat="65.82359" lon="12.42469">
        <ele>48.655979</ele>
        <time>2020-08-13T15:20:17.957Z</time>
      </trkpt>
      <trkpt lat="65.82364" lon="12.42446">
        <ele>48.624082</ele>
        <time>2020-08-13T15:20:20.978Z</time>
      </trkpt>
      <trkpt lat="65.8237" lon="12.42423">
        <ele>48.590845</ele>
        <time>2020-08-13T15:20:23.979Z</time>
      </trkpt>
      <trkpt lat="65.82376" lon="12.42397">
        <ele>48.554537</ele>
        <time>2020-08-13T15:20:26.982Z</time>
      </trkpt>
      <trkpt lat="65.82381" lon="12.42372">
        <ele>48.519194</ele>
        <time>2020-08-13T15:20:29.994Z</time>
      </trkpt>
      <trkpt lat="65.82387" lon="12.42347">
        <ele>48.484639</ele>
        <time>2020-08-13T15:20:32.996Z</time>
      </trkpt>
      <trkpt lat="65.82394" lon="12.42321">
        <ele>48.446863</ele>
        <time>2020-08-13T15:20:36.031Z</time>
      </trkpt>
      <trkpt lat="65.824" lon="12.42294">
        <ele>48.372788</ele>
        <time>2020-08-13T15:20:38.977Z</time>
      </trkpt>
      <trkpt lat="65.82405" lon="12.42268">
        <ele>48.260664</ele>
        <time>2020-08-13T15:20:41.949Z</time>
      </trkpt>
      <trkpt lat="65.82411" lon="12.42242">
        <ele>48.148453</ele>
        <time>2020-08-13T15:20:44.971Z</time>
      </trkpt>
      <trkpt lat="65.82416" lon="12.42219">
        <ele>48.042893</ele>
        <time>2020-08-13T15:20:47.954Z</time>
      </trkpt>
      <trkpt lat="65.82422" lon="12.42194">
        <ele>47.933095</ele>
        <time>2020-08-13T15:20:50.994Z</time>
      </trkpt>
      <trkpt lat="65.82429" lon="12.4217">
        <ele>47.821123</ele>
        <time>2020-08-13T15:20:53.960Z</time>
      </trkpt>
      <trkpt lat="65.82436" lon="12.42145">
        <ele>47.703755</ele>
        <time>2020-08-13T15:20:56.952Z</time>
      </trkpt>
      <trkpt lat="65.82443" lon="12.42119">
        <ele>47.581909</ele>
        <time>2020-08-13T15:20:59.951Z</time>
      </trkpt>
      <trkpt lat="65.82448" lon="12.421">
        <ele>47.495613</ele>
        <time>2020-08-13T15:21:01.962Z</time>
      </trkpt>
      <trkpt lat="65.82453" lon="12.42079">
        <ele>47.402737</ele>
        <time>2020-08-13T15:21:04.001Z</time>
      </trkpt>
      <trkpt lat="65.82459" lon="12.42058">
        <ele>47.304286</ele>
        <time>2020-08-13T15:21:05.956Z</time>
      </trkpt>
      <trkpt lat="65.82465" lon="12.42036">
        <ele>47.202429</ele>
        <time>2020-08-13T15:21:07.984Z</time>
      </trkpt>
      <trkpt lat="65.82471" lon="12.42012">
        <ele>47.09576</ele>
        <time>2020-08-13T15:21:09.995Z</time>
      </trkpt>
      <trkpt lat="65.82477" lon="12.41987">
        <ele>46.981531</ele>
        <time>2020-08-13T15:21:11.973Z</time>
      </trkpt>
      <trkpt lat="65.82484" lon="12.41961">
        <ele>46.862207</ele>
        <time>2020-08-13T15:21:13.953Z</time>
      </trkpt>
      <trkpt lat="65.8249" lon="12.41933">
        <ele>46.73713</ele>
        <time>2020-08-13T15:21:15.964Z</time>
      </trkpt>
      <trkpt lat="65.82497" lon="12.41905">
        <ele>46.642683</ele>
        <time>2020-08-13T15:21:17.971Z</time>
      </trkpt>
      <trkpt lat="65.82504" lon="12.41876">
        <ele>46.546517</ele>
        <time>2020-08-13T15:21:19.980Z</time>
      </trkpt>
      <trkpt lat="65.82511" lon="12.41847">
        <ele>46.450707</ele>
        <time>2020-08-13T15:21:21.977Z</time>
      </trkpt>
      <trkpt lat="65.82518" lon="12.41818">
        <ele>46.352591</ele>
        <time>2020-08-13T15:21:23.977Z</time>
      </trkpt>
      <trkpt lat="65.82525" lon="12.41789">
        <ele>46.252259</ele>
        <time>2020-08-13T15:21:25.994Z</time>
      </trkpt>
      <trkpt lat="65.82533" lon="12.4176">
        <ele>46.152632</ele>
        <time>2020-08-13T15:21:27.959Z</time>
      </trkpt>
      <trkpt lat="65.82541" lon="12.41732">
        <ele>46.055085</ele>
        <time>2020-08-13T15:21:29.967Z</time>
      </trkpt>
      <trkpt lat="65.82548" lon="12.41703">
        <ele>45.956598</ele>
        <time>2020-08-13T15:21:32.005Z</time>
      </trkpt>
      <trkpt lat="65.82556" lon="12.41674">
        <ele>45.856245</ele>
        <time>2020-08-13T15:21:33.956Z</time>
      </trkpt>
      <trkpt lat="65.82564" lon="12.41646">
        <ele>45.756367</ele>
        <time>2020-08-13T15:21:35.960Z</time>
      </trkpt>
      <trkpt lat="65.82572" lon="12.41618">
        <ele>45.656902</ele>
        <time>2020-08-13T15:21:37.995Z</time>
      </trkpt>
      <trkpt lat="65.8258" lon="12.41592">
        <ele>45.562701</ele>
        <time>2020-08-13T15:21:39.962Z</time>
      </trkpt>
      <trkpt lat="65.82588" lon="12.41568">
        <ele>45.474168</ele>
        <time>2020-08-13T15:21:41.966Z</time>
      </trkpt>
      <trkpt lat="65.82596" lon="12.41546">
        <ele>45.499717</ele>
        <time>2020-08-13T15:21:43.978Z</time>
      </trkpt>
      <trkpt lat="65.82603" lon="12.41525">
        <ele>45.540643</ele>
        <time>2020-08-13T15:21:45.975Z</time>
      </trkpt>
      <trkpt lat="65.82611" lon="12.41506">
        <ele>45.581011</ele>
        <time>2020-08-13T15:21:47.975Z</time>
      </trkpt>
      <trkpt lat="65.82618" lon="12.41486">
        <ele>45.622465</ele>
        <time>2020-08-13T15:21:49.958Z</time>
      </trkpt>
      <trkpt lat="65.82626" lon="12.41465">
        <ele>45.664098</ele>
        <time>2020-08-13T15:21:51.994Z</time>
      </trkpt>
      <trkpt lat="65.82634" lon="12.41444">
        <ele>45.706819</ele>
        <time>2020-08-13T15:21:53.964Z</time>
      </trkpt>
      <trkpt lat="65.82642" lon="12.41422">
        <ele>45.75045</ele>
        <time>2020-08-13T15:21:55.961Z</time>
      </trkpt>
      <trkpt lat="65.8265" lon="12.41401">
        <ele>45.79342</ele>
        <time>2020-08-13T15:21:57.956Z</time>
      </trkpt>
      <trkpt lat="65.82658" lon="12.41379">
        <ele>45.837162</ele>
        <time>2020-08-13T15:21:59.983Z</time>
      </trkpt>
      <trkpt lat="65.82666" lon="12.41357">
        <ele>45.881931</ele>
        <time>2020-08-13T15:22:01.947Z</time>
      </trkpt>
      <trkpt lat="65.82674" lon="12.41334">
        <ele>45.926813</ele>
        <time>2020-08-13T15:22:03.988Z</time>
      </trkpt>
      <trkpt lat="65.82682" lon="12.41311">
        <ele>45.972498</ele>
        <time>2020-08-13T15:22:06.006Z</time>
      </trkpt>
      <trkpt lat="65.8269" lon="12.41289">
        <ele>46.018334</ele>
        <time>2020-08-13T15:22:07.955Z</time>
      </trkpt>
      <trkpt lat="65.82699" lon="12.41266">
        <ele>46.064036</ele>
        <time>2020-08-13T15:22:09.977Z</time>
      </trkpt>
      <trkpt lat="65.82707" lon="12.41243">
        <ele>46.110061</ele>
        <time>2020-08-13T15:22:11.959Z</time>
      </trkpt>
      <trkpt lat="65.82715" lon="12.4122">
        <ele>46.152717</ele>
        <time>2020-08-13T15:22:13.964Z</time>
      </trkpt>
      <trkpt lat="65.82722" lon="12.41199">
        <ele>46.192915</ele>
        <time>2020-08-13T15:22:15.965Z</time>
      </trkpt>
      <trkpt lat="65.8273" lon="12.41177">
        <ele>46.23334</ele>
        <time>2020-08-13T15:22:17.957Z</time>
      </trkpt>
      <trkpt lat="65.82737" lon="12.41157">
        <ele>46.273134</ele>
        <time>2020-08-13T15:22:19.982Z</time>
      </trkpt>
      <trkpt lat="65.82745" lon="12.41136">
        <ele>46.312895</ele>
        <time>2020-08-13T15:22:21.958Z</time>
      </trkpt>
      <trkpt lat="65.82752" lon="12.41114">
        <ele>46.353887</ele>
        <time>2020-08-13T15:22:23.984Z</time>
      </trkpt>
      <trkpt lat="65.8276" lon="12.41093">
        <ele>46.394433</ele>
        <time>2020-08-13T15:22:25.951Z</time>
      </trkpt>
      <trkpt lat="65.82767" lon="12.41072">
        <ele>46.434076</ele>
        <time>2020-08-13T15:22:27.990Z</time>
      </trkpt>
      <trkpt lat="65.82775" lon="12.41051">
        <ele>46.474729</ele>
        <time>2020-08-13T15:22:29.961Z</time>
      </trkpt>
      <trkpt lat="65.82783" lon="12.41028">
        <ele>46.517367</ele>
        <time>2020-08-13T15:22:31.959Z</time>
      </trkpt>
      <trkpt lat="65.82791" lon="12.41005">
        <ele>46.559903</ele>
        <time>2020-08-13T15:22:34.013Z</time>
      </trkpt>
      <trkpt lat="65.82798" lon="12.40984">
        <ele>46.600698</ele>
        <time>2020-08-13T15:22:35.979Z</time>
      </trkpt>
      <trkpt lat="65.82806" lon="12.40963">
        <ele>46.640905</ele>
        <time>2020-08-13T15:22:37.960Z</time>
      </trkpt>
      <trkpt lat="65.82813" lon="12.40942">
        <ele>46.679547</ele>
        <time>2020-08-13T15:22:39.996Z</time>
      </trkpt>
      <trkpt lat="65.8282" lon="12.40922">
        <ele>46.717872</ele>
        <time>2020-08-13T15:22:41.974Z</time>
      </trkpt>
      <trkpt lat="65.82828" lon="12.40902">
        <ele>46.748258</ele>
        <time>2020-08-13T15:22:44.044Z</time>
      </trkpt>
      <trkpt lat="65.82835" lon="12.40882">
        <ele>46.725428</ele>
        <time>2020-08-13T15:22:45.963Z</time>
      </trkpt>
      <trkpt lat="65.82842" lon="12.40863">
        <ele>46.703238</ele>
        <time>2020-08-13T15:22:47.968Z</time>
      </trkpt>
      <trkpt lat="65.82849" lon="12.40844">
        <ele>46.681203</ele>
        <time>2020-08-13T15:22:49.965Z</time>
      </trkpt>
      <trkpt lat="65.82856" lon="12.40824">
        <ele>46.659057</ele>
        <time>2020-08-13T15:22:51.970Z</time>
      </trkpt>
      <trkpt lat="65.82864" lon="12.40803">
        <ele>46.63572</ele>
        <time>2020-08-13T15:22:53.984Z</time>
      </trkpt>
      <trkpt lat="65.82871" lon="12.40783">
        <ele>46.612045</ele>
        <time>2020-08-13T15:22:55.965Z</time>
      </trkpt>
      <trkpt lat="65.82879" lon="12.40762">
        <ele>46.588707</ele>
        <time>2020-08-13T15:22:57.992Z</time>
      </trkpt>
      <trkpt lat="65.82886" lon="12.40741">
        <ele>46.565506</ele>
        <time>2020-08-13T15:22:59.979Z</time>
      </trkpt>
      <trkpt lat="65.82894" lon="12.40721">
        <ele>46.54166</ele>
        <time>2020-08-13T15:23:01.963Z</time>
      </trkpt>
      <trkpt lat="65.82902" lon="12.40701">
        <ele>46.518346</ele>
        <time>2020-08-13T15:23:03.964Z</time>
      </trkpt>
      <trkpt lat="65.82909" lon="12.40681">
        <ele>46.494907</ele>
        <time>2020-08-13T15:23:06.006Z</time>
      </trkpt>
      <trkpt lat="65.82916" lon="12.4066">
        <ele>46.472099</ele>
        <time>2020-08-13T15:23:07.957Z</time>
      </trkpt>
      <trkpt lat="65.82923" lon="12.40641">
        <ele>46.449947</ele>
        <time>2020-08-13T15:23:09.969Z</time>
      </trkpt>
      <trkpt lat="65.82931" lon="12.40621">
        <ele>46.427267</ele>
        <time>2020-08-13T15:23:11.959Z</time>
      </trkpt>
      <trkpt lat="65.82938" lon="12.40601">
        <ele>46.405169</ele>
        <time>2020-08-13T15:23:13.962Z</time>
      </trkpt>
      <trkpt lat="65.82945" lon="12.40582">
        <ele>46.383346</ele>
        <time>2020-08-13T15:23:15.954Z</time>
      </trkpt>
      <trkpt lat="65.82952" lon="12.40562">
        <ele>46.318274</ele>
        <time>2020-08-13T15:23:17.970Z</time>
      </trkpt>
      <trkpt lat="65.82959" lon="12.40544">
        <ele>46.241371</ele>
        <time>2020-08-13T15:23:19.963Z</time>
      </trkpt>
      <trkpt lat="65.82967" lon="12.40526">
        <ele>46.164772</ele>
        <time>2020-08-13T15:23:21.995Z</time>
      </trkpt>
      <trkpt lat="65.82975" lon="12.40509">
        <ele>46.090313</ele>
        <time>2020-08-13T15:23:23.971Z</time>
      </trkpt>
      <trkpt lat="65.82983" lon="12.40492">
        <ele>46.015571</ele>
        <time>2020-08-13T15:23:26.005Z</time>
      </trkpt>
      <trkpt lat="65.82991" lon="12.40476">
        <ele>45.939944</ele>
        <time>2020-08-13T15:23:27.957Z</time>
      </trkpt>
      <trkpt lat="65.82999" lon="12.40461">
        <ele>45.863624</ele>
        <time>2020-08-13T15:23:29.956Z</time>
      </trkpt>
      <trkpt lat="65.83008" lon="12.40446">
        <ele>45.785201</ele>
        <time>2020-08-13T15:23:31.977Z</time>
      </trkpt>
      <trkpt lat="65.83017" lon="12.40431">
        <ele>45.705929</ele>
        <time>2020-08-13T15:23:33.962Z</time>
      </trkpt>
      <trkpt lat="65.83027" lon="12.40416">
        <ele>45.626287</ele>
        <time>2020-08-13T15:23:36.001Z</time>
      </trkpt>
      <trkpt lat="65.83037" lon="12.40403">
        <ele>45.543385</ele>
        <time>2020-08-13T15:23:37.979Z</time>
      </trkpt>
      <trkpt lat="65.83047" lon="12.4039">
        <ele>45.45856</ele>
        <time>2020-08-13T15:23:39.959Z</time>
      </trkpt>
      <trkpt lat="65.83057" lon="12.40378">
        <ele>45.377616</ele>
        <time>2020-08-13T15:23:41.975Z</time>
      </trkpt>
      <trkpt lat="65.83067" lon="12.40366">
        <ele>45.300685</ele>
        <time>2020-08-13T15:23:43.982Z</time>
      </trkpt>
      <trkpt lat="65.83076" lon="12.40354">
        <ele>45.224394</ele>
        <time>2020-08-13T15:23:45.971Z</time>
      </trkpt>
      <trkpt lat="65.83085" lon="12.40343">
        <ele>45.150701</ele>
        <time>2020-08-13T15:23:48.004Z</time>
      </trkpt>
      <trkpt lat="65.83094" lon="12.40332">
        <ele>45.084845</ele>
        <time>2020-08-13T15:23:50.000Z</time>
      </trkpt>
      <trkpt lat="65.83102" lon="12.40322">
        <ele>45.334999</ele>
        <time>2020-08-13T15:23:51.983Z</time>
      </trkpt>
      <trkpt lat="65.83114" lon="12.40308">
        <ele>45.699704</ele>
        <time>2020-08-13T15:23:54.969Z</time>
      </trkpt>
      <trkpt lat="65.83126" lon="12.40295">
        <ele>46.05958</ele>
        <time>2020-08-13T15:23:57.979Z</time>
      </trkpt>
      <trkpt lat="65.83138" lon="12.40281">
        <ele>46.408104</ele>
        <time>2020-08-13T15:24:01.006Z</time>
      </trkpt>
      <trkpt lat="65.83149" lon="12.40267">
        <ele>46.753747</ele>
        <time>2020-08-13T15:24:03.954Z</time>
      </trkpt>
      <trkpt lat="65.8316" lon="12.40254">
        <ele>47.076836</ele>
        <time>2020-08-13T15:24:06.997Z</time>
      </trkpt>
      <trkpt lat="65.8317" lon="12.40242">
        <ele>47.396625</ele>
        <time>2020-08-13T15:24:09.957Z</time>
      </trkpt>
      <trkpt lat="65.83181" lon="12.4023">
        <ele>47.71581</ele>
        <time>2020-08-13T15:24:12.958Z</time>
      </trkpt>
      <trkpt lat="65.83192" lon="12.40217">
        <ele>48.037993</ele>
        <time>2020-08-13T15:24:15.990Z</time>
      </trkpt>
      <trkpt lat="65.83202" lon="12.40203">
        <ele>48.362088</ele>
        <time>2020-08-13T15:24:18.952Z</time>
      </trkpt>
      <trkpt lat="65.83213" lon="12.40189">
        <ele>48.692729</ele>
        <time>2020-08-13T15:24:21.957Z</time>
      </trkpt>
      <trkpt lat="65.83224" lon="12.40175">
        <ele>49.034274</ele>
        <time>2020-08-13T15:24:24.961Z</time>
      </trkpt>
      <trkpt lat="65.83235" lon="12.4016">
        <ele>49.371826</ele>
        <time>2020-08-13T15:24:27.975Z</time>
      </trkpt>
      <trkpt lat="65.83246" lon="12.40149">
        <ele>49.713679</ele>
        <time>2020-08-13T15:24:30.951Z</time>
      </trkpt>
      <trkpt lat="65.83258" lon="12.40134">
        <ele>49.935933</ele>
        <time>2020-08-13T15:24:33.961Z</time>
      </trkpt>
      <trkpt lat="65.83266" lon="12.40124">
        <ele>49.809448</ele>
        <time>2020-08-13T15:24:35.954Z</time>
      </trkpt>
      <trkpt lat="65.83274" lon="12.40114">
        <ele>49.680201</ele>
        <time>2020-08-13T15:24:37.984Z</time>
      </trkpt>
      <trkpt lat="65.83282" lon="12.40103">
        <ele>49.55237</ele>
        <time>2020-08-13T15:24:39.985Z</time>
      </trkpt>
      <trkpt lat="65.83291" lon="12.40093">
        <ele>49.416286</ele>
        <time>2020-08-13T15:24:42.015Z</time>
      </trkpt>
      <trkpt lat="65.833" lon="12.40081">
        <ele>49.272379</ele>
        <time>2020-08-13T15:24:43.991Z</time>
      </trkpt>
      <trkpt lat="65.8331" lon="12.4007">
        <ele>49.122704</ele>
        <time>2020-08-13T15:24:45.986Z</time>
      </trkpt>
      <trkpt lat="65.83319" lon="12.40058">
        <ele>48.968988</ele>
        <time>2020-08-13T15:24:47.977Z</time>
      </trkpt>
      <trkpt lat="65.8333" lon="12.40044">
        <ele>48.803987</ele>
        <time>2020-08-13T15:24:49.987Z</time>
      </trkpt>
      <trkpt lat="65.8334" lon="12.4003">
        <ele>48.6372</ele>
        <time>2020-08-13T15:24:51.955Z</time>
      </trkpt>
      <trkpt lat="65.83351" lon="12.40017">
        <ele>48.470864</ele>
        <time>2020-08-13T15:24:53.954Z</time>
      </trkpt>
      <trkpt lat="65.83361" lon="12.40005">
        <ele>48.310583</ele>
        <time>2020-08-13T15:24:55.962Z</time>
      </trkpt>
      <trkpt lat="65.8337" lon="12.39994">
        <ele>48.17174</ele>
        <time>2020-08-13T15:24:57.971Z</time>
      </trkpt>
      <trkpt lat="65.83381" lon="12.39981">
        <ele>48.001602</ele>
        <time>2020-08-13T15:25:00.965Z</time>
      </trkpt>
      <trkpt lat="65.83392" lon="12.39966">
        <ele>47.816334</ele>
        <time>2020-08-13T15:25:03.968Z</time>
      </trkpt>
      <trkpt lat="65.83402" lon="12.39955">
        <ele>47.66893</ele>
        <time>2020-08-13T15:25:05.972Z</time>
      </trkpt>
      <trkpt lat="65.83412" lon="12.39943">
        <ele>47.511415</ele>
        <time>2020-08-13T15:25:07.999Z</time>
      </trkpt>
      <trkpt lat="65.83422" lon="12.39929">
        <ele>47.32225</ele>
        <time>2020-08-13T15:25:09.976Z</time>
      </trkpt>
      <trkpt lat="65.83433" lon="12.39915">
        <ele>47.116927</ele>
        <time>2020-08-13T15:25:11.967Z</time>
      </trkpt>
      <trkpt lat="65.83444" lon="12.39902">
        <ele>46.90672</ele>
        <time>2020-08-13T15:25:13.960Z</time>
      </trkpt>
      <trkpt lat="65.83455" lon="12.39887">
        <ele>46.68757</ele>
        <time>2020-08-13T15:25:15.972Z</time>
      </trkpt>
      <trkpt lat="65.83467" lon="12.39873">
        <ele>46.465697</ele>
        <time>2020-08-13T15:25:17.959Z</time>
      </trkpt>
      <trkpt lat="65.83478" lon="12.39859">
        <ele>46.242611</ele>
        <time>2020-08-13T15:25:19.967Z</time>
      </trkpt>
      <trkpt lat="65.8349" lon="12.39844">
        <ele>46.026814</ele>
        <time>2020-08-13T15:25:22.001Z</time>
      </trkpt>
      <trkpt lat="65.83501" lon="12.39831">
        <ele>45.805261</ele>
        <time>2020-08-13T15:25:23.984Z</time>
      </trkpt>
      <trkpt lat="65.83513" lon="12.39817">
        <ele>45.585543</ele>
        <time>2020-08-13T15:25:25.972Z</time>
      </trkpt>
      <trkpt lat="65.83524" lon="12.39803">
        <ele>45.374429</ele>
        <time>2020-08-13T15:25:27.965Z</time>
      </trkpt>
      <trkpt lat="65.83535" lon="12.39789">
        <ele>45.161436</ele>
        <time>2020-08-13T15:25:29.974Z</time>
      </trkpt>
      <trkpt lat="65.83545" lon="12.39776">
        <ele>44.961629</ele>
        <time>2020-08-13T15:25:31.958Z</time>
      </trkpt>
      <trkpt lat="65.83556" lon="12.39765">
        <ele>44.762719</ele>
        <time>2020-08-13T15:25:33.978Z</time>
      </trkpt>
      <trkpt lat="65.83566" lon="12.39753">
        <ele>44.56864</ele>
        <time>2020-08-13T15:25:35.993Z</time>
      </trkpt>
      <trkpt lat="65.83577" lon="12.39742">
        <ele>44.387647</ele>
        <time>2020-08-13T15:25:37.958Z</time>
      </trkpt>
      <trkpt lat="65.83587" lon="12.39731">
        <ele>44.478206</ele>
        <time>2020-08-13T15:25:39.976Z</time>
      </trkpt>
      <trkpt lat="65.83598" lon="12.3972">
        <ele>44.568765</ele>
        <time>2020-08-13T15:25:41.951Z</time>
      </trkpt>
      <trkpt lat="65.83608" lon="12.3971">
        <ele>44.658941</ele>
        <time>2020-08-13T15:25:43.967Z</time>
      </trkpt>
      <trkpt lat="65.83618" lon="12.397">
        <ele>44.747565</ele>
        <time>2020-08-13T15:25:45.973Z</time>
      </trkpt>
      <trkpt lat="65.83629" lon="12.39692">
        <ele>44.834992</ele>
        <time>2020-08-13T15:25:48.002Z</time>
      </trkpt>
      <trkpt lat="65.83639" lon="12.39684">
        <ele>44.921187</ele>
        <time>2020-08-13T15:25:49.954Z</time>
      </trkpt>
      <trkpt lat="65.83649" lon="12.39677">
        <ele>45.007425</ele>
        <time>2020-08-13T15:25:51.943Z</time>
      </trkpt>
      <trkpt lat="65.8366" lon="12.3967">
        <ele>45.094351</ele>
        <time>2020-08-13T15:25:53.968Z</time>
      </trkpt>
      <trkpt lat="65.8367" lon="12.39663">
        <ele>45.179133</ele>
        <time>2020-08-13T15:25:56.002Z</time>
      </trkpt>
      <trkpt lat="65.8368" lon="12.39657">
        <ele>45.263943</ele>
        <time>2020-08-13T15:25:57.959Z</time>
      </trkpt>
      <trkpt lat="65.83691" lon="12.39652">
        <ele>45.348957</ele>
        <time>2020-08-13T15:25:59.964Z</time>
      </trkpt>
      <trkpt lat="65.83701" lon="12.39646">
        <ele>45.434039</ele>
        <time>2020-08-13T15:26:01.972Z</time>
      </trkpt>
      <trkpt lat="65.83711" lon="12.39641">
        <ele>45.517354</ele>
        <time>2020-08-13T15:26:03.974Z</time>
      </trkpt>
      <trkpt lat="65.83722" lon="12.39636">
        <ele>45.602173</ele>
        <time>2020-08-13T15:26:05.957Z</time>
      </trkpt>
      <trkpt lat="65.83732" lon="12.39632">
        <ele>45.687905</ele>
        <time>2020-08-13T15:26:07.951Z</time>
      </trkpt>
      <trkpt lat="65.83743" lon="12.39628">
        <ele>45.771415</ele>
        <time>2020-08-13T15:26:09.959Z</time>
      </trkpt>
      <trkpt lat="65.83753" lon="12.39624">
        <ele>45.82253</ele>
        <time>2020-08-13T15:26:11.958Z</time>
      </trkpt>
      <trkpt lat="65.83763" lon="12.39619">
        <ele>45.820444</ele>
        <time>2020-08-13T15:26:13.959Z</time>
      </trkpt>
      <trkpt lat="65.83773" lon="12.39613">
        <ele>45.818388</ele>
        <time>2020-08-13T15:26:15.994Z</time>
      </trkpt>
      <trkpt lat="65.83783" lon="12.39608">
        <ele>45.816452</ele>
        <time>2020-08-13T15:26:17.987Z</time>
      </trkpt>
      <trkpt lat="65.83792" lon="12.39602">
        <ele>45.814602</ele>
        <time>2020-08-13T15:26:19.971Z</time>
      </trkpt>
      <trkpt lat="65.83801" lon="12.39596">
        <ele>45.812722</ele>
        <time>2020-08-13T15:26:21.960Z</time>
      </trkpt>
      <trkpt lat="65.83811" lon="12.39592">
        <ele>45.810666</ele>
        <time>2020-08-13T15:26:23.961Z</time>
      </trkpt>
      <trkpt lat="65.83822" lon="12.39587">
        <ele>45.808547</ele>
        <time>2020-08-13T15:26:25.956Z</time>
      </trkpt>
      <trkpt lat="65.83832" lon="12.39582">
        <ele>45.806461</ele>
        <time>2020-08-13T15:26:27.966Z</time>
      </trkpt>
      <trkpt lat="65.83842" lon="12.39578">
        <ele>45.804406</ele>
        <time>2020-08-13T15:26:29.991Z</time>
      </trkpt>
      <trkpt lat="65.83852" lon="12.39573">
        <ele>45.802366</ele>
        <time>2020-08-13T15:26:31.953Z</time>
      </trkpt>
      <trkpt lat="65.83862" lon="12.3957">
        <ele>45.800478</ele>
        <time>2020-08-13T15:26:33.981Z</time>
      </trkpt>
      <trkpt lat="65.83871" lon="12.39566">
        <ele>45.798571</ele>
        <time>2020-08-13T15:26:35.971Z</time>
      </trkpt>
      <trkpt lat="65.83881" lon="12.39562">
        <ele>45.796639</ele>
        <time>2020-08-13T15:26:37.980Z</time>
      </trkpt>
      <trkpt lat="65.8389" lon="12.39558">
        <ele>45.794707</ele>
        <time>2020-08-13T15:26:39.964Z</time>
      </trkpt>
      <trkpt lat="65.839" lon="12.39554">
        <ele>45.792805</ele>
        <time>2020-08-13T15:26:41.960Z</time>
      </trkpt>
      <trkpt lat="65.83909" lon="12.3955">
        <ele>45.790968</ele>
        <time>2020-08-13T15:26:43.975Z</time>
      </trkpt>
      <trkpt lat="65.83918" lon="12.39545">
        <ele>45.789147</ele>
        <time>2020-08-13T15:26:45.974Z</time>
      </trkpt>
      <trkpt lat="65.83927" lon="12.3954">
        <ele>45.780969</ele>
        <time>2020-08-13T15:26:47.958Z</time>
      </trkpt>
      <trkpt lat="65.83936" lon="12.39535">
        <ele>45.732479</ele>
        <time>2020-08-13T15:26:50.053Z</time>
      </trkpt>
      <trkpt lat="65.83945" lon="12.39531">
        <ele>45.683608</ele>
        <time>2020-08-13T15:26:51.969Z</time>
      </trkpt>
      <trkpt lat="65.83954" lon="12.39526">
        <ele>45.634781</ele>
        <time>2020-08-13T15:26:53.980Z</time>
      </trkpt>
      <trkpt lat="65.83966" lon="12.39521">
        <ele>45.566443</ele>
        <time>2020-08-13T15:26:56.986Z</time>
      </trkpt>
      <trkpt lat="65.83979" lon="12.39516">
        <ele>45.499609</ele>
        <time>2020-08-13T15:26:59.955Z</time>
      </trkpt>
      <trkpt lat="65.83991" lon="12.3951">
        <ele>45.430456</ele>
        <time>2020-08-13T15:27:03.003Z</time>
      </trkpt>
      <trkpt lat="65.84004" lon="12.39504">
        <ele>45.36162</ele>
        <time>2020-08-13T15:27:05.969Z</time>
      </trkpt>
      <trkpt lat="65.84017" lon="12.39499">
        <ele>45.291982</ele>
        <time>2020-08-13T15:27:08.999Z</time>
      </trkpt>
      <trkpt lat="65.8403" lon="12.39493">
        <ele>45.222943</ele>
        <time>2020-08-13T15:27:11.978Z</time>
      </trkpt>
      <trkpt lat="65.84042" lon="12.39488">
        <ele>45.155397</ele>
        <time>2020-08-13T15:27:15.004Z</time>
      </trkpt>
      <trkpt lat="65.84055" lon="12.39481">
        <ele>45.086475</ele>
        <time>2020-08-13T15:27:17.968Z</time>
      </trkpt>
      <trkpt lat="65.84067" lon="12.39475">
        <ele>45.019372</ele>
        <time>2020-08-13T15:27:20.963Z</time>
      </trkpt>
      <trkpt lat="65.84081" lon="12.39468">
        <ele>44.948052</ele>
        <time>2020-08-13T15:27:23.967Z</time>
      </trkpt>
      <trkpt lat="65.84093" lon="12.39461">
        <ele>44.879373</ele>
        <time>2020-08-13T15:27:26.956Z</time>
      </trkpt>
      <trkpt lat="65.84106" lon="12.39456">
        <ele>44.917122</ele>
        <time>2020-08-13T15:27:29.953Z</time>
      </trkpt>
      <trkpt lat="65.84118" lon="12.39451">
        <ele>45.186996</ele>
        <time>2020-08-13T15:27:32.952Z</time>
      </trkpt>
      <trkpt lat="65.84131" lon="12.39445">
        <ele>45.471279</ele>
        <time>2020-08-13T15:27:35.976Z</time>
      </trkpt>
      <trkpt lat="65.84144" lon="12.39439">
        <ele>45.763252</ele>
        <time>2020-08-13T15:27:38.979Z</time>
      </trkpt>
      <trkpt lat="65.84153" lon="12.39434">
        <ele>45.965386</ele>
        <time>2020-08-13T15:27:40.964Z</time>
      </trkpt>
      <trkpt lat="65.84162" lon="12.3943">
        <ele>46.169328</ele>
        <time>2020-08-13T15:27:42.958Z</time>
      </trkpt>
      <trkpt lat="65.84171" lon="12.39427">
        <ele>46.376512</ele>
        <time>2020-08-13T15:27:44.973Z</time>
      </trkpt>
      <trkpt lat="65.84181" lon="12.39423">
        <ele>46.589582</ele>
        <time>2020-08-13T15:27:46.992Z</time>
      </trkpt>
      <trkpt lat="65.8419" lon="12.39421">
        <ele>46.806044</ele>
        <time>2020-08-13T15:27:48.972Z</time>
      </trkpt>
      <trkpt lat="65.842" lon="12.3942">
        <ele>47.019707</ele>
        <time>2020-08-13T15:27:50.945Z</time>
      </trkpt>
      <trkpt lat="65.8421" lon="12.3942">
        <ele>47.230988</ele>
        <time>2020-08-13T15:27:52.957Z</time>
      </trkpt>
      <trkpt lat="65.84219" lon="12.3942">
        <ele>47.437838</ele>
        <time>2020-08-13T15:27:55.024Z</time>
      </trkpt>
      <trkpt lat="65.84228" lon="12.39421">
        <ele>47.635943</ele>
        <time>2020-08-13T15:27:56.957Z</time>
      </trkpt>
      <trkpt lat="65.84237" lon="12.39421">
        <ele>47.838503</ele>
        <time>2020-08-13T15:27:58.975Z</time>
      </trkpt>
      <trkpt lat="65.8425" lon="12.39425">
        <ele>48.126088</ele>
        <time>2020-08-13T15:28:01.963Z</time>
      </trkpt>
      <trkpt lat="65.84263" lon="12.39429">
        <ele>48.406409</ele>
        <time>2020-08-13T15:28:04.961Z</time>
      </trkpt>
      <trkpt lat="65.84274" lon="12.39434">
        <ele>48.662532</ele>
        <time>2020-08-13T15:28:07.953Z</time>
      </trkpt>
      <trkpt lat="65.84285" lon="12.39439">
        <ele>48.835991</ele>
        <time>2020-08-13T15:28:11.034Z</time>
      </trkpt>
      <trkpt lat="65.84295" lon="12.39444">
        <ele>48.926964</ele>
        <time>2020-08-13T15:28:13.962Z</time>
      </trkpt>
      <trkpt lat="65.84305" lon="12.39449">
        <ele>49.019328</ele>
        <time>2020-08-13T15:28:16.966Z</time>
      </trkpt>
      <trkpt lat="65.84315" lon="12.39453">
        <ele>49.111058</ele>
        <time>2020-08-13T15:28:19.962Z</time>
      </trkpt>
      <trkpt lat="65.84325" lon="12.39458">
        <ele>49.205586</ele>
        <time>2020-08-13T15:28:22.963Z</time>
      </trkpt>
      <trkpt lat="65.84337" lon="12.39463">
        <ele>49.311111</ele>
        <time>2020-08-13T15:28:25.961Z</time>
      </trkpt>
      <trkpt lat="65.84349" lon="12.39468">
        <ele>49.418679</ele>
        <time>2020-08-13T15:28:28.968Z</time>
      </trkpt>
      <trkpt lat="65.84361" lon="12.39475">
        <ele>49.531565</ele>
        <time>2020-08-13T15:28:31.995Z</time>
      </trkpt>
      <trkpt lat="65.8437" lon="12.39479">
        <ele>49.613318</ele>
        <time>2020-08-13T15:28:33.960Z</time>
      </trkpt>
      <trkpt lat="65.84379" lon="12.39483">
        <ele>49.700536</ele>
        <time>2020-08-13T15:28:35.954Z</time>
      </trkpt>
      <trkpt lat="65.84389" lon="12.39488">
        <ele>49.790832</ele>
        <time>2020-08-13T15:28:37.964Z</time>
      </trkpt>
      <trkpt lat="65.84399" lon="12.39493">
        <ele>49.884816</ele>
        <time>2020-08-13T15:28:39.957Z</time>
      </trkpt>
      <trkpt lat="65.84409" lon="12.39497">
        <ele>49.977632</ele>
        <time>2020-08-13T15:28:41.987Z</time>
      </trkpt>
      <trkpt lat="65.8442" lon="12.39502">
        <ele>50.076802</ele>
        <time>2020-08-13T15:28:43.960Z</time>
      </trkpt>
      <trkpt lat="65.84432" lon="12.39506">
        <ele>50.182689</ele>
        <time>2020-08-13T15:28:45.958Z</time>
      </trkpt>
      <trkpt lat="65.84443" lon="12.3951">
        <ele>50.286842</ele>
        <time>2020-08-13T15:28:47.986Z</time>
      </trkpt>
      <trkpt lat="65.84454" lon="12.39514">
        <ele>50.384523</ele>
        <time>2020-08-13T15:28:49.959Z</time>
      </trkpt>
      <trkpt lat="65.84464" lon="12.39518">
        <ele>50.256881</ele>
        <time>2020-08-13T15:28:51.969Z</time>
      </trkpt>
      <trkpt lat="65.84473" lon="12.3952">
        <ele>50.038793</ele>
        <time>2020-08-13T15:28:53.978Z</time>
      </trkpt>
      <trkpt lat="65.84486" lon="12.39523">
        <ele>49.751877</ele>
        <time>2020-08-13T15:28:57.030Z</time>
      </trkpt>
      <trkpt lat="65.84499" lon="12.39542">
        <ele>49.402669</ele>
        <time>2020-08-13T15:30:14.010Z</time>
      </trkpt>
      <trkpt lat="65.84509" lon="12.39552">
        <ele>49.134917</ele>
        <time>2020-08-13T15:30:18.006Z</time>
      </trkpt>
      <trkpt lat="65.84519" lon="12.39557">
        <ele>48.898819</ele>
        <time>2020-08-13T15:30:20.968Z</time>
      </trkpt>
      <trkpt lat="65.84531" lon="12.39562">
        <ele>48.626934</ele>
        <time>2020-08-13T15:30:23.977Z</time>
      </trkpt>
      <trkpt lat="65.84542" lon="12.39569">
        <ele>48.356629</ele>
        <time>2020-08-13T15:30:26.973Z</time>
      </trkpt>
      <trkpt lat="65.84554" lon="12.39576">
        <ele>48.075782</ele>
        <time>2020-08-13T15:30:29.957Z</time>
      </trkpt>
      <trkpt lat="65.84566" lon="12.39584">
        <ele>47.80457</ele>
        <time>2020-08-13T15:30:32.998Z</time>
      </trkpt>
      <trkpt lat="65.84577" lon="12.39592">
        <ele>47.53061</ele>
        <time>2020-08-13T15:30:35.973Z</time>
      </trkpt>
      <trkpt lat="65.84589" lon="12.39599">
        <ele>47.25597</ele>
        <time>2020-08-13T15:30:39.008Z</time>
      </trkpt>
      <trkpt lat="65.846" lon="12.39609">
        <ele>46.97923</ele>
        <time>2020-08-13T15:30:41.967Z</time>
      </trkpt>
      <trkpt lat="65.84611" lon="12.39619">
        <ele>46.708406</ele>
        <time>2020-08-13T15:30:44.963Z</time>
      </trkpt>
      <trkpt lat="65.84621" lon="12.3963">
        <ele>46.444068</ele>
        <time>2020-08-13T15:30:47.995Z</time>
      </trkpt>
      <trkpt lat="65.84632" lon="12.39644">
        <ele>46.269491</ele>
        <time>2020-08-13T15:30:50.958Z</time>
      </trkpt>
      <trkpt lat="65.84643" lon="12.39659">
        <ele>46.274676</ele>
        <time>2020-08-13T15:30:53.963Z</time>
      </trkpt>
      <trkpt lat="65.84653" lon="12.39675">
        <ele>46.279781</ele>
        <time>2020-08-13T15:30:56.972Z</time>
      </trkpt>
      <trkpt lat="65.84662" lon="12.39692">
        <ele>46.284817</ele>
        <time>2020-08-13T15:30:59.985Z</time>
      </trkpt>
      <trkpt lat="65.84673" lon="12.3971">
        <ele>46.290138</ele>
        <time>2020-08-13T15:31:03.004Z</time>
      </trkpt>
      <trkpt lat="65.84682" lon="12.39729">
        <ele>46.295411</ele>
        <time>2020-08-13T15:31:05.970Z</time>
      </trkpt>
      <trkpt lat="65.84691" lon="12.3975">
        <ele>46.300758</ele>
        <time>2020-08-13T15:31:08.954Z</time>
      </trkpt>
      <trkpt lat="65.84701" lon="12.39772">
        <ele>46.306206</ele>
        <time>2020-08-13T15:31:11.965Z</time>
      </trkpt>
      <trkpt lat="65.84708" lon="12.39795">
        <ele>46.311296</ele>
        <time>2020-08-13T15:31:14.994Z</time>
      </trkpt>
      <trkpt lat="65.84715" lon="12.39819">
        <ele>46.316435</ele>
        <time>2020-08-13T15:31:17.962Z</time>
      </trkpt>
      <trkpt lat="65.84722" lon="12.39846">
        <ele>46.321967</ele>
        <time>2020-08-13T15:31:20.991Z</time>
      </trkpt>
      <trkpt lat="65.84727" lon="12.39864">
        <ele>46.325787</ele>
        <time>2020-08-13T15:31:22.959Z</time>
      </trkpt>
      <trkpt lat="65.84734" lon="12.39892">
        <ele>46.331363</ele>
        <time>2020-08-13T15:31:26.002Z</time>
      </trkpt>
      <trkpt lat="65.8474" lon="12.39919">
        <ele>46.336896</ele>
        <time>2020-08-13T15:31:28.961Z</time>
      </trkpt>
      <trkpt lat="65.84748" lon="12.39945">
        <ele>46.342432</ele>
        <time>2020-08-13T15:31:31.971Z</time>
      </trkpt>
      <trkpt lat="65.84755" lon="12.39972">
        <ele>46.40347</ele>
        <time>2020-08-13T15:31:35.002Z</time>
      </trkpt>
      <trkpt lat="65.84761" lon="12.39999">
        <ele>46.485836</ele>
        <time>2020-08-13T15:31:37.966Z</time>
      </trkpt>
      <trkpt lat="65.84766" lon="12.40019">
        <ele>46.543001</ele>
        <time>2020-08-13T15:31:39.956Z</time>
      </trkpt>
      <trkpt lat="65.8477" lon="12.40038">
        <ele>46.600018</ele>
        <time>2020-08-13T15:31:41.975Z</time>
      </trkpt>
      <trkpt lat="65.84777" lon="12.40067">
        <ele>46.685009</ele>
        <time>2020-08-13T15:31:44.957Z</time>
      </trkpt>
      <trkpt lat="65.84783" lon="12.40094">
        <ele>46.766079</ele>
        <time>2020-08-13T15:31:48.006Z</time>
      </trkpt>
      <trkpt lat="65.84789" lon="12.4012">
        <ele>46.845039</ele>
        <time>2020-08-13T15:31:50.994Z</time>
      </trkpt>
      <trkpt lat="65.84796" lon="12.40146">
        <ele>46.923653</ele>
        <time>2020-08-13T15:31:53.960Z</time>
      </trkpt>
      <trkpt lat="65.84802" lon="12.40173">
        <ele>47.003874</ele>
        <time>2020-08-13T15:31:56.967Z</time>
      </trkpt>
      <trkpt lat="65.84807" lon="12.40202">
        <ele>47.086112</ele>
        <time>2020-08-13T15:31:59.986Z</time>
      </trkpt>
      <trkpt lat="65.84813" lon="12.40229">
        <ele>47.165751</ele>
        <time>2020-08-13T15:32:03.010Z</time>
      </trkpt>
      <trkpt lat="65.84819" lon="12.40256">
        <ele>47.245208</ele>
        <time>2020-08-13T15:32:05.994Z</time>
      </trkpt>
      <trkpt lat="65.84825" lon="12.40281">
        <ele>47.319583</ele>
        <time>2020-08-13T15:32:08.977Z</time>
      </trkpt>
      <trkpt lat="65.8483" lon="12.40306">
        <ele>47.391684</ele>
        <time>2020-08-13T15:32:11.977Z</time>
      </trkpt>
      <trkpt lat="65.84837" lon="12.40331">
        <ele>47.467869</ele>
        <time>2020-08-13T15:32:14.984Z</time>
      </trkpt>
      <trkpt lat="65.84843" lon="12.40355">
        <ele>47.543053</ele>
        <time>2020-08-13T15:32:18.003Z</time>
      </trkpt>
      <trkpt lat="65.84849" lon="12.40378">
        <ele>47.616684</ele>
        <time>2020-08-13T15:32:20.972Z</time>
      </trkpt>
      <trkpt lat="65.84855" lon="12.40401">
        <ele>47.691</ele>
        <time>2020-08-13T15:32:23.971Z</time>
      </trkpt>
      <trkpt lat="65.84861" lon="12.40423">
        <ele>47.764909</ele>
        <time>2020-08-13T15:32:27.005Z</time>
      </trkpt>
      <trkpt lat="65.84867" lon="12.40445">
        <ele>47.837019</ele>
        <time>2020-08-13T15:32:29.978Z</time>
      </trkpt>
      <trkpt lat="65.84874" lon="12.40467">
        <ele>47.911399</ele>
        <time>2020-08-13T15:32:32.956Z</time>
      </trkpt>
      <trkpt lat="65.84881" lon="12.40488">
        <ele>47.985159</ele>
        <time>2020-08-13T15:32:35.966Z</time>
      </trkpt>
      <trkpt lat="65.84888" lon="12.40511">
        <ele>48.061433</ele>
        <time>2020-08-13T15:32:38.978Z</time>
      </trkpt>
      <trkpt lat="65.84896" lon="12.40534">
        <ele>48.140202</ele>
        <time>2020-08-13T15:32:41.994Z</time>
      </trkpt>
      <trkpt lat="65.84904" lon="12.40557">
        <ele>48.223353</ele>
        <time>2020-08-13T15:32:44.974Z</time>
      </trkpt>
      <trkpt lat="65.8491" lon="12.40574">
        <ele>48.282707</ele>
        <time>2020-08-13T15:32:46.968Z</time>
      </trkpt>
      <trkpt lat="65.84915" lon="12.40591">
        <ele>48.34351</ele>
        <time>2020-08-13T15:32:48.962Z</time>
      </trkpt>
      <trkpt lat="65.84922" lon="12.4061">
        <ele>48.408289</ele>
        <time>2020-08-13T15:32:51.000Z</time>
      </trkpt>
      <trkpt lat="65.84929" lon="12.40629">
        <ele>48.47899</ele>
        <time>2020-08-13T15:32:52.964Z</time>
      </trkpt>
      <trkpt lat="65.84937" lon="12.40651">
        <ele>48.558614</ele>
        <time>2020-08-13T15:32:55.026Z</time>
      </trkpt>
      <trkpt lat="65.84945" lon="12.40675">
        <ele>48.643281</ele>
        <time>2020-08-13T15:32:56.961Z</time>
      </trkpt>
      <trkpt lat="65.84954" lon="12.407">
        <ele>48.321909</ele>
        <time>2020-08-13T15:32:58.969Z</time>
      </trkpt>
      <trkpt lat="65.84963" lon="12.40725">
        <ele>47.844596</ele>
        <time>2020-08-13T15:33:00.969Z</time>
      </trkpt>
      <trkpt lat="65.84972" lon="12.4075">
        <ele>47.358076</ele>
        <time>2020-08-13T15:33:02.974Z</time>
      </trkpt>
      <trkpt lat="65.84981" lon="12.40776">
        <ele>46.855781</ele>
        <time>2020-08-13T15:33:04.967Z</time>
      </trkpt>
      <trkpt lat="65.8499" lon="12.40804">
        <ele>46.32751</ele>
        <time>2020-08-13T15:33:06.961Z</time>
      </trkpt>
      <trkpt lat="65.85" lon="12.40833">
        <ele>45.773171</ele>
        <time>2020-08-13T15:33:08.982Z</time>
      </trkpt>
      <trkpt lat="65.8501" lon="12.40863">
        <ele>45.20863</ele>
        <time>2020-08-13T15:33:10.952Z</time>
      </trkpt>
      <trkpt lat="65.8502" lon="12.40893">
        <ele>44.641823</ele>
        <time>2020-08-13T15:33:12.969Z</time>
      </trkpt>
      <trkpt lat="65.8503" lon="12.40922">
        <ele>44.094289</ele>
        <time>2020-08-13T15:33:14.972Z</time>
      </trkpt>
      <trkpt lat="65.85039" lon="12.4095">
        <ele>43.562627</ele>
        <time>2020-08-13T15:33:16.991Z</time>
      </trkpt>
      <trkpt lat="65.85048" lon="12.40977">
        <ele>43.052474</ele>
        <time>2020-08-13T15:33:18.972Z</time>
      </trkpt>
      <trkpt lat="65.85057" lon="12.41004">
        <ele>42.544605</ele>
        <time>2020-08-13T15:33:20.970Z</time>
      </trkpt>
      <trkpt lat="65.85066" lon="12.41031">
        <ele>42.170245</ele>
        <time>2020-08-13T15:33:22.962Z</time>
      </trkpt>
      <trkpt lat="65.85075" lon="12.41058">
        <ele>42.010102</ele>
        <time>2020-08-13T15:33:24.994Z</time>
      </trkpt>
      <trkpt lat="65.85084" lon="12.41084">
        <ele>41.852475</ele>
        <time>2020-08-13T15:33:26.960Z</time>
      </trkpt>
      <trkpt lat="65.85093" lon="12.41109">
        <ele>41.699469</ele>
        <time>2020-08-13T15:33:28.970Z</time>
      </trkpt>
      <trkpt lat="65.85101" lon="12.41134">
        <ele>41.547201</ele>
        <time>2020-08-13T15:33:30.999Z</time>
      </trkpt>
      <trkpt lat="65.8511" lon="12.41159">
        <ele>41.397105</ele>
        <time>2020-08-13T15:33:32.990Z</time>
      </trkpt>
      <trkpt lat="65.85118" lon="12.41183">
        <ele>41.255629</ele>
        <time>2020-08-13T15:33:34.967Z</time>
      </trkpt>
      <trkpt lat="65.85125" lon="12.41206">
        <ele>41.117721</ele>
        <time>2020-08-13T15:33:36.981Z</time>
      </trkpt>
      <trkpt lat="65.85132" lon="12.41228">
        <ele>40.985197</ele>
        <time>2020-08-13T15:33:38.965Z</time>
      </trkpt>
      <trkpt lat="65.85139" lon="12.41251">
        <ele>40.852577</ele>
        <time>2020-08-13T15:33:40.989Z</time>
      </trkpt>
      <trkpt lat="65.85146" lon="12.41274">
        <ele>40.722177</ele>
        <time>2020-08-13T15:33:42.951Z</time>
      </trkpt>
      <trkpt lat="65.85153" lon="12.41295">
        <ele>40.595787</ele>
        <time>2020-08-13T15:33:44.974Z</time>
      </trkpt>
      <trkpt lat="65.8516" lon="12.41316">
        <ele>40.467603</ele>
        <time>2020-08-13T15:33:46.976Z</time>
      </trkpt>
      <trkpt lat="65.85167" lon="12.41338">
        <ele>40.341213</ele>
        <time>2020-08-13T15:33:49.005Z</time>
      </trkpt>
      <trkpt lat="65.85175" lon="12.41358">
        <ele>40.215128</ele>
        <time>2020-08-13T15:33:50.961Z</time>
      </trkpt>
      <trkpt lat="65.85182" lon="12.41378">
        <ele>40.220371</ele>
        <time>2020-08-13T15:33:52.978Z</time>
      </trkpt>
      <trkpt lat="65.85188" lon="12.41398">
        <ele>40.256679</ele>
        <time>2020-08-13T15:33:54.962Z</time>
      </trkpt>
      <trkpt lat="65.85194" lon="12.41418">
        <ele>40.292979</ele>
        <time>2020-08-13T15:33:56.963Z</time>
      </trkpt>
      <trkpt lat="65.85201" lon="12.41438">
        <ele>40.328287</ele>
        <time>2020-08-13T15:33:58.972Z</time>
      </trkpt>
      <trkpt lat="65.85207" lon="12.41457">
        <ele>40.363043</ele>
        <time>2020-08-13T15:34:00.986Z</time>
      </trkpt>
      <trkpt lat="65.85213" lon="12.41476">
        <ele>40.397136</ele>
        <time>2020-08-13T15:34:02.972Z</time>
      </trkpt>
      <trkpt lat="65.85219" lon="12.41493">
        <ele>40.429471</ele>
        <time>2020-08-13T15:34:04.977Z</time>
      </trkpt>
      <trkpt lat="65.85227" lon="12.41518">
        <ele>40.475587</ele>
        <time>2020-08-13T15:34:07.966Z</time>
      </trkpt>
      <trkpt lat="65.85235" lon="12.41542">
        <ele>40.520051</ele>
        <time>2020-08-13T15:34:10.970Z</time>
      </trkpt>
      <trkpt lat="65.85243" lon="12.41566">
        <ele>40.563964</ele>
        <time>2020-08-13T15:34:13.975Z</time>
      </trkpt>
      <trkpt lat="65.85251" lon="12.41589">
        <ele>40.605347</ele>
        <time>2020-08-13T15:34:16.969Z</time>
      </trkpt>
      <trkpt lat="65.85258" lon="12.41611">
        <ele>40.644525</ele>
        <time>2020-08-13T15:34:19.982Z</time>
      </trkpt>
      <trkpt lat="65.85265" lon="12.41631">
        <ele>40.682044</ele>
        <time>2020-08-13T15:34:22.967Z</time>
      </trkpt>
      <trkpt lat="65.85272" lon="12.4165">
        <ele>40.718473</ele>
        <time>2020-08-13T15:34:25.979Z</time>
      </trkpt>
      <trkpt lat="65.85278" lon="12.4167">
        <ele>40.754991</ele>
        <time>2020-08-13T15:34:28.956Z</time>
      </trkpt>
      <trkpt lat="65.85285" lon="12.4169">
        <ele>40.792176</ele>
        <time>2020-08-13T15:34:31.979Z</time>
      </trkpt>
      <trkpt lat="65.85292" lon="12.41709">
        <ele>40.834105</ele>
        <time>2020-08-13T15:34:34.969Z</time>
      </trkpt>
      <trkpt lat="65.85299" lon="12.41729">
        <ele>40.888464</ele>
        <time>2020-08-13T15:34:37.971Z</time>
      </trkpt>
      <trkpt lat="65.85306" lon="12.41749">
        <ele>40.942535</ele>
        <time>2020-08-13T15:34:40.965Z</time>
      </trkpt>
      <trkpt lat="65.85313" lon="12.41769">
        <ele>41.000209</ele>
        <time>2020-08-13T15:34:43.981Z</time>
      </trkpt>
      <trkpt lat="65.8532" lon="12.41791">
        <ele>41.057965</ele>
        <time>2020-08-13T15:34:46.977Z</time>
      </trkpt>
      <trkpt lat="65.85328" lon="12.41813">
        <ele>41.117828</ele>
        <time>2020-08-13T15:34:50.002Z</time>
      </trkpt>
      <trkpt lat="65.85336" lon="12.41837">
        <ele>41.182539</ele>
        <time>2020-08-13T15:34:52.971Z</time>
      </trkpt>
      <trkpt lat="65.85344" lon="12.41861">
        <ele>41.247735</ele>
        <time>2020-08-13T15:34:55.959Z</time>
      </trkpt>
      <trkpt lat="65.85352" lon="12.41884">
        <ele>41.311489</ele>
        <time>2020-08-13T15:34:58.955Z</time>
      </trkpt>
      <trkpt lat="65.8536" lon="12.41906">
        <ele>41.372364</ele>
        <time>2020-08-13T15:35:01.957Z</time>
      </trkpt>
      <trkpt lat="65.85367" lon="12.41929">
        <ele>41.434329</ele>
        <time>2020-08-13T15:35:04.967Z</time>
      </trkpt>
      <trkpt lat="65.85376" lon="12.41952">
        <ele>41.498401</ele>
        <time>2020-08-13T15:35:07.957Z</time>
      </trkpt>
      <trkpt lat="65.85383" lon="12.41975">
        <ele>41.561336</ele>
        <time>2020-08-13T15:35:10.998Z</time>
      </trkpt>
      <trkpt lat="65.85391" lon="12.41998">
        <ele>41.622652</ele>
        <time>2020-08-13T15:35:13.978Z</time>
      </trkpt>
      <trkpt lat="65.85399" lon="12.42021">
        <ele>41.686477</ele>
        <time>2020-08-13T15:35:16.961Z</time>
      </trkpt>
      <trkpt lat="65.85408" lon="12.42043">
        <ele>41.725894</ele>
        <time>2020-08-13T15:35:19.982Z</time>
      </trkpt>
      <trkpt lat="65.85418" lon="12.42065">
        <ele>41.683947</ele>
        <time>2020-08-13T15:35:22.995Z</time>
      </trkpt>
      <trkpt lat="65.85425" lon="12.4208">
        <ele>41.654288</ele>
        <time>2020-08-13T15:35:24.964Z</time>
      </trkpt>
      <trkpt lat="65.85433" lon="12.42094">
        <ele>41.624207</ele>
        <time>2020-08-13T15:35:26.968Z</time>
      </trkpt>
      <trkpt lat="65.85441" lon="12.42108">
        <ele>41.593145</ele>
        <time>2020-08-13T15:35:28.960Z</time>
      </trkpt>
      <trkpt lat="65.85449" lon="12.42122">
        <ele>41.561219</ele>
        <time>2020-08-13T15:35:30.961Z</time>
      </trkpt>
      <trkpt lat="65.85456" lon="12.42135">
        <ele>41.531759</ele>
        <time>2020-08-13T15:35:32.974Z</time>
      </trkpt>
      <trkpt lat="65.85464" lon="12.42148">
        <ele>41.50169</ele>
        <time>2020-08-13T15:35:34.970Z</time>
      </trkpt>
      <trkpt lat="65.85472" lon="12.4216">
        <ele>41.471431</ele>
        <time>2020-08-13T15:35:36.998Z</time>
      </trkpt>
      <trkpt lat="65.8548" lon="12.42172">
        <ele>41.440692</ele>
        <time>2020-08-13T15:35:38.966Z</time>
      </trkpt>
      <trkpt lat="65.85488" lon="12.42184">
        <ele>41.411041</ele>
        <time>2020-08-13T15:35:40.950Z</time>
      </trkpt>
      <trkpt lat="65.85496" lon="12.42195">
        <ele>41.381665</ele>
        <time>2020-08-13T15:35:42.980Z</time>
      </trkpt>
      <trkpt lat="65.85504" lon="12.42208">
        <ele>41.351187</ele>
        <time>2020-08-13T15:35:44.967Z</time>
      </trkpt>
      <trkpt lat="65.85512" lon="12.42222">
        <ele>41.32177</ele>
        <time>2020-08-13T15:35:46.990Z</time>
      </trkpt>
      <trkpt lat="65.8552" lon="12.42233">
        <ele>41.292461</ele>
        <time>2020-08-13T15:35:48.995Z</time>
      </trkpt>
      <trkpt lat="65.85528" lon="12.42245">
        <ele>41.262518</ele>
        <time>2020-08-13T15:35:50.995Z</time>
      </trkpt>
      <trkpt lat="65.85536" lon="12.42256">
        <ele>41.233259</ele>
        <time>2020-08-13T15:35:52.972Z</time>
      </trkpt>
      <trkpt lat="65.85547" lon="12.42273">
        <ele>41.191506</ele>
        <time>2020-08-13T15:35:56.017Z</time>
      </trkpt>
      <trkpt lat="65.85556" lon="12.42286">
        <ele>41.153342</ele>
        <time>2020-08-13T15:35:58.987Z</time>
      </trkpt>
      <trkpt lat="65.85564" lon="12.42299">
        <ele>41.104114</ele>
        <time>2020-08-13T15:36:02.989Z</time>
      </trkpt>
      <trkpt lat="65.85575" lon="12.42313">
        <ele>41.042976</ele>
        <time>2020-08-13T15:36:05.974Z</time>
      </trkpt>
      <trkpt lat="65.85586" lon="12.4233">
        <ele>40.97705</ele>
        <time>2020-08-13T15:36:08.963Z</time>
      </trkpt>
      <trkpt lat="65.85594" lon="12.42343">
        <ele>40.931245</ele>
        <time>2020-08-13T15:36:10.986Z</time>
      </trkpt>
      <trkpt lat="65.85601" lon="12.42357">
        <ele>40.883117</ele>
        <time>2020-08-13T15:36:12.962Z</time>
      </trkpt>
      <trkpt lat="65.85608" lon="12.42373">
        <ele>40.834233</ele>
        <time>2020-08-13T15:36:14.984Z</time>
      </trkpt>
      <trkpt lat="65.85615" lon="12.42391">
        <ele>40.784582</ele>
        <time>2020-08-13T15:36:16.977Z</time>
      </trkpt>
      <trkpt lat="65.85621" lon="12.4241">
        <ele>40.735959</ele>
        <time>2020-08-13T15:36:18.986Z</time>
      </trkpt>
      <trkpt lat="65.85627" lon="12.42429">
        <ele>40.686781</ele>
        <time>2020-08-13T15:36:20.977Z</time>
      </trkpt>
      <trkpt lat="65.85632" lon="12.42448">
        <ele>40.639096</ele>
        <time>2020-08-13T15:36:22.962Z</time>
      </trkpt>
      <trkpt lat="65.85637" lon="12.42467">
        <ele>40.592944</ele>
        <time>2020-08-13T15:36:24.984Z</time>
      </trkpt>
      <trkpt lat="65.85641" lon="12.42487">
        <ele>40.545329</ele>
        <time>2020-08-13T15:36:26.978Z</time>
      </trkpt>
      <trkpt lat="65.85646" lon="12.42507">
        <ele>40.499592</ele>
        <time>2020-08-13T15:36:28.962Z</time>
      </trkpt>
      <trkpt lat="65.85649" lon="12.42527">
        <ele>40.45443</ele>
        <time>2020-08-13T15:36:30.963Z</time>
      </trkpt>
      <trkpt lat="65.85653" lon="12.42559">
        <ele>40.387013</ele>
        <time>2020-08-13T15:36:33.962Z</time>
      </trkpt>
      <trkpt lat="65.85655" lon="12.4258">
        <ele>40.341585</ele>
        <time>2020-08-13T15:36:35.994Z</time>
      </trkpt>
      <trkpt lat="65.85657" lon="12.42601">
        <ele>40.296298</ele>
        <time>2020-08-13T15:36:37.972Z</time>
      </trkpt>
      <trkpt lat="65.8566" lon="12.42623">
        <ele>40.258002</ele>
        <time>2020-08-13T15:36:39.977Z</time>
      </trkpt>
      <trkpt lat="65.85664" lon="12.42655">
        <ele>40.262822</ele>
        <time>2020-08-13T15:36:42.985Z</time>
      </trkpt>
      <trkpt lat="65.85666" lon="12.42676">
        <ele>40.266079</ele>
        <time>2020-08-13T15:36:44.961Z</time>
      </trkpt>
      <trkpt lat="65.85669" lon="12.42707">
        <ele>40.270808</ele>
        <time>2020-08-13T15:36:47.993Z</time>
      </trkpt>
      <trkpt lat="65.85672" lon="12.42738">
        <ele>40.275503</ele>
        <time>2020-08-13T15:36:50.983Z</time>
      </trkpt>
      <trkpt lat="65.85674" lon="12.42769">
        <ele>40.280226</ele>
        <time>2020-08-13T15:36:53.995Z</time>
      </trkpt>
      <trkpt lat="65.85678" lon="12.428">
        <ele>40.284864</ele>
        <time>2020-08-13T15:36:56.996Z</time>
      </trkpt>
      <trkpt lat="65.85681" lon="12.42829">
        <ele>40.289423</ele>
        <time>2020-08-13T15:36:59.957Z</time>
      </trkpt>
      <trkpt lat="65.85684" lon="12.42851">
        <ele>40.292746</ele>
        <time>2020-08-13T15:37:01.966Z</time>
      </trkpt>
      <trkpt lat="65.85686" lon="12.42873">
        <ele>40.296065</ele>
        <time>2020-08-13T15:37:03.965Z</time>
      </trkpt>
      <trkpt lat="65.85689" lon="12.42894">
        <ele>40.299318</ele>
        <time>2020-08-13T15:37:05.989Z</time>
      </trkpt>
      <trkpt lat="65.85693" lon="12.42924">
        <ele>40.304007</ele>
        <time>2020-08-13T15:37:08.974Z</time>
      </trkpt>
      <trkpt lat="65.85695" lon="12.42945">
        <ele>40.307226</ele>
        <time>2020-08-13T15:37:10.981Z</time>
      </trkpt>
      <trkpt lat="65.857" lon="12.42975">
        <ele>40.311981</ele>
        <time>2020-08-13T15:37:13.994Z</time>
      </trkpt>
      <trkpt lat="65.85706" lon="12.43004">
        <ele>40.316673</ele>
        <time>2020-08-13T15:37:16.975Z</time>
      </trkpt>
      <trkpt lat="65.85712" lon="12.43031">
        <ele>40.321356</ele>
        <time>2020-08-13T15:37:19.983Z</time>
      </trkpt>
      <trkpt lat="65.8572" lon="12.43057">
        <ele>40.189586</ele>
        <time>2020-08-13T15:37:22.953Z</time>
      </trkpt>
      <trkpt lat="65.85729" lon="12.43082">
        <ele>40.021234</ele>
        <time>2020-08-13T15:37:25.970Z</time>
      </trkpt>
      <trkpt lat="65.85735" lon="12.43098">
        <ele>39.902817</ele>
        <time>2020-08-13T15:37:27.969Z</time>
      </trkpt>
      <trkpt lat="65.85742" lon="12.43114">
        <ele>39.780964</ele>
        <time>2020-08-13T15:37:29.998Z</time>
      </trkpt>
      <trkpt lat="65.85749" lon="12.4313">
        <ele>39.658891</ele>
        <time>2020-08-13T15:37:31.977Z</time>
      </trkpt>
      <trkpt lat="65.85756" lon="12.43145">
        <ele>39.538655</ele>
        <time>2020-08-13T15:37:34.003Z</time>
      </trkpt>
      <trkpt lat="65.85763" lon="12.43159">
        <ele>39.422441</ele>
        <time>2020-08-13T15:37:35.968Z</time>
      </trkpt>
      <trkpt lat="65.85771" lon="12.43173">
        <ele>39.297887</ele>
        <time>2020-08-13T15:37:37.988Z</time>
      </trkpt>
      <trkpt lat="65.85779" lon="12.43187">
        <ele>39.169734</ele>
        <time>2020-08-13T15:37:39.964Z</time>
      </trkpt>
      <trkpt lat="65.85787" lon="12.43201">
        <ele>39.039283</ele>
        <time>2020-08-13T15:37:41.992Z</time>
      </trkpt>
      <trkpt lat="65.85796" lon="12.43214">
        <ele>38.908046</ele>
        <time>2020-08-13T15:37:43.965Z</time>
      </trkpt>
      <trkpt lat="65.85804" lon="12.43227">
        <ele>38.781174</ele>
        <time>2020-08-13T15:37:45.954Z</time>
      </trkpt>
      <trkpt lat="65.85812" lon="12.4324">
        <ele>38.661866</ele>
        <time>2020-08-13T15:37:47.963Z</time>
      </trkpt>
      <trkpt lat="65.8582" lon="12.43253">
        <ele>38.541495</ele>
        <time>2020-08-13T15:37:49.986Z</time>
      </trkpt>
      <trkpt lat="65.85831" lon="12.43271">
        <ele>38.369952</ele>
        <time>2020-08-13T15:37:52.994Z</time>
      </trkpt>
      <trkpt lat="65.85839" lon="12.43283">
        <ele>38.254028</ele>
        <time>2020-08-13T15:37:54.978Z</time>
      </trkpt>
      <trkpt lat="65.85846" lon="12.43295">
        <ele>38.137856</ele>
        <time>2020-08-13T15:37:56.991Z</time>
      </trkpt>
      <trkpt lat="65.85854" lon="12.43307">
        <ele>38.017702</ele>
        <time>2020-08-13T15:37:58.960Z</time>
      </trkpt>
      <trkpt lat="65.85862" lon="12.43319">
        <ele>38.116374</ele>
        <time>2020-08-13T15:38:00.972Z</time>
      </trkpt>
      <trkpt lat="65.8587" lon="12.43331">
        <ele>38.213531</ele>
        <time>2020-08-13T15:38:02.975Z</time>
      </trkpt>
      <trkpt lat="65.85879" lon="12.43343">
        <ele>38.311558</ele>
        <time>2020-08-13T15:38:04.959Z</time>
      </trkpt>
      <trkpt lat="65.85886" lon="12.43356">
        <ele>38.408081</ele>
        <time>2020-08-13T15:38:06.975Z</time>
      </trkpt>
      <trkpt lat="65.85894" lon="12.43369">
        <ele>38.506508</ele>
        <time>2020-08-13T15:38:08.974Z</time>
      </trkpt>
      <trkpt lat="65.85902" lon="12.43382">
        <ele>38.603973</ele>
        <time>2020-08-13T15:38:10.986Z</time>
      </trkpt>
      <trkpt lat="65.85909" lon="12.43396">
        <ele>38.700578</ele>
        <time>2020-08-13T15:38:12.973Z</time>
      </trkpt>
      <trkpt lat="65.85916" lon="12.4341">
        <ele>38.794753</ele>
        <time>2020-08-13T15:38:14.958Z</time>
      </trkpt>
      <trkpt lat="65.85926" lon="12.43431">
        <ele>38.930582</ele>
        <time>2020-08-13T15:38:17.957Z</time>
      </trkpt>
      <trkpt lat="65.85933" lon="12.43446">
        <ele>39.024195</ele>
        <time>2020-08-13T15:38:19.995Z</time>
      </trkpt>
      <trkpt lat="65.8594" lon="12.43462">
        <ele>39.119429</ele>
        <time>2020-08-13T15:38:21.974Z</time>
      </trkpt>
      <trkpt lat="65.85946" lon="12.43477">
        <ele>39.212878</ele>
        <time>2020-08-13T15:38:23.950Z</time>
      </trkpt>
      <trkpt lat="65.85953" lon="12.43493">
        <ele>39.305589</ele>
        <time>2020-08-13T15:38:25.957Z</time>
      </trkpt>
      <trkpt lat="65.85962" lon="12.43516">
        <ele>39.44436</ele>
        <time>2020-08-13T15:38:29.001Z</time>
      </trkpt>
      <trkpt lat="65.85969" lon="12.43531">
        <ele>39.536636</ele>
        <time>2020-08-13T15:38:30.977Z</time>
      </trkpt>
      <trkpt lat="65.85975" lon="12.43546">
        <ele>39.630086</ele>
        <time>2020-08-13T15:38:32.999Z</time>
      </trkpt>
      <trkpt lat="65.85981" lon="12.43562">
        <ele>39.72339</ele>
        <time>2020-08-13T15:38:34.956Z</time>
      </trkpt>
      <trkpt lat="65.85991" lon="12.43584">
        <ele>39.858912</ele>
        <time>2020-08-13T15:38:37.997Z</time>
      </trkpt>
      <trkpt lat="65.86" lon="12.43606">
        <ele>39.905953</ele>
        <time>2020-08-13T15:38:40.998Z</time>
      </trkpt>
      <trkpt lat="65.8601" lon="12.43628">
        <ele>39.942326</ele>
        <time>2020-08-13T15:38:43.971Z</time>
      </trkpt>
      <trkpt lat="65.86019" lon="12.43651">
        <ele>39.978732</ele>
        <time>2020-08-13T15:38:47.030Z</time>
      </trkpt>
      <trkpt lat="65.86028" lon="12.43673">
        <ele>40.013874</ele>
        <time>2020-08-13T15:38:49.979Z</time>
      </trkpt>
      <trkpt lat="65.86037" lon="12.43695">
        <ele>40.049776</ele>
        <time>2020-08-13T15:38:52.969Z</time>
      </trkpt>
      <trkpt lat="65.86046" lon="12.43717">
        <ele>40.085638</ele>
        <time>2020-08-13T15:38:56.038Z</time>
      </trkpt>
      <trkpt lat="65.86056" lon="12.43737">
        <ele>40.12074</ele>
        <time>2020-08-13T15:38:58.970Z</time>
      </trkpt>
      <trkpt lat="65.86065" lon="12.43759">
        <ele>40.156555</ele>
        <time>2020-08-13T15:39:01.965Z</time>
      </trkpt>
      <trkpt lat="65.86075" lon="12.43782">
        <ele>40.193195</ele>
        <time>2020-08-13T15:39:04.985Z</time>
      </trkpt>
      <trkpt lat="65.86085" lon="12.43804">
        <ele>40.230314</ele>
        <time>2020-08-13T15:39:07.975Z</time>
      </trkpt>
      <trkpt lat="65.86091" lon="12.4382">
        <ele>40.255397</ele>
        <time>2020-08-13T15:39:09.973Z</time>
      </trkpt>
      <trkpt lat="65.86098" lon="12.43836">
        <ele>40.281501</ele>
        <time>2020-08-13T15:39:11.974Z</time>
      </trkpt>
      <trkpt lat="65.86104" lon="12.43853">
        <ele>40.308059</ele>
        <time>2020-08-13T15:39:13.960Z</time>
      </trkpt>
      <trkpt lat="65.86111" lon="12.4387">
        <ele>40.335311</ele>
        <time>2020-08-13T15:39:15.964Z</time>
      </trkpt>
      <trkpt lat="65.86118" lon="12.43887">
        <ele>40.363084</ele>
        <time>2020-08-13T15:39:17.973Z</time>
      </trkpt>
      <trkpt lat="65.86125" lon="12.43904">
        <ele>40.255398</ele>
        <time>2020-08-13T15:39:19.994Z</time>
      </trkpt>
      <trkpt lat="65.86132" lon="12.43923">
        <ele>40.061526</ele>
        <time>2020-08-13T15:39:21.967Z</time>
      </trkpt>
      <trkpt lat="65.86139" lon="12.43943">
        <ele>39.864032</ele>
        <time>2020-08-13T15:39:23.970Z</time>
      </trkpt>
      <trkpt lat="65.86146" lon="12.43962">
        <ele>39.667557</ele>
        <time>2020-08-13T15:39:25.970Z</time>
      </trkpt>
      <trkpt lat="65.86153" lon="12.4398">
        <ele>39.474735</ele>
        <time>2020-08-13T15:39:27.964Z</time>
      </trkpt>
      <trkpt lat="65.8616" lon="12.43999">
        <ele>39.286694</ele>
        <time>2020-08-13T15:39:29.975Z</time>
      </trkpt>
      <trkpt lat="65.86166" lon="12.44017">
        <ele>39.103431</ele>
        <time>2020-08-13T15:39:31.966Z</time>
      </trkpt>
      <trkpt lat="65.86173" lon="12.44035">
        <ele>38.914136</ele>
        <time>2020-08-13T15:39:33.997Z</time>
      </trkpt>
      <trkpt lat="65.8618" lon="12.44054">
        <ele>38.722649</ele>
        <time>2020-08-13T15:39:35.981Z</time>
      </trkpt>
      <trkpt lat="65.86187" lon="12.44073">
        <ele>38.525239</ele>
        <time>2020-08-13T15:39:37.997Z</time>
      </trkpt>
      <trkpt lat="65.86194" lon="12.44093">
        <ele>38.329631</ele>
        <time>2020-08-13T15:39:39.979Z</time>
      </trkpt>
      <trkpt lat="65.862" lon="12.44112">
        <ele>38.133442</ele>
        <time>2020-08-13T15:39:41.974Z</time>
      </trkpt>
      <trkpt lat="65.86207" lon="12.44131">
        <ele>37.942443</ele>
        <time>2020-08-13T15:39:43.978Z</time>
      </trkpt>
      <trkpt lat="65.86214" lon="12.44149">
        <ele>37.755542</ele>
        <time>2020-08-13T15:39:45.970Z</time>
      </trkpt>
      <trkpt lat="65.86221" lon="12.44167">
        <ele>37.567503</ele>
        <time>2020-08-13T15:39:47.957Z</time>
      </trkpt>
      <trkpt lat="65.86227" lon="12.44185">
        <ele>37.379465</ele>
        <time>2020-08-13T15:39:49.973Z</time>
      </trkpt>
      <trkpt lat="65.86234" lon="12.44205">
        <ele>37.188051</ele>
        <time>2020-08-13T15:39:51.974Z</time>
      </trkpt>
      <trkpt lat="65.8624" lon="12.44225">
        <ele>37.013001</ele>
        <time>2020-08-13T15:39:53.993Z</time>
      </trkpt>
      <trkpt lat="65.86247" lon="12.44244">
        <ele>37.11728</ele>
        <time>2020-08-13T15:39:56.000Z</time>
      </trkpt>
      <trkpt lat="65.86254" lon="12.44262">
        <ele>37.218568</ele>
        <time>2020-08-13T15:39:57.986Z</time>
      </trkpt>
      <trkpt lat="65.86261" lon="12.4428">
        <ele>37.31918</ele>
        <time>2020-08-13T15:39:59.955Z</time>
      </trkpt>
      <trkpt lat="65.86268" lon="12.44298">
        <ele>37.418756</ele>
        <time>2020-08-13T15:40:01.978Z</time>
      </trkpt>
      <trkpt lat="65.86275" lon="12.44316">
        <ele>37.516163</ele>
        <time>2020-08-13T15:40:03.998Z</time>
      </trkpt>
      <trkpt lat="65.86281" lon="12.44334">
        <ele>37.611036</ele>
        <time>2020-08-13T15:40:05.971Z</time>
      </trkpt>
      <trkpt lat="65.86287" lon="12.44351">
        <ele>37.706515</ele>
        <time>2020-08-13T15:40:07.953Z</time>
      </trkpt>
      <trkpt lat="65.86294" lon="12.44368">
        <ele>37.80116</ele>
        <time>2020-08-13T15:40:09.970Z</time>
      </trkpt>
      <trkpt lat="65.863" lon="12.44386">
        <ele>37.897371</ele>
        <time>2020-08-13T15:40:11.977Z</time>
      </trkpt>
      <trkpt lat="65.86307" lon="12.44403">
        <ele>37.997191</ele>
        <time>2020-08-13T15:40:13.974Z</time>
      </trkpt>
      <trkpt lat="65.86314" lon="12.44422">
        <ele>38.098398</ele>
        <time>2020-08-13T15:40:15.981Z</time>
      </trkpt>
      <trkpt lat="65.86321" lon="12.4444">
        <ele>38.197671</ele>
        <time>2020-08-13T15:40:17.985Z</time>
      </trkpt>
      <trkpt lat="65.86328" lon="12.44458">
        <ele>38.297611</ele>
        <time>2020-08-13T15:40:20.019Z</time>
      </trkpt>
      <trkpt lat="65.86335" lon="12.44477">
        <ele>38.397849</ele>
        <time>2020-08-13T15:40:21.976Z</time>
      </trkpt>
      <trkpt lat="65.86341" lon="12.44495">
        <ele>38.498602</ele>
        <time>2020-08-13T15:40:23.980Z</time>
      </trkpt>
      <trkpt lat="65.86348" lon="12.44513">
        <ele>38.597274</ele>
        <time>2020-08-13T15:40:25.963Z</time>
      </trkpt>
      <trkpt lat="65.86355" lon="12.44531">
        <ele>38.69543</ele>
        <time>2020-08-13T15:40:27.956Z</time>
      </trkpt>
      <trkpt lat="65.86361" lon="12.44548">
        <ele>38.789447</ele>
        <time>2020-08-13T15:40:29.982Z</time>
      </trkpt>
      <trkpt lat="65.86368" lon="12.44566">
        <ele>38.822658</ele>
        <time>2020-08-13T15:40:31.965Z</time>
      </trkpt>
      <trkpt lat="65.86374" lon="12.44584">
        <ele>38.855856</ele>
        <time>2020-08-13T15:40:33.979Z</time>
      </trkpt>
      <trkpt lat="65.8638" lon="12.44602">
        <ele>38.88994</ele>
        <time>2020-08-13T15:40:35.959Z</time>
      </trkpt>
      <trkpt lat="65.86387" lon="12.4462">
        <ele>38.923503</ele>
        <time>2020-08-13T15:40:37.967Z</time>
      </trkpt>
      <trkpt lat="65.86393" lon="12.44639">
        <ele>38.957128</ele>
        <time>2020-08-13T15:40:39.997Z</time>
      </trkpt>
      <trkpt lat="65.864" lon="12.44657">
        <ele>38.990868</ele>
        <time>2020-08-13T15:40:41.953Z</time>
      </trkpt>
      <trkpt lat="65.86406" lon="12.44675">
        <ele>39.025389</ele>
        <time>2020-08-13T15:40:43.988Z</time>
      </trkpt>
      <trkpt lat="65.86413" lon="12.44694">
        <ele>39.060015</ele>
        <time>2020-08-13T15:40:45.962Z</time>
      </trkpt>
      <trkpt lat="65.8642" lon="12.44712">
        <ele>39.094557</ele>
        <time>2020-08-13T15:40:47.985Z</time>
      </trkpt>
      <trkpt lat="65.86427" lon="12.4473">
        <ele>39.128249</ele>
        <time>2020-08-13T15:40:49.961Z</time>
      </trkpt>
      <trkpt lat="65.86433" lon="12.44747">
        <ele>39.160626</ele>
        <time>2020-08-13T15:40:51.996Z</time>
      </trkpt>
      <trkpt lat="65.86439" lon="12.44764">
        <ele>39.192857</ele>
        <time>2020-08-13T15:40:53.967Z</time>
      </trkpt>
      <trkpt lat="65.86446" lon="12.44781">
        <ele>39.225337</ele>
        <time>2020-08-13T15:40:55.959Z</time>
      </trkpt>
      <trkpt lat="65.86452" lon="12.44797">
        <ele>39.256503</ele>
        <time>2020-08-13T15:40:57.963Z</time>
      </trkpt>
      <trkpt lat="65.8646" lon="12.44823">
        <ele>39.302382</ele>
        <time>2020-08-13T15:41:00.964Z</time>
      </trkpt>
      <trkpt lat="65.86466" lon="12.4484">
        <ele>39.333729</ele>
        <time>2020-08-13T15:41:02.960Z</time>
      </trkpt>
      <trkpt lat="65.86472" lon="12.44857">
        <ele>39.365088</ele>
        <time>2020-08-13T15:41:04.977Z</time>
      </trkpt>
      <trkpt lat="65.86478" lon="12.44874">
        <ele>39.397233</ele>
        <time>2020-08-13T15:41:06.976Z</time>
      </trkpt>
      <trkpt lat="65.86485" lon="12.44891">
        <ele>39.372306</ele>
        <time>2020-08-13T15:41:09.012Z</time>
      </trkpt>
      <trkpt lat="65.86491" lon="12.44909">
        <ele>39.328251</ele>
        <time>2020-08-13T15:41:10.967Z</time>
      </trkpt>
      <trkpt lat="65.86497" lon="12.44927">
        <ele>39.284066</ele>
        <time>2020-08-13T15:41:12.994Z</time>
      </trkpt>
      <trkpt lat="65.86503" lon="12.44944">
        <ele>39.239722</ele>
        <time>2020-08-13T15:41:14.969Z</time>
      </trkpt>
      <trkpt lat="65.86509" lon="12.44962">
        <ele>39.194767</ele>
        <time>2020-08-13T15:41:16.967Z</time>
      </trkpt>
      <trkpt lat="65.86516" lon="12.4498">
        <ele>39.14905</ele>
        <time>2020-08-13T15:41:18.986Z</time>
      </trkpt>
      <trkpt lat="65.86522" lon="12.44998">
        <ele>39.10516</ele>
        <time>2020-08-13T15:41:20.984Z</time>
      </trkpt>
      <trkpt lat="65.86528" lon="12.45015">
        <ele>39.060671</ele>
        <time>2020-08-13T15:41:22.962Z</time>
      </trkpt>
      <trkpt lat="65.86534" lon="12.45033">
        <ele>39.017208</ele>
        <time>2020-08-13T15:41:24.979Z</time>
      </trkpt>
      <trkpt lat="65.86541" lon="12.4505">
        <ele>38.972962</ele>
        <time>2020-08-13T15:41:26.966Z</time>
      </trkpt>
      <trkpt lat="65.86547" lon="12.45067">
        <ele>38.929415</ele>
        <time>2020-08-13T15:41:28.995Z</time>
      </trkpt>
      <trkpt lat="65.86554" lon="12.45083">
        <ele>38.886282</ele>
        <time>2020-08-13T15:41:30.965Z</time>
      </trkpt>
      <trkpt lat="65.8656" lon="12.45101">
        <ele>38.84253</ele>
        <time>2020-08-13T15:41:33.003Z</time>
      </trkpt>
      <trkpt lat="65.86566" lon="12.45118">
        <ele>38.798905</ele>
        <time>2020-08-13T15:41:34.981Z</time>
      </trkpt>
      <trkpt lat="65.86572" lon="12.45135">
        <ele>38.756781</ele>
        <time>2020-08-13T15:41:36.962Z</time>
      </trkpt>
      <trkpt lat="65.86578" lon="12.45152">
        <ele>38.71391</ele>
        <time>2020-08-13T15:41:38.956Z</time>
      </trkpt>
      <trkpt lat="65.86584" lon="12.45169">
        <ele>38.670878</ele>
        <time>2020-08-13T15:41:40.982Z</time>
      </trkpt>
      <trkpt lat="65.8659" lon="12.45186">
        <ele>38.62666</ele>
        <time>2020-08-13T15:41:42.974Z</time>
      </trkpt>
      <trkpt lat="65.86596" lon="12.45203">
        <ele>38.582868</ele>
        <time>2020-08-13T15:41:44.982Z</time>
      </trkpt>
      <trkpt lat="65.86603" lon="12.45219">
        <ele>38.673083</ele>
        <time>2020-08-13T15:41:46.976Z</time>
      </trkpt>
      <trkpt lat="65.86612" lon="12.45242">
        <ele>38.907666</ele>
        <time>2020-08-13T15:41:49.965Z</time>
      </trkpt>
      <trkpt lat="65.8662" lon="12.45264">
        <ele>39.137814</ele>
        <time>2020-08-13T15:41:52.953Z</time>
      </trkpt>
      <trkpt lat="65.86629" lon="12.45287">
        <ele>39.366</ele>
        <time>2020-08-13T15:41:55.977Z</time>
      </trkpt>
      <trkpt lat="65.86637" lon="12.45311">
        <ele>39.594165</ele>
        <time>2020-08-13T15:41:58.997Z</time>
      </trkpt>
      <trkpt lat="65.86646" lon="12.45335">
        <ele>39.831054</ele>
        <time>2020-08-13T15:42:01.971Z</time>
      </trkpt>
      <trkpt lat="65.86654" lon="12.45357">
        <ele>40.053551</ele>
        <time>2020-08-13T15:42:04.983Z</time>
      </trkpt>
      <trkpt lat="65.86663" lon="12.4538">
        <ele>40.282442</ele>
        <time>2020-08-13T15:42:07.967Z</time>
      </trkpt>
      <trkpt lat="65.86671" lon="12.45403">
        <ele>40.50959</ele>
        <time>2020-08-13T15:42:11.055Z</time>
      </trkpt>
      <trkpt lat="65.86679" lon="12.45426">
        <ele>40.725788</ele>
        <time>2020-08-13T15:42:13.968Z</time>
      </trkpt>
      <trkpt lat="65.86687" lon="12.45448">
        <ele>40.942292</ele>
        <time>2020-08-13T15:42:16.984Z</time>
      </trkpt>
      <trkpt lat="65.86695" lon="12.45469">
        <ele>41.160557</ele>
        <time>2020-08-13T15:42:19.980Z</time>
      </trkpt>
      <trkpt lat="65.86703" lon="12.45494">
        <ele>41.388772</ele>
        <time>2020-08-13T15:42:22.957Z</time>
      </trkpt>
      <trkpt lat="65.86711" lon="12.45517">
        <ele>41.618214</ele>
        <time>2020-08-13T15:42:25.956Z</time>
      </trkpt>
      <trkpt lat="65.8672" lon="12.4554">
        <ele>41.826026</ele>
        <time>2020-08-13T15:42:28.981Z</time>
      </trkpt>
      <trkpt lat="65.86728" lon="12.45562">
        <ele>41.944796</ele>
        <time>2020-08-13T15:42:31.982Z</time>
      </trkpt>
      <trkpt lat="65.86737" lon="12.45584">
        <ele>42.061162</ele>
        <time>2020-08-13T15:42:35.007Z</time>
      </trkpt>
      <trkpt lat="65.86745" lon="12.45607">
        <ele>42.178087</ele>
        <time>2020-08-13T15:42:37.979Z</time>
      </trkpt>
      <trkpt lat="65.86754" lon="12.4563">
        <ele>42.298257</ele>
        <time>2020-08-13T15:42:40.984Z</time>
      </trkpt>
      <trkpt lat="65.86762" lon="12.45653">
        <ele>42.41773</ele>
        <time>2020-08-13T15:42:43.979Z</time>
      </trkpt>
      <trkpt lat="65.86771" lon="12.45676">
        <ele>42.538062</ele>
        <time>2020-08-13T15:42:47.004Z</time>
      </trkpt>
      <trkpt lat="65.8678" lon="12.45698">
        <ele>42.655401</ele>
        <time>2020-08-13T15:42:49.978Z</time>
      </trkpt>
      <trkpt lat="65.86788" lon="12.45719">
        <ele>42.769083</ele>
        <time>2020-08-13T15:42:52.997Z</time>
      </trkpt>
      <trkpt lat="65.86796" lon="12.45742">
        <ele>42.885876</ele>
        <time>2020-08-13T15:42:55.981Z</time>
      </trkpt>
      <trkpt lat="65.86804" lon="12.45765">
        <ele>42.999909</ele>
        <time>2020-08-13T15:42:58.973Z</time>
      </trkpt>
      <trkpt lat="65.86813" lon="12.45788">
        <ele>43.118426</ele>
        <time>2020-08-13T15:43:01.969Z</time>
      </trkpt>
      <trkpt lat="65.86821" lon="12.4581">
        <ele>43.231467</ele>
        <time>2020-08-13T15:43:04.979Z</time>
      </trkpt>
      <trkpt lat="65.86829" lon="12.45832">
        <ele>43.348754</ele>
        <time>2020-08-13T15:43:07.971Z</time>
      </trkpt>
      <trkpt lat="65.86838" lon="12.45855">
        <ele>43.467888</ele>
        <time>2020-08-13T15:43:10.967Z</time>
      </trkpt>
      <trkpt lat="65.86846" lon="12.45878">
        <ele>43.424442</ele>
        <time>2020-08-13T15:43:14.002Z</time>
      </trkpt>
      <trkpt lat="65.86853" lon="12.45902">
        <ele>43.327915</ele>
        <time>2020-08-13T15:43:16.994Z</time>
      </trkpt>
      <trkpt lat="65.86859" lon="12.45921">
        <ele>43.251653</ele>
        <time>2020-08-13T15:43:18.985Z</time>
      </trkpt>
      <trkpt lat="65.86866" lon="12.45939">
        <ele>43.172723</ele>
        <time>2020-08-13T15:43:20.970Z</time>
      </trkpt>
      <trkpt lat="65.86873" lon="12.45957">
        <ele>43.09238</ele>
        <time>2020-08-13T15:43:22.969Z</time>
      </trkpt>
      <trkpt lat="65.8688" lon="12.45975">
        <ele>43.012208</ele>
        <time>2020-08-13T15:43:24.988Z</time>
      </trkpt>
      <trkpt lat="65.86886" lon="12.45993">
        <ele>42.935411</ele>
        <time>2020-08-13T15:43:26.971Z</time>
      </trkpt>
      <trkpt lat="65.86893" lon="12.46011">
        <ele>42.858165</ele>
        <time>2020-08-13T15:43:28.999Z</time>
      </trkpt>
      <trkpt lat="65.86899" lon="12.46029">
        <ele>42.782183</ele>
        <time>2020-08-13T15:43:30.967Z</time>
      </trkpt>
      <trkpt lat="65.86905" lon="12.46047">
        <ele>42.705449</ele>
        <time>2020-08-13T15:43:32.963Z</time>
      </trkpt>
      <trkpt lat="65.86912" lon="12.46065">
        <ele>42.628725</ele>
        <time>2020-08-13T15:43:35.002Z</time>
      </trkpt>
      <trkpt lat="65.86917" lon="12.46083">
        <ele>42.556477</ele>
        <time>2020-08-13T15:43:37.000Z</time>
      </trkpt>
      <trkpt lat="65.86923" lon="12.46102">
        <ele>42.481829</ele>
        <time>2020-08-13T15:43:38.957Z</time>
      </trkpt>
      <trkpt lat="65.86928" lon="12.46121">
        <ele>42.408161</ele>
        <time>2020-08-13T15:43:40.983Z</time>
      </trkpt>
      <trkpt lat="65.86933" lon="12.46139">
        <ele>42.337046</ele>
        <time>2020-08-13T15:43:42.972Z</time>
      </trkpt>
      <trkpt lat="65.86939" lon="12.46157">
        <ele>42.265206</ele>
        <time>2020-08-13T15:43:44.956Z</time>
      </trkpt>
      <trkpt lat="65.86944" lon="12.46175">
        <ele>42.193143</ele>
        <time>2020-08-13T15:43:46.975Z</time>
      </trkpt>
      <trkpt lat="65.86951" lon="12.46202">
        <ele>42.090556</ele>
        <time>2020-08-13T15:43:49.972Z</time>
      </trkpt>
      <trkpt lat="65.86956" lon="12.46231">
        <ele>42.56238</ele>
        <time>2020-08-13T15:43:52.961Z</time>
      </trkpt>
      <trkpt lat="65.86961" lon="12.46261">
        <ele>43.100411</ele>
        <time>2020-08-13T15:43:55.983Z</time>
      </trkpt>
      <trkpt lat="65.86966" lon="12.46289">
        <ele>43.603263</ele>
        <time>2020-08-13T15:43:58.963Z</time>
      </trkpt>
      <trkpt lat="65.8697" lon="12.46317">
        <ele>44.087999</ele>
        <time>2020-08-13T15:44:01.973Z</time>
      </trkpt>
      <trkpt lat="65.86975" lon="12.46344">
        <ele>44.568069</ele>
        <time>2020-08-13T15:44:04.962Z</time>
      </trkpt>
      <trkpt lat="65.86978" lon="12.46369">
        <ele>45.02048</ele>
        <time>2020-08-13T15:44:07.958Z</time>
      </trkpt>
      <trkpt lat="65.86982" lon="12.46394">
        <ele>45.457656</ele>
        <time>2020-08-13T15:44:10.981Z</time>
      </trkpt>
      <trkpt lat="65.86985" lon="12.46418">
        <ele>45.881681</ele>
        <time>2020-08-13T15:44:13.966Z</time>
      </trkpt>
      <trkpt lat="65.86989" lon="12.46443">
        <ele>46.311088</ele>
        <time>2020-08-13T15:44:16.974Z</time>
      </trkpt>
      <trkpt lat="65.86993" lon="12.46467">
        <ele>46.743987</ele>
        <time>2020-08-13T15:44:19.967Z</time>
      </trkpt>
      <trkpt lat="65.86996" lon="12.46492">
        <ele>47.174324</ele>
        <time>2020-08-13T15:44:22.981Z</time>
      </trkpt>
      <trkpt lat="65.86999" lon="12.46517">
        <ele>47.604637</ele>
        <time>2020-08-13T15:44:25.968Z</time>
      </trkpt>
      <trkpt lat="65.87002" lon="12.46543">
        <ele>48.057645</ele>
        <time>2020-08-13T15:44:29.019Z</time>
      </trkpt>
      <trkpt lat="65.87007" lon="12.46568">
        <ele>48.508313</ele>
        <time>2020-08-13T15:44:31.958Z</time>
      </trkpt>
      <trkpt lat="65.8701" lon="12.46594">
        <ele>48.95662</ele>
        <time>2020-08-13T15:44:34.974Z</time>
      </trkpt>
      <trkpt lat="65.87014" lon="12.46622">
        <ele>49.363828</ele>
        <time>2020-08-13T15:44:37.973Z</time>
      </trkpt>
      <trkpt lat="65.87018" lon="12.46648">
        <ele>49.344494</ele>
        <time>2020-08-13T15:44:40.994Z</time>
      </trkpt>
      <trkpt lat="65.87023" lon="12.46675">
        <ele>49.324724</ele>
        <time>2020-08-13T15:44:43.971Z</time>
      </trkpt>
      <trkpt lat="65.87026" lon="12.46704">
        <ele>49.304603</ele>
        <time>2020-08-13T15:44:46.967Z</time>
      </trkpt>
      <trkpt lat="65.8703" lon="12.46732">
        <ele>49.283865</ele>
        <time>2020-08-13T15:44:49.966Z</time>
      </trkpt>
      <trkpt lat="65.87034" lon="12.46762">
        <ele>49.26238</ele>
        <time>2020-08-13T15:44:52.983Z</time>
      </trkpt>
      <trkpt lat="65.87038" lon="12.46792">
        <ele>49.241253</ele>
        <time>2020-08-13T15:44:55.970Z</time>
      </trkpt>
      <trkpt lat="65.87042" lon="12.4682">
        <ele>49.22114</ele>
        <time>2020-08-13T15:44:58.955Z</time>
      </trkpt>
      <trkpt lat="65.87046" lon="12.46848">
        <ele>49.200363</ele>
        <time>2020-08-13T15:45:01.985Z</time>
      </trkpt>
      <trkpt lat="65.8705" lon="12.46875">
        <ele>49.181093</ele>
        <time>2020-08-13T15:45:04.968Z</time>
      </trkpt>
      <trkpt lat="65.87054" lon="12.469">
        <ele>49.162615</ele>
        <time>2020-08-13T15:45:07.961Z</time>
      </trkpt>
      <trkpt lat="65.87058" lon="12.46921">
        <ele>49.146668</ele>
        <time>2020-08-13T15:45:10.955Z</time>
      </trkpt>
      <trkpt lat="65.87067" lon="12.46932">
        <ele>49.12991</ele>
        <time>2020-08-13T15:45:14.987Z</time>
      </trkpt>
      <trkpt lat="65.87077" lon="12.46927">
        <ele>49.112807</ele>
        <time>2020-08-13T15:45:17.965Z</time>
      </trkpt>
      <trkpt lat="65.87086" lon="12.46922">
        <ele>49.096563</ele>
        <time>2020-08-13T15:45:20.983Z</time>
      </trkpt>
      <trkpt lat="65.87098" lon="12.46915">
        <ele>49.077145</ele>
        <time>2020-08-13T15:45:24.992Z</time>
      </trkpt>
      <trkpt lat="65.87107" lon="12.46907">
        <ele>49.067021</ele>
        <time>2020-08-13T15:45:28.969Z</time>
      </trkpt>
      <trkpt lat="65.87116" lon="12.4689">
        <ele>49.067021</ele>
        <time>2020-08-13T15:45:33.963Z</time>
      </trkpt>
      <trkpt lat="65.87124" lon="12.46869">
        <ele>49.067021</ele>
        <time>2020-08-13T15:45:37.979Z</time>
      </trkpt>
      <trkpt lat="65.8713" lon="12.46849">
        <ele>49.067021</ele>
        <time>2020-08-13T15:45:40.984Z</time>
      </trkpt>
      <trkpt lat="65.87136" lon="12.46829">
        <ele>49.067021</ele>
        <time>2020-08-13T15:45:43.966Z</time>
      </trkpt>
      <trkpt lat="65.87141" lon="12.46806">
        <ele>49.067021</ele>
        <time>2020-08-13T15:45:47.952Z</time>
      </trkpt>
      <trkpt lat="65.87144" lon="12.46776">
        <ele>49.067021</ele>
        <time>2020-08-13T15:45:51.966Z</time>
      </trkpt>
      <trkpt lat="65.87147" lon="12.46754">
        <ele>49.067021</ele>
        <time>2020-08-13T15:45:53.978Z</time>
      </trkpt>
      <trkpt lat="65.87151" lon="12.46732">
        <ele>49.067021</ele>
        <time>2020-08-13T15:45:55.988Z</time>
      </trkpt>
      <trkpt lat="65.87158" lon="12.46714">
        <ele>49.067021</ele>
        <time>2020-08-13T15:45:57.998Z</time>
      </trkpt>
      <trkpt lat="65.87166" lon="12.46705">
        <ele>49.067021</ele>
        <time>2020-08-13T15:45:59.963Z</time>
      </trkpt>
      <trkpt lat="65.87178" lon="12.46693">
        <ele>49.067021</ele>
        <time>2020-08-13T15:46:02.963Z</time>
      </trkpt>
      <trkpt lat="65.87186" lon="12.4668">
        <ele>49.067021</ele>
        <time>2020-08-13T15:46:05.974Z</time>
      </trkpt>
      <trkpt lat="65.87193" lon="12.46665">
        <ele>49.067021</ele>
        <time>2020-08-13T15:46:09.963Z</time>
      </trkpt>
      <trkpt lat="65.872" lon="12.46647">
        <ele>49.067021</ele>
        <time>2020-08-13T15:46:13.979Z</time>
      </trkpt>
      <trkpt lat="65.87207" lon="12.46626">
        <ele>49.067021</ele>
        <time>2020-08-13T15:46:17.982Z</time>
      </trkpt>
      <trkpt lat="65.87213" lon="12.46607">
        <ele>49.067021</ele>
        <time>2020-08-13T15:46:20.960Z</time>
      </trkpt>
      <trkpt lat="65.87221" lon="12.46593">
        <ele>49.067021</ele>
        <time>2020-08-13T15:46:25.000Z</time>
      </trkpt>
      <trkpt lat="65.8723" lon="12.46577">
        <ele>49.067021</ele>
        <time>2020-08-13T15:46:28.964Z</time>
      </trkpt>
      <trkpt lat="65.8724" lon="12.46569">
        <ele>49.067021</ele>
        <time>2020-08-13T15:46:32.969Z</time>
      </trkpt>
      <trkpt lat="65.8725" lon="12.46565">
        <ele>49.067021</ele>
        <time>2020-08-13T15:46:36.974Z</time>
      </trkpt>
      <trkpt lat="65.87255" lon="12.46568">
        <ele>49.067021</ele>
        <time>2020-08-13T15:48:31.821Z</time>
      </trkpt>
    </trkseg>
  </trk>
</gpx>